<?xml version="1.0" encoding="UTF-8" standalone="no" ?>
<gpx xmlns="http://www.topografix.com/GPX/1/1" xmlns:xsi="http://www.w3.org/2001/XMLSchema-instance" xsi:schemaLocation="http://www.topografix.com/GPX/1/1 http://www.topografix.com/GPX/1/1/gpx.xsd" version="1.1" creator="VisuGPX - https://www.visugpx.com">
  <metadata>
    <name>15 mai 2026</name>
    <desc><![CDATA[1er jour de la Rencontre GTR 2026. De beaux paysages et des superbes routes]]></desc>
  </metadata>
  <trk>
    <name><![CDATA[15 mai 2026]]></name>
    <extensions>
      <line xmlns="http://www.topografix.com/GPX/gpx_style/0/2">
        <color>0000FF</color>
        <width>4</width>
      </line>
    </extensions>
    <trkseg>
      <trkpt lat="43.68094" lon="7.09916">
        <ele>130.9</ele>
        <time>2026-05-15T06:04:40Z</time>
      </trkpt>
      <trkpt lat="43.68094" lon="7.09916">
        <ele>130.9</ele>
        <time>2026-05-15T06:04:41Z</time>
      </trkpt>
      <trkpt lat="43.68094" lon="7.09916">
        <ele>130.9</ele>
        <time>2026-05-15T06:04:42Z</time>
      </trkpt>
      <trkpt lat="43.68094" lon="7.09916">
        <ele>130.9</ele>
        <time>2026-05-15T06:04:43Z</time>
      </trkpt>
      <trkpt lat="43.68094" lon="7.09916">
        <ele>130.9</ele>
        <time>2026-05-15T06:04:44Z</time>
      </trkpt>
      <trkpt lat="43.68094" lon="7.09916">
        <ele>130.9</ele>
        <time>2026-05-15T06:04:45Z</time>
      </trkpt>
      <trkpt lat="43.68094" lon="7.09916">
        <ele>130.9</ele>
        <time>2026-05-15T06:04:46Z</time>
      </trkpt>
      <trkpt lat="43.68094" lon="7.09916">
        <ele>130.9</ele>
        <time>2026-05-15T06:04:47Z</time>
      </trkpt>
      <trkpt lat="43.68094" lon="7.09916">
        <ele>130.9</ele>
        <time>2026-05-15T06:04:48Z</time>
      </trkpt>
      <trkpt lat="43.68094" lon="7.09916">
        <ele>130.9</ele>
        <time>2026-05-15T06:04:49Z</time>
      </trkpt>
      <trkpt lat="43.68094" lon="7.09916">
        <ele>130.9</ele>
        <time>2026-05-15T06:04:50Z</time>
      </trkpt>
      <trkpt lat="43.68094" lon="7.09916">
        <ele>130.9</ele>
        <time>2026-05-15T06:04:51Z</time>
      </trkpt>
      <trkpt lat="43.68094" lon="7.09916">
        <ele>130.9</ele>
        <time>2026-05-15T06:04:52Z</time>
      </trkpt>
      <trkpt lat="43.68094" lon="7.09916">
        <ele>130.9</ele>
        <time>2026-05-15T06:04:53Z</time>
      </trkpt>
      <trkpt lat="43.68094" lon="7.09916">
        <ele>130.9</ele>
        <time>2026-05-15T06:04:54Z</time>
      </trkpt>
      <trkpt lat="43.68094" lon="7.09916">
        <ele>130.9</ele>
        <time>2026-05-15T06:04:55Z</time>
      </trkpt>
      <trkpt lat="43.68094" lon="7.09916">
        <ele>130.9</ele>
        <time>2026-05-15T06:04:56Z</time>
      </trkpt>
      <trkpt lat="43.68094" lon="7.09916">
        <ele>130.9</ele>
        <time>2026-05-15T06:04:57Z</time>
      </trkpt>
      <trkpt lat="43.68094" lon="7.09916">
        <ele>130.9</ele>
        <time>2026-05-15T06:04:58Z</time>
      </trkpt>
      <trkpt lat="43.68094" lon="7.09916">
        <ele>130.9</ele>
        <time>2026-05-15T06:04:59Z</time>
      </trkpt>
      <trkpt lat="43.68094" lon="7.09916">
        <ele>130.9</ele>
        <time>2026-05-15T06:05:00Z</time>
      </trkpt>
      <trkpt lat="43.68094" lon="7.09916">
        <ele>130.9</ele>
        <time>2026-05-15T06:05:01Z</time>
      </trkpt>
      <trkpt lat="43.68094" lon="7.09916">
        <ele>130.9</ele>
        <time>2026-05-15T06:05:02Z</time>
      </trkpt>
      <trkpt lat="43.68094" lon="7.09916">
        <ele>130.9</ele>
        <time>2026-05-15T06:05:03Z</time>
      </trkpt>
      <trkpt lat="43.68094" lon="7.09916">
        <ele>130.9</ele>
        <time>2026-05-15T06:05:04Z</time>
      </trkpt>
      <trkpt lat="43.68094" lon="7.09916">
        <ele>130.9</ele>
        <time>2026-05-15T06:05:05Z</time>
      </trkpt>
      <trkpt lat="43.68094" lon="7.09916">
        <ele>130.9</ele>
        <time>2026-05-15T06:05:06Z</time>
      </trkpt>
      <trkpt lat="43.68094" lon="7.09916">
        <ele>130.9</ele>
        <time>2026-05-15T06:05:07Z</time>
      </trkpt>
      <trkpt lat="43.68094" lon="7.09916">
        <ele>130.9</ele>
        <time>2026-05-15T06:05:08Z</time>
      </trkpt>
      <trkpt lat="43.68094" lon="7.09916">
        <ele>130.9</ele>
        <time>2026-05-15T06:05:09Z</time>
      </trkpt>
      <trkpt lat="43.68094" lon="7.09916">
        <ele>130.9</ele>
        <time>2026-05-15T06:05:10Z</time>
      </trkpt>
      <trkpt lat="43.68094" lon="7.09916">
        <ele>130.9</ele>
        <time>2026-05-15T06:05:11Z</time>
      </trkpt>
      <trkpt lat="43.68094" lon="7.09916">
        <ele>130.9</ele>
        <time>2026-05-15T06:05:12Z</time>
      </trkpt>
      <trkpt lat="43.68094" lon="7.09916">
        <ele>130.9</ele>
        <time>2026-05-15T06:05:13Z</time>
      </trkpt>
      <trkpt lat="43.68094" lon="7.09916">
        <ele>130.9</ele>
        <time>2026-05-15T06:05:14Z</time>
      </trkpt>
      <trkpt lat="43.68094" lon="7.09916">
        <ele>130.9</ele>
        <time>2026-05-15T06:05:15Z</time>
      </trkpt>
      <trkpt lat="43.68094" lon="7.09916">
        <ele>130.9</ele>
        <time>2026-05-15T06:05:16Z</time>
      </trkpt>
      <trkpt lat="43.68094" lon="7.09915">
        <ele>130.9</ele>
        <time>2026-05-15T06:05:17Z</time>
      </trkpt>
      <trkpt lat="43.68093" lon="7.09915">
        <ele>130.8</ele>
        <time>2026-05-15T06:05:18Z</time>
      </trkpt>
      <trkpt lat="43.68093" lon="7.09916">
        <ele>130.8</ele>
        <time>2026-05-15T06:05:19Z</time>
      </trkpt>
      <trkpt lat="43.68093" lon="7.09916">
        <ele>130.8</ele>
        <time>2026-05-15T06:05:20Z</time>
      </trkpt>
      <trkpt lat="43.68093" lon="7.09916">
        <ele>130.8</ele>
        <time>2026-05-15T06:05:21Z</time>
      </trkpt>
      <trkpt lat="43.68093" lon="7.09916">
        <ele>130.8</ele>
        <time>2026-05-15T06:05:22Z</time>
      </trkpt>
      <trkpt lat="43.68093" lon="7.09916">
        <ele>130.8</ele>
        <time>2026-05-15T06:05:23Z</time>
      </trkpt>
      <trkpt lat="43.68093" lon="7.09916">
        <ele>130.8</ele>
        <time>2026-05-15T06:05:24Z</time>
      </trkpt>
      <trkpt lat="43.68093" lon="7.09916">
        <ele>130.8</ele>
        <time>2026-05-15T06:05:25Z</time>
      </trkpt>
      <trkpt lat="43.68093" lon="7.09916">
        <ele>130.8</ele>
        <time>2026-05-15T06:05:26Z</time>
      </trkpt>
      <trkpt lat="43.68093" lon="7.09917">
        <ele>130.7</ele>
        <time>2026-05-15T06:05:27Z</time>
      </trkpt>
      <trkpt lat="43.68093" lon="7.09917">
        <ele>130.7</ele>
        <time>2026-05-15T06:05:28Z</time>
      </trkpt>
      <trkpt lat="43.68093" lon="7.09917">
        <ele>130.7</ele>
        <time>2026-05-15T06:05:29Z</time>
      </trkpt>
      <trkpt lat="43.68093" lon="7.09917">
        <ele>130.7</ele>
        <time>2026-05-15T06:05:30Z</time>
      </trkpt>
      <trkpt lat="43.68093" lon="7.09918">
        <ele>130.7</ele>
        <time>2026-05-15T06:05:31Z</time>
      </trkpt>
      <trkpt lat="43.68093" lon="7.09918">
        <ele>130.7</ele>
        <time>2026-05-15T06:05:32Z</time>
      </trkpt>
      <trkpt lat="43.68093" lon="7.09918">
        <ele>130.7</ele>
        <time>2026-05-15T06:05:33Z</time>
      </trkpt>
      <trkpt lat="43.68093" lon="7.09918">
        <ele>130.7</ele>
        <time>2026-05-15T06:05:34Z</time>
      </trkpt>
      <trkpt lat="43.68093" lon="7.09918">
        <ele>130.7</ele>
        <time>2026-05-15T06:05:35Z</time>
      </trkpt>
      <trkpt lat="43.68093" lon="7.09918">
        <ele>130.7</ele>
        <time>2026-05-15T06:05:36Z</time>
      </trkpt>
      <trkpt lat="43.68093" lon="7.09918">
        <ele>130.7</ele>
        <time>2026-05-15T06:05:37Z</time>
      </trkpt>
      <trkpt lat="43.68093" lon="7.09918">
        <ele>130.7</ele>
        <time>2026-05-15T06:05:38Z</time>
      </trkpt>
      <trkpt lat="43.68093" lon="7.09917">
        <ele>130.7</ele>
        <time>2026-05-15T06:05:39Z</time>
      </trkpt>
      <trkpt lat="43.68093" lon="7.09916">
        <ele>130.8</ele>
        <time>2026-05-15T06:05:40Z</time>
      </trkpt>
      <trkpt lat="43.68093" lon="7.09915">
        <ele>130.8</ele>
        <time>2026-05-15T06:05:41Z</time>
      </trkpt>
      <trkpt lat="43.68093" lon="7.09914">
        <ele>130.8</ele>
        <time>2026-05-15T06:05:42Z</time>
      </trkpt>
      <trkpt lat="43.68093" lon="7.09914">
        <ele>130.8</ele>
        <time>2026-05-15T06:05:43Z</time>
      </trkpt>
      <trkpt lat="43.68093" lon="7.09914">
        <ele>130.8</ele>
        <time>2026-05-15T06:05:44Z</time>
      </trkpt>
      <trkpt lat="43.68093" lon="7.09914">
        <ele>130.8</ele>
        <time>2026-05-15T06:05:45Z</time>
      </trkpt>
      <trkpt lat="43.68093" lon="7.09912">
        <ele>130.8</ele>
        <time>2026-05-15T06:05:46Z</time>
      </trkpt>
      <trkpt lat="43.68093" lon="7.09911">
        <ele>130.9</ele>
        <time>2026-05-15T06:05:47Z</time>
      </trkpt>
      <trkpt lat="43.68093" lon="7.09911">
        <ele>130.9</ele>
        <time>2026-05-15T06:05:48Z</time>
      </trkpt>
      <trkpt lat="43.68093" lon="7.09911">
        <ele>130.9</ele>
        <time>2026-05-15T06:05:49Z</time>
      </trkpt>
      <trkpt lat="43.68093" lon="7.09911">
        <ele>130.9</ele>
        <time>2026-05-15T06:05:50Z</time>
      </trkpt>
      <trkpt lat="43.68093" lon="7.09911">
        <ele>130.9</ele>
        <time>2026-05-15T06:05:51Z</time>
      </trkpt>
      <trkpt lat="43.68093" lon="7.09911">
        <ele>130.9</ele>
        <time>2026-05-15T06:05:52Z</time>
      </trkpt>
      <trkpt lat="43.68093" lon="7.09911">
        <ele>130.9</ele>
        <time>2026-05-15T06:05:53Z</time>
      </trkpt>
      <trkpt lat="43.68092" lon="7.09911">
        <ele>130.7</ele>
        <time>2026-05-15T06:05:54Z</time>
      </trkpt>
      <trkpt lat="43.68092" lon="7.09911">
        <ele>130.7</ele>
        <time>2026-05-15T06:05:55Z</time>
      </trkpt>
      <trkpt lat="43.68092" lon="7.09911">
        <ele>130.7</ele>
        <time>2026-05-15T06:05:56Z</time>
      </trkpt>
      <trkpt lat="43.68092" lon="7.09911">
        <ele>130.7</ele>
        <time>2026-05-15T06:05:57Z</time>
      </trkpt>
      <trkpt lat="43.68092" lon="7.0991">
        <ele>130.7</ele>
        <time>2026-05-15T06:05:58Z</time>
      </trkpt>
      <trkpt lat="43.68092" lon="7.0991">
        <ele>130.7</ele>
        <time>2026-05-15T06:05:59Z</time>
      </trkpt>
      <trkpt lat="43.68092" lon="7.0991">
        <ele>130.7</ele>
        <time>2026-05-15T06:06:00Z</time>
      </trkpt>
      <trkpt lat="43.68092" lon="7.0991">
        <ele>130.7</ele>
        <time>2026-05-15T06:06:01Z</time>
      </trkpt>
      <trkpt lat="43.68092" lon="7.0991">
        <ele>130.7</ele>
        <time>2026-05-15T06:06:02Z</time>
      </trkpt>
      <trkpt lat="43.68092" lon="7.0991">
        <ele>130.7</ele>
        <time>2026-05-15T06:06:03Z</time>
      </trkpt>
      <trkpt lat="43.68092" lon="7.0991">
        <ele>130.7</ele>
        <time>2026-05-15T06:06:04Z</time>
      </trkpt>
      <trkpt lat="43.68092" lon="7.0991">
        <ele>130.7</ele>
        <time>2026-05-15T06:06:05Z</time>
      </trkpt>
      <trkpt lat="43.68092" lon="7.0991">
        <ele>130.7</ele>
        <time>2026-05-15T06:06:06Z</time>
      </trkpt>
      <trkpt lat="43.68092" lon="7.0991">
        <ele>130.7</ele>
        <time>2026-05-15T06:06:07Z</time>
      </trkpt>
      <trkpt lat="43.68092" lon="7.0991">
        <ele>130.7</ele>
        <time>2026-05-15T06:06:08Z</time>
      </trkpt>
      <trkpt lat="43.68092" lon="7.0991">
        <ele>130.7</ele>
        <time>2026-05-15T06:06:09Z</time>
      </trkpt>
      <trkpt lat="43.68092" lon="7.0991">
        <ele>130.7</ele>
        <time>2026-05-15T06:06:10Z</time>
      </trkpt>
      <trkpt lat="43.68092" lon="7.0991">
        <ele>130.7</ele>
        <time>2026-05-15T06:06:11Z</time>
      </trkpt>
      <trkpt lat="43.68092" lon="7.0991">
        <ele>130.7</ele>
        <time>2026-05-15T06:06:12Z</time>
      </trkpt>
      <trkpt lat="43.68092" lon="7.0991">
        <ele>130.7</ele>
        <time>2026-05-15T06:06:13Z</time>
      </trkpt>
      <trkpt lat="43.68092" lon="7.0991">
        <ele>130.7</ele>
        <time>2026-05-15T06:06:14Z</time>
      </trkpt>
      <trkpt lat="43.68092" lon="7.0991">
        <ele>130.7</ele>
        <time>2026-05-15T06:06:15Z</time>
      </trkpt>
      <trkpt lat="43.68092" lon="7.0991">
        <ele>130.7</ele>
        <time>2026-05-15T06:06:16Z</time>
      </trkpt>
      <trkpt lat="43.68092" lon="7.0991">
        <ele>130.7</ele>
        <time>2026-05-15T06:06:17Z</time>
      </trkpt>
      <trkpt lat="43.68092" lon="7.0991">
        <ele>130.7</ele>
        <time>2026-05-15T06:06:18Z</time>
      </trkpt>
      <trkpt lat="43.68092" lon="7.0991">
        <ele>130.7</ele>
        <time>2026-05-15T06:06:19Z</time>
      </trkpt>
      <trkpt lat="43.68092" lon="7.0991">
        <ele>130.7</ele>
        <time>2026-05-15T06:06:20Z</time>
      </trkpt>
      <trkpt lat="43.68092" lon="7.0991">
        <ele>130.7</ele>
        <time>2026-05-15T06:06:21Z</time>
      </trkpt>
      <trkpt lat="43.68092" lon="7.0991">
        <ele>130.7</ele>
        <time>2026-05-15T06:06:22Z</time>
      </trkpt>
      <trkpt lat="43.68092" lon="7.0991">
        <ele>130.7</ele>
        <time>2026-05-15T06:06:23Z</time>
      </trkpt>
      <trkpt lat="43.68092" lon="7.0991">
        <ele>130.7</ele>
        <time>2026-05-15T06:06:24Z</time>
      </trkpt>
      <trkpt lat="43.68092" lon="7.0991">
        <ele>130.7</ele>
        <time>2026-05-15T06:06:25Z</time>
      </trkpt>
      <trkpt lat="43.68092" lon="7.0991">
        <ele>130.7</ele>
        <time>2026-05-15T06:06:26Z</time>
      </trkpt>
      <trkpt lat="43.68092" lon="7.0991">
        <ele>130.7</ele>
        <time>2026-05-15T06:06:27Z</time>
      </trkpt>
      <trkpt lat="43.68092" lon="7.0991">
        <ele>130.7</ele>
        <time>2026-05-15T06:06:28Z</time>
      </trkpt>
      <trkpt lat="43.68092" lon="7.0991">
        <ele>130.7</ele>
        <time>2026-05-15T06:06:29Z</time>
      </trkpt>
      <trkpt lat="43.68092" lon="7.0991">
        <ele>130.7</ele>
        <time>2026-05-15T06:06:30Z</time>
      </trkpt>
      <trkpt lat="43.68092" lon="7.0991">
        <ele>130.7</ele>
        <time>2026-05-15T06:06:31Z</time>
      </trkpt>
      <trkpt lat="43.68092" lon="7.0991">
        <ele>130.7</ele>
        <time>2026-05-15T06:06:32Z</time>
      </trkpt>
      <trkpt lat="43.68092" lon="7.0991">
        <ele>130.7</ele>
        <time>2026-05-15T06:06:33Z</time>
      </trkpt>
      <trkpt lat="43.68092" lon="7.0991">
        <ele>130.7</ele>
        <time>2026-05-15T06:06:34Z</time>
      </trkpt>
      <trkpt lat="43.68092" lon="7.0991">
        <ele>130.7</ele>
        <time>2026-05-15T06:06:35Z</time>
      </trkpt>
      <trkpt lat="43.68092" lon="7.0991">
        <ele>130.7</ele>
        <time>2026-05-15T06:06:36Z</time>
      </trkpt>
      <trkpt lat="43.68092" lon="7.0991">
        <ele>130.7</ele>
        <time>2026-05-15T06:06:37Z</time>
      </trkpt>
      <trkpt lat="43.68092" lon="7.0991">
        <ele>130.7</ele>
        <time>2026-05-15T06:06:38Z</time>
      </trkpt>
      <trkpt lat="43.68092" lon="7.0991">
        <ele>130.7</ele>
        <time>2026-05-15T06:06:39Z</time>
      </trkpt>
      <trkpt lat="43.68092" lon="7.0991">
        <ele>130.7</ele>
        <time>2026-05-15T06:06:40Z</time>
      </trkpt>
      <trkpt lat="43.68092" lon="7.0991">
        <ele>130.7</ele>
        <time>2026-05-15T06:06:41Z</time>
      </trkpt>
      <trkpt lat="43.68092" lon="7.0991">
        <ele>130.7</ele>
        <time>2026-05-15T06:06:42Z</time>
      </trkpt>
      <trkpt lat="43.68092" lon="7.0991">
        <ele>130.7</ele>
        <time>2026-05-15T06:06:43Z</time>
      </trkpt>
      <trkpt lat="43.68092" lon="7.0991">
        <ele>130.7</ele>
        <time>2026-05-15T06:06:44Z</time>
      </trkpt>
      <trkpt lat="43.68092" lon="7.0991">
        <ele>130.7</ele>
        <time>2026-05-15T06:06:45Z</time>
      </trkpt>
      <trkpt lat="43.68092" lon="7.0991">
        <ele>130.7</ele>
        <time>2026-05-15T06:06:46Z</time>
      </trkpt>
      <trkpt lat="43.68092" lon="7.0991">
        <ele>130.7</ele>
        <time>2026-05-15T06:06:47Z</time>
      </trkpt>
      <trkpt lat="43.68092" lon="7.0991">
        <ele>130.7</ele>
        <time>2026-05-15T06:06:48Z</time>
      </trkpt>
      <trkpt lat="43.68092" lon="7.0991">
        <ele>130.7</ele>
        <time>2026-05-15T06:06:49Z</time>
      </trkpt>
      <trkpt lat="43.68092" lon="7.0991">
        <ele>130.7</ele>
        <time>2026-05-15T06:06:50Z</time>
      </trkpt>
      <trkpt lat="43.68092" lon="7.0991">
        <ele>130.7</ele>
        <time>2026-05-15T06:06:51Z</time>
      </trkpt>
      <trkpt lat="43.68092" lon="7.0991">
        <ele>130.7</ele>
        <time>2026-05-15T06:06:52Z</time>
      </trkpt>
      <trkpt lat="43.68092" lon="7.0991">
        <ele>130.7</ele>
        <time>2026-05-15T06:06:53Z</time>
      </trkpt>
      <trkpt lat="43.68092" lon="7.0991">
        <ele>130.7</ele>
        <time>2026-05-15T06:06:54Z</time>
      </trkpt>
      <trkpt lat="43.68092" lon="7.0991">
        <ele>130.7</ele>
        <time>2026-05-15T06:06:55Z</time>
      </trkpt>
      <trkpt lat="43.68092" lon="7.0991">
        <ele>130.7</ele>
        <time>2026-05-15T06:06:56Z</time>
      </trkpt>
      <trkpt lat="43.68092" lon="7.0991">
        <ele>130.7</ele>
        <time>2026-05-15T06:06:57Z</time>
      </trkpt>
      <trkpt lat="43.68092" lon="7.0991">
        <ele>130.7</ele>
        <time>2026-05-15T06:06:58Z</time>
      </trkpt>
      <trkpt lat="43.68092" lon="7.0991">
        <ele>130.7</ele>
        <time>2026-05-15T06:06:59Z</time>
      </trkpt>
      <trkpt lat="43.68092" lon="7.0991">
        <ele>130.7</ele>
        <time>2026-05-15T06:07:00Z</time>
      </trkpt>
      <trkpt lat="43.68092" lon="7.0991">
        <ele>130.7</ele>
        <time>2026-05-15T06:07:01Z</time>
      </trkpt>
      <trkpt lat="43.68092" lon="7.0991">
        <ele>130.7</ele>
        <time>2026-05-15T06:07:02Z</time>
      </trkpt>
      <trkpt lat="43.68092" lon="7.0991">
        <ele>130.7</ele>
        <time>2026-05-15T06:07:03Z</time>
      </trkpt>
      <trkpt lat="43.68092" lon="7.0991">
        <ele>130.7</ele>
        <time>2026-05-15T06:07:04Z</time>
      </trkpt>
      <trkpt lat="43.68092" lon="7.0991">
        <ele>130.7</ele>
        <time>2026-05-15T06:07:05Z</time>
      </trkpt>
      <trkpt lat="43.68092" lon="7.0991">
        <ele>130.7</ele>
        <time>2026-05-15T06:07:06Z</time>
      </trkpt>
      <trkpt lat="43.68092" lon="7.0991">
        <ele>130.7</ele>
        <time>2026-05-15T06:07:07Z</time>
      </trkpt>
      <trkpt lat="43.68092" lon="7.0991">
        <ele>130.7</ele>
        <time>2026-05-15T06:07:08Z</time>
      </trkpt>
      <trkpt lat="43.68092" lon="7.0991">
        <ele>130.7</ele>
        <time>2026-05-15T06:07:09Z</time>
      </trkpt>
      <trkpt lat="43.68092" lon="7.0991">
        <ele>130.7</ele>
        <time>2026-05-15T06:07:10Z</time>
      </trkpt>
      <trkpt lat="43.68092" lon="7.0991">
        <ele>130.7</ele>
        <time>2026-05-15T06:07:11Z</time>
      </trkpt>
      <trkpt lat="43.68092" lon="7.0991">
        <ele>130.7</ele>
        <time>2026-05-15T06:07:12Z</time>
      </trkpt>
      <trkpt lat="43.68092" lon="7.0991">
        <ele>130.7</ele>
        <time>2026-05-15T06:07:13Z</time>
      </trkpt>
      <trkpt lat="43.68092" lon="7.0991">
        <ele>130.7</ele>
        <time>2026-05-15T06:07:14Z</time>
      </trkpt>
      <trkpt lat="43.68092" lon="7.0991">
        <ele>130.7</ele>
        <time>2026-05-15T06:07:15Z</time>
      </trkpt>
      <trkpt lat="43.68092" lon="7.0991">
        <ele>130.7</ele>
        <time>2026-05-15T06:07:16Z</time>
      </trkpt>
      <trkpt lat="43.68092" lon="7.0991">
        <ele>130.7</ele>
        <time>2026-05-15T06:07:17Z</time>
      </trkpt>
      <trkpt lat="43.68092" lon="7.0991">
        <ele>130.7</ele>
        <time>2026-05-15T06:07:18Z</time>
      </trkpt>
      <trkpt lat="43.68092" lon="7.0991">
        <ele>130.7</ele>
        <time>2026-05-15T06:07:19Z</time>
      </trkpt>
      <trkpt lat="43.68092" lon="7.0991">
        <ele>130.7</ele>
        <time>2026-05-15T06:07:20Z</time>
      </trkpt>
      <trkpt lat="43.68092" lon="7.0991">
        <ele>130.7</ele>
        <time>2026-05-15T06:07:21Z</time>
      </trkpt>
      <trkpt lat="43.68092" lon="7.0991">
        <ele>130.7</ele>
        <time>2026-05-15T06:07:22Z</time>
      </trkpt>
      <trkpt lat="43.68092" lon="7.0991">
        <ele>130.7</ele>
        <time>2026-05-15T06:07:23Z</time>
      </trkpt>
      <trkpt lat="43.68092" lon="7.0991">
        <ele>130.7</ele>
        <time>2026-05-15T06:07:24Z</time>
      </trkpt>
      <trkpt lat="43.68092" lon="7.0991">
        <ele>130.7</ele>
        <time>2026-05-15T06:07:25Z</time>
      </trkpt>
      <trkpt lat="43.68092" lon="7.0991">
        <ele>130.7</ele>
        <time>2026-05-15T06:07:26Z</time>
      </trkpt>
      <trkpt lat="43.68092" lon="7.0991">
        <ele>130.7</ele>
        <time>2026-05-15T06:07:27Z</time>
      </trkpt>
      <trkpt lat="43.68092" lon="7.0991">
        <ele>130.7</ele>
        <time>2026-05-15T06:07:28Z</time>
      </trkpt>
      <trkpt lat="43.68092" lon="7.0991">
        <ele>130.7</ele>
        <time>2026-05-15T06:07:29Z</time>
      </trkpt>
      <trkpt lat="43.68092" lon="7.0991">
        <ele>130.7</ele>
        <time>2026-05-15T06:07:30Z</time>
      </trkpt>
      <trkpt lat="43.68092" lon="7.0991">
        <ele>130.7</ele>
        <time>2026-05-15T06:07:31Z</time>
      </trkpt>
      <trkpt lat="43.68092" lon="7.0991">
        <ele>130.7</ele>
        <time>2026-05-15T06:07:32Z</time>
      </trkpt>
      <trkpt lat="43.68092" lon="7.0991">
        <ele>130.7</ele>
        <time>2026-05-15T06:07:33Z</time>
      </trkpt>
      <trkpt lat="43.68092" lon="7.0991">
        <ele>130.7</ele>
        <time>2026-05-15T06:07:34Z</time>
      </trkpt>
      <trkpt lat="43.68092" lon="7.0991">
        <ele>130.7</ele>
        <time>2026-05-15T06:07:35Z</time>
      </trkpt>
      <trkpt lat="43.68092" lon="7.0991">
        <ele>130.7</ele>
        <time>2026-05-15T06:07:36Z</time>
      </trkpt>
      <trkpt lat="43.68092" lon="7.0991">
        <ele>130.7</ele>
        <time>2026-05-15T06:07:37Z</time>
      </trkpt>
      <trkpt lat="43.68092" lon="7.0991">
        <ele>130.7</ele>
        <time>2026-05-15T06:07:38Z</time>
      </trkpt>
      <trkpt lat="43.68092" lon="7.0991">
        <ele>130.7</ele>
        <time>2026-05-15T06:07:39Z</time>
      </trkpt>
      <trkpt lat="43.68092" lon="7.0991">
        <ele>130.7</ele>
        <time>2026-05-15T06:07:40Z</time>
      </trkpt>
      <trkpt lat="43.68092" lon="7.0991">
        <ele>130.7</ele>
        <time>2026-05-15T06:07:41Z</time>
      </trkpt>
      <trkpt lat="43.68092" lon="7.0991">
        <ele>130.7</ele>
        <time>2026-05-15T06:07:42Z</time>
      </trkpt>
      <trkpt lat="43.68092" lon="7.0991">
        <ele>130.7</ele>
        <time>2026-05-15T06:07:43Z</time>
      </trkpt>
      <trkpt lat="43.68092" lon="7.0991">
        <ele>130.7</ele>
        <time>2026-05-15T06:07:44Z</time>
      </trkpt>
      <trkpt lat="43.68092" lon="7.0991">
        <ele>130.7</ele>
        <time>2026-05-15T06:07:45Z</time>
      </trkpt>
      <trkpt lat="43.68092" lon="7.0991">
        <ele>130.7</ele>
        <time>2026-05-15T06:07:46Z</time>
      </trkpt>
      <trkpt lat="43.68092" lon="7.0991">
        <ele>130.7</ele>
        <time>2026-05-15T06:07:47Z</time>
      </trkpt>
      <trkpt lat="43.68092" lon="7.0991">
        <ele>130.7</ele>
        <time>2026-05-15T06:07:48Z</time>
      </trkpt>
      <trkpt lat="43.68092" lon="7.0991">
        <ele>130.7</ele>
        <time>2026-05-15T06:07:49Z</time>
      </trkpt>
      <trkpt lat="43.68092" lon="7.0991">
        <ele>130.7</ele>
        <time>2026-05-15T06:07:50Z</time>
      </trkpt>
      <trkpt lat="43.68092" lon="7.0991">
        <ele>130.7</ele>
        <time>2026-05-15T06:07:51Z</time>
      </trkpt>
      <trkpt lat="43.68092" lon="7.0991">
        <ele>130.7</ele>
        <time>2026-05-15T06:07:52Z</time>
      </trkpt>
      <trkpt lat="43.68092" lon="7.0991">
        <ele>130.7</ele>
        <time>2026-05-15T06:07:53Z</time>
      </trkpt>
      <trkpt lat="43.68092" lon="7.09911">
        <ele>130.7</ele>
        <time>2026-05-15T06:07:54Z</time>
      </trkpt>
      <trkpt lat="43.68092" lon="7.09911">
        <ele>130.7</ele>
        <time>2026-05-15T06:07:55Z</time>
      </trkpt>
      <trkpt lat="43.68092" lon="7.09911">
        <ele>130.7</ele>
        <time>2026-05-15T06:07:56Z</time>
      </trkpt>
      <trkpt lat="43.68092" lon="7.09912">
        <ele>130.7</ele>
        <time>2026-05-15T06:07:57Z</time>
      </trkpt>
      <trkpt lat="43.68092" lon="7.09912">
        <ele>130.7</ele>
        <time>2026-05-15T06:07:58Z</time>
      </trkpt>
      <trkpt lat="43.68091" lon="7.09912">
        <ele>130.5</ele>
        <time>2026-05-15T06:07:59Z</time>
      </trkpt>
      <trkpt lat="43.68091" lon="7.09912">
        <ele>130.5</ele>
        <time>2026-05-15T06:08:00Z</time>
      </trkpt>
      <trkpt lat="43.68091" lon="7.09912">
        <ele>130.5</ele>
        <time>2026-05-15T06:08:01Z</time>
      </trkpt>
      <trkpt lat="43.68091" lon="7.09912">
        <ele>130.5</ele>
        <time>2026-05-15T06:08:02Z</time>
      </trkpt>
      <trkpt lat="43.68091" lon="7.09912">
        <ele>130.5</ele>
        <time>2026-05-15T06:08:03Z</time>
      </trkpt>
      <trkpt lat="43.68091" lon="7.09912">
        <ele>130.5</ele>
        <time>2026-05-15T06:08:04Z</time>
      </trkpt>
      <trkpt lat="43.68092" lon="7.09912">
        <ele>130.7</ele>
        <time>2026-05-15T06:08:05Z</time>
      </trkpt>
      <trkpt lat="43.68092" lon="7.09912">
        <ele>130.7</ele>
        <time>2026-05-15T06:08:06Z</time>
      </trkpt>
      <trkpt lat="43.68092" lon="7.09912">
        <ele>130.7</ele>
        <time>2026-05-15T06:08:07Z</time>
      </trkpt>
      <trkpt lat="43.68092" lon="7.09912">
        <ele>130.7</ele>
        <time>2026-05-15T06:08:08Z</time>
      </trkpt>
      <trkpt lat="43.68092" lon="7.09912">
        <ele>130.7</ele>
        <time>2026-05-15T06:08:09Z</time>
      </trkpt>
      <trkpt lat="43.68092" lon="7.09912">
        <ele>130.7</ele>
        <time>2026-05-15T06:08:10Z</time>
      </trkpt>
      <trkpt lat="43.68093" lon="7.09912">
        <ele>130.8</ele>
        <time>2026-05-15T06:08:11Z</time>
      </trkpt>
      <trkpt lat="43.68093" lon="7.09912">
        <ele>130.8</ele>
        <time>2026-05-15T06:08:12Z</time>
      </trkpt>
      <trkpt lat="43.68093" lon="7.09912">
        <ele>130.8</ele>
        <time>2026-05-15T06:08:13Z</time>
      </trkpt>
      <trkpt lat="43.68093" lon="7.09912">
        <ele>130.8</ele>
        <time>2026-05-15T06:08:14Z</time>
      </trkpt>
      <trkpt lat="43.68093" lon="7.09912">
        <ele>130.8</ele>
        <time>2026-05-15T06:08:15Z</time>
      </trkpt>
      <trkpt lat="43.68093" lon="7.09912">
        <ele>130.8</ele>
        <time>2026-05-15T06:08:16Z</time>
      </trkpt>
      <trkpt lat="43.68093" lon="7.09912">
        <ele>130.8</ele>
        <time>2026-05-15T06:08:17Z</time>
      </trkpt>
      <trkpt lat="43.68093" lon="7.09912">
        <ele>130.8</ele>
        <time>2026-05-15T06:08:18Z</time>
      </trkpt>
      <trkpt lat="43.68093" lon="7.09912">
        <ele>130.8</ele>
        <time>2026-05-15T06:08:19Z</time>
      </trkpt>
      <trkpt lat="43.68093" lon="7.09912">
        <ele>130.8</ele>
        <time>2026-05-15T06:08:20Z</time>
      </trkpt>
      <trkpt lat="43.68093" lon="7.09912">
        <ele>130.8</ele>
        <time>2026-05-15T06:08:21Z</time>
      </trkpt>
      <trkpt lat="43.68093" lon="7.09912">
        <ele>130.8</ele>
        <time>2026-05-15T06:08:22Z</time>
      </trkpt>
      <trkpt lat="43.68093" lon="7.09912">
        <ele>130.8</ele>
        <time>2026-05-15T06:08:23Z</time>
      </trkpt>
      <trkpt lat="43.68093" lon="7.09912">
        <ele>130.8</ele>
        <time>2026-05-15T06:08:24Z</time>
      </trkpt>
      <trkpt lat="43.68093" lon="7.09912">
        <ele>130.8</ele>
        <time>2026-05-15T06:08:25Z</time>
      </trkpt>
      <trkpt lat="43.68093" lon="7.09912">
        <ele>130.8</ele>
        <time>2026-05-15T06:08:26Z</time>
      </trkpt>
      <trkpt lat="43.68093" lon="7.09912">
        <ele>130.8</ele>
        <time>2026-05-15T06:08:27Z</time>
      </trkpt>
      <trkpt lat="43.68093" lon="7.09912">
        <ele>130.8</ele>
        <time>2026-05-15T06:08:28Z</time>
      </trkpt>
      <trkpt lat="43.68093" lon="7.09912">
        <ele>130.8</ele>
        <time>2026-05-15T06:08:29Z</time>
      </trkpt>
      <trkpt lat="43.68093" lon="7.09912">
        <ele>130.8</ele>
        <time>2026-05-15T06:08:30Z</time>
      </trkpt>
      <trkpt lat="43.68093" lon="7.09912">
        <ele>130.8</ele>
        <time>2026-05-15T06:08:31Z</time>
      </trkpt>
      <trkpt lat="43.68093" lon="7.09912">
        <ele>130.8</ele>
        <time>2026-05-15T06:08:32Z</time>
      </trkpt>
      <trkpt lat="43.68093" lon="7.09912">
        <ele>130.8</ele>
        <time>2026-05-15T06:08:33Z</time>
      </trkpt>
      <trkpt lat="43.68093" lon="7.09912">
        <ele>130.8</ele>
        <time>2026-05-15T06:08:34Z</time>
      </trkpt>
      <trkpt lat="43.68093" lon="7.09912">
        <ele>130.8</ele>
        <time>2026-05-15T06:08:35Z</time>
      </trkpt>
      <trkpt lat="43.68093" lon="7.09912">
        <ele>130.8</ele>
        <time>2026-05-15T06:08:36Z</time>
      </trkpt>
      <trkpt lat="43.68093" lon="7.09912">
        <ele>130.8</ele>
        <time>2026-05-15T06:08:37Z</time>
      </trkpt>
      <trkpt lat="43.68093" lon="7.09912">
        <ele>130.8</ele>
        <time>2026-05-15T06:08:38Z</time>
      </trkpt>
      <trkpt lat="43.68093" lon="7.09912">
        <ele>130.8</ele>
        <time>2026-05-15T06:08:39Z</time>
      </trkpt>
      <trkpt lat="43.68093" lon="7.09912">
        <ele>130.8</ele>
        <time>2026-05-15T06:08:40Z</time>
      </trkpt>
      <trkpt lat="43.68093" lon="7.09912">
        <ele>130.8</ele>
        <time>2026-05-15T06:08:41Z</time>
      </trkpt>
      <trkpt lat="43.68093" lon="7.09912">
        <ele>130.8</ele>
        <time>2026-05-15T06:08:42Z</time>
      </trkpt>
      <trkpt lat="43.68093" lon="7.09912">
        <ele>130.8</ele>
        <time>2026-05-15T06:08:43Z</time>
      </trkpt>
      <trkpt lat="43.68093" lon="7.09912">
        <ele>130.8</ele>
        <time>2026-05-15T06:08:44Z</time>
      </trkpt>
      <trkpt lat="43.68093" lon="7.09912">
        <ele>130.8</ele>
        <time>2026-05-15T06:08:45Z</time>
      </trkpt>
      <trkpt lat="43.68093" lon="7.09912">
        <ele>130.8</ele>
        <time>2026-05-15T06:08:46Z</time>
      </trkpt>
      <trkpt lat="43.68093" lon="7.09912">
        <ele>130.8</ele>
        <time>2026-05-15T06:08:47Z</time>
      </trkpt>
      <trkpt lat="43.68093" lon="7.09912">
        <ele>130.8</ele>
        <time>2026-05-15T06:08:48Z</time>
      </trkpt>
      <trkpt lat="43.68093" lon="7.09912">
        <ele>130.8</ele>
        <time>2026-05-15T06:08:49Z</time>
      </trkpt>
      <trkpt lat="43.68093" lon="7.09912">
        <ele>130.8</ele>
        <time>2026-05-15T06:08:50Z</time>
      </trkpt>
      <trkpt lat="43.68093" lon="7.09912">
        <ele>130.8</ele>
        <time>2026-05-15T06:08:51Z</time>
      </trkpt>
      <trkpt lat="43.68093" lon="7.09912">
        <ele>130.8</ele>
        <time>2026-05-15T06:08:52Z</time>
      </trkpt>
      <trkpt lat="43.68093" lon="7.09912">
        <ele>130.8</ele>
        <time>2026-05-15T06:08:53Z</time>
      </trkpt>
      <trkpt lat="43.68093" lon="7.09912">
        <ele>130.8</ele>
        <time>2026-05-15T06:08:54Z</time>
      </trkpt>
      <trkpt lat="43.68093" lon="7.09912">
        <ele>130.8</ele>
        <time>2026-05-15T06:08:55Z</time>
      </trkpt>
      <trkpt lat="43.68093" lon="7.09912">
        <ele>130.8</ele>
        <time>2026-05-15T06:08:56Z</time>
      </trkpt>
      <trkpt lat="43.68093" lon="7.09912">
        <ele>130.8</ele>
        <time>2026-05-15T06:08:57Z</time>
      </trkpt>
      <trkpt lat="43.68093" lon="7.09912">
        <ele>130.8</ele>
        <time>2026-05-15T06:08:58Z</time>
      </trkpt>
      <trkpt lat="43.68093" lon="7.09912">
        <ele>130.8</ele>
        <time>2026-05-15T06:08:59Z</time>
      </trkpt>
      <trkpt lat="43.68093" lon="7.09912">
        <ele>130.8</ele>
        <time>2026-05-15T06:09:00Z</time>
      </trkpt>
      <trkpt lat="43.68093" lon="7.09912">
        <ele>130.8</ele>
        <time>2026-05-15T06:09:01Z</time>
      </trkpt>
      <trkpt lat="43.68093" lon="7.09912">
        <ele>130.8</ele>
        <time>2026-05-15T06:09:02Z</time>
      </trkpt>
      <trkpt lat="43.68093" lon="7.09912">
        <ele>130.8</ele>
        <time>2026-05-15T06:09:03Z</time>
      </trkpt>
      <trkpt lat="43.68093" lon="7.09912">
        <ele>130.8</ele>
        <time>2026-05-15T06:09:04Z</time>
      </trkpt>
      <trkpt lat="43.68093" lon="7.09912">
        <ele>130.8</ele>
        <time>2026-05-15T06:09:05Z</time>
      </trkpt>
      <trkpt lat="43.68093" lon="7.09912">
        <ele>130.8</ele>
        <time>2026-05-15T06:09:06Z</time>
      </trkpt>
      <trkpt lat="43.68093" lon="7.09912">
        <ele>130.8</ele>
        <time>2026-05-15T06:09:07Z</time>
      </trkpt>
      <trkpt lat="43.68093" lon="7.09912">
        <ele>130.8</ele>
        <time>2026-05-15T06:09:08Z</time>
      </trkpt>
      <trkpt lat="43.68093" lon="7.09912">
        <ele>130.8</ele>
        <time>2026-05-15T06:09:09Z</time>
      </trkpt>
      <trkpt lat="43.68093" lon="7.09912">
        <ele>130.8</ele>
        <time>2026-05-15T06:09:10Z</time>
      </trkpt>
      <trkpt lat="43.68093" lon="7.09912">
        <ele>130.8</ele>
        <time>2026-05-15T06:09:11Z</time>
      </trkpt>
      <trkpt lat="43.68093" lon="7.09912">
        <ele>130.8</ele>
        <time>2026-05-15T06:09:12Z</time>
      </trkpt>
      <trkpt lat="43.68093" lon="7.09912">
        <ele>130.8</ele>
        <time>2026-05-15T06:09:13Z</time>
      </trkpt>
      <trkpt lat="43.68093" lon="7.09912">
        <ele>130.8</ele>
        <time>2026-05-15T06:09:14Z</time>
      </trkpt>
      <trkpt lat="43.68093" lon="7.09912">
        <ele>130.8</ele>
        <time>2026-05-15T06:09:15Z</time>
      </trkpt>
      <trkpt lat="43.68093" lon="7.09912">
        <ele>130.8</ele>
        <time>2026-05-15T06:09:16Z</time>
      </trkpt>
      <trkpt lat="43.68093" lon="7.09912">
        <ele>130.8</ele>
        <time>2026-05-15T06:09:17Z</time>
      </trkpt>
      <trkpt lat="43.68093" lon="7.09912">
        <ele>130.8</ele>
        <time>2026-05-15T06:09:18Z</time>
      </trkpt>
      <trkpt lat="43.68093" lon="7.09912">
        <ele>130.8</ele>
        <time>2026-05-15T06:09:19Z</time>
      </trkpt>
      <trkpt lat="43.68092" lon="7.09912">
        <ele>130.7</ele>
        <time>2026-05-15T06:09:20Z</time>
      </trkpt>
      <trkpt lat="43.68092" lon="7.09912">
        <ele>130.7</ele>
        <time>2026-05-15T06:09:21Z</time>
      </trkpt>
      <trkpt lat="43.68092" lon="7.09913">
        <ele>130.7</ele>
        <time>2026-05-15T06:09:22Z</time>
      </trkpt>
      <trkpt lat="43.68092" lon="7.09913">
        <ele>130.7</ele>
        <time>2026-05-15T06:09:23Z</time>
      </trkpt>
      <trkpt lat="43.68092" lon="7.09913">
        <ele>130.7</ele>
        <time>2026-05-15T06:09:24Z</time>
      </trkpt>
      <trkpt lat="43.68092" lon="7.09914">
        <ele>130.6</ele>
        <time>2026-05-15T06:09:25Z</time>
      </trkpt>
      <trkpt lat="43.68092" lon="7.09914">
        <ele>130.6</ele>
        <time>2026-05-15T06:09:26Z</time>
      </trkpt>
      <trkpt lat="43.68092" lon="7.09914">
        <ele>130.6</ele>
        <time>2026-05-15T06:09:27Z</time>
      </trkpt>
      <trkpt lat="43.68092" lon="7.09914">
        <ele>130.6</ele>
        <time>2026-05-15T06:09:28Z</time>
      </trkpt>
      <trkpt lat="43.68092" lon="7.09914">
        <ele>130.6</ele>
        <time>2026-05-15T06:09:29Z</time>
      </trkpt>
      <trkpt lat="43.68092" lon="7.09914">
        <ele>130.6</ele>
        <time>2026-05-15T06:09:30Z</time>
      </trkpt>
      <trkpt lat="43.68092" lon="7.09914">
        <ele>130.6</ele>
        <time>2026-05-15T06:09:31Z</time>
      </trkpt>
      <trkpt lat="43.68092" lon="7.09914">
        <ele>130.6</ele>
        <time>2026-05-15T06:09:32Z</time>
      </trkpt>
      <trkpt lat="43.68092" lon="7.09914">
        <ele>130.6</ele>
        <time>2026-05-15T06:09:33Z</time>
      </trkpt>
      <trkpt lat="43.68092" lon="7.09914">
        <ele>130.6</ele>
        <time>2026-05-15T06:09:34Z</time>
      </trkpt>
      <trkpt lat="43.68092" lon="7.09914">
        <ele>130.6</ele>
        <time>2026-05-15T06:09:35Z</time>
      </trkpt>
      <trkpt lat="43.68092" lon="7.09914">
        <ele>130.6</ele>
        <time>2026-05-15T06:09:36Z</time>
      </trkpt>
      <trkpt lat="43.68092" lon="7.09913">
        <ele>130.7</ele>
        <time>2026-05-15T06:09:37Z</time>
      </trkpt>
      <trkpt lat="43.68092" lon="7.09913">
        <ele>130.7</ele>
        <time>2026-05-15T06:09:38Z</time>
      </trkpt>
      <trkpt lat="43.68092" lon="7.09913">
        <ele>130.7</ele>
        <time>2026-05-15T06:09:39Z</time>
      </trkpt>
      <trkpt lat="43.68092" lon="7.09913">
        <ele>130.7</ele>
        <time>2026-05-15T06:09:40Z</time>
      </trkpt>
      <trkpt lat="43.68092" lon="7.09913">
        <ele>130.7</ele>
        <time>2026-05-15T06:09:41Z</time>
      </trkpt>
      <trkpt lat="43.68092" lon="7.09913">
        <ele>130.7</ele>
        <time>2026-05-15T06:09:42Z</time>
      </trkpt>
      <trkpt lat="43.68092" lon="7.09913">
        <ele>130.7</ele>
        <time>2026-05-15T06:09:43Z</time>
      </trkpt>
      <trkpt lat="43.68092" lon="7.09913">
        <ele>130.7</ele>
        <time>2026-05-15T06:09:44Z</time>
      </trkpt>
      <trkpt lat="43.68092" lon="7.09913">
        <ele>130.7</ele>
        <time>2026-05-15T06:09:45Z</time>
      </trkpt>
      <trkpt lat="43.68092" lon="7.09913">
        <ele>130.7</ele>
        <time>2026-05-15T06:09:46Z</time>
      </trkpt>
      <trkpt lat="43.68092" lon="7.09913">
        <ele>130.7</ele>
        <time>2026-05-15T06:09:47Z</time>
      </trkpt>
      <trkpt lat="43.68092" lon="7.09913">
        <ele>130.7</ele>
        <time>2026-05-15T06:09:48Z</time>
      </trkpt>
      <trkpt lat="43.68092" lon="7.09913">
        <ele>130.7</ele>
        <time>2026-05-15T06:09:49Z</time>
      </trkpt>
      <trkpt lat="43.68092" lon="7.09913">
        <ele>130.7</ele>
        <time>2026-05-15T06:09:50Z</time>
      </trkpt>
      <trkpt lat="43.68092" lon="7.09913">
        <ele>130.7</ele>
        <time>2026-05-15T06:09:51Z</time>
      </trkpt>
      <trkpt lat="43.68092" lon="7.09913">
        <ele>130.7</ele>
        <time>2026-05-15T06:09:52Z</time>
      </trkpt>
      <trkpt lat="43.68092" lon="7.09913">
        <ele>130.7</ele>
        <time>2026-05-15T06:09:53Z</time>
      </trkpt>
      <trkpt lat="43.68092" lon="7.09913">
        <ele>130.7</ele>
        <time>2026-05-15T06:09:54Z</time>
      </trkpt>
      <trkpt lat="43.68092" lon="7.09913">
        <ele>130.7</ele>
        <time>2026-05-15T06:09:55Z</time>
      </trkpt>
      <trkpt lat="43.68092" lon="7.09913">
        <ele>130.7</ele>
        <time>2026-05-15T06:09:56Z</time>
      </trkpt>
      <trkpt lat="43.68092" lon="7.09913">
        <ele>130.7</ele>
        <time>2026-05-15T06:09:57Z</time>
      </trkpt>
      <trkpt lat="43.68092" lon="7.09913">
        <ele>130.7</ele>
        <time>2026-05-15T06:09:58Z</time>
      </trkpt>
      <trkpt lat="43.68092" lon="7.09913">
        <ele>130.7</ele>
        <time>2026-05-15T06:09:59Z</time>
      </trkpt>
      <trkpt lat="43.68092" lon="7.09913">
        <ele>130.7</ele>
        <time>2026-05-15T06:10:00Z</time>
      </trkpt>
      <trkpt lat="43.68092" lon="7.09913">
        <ele>130.7</ele>
        <time>2026-05-15T06:10:01Z</time>
      </trkpt>
      <trkpt lat="43.68092" lon="7.09913">
        <ele>130.7</ele>
        <time>2026-05-15T06:10:02Z</time>
      </trkpt>
      <trkpt lat="43.68092" lon="7.09913">
        <ele>130.7</ele>
        <time>2026-05-15T06:10:03Z</time>
      </trkpt>
      <trkpt lat="43.68092" lon="7.09913">
        <ele>130.7</ele>
        <time>2026-05-15T06:10:04Z</time>
      </trkpt>
      <trkpt lat="43.68092" lon="7.09913">
        <ele>130.7</ele>
        <time>2026-05-15T06:10:05Z</time>
      </trkpt>
      <trkpt lat="43.68092" lon="7.09913">
        <ele>130.7</ele>
        <time>2026-05-15T06:10:06Z</time>
      </trkpt>
      <trkpt lat="43.68092" lon="7.09913">
        <ele>130.7</ele>
        <time>2026-05-15T06:10:07Z</time>
      </trkpt>
      <trkpt lat="43.68092" lon="7.09913">
        <ele>130.7</ele>
        <time>2026-05-15T06:10:08Z</time>
      </trkpt>
      <trkpt lat="43.68092" lon="7.09913">
        <ele>130.7</ele>
        <time>2026-05-15T06:10:09Z</time>
      </trkpt>
      <trkpt lat="43.68092" lon="7.09913">
        <ele>130.7</ele>
        <time>2026-05-15T06:10:10Z</time>
      </trkpt>
      <trkpt lat="43.68092" lon="7.09913">
        <ele>130.7</ele>
        <time>2026-05-15T06:10:11Z</time>
      </trkpt>
      <trkpt lat="43.68092" lon="7.09913">
        <ele>130.7</ele>
        <time>2026-05-15T06:10:12Z</time>
      </trkpt>
      <trkpt lat="43.68092" lon="7.09913">
        <ele>130.7</ele>
        <time>2026-05-15T06:10:13Z</time>
      </trkpt>
      <trkpt lat="43.68092" lon="7.09913">
        <ele>130.7</ele>
        <time>2026-05-15T06:10:14Z</time>
      </trkpt>
      <trkpt lat="43.68092" lon="7.09913">
        <ele>130.7</ele>
        <time>2026-05-15T06:10:15Z</time>
      </trkpt>
      <trkpt lat="43.68092" lon="7.09913">
        <ele>130.7</ele>
        <time>2026-05-15T06:10:16Z</time>
      </trkpt>
      <trkpt lat="43.68092" lon="7.09913">
        <ele>130.7</ele>
        <time>2026-05-15T06:10:17Z</time>
      </trkpt>
      <trkpt lat="43.68092" lon="7.09913">
        <ele>130.7</ele>
        <time>2026-05-15T06:10:18Z</time>
      </trkpt>
      <trkpt lat="43.68092" lon="7.09913">
        <ele>130.7</ele>
        <time>2026-05-15T06:10:19Z</time>
      </trkpt>
      <trkpt lat="43.68092" lon="7.09913">
        <ele>130.7</ele>
        <time>2026-05-15T06:10:20Z</time>
      </trkpt>
      <trkpt lat="43.68092" lon="7.09913">
        <ele>130.7</ele>
        <time>2026-05-15T06:10:21Z</time>
      </trkpt>
      <trkpt lat="43.68092" lon="7.09913">
        <ele>130.7</ele>
        <time>2026-05-15T06:10:22Z</time>
      </trkpt>
      <trkpt lat="43.68092" lon="7.09913">
        <ele>130.7</ele>
        <time>2026-05-15T06:10:23Z</time>
      </trkpt>
      <trkpt lat="43.68092" lon="7.09913">
        <ele>130.7</ele>
        <time>2026-05-15T06:10:24Z</time>
      </trkpt>
      <trkpt lat="43.68092" lon="7.09913">
        <ele>130.7</ele>
        <time>2026-05-15T06:10:25Z</time>
      </trkpt>
      <trkpt lat="43.68092" lon="7.09913">
        <ele>130.7</ele>
        <time>2026-05-15T06:10:26Z</time>
      </trkpt>
      <trkpt lat="43.68092" lon="7.09913">
        <ele>130.7</ele>
        <time>2026-05-15T06:10:27Z</time>
      </trkpt>
      <trkpt lat="43.68092" lon="7.09913">
        <ele>130.7</ele>
        <time>2026-05-15T06:10:28Z</time>
      </trkpt>
      <trkpt lat="43.68092" lon="7.09913">
        <ele>130.7</ele>
        <time>2026-05-15T06:10:29Z</time>
      </trkpt>
      <trkpt lat="43.68092" lon="7.09913">
        <ele>130.7</ele>
        <time>2026-05-15T06:10:30Z</time>
      </trkpt>
      <trkpt lat="43.68092" lon="7.09913">
        <ele>130.7</ele>
        <time>2026-05-15T06:10:31Z</time>
      </trkpt>
      <trkpt lat="43.68092" lon="7.09913">
        <ele>130.7</ele>
        <time>2026-05-15T06:10:32Z</time>
      </trkpt>
      <trkpt lat="43.68091" lon="7.09913">
        <ele>130.5</ele>
        <time>2026-05-15T06:10:33Z</time>
      </trkpt>
      <trkpt lat="43.68091" lon="7.09913">
        <ele>130.5</ele>
        <time>2026-05-15T06:10:34Z</time>
      </trkpt>
      <trkpt lat="43.68091" lon="7.09913">
        <ele>130.5</ele>
        <time>2026-05-15T06:10:35Z</time>
      </trkpt>
      <trkpt lat="43.68091" lon="7.09913">
        <ele>130.5</ele>
        <time>2026-05-15T06:10:36Z</time>
      </trkpt>
      <trkpt lat="43.68091" lon="7.09913">
        <ele>130.5</ele>
        <time>2026-05-15T06:10:37Z</time>
      </trkpt>
      <trkpt lat="43.68091" lon="7.09913">
        <ele>130.5</ele>
        <time>2026-05-15T06:10:38Z</time>
      </trkpt>
      <trkpt lat="43.68091" lon="7.09913">
        <ele>130.5</ele>
        <time>2026-05-15T06:10:39Z</time>
      </trkpt>
      <trkpt lat="43.68091" lon="7.09913">
        <ele>130.5</ele>
        <time>2026-05-15T06:10:40Z</time>
      </trkpt>
      <trkpt lat="43.68091" lon="7.09913">
        <ele>130.5</ele>
        <time>2026-05-15T06:10:41Z</time>
      </trkpt>
      <trkpt lat="43.68091" lon="7.09913">
        <ele>130.5</ele>
        <time>2026-05-15T06:10:42Z</time>
      </trkpt>
      <trkpt lat="43.68091" lon="7.09913">
        <ele>130.5</ele>
        <time>2026-05-15T06:10:43Z</time>
      </trkpt>
      <trkpt lat="43.68091" lon="7.09913">
        <ele>130.5</ele>
        <time>2026-05-15T06:10:44Z</time>
      </trkpt>
      <trkpt lat="43.68091" lon="7.09913">
        <ele>130.5</ele>
        <time>2026-05-15T06:10:45Z</time>
      </trkpt>
      <trkpt lat="43.68091" lon="7.09913">
        <ele>130.5</ele>
        <time>2026-05-15T06:10:46Z</time>
      </trkpt>
      <trkpt lat="43.68091" lon="7.09913">
        <ele>130.5</ele>
        <time>2026-05-15T06:10:47Z</time>
      </trkpt>
      <trkpt lat="43.68091" lon="7.09913">
        <ele>130.5</ele>
        <time>2026-05-15T06:10:48Z</time>
      </trkpt>
      <trkpt lat="43.68091" lon="7.09913">
        <ele>130.5</ele>
        <time>2026-05-15T06:10:49Z</time>
      </trkpt>
      <trkpt lat="43.68091" lon="7.09913">
        <ele>130.5</ele>
        <time>2026-05-15T06:10:50Z</time>
      </trkpt>
      <trkpt lat="43.68091" lon="7.09913">
        <ele>130.5</ele>
        <time>2026-05-15T06:10:51Z</time>
      </trkpt>
      <trkpt lat="43.68091" lon="7.09913">
        <ele>130.5</ele>
        <time>2026-05-15T06:10:52Z</time>
      </trkpt>
      <trkpt lat="43.68091" lon="7.09913">
        <ele>130.5</ele>
        <time>2026-05-15T06:10:53Z</time>
      </trkpt>
      <trkpt lat="43.68091" lon="7.09913">
        <ele>130.5</ele>
        <time>2026-05-15T06:10:54Z</time>
      </trkpt>
      <trkpt lat="43.68091" lon="7.09913">
        <ele>130.5</ele>
        <time>2026-05-15T06:10:55Z</time>
      </trkpt>
      <trkpt lat="43.68091" lon="7.09913">
        <ele>130.5</ele>
        <time>2026-05-15T06:10:56Z</time>
      </trkpt>
      <trkpt lat="43.68091" lon="7.09913">
        <ele>130.5</ele>
        <time>2026-05-15T06:10:57Z</time>
      </trkpt>
      <trkpt lat="43.68091" lon="7.09913">
        <ele>130.5</ele>
        <time>2026-05-15T06:10:58Z</time>
      </trkpt>
      <trkpt lat="43.68091" lon="7.09913">
        <ele>130.5</ele>
        <time>2026-05-15T06:10:59Z</time>
      </trkpt>
      <trkpt lat="43.68091" lon="7.09913">
        <ele>130.5</ele>
        <time>2026-05-15T06:11:00Z</time>
      </trkpt>
      <trkpt lat="43.68091" lon="7.09913">
        <ele>130.5</ele>
        <time>2026-05-15T06:11:01Z</time>
      </trkpt>
      <trkpt lat="43.68091" lon="7.09913">
        <ele>130.5</ele>
        <time>2026-05-15T06:11:02Z</time>
      </trkpt>
      <trkpt lat="43.68091" lon="7.09913">
        <ele>130.5</ele>
        <time>2026-05-15T06:11:03Z</time>
      </trkpt>
      <trkpt lat="43.68091" lon="7.09913">
        <ele>130.5</ele>
        <time>2026-05-15T06:11:04Z</time>
      </trkpt>
      <trkpt lat="43.68091" lon="7.09913">
        <ele>130.5</ele>
        <time>2026-05-15T06:11:05Z</time>
      </trkpt>
      <trkpt lat="43.68091" lon="7.09913">
        <ele>130.5</ele>
        <time>2026-05-15T06:11:06Z</time>
      </trkpt>
      <trkpt lat="43.68091" lon="7.09913">
        <ele>130.5</ele>
        <time>2026-05-15T06:11:07Z</time>
      </trkpt>
      <trkpt lat="43.68091" lon="7.09913">
        <ele>130.5</ele>
        <time>2026-05-15T06:11:08Z</time>
      </trkpt>
      <trkpt lat="43.68091" lon="7.09913">
        <ele>130.5</ele>
        <time>2026-05-15T06:11:09Z</time>
      </trkpt>
      <trkpt lat="43.68091" lon="7.09913">
        <ele>130.5</ele>
        <time>2026-05-15T06:11:10Z</time>
      </trkpt>
      <trkpt lat="43.68091" lon="7.09913">
        <ele>130.5</ele>
        <time>2026-05-15T06:11:11Z</time>
      </trkpt>
      <trkpt lat="43.68091" lon="7.09913">
        <ele>130.5</ele>
        <time>2026-05-15T06:11:12Z</time>
      </trkpt>
      <trkpt lat="43.68091" lon="7.09913">
        <ele>130.5</ele>
        <time>2026-05-15T06:11:13Z</time>
      </trkpt>
      <trkpt lat="43.68091" lon="7.09913">
        <ele>130.5</ele>
        <time>2026-05-15T06:11:14Z</time>
      </trkpt>
      <trkpt lat="43.68091" lon="7.09913">
        <ele>130.5</ele>
        <time>2026-05-15T06:11:15Z</time>
      </trkpt>
      <trkpt lat="43.68091" lon="7.09913">
        <ele>130.5</ele>
        <time>2026-05-15T06:11:16Z</time>
      </trkpt>
      <trkpt lat="43.68091" lon="7.09913">
        <ele>130.5</ele>
        <time>2026-05-15T06:11:17Z</time>
      </trkpt>
      <trkpt lat="43.68091" lon="7.09913">
        <ele>130.5</ele>
        <time>2026-05-15T06:11:18Z</time>
      </trkpt>
      <trkpt lat="43.68091" lon="7.09913">
        <ele>130.5</ele>
        <time>2026-05-15T06:11:19Z</time>
      </trkpt>
      <trkpt lat="43.68091" lon="7.09913">
        <ele>130.5</ele>
        <time>2026-05-15T06:11:20Z</time>
      </trkpt>
      <trkpt lat="43.68091" lon="7.09913">
        <ele>130.5</ele>
        <time>2026-05-15T06:11:21Z</time>
      </trkpt>
      <trkpt lat="43.68091" lon="7.09913">
        <ele>130.5</ele>
        <time>2026-05-15T06:11:22Z</time>
      </trkpt>
      <trkpt lat="43.68091" lon="7.09913">
        <ele>130.5</ele>
        <time>2026-05-15T06:11:23Z</time>
      </trkpt>
      <trkpt lat="43.68091" lon="7.09913">
        <ele>130.5</ele>
        <time>2026-05-15T06:11:24Z</time>
      </trkpt>
      <trkpt lat="43.68091" lon="7.09913">
        <ele>130.5</ele>
        <time>2026-05-15T06:11:25Z</time>
      </trkpt>
      <trkpt lat="43.68091" lon="7.09913">
        <ele>130.5</ele>
        <time>2026-05-15T06:11:26Z</time>
      </trkpt>
      <trkpt lat="43.68091" lon="7.09913">
        <ele>130.5</ele>
        <time>2026-05-15T06:11:27Z</time>
      </trkpt>
      <trkpt lat="43.68091" lon="7.09913">
        <ele>130.5</ele>
        <time>2026-05-15T06:11:28Z</time>
      </trkpt>
      <trkpt lat="43.68091" lon="7.09913">
        <ele>130.5</ele>
        <time>2026-05-15T06:11:29Z</time>
      </trkpt>
      <trkpt lat="43.68091" lon="7.09913">
        <ele>130.5</ele>
        <time>2026-05-15T06:11:30Z</time>
      </trkpt>
      <trkpt lat="43.68091" lon="7.09913">
        <ele>130.5</ele>
        <time>2026-05-15T06:11:31Z</time>
      </trkpt>
      <trkpt lat="43.68091" lon="7.09913">
        <ele>130.5</ele>
        <time>2026-05-15T06:11:32Z</time>
      </trkpt>
      <trkpt lat="43.68091" lon="7.09913">
        <ele>130.5</ele>
        <time>2026-05-15T06:11:33Z</time>
      </trkpt>
      <trkpt lat="43.68091" lon="7.09913">
        <ele>130.5</ele>
        <time>2026-05-15T06:11:34Z</time>
      </trkpt>
      <trkpt lat="43.68091" lon="7.09913">
        <ele>130.5</ele>
        <time>2026-05-15T06:11:35Z</time>
      </trkpt>
      <trkpt lat="43.68091" lon="7.09913">
        <ele>130.5</ele>
        <time>2026-05-15T06:11:36Z</time>
      </trkpt>
      <trkpt lat="43.68091" lon="7.09913">
        <ele>130.5</ele>
        <time>2026-05-15T06:11:37Z</time>
      </trkpt>
      <trkpt lat="43.68091" lon="7.09913">
        <ele>130.5</ele>
        <time>2026-05-15T06:11:38Z</time>
      </trkpt>
      <trkpt lat="43.68091" lon="7.09913">
        <ele>130.5</ele>
        <time>2026-05-15T06:11:39Z</time>
      </trkpt>
      <trkpt lat="43.68091" lon="7.09913">
        <ele>130.5</ele>
        <time>2026-05-15T06:11:40Z</time>
      </trkpt>
      <trkpt lat="43.68091" lon="7.09913">
        <ele>130.5</ele>
        <time>2026-05-15T06:11:41Z</time>
      </trkpt>
      <trkpt lat="43.68091" lon="7.09913">
        <ele>130.5</ele>
        <time>2026-05-15T06:11:42Z</time>
      </trkpt>
      <trkpt lat="43.68091" lon="7.09913">
        <ele>130.5</ele>
        <time>2026-05-15T06:11:43Z</time>
      </trkpt>
      <trkpt lat="43.68091" lon="7.09913">
        <ele>130.5</ele>
        <time>2026-05-15T06:11:44Z</time>
      </trkpt>
      <trkpt lat="43.68091" lon="7.09913">
        <ele>130.5</ele>
        <time>2026-05-15T06:11:45Z</time>
      </trkpt>
      <trkpt lat="43.68091" lon="7.09913">
        <ele>130.5</ele>
        <time>2026-05-15T06:11:46Z</time>
      </trkpt>
      <trkpt lat="43.68091" lon="7.09913">
        <ele>130.5</ele>
        <time>2026-05-15T06:11:47Z</time>
      </trkpt>
      <trkpt lat="43.68091" lon="7.09913">
        <ele>130.5</ele>
        <time>2026-05-15T06:11:48Z</time>
      </trkpt>
      <trkpt lat="43.68091" lon="7.09913">
        <ele>130.5</ele>
        <time>2026-05-15T06:11:49Z</time>
      </trkpt>
      <trkpt lat="43.68091" lon="7.09913">
        <ele>130.5</ele>
        <time>2026-05-15T06:11:50Z</time>
      </trkpt>
      <trkpt lat="43.68091" lon="7.09913">
        <ele>130.5</ele>
        <time>2026-05-15T06:11:51Z</time>
      </trkpt>
      <trkpt lat="43.68091" lon="7.09913">
        <ele>130.5</ele>
        <time>2026-05-15T06:11:52Z</time>
      </trkpt>
      <trkpt lat="43.68091" lon="7.09913">
        <ele>130.5</ele>
        <time>2026-05-15T06:11:53Z</time>
      </trkpt>
      <trkpt lat="43.68091" lon="7.09913">
        <ele>130.5</ele>
        <time>2026-05-15T06:11:54Z</time>
      </trkpt>
      <trkpt lat="43.68091" lon="7.09913">
        <ele>130.5</ele>
        <time>2026-05-15T06:11:55Z</time>
      </trkpt>
      <trkpt lat="43.68091" lon="7.09913">
        <ele>130.5</ele>
        <time>2026-05-15T06:11:56Z</time>
      </trkpt>
      <trkpt lat="43.68091" lon="7.09913">
        <ele>130.5</ele>
        <time>2026-05-15T06:11:57Z</time>
      </trkpt>
      <trkpt lat="43.68091" lon="7.09913">
        <ele>130.5</ele>
        <time>2026-05-15T06:11:58Z</time>
      </trkpt>
      <trkpt lat="43.68091" lon="7.09913">
        <ele>130.5</ele>
        <time>2026-05-15T06:11:59Z</time>
      </trkpt>
      <trkpt lat="43.68091" lon="7.09913">
        <ele>130.5</ele>
        <time>2026-05-15T06:12:00Z</time>
      </trkpt>
      <trkpt lat="43.68091" lon="7.09913">
        <ele>130.5</ele>
        <time>2026-05-15T06:12:01Z</time>
      </trkpt>
      <trkpt lat="43.68091" lon="7.09913">
        <ele>130.5</ele>
        <time>2026-05-15T06:12:02Z</time>
      </trkpt>
      <trkpt lat="43.68091" lon="7.09913">
        <ele>130.5</ele>
        <time>2026-05-15T06:12:03Z</time>
      </trkpt>
      <trkpt lat="43.68091" lon="7.09913">
        <ele>130.5</ele>
        <time>2026-05-15T06:12:04Z</time>
      </trkpt>
      <trkpt lat="43.68091" lon="7.09913">
        <ele>130.5</ele>
        <time>2026-05-15T06:12:05Z</time>
      </trkpt>
      <trkpt lat="43.68091" lon="7.09913">
        <ele>130.5</ele>
        <time>2026-05-15T06:12:06Z</time>
      </trkpt>
      <trkpt lat="43.68091" lon="7.09913">
        <ele>130.5</ele>
        <time>2026-05-15T06:12:07Z</time>
      </trkpt>
      <trkpt lat="43.68091" lon="7.09913">
        <ele>130.5</ele>
        <time>2026-05-15T06:12:08Z</time>
      </trkpt>
      <trkpt lat="43.68091" lon="7.09913">
        <ele>130.5</ele>
        <time>2026-05-15T06:12:09Z</time>
      </trkpt>
      <trkpt lat="43.68091" lon="7.09913">
        <ele>130.5</ele>
        <time>2026-05-15T06:12:10Z</time>
      </trkpt>
      <trkpt lat="43.68091" lon="7.09913">
        <ele>130.5</ele>
        <time>2026-05-15T06:12:11Z</time>
      </trkpt>
      <trkpt lat="43.68091" lon="7.09913">
        <ele>130.5</ele>
        <time>2026-05-15T06:12:12Z</time>
      </trkpt>
      <trkpt lat="43.68091" lon="7.09913">
        <ele>130.5</ele>
        <time>2026-05-15T06:12:13Z</time>
      </trkpt>
      <trkpt lat="43.68091" lon="7.09913">
        <ele>130.5</ele>
        <time>2026-05-15T06:12:14Z</time>
      </trkpt>
      <trkpt lat="43.68091" lon="7.09913">
        <ele>130.5</ele>
        <time>2026-05-15T06:12:15Z</time>
      </trkpt>
      <trkpt lat="43.68091" lon="7.09913">
        <ele>130.5</ele>
        <time>2026-05-15T06:12:16Z</time>
      </trkpt>
      <trkpt lat="43.68091" lon="7.09913">
        <ele>130.5</ele>
        <time>2026-05-15T06:12:17Z</time>
      </trkpt>
      <trkpt lat="43.68091" lon="7.09913">
        <ele>130.5</ele>
        <time>2026-05-15T06:12:18Z</time>
      </trkpt>
      <trkpt lat="43.68091" lon="7.09913">
        <ele>130.5</ele>
        <time>2026-05-15T06:12:19Z</time>
      </trkpt>
      <trkpt lat="43.68091" lon="7.09913">
        <ele>130.5</ele>
        <time>2026-05-15T06:12:20Z</time>
      </trkpt>
      <trkpt lat="43.68091" lon="7.09913">
        <ele>130.5</ele>
        <time>2026-05-15T06:12:21Z</time>
      </trkpt>
      <trkpt lat="43.68091" lon="7.09913">
        <ele>130.5</ele>
        <time>2026-05-15T06:12:22Z</time>
      </trkpt>
      <trkpt lat="43.68091" lon="7.09913">
        <ele>130.5</ele>
        <time>2026-05-15T06:12:23Z</time>
      </trkpt>
      <trkpt lat="43.68091" lon="7.09913">
        <ele>130.5</ele>
        <time>2026-05-15T06:12:24Z</time>
      </trkpt>
      <trkpt lat="43.68091" lon="7.09913">
        <ele>130.5</ele>
        <time>2026-05-15T06:12:25Z</time>
      </trkpt>
      <trkpt lat="43.68091" lon="7.09913">
        <ele>130.5</ele>
        <time>2026-05-15T06:12:26Z</time>
      </trkpt>
      <trkpt lat="43.68091" lon="7.09913">
        <ele>130.5</ele>
        <time>2026-05-15T06:12:27Z</time>
      </trkpt>
      <trkpt lat="43.68091" lon="7.09913">
        <ele>130.5</ele>
        <time>2026-05-15T06:12:28Z</time>
      </trkpt>
      <trkpt lat="43.68091" lon="7.09913">
        <ele>130.5</ele>
        <time>2026-05-15T06:12:29Z</time>
      </trkpt>
      <trkpt lat="43.68091" lon="7.09913">
        <ele>130.5</ele>
        <time>2026-05-15T06:12:30Z</time>
      </trkpt>
      <trkpt lat="43.68091" lon="7.09913">
        <ele>130.5</ele>
        <time>2026-05-15T06:12:31Z</time>
      </trkpt>
      <trkpt lat="43.68091" lon="7.09913">
        <ele>130.5</ele>
        <time>2026-05-15T06:12:32Z</time>
      </trkpt>
      <trkpt lat="43.68091" lon="7.09913">
        <ele>130.5</ele>
        <time>2026-05-15T06:12:33Z</time>
      </trkpt>
      <trkpt lat="43.68091" lon="7.09913">
        <ele>130.5</ele>
        <time>2026-05-15T06:12:34Z</time>
      </trkpt>
      <trkpt lat="43.68091" lon="7.09913">
        <ele>130.5</ele>
        <time>2026-05-15T06:12:35Z</time>
      </trkpt>
      <trkpt lat="43.68091" lon="7.09913">
        <ele>130.5</ele>
        <time>2026-05-15T06:12:36Z</time>
      </trkpt>
      <trkpt lat="43.68091" lon="7.09913">
        <ele>130.5</ele>
        <time>2026-05-15T06:12:37Z</time>
      </trkpt>
      <trkpt lat="43.68091" lon="7.09913">
        <ele>130.5</ele>
        <time>2026-05-15T06:12:38Z</time>
      </trkpt>
      <trkpt lat="43.68091" lon="7.09913">
        <ele>130.5</ele>
        <time>2026-05-15T06:12:39Z</time>
      </trkpt>
      <trkpt lat="43.68091" lon="7.09913">
        <ele>130.5</ele>
        <time>2026-05-15T06:12:40Z</time>
      </trkpt>
      <trkpt lat="43.68091" lon="7.09913">
        <ele>130.5</ele>
        <time>2026-05-15T06:12:41Z</time>
      </trkpt>
      <trkpt lat="43.68091" lon="7.09913">
        <ele>130.5</ele>
        <time>2026-05-15T06:12:42Z</time>
      </trkpt>
      <trkpt lat="43.68091" lon="7.09913">
        <ele>130.5</ele>
        <time>2026-05-15T06:12:43Z</time>
      </trkpt>
      <trkpt lat="43.68091" lon="7.09913">
        <ele>130.5</ele>
        <time>2026-05-15T06:12:44Z</time>
      </trkpt>
      <trkpt lat="43.68091" lon="7.09913">
        <ele>130.5</ele>
        <time>2026-05-15T06:12:45Z</time>
      </trkpt>
      <trkpt lat="43.68091" lon="7.09913">
        <ele>130.5</ele>
        <time>2026-05-15T06:12:46Z</time>
      </trkpt>
      <trkpt lat="43.68091" lon="7.09913">
        <ele>130.5</ele>
        <time>2026-05-15T06:12:47Z</time>
      </trkpt>
      <trkpt lat="43.68091" lon="7.09913">
        <ele>130.5</ele>
        <time>2026-05-15T06:12:48Z</time>
      </trkpt>
      <trkpt lat="43.68091" lon="7.09913">
        <ele>130.5</ele>
        <time>2026-05-15T06:12:49Z</time>
      </trkpt>
      <trkpt lat="43.68091" lon="7.09913">
        <ele>130.5</ele>
        <time>2026-05-15T06:12:50Z</time>
      </trkpt>
      <trkpt lat="43.68091" lon="7.09913">
        <ele>130.5</ele>
        <time>2026-05-15T06:12:51Z</time>
      </trkpt>
      <trkpt lat="43.68091" lon="7.09913">
        <ele>130.5</ele>
        <time>2026-05-15T06:12:52Z</time>
      </trkpt>
      <trkpt lat="43.68091" lon="7.09913">
        <ele>130.5</ele>
        <time>2026-05-15T06:12:53Z</time>
      </trkpt>
      <trkpt lat="43.68091" lon="7.09913">
        <ele>130.5</ele>
        <time>2026-05-15T06:12:54Z</time>
      </trkpt>
      <trkpt lat="43.68091" lon="7.09913">
        <ele>130.5</ele>
        <time>2026-05-15T06:12:55Z</time>
      </trkpt>
      <trkpt lat="43.68091" lon="7.09913">
        <ele>130.5</ele>
        <time>2026-05-15T06:12:56Z</time>
      </trkpt>
      <trkpt lat="43.68091" lon="7.09913">
        <ele>130.5</ele>
        <time>2026-05-15T06:12:57Z</time>
      </trkpt>
      <trkpt lat="43.68091" lon="7.09913">
        <ele>130.5</ele>
        <time>2026-05-15T06:12:58Z</time>
      </trkpt>
      <trkpt lat="43.68091" lon="7.09913">
        <ele>130.5</ele>
        <time>2026-05-15T06:12:59Z</time>
      </trkpt>
      <trkpt lat="43.68091" lon="7.09913">
        <ele>130.5</ele>
        <time>2026-05-15T06:13:00Z</time>
      </trkpt>
      <trkpt lat="43.68091" lon="7.09913">
        <ele>130.5</ele>
        <time>2026-05-15T06:13:01Z</time>
      </trkpt>
      <trkpt lat="43.68091" lon="7.09913">
        <ele>130.5</ele>
        <time>2026-05-15T06:13:02Z</time>
      </trkpt>
      <trkpt lat="43.68091" lon="7.09913">
        <ele>130.5</ele>
        <time>2026-05-15T06:13:03Z</time>
      </trkpt>
      <trkpt lat="43.68091" lon="7.09913">
        <ele>130.5</ele>
        <time>2026-05-15T06:13:04Z</time>
      </trkpt>
      <trkpt lat="43.68091" lon="7.09913">
        <ele>130.5</ele>
        <time>2026-05-15T06:13:05Z</time>
      </trkpt>
      <trkpt lat="43.68091" lon="7.09913">
        <ele>130.5</ele>
        <time>2026-05-15T06:13:06Z</time>
      </trkpt>
      <trkpt lat="43.68091" lon="7.09913">
        <ele>130.5</ele>
        <time>2026-05-15T06:13:07Z</time>
      </trkpt>
      <trkpt lat="43.68091" lon="7.09913">
        <ele>130.5</ele>
        <time>2026-05-15T06:13:08Z</time>
      </trkpt>
      <trkpt lat="43.68091" lon="7.09913">
        <ele>130.5</ele>
        <time>2026-05-15T06:13:09Z</time>
      </trkpt>
      <trkpt lat="43.68091" lon="7.09913">
        <ele>130.5</ele>
        <time>2026-05-15T06:13:10Z</time>
      </trkpt>
      <trkpt lat="43.68091" lon="7.09913">
        <ele>130.5</ele>
        <time>2026-05-15T06:13:11Z</time>
      </trkpt>
      <trkpt lat="43.68091" lon="7.09913">
        <ele>130.5</ele>
        <time>2026-05-15T06:13:12Z</time>
      </trkpt>
      <trkpt lat="43.68091" lon="7.09913">
        <ele>130.5</ele>
        <time>2026-05-15T06:13:13Z</time>
      </trkpt>
      <trkpt lat="43.68091" lon="7.09913">
        <ele>130.5</ele>
        <time>2026-05-15T06:13:14Z</time>
      </trkpt>
      <trkpt lat="43.68091" lon="7.09913">
        <ele>130.5</ele>
        <time>2026-05-15T06:13:15Z</time>
      </trkpt>
      <trkpt lat="43.68091" lon="7.09913">
        <ele>130.5</ele>
        <time>2026-05-15T06:13:16Z</time>
      </trkpt>
      <trkpt lat="43.68091" lon="7.09913">
        <ele>130.5</ele>
        <time>2026-05-15T06:13:17Z</time>
      </trkpt>
      <trkpt lat="43.68091" lon="7.09913">
        <ele>130.5</ele>
        <time>2026-05-15T06:13:18Z</time>
      </trkpt>
      <trkpt lat="43.68091" lon="7.09913">
        <ele>130.5</ele>
        <time>2026-05-15T06:13:19Z</time>
      </trkpt>
      <trkpt lat="43.68091" lon="7.09913">
        <ele>130.5</ele>
        <time>2026-05-15T06:13:20Z</time>
      </trkpt>
      <trkpt lat="43.68091" lon="7.09913">
        <ele>130.5</ele>
        <time>2026-05-15T06:13:21Z</time>
      </trkpt>
      <trkpt lat="43.68091" lon="7.09913">
        <ele>130.5</ele>
        <time>2026-05-15T06:13:22Z</time>
      </trkpt>
      <trkpt lat="43.68091" lon="7.09913">
        <ele>130.5</ele>
        <time>2026-05-15T06:13:23Z</time>
      </trkpt>
      <trkpt lat="43.68091" lon="7.09913">
        <ele>130.5</ele>
        <time>2026-05-15T06:13:24Z</time>
      </trkpt>
      <trkpt lat="43.68091" lon="7.09913">
        <ele>130.5</ele>
        <time>2026-05-15T06:13:25Z</time>
      </trkpt>
      <trkpt lat="43.68091" lon="7.09913">
        <ele>130.5</ele>
        <time>2026-05-15T06:13:26Z</time>
      </trkpt>
      <trkpt lat="43.68091" lon="7.09913">
        <ele>130.5</ele>
        <time>2026-05-15T06:13:27Z</time>
      </trkpt>
      <trkpt lat="43.68091" lon="7.09913">
        <ele>130.5</ele>
        <time>2026-05-15T06:13:28Z</time>
      </trkpt>
      <trkpt lat="43.68091" lon="7.09913">
        <ele>130.5</ele>
        <time>2026-05-15T06:13:29Z</time>
      </trkpt>
      <trkpt lat="43.68091" lon="7.09913">
        <ele>130.5</ele>
        <time>2026-05-15T06:13:30Z</time>
      </trkpt>
      <trkpt lat="43.68091" lon="7.09913">
        <ele>130.5</ele>
        <time>2026-05-15T06:13:31Z</time>
      </trkpt>
      <trkpt lat="43.68091" lon="7.09913">
        <ele>130.5</ele>
        <time>2026-05-15T06:13:32Z</time>
      </trkpt>
      <trkpt lat="43.68091" lon="7.09913">
        <ele>130.5</ele>
        <time>2026-05-15T06:13:33Z</time>
      </trkpt>
      <trkpt lat="43.68091" lon="7.09913">
        <ele>130.5</ele>
        <time>2026-05-15T06:13:34Z</time>
      </trkpt>
      <trkpt lat="43.68091" lon="7.09913">
        <ele>130.5</ele>
        <time>2026-05-15T06:13:35Z</time>
      </trkpt>
      <trkpt lat="43.68091" lon="7.09913">
        <ele>130.5</ele>
        <time>2026-05-15T06:13:36Z</time>
      </trkpt>
      <trkpt lat="43.68091" lon="7.09913">
        <ele>130.5</ele>
        <time>2026-05-15T06:13:37Z</time>
      </trkpt>
      <trkpt lat="43.68091" lon="7.09913">
        <ele>130.5</ele>
        <time>2026-05-15T06:13:38Z</time>
      </trkpt>
      <trkpt lat="43.68091" lon="7.09913">
        <ele>130.5</ele>
        <time>2026-05-15T06:13:39Z</time>
      </trkpt>
      <trkpt lat="43.68091" lon="7.09913">
        <ele>130.5</ele>
        <time>2026-05-15T06:13:40Z</time>
      </trkpt>
      <trkpt lat="43.68091" lon="7.09913">
        <ele>130.5</ele>
        <time>2026-05-15T06:13:41Z</time>
      </trkpt>
      <trkpt lat="43.68091" lon="7.09913">
        <ele>130.5</ele>
        <time>2026-05-15T06:13:42Z</time>
      </trkpt>
      <trkpt lat="43.68091" lon="7.09913">
        <ele>130.5</ele>
        <time>2026-05-15T06:13:43Z</time>
      </trkpt>
      <trkpt lat="43.68091" lon="7.09913">
        <ele>130.5</ele>
        <time>2026-05-15T06:13:44Z</time>
      </trkpt>
      <trkpt lat="43.68091" lon="7.09913">
        <ele>130.5</ele>
        <time>2026-05-15T06:13:45Z</time>
      </trkpt>
      <trkpt lat="43.68091" lon="7.09913">
        <ele>130.5</ele>
        <time>2026-05-15T06:13:46Z</time>
      </trkpt>
      <trkpt lat="43.68091" lon="7.09913">
        <ele>130.5</ele>
        <time>2026-05-15T06:13:47Z</time>
      </trkpt>
      <trkpt lat="43.68091" lon="7.09913">
        <ele>130.5</ele>
        <time>2026-05-15T06:13:48Z</time>
      </trkpt>
      <trkpt lat="43.68091" lon="7.09913">
        <ele>130.5</ele>
        <time>2026-05-15T06:13:49Z</time>
      </trkpt>
      <trkpt lat="43.68091" lon="7.09913">
        <ele>130.5</ele>
        <time>2026-05-15T06:13:50Z</time>
      </trkpt>
      <trkpt lat="43.68091" lon="7.09913">
        <ele>130.5</ele>
        <time>2026-05-15T06:13:51Z</time>
      </trkpt>
      <trkpt lat="43.68091" lon="7.09913">
        <ele>130.5</ele>
        <time>2026-05-15T06:13:52Z</time>
      </trkpt>
      <trkpt lat="43.68091" lon="7.09913">
        <ele>130.5</ele>
        <time>2026-05-15T06:13:53Z</time>
      </trkpt>
      <trkpt lat="43.68091" lon="7.09913">
        <ele>130.5</ele>
        <time>2026-05-15T06:13:54Z</time>
      </trkpt>
      <trkpt lat="43.68091" lon="7.09913">
        <ele>130.5</ele>
        <time>2026-05-15T06:13:55Z</time>
      </trkpt>
      <trkpt lat="43.68091" lon="7.09913">
        <ele>130.5</ele>
        <time>2026-05-15T06:13:56Z</time>
      </trkpt>
      <trkpt lat="43.68091" lon="7.09913">
        <ele>130.5</ele>
        <time>2026-05-15T06:13:57Z</time>
      </trkpt>
      <trkpt lat="43.68091" lon="7.09913">
        <ele>130.5</ele>
        <time>2026-05-15T06:13:58Z</time>
      </trkpt>
      <trkpt lat="43.68091" lon="7.09913">
        <ele>130.5</ele>
        <time>2026-05-15T06:13:59Z</time>
      </trkpt>
      <trkpt lat="43.68091" lon="7.09913">
        <ele>130.5</ele>
        <time>2026-05-15T06:14:00Z</time>
      </trkpt>
      <trkpt lat="43.68091" lon="7.09913">
        <ele>130.5</ele>
        <time>2026-05-15T06:14:01Z</time>
      </trkpt>
      <trkpt lat="43.68091" lon="7.09913">
        <ele>130.5</ele>
        <time>2026-05-15T06:14:02Z</time>
      </trkpt>
      <trkpt lat="43.68091" lon="7.09913">
        <ele>130.5</ele>
        <time>2026-05-15T06:14:03Z</time>
      </trkpt>
      <trkpt lat="43.68091" lon="7.09913">
        <ele>130.5</ele>
        <time>2026-05-15T06:14:04Z</time>
      </trkpt>
      <trkpt lat="43.68091" lon="7.09913">
        <ele>130.5</ele>
        <time>2026-05-15T06:14:05Z</time>
      </trkpt>
      <trkpt lat="43.68091" lon="7.09913">
        <ele>130.5</ele>
        <time>2026-05-15T06:14:06Z</time>
      </trkpt>
      <trkpt lat="43.68091" lon="7.09913">
        <ele>130.5</ele>
        <time>2026-05-15T06:14:07Z</time>
      </trkpt>
      <trkpt lat="43.68091" lon="7.09913">
        <ele>130.5</ele>
        <time>2026-05-15T06:14:08Z</time>
      </trkpt>
      <trkpt lat="43.68091" lon="7.09913">
        <ele>130.5</ele>
        <time>2026-05-15T06:14:09Z</time>
      </trkpt>
      <trkpt lat="43.68091" lon="7.09913">
        <ele>130.5</ele>
        <time>2026-05-15T06:14:10Z</time>
      </trkpt>
      <trkpt lat="43.68091" lon="7.09913">
        <ele>130.5</ele>
        <time>2026-05-15T06:14:11Z</time>
      </trkpt>
      <trkpt lat="43.68091" lon="7.09913">
        <ele>130.5</ele>
        <time>2026-05-15T06:14:12Z</time>
      </trkpt>
      <trkpt lat="43.68091" lon="7.09913">
        <ele>130.5</ele>
        <time>2026-05-15T06:14:13Z</time>
      </trkpt>
      <trkpt lat="43.68091" lon="7.09913">
        <ele>130.5</ele>
        <time>2026-05-15T06:14:14Z</time>
      </trkpt>
      <trkpt lat="43.68091" lon="7.09913">
        <ele>130.5</ele>
        <time>2026-05-15T06:14:15Z</time>
      </trkpt>
      <trkpt lat="43.68091" lon="7.09913">
        <ele>130.5</ele>
        <time>2026-05-15T06:14:16Z</time>
      </trkpt>
      <trkpt lat="43.68091" lon="7.09913">
        <ele>130.5</ele>
        <time>2026-05-15T06:14:17Z</time>
      </trkpt>
      <trkpt lat="43.68091" lon="7.09913">
        <ele>130.5</ele>
        <time>2026-05-15T06:14:18Z</time>
      </trkpt>
      <trkpt lat="43.68091" lon="7.09913">
        <ele>130.5</ele>
        <time>2026-05-15T06:14:19Z</time>
      </trkpt>
      <trkpt lat="43.68091" lon="7.09913">
        <ele>130.5</ele>
        <time>2026-05-15T06:14:20Z</time>
      </trkpt>
      <trkpt lat="43.68091" lon="7.09913">
        <ele>130.5</ele>
        <time>2026-05-15T06:14:21Z</time>
      </trkpt>
      <trkpt lat="43.68091" lon="7.09913">
        <ele>130.5</ele>
        <time>2026-05-15T06:14:22Z</time>
      </trkpt>
      <trkpt lat="43.68091" lon="7.09913">
        <ele>130.5</ele>
        <time>2026-05-15T06:14:23Z</time>
      </trkpt>
      <trkpt lat="43.68091" lon="7.09913">
        <ele>130.5</ele>
        <time>2026-05-15T06:14:24Z</time>
      </trkpt>
      <trkpt lat="43.68091" lon="7.09913">
        <ele>130.5</ele>
        <time>2026-05-15T06:14:25Z</time>
      </trkpt>
      <trkpt lat="43.68091" lon="7.09913">
        <ele>130.5</ele>
        <time>2026-05-15T06:14:26Z</time>
      </trkpt>
      <trkpt lat="43.68091" lon="7.09913">
        <ele>130.5</ele>
        <time>2026-05-15T06:14:27Z</time>
      </trkpt>
      <trkpt lat="43.68091" lon="7.09913">
        <ele>130.5</ele>
        <time>2026-05-15T06:14:28Z</time>
      </trkpt>
      <trkpt lat="43.68091" lon="7.09913">
        <ele>130.5</ele>
        <time>2026-05-15T06:14:29Z</time>
      </trkpt>
      <trkpt lat="43.68091" lon="7.09913">
        <ele>130.5</ele>
        <time>2026-05-15T06:14:30Z</time>
      </trkpt>
      <trkpt lat="43.68091" lon="7.09913">
        <ele>130.5</ele>
        <time>2026-05-15T06:14:31Z</time>
      </trkpt>
      <trkpt lat="43.68091" lon="7.09913">
        <ele>130.5</ele>
        <time>2026-05-15T06:14:32Z</time>
      </trkpt>
      <trkpt lat="43.68091" lon="7.09913">
        <ele>130.5</ele>
        <time>2026-05-15T06:14:33Z</time>
      </trkpt>
      <trkpt lat="43.68091" lon="7.09913">
        <ele>130.5</ele>
        <time>2026-05-15T06:14:34Z</time>
      </trkpt>
      <trkpt lat="43.68091" lon="7.09913">
        <ele>130.5</ele>
        <time>2026-05-15T06:14:35Z</time>
      </trkpt>
      <trkpt lat="43.68091" lon="7.09913">
        <ele>130.5</ele>
        <time>2026-05-15T06:14:36Z</time>
      </trkpt>
      <trkpt lat="43.68091" lon="7.09913">
        <ele>130.5</ele>
        <time>2026-05-15T06:14:37Z</time>
      </trkpt>
      <trkpt lat="43.68091" lon="7.09913">
        <ele>130.5</ele>
        <time>2026-05-15T06:14:38Z</time>
      </trkpt>
      <trkpt lat="43.68091" lon="7.09913">
        <ele>130.5</ele>
        <time>2026-05-15T06:14:39Z</time>
      </trkpt>
      <trkpt lat="43.68091" lon="7.09913">
        <ele>130.5</ele>
        <time>2026-05-15T06:14:40Z</time>
      </trkpt>
      <trkpt lat="43.68091" lon="7.09913">
        <ele>130.5</ele>
        <time>2026-05-15T06:14:41Z</time>
      </trkpt>
      <trkpt lat="43.68091" lon="7.09913">
        <ele>130.5</ele>
        <time>2026-05-15T06:14:42Z</time>
      </trkpt>
      <trkpt lat="43.68091" lon="7.09913">
        <ele>130.5</ele>
        <time>2026-05-15T06:14:43Z</time>
      </trkpt>
      <trkpt lat="43.68091" lon="7.09913">
        <ele>130.5</ele>
        <time>2026-05-15T06:14:44Z</time>
      </trkpt>
      <trkpt lat="43.68091" lon="7.09913">
        <ele>130.5</ele>
        <time>2026-05-15T06:14:45Z</time>
      </trkpt>
      <trkpt lat="43.68091" lon="7.09913">
        <ele>130.5</ele>
        <time>2026-05-15T06:14:46Z</time>
      </trkpt>
      <trkpt lat="43.68091" lon="7.09913">
        <ele>130.5</ele>
        <time>2026-05-15T06:14:47Z</time>
      </trkpt>
      <trkpt lat="43.68091" lon="7.09913">
        <ele>130.5</ele>
        <time>2026-05-15T06:14:48Z</time>
      </trkpt>
      <trkpt lat="43.68091" lon="7.09913">
        <ele>130.5</ele>
        <time>2026-05-15T06:14:49Z</time>
      </trkpt>
      <trkpt lat="43.68091" lon="7.09913">
        <ele>130.5</ele>
        <time>2026-05-15T06:14:50Z</time>
      </trkpt>
      <trkpt lat="43.68091" lon="7.09913">
        <ele>130.5</ele>
        <time>2026-05-15T06:14:51Z</time>
      </trkpt>
      <trkpt lat="43.68091" lon="7.09913">
        <ele>130.5</ele>
        <time>2026-05-15T06:14:52Z</time>
      </trkpt>
      <trkpt lat="43.68091" lon="7.09913">
        <ele>130.5</ele>
        <time>2026-05-15T06:14:53Z</time>
      </trkpt>
      <trkpt lat="43.68091" lon="7.09913">
        <ele>130.5</ele>
        <time>2026-05-15T06:14:54Z</time>
      </trkpt>
      <trkpt lat="43.68091" lon="7.09913">
        <ele>130.5</ele>
        <time>2026-05-15T06:14:55Z</time>
      </trkpt>
      <trkpt lat="43.68091" lon="7.09913">
        <ele>130.5</ele>
        <time>2026-05-15T06:14:56Z</time>
      </trkpt>
      <trkpt lat="43.68091" lon="7.09913">
        <ele>130.5</ele>
        <time>2026-05-15T06:14:57Z</time>
      </trkpt>
      <trkpt lat="43.68091" lon="7.09913">
        <ele>130.5</ele>
        <time>2026-05-15T06:14:58Z</time>
      </trkpt>
      <trkpt lat="43.68091" lon="7.09913">
        <ele>130.5</ele>
        <time>2026-05-15T06:14:59Z</time>
      </trkpt>
      <trkpt lat="43.68091" lon="7.09913">
        <ele>130.5</ele>
        <time>2026-05-15T06:15:00Z</time>
      </trkpt>
      <trkpt lat="43.68091" lon="7.09913">
        <ele>130.5</ele>
        <time>2026-05-15T06:15:01Z</time>
      </trkpt>
      <trkpt lat="43.68091" lon="7.09913">
        <ele>130.5</ele>
        <time>2026-05-15T06:15:02Z</time>
      </trkpt>
      <trkpt lat="43.68091" lon="7.09913">
        <ele>130.5</ele>
        <time>2026-05-15T06:15:03Z</time>
      </trkpt>
      <trkpt lat="43.68091" lon="7.09913">
        <ele>130.5</ele>
        <time>2026-05-15T06:15:04Z</time>
      </trkpt>
      <trkpt lat="43.68091" lon="7.09913">
        <ele>130.5</ele>
        <time>2026-05-15T06:15:05Z</time>
      </trkpt>
      <trkpt lat="43.68091" lon="7.09913">
        <ele>130.5</ele>
        <time>2026-05-15T06:15:06Z</time>
      </trkpt>
      <trkpt lat="43.68091" lon="7.09913">
        <ele>130.5</ele>
        <time>2026-05-15T06:15:07Z</time>
      </trkpt>
      <trkpt lat="43.68091" lon="7.09913">
        <ele>130.5</ele>
        <time>2026-05-15T06:15:08Z</time>
      </trkpt>
      <trkpt lat="43.68091" lon="7.09913">
        <ele>130.5</ele>
        <time>2026-05-15T06:15:09Z</time>
      </trkpt>
      <trkpt lat="43.68091" lon="7.09913">
        <ele>130.5</ele>
        <time>2026-05-15T06:15:10Z</time>
      </trkpt>
      <trkpt lat="43.68091" lon="7.09913">
        <ele>130.5</ele>
        <time>2026-05-15T06:15:11Z</time>
      </trkpt>
      <trkpt lat="43.68091" lon="7.09913">
        <ele>130.5</ele>
        <time>2026-05-15T06:15:12Z</time>
      </trkpt>
      <trkpt lat="43.68091" lon="7.09913">
        <ele>130.5</ele>
        <time>2026-05-15T06:15:13Z</time>
      </trkpt>
      <trkpt lat="43.68091" lon="7.09913">
        <ele>130.5</ele>
        <time>2026-05-15T06:15:14Z</time>
      </trkpt>
      <trkpt lat="43.68091" lon="7.09913">
        <ele>130.5</ele>
        <time>2026-05-15T06:15:15Z</time>
      </trkpt>
      <trkpt lat="43.68091" lon="7.09913">
        <ele>130.5</ele>
        <time>2026-05-15T06:15:16Z</time>
      </trkpt>
      <trkpt lat="43.68091" lon="7.09913">
        <ele>130.5</ele>
        <time>2026-05-15T06:15:17Z</time>
      </trkpt>
      <trkpt lat="43.68091" lon="7.09913">
        <ele>130.5</ele>
        <time>2026-05-15T06:15:18Z</time>
      </trkpt>
      <trkpt lat="43.68091" lon="7.09913">
        <ele>130.5</ele>
        <time>2026-05-15T06:15:19Z</time>
      </trkpt>
      <trkpt lat="43.68091" lon="7.09913">
        <ele>130.5</ele>
        <time>2026-05-15T06:15:20Z</time>
      </trkpt>
      <trkpt lat="43.68092" lon="7.09912">
        <ele>130.7</ele>
        <time>2026-05-15T06:15:21Z</time>
      </trkpt>
      <trkpt lat="43.68092" lon="7.0991">
        <ele>130.7</ele>
        <time>2026-05-15T06:15:22Z</time>
      </trkpt>
      <trkpt lat="43.68093" lon="7.09907">
        <ele>131</ele>
        <time>2026-05-15T06:15:23Z</time>
      </trkpt>
      <trkpt lat="43.68095" lon="7.09904">
        <ele>131.2</ele>
        <time>2026-05-15T06:15:24Z</time>
      </trkpt>
      <trkpt lat="43.68098" lon="7.09897">
        <ele>131.6</ele>
        <time>2026-05-15T06:15:25Z</time>
      </trkpt>
      <trkpt lat="43.68104" lon="7.0989">
        <ele>131.8</ele>
        <time>2026-05-15T06:15:26Z</time>
      </trkpt>
      <trkpt lat="43.68109" lon="7.09884">
        <ele>131.9</ele>
        <time>2026-05-15T06:15:27Z</time>
      </trkpt>
      <trkpt lat="43.68113" lon="7.09879">
        <ele>132.2</ele>
        <time>2026-05-15T06:15:28Z</time>
      </trkpt>
      <trkpt lat="43.68115" lon="7.09876">
        <ele>132.3</ele>
        <time>2026-05-15T06:15:29Z</time>
      </trkpt>
      <trkpt lat="43.68117" lon="7.09872">
        <ele>132.4</ele>
        <time>2026-05-15T06:15:30Z</time>
      </trkpt>
      <trkpt lat="43.68118" lon="7.09866">
        <ele>132.3</ele>
        <time>2026-05-15T06:15:31Z</time>
      </trkpt>
      <trkpt lat="43.68119" lon="7.09863">
        <ele>132.3</ele>
        <time>2026-05-15T06:15:32Z</time>
      </trkpt>
      <trkpt lat="43.68119" lon="7.09858">
        <ele>132.1</ele>
        <time>2026-05-15T06:15:33Z</time>
      </trkpt>
      <trkpt lat="43.68119" lon="7.09854">
        <ele>131.8</ele>
        <time>2026-05-15T06:15:34Z</time>
      </trkpt>
      <trkpt lat="43.6812" lon="7.0985">
        <ele>131.5</ele>
        <time>2026-05-15T06:15:35Z</time>
      </trkpt>
      <trkpt lat="43.6812" lon="7.09847">
        <ele>131.3</ele>
        <time>2026-05-15T06:15:36Z</time>
      </trkpt>
      <trkpt lat="43.68119" lon="7.09845">
        <ele>131.1</ele>
        <time>2026-05-15T06:15:37Z</time>
      </trkpt>
      <trkpt lat="43.68119" lon="7.09843">
        <ele>131</ele>
        <time>2026-05-15T06:15:38Z</time>
      </trkpt>
      <trkpt lat="43.6812" lon="7.09841">
        <ele>130.9</ele>
        <time>2026-05-15T06:15:39Z</time>
      </trkpt>
      <trkpt lat="43.6812" lon="7.0984">
        <ele>130.8</ele>
        <time>2026-05-15T06:15:40Z</time>
      </trkpt>
      <trkpt lat="43.6812" lon="7.09839">
        <ele>130.7</ele>
        <time>2026-05-15T06:15:41Z</time>
      </trkpt>
      <trkpt lat="43.6812" lon="7.09839">
        <ele>130.7</ele>
        <time>2026-05-15T06:15:42Z</time>
      </trkpt>
      <trkpt lat="43.68121" lon="7.09839">
        <ele>130.8</ele>
        <time>2026-05-15T06:15:43Z</time>
      </trkpt>
      <trkpt lat="43.68121" lon="7.09838">
        <ele>130.7</ele>
        <time>2026-05-15T06:15:44Z</time>
      </trkpt>
      <trkpt lat="43.68121" lon="7.09838">
        <ele>130.7</ele>
        <time>2026-05-15T06:15:45Z</time>
      </trkpt>
      <trkpt lat="43.68121" lon="7.09838">
        <ele>130.7</ele>
        <time>2026-05-15T06:15:46Z</time>
      </trkpt>
      <trkpt lat="43.68121" lon="7.09837">
        <ele>130.6</ele>
        <time>2026-05-15T06:15:47Z</time>
      </trkpt>
      <trkpt lat="43.68122" lon="7.09836">
        <ele>130.6</ele>
        <time>2026-05-15T06:15:48Z</time>
      </trkpt>
      <trkpt lat="43.68122" lon="7.09833">
        <ele>130.4</ele>
        <time>2026-05-15T06:15:49Z</time>
      </trkpt>
      <trkpt lat="43.68124" lon="7.0983">
        <ele>130.3</ele>
        <time>2026-05-15T06:15:50Z</time>
      </trkpt>
      <trkpt lat="43.68125" lon="7.09826">
        <ele>130.1</ele>
        <time>2026-05-15T06:15:51Z</time>
      </trkpt>
      <trkpt lat="43.68127" lon="7.09822">
        <ele>129.9</ele>
        <time>2026-05-15T06:15:52Z</time>
      </trkpt>
      <trkpt lat="43.68129" lon="7.09817">
        <ele>129.7</ele>
        <time>2026-05-15T06:15:53Z</time>
      </trkpt>
      <trkpt lat="43.68131" lon="7.09811">
        <ele>129.3</ele>
        <time>2026-05-15T06:15:54Z</time>
      </trkpt>
      <trkpt lat="43.68131" lon="7.09803">
        <ele>128.8</ele>
        <time>2026-05-15T06:15:55Z</time>
      </trkpt>
      <trkpt lat="43.68132" lon="7.09796">
        <ele>128.3</ele>
        <time>2026-05-15T06:15:56Z</time>
      </trkpt>
      <trkpt lat="43.68133" lon="7.09789">
        <ele>127.8</ele>
        <time>2026-05-15T06:15:57Z</time>
      </trkpt>
      <trkpt lat="43.68133" lon="7.09783">
        <ele>127.4</ele>
        <time>2026-05-15T06:15:58Z</time>
      </trkpt>
      <trkpt lat="43.68133" lon="7.09777">
        <ele>127</ele>
        <time>2026-05-15T06:15:59Z</time>
      </trkpt>
      <trkpt lat="43.68134" lon="7.09773">
        <ele>126.9</ele>
        <time>2026-05-15T06:16:00Z</time>
      </trkpt>
      <trkpt lat="43.68134" lon="7.09769">
        <ele>126.7</ele>
        <time>2026-05-15T06:16:01Z</time>
      </trkpt>
      <trkpt lat="43.68135" lon="7.09765">
        <ele>126.6</ele>
        <time>2026-05-15T06:16:02Z</time>
      </trkpt>
      <trkpt lat="43.68136" lon="7.09762">
        <ele>126.5</ele>
        <time>2026-05-15T06:16:03Z</time>
      </trkpt>
      <trkpt lat="43.68137" lon="7.09759">
        <ele>126.4</ele>
        <time>2026-05-15T06:16:04Z</time>
      </trkpt>
      <trkpt lat="43.68139" lon="7.09755">
        <ele>126.2</ele>
        <time>2026-05-15T06:16:05Z</time>
      </trkpt>
      <trkpt lat="43.68142" lon="7.09751">
        <ele>125.8</ele>
        <time>2026-05-15T06:16:06Z</time>
      </trkpt>
      <trkpt lat="43.68147" lon="7.09746">
        <ele>125.4</ele>
        <time>2026-05-15T06:16:07Z</time>
      </trkpt>
      <trkpt lat="43.68152" lon="7.09738">
        <ele>124.9</ele>
        <time>2026-05-15T06:16:08Z</time>
      </trkpt>
      <trkpt lat="43.68157" lon="7.09733">
        <ele>124.3</ele>
        <time>2026-05-15T06:16:09Z</time>
      </trkpt>
      <trkpt lat="43.68163" lon="7.09728">
        <ele>123.6</ele>
        <time>2026-05-15T06:16:10Z</time>
      </trkpt>
      <trkpt lat="43.68168" lon="7.09722">
        <ele>122.8</ele>
        <time>2026-05-15T06:16:11Z</time>
      </trkpt>
      <trkpt lat="43.68174" lon="7.09716">
        <ele>121.9</ele>
        <time>2026-05-15T06:16:12Z</time>
      </trkpt>
      <trkpt lat="43.6818" lon="7.09709">
        <ele>121.1</ele>
        <time>2026-05-15T06:16:13Z</time>
      </trkpt>
      <trkpt lat="43.68187" lon="7.09703">
        <ele>120.1</ele>
        <time>2026-05-15T06:16:14Z</time>
      </trkpt>
      <trkpt lat="43.68193" lon="7.09699">
        <ele>119.2</ele>
        <time>2026-05-15T06:16:15Z</time>
      </trkpt>
      <trkpt lat="43.682" lon="7.09697">
        <ele>117.6</ele>
        <time>2026-05-15T06:16:16Z</time>
      </trkpt>
      <trkpt lat="43.68208" lon="7.09699">
        <ele>115.7</ele>
        <time>2026-05-15T06:16:17Z</time>
      </trkpt>
      <trkpt lat="43.68215" lon="7.09703">
        <ele>114.3</ele>
        <time>2026-05-15T06:16:18Z</time>
      </trkpt>
      <trkpt lat="43.68221" lon="7.09708">
        <ele>113.2</ele>
        <time>2026-05-15T06:16:19Z</time>
      </trkpt>
      <trkpt lat="43.6823" lon="7.09715">
        <ele>111.4</ele>
        <time>2026-05-15T06:16:20Z</time>
      </trkpt>
      <trkpt lat="43.68238" lon="7.09723">
        <ele>110.7</ele>
        <time>2026-05-15T06:16:21Z</time>
      </trkpt>
      <trkpt lat="43.68245" lon="7.09731">
        <ele>110.3</ele>
        <time>2026-05-15T06:16:22Z</time>
      </trkpt>
      <trkpt lat="43.68253" lon="7.0974">
        <ele>109.8</ele>
        <time>2026-05-15T06:16:23Z</time>
      </trkpt>
      <trkpt lat="43.68261" lon="7.09748">
        <ele>108.9</ele>
        <time>2026-05-15T06:16:24Z</time>
      </trkpt>
      <trkpt lat="43.6827" lon="7.09756">
        <ele>108.3</ele>
        <time>2026-05-15T06:16:25Z</time>
      </trkpt>
      <trkpt lat="43.68279" lon="7.09762">
        <ele>107</ele>
        <time>2026-05-15T06:16:26Z</time>
      </trkpt>
      <trkpt lat="43.68289" lon="7.09768">
        <ele>107</ele>
        <time>2026-05-15T06:16:27Z</time>
      </trkpt>
      <trkpt lat="43.68298" lon="7.09772">
        <ele>106.8</ele>
        <time>2026-05-15T06:16:28Z</time>
      </trkpt>
      <trkpt lat="43.68306" lon="7.09771">
        <ele>105.8</ele>
        <time>2026-05-15T06:16:29Z</time>
      </trkpt>
      <trkpt lat="43.68315" lon="7.09769">
        <ele>105</ele>
        <time>2026-05-15T06:16:30Z</time>
      </trkpt>
      <trkpt lat="43.68323" lon="7.09765">
        <ele>104</ele>
        <time>2026-05-15T06:16:31Z</time>
      </trkpt>
      <trkpt lat="43.68332" lon="7.09763">
        <ele>103.4</ele>
        <time>2026-05-15T06:16:32Z</time>
      </trkpt>
      <trkpt lat="43.6834" lon="7.09763">
        <ele>102.6</ele>
        <time>2026-05-15T06:16:33Z</time>
      </trkpt>
      <trkpt lat="43.68349" lon="7.09764">
        <ele>101.5</ele>
        <time>2026-05-15T06:16:34Z</time>
      </trkpt>
      <trkpt lat="43.68357" lon="7.09767">
        <ele>100.6</ele>
        <time>2026-05-15T06:16:35Z</time>
      </trkpt>
      <trkpt lat="43.68364" lon="7.09773">
        <ele>99.4</ele>
        <time>2026-05-15T06:16:36Z</time>
      </trkpt>
      <trkpt lat="43.68372" lon="7.0978">
        <ele>98.1</ele>
        <time>2026-05-15T06:16:37Z</time>
      </trkpt>
      <trkpt lat="43.68378" lon="7.09789">
        <ele>97.1</ele>
        <time>2026-05-15T06:16:38Z</time>
      </trkpt>
      <trkpt lat="43.68385" lon="7.09798">
        <ele>95.8</ele>
        <time>2026-05-15T06:16:39Z</time>
      </trkpt>
      <trkpt lat="43.68391" lon="7.09808">
        <ele>94.3</ele>
        <time>2026-05-15T06:16:40Z</time>
      </trkpt>
      <trkpt lat="43.68396" lon="7.0982">
        <ele>93</ele>
        <time>2026-05-15T06:16:41Z</time>
      </trkpt>
      <trkpt lat="43.684" lon="7.09831">
        <ele>92.1</ele>
        <time>2026-05-15T06:16:42Z</time>
      </trkpt>
      <trkpt lat="43.68406" lon="7.09842">
        <ele>91.7</ele>
        <time>2026-05-15T06:16:43Z</time>
      </trkpt>
      <trkpt lat="43.68413" lon="7.09849">
        <ele>91</ele>
        <time>2026-05-15T06:16:44Z</time>
      </trkpt>
      <trkpt lat="43.6842" lon="7.09856">
        <ele>90.4</ele>
        <time>2026-05-15T06:16:45Z</time>
      </trkpt>
      <trkpt lat="43.68427" lon="7.09862">
        <ele>89.5</ele>
        <time>2026-05-15T06:16:46Z</time>
      </trkpt>
      <trkpt lat="43.68433" lon="7.09867">
        <ele>89</ele>
        <time>2026-05-15T06:16:47Z</time>
      </trkpt>
      <trkpt lat="43.68438" lon="7.09868">
        <ele>88</ele>
        <time>2026-05-15T06:16:48Z</time>
      </trkpt>
      <trkpt lat="43.68442" lon="7.0987">
        <ele>87.5</ele>
        <time>2026-05-15T06:16:49Z</time>
      </trkpt>
      <trkpt lat="43.68445" lon="7.0987">
        <ele>86.8</ele>
        <time>2026-05-15T06:16:50Z</time>
      </trkpt>
      <trkpt lat="43.68448" lon="7.0987">
        <ele>86</ele>
        <time>2026-05-15T06:16:51Z</time>
      </trkpt>
      <trkpt lat="43.68449" lon="7.09871">
        <ele>85.9</ele>
        <time>2026-05-15T06:16:52Z</time>
      </trkpt>
      <trkpt lat="43.68452" lon="7.09872">
        <ele>85.3</ele>
        <time>2026-05-15T06:16:53Z</time>
      </trkpt>
      <trkpt lat="43.68454" lon="7.09873">
        <ele>85</ele>
        <time>2026-05-15T06:16:54Z</time>
      </trkpt>
      <trkpt lat="43.68456" lon="7.09874">
        <ele>84.7</ele>
        <time>2026-05-15T06:16:55Z</time>
      </trkpt>
      <trkpt lat="43.68458" lon="7.09875">
        <ele>84.3</ele>
        <time>2026-05-15T06:16:56Z</time>
      </trkpt>
      <trkpt lat="43.68461" lon="7.09875">
        <ele>83.5</ele>
        <time>2026-05-15T06:16:57Z</time>
      </trkpt>
      <trkpt lat="43.68463" lon="7.09876">
        <ele>83.2</ele>
        <time>2026-05-15T06:16:58Z</time>
      </trkpt>
      <trkpt lat="43.68465" lon="7.09877">
        <ele>82.8</ele>
        <time>2026-05-15T06:16:59Z</time>
      </trkpt>
      <trkpt lat="43.68467" lon="7.09878">
        <ele>82.5</ele>
        <time>2026-05-15T06:17:00Z</time>
      </trkpt>
      <trkpt lat="43.68469" lon="7.0988">
        <ele>82.3</ele>
        <time>2026-05-15T06:17:01Z</time>
      </trkpt>
      <trkpt lat="43.68471" lon="7.09881">
        <ele>81.9</ele>
        <time>2026-05-15T06:17:02Z</time>
      </trkpt>
      <trkpt lat="43.68474" lon="7.09883">
        <ele>81.6</ele>
        <time>2026-05-15T06:17:03Z</time>
      </trkpt>
      <trkpt lat="43.68477" lon="7.09885">
        <ele>81.3</ele>
        <time>2026-05-15T06:17:04Z</time>
      </trkpt>
      <trkpt lat="43.6848" lon="7.09887">
        <ele>81</ele>
        <time>2026-05-15T06:17:05Z</time>
      </trkpt>
      <trkpt lat="43.68482" lon="7.09889">
        <ele>80.9</ele>
        <time>2026-05-15T06:17:06Z</time>
      </trkpt>
      <trkpt lat="43.68485" lon="7.0989">
        <ele>80.4</ele>
        <time>2026-05-15T06:17:07Z</time>
      </trkpt>
      <trkpt lat="43.68487" lon="7.09892">
        <ele>80.1</ele>
        <time>2026-05-15T06:17:08Z</time>
      </trkpt>
      <trkpt lat="43.68489" lon="7.09894">
        <ele>79.9</ele>
        <time>2026-05-15T06:17:09Z</time>
      </trkpt>
      <trkpt lat="43.68491" lon="7.09896">
        <ele>79.5</ele>
        <time>2026-05-15T06:17:10Z</time>
      </trkpt>
      <trkpt lat="43.68494" lon="7.09899">
        <ele>79</ele>
        <time>2026-05-15T06:17:11Z</time>
      </trkpt>
      <trkpt lat="43.68496" lon="7.09901">
        <ele>78.6</ele>
        <time>2026-05-15T06:17:12Z</time>
      </trkpt>
      <trkpt lat="43.68498" lon="7.09904">
        <ele>78.1</ele>
        <time>2026-05-15T06:17:13Z</time>
      </trkpt>
      <trkpt lat="43.68499" lon="7.09908">
        <ele>78</ele>
        <time>2026-05-15T06:17:14Z</time>
      </trkpt>
      <trkpt lat="43.68499" lon="7.09912">
        <ele>78.2</ele>
        <time>2026-05-15T06:17:15Z</time>
      </trkpt>
      <trkpt lat="43.68497" lon="7.09917">
        <ele>79.1</ele>
        <time>2026-05-15T06:17:16Z</time>
      </trkpt>
      <trkpt lat="43.68487" lon="7.09924">
        <ele>81.7</ele>
        <time>2026-05-15T06:17:17Z</time>
      </trkpt>
      <trkpt lat="43.68483" lon="7.09933">
        <ele>81.5</ele>
        <time>2026-05-15T06:17:18Z</time>
      </trkpt>
      <trkpt lat="43.68479" lon="7.09943">
        <ele>80.8</ele>
        <time>2026-05-15T06:17:19Z</time>
      </trkpt>
      <trkpt lat="43.68476" lon="7.09954">
        <ele>80.6</ele>
        <time>2026-05-15T06:17:20Z</time>
      </trkpt>
      <trkpt lat="43.68475" lon="7.09967">
        <ele>79.9</ele>
        <time>2026-05-15T06:17:21Z</time>
      </trkpt>
      <trkpt lat="43.68476" lon="7.09982">
        <ele>79.5</ele>
        <time>2026-05-15T06:17:22Z</time>
      </trkpt>
      <trkpt lat="43.68478" lon="7.09996">
        <ele>79.2</ele>
        <time>2026-05-15T06:17:23Z</time>
      </trkpt>
      <trkpt lat="43.6848" lon="7.10009">
        <ele>79.1</ele>
        <time>2026-05-15T06:17:24Z</time>
      </trkpt>
      <trkpt lat="43.68483" lon="7.10022">
        <ele>78.9</ele>
        <time>2026-05-15T06:17:25Z</time>
      </trkpt>
      <trkpt lat="43.68485" lon="7.10035">
        <ele>78.4</ele>
        <time>2026-05-15T06:17:26Z</time>
      </trkpt>
      <trkpt lat="43.68487" lon="7.10048">
        <ele>77.7</ele>
        <time>2026-05-15T06:17:27Z</time>
      </trkpt>
      <trkpt lat="43.6849" lon="7.10062">
        <ele>76.9</ele>
        <time>2026-05-15T06:17:28Z</time>
      </trkpt>
      <trkpt lat="43.68492" lon="7.10076">
        <ele>76.4</ele>
        <time>2026-05-15T06:17:29Z</time>
      </trkpt>
      <trkpt lat="43.68495" lon="7.1009">
        <ele>75.7</ele>
        <time>2026-05-15T06:17:30Z</time>
      </trkpt>
      <trkpt lat="43.68495" lon="7.10106">
        <ele>74.7</ele>
        <time>2026-05-15T06:17:31Z</time>
      </trkpt>
      <trkpt lat="43.68494" lon="7.10122">
        <ele>74</ele>
        <time>2026-05-15T06:17:32Z</time>
      </trkpt>
      <trkpt lat="43.6849" lon="7.10138">
        <ele>73.8</ele>
        <time>2026-05-15T06:17:33Z</time>
      </trkpt>
      <trkpt lat="43.68486" lon="7.10152">
        <ele>73.3</ele>
        <time>2026-05-15T06:17:34Z</time>
      </trkpt>
      <trkpt lat="43.6848" lon="7.10166">
        <ele>72.3</ele>
        <time>2026-05-15T06:17:35Z</time>
      </trkpt>
      <trkpt lat="43.68474" lon="7.10179">
        <ele>70.8</ele>
        <time>2026-05-15T06:17:36Z</time>
      </trkpt>
      <trkpt lat="43.68469" lon="7.10191">
        <ele>69.8</ele>
        <time>2026-05-15T06:17:37Z</time>
      </trkpt>
      <trkpt lat="43.68462" lon="7.10202">
        <ele>69.5</ele>
        <time>2026-05-15T06:17:38Z</time>
      </trkpt>
      <trkpt lat="43.68456" lon="7.10214">
        <ele>68.4</ele>
        <time>2026-05-15T06:17:39Z</time>
      </trkpt>
      <trkpt lat="43.6845" lon="7.10226">
        <ele>67.4</ele>
        <time>2026-05-15T06:17:40Z</time>
      </trkpt>
      <trkpt lat="43.68445" lon="7.10238">
        <ele>66.8</ele>
        <time>2026-05-15T06:17:41Z</time>
      </trkpt>
      <trkpt lat="43.6844" lon="7.10248">
        <ele>66.6</ele>
        <time>2026-05-15T06:17:42Z</time>
      </trkpt>
      <trkpt lat="43.68435" lon="7.10259">
        <ele>66.3</ele>
        <time>2026-05-15T06:17:43Z</time>
      </trkpt>
      <trkpt lat="43.68432" lon="7.10269">
        <ele>65.4</ele>
        <time>2026-05-15T06:17:44Z</time>
      </trkpt>
      <trkpt lat="43.68427" lon="7.10279">
        <ele>64.3</ele>
        <time>2026-05-15T06:17:45Z</time>
      </trkpt>
      <trkpt lat="43.68423" lon="7.10289">
        <ele>63.4</ele>
        <time>2026-05-15T06:17:46Z</time>
      </trkpt>
      <trkpt lat="43.68419" lon="7.10298">
        <ele>62.6</ele>
        <time>2026-05-15T06:17:47Z</time>
      </trkpt>
      <trkpt lat="43.68414" lon="7.10308">
        <ele>62.1</ele>
        <time>2026-05-15T06:17:48Z</time>
      </trkpt>
      <trkpt lat="43.6841" lon="7.10317">
        <ele>61.8</ele>
        <time>2026-05-15T06:17:49Z</time>
      </trkpt>
      <trkpt lat="43.68406" lon="7.10324">
        <ele>61.3</ele>
        <time>2026-05-15T06:17:50Z</time>
      </trkpt>
      <trkpt lat="43.68403" lon="7.1033">
        <ele>60.8</ele>
        <time>2026-05-15T06:17:51Z</time>
      </trkpt>
      <trkpt lat="43.684" lon="7.10337">
        <ele>60.2</ele>
        <time>2026-05-15T06:17:52Z</time>
      </trkpt>
      <trkpt lat="43.68397" lon="7.10343">
        <ele>59.7</ele>
        <time>2026-05-15T06:17:53Z</time>
      </trkpt>
      <trkpt lat="43.68394" lon="7.10349">
        <ele>59.2</ele>
        <time>2026-05-15T06:17:54Z</time>
      </trkpt>
      <trkpt lat="43.68392" lon="7.10354">
        <ele>58.7</ele>
        <time>2026-05-15T06:17:55Z</time>
      </trkpt>
      <trkpt lat="43.68389" lon="7.10359">
        <ele>58.2</ele>
        <time>2026-05-15T06:17:56Z</time>
      </trkpt>
      <trkpt lat="43.68385" lon="7.10364">
        <ele>59</ele>
        <time>2026-05-15T06:17:57Z</time>
      </trkpt>
      <trkpt lat="43.68381" lon="7.1037">
        <ele>59.6</ele>
        <time>2026-05-15T06:17:58Z</time>
      </trkpt>
      <trkpt lat="43.68377" lon="7.10378">
        <ele>59.8</ele>
        <time>2026-05-15T06:17:59Z</time>
      </trkpt>
      <trkpt lat="43.68374" lon="7.10386">
        <ele>59.5</ele>
        <time>2026-05-15T06:18:00Z</time>
      </trkpt>
      <trkpt lat="43.68371" lon="7.10394">
        <ele>58.6</ele>
        <time>2026-05-15T06:18:01Z</time>
      </trkpt>
      <trkpt lat="43.68366" lon="7.10402">
        <ele>57.3</ele>
        <time>2026-05-15T06:18:02Z</time>
      </trkpt>
      <trkpt lat="43.6836" lon="7.1041">
        <ele>55.9</ele>
        <time>2026-05-15T06:18:03Z</time>
      </trkpt>
      <trkpt lat="43.68353" lon="7.10418">
        <ele>55.5</ele>
        <time>2026-05-15T06:18:04Z</time>
      </trkpt>
      <trkpt lat="43.68346" lon="7.10426">
        <ele>55.2</ele>
        <time>2026-05-15T06:18:05Z</time>
      </trkpt>
      <trkpt lat="43.68339" lon="7.10434">
        <ele>53.9</ele>
        <time>2026-05-15T06:18:06Z</time>
      </trkpt>
      <trkpt lat="43.68331" lon="7.10441">
        <ele>52.4</ele>
        <time>2026-05-15T06:18:07Z</time>
      </trkpt>
      <trkpt lat="43.68324" lon="7.10448">
        <ele>51.7</ele>
        <time>2026-05-15T06:18:08Z</time>
      </trkpt>
      <trkpt lat="43.68317" lon="7.10455">
        <ele>51.2</ele>
        <time>2026-05-15T06:18:09Z</time>
      </trkpt>
      <trkpt lat="43.68311" lon="7.10464">
        <ele>49.7</ele>
        <time>2026-05-15T06:18:10Z</time>
      </trkpt>
      <trkpt lat="43.68305" lon="7.10472">
        <ele>48.1</ele>
        <time>2026-05-15T06:18:11Z</time>
      </trkpt>
      <trkpt lat="43.683" lon="7.10479">
        <ele>47.8</ele>
        <time>2026-05-15T06:18:12Z</time>
      </trkpt>
      <trkpt lat="43.68293" lon="7.10486">
        <ele>47.4</ele>
        <time>2026-05-15T06:18:13Z</time>
      </trkpt>
      <trkpt lat="43.68286" lon="7.10494">
        <ele>46.7</ele>
        <time>2026-05-15T06:18:14Z</time>
      </trkpt>
      <trkpt lat="43.68278" lon="7.10501">
        <ele>45.9</ele>
        <time>2026-05-15T06:18:15Z</time>
      </trkpt>
      <trkpt lat="43.68271" lon="7.10507">
        <ele>46</ele>
        <time>2026-05-15T06:18:16Z</time>
      </trkpt>
      <trkpt lat="43.68263" lon="7.10514">
        <ele>45.5</ele>
        <time>2026-05-15T06:18:17Z</time>
      </trkpt>
      <trkpt lat="43.68255" lon="7.1052">
        <ele>44.7</ele>
        <time>2026-05-15T06:18:18Z</time>
      </trkpt>
      <trkpt lat="43.68246" lon="7.10527">
        <ele>43.8</ele>
        <time>2026-05-15T06:18:19Z</time>
      </trkpt>
      <trkpt lat="43.68237" lon="7.10534">
        <ele>44.2</ele>
        <time>2026-05-15T06:18:20Z</time>
      </trkpt>
      <trkpt lat="43.68228" lon="7.10541">
        <ele>43.9</ele>
        <time>2026-05-15T06:18:21Z</time>
      </trkpt>
      <trkpt lat="43.68219" lon="7.10549">
        <ele>43.3</ele>
        <time>2026-05-15T06:18:22Z</time>
      </trkpt>
      <trkpt lat="43.68212" lon="7.10558">
        <ele>43.2</ele>
        <time>2026-05-15T06:18:23Z</time>
      </trkpt>
      <trkpt lat="43.68207" lon="7.10567">
        <ele>42.6</ele>
        <time>2026-05-15T06:18:24Z</time>
      </trkpt>
      <trkpt lat="43.68202" lon="7.10576">
        <ele>41.1</ele>
        <time>2026-05-15T06:18:25Z</time>
      </trkpt>
      <trkpt lat="43.68198" lon="7.10584">
        <ele>39.1</ele>
        <time>2026-05-15T06:18:26Z</time>
      </trkpt>
      <trkpt lat="43.68194" lon="7.10594">
        <ele>37.9</ele>
        <time>2026-05-15T06:18:27Z</time>
      </trkpt>
      <trkpt lat="43.68189" lon="7.10606">
        <ele>37.4</ele>
        <time>2026-05-15T06:18:28Z</time>
      </trkpt>
      <trkpt lat="43.68184" lon="7.10617">
        <ele>37.7</ele>
        <time>2026-05-15T06:18:29Z</time>
      </trkpt>
      <trkpt lat="43.68178" lon="7.10627">
        <ele>37.9</ele>
        <time>2026-05-15T06:18:30Z</time>
      </trkpt>
      <trkpt lat="43.68171" lon="7.10635">
        <ele>37</ele>
        <time>2026-05-15T06:18:31Z</time>
      </trkpt>
      <trkpt lat="43.68164" lon="7.10643">
        <ele>36.3</ele>
        <time>2026-05-15T06:18:32Z</time>
      </trkpt>
      <trkpt lat="43.68157" lon="7.10649">
        <ele>36.3</ele>
        <time>2026-05-15T06:18:33Z</time>
      </trkpt>
      <trkpt lat="43.68149" lon="7.10653">
        <ele>36</ele>
        <time>2026-05-15T06:18:34Z</time>
      </trkpt>
      <trkpt lat="43.68141" lon="7.10656">
        <ele>35.5</ele>
        <time>2026-05-15T06:18:35Z</time>
      </trkpt>
      <trkpt lat="43.68131" lon="7.10658">
        <ele>35.1</ele>
        <time>2026-05-15T06:18:36Z</time>
      </trkpt>
      <trkpt lat="43.68122" lon="7.1066">
        <ele>34.8</ele>
        <time>2026-05-15T06:18:37Z</time>
      </trkpt>
      <trkpt lat="43.68113" lon="7.10661">
        <ele>34.5</ele>
        <time>2026-05-15T06:18:38Z</time>
      </trkpt>
      <trkpt lat="43.68105" lon="7.10664">
        <ele>34.2</ele>
        <time>2026-05-15T06:18:39Z</time>
      </trkpt>
      <trkpt lat="43.68096" lon="7.10666">
        <ele>34</ele>
        <time>2026-05-15T06:18:40Z</time>
      </trkpt>
      <trkpt lat="43.68085" lon="7.10669">
        <ele>34</ele>
        <time>2026-05-15T06:18:41Z</time>
      </trkpt>
      <trkpt lat="43.68075" lon="7.10671">
        <ele>33.7</ele>
        <time>2026-05-15T06:18:42Z</time>
      </trkpt>
      <trkpt lat="43.68064" lon="7.10673">
        <ele>33.5</ele>
        <time>2026-05-15T06:18:43Z</time>
      </trkpt>
      <trkpt lat="43.68054" lon="7.10676">
        <ele>33.3</ele>
        <time>2026-05-15T06:18:44Z</time>
      </trkpt>
      <trkpt lat="43.68044" lon="7.10679">
        <ele>32.8</ele>
        <time>2026-05-15T06:18:45Z</time>
      </trkpt>
      <trkpt lat="43.68035" lon="7.10682">
        <ele>32.4</ele>
        <time>2026-05-15T06:18:46Z</time>
      </trkpt>
      <trkpt lat="43.68025" lon="7.10685">
        <ele>31.9</ele>
        <time>2026-05-15T06:18:47Z</time>
      </trkpt>
      <trkpt lat="43.68015" lon="7.10687">
        <ele>31.7</ele>
        <time>2026-05-15T06:18:48Z</time>
      </trkpt>
      <trkpt lat="43.68005" lon="7.1069">
        <ele>31.3</ele>
        <time>2026-05-15T06:18:49Z</time>
      </trkpt>
      <trkpt lat="43.67996" lon="7.10693">
        <ele>31</ele>
        <time>2026-05-15T06:18:50Z</time>
      </trkpt>
      <trkpt lat="43.67987" lon="7.10696">
        <ele>31</ele>
        <time>2026-05-15T06:18:51Z</time>
      </trkpt>
      <trkpt lat="43.67978" lon="7.10699">
        <ele>31</ele>
        <time>2026-05-15T06:18:52Z</time>
      </trkpt>
      <trkpt lat="43.67971" lon="7.10701">
        <ele>31</ele>
        <time>2026-05-15T06:18:53Z</time>
      </trkpt>
      <trkpt lat="43.67963" lon="7.10704">
        <ele>30.8</ele>
        <time>2026-05-15T06:18:54Z</time>
      </trkpt>
      <trkpt lat="43.67956" lon="7.10707">
        <ele>30.5</ele>
        <time>2026-05-15T06:18:55Z</time>
      </trkpt>
      <trkpt lat="43.67949" lon="7.10709">
        <ele>30.1</ele>
        <time>2026-05-15T06:18:56Z</time>
      </trkpt>
      <trkpt lat="43.67943" lon="7.10711">
        <ele>29.8</ele>
        <time>2026-05-15T06:18:57Z</time>
      </trkpt>
      <trkpt lat="43.67938" lon="7.10713">
        <ele>29.6</ele>
        <time>2026-05-15T06:18:58Z</time>
      </trkpt>
      <trkpt lat="43.67933" lon="7.10716">
        <ele>29.4</ele>
        <time>2026-05-15T06:18:59Z</time>
      </trkpt>
      <trkpt lat="43.67927" lon="7.10718">
        <ele>29.2</ele>
        <time>2026-05-15T06:19:00Z</time>
      </trkpt>
      <trkpt lat="43.6792" lon="7.1072">
        <ele>29.1</ele>
        <time>2026-05-15T06:19:01Z</time>
      </trkpt>
      <trkpt lat="43.67913" lon="7.10722">
        <ele>29</ele>
        <time>2026-05-15T06:19:02Z</time>
      </trkpt>
      <trkpt lat="43.67904" lon="7.10724">
        <ele>29.1</ele>
        <time>2026-05-15T06:19:03Z</time>
      </trkpt>
      <trkpt lat="43.67895" lon="7.10727">
        <ele>29.2</ele>
        <time>2026-05-15T06:19:04Z</time>
      </trkpt>
      <trkpt lat="43.67886" lon="7.10729">
        <ele>29.1</ele>
        <time>2026-05-15T06:19:05Z</time>
      </trkpt>
      <trkpt lat="43.67877" lon="7.10731">
        <ele>28.8</ele>
        <time>2026-05-15T06:19:06Z</time>
      </trkpt>
      <trkpt lat="43.67867" lon="7.10734">
        <ele>28.3</ele>
        <time>2026-05-15T06:19:07Z</time>
      </trkpt>
      <trkpt lat="43.67858" lon="7.10738">
        <ele>27.9</ele>
        <time>2026-05-15T06:19:08Z</time>
      </trkpt>
      <trkpt lat="43.67849" lon="7.10743">
        <ele>27.7</ele>
        <time>2026-05-15T06:19:09Z</time>
      </trkpt>
      <trkpt lat="43.6784" lon="7.10749">
        <ele>27.3</ele>
        <time>2026-05-15T06:19:10Z</time>
      </trkpt>
      <trkpt lat="43.6783" lon="7.10756">
        <ele>27.2</ele>
        <time>2026-05-15T06:19:11Z</time>
      </trkpt>
      <trkpt lat="43.67821" lon="7.10764">
        <ele>27.1</ele>
        <time>2026-05-15T06:19:12Z</time>
      </trkpt>
      <trkpt lat="43.67811" lon="7.10771">
        <ele>26.5</ele>
        <time>2026-05-15T06:19:13Z</time>
      </trkpt>
      <trkpt lat="43.67802" lon="7.10778">
        <ele>25.9</ele>
        <time>2026-05-15T06:19:14Z</time>
      </trkpt>
      <trkpt lat="43.67793" lon="7.10784">
        <ele>25.9</ele>
        <time>2026-05-15T06:19:15Z</time>
      </trkpt>
      <trkpt lat="43.67784" lon="7.10791">
        <ele>25.8</ele>
        <time>2026-05-15T06:19:16Z</time>
      </trkpt>
      <trkpt lat="43.67775" lon="7.10797">
        <ele>25.6</ele>
        <time>2026-05-15T06:19:17Z</time>
      </trkpt>
      <trkpt lat="43.67767" lon="7.10804">
        <ele>25.6</ele>
        <time>2026-05-15T06:19:18Z</time>
      </trkpt>
      <trkpt lat="43.67758" lon="7.10811">
        <ele>25.5</ele>
        <time>2026-05-15T06:19:19Z</time>
      </trkpt>
      <trkpt lat="43.67749" lon="7.10818">
        <ele>25.4</ele>
        <time>2026-05-15T06:19:20Z</time>
      </trkpt>
      <trkpt lat="43.6774" lon="7.10826">
        <ele>25.1</ele>
        <time>2026-05-15T06:19:21Z</time>
      </trkpt>
      <trkpt lat="43.67732" lon="7.10834">
        <ele>24.7</ele>
        <time>2026-05-15T06:19:22Z</time>
      </trkpt>
      <trkpt lat="43.67724" lon="7.10842">
        <ele>24.4</ele>
        <time>2026-05-15T06:19:23Z</time>
      </trkpt>
      <trkpt lat="43.67717" lon="7.10849">
        <ele>24.5</ele>
        <time>2026-05-15T06:19:24Z</time>
      </trkpt>
      <trkpt lat="43.6771" lon="7.10856">
        <ele>24.5</ele>
        <time>2026-05-15T06:19:25Z</time>
      </trkpt>
      <trkpt lat="43.67704" lon="7.10862">
        <ele>24.3</ele>
        <time>2026-05-15T06:19:26Z</time>
      </trkpt>
      <trkpt lat="43.67696" lon="7.10869">
        <ele>24.1</ele>
        <time>2026-05-15T06:19:27Z</time>
      </trkpt>
      <trkpt lat="43.67688" lon="7.10876">
        <ele>23.8</ele>
        <time>2026-05-15T06:19:28Z</time>
      </trkpt>
      <trkpt lat="43.67679" lon="7.10883">
        <ele>23.4</ele>
        <time>2026-05-15T06:19:29Z</time>
      </trkpt>
      <trkpt lat="43.6767" lon="7.1089">
        <ele>23.1</ele>
        <time>2026-05-15T06:19:30Z</time>
      </trkpt>
      <trkpt lat="43.67661" lon="7.10896">
        <ele>22.8</ele>
        <time>2026-05-15T06:19:31Z</time>
      </trkpt>
      <trkpt lat="43.67651" lon="7.10902">
        <ele>22.4</ele>
        <time>2026-05-15T06:19:32Z</time>
      </trkpt>
      <trkpt lat="43.67641" lon="7.10907">
        <ele>22.1</ele>
        <time>2026-05-15T06:19:33Z</time>
      </trkpt>
      <trkpt lat="43.67632" lon="7.1091">
        <ele>21.8</ele>
        <time>2026-05-15T06:19:34Z</time>
      </trkpt>
      <trkpt lat="43.67622" lon="7.10913">
        <ele>21.5</ele>
        <time>2026-05-15T06:19:35Z</time>
      </trkpt>
      <trkpt lat="43.67612" lon="7.10916">
        <ele>21.1</ele>
        <time>2026-05-15T06:19:36Z</time>
      </trkpt>
      <trkpt lat="43.67602" lon="7.10919">
        <ele>21</ele>
        <time>2026-05-15T06:19:37Z</time>
      </trkpt>
      <trkpt lat="43.67592" lon="7.10922">
        <ele>20.9</ele>
        <time>2026-05-15T06:19:38Z</time>
      </trkpt>
      <trkpt lat="43.67582" lon="7.10926">
        <ele>20.7</ele>
        <time>2026-05-15T06:19:39Z</time>
      </trkpt>
      <trkpt lat="43.67574" lon="7.10929">
        <ele>20.6</ele>
        <time>2026-05-15T06:19:40Z</time>
      </trkpt>
      <trkpt lat="43.67568" lon="7.1093">
        <ele>20.5</ele>
        <time>2026-05-15T06:19:41Z</time>
      </trkpt>
      <trkpt lat="43.67564" lon="7.10932">
        <ele>20.4</ele>
        <time>2026-05-15T06:19:42Z</time>
      </trkpt>
      <trkpt lat="43.67559" lon="7.10932">
        <ele>20.4</ele>
        <time>2026-05-15T06:19:43Z</time>
      </trkpt>
      <trkpt lat="43.67555" lon="7.10933">
        <ele>20.4</ele>
        <time>2026-05-15T06:19:44Z</time>
      </trkpt>
      <trkpt lat="43.67551" lon="7.10934">
        <ele>20.3</ele>
        <time>2026-05-15T06:19:45Z</time>
      </trkpt>
      <trkpt lat="43.67547" lon="7.10934">
        <ele>20.3</ele>
        <time>2026-05-15T06:19:46Z</time>
      </trkpt>
      <trkpt lat="43.67544" lon="7.10934">
        <ele>20.2</ele>
        <time>2026-05-15T06:19:47Z</time>
      </trkpt>
      <trkpt lat="43.67541" lon="7.10934">
        <ele>20.2</ele>
        <time>2026-05-15T06:19:48Z</time>
      </trkpt>
      <trkpt lat="43.67537" lon="7.10933">
        <ele>20.1</ele>
        <time>2026-05-15T06:19:49Z</time>
      </trkpt>
      <trkpt lat="43.67532" lon="7.10932">
        <ele>20.1</ele>
        <time>2026-05-15T06:19:50Z</time>
      </trkpt>
      <trkpt lat="43.67527" lon="7.1093">
        <ele>20</ele>
        <time>2026-05-15T06:19:51Z</time>
      </trkpt>
      <trkpt lat="43.67522" lon="7.10929">
        <ele>19.8</ele>
        <time>2026-05-15T06:19:52Z</time>
      </trkpt>
      <trkpt lat="43.67518" lon="7.10928">
        <ele>19.6</ele>
        <time>2026-05-15T06:19:53Z</time>
      </trkpt>
      <trkpt lat="43.67514" lon="7.10928">
        <ele>19.5</ele>
        <time>2026-05-15T06:19:54Z</time>
      </trkpt>
      <trkpt lat="43.67509" lon="7.10927">
        <ele>19.3</ele>
        <time>2026-05-15T06:19:55Z</time>
      </trkpt>
      <trkpt lat="43.67505" lon="7.10927">
        <ele>19.2</ele>
        <time>2026-05-15T06:19:56Z</time>
      </trkpt>
      <trkpt lat="43.67502" lon="7.1093">
        <ele>19.1</ele>
        <time>2026-05-15T06:19:57Z</time>
      </trkpt>
      <trkpt lat="43.675" lon="7.10935">
        <ele>19</ele>
        <time>2026-05-15T06:19:58Z</time>
      </trkpt>
      <trkpt lat="43.675" lon="7.1094">
        <ele>19</ele>
        <time>2026-05-15T06:19:59Z</time>
      </trkpt>
      <trkpt lat="43.67503" lon="7.10944">
        <ele>19.1</ele>
        <time>2026-05-15T06:20:00Z</time>
      </trkpt>
      <trkpt lat="43.67507" lon="7.10945">
        <ele>19.3</ele>
        <time>2026-05-15T06:20:01Z</time>
      </trkpt>
      <trkpt lat="43.67512" lon="7.10945">
        <ele>19.4</ele>
        <time>2026-05-15T06:20:02Z</time>
      </trkpt>
      <trkpt lat="43.67515" lon="7.10948">
        <ele>19.5</ele>
        <time>2026-05-15T06:20:03Z</time>
      </trkpt>
      <trkpt lat="43.67519" lon="7.10953">
        <ele>19.7</ele>
        <time>2026-05-15T06:20:04Z</time>
      </trkpt>
      <trkpt lat="43.67522" lon="7.1096">
        <ele>19.8</ele>
        <time>2026-05-15T06:20:05Z</time>
      </trkpt>
      <trkpt lat="43.67526" lon="7.10969">
        <ele>19.9</ele>
        <time>2026-05-15T06:20:06Z</time>
      </trkpt>
      <trkpt lat="43.67532" lon="7.10979">
        <ele>19.8</ele>
        <time>2026-05-15T06:20:07Z</time>
      </trkpt>
      <trkpt lat="43.67538" lon="7.1099">
        <ele>19.6</ele>
        <time>2026-05-15T06:20:08Z</time>
      </trkpt>
      <trkpt lat="43.67544" lon="7.11002">
        <ele>19.6</ele>
        <time>2026-05-15T06:20:09Z</time>
      </trkpt>
      <trkpt lat="43.6755" lon="7.11012">
        <ele>20.1</ele>
        <time>2026-05-15T06:20:10Z</time>
      </trkpt>
      <trkpt lat="43.67557" lon="7.11023">
        <ele>20.9</ele>
        <time>2026-05-15T06:20:11Z</time>
      </trkpt>
      <trkpt lat="43.67563" lon="7.11033">
        <ele>21.3</ele>
        <time>2026-05-15T06:20:12Z</time>
      </trkpt>
      <trkpt lat="43.67568" lon="7.11042">
        <ele>21.7</ele>
        <time>2026-05-15T06:20:13Z</time>
      </trkpt>
      <trkpt lat="43.67572" lon="7.11051">
        <ele>22.1</ele>
        <time>2026-05-15T06:20:14Z</time>
      </trkpt>
      <trkpt lat="43.67575" lon="7.11059">
        <ele>22.5</ele>
        <time>2026-05-15T06:20:15Z</time>
      </trkpt>
      <trkpt lat="43.67579" lon="7.11067">
        <ele>23</ele>
        <time>2026-05-15T06:20:16Z</time>
      </trkpt>
      <trkpt lat="43.67583" lon="7.11076">
        <ele>23.7</ele>
        <time>2026-05-15T06:20:17Z</time>
      </trkpt>
      <trkpt lat="43.67587" lon="7.11084">
        <ele>24.5</ele>
        <time>2026-05-15T06:20:18Z</time>
      </trkpt>
      <trkpt lat="43.67591" lon="7.11093">
        <ele>25.1</ele>
        <time>2026-05-15T06:20:19Z</time>
      </trkpt>
      <trkpt lat="43.67595" lon="7.11102">
        <ele>26.1</ele>
        <time>2026-05-15T06:20:20Z</time>
      </trkpt>
      <trkpt lat="43.676" lon="7.11111">
        <ele>27.8</ele>
        <time>2026-05-15T06:20:21Z</time>
      </trkpt>
      <trkpt lat="43.67605" lon="7.11119">
        <ele>29</ele>
        <time>2026-05-15T06:20:22Z</time>
      </trkpt>
      <trkpt lat="43.67608" lon="7.11126">
        <ele>29.6</ele>
        <time>2026-05-15T06:20:23Z</time>
      </trkpt>
      <trkpt lat="43.67612" lon="7.11133">
        <ele>30.3</ele>
        <time>2026-05-15T06:20:24Z</time>
      </trkpt>
      <trkpt lat="43.67616" lon="7.11139">
        <ele>30.7</ele>
        <time>2026-05-15T06:20:25Z</time>
      </trkpt>
      <trkpt lat="43.67621" lon="7.11146">
        <ele>31.3</ele>
        <time>2026-05-15T06:20:26Z</time>
      </trkpt>
      <trkpt lat="43.67626" lon="7.11153">
        <ele>32.2</ele>
        <time>2026-05-15T06:20:27Z</time>
      </trkpt>
      <trkpt lat="43.67631" lon="7.1116">
        <ele>33.5</ele>
        <time>2026-05-15T06:20:28Z</time>
      </trkpt>
      <trkpt lat="43.67636" lon="7.11166">
        <ele>35.1</ele>
        <time>2026-05-15T06:20:29Z</time>
      </trkpt>
      <trkpt lat="43.67642" lon="7.11172">
        <ele>36.1</ele>
        <time>2026-05-15T06:20:30Z</time>
      </trkpt>
      <trkpt lat="43.67648" lon="7.11178">
        <ele>36.4</ele>
        <time>2026-05-15T06:20:31Z</time>
      </trkpt>
      <trkpt lat="43.67654" lon="7.11182">
        <ele>36.9</ele>
        <time>2026-05-15T06:20:32Z</time>
      </trkpt>
      <trkpt lat="43.6766" lon="7.11187">
        <ele>37.7</ele>
        <time>2026-05-15T06:20:33Z</time>
      </trkpt>
      <trkpt lat="43.67666" lon="7.11191">
        <ele>38.6</ele>
        <time>2026-05-15T06:20:34Z</time>
      </trkpt>
      <trkpt lat="43.67673" lon="7.11195">
        <ele>38.5</ele>
        <time>2026-05-15T06:20:35Z</time>
      </trkpt>
      <trkpt lat="43.6768" lon="7.11199">
        <ele>37.9</ele>
        <time>2026-05-15T06:20:36Z</time>
      </trkpt>
      <trkpt lat="43.67687" lon="7.11203">
        <ele>37.7</ele>
        <time>2026-05-15T06:20:37Z</time>
      </trkpt>
      <trkpt lat="43.67695" lon="7.11207">
        <ele>37.9</ele>
        <time>2026-05-15T06:20:38Z</time>
      </trkpt>
      <trkpt lat="43.67703" lon="7.1121">
        <ele>38.6</ele>
        <time>2026-05-15T06:20:39Z</time>
      </trkpt>
      <trkpt lat="43.67712" lon="7.11213">
        <ele>39.4</ele>
        <time>2026-05-15T06:20:40Z</time>
      </trkpt>
      <trkpt lat="43.67722" lon="7.11216">
        <ele>40.3</ele>
        <time>2026-05-15T06:20:41Z</time>
      </trkpt>
      <trkpt lat="43.67731" lon="7.11218">
        <ele>41.1</ele>
        <time>2026-05-15T06:20:42Z</time>
      </trkpt>
      <trkpt lat="43.67741" lon="7.1122">
        <ele>42.1</ele>
        <time>2026-05-15T06:20:43Z</time>
      </trkpt>
      <trkpt lat="43.6775" lon="7.11224">
        <ele>42.9</ele>
        <time>2026-05-15T06:20:44Z</time>
      </trkpt>
      <trkpt lat="43.67759" lon="7.11229">
        <ele>43.3</ele>
        <time>2026-05-15T06:20:45Z</time>
      </trkpt>
      <trkpt lat="43.67766" lon="7.11235">
        <ele>43.9</ele>
        <time>2026-05-15T06:20:46Z</time>
      </trkpt>
      <trkpt lat="43.67774" lon="7.11242">
        <ele>45</ele>
        <time>2026-05-15T06:20:47Z</time>
      </trkpt>
      <trkpt lat="43.6778" lon="7.11248">
        <ele>45.7</ele>
        <time>2026-05-15T06:20:48Z</time>
      </trkpt>
      <trkpt lat="43.67787" lon="7.11254">
        <ele>45.9</ele>
        <time>2026-05-15T06:20:49Z</time>
      </trkpt>
      <trkpt lat="43.67793" lon="7.1126">
        <ele>46.2</ele>
        <time>2026-05-15T06:20:50Z</time>
      </trkpt>
      <trkpt lat="43.67799" lon="7.11267">
        <ele>47.1</ele>
        <time>2026-05-15T06:20:51Z</time>
      </trkpt>
      <trkpt lat="43.67806" lon="7.11274">
        <ele>48.4</ele>
        <time>2026-05-15T06:20:52Z</time>
      </trkpt>
      <trkpt lat="43.67812" lon="7.11282">
        <ele>48.4</ele>
        <time>2026-05-15T06:20:53Z</time>
      </trkpt>
      <trkpt lat="43.67818" lon="7.1129">
        <ele>48.4</ele>
        <time>2026-05-15T06:20:54Z</time>
      </trkpt>
      <trkpt lat="43.67824" lon="7.11299">
        <ele>49.1</ele>
        <time>2026-05-15T06:20:55Z</time>
      </trkpt>
      <trkpt lat="43.67828" lon="7.11307">
        <ele>50.2</ele>
        <time>2026-05-15T06:20:56Z</time>
      </trkpt>
      <trkpt lat="43.67832" lon="7.11317">
        <ele>52</ele>
        <time>2026-05-15T06:20:57Z</time>
      </trkpt>
      <trkpt lat="43.67837" lon="7.11329">
        <ele>54.1</ele>
        <time>2026-05-15T06:20:58Z</time>
      </trkpt>
      <trkpt lat="43.67841" lon="7.11339">
        <ele>55.5</ele>
        <time>2026-05-15T06:20:59Z</time>
      </trkpt>
      <trkpt lat="43.67845" lon="7.11349">
        <ele>56.8</ele>
        <time>2026-05-15T06:21:00Z</time>
      </trkpt>
      <trkpt lat="43.67848" lon="7.11359">
        <ele>58.2</ele>
        <time>2026-05-15T06:21:01Z</time>
      </trkpt>
      <trkpt lat="43.67851" lon="7.11368">
        <ele>59.3</ele>
        <time>2026-05-15T06:21:02Z</time>
      </trkpt>
      <trkpt lat="43.67853" lon="7.11378">
        <ele>60.8</ele>
        <time>2026-05-15T06:21:03Z</time>
      </trkpt>
      <trkpt lat="43.67856" lon="7.11387">
        <ele>62.3</ele>
        <time>2026-05-15T06:21:04Z</time>
      </trkpt>
      <trkpt lat="43.6786" lon="7.11394">
        <ele>64.2</ele>
        <time>2026-05-15T06:21:05Z</time>
      </trkpt>
      <trkpt lat="43.67864" lon="7.11401">
        <ele>66.3</ele>
        <time>2026-05-15T06:21:06Z</time>
      </trkpt>
      <trkpt lat="43.67868" lon="7.11406">
        <ele>67.8</ele>
        <time>2026-05-15T06:21:07Z</time>
      </trkpt>
      <trkpt lat="43.67872" lon="7.1141">
        <ele>69</ele>
        <time>2026-05-15T06:21:08Z</time>
      </trkpt>
      <trkpt lat="43.67876" lon="7.11415">
        <ele>70.2</ele>
        <time>2026-05-15T06:21:09Z</time>
      </trkpt>
      <trkpt lat="43.67881" lon="7.11419">
        <ele>71.1</ele>
        <time>2026-05-15T06:21:10Z</time>
      </trkpt>
      <trkpt lat="43.67886" lon="7.11424">
        <ele>72</ele>
        <time>2026-05-15T06:21:11Z</time>
      </trkpt>
      <trkpt lat="43.67891" lon="7.11429">
        <ele>73.1</ele>
        <time>2026-05-15T06:21:12Z</time>
      </trkpt>
      <trkpt lat="43.67895" lon="7.11434">
        <ele>74.3</ele>
        <time>2026-05-15T06:21:13Z</time>
      </trkpt>
      <trkpt lat="43.679" lon="7.1144">
        <ele>75.7</ele>
        <time>2026-05-15T06:21:14Z</time>
      </trkpt>
      <trkpt lat="43.67906" lon="7.11446">
        <ele>77</ele>
        <time>2026-05-15T06:21:15Z</time>
      </trkpt>
      <trkpt lat="43.67912" lon="7.11452">
        <ele>78.3</ele>
        <time>2026-05-15T06:21:16Z</time>
      </trkpt>
      <trkpt lat="43.67917" lon="7.11459">
        <ele>79.6</ele>
        <time>2026-05-15T06:21:17Z</time>
      </trkpt>
      <trkpt lat="43.6792" lon="7.11463">
        <ele>80.2</ele>
        <time>2026-05-15T06:21:18Z</time>
      </trkpt>
      <trkpt lat="43.67924" lon="7.11467">
        <ele>81</ele>
        <time>2026-05-15T06:21:19Z</time>
      </trkpt>
      <trkpt lat="43.67928" lon="7.11472">
        <ele>81.8</ele>
        <time>2026-05-15T06:21:20Z</time>
      </trkpt>
      <trkpt lat="43.67933" lon="7.11477">
        <ele>82.5</ele>
        <time>2026-05-15T06:21:21Z</time>
      </trkpt>
      <trkpt lat="43.67938" lon="7.11484">
        <ele>83.4</ele>
        <time>2026-05-15T06:21:22Z</time>
      </trkpt>
      <trkpt lat="43.67943" lon="7.1149">
        <ele>84.2</ele>
        <time>2026-05-15T06:21:23Z</time>
      </trkpt>
      <trkpt lat="43.67949" lon="7.11496">
        <ele>85</ele>
        <time>2026-05-15T06:21:24Z</time>
      </trkpt>
      <trkpt lat="43.67954" lon="7.11502">
        <ele>85.8</ele>
        <time>2026-05-15T06:21:25Z</time>
      </trkpt>
      <trkpt lat="43.6796" lon="7.11507">
        <ele>86.5</ele>
        <time>2026-05-15T06:21:26Z</time>
      </trkpt>
      <trkpt lat="43.67966" lon="7.11512">
        <ele>87.1</ele>
        <time>2026-05-15T06:21:27Z</time>
      </trkpt>
      <trkpt lat="43.67972" lon="7.11516">
        <ele>87.6</ele>
        <time>2026-05-15T06:21:28Z</time>
      </trkpt>
      <trkpt lat="43.67979" lon="7.1152">
        <ele>88.2</ele>
        <time>2026-05-15T06:21:29Z</time>
      </trkpt>
      <trkpt lat="43.67984" lon="7.11526">
        <ele>88.8</ele>
        <time>2026-05-15T06:21:30Z</time>
      </trkpt>
      <trkpt lat="43.67987" lon="7.11532">
        <ele>89.1</ele>
        <time>2026-05-15T06:21:31Z</time>
      </trkpt>
      <trkpt lat="43.67988" lon="7.11537">
        <ele>89.1</ele>
        <time>2026-05-15T06:21:32Z</time>
      </trkpt>
      <trkpt lat="43.67988" lon="7.11543">
        <ele>89.1</ele>
        <time>2026-05-15T06:21:33Z</time>
      </trkpt>
      <trkpt lat="43.67989" lon="7.11547">
        <ele>89.1</ele>
        <time>2026-05-15T06:21:34Z</time>
      </trkpt>
      <trkpt lat="43.67989" lon="7.11552">
        <ele>89</ele>
        <time>2026-05-15T06:21:35Z</time>
      </trkpt>
      <trkpt lat="43.6799" lon="7.11559">
        <ele>88.9</ele>
        <time>2026-05-15T06:21:36Z</time>
      </trkpt>
      <trkpt lat="43.67991" lon="7.11565">
        <ele>88.7</ele>
        <time>2026-05-15T06:21:37Z</time>
      </trkpt>
      <trkpt lat="43.67991" lon="7.1157">
        <ele>88.5</ele>
        <time>2026-05-15T06:21:38Z</time>
      </trkpt>
      <trkpt lat="43.6799" lon="7.11574">
        <ele>88.3</ele>
        <time>2026-05-15T06:21:39Z</time>
      </trkpt>
      <trkpt lat="43.67987" lon="7.11578">
        <ele>88.2</ele>
        <time>2026-05-15T06:21:40Z</time>
      </trkpt>
      <trkpt lat="43.67983" lon="7.11582">
        <ele>88</ele>
        <time>2026-05-15T06:21:41Z</time>
      </trkpt>
      <trkpt lat="43.67977" lon="7.11588">
        <ele>87.7</ele>
        <time>2026-05-15T06:21:42Z</time>
      </trkpt>
      <trkpt lat="43.67971" lon="7.11594">
        <ele>87.7</ele>
        <time>2026-05-15T06:21:43Z</time>
      </trkpt>
      <trkpt lat="43.67964" lon="7.11601">
        <ele>87.7</ele>
        <time>2026-05-15T06:21:44Z</time>
      </trkpt>
      <trkpt lat="43.67957" lon="7.11608">
        <ele>87.7</ele>
        <time>2026-05-15T06:21:45Z</time>
      </trkpt>
      <trkpt lat="43.6795" lon="7.11616">
        <ele>87.4</ele>
        <time>2026-05-15T06:21:46Z</time>
      </trkpt>
      <trkpt lat="43.67941" lon="7.11624">
        <ele>87.3</ele>
        <time>2026-05-15T06:21:47Z</time>
      </trkpt>
      <trkpt lat="43.67933" lon="7.11632">
        <ele>87.2</ele>
        <time>2026-05-15T06:21:48Z</time>
      </trkpt>
      <trkpt lat="43.67925" lon="7.1164">
        <ele>87.3</ele>
        <time>2026-05-15T06:21:49Z</time>
      </trkpt>
      <trkpt lat="43.67917" lon="7.11648">
        <ele>87</ele>
        <time>2026-05-15T06:21:50Z</time>
      </trkpt>
      <trkpt lat="43.67909" lon="7.11656">
        <ele>86.7</ele>
        <time>2026-05-15T06:21:51Z</time>
      </trkpt>
      <trkpt lat="43.67901" lon="7.11664">
        <ele>86.8</ele>
        <time>2026-05-15T06:21:52Z</time>
      </trkpt>
      <trkpt lat="43.67894" lon="7.11673">
        <ele>86.9</ele>
        <time>2026-05-15T06:21:53Z</time>
      </trkpt>
      <trkpt lat="43.67886" lon="7.11682">
        <ele>87</ele>
        <time>2026-05-15T06:21:54Z</time>
      </trkpt>
      <trkpt lat="43.67877" lon="7.11692">
        <ele>86.6</ele>
        <time>2026-05-15T06:21:55Z</time>
      </trkpt>
      <trkpt lat="43.67867" lon="7.11702">
        <ele>86.2</ele>
        <time>2026-05-15T06:21:56Z</time>
      </trkpt>
      <trkpt lat="43.67857" lon="7.11713">
        <ele>85.7</ele>
        <time>2026-05-15T06:21:57Z</time>
      </trkpt>
      <trkpt lat="43.67848" lon="7.11723">
        <ele>85</ele>
        <time>2026-05-15T06:21:58Z</time>
      </trkpt>
      <trkpt lat="43.67839" lon="7.11734">
        <ele>84.5</ele>
        <time>2026-05-15T06:21:59Z</time>
      </trkpt>
      <trkpt lat="43.67829" lon="7.11744">
        <ele>84.5</ele>
        <time>2026-05-15T06:22:00Z</time>
      </trkpt>
      <trkpt lat="43.6782" lon="7.11754">
        <ele>84.7</ele>
        <time>2026-05-15T06:22:01Z</time>
      </trkpt>
      <trkpt lat="43.6781" lon="7.11764">
        <ele>84.3</ele>
        <time>2026-05-15T06:22:02Z</time>
      </trkpt>
      <trkpt lat="43.678" lon="7.11775">
        <ele>83.7</ele>
        <time>2026-05-15T06:22:03Z</time>
      </trkpt>
      <trkpt lat="43.67791" lon="7.11785">
        <ele>83.5</ele>
        <time>2026-05-15T06:22:04Z</time>
      </trkpt>
      <trkpt lat="43.67782" lon="7.11793">
        <ele>83.2</ele>
        <time>2026-05-15T06:22:05Z</time>
      </trkpt>
      <trkpt lat="43.67774" lon="7.11801">
        <ele>82.6</ele>
        <time>2026-05-15T06:22:06Z</time>
      </trkpt>
      <trkpt lat="43.67765" lon="7.11808">
        <ele>82.2</ele>
        <time>2026-05-15T06:22:07Z</time>
      </trkpt>
      <trkpt lat="43.67756" lon="7.11815">
        <ele>82</ele>
        <time>2026-05-15T06:22:08Z</time>
      </trkpt>
      <trkpt lat="43.67747" lon="7.11822">
        <ele>81.8</ele>
        <time>2026-05-15T06:22:09Z</time>
      </trkpt>
      <trkpt lat="43.67737" lon="7.11829">
        <ele>81.3</ele>
        <time>2026-05-15T06:22:10Z</time>
      </trkpt>
      <trkpt lat="43.67727" lon="7.11836">
        <ele>81</ele>
        <time>2026-05-15T06:22:11Z</time>
      </trkpt>
      <trkpt lat="43.67717" lon="7.11844">
        <ele>81</ele>
        <time>2026-05-15T06:22:12Z</time>
      </trkpt>
      <trkpt lat="43.67707" lon="7.11852">
        <ele>80.4</ele>
        <time>2026-05-15T06:22:13Z</time>
      </trkpt>
      <trkpt lat="43.67697" lon="7.11859">
        <ele>79.4</ele>
        <time>2026-05-15T06:22:14Z</time>
      </trkpt>
      <trkpt lat="43.67688" lon="7.11866">
        <ele>79.4</ele>
        <time>2026-05-15T06:22:15Z</time>
      </trkpt>
      <trkpt lat="43.67679" lon="7.11872">
        <ele>79.3</ele>
        <time>2026-05-15T06:22:16Z</time>
      </trkpt>
      <trkpt lat="43.6767" lon="7.11877">
        <ele>78.7</ele>
        <time>2026-05-15T06:22:17Z</time>
      </trkpt>
      <trkpt lat="43.67661" lon="7.11881">
        <ele>77.9</ele>
        <time>2026-05-15T06:22:18Z</time>
      </trkpt>
      <trkpt lat="43.67652" lon="7.11884">
        <ele>77.2</ele>
        <time>2026-05-15T06:22:19Z</time>
      </trkpt>
      <trkpt lat="43.67642" lon="7.11886">
        <ele>76.4</ele>
        <time>2026-05-15T06:22:20Z</time>
      </trkpt>
      <trkpt lat="43.67633" lon="7.11888">
        <ele>75.6</ele>
        <time>2026-05-15T06:22:21Z</time>
      </trkpt>
      <trkpt lat="43.67624" lon="7.1189">
        <ele>75</ele>
        <time>2026-05-15T06:22:22Z</time>
      </trkpt>
      <trkpt lat="43.67615" lon="7.1189">
        <ele>74.4</ele>
        <time>2026-05-15T06:22:23Z</time>
      </trkpt>
      <trkpt lat="43.67609" lon="7.11891">
        <ele>74.1</ele>
        <time>2026-05-15T06:22:24Z</time>
      </trkpt>
      <trkpt lat="43.67604" lon="7.11892">
        <ele>74.2</ele>
        <time>2026-05-15T06:22:25Z</time>
      </trkpt>
      <trkpt lat="43.67599" lon="7.11893">
        <ele>74.2</ele>
        <time>2026-05-15T06:22:26Z</time>
      </trkpt>
      <trkpt lat="43.67594" lon="7.11893">
        <ele>74.1</ele>
        <time>2026-05-15T06:22:27Z</time>
      </trkpt>
      <trkpt lat="43.6759" lon="7.11894">
        <ele>74.1</ele>
        <time>2026-05-15T06:22:28Z</time>
      </trkpt>
      <trkpt lat="43.67585" lon="7.11894">
        <ele>74</ele>
        <time>2026-05-15T06:22:29Z</time>
      </trkpt>
      <trkpt lat="43.67581" lon="7.11896">
        <ele>73.8</ele>
        <time>2026-05-15T06:22:30Z</time>
      </trkpt>
      <trkpt lat="43.67576" lon="7.11897">
        <ele>73.5</ele>
        <time>2026-05-15T06:22:31Z</time>
      </trkpt>
      <trkpt lat="43.6757" lon="7.11898">
        <ele>73</ele>
        <time>2026-05-15T06:22:32Z</time>
      </trkpt>
      <trkpt lat="43.67567" lon="7.11898">
        <ele>72.8</ele>
        <time>2026-05-15T06:22:33Z</time>
      </trkpt>
      <trkpt lat="43.67563" lon="7.11899">
        <ele>72.5</ele>
        <time>2026-05-15T06:22:34Z</time>
      </trkpt>
      <trkpt lat="43.6756" lon="7.11901">
        <ele>72.3</ele>
        <time>2026-05-15T06:22:35Z</time>
      </trkpt>
      <trkpt lat="43.67557" lon="7.11906">
        <ele>72.1</ele>
        <time>2026-05-15T06:22:36Z</time>
      </trkpt>
      <trkpt lat="43.67555" lon="7.11914">
        <ele>72</ele>
        <time>2026-05-15T06:22:37Z</time>
      </trkpt>
      <trkpt lat="43.67553" lon="7.11921">
        <ele>71.7</ele>
        <time>2026-05-15T06:22:38Z</time>
      </trkpt>
      <trkpt lat="43.6755" lon="7.11928">
        <ele>71.3</ele>
        <time>2026-05-15T06:22:39Z</time>
      </trkpt>
      <trkpt lat="43.67548" lon="7.11934">
        <ele>70.9</ele>
        <time>2026-05-15T06:22:40Z</time>
      </trkpt>
      <trkpt lat="43.67546" lon="7.11941">
        <ele>70.5</ele>
        <time>2026-05-15T06:22:41Z</time>
      </trkpt>
      <trkpt lat="43.67544" lon="7.11948">
        <ele>69.8</ele>
        <time>2026-05-15T06:22:42Z</time>
      </trkpt>
      <trkpt lat="43.67543" lon="7.11956">
        <ele>69</ele>
        <time>2026-05-15T06:22:43Z</time>
      </trkpt>
      <trkpt lat="43.67542" lon="7.11963">
        <ele>68.3</ele>
        <time>2026-05-15T06:22:44Z</time>
      </trkpt>
      <trkpt lat="43.6754" lon="7.11971">
        <ele>67.5</ele>
        <time>2026-05-15T06:22:45Z</time>
      </trkpt>
      <trkpt lat="43.67538" lon="7.11978">
        <ele>67.1</ele>
        <time>2026-05-15T06:22:46Z</time>
      </trkpt>
      <trkpt lat="43.67537" lon="7.11985">
        <ele>66.7</ele>
        <time>2026-05-15T06:22:47Z</time>
      </trkpt>
      <trkpt lat="43.67534" lon="7.11992">
        <ele>66.1</ele>
        <time>2026-05-15T06:22:48Z</time>
      </trkpt>
      <trkpt lat="43.6753" lon="7.11999">
        <ele>65.3</ele>
        <time>2026-05-15T06:22:49Z</time>
      </trkpt>
      <trkpt lat="43.67527" lon="7.12007">
        <ele>64.2</ele>
        <time>2026-05-15T06:22:50Z</time>
      </trkpt>
      <trkpt lat="43.67523" lon="7.12014">
        <ele>63.1</ele>
        <time>2026-05-15T06:22:51Z</time>
      </trkpt>
      <trkpt lat="43.67519" lon="7.12022">
        <ele>61.9</ele>
        <time>2026-05-15T06:22:52Z</time>
      </trkpt>
      <trkpt lat="43.67513" lon="7.1203">
        <ele>60.9</ele>
        <time>2026-05-15T06:22:53Z</time>
      </trkpt>
      <trkpt lat="43.67508" lon="7.12037">
        <ele>60.5</ele>
        <time>2026-05-15T06:22:54Z</time>
      </trkpt>
      <trkpt lat="43.67502" lon="7.12044">
        <ele>60.1</ele>
        <time>2026-05-15T06:22:55Z</time>
      </trkpt>
      <trkpt lat="43.67496" lon="7.12051">
        <ele>59.3</ele>
        <time>2026-05-15T06:22:56Z</time>
      </trkpt>
      <trkpt lat="43.67491" lon="7.12058">
        <ele>58.4</ele>
        <time>2026-05-15T06:22:57Z</time>
      </trkpt>
      <trkpt lat="43.67485" lon="7.12067">
        <ele>56.8</ele>
        <time>2026-05-15T06:22:58Z</time>
      </trkpt>
      <trkpt lat="43.67481" lon="7.12076">
        <ele>55</ele>
        <time>2026-05-15T06:22:59Z</time>
      </trkpt>
      <trkpt lat="43.67475" lon="7.12085">
        <ele>52.3</ele>
        <time>2026-05-15T06:23:00Z</time>
      </trkpt>
      <trkpt lat="43.6747" lon="7.12093">
        <ele>52.2</ele>
        <time>2026-05-15T06:23:01Z</time>
      </trkpt>
      <trkpt lat="43.67466" lon="7.12101">
        <ele>52.6</ele>
        <time>2026-05-15T06:23:02Z</time>
      </trkpt>
      <trkpt lat="43.67462" lon="7.1211">
        <ele>52.4</ele>
        <time>2026-05-15T06:23:03Z</time>
      </trkpt>
      <trkpt lat="43.67457" lon="7.12118">
        <ele>50.6</ele>
        <time>2026-05-15T06:23:04Z</time>
      </trkpt>
      <trkpt lat="43.67452" lon="7.12126">
        <ele>48.6</ele>
        <time>2026-05-15T06:23:05Z</time>
      </trkpt>
      <trkpt lat="43.67447" lon="7.12134">
        <ele>46.3</ele>
        <time>2026-05-15T06:23:06Z</time>
      </trkpt>
      <trkpt lat="43.67442" lon="7.12143">
        <ele>44.9</ele>
        <time>2026-05-15T06:23:07Z</time>
      </trkpt>
      <trkpt lat="43.67437" lon="7.1215">
        <ele>44.6</ele>
        <time>2026-05-15T06:23:08Z</time>
      </trkpt>
      <trkpt lat="43.67432" lon="7.12157">
        <ele>44.3</ele>
        <time>2026-05-15T06:23:09Z</time>
      </trkpt>
      <trkpt lat="43.67427" lon="7.12163">
        <ele>44</ele>
        <time>2026-05-15T06:23:10Z</time>
      </trkpt>
      <trkpt lat="43.67423" lon="7.12171">
        <ele>43.3</ele>
        <time>2026-05-15T06:23:11Z</time>
      </trkpt>
      <trkpt lat="43.67419" lon="7.12178">
        <ele>42.4</ele>
        <time>2026-05-15T06:23:12Z</time>
      </trkpt>
      <trkpt lat="43.67415" lon="7.12184">
        <ele>41.6</ele>
        <time>2026-05-15T06:23:13Z</time>
      </trkpt>
      <trkpt lat="43.67411" lon="7.1219">
        <ele>41</ele>
        <time>2026-05-15T06:23:14Z</time>
      </trkpt>
      <trkpt lat="43.67408" lon="7.12195">
        <ele>40.6</ele>
        <time>2026-05-15T06:23:15Z</time>
      </trkpt>
      <trkpt lat="43.67407" lon="7.12197">
        <ele>40.5</ele>
        <time>2026-05-15T06:23:16Z</time>
      </trkpt>
      <trkpt lat="43.67406" lon="7.122">
        <ele>40.3</ele>
        <time>2026-05-15T06:23:17Z</time>
      </trkpt>
      <trkpt lat="43.67405" lon="7.12202">
        <ele>40.2</ele>
        <time>2026-05-15T06:23:18Z</time>
      </trkpt>
      <trkpt lat="43.67404" lon="7.12204">
        <ele>40.1</ele>
        <time>2026-05-15T06:23:19Z</time>
      </trkpt>
      <trkpt lat="43.67403" lon="7.12205">
        <ele>40</ele>
        <time>2026-05-15T06:23:20Z</time>
      </trkpt>
      <trkpt lat="43.67402" lon="7.12208">
        <ele>39.8</ele>
        <time>2026-05-15T06:23:21Z</time>
      </trkpt>
      <trkpt lat="43.67401" lon="7.1221">
        <ele>39.7</ele>
        <time>2026-05-15T06:23:22Z</time>
      </trkpt>
      <trkpt lat="43.67401" lon="7.12212">
        <ele>39.5</ele>
        <time>2026-05-15T06:23:23Z</time>
      </trkpt>
      <trkpt lat="43.674" lon="7.12212">
        <ele>39.6</ele>
        <time>2026-05-15T06:23:24Z</time>
      </trkpt>
      <trkpt lat="43.67401" lon="7.12212">
        <ele>39.5</ele>
        <time>2026-05-15T06:23:25Z</time>
      </trkpt>
      <trkpt lat="43.67401" lon="7.12212">
        <ele>39.5</ele>
        <time>2026-05-15T06:23:26Z</time>
      </trkpt>
      <trkpt lat="43.67401" lon="7.12212">
        <ele>39.5</ele>
        <time>2026-05-15T06:23:27Z</time>
      </trkpt>
      <trkpt lat="43.67401" lon="7.12212">
        <ele>39.5</ele>
        <time>2026-05-15T06:23:28Z</time>
      </trkpt>
      <trkpt lat="43.67402" lon="7.12213">
        <ele>39.4</ele>
        <time>2026-05-15T06:23:29Z</time>
      </trkpt>
      <trkpt lat="43.67402" lon="7.12213">
        <ele>39.4</ele>
        <time>2026-05-15T06:23:30Z</time>
      </trkpt>
      <trkpt lat="43.67402" lon="7.12213">
        <ele>39.4</ele>
        <time>2026-05-15T06:23:31Z</time>
      </trkpt>
      <trkpt lat="43.67402" lon="7.12213">
        <ele>39.4</ele>
        <time>2026-05-15T06:23:32Z</time>
      </trkpt>
      <trkpt lat="43.67402" lon="7.12213">
        <ele>39.4</ele>
        <time>2026-05-15T06:23:33Z</time>
      </trkpt>
      <trkpt lat="43.67402" lon="7.12214">
        <ele>39.3</ele>
        <time>2026-05-15T06:23:34Z</time>
      </trkpt>
      <trkpt lat="43.67402" lon="7.12214">
        <ele>39.3</ele>
        <time>2026-05-15T06:23:35Z</time>
      </trkpt>
      <trkpt lat="43.67402" lon="7.12214">
        <ele>39.3</ele>
        <time>2026-05-15T06:23:36Z</time>
      </trkpt>
      <trkpt lat="43.67402" lon="7.12214">
        <ele>39.3</ele>
        <time>2026-05-15T06:23:37Z</time>
      </trkpt>
      <trkpt lat="43.67402" lon="7.12214">
        <ele>39.3</ele>
        <time>2026-05-15T06:23:38Z</time>
      </trkpt>
      <trkpt lat="43.67402" lon="7.12214">
        <ele>39.3</ele>
        <time>2026-05-15T06:23:39Z</time>
      </trkpt>
      <trkpt lat="43.67402" lon="7.12214">
        <ele>39.3</ele>
        <time>2026-05-15T06:23:40Z</time>
      </trkpt>
      <trkpt lat="43.67402" lon="7.12214">
        <ele>39.3</ele>
        <time>2026-05-15T06:23:41Z</time>
      </trkpt>
      <trkpt lat="43.67402" lon="7.12214">
        <ele>39.3</ele>
        <time>2026-05-15T06:23:42Z</time>
      </trkpt>
      <trkpt lat="43.67402" lon="7.12214">
        <ele>39.3</ele>
        <time>2026-05-15T06:23:43Z</time>
      </trkpt>
      <trkpt lat="43.67402" lon="7.12214">
        <ele>39.3</ele>
        <time>2026-05-15T06:23:44Z</time>
      </trkpt>
      <trkpt lat="43.67402" lon="7.12214">
        <ele>39.3</ele>
        <time>2026-05-15T06:23:45Z</time>
      </trkpt>
      <trkpt lat="43.67402" lon="7.12214">
        <ele>39.3</ele>
        <time>2026-05-15T06:23:46Z</time>
      </trkpt>
      <trkpt lat="43.67402" lon="7.12214">
        <ele>39.3</ele>
        <time>2026-05-15T06:23:47Z</time>
      </trkpt>
      <trkpt lat="43.67401" lon="7.12216">
        <ele>39.1</ele>
        <time>2026-05-15T06:23:48Z</time>
      </trkpt>
      <trkpt lat="43.674" lon="7.12219">
        <ele>38.9</ele>
        <time>2026-05-15T06:23:49Z</time>
      </trkpt>
      <trkpt lat="43.67399" lon="7.12223">
        <ele>38.6</ele>
        <time>2026-05-15T06:23:50Z</time>
      </trkpt>
      <trkpt lat="43.67397" lon="7.12227">
        <ele>38.4</ele>
        <time>2026-05-15T06:23:51Z</time>
      </trkpt>
      <trkpt lat="43.67396" lon="7.12232">
        <ele>38.1</ele>
        <time>2026-05-15T06:23:52Z</time>
      </trkpt>
      <trkpt lat="43.67394" lon="7.12236">
        <ele>37.9</ele>
        <time>2026-05-15T06:23:53Z</time>
      </trkpt>
      <trkpt lat="43.67394" lon="7.12242">
        <ele>37.5</ele>
        <time>2026-05-15T06:23:54Z</time>
      </trkpt>
      <trkpt lat="43.67393" lon="7.12247">
        <ele>37.2</ele>
        <time>2026-05-15T06:23:55Z</time>
      </trkpt>
      <trkpt lat="43.67393" lon="7.12252">
        <ele>37</ele>
        <time>2026-05-15T06:23:56Z</time>
      </trkpt>
      <trkpt lat="43.67393" lon="7.12256">
        <ele>37</ele>
        <time>2026-05-15T06:23:57Z</time>
      </trkpt>
      <trkpt lat="43.67393" lon="7.1226">
        <ele>37</ele>
        <time>2026-05-15T06:23:58Z</time>
      </trkpt>
      <trkpt lat="43.67392" lon="7.12264">
        <ele>37</ele>
        <time>2026-05-15T06:23:59Z</time>
      </trkpt>
      <trkpt lat="43.67389" lon="7.12266">
        <ele>37</ele>
        <time>2026-05-15T06:24:00Z</time>
      </trkpt>
      <trkpt lat="43.67386" lon="7.12268">
        <ele>36.9</ele>
        <time>2026-05-15T06:24:01Z</time>
      </trkpt>
      <trkpt lat="43.67383" lon="7.12269">
        <ele>36.9</ele>
        <time>2026-05-15T06:24:02Z</time>
      </trkpt>
      <trkpt lat="43.6738" lon="7.12269">
        <ele>36.8</ele>
        <time>2026-05-15T06:24:03Z</time>
      </trkpt>
      <trkpt lat="43.67376" lon="7.12269">
        <ele>36.7</ele>
        <time>2026-05-15T06:24:04Z</time>
      </trkpt>
      <trkpt lat="43.67373" lon="7.12268">
        <ele>36.6</ele>
        <time>2026-05-15T06:24:05Z</time>
      </trkpt>
      <trkpt lat="43.67369" lon="7.12268">
        <ele>36.5</ele>
        <time>2026-05-15T06:24:06Z</time>
      </trkpt>
      <trkpt lat="43.67365" lon="7.12268">
        <ele>36.4</ele>
        <time>2026-05-15T06:24:07Z</time>
      </trkpt>
      <trkpt lat="43.6736" lon="7.12268">
        <ele>36.4</ele>
        <time>2026-05-15T06:24:08Z</time>
      </trkpt>
      <trkpt lat="43.67356" lon="7.12267">
        <ele>36.4</ele>
        <time>2026-05-15T06:24:09Z</time>
      </trkpt>
      <trkpt lat="43.67352" lon="7.12267">
        <ele>36.4</ele>
        <time>2026-05-15T06:24:10Z</time>
      </trkpt>
      <trkpt lat="43.67349" lon="7.12268">
        <ele>36.4</ele>
        <time>2026-05-15T06:24:11Z</time>
      </trkpt>
      <trkpt lat="43.67346" lon="7.12269">
        <ele>36.3</ele>
        <time>2026-05-15T06:24:12Z</time>
      </trkpt>
      <trkpt lat="43.67343" lon="7.12272">
        <ele>36.2</ele>
        <time>2026-05-15T06:24:13Z</time>
      </trkpt>
      <trkpt lat="43.67342" lon="7.12276">
        <ele>36.1</ele>
        <time>2026-05-15T06:24:14Z</time>
      </trkpt>
      <trkpt lat="43.67341" lon="7.12281">
        <ele>35.9</ele>
        <time>2026-05-15T06:24:15Z</time>
      </trkpt>
      <trkpt lat="43.67342" lon="7.12285">
        <ele>35.7</ele>
        <time>2026-05-15T06:24:16Z</time>
      </trkpt>
      <trkpt lat="43.67342" lon="7.1229">
        <ele>35.6</ele>
        <time>2026-05-15T06:24:17Z</time>
      </trkpt>
      <trkpt lat="43.67343" lon="7.12295">
        <ele>35.4</ele>
        <time>2026-05-15T06:24:18Z</time>
      </trkpt>
      <trkpt lat="43.67344" lon="7.12301">
        <ele>35.2</ele>
        <time>2026-05-15T06:24:19Z</time>
      </trkpt>
      <trkpt lat="43.67344" lon="7.12307">
        <ele>35</ele>
        <time>2026-05-15T06:24:20Z</time>
      </trkpt>
      <trkpt lat="43.67345" lon="7.12312">
        <ele>35.1</ele>
        <time>2026-05-15T06:24:21Z</time>
      </trkpt>
      <trkpt lat="43.67346" lon="7.12317">
        <ele>35.2</ele>
        <time>2026-05-15T06:24:22Z</time>
      </trkpt>
      <trkpt lat="43.67347" lon="7.12322">
        <ele>35.3</ele>
        <time>2026-05-15T06:24:23Z</time>
      </trkpt>
      <trkpt lat="43.67348" lon="7.12326">
        <ele>35.4</ele>
        <time>2026-05-15T06:24:24Z</time>
      </trkpt>
      <trkpt lat="43.6735" lon="7.12329">
        <ele>35.5</ele>
        <time>2026-05-15T06:24:25Z</time>
      </trkpt>
      <trkpt lat="43.67353" lon="7.12331">
        <ele>35.6</ele>
        <time>2026-05-15T06:24:26Z</time>
      </trkpt>
      <trkpt lat="43.67356" lon="7.12332">
        <ele>35.8</ele>
        <time>2026-05-15T06:24:27Z</time>
      </trkpt>
      <trkpt lat="43.6736" lon="7.1233">
        <ele>35.8</ele>
        <time>2026-05-15T06:24:28Z</time>
      </trkpt>
      <trkpt lat="43.67364" lon="7.12328">
        <ele>35.8</ele>
        <time>2026-05-15T06:24:29Z</time>
      </trkpt>
      <trkpt lat="43.67367" lon="7.12326">
        <ele>35.8</ele>
        <time>2026-05-15T06:24:30Z</time>
      </trkpt>
      <trkpt lat="43.6737" lon="7.12324">
        <ele>35.8</ele>
        <time>2026-05-15T06:24:31Z</time>
      </trkpt>
      <trkpt lat="43.67372" lon="7.12322">
        <ele>35.8</ele>
        <time>2026-05-15T06:24:32Z</time>
      </trkpt>
      <trkpt lat="43.67373" lon="7.1232">
        <ele>35.7</ele>
        <time>2026-05-15T06:24:33Z</time>
      </trkpt>
      <trkpt lat="43.67374" lon="7.12317">
        <ele>35.7</ele>
        <time>2026-05-15T06:24:34Z</time>
      </trkpt>
      <trkpt lat="43.67374" lon="7.12314">
        <ele>35.6</ele>
        <time>2026-05-15T06:24:35Z</time>
      </trkpt>
      <trkpt lat="43.67374" lon="7.12311">
        <ele>35.6</ele>
        <time>2026-05-15T06:24:36Z</time>
      </trkpt>
      <trkpt lat="43.67374" lon="7.12308">
        <ele>35.5</ele>
        <time>2026-05-15T06:24:37Z</time>
      </trkpt>
      <trkpt lat="43.67373" lon="7.12306">
        <ele>35.4</ele>
        <time>2026-05-15T06:24:38Z</time>
      </trkpt>
      <trkpt lat="43.67372" lon="7.12303">
        <ele>35.5</ele>
        <time>2026-05-15T06:24:39Z</time>
      </trkpt>
      <trkpt lat="43.67371" lon="7.12302">
        <ele>35.5</ele>
        <time>2026-05-15T06:24:40Z</time>
      </trkpt>
      <trkpt lat="43.67371" lon="7.12302">
        <ele>35.5</ele>
        <time>2026-05-15T06:24:41Z</time>
      </trkpt>
      <trkpt lat="43.67371" lon="7.12302">
        <ele>35.5</ele>
        <time>2026-05-15T06:24:42Z</time>
      </trkpt>
      <trkpt lat="43.67371" lon="7.12303">
        <ele>35.4</ele>
        <time>2026-05-15T06:24:43Z</time>
      </trkpt>
      <trkpt lat="43.67371" lon="7.12303">
        <ele>35.4</ele>
        <time>2026-05-15T06:24:44Z</time>
      </trkpt>
      <trkpt lat="43.67371" lon="7.12303">
        <ele>35.4</ele>
        <time>2026-05-15T06:24:45Z</time>
      </trkpt>
      <trkpt lat="43.67371" lon="7.12304">
        <ele>35.4</ele>
        <time>2026-05-15T06:24:46Z</time>
      </trkpt>
      <trkpt lat="43.67371" lon="7.12304">
        <ele>35.4</ele>
        <time>2026-05-15T06:24:47Z</time>
      </trkpt>
      <trkpt lat="43.6737" lon="7.12304">
        <ele>35.4</ele>
        <time>2026-05-15T06:24:48Z</time>
      </trkpt>
      <trkpt lat="43.6737" lon="7.12303">
        <ele>35.4</ele>
        <time>2026-05-15T06:24:49Z</time>
      </trkpt>
      <trkpt lat="43.67369" lon="7.12303">
        <ele>35.4</ele>
        <time>2026-05-15T06:24:50Z</time>
      </trkpt>
      <trkpt lat="43.67367" lon="7.12301">
        <ele>35.4</ele>
        <time>2026-05-15T06:24:51Z</time>
      </trkpt>
      <trkpt lat="43.67367" lon="7.123">
        <ele>35.4</ele>
        <time>2026-05-15T06:24:52Z</time>
      </trkpt>
      <trkpt lat="43.67366" lon="7.12299">
        <ele>35.4</ele>
        <time>2026-05-15T06:24:53Z</time>
      </trkpt>
      <trkpt lat="43.67367" lon="7.12299">
        <ele>35.4</ele>
        <time>2026-05-15T06:24:54Z</time>
      </trkpt>
      <trkpt lat="43.67367" lon="7.12299">
        <ele>35.4</ele>
        <time>2026-05-15T06:24:55Z</time>
      </trkpt>
      <trkpt lat="43.67367" lon="7.123">
        <ele>35.4</ele>
        <time>2026-05-15T06:24:56Z</time>
      </trkpt>
      <trkpt lat="43.67367" lon="7.123">
        <ele>35.4</ele>
        <time>2026-05-15T06:24:57Z</time>
      </trkpt>
      <trkpt lat="43.67367" lon="7.123">
        <ele>35.4</ele>
        <time>2026-05-15T06:24:58Z</time>
      </trkpt>
      <trkpt lat="43.67367" lon="7.123">
        <ele>35.4</ele>
        <time>2026-05-15T06:24:59Z</time>
      </trkpt>
      <trkpt lat="43.67367" lon="7.123">
        <ele>35.4</ele>
        <time>2026-05-15T06:25:00Z</time>
      </trkpt>
      <trkpt lat="43.67367" lon="7.123">
        <ele>35.4</ele>
        <time>2026-05-15T06:25:01Z</time>
      </trkpt>
      <trkpt lat="43.67367" lon="7.123">
        <ele>35.4</ele>
        <time>2026-05-15T06:25:02Z</time>
      </trkpt>
      <trkpt lat="43.67367" lon="7.123">
        <ele>35.4</ele>
        <time>2026-05-15T06:25:03Z</time>
      </trkpt>
      <trkpt lat="43.67367" lon="7.12301">
        <ele>35.4</ele>
        <time>2026-05-15T06:25:04Z</time>
      </trkpt>
      <trkpt lat="43.67367" lon="7.12301">
        <ele>35.4</ele>
        <time>2026-05-15T06:25:05Z</time>
      </trkpt>
      <trkpt lat="43.67367" lon="7.12301">
        <ele>35.4</ele>
        <time>2026-05-15T06:25:06Z</time>
      </trkpt>
      <trkpt lat="43.67367" lon="7.12301">
        <ele>35.4</ele>
        <time>2026-05-15T06:25:07Z</time>
      </trkpt>
      <trkpt lat="43.67366" lon="7.12301">
        <ele>35.3</ele>
        <time>2026-05-15T06:25:08Z</time>
      </trkpt>
      <trkpt lat="43.67366" lon="7.12301">
        <ele>35.3</ele>
        <time>2026-05-15T06:25:09Z</time>
      </trkpt>
      <trkpt lat="43.67366" lon="7.12301">
        <ele>35.3</ele>
        <time>2026-05-15T06:25:10Z</time>
      </trkpt>
      <trkpt lat="43.67366" lon="7.12301">
        <ele>35.3</ele>
        <time>2026-05-15T06:25:11Z</time>
      </trkpt>
      <trkpt lat="43.67366" lon="7.12301">
        <ele>35.3</ele>
        <time>2026-05-15T06:25:12Z</time>
      </trkpt>
      <trkpt lat="43.67367" lon="7.12301">
        <ele>35.4</ele>
        <time>2026-05-15T06:25:13Z</time>
      </trkpt>
      <trkpt lat="43.67367" lon="7.12301">
        <ele>35.4</ele>
        <time>2026-05-15T06:25:14Z</time>
      </trkpt>
      <trkpt lat="43.67367" lon="7.12301">
        <ele>35.4</ele>
        <time>2026-05-15T06:25:15Z</time>
      </trkpt>
      <trkpt lat="43.67367" lon="7.12301">
        <ele>35.4</ele>
        <time>2026-05-15T06:25:16Z</time>
      </trkpt>
      <trkpt lat="43.67367" lon="7.12301">
        <ele>35.4</ele>
        <time>2026-05-15T06:25:17Z</time>
      </trkpt>
      <trkpt lat="43.67371" lon="7.12284">
        <ele>36.1</ele>
        <time>2026-05-15T06:28:09Z</time>
      </trkpt>
      <trkpt lat="43.67362" lon="7.123">
        <ele>35.2</ele>
        <time>2026-05-15T06:28:10Z</time>
      </trkpt>
      <trkpt lat="43.67364" lon="7.12302">
        <ele>35.2</ele>
        <time>2026-05-15T06:28:11Z</time>
      </trkpt>
      <trkpt lat="43.67363" lon="7.12301">
        <ele>35.2</ele>
        <time>2026-05-15T06:28:12Z</time>
      </trkpt>
      <trkpt lat="43.67362" lon="7.12302">
        <ele>35.2</ele>
        <time>2026-05-15T06:28:13Z</time>
      </trkpt>
      <trkpt lat="43.67363" lon="7.12304">
        <ele>35.1</ele>
        <time>2026-05-15T06:28:14Z</time>
      </trkpt>
      <trkpt lat="43.67363" lon="7.12295">
        <ele>35.4</ele>
        <time>2026-05-15T06:28:15Z</time>
      </trkpt>
      <trkpt lat="43.67362" lon="7.12293">
        <ele>35.5</ele>
        <time>2026-05-15T06:28:16Z</time>
      </trkpt>
      <trkpt lat="43.67362" lon="7.12291">
        <ele>35.6</ele>
        <time>2026-05-15T06:28:17Z</time>
      </trkpt>
      <trkpt lat="43.67363" lon="7.12288">
        <ele>35.7</ele>
        <time>2026-05-15T06:28:18Z</time>
      </trkpt>
      <trkpt lat="43.67363" lon="7.12286">
        <ele>35.8</ele>
        <time>2026-05-15T06:28:19Z</time>
      </trkpt>
      <trkpt lat="43.67363" lon="7.12285">
        <ele>35.8</ele>
        <time>2026-05-15T06:28:20Z</time>
      </trkpt>
      <trkpt lat="43.67364" lon="7.12283">
        <ele>35.9</ele>
        <time>2026-05-15T06:28:21Z</time>
      </trkpt>
      <trkpt lat="43.67364" lon="7.12282">
        <ele>36</ele>
        <time>2026-05-15T06:28:22Z</time>
      </trkpt>
      <trkpt lat="43.67364" lon="7.12282">
        <ele>36</ele>
        <time>2026-05-15T06:28:23Z</time>
      </trkpt>
      <trkpt lat="43.67364" lon="7.12282">
        <ele>36</ele>
        <time>2026-05-15T06:28:24Z</time>
      </trkpt>
      <trkpt lat="43.67365" lon="7.12282">
        <ele>36</ele>
        <time>2026-05-15T06:28:25Z</time>
      </trkpt>
      <trkpt lat="43.67365" lon="7.12282">
        <ele>36</ele>
        <time>2026-05-15T06:28:26Z</time>
      </trkpt>
      <trkpt lat="43.67364" lon="7.12282">
        <ele>36</ele>
        <time>2026-05-15T06:28:27Z</time>
      </trkpt>
      <trkpt lat="43.67364" lon="7.12282">
        <ele>36</ele>
        <time>2026-05-15T06:28:28Z</time>
      </trkpt>
      <trkpt lat="43.67364" lon="7.12282">
        <ele>36</ele>
        <time>2026-05-15T06:28:29Z</time>
      </trkpt>
      <trkpt lat="43.67364" lon="7.12282">
        <ele>36</ele>
        <time>2026-05-15T06:28:30Z</time>
      </trkpt>
      <trkpt lat="43.67364" lon="7.12282">
        <ele>36</ele>
        <time>2026-05-15T06:28:31Z</time>
      </trkpt>
      <trkpt lat="43.67364" lon="7.12282">
        <ele>36</ele>
        <time>2026-05-15T06:28:32Z</time>
      </trkpt>
      <trkpt lat="43.67364" lon="7.12283">
        <ele>35.9</ele>
        <time>2026-05-15T06:28:33Z</time>
      </trkpt>
      <trkpt lat="43.67364" lon="7.12281">
        <ele>36</ele>
        <time>2026-05-15T06:28:34Z</time>
      </trkpt>
      <trkpt lat="43.67365" lon="7.12279">
        <ele>36.1</ele>
        <time>2026-05-15T06:28:35Z</time>
      </trkpt>
      <trkpt lat="43.67365" lon="7.12275">
        <ele>36.2</ele>
        <time>2026-05-15T06:28:36Z</time>
      </trkpt>
      <trkpt lat="43.67366" lon="7.12271">
        <ele>36.4</ele>
        <time>2026-05-15T06:28:37Z</time>
      </trkpt>
      <trkpt lat="43.67367" lon="7.12269">
        <ele>36.5</ele>
        <time>2026-05-15T06:28:38Z</time>
      </trkpt>
      <trkpt lat="43.67369" lon="7.12267">
        <ele>36.6</ele>
        <time>2026-05-15T06:28:39Z</time>
      </trkpt>
      <trkpt lat="43.6737" lon="7.12267">
        <ele>36.6</ele>
        <time>2026-05-15T06:28:40Z</time>
      </trkpt>
      <trkpt lat="43.6737" lon="7.12268">
        <ele>36.6</ele>
        <time>2026-05-15T06:28:41Z</time>
      </trkpt>
      <trkpt lat="43.67371" lon="7.12268">
        <ele>36.6</ele>
        <time>2026-05-15T06:28:42Z</time>
      </trkpt>
      <trkpt lat="43.67371" lon="7.12268">
        <ele>36.6</ele>
        <time>2026-05-15T06:28:43Z</time>
      </trkpt>
      <trkpt lat="43.67372" lon="7.12268">
        <ele>36.6</ele>
        <time>2026-05-15T06:28:44Z</time>
      </trkpt>
      <trkpt lat="43.67372" lon="7.12269">
        <ele>36.6</ele>
        <time>2026-05-15T06:28:45Z</time>
      </trkpt>
      <trkpt lat="43.67372" lon="7.12269">
        <ele>36.6</ele>
        <time>2026-05-15T06:28:46Z</time>
      </trkpt>
      <trkpt lat="43.67372" lon="7.12269">
        <ele>36.6</ele>
        <time>2026-05-15T06:28:47Z</time>
      </trkpt>
      <trkpt lat="43.67372" lon="7.12269">
        <ele>36.6</ele>
        <time>2026-05-15T06:28:48Z</time>
      </trkpt>
      <trkpt lat="43.67372" lon="7.1227">
        <ele>36.6</ele>
        <time>2026-05-15T06:28:49Z</time>
      </trkpt>
      <trkpt lat="43.67372" lon="7.1227">
        <ele>36.6</ele>
        <time>2026-05-15T06:28:50Z</time>
      </trkpt>
      <trkpt lat="43.67372" lon="7.1227">
        <ele>36.6</ele>
        <time>2026-05-15T06:28:51Z</time>
      </trkpt>
      <trkpt lat="43.67372" lon="7.1227">
        <ele>36.6</ele>
        <time>2026-05-15T06:28:52Z</time>
      </trkpt>
      <trkpt lat="43.67373" lon="7.1227">
        <ele>36.6</ele>
        <time>2026-05-15T06:28:53Z</time>
      </trkpt>
      <trkpt lat="43.67373" lon="7.1227">
        <ele>36.6</ele>
        <time>2026-05-15T06:28:54Z</time>
      </trkpt>
      <trkpt lat="43.67373" lon="7.1227">
        <ele>36.6</ele>
        <time>2026-05-15T06:28:55Z</time>
      </trkpt>
      <trkpt lat="43.67373" lon="7.1227">
        <ele>36.6</ele>
        <time>2026-05-15T06:28:56Z</time>
      </trkpt>
      <trkpt lat="43.67373" lon="7.1227">
        <ele>36.6</ele>
        <time>2026-05-15T06:28:57Z</time>
      </trkpt>
      <trkpt lat="43.67372" lon="7.1227">
        <ele>36.6</ele>
        <time>2026-05-15T06:28:58Z</time>
      </trkpt>
      <trkpt lat="43.67372" lon="7.1227">
        <ele>36.6</ele>
        <time>2026-05-15T06:28:59Z</time>
      </trkpt>
      <trkpt lat="43.67372" lon="7.1227">
        <ele>36.6</ele>
        <time>2026-05-15T06:29:00Z</time>
      </trkpt>
      <trkpt lat="43.67371" lon="7.1227">
        <ele>36.5</ele>
        <time>2026-05-15T06:29:01Z</time>
      </trkpt>
      <trkpt lat="43.67371" lon="7.1227">
        <ele>36.5</ele>
        <time>2026-05-15T06:29:02Z</time>
      </trkpt>
      <trkpt lat="43.67371" lon="7.1227">
        <ele>36.5</ele>
        <time>2026-05-15T06:29:03Z</time>
      </trkpt>
      <trkpt lat="43.67371" lon="7.1227">
        <ele>36.5</ele>
        <time>2026-05-15T06:29:04Z</time>
      </trkpt>
      <trkpt lat="43.67371" lon="7.1227">
        <ele>36.5</ele>
        <time>2026-05-15T06:29:05Z</time>
      </trkpt>
      <trkpt lat="43.67371" lon="7.12269">
        <ele>36.6</ele>
        <time>2026-05-15T06:29:06Z</time>
      </trkpt>
      <trkpt lat="43.67371" lon="7.12269">
        <ele>36.6</ele>
        <time>2026-05-15T06:29:07Z</time>
      </trkpt>
      <trkpt lat="43.67372" lon="7.12269">
        <ele>36.6</ele>
        <time>2026-05-15T06:29:08Z</time>
      </trkpt>
      <trkpt lat="43.67372" lon="7.12269">
        <ele>36.6</ele>
        <time>2026-05-15T06:29:09Z</time>
      </trkpt>
      <trkpt lat="43.67372" lon="7.12269">
        <ele>36.6</ele>
        <time>2026-05-15T06:29:10Z</time>
      </trkpt>
      <trkpt lat="43.67372" lon="7.12269">
        <ele>36.6</ele>
        <time>2026-05-15T06:29:11Z</time>
      </trkpt>
      <trkpt lat="43.67372" lon="7.12269">
        <ele>36.6</ele>
        <time>2026-05-15T06:29:12Z</time>
      </trkpt>
      <trkpt lat="43.67372" lon="7.12269">
        <ele>36.6</ele>
        <time>2026-05-15T06:29:13Z</time>
      </trkpt>
      <trkpt lat="43.67372" lon="7.12269">
        <ele>36.6</ele>
        <time>2026-05-15T06:29:14Z</time>
      </trkpt>
      <trkpt lat="43.67372" lon="7.12269">
        <ele>36.6</ele>
        <time>2026-05-15T06:29:15Z</time>
      </trkpt>
      <trkpt lat="43.67372" lon="7.12269">
        <ele>36.6</ele>
        <time>2026-05-15T06:29:16Z</time>
      </trkpt>
      <trkpt lat="43.67372" lon="7.12269">
        <ele>36.6</ele>
        <time>2026-05-15T06:29:17Z</time>
      </trkpt>
      <trkpt lat="43.67372" lon="7.12269">
        <ele>36.6</ele>
        <time>2026-05-15T06:29:18Z</time>
      </trkpt>
      <trkpt lat="43.67372" lon="7.12269">
        <ele>36.6</ele>
        <time>2026-05-15T06:29:19Z</time>
      </trkpt>
      <trkpt lat="43.67372" lon="7.12269">
        <ele>36.6</ele>
        <time>2026-05-15T06:29:20Z</time>
      </trkpt>
      <trkpt lat="43.67372" lon="7.12269">
        <ele>36.6</ele>
        <time>2026-05-15T06:29:21Z</time>
      </trkpt>
      <trkpt lat="43.67372" lon="7.12269">
        <ele>36.6</ele>
        <time>2026-05-15T06:29:22Z</time>
      </trkpt>
      <trkpt lat="43.67372" lon="7.12269">
        <ele>36.6</ele>
        <time>2026-05-15T06:29:23Z</time>
      </trkpt>
      <trkpt lat="43.67372" lon="7.12269">
        <ele>36.6</ele>
        <time>2026-05-15T06:29:24Z</time>
      </trkpt>
      <trkpt lat="43.67372" lon="7.12269">
        <ele>36.6</ele>
        <time>2026-05-15T06:29:25Z</time>
      </trkpt>
      <trkpt lat="43.67372" lon="7.12269">
        <ele>36.6</ele>
        <time>2026-05-15T06:29:26Z</time>
      </trkpt>
      <trkpt lat="43.67372" lon="7.12269">
        <ele>36.6</ele>
        <time>2026-05-15T06:29:27Z</time>
      </trkpt>
      <trkpt lat="43.67372" lon="7.12269">
        <ele>36.6</ele>
        <time>2026-05-15T06:29:28Z</time>
      </trkpt>
      <trkpt lat="43.67372" lon="7.12269">
        <ele>36.6</ele>
        <time>2026-05-15T06:29:29Z</time>
      </trkpt>
      <trkpt lat="43.67372" lon="7.12269">
        <ele>36.6</ele>
        <time>2026-05-15T06:29:30Z</time>
      </trkpt>
      <trkpt lat="43.67372" lon="7.12269">
        <ele>36.6</ele>
        <time>2026-05-15T06:29:31Z</time>
      </trkpt>
      <trkpt lat="43.67372" lon="7.12269">
        <ele>36.6</ele>
        <time>2026-05-15T06:29:32Z</time>
      </trkpt>
      <trkpt lat="43.67372" lon="7.12269">
        <ele>36.6</ele>
        <time>2026-05-15T06:29:33Z</time>
      </trkpt>
      <trkpt lat="43.67372" lon="7.12269">
        <ele>36.6</ele>
        <time>2026-05-15T06:29:34Z</time>
      </trkpt>
      <trkpt lat="43.67372" lon="7.12269">
        <ele>36.6</ele>
        <time>2026-05-15T06:29:35Z</time>
      </trkpt>
      <trkpt lat="43.67372" lon="7.12269">
        <ele>36.6</ele>
        <time>2026-05-15T06:29:36Z</time>
      </trkpt>
      <trkpt lat="43.67372" lon="7.12269">
        <ele>36.6</ele>
        <time>2026-05-15T06:29:37Z</time>
      </trkpt>
      <trkpt lat="43.67372" lon="7.12269">
        <ele>36.6</ele>
        <time>2026-05-15T06:29:38Z</time>
      </trkpt>
      <trkpt lat="43.67372" lon="7.12269">
        <ele>36.6</ele>
        <time>2026-05-15T06:29:39Z</time>
      </trkpt>
      <trkpt lat="43.67372" lon="7.12269">
        <ele>36.6</ele>
        <time>2026-05-15T06:29:40Z</time>
      </trkpt>
      <trkpt lat="43.67372" lon="7.12269">
        <ele>36.6</ele>
        <time>2026-05-15T06:29:41Z</time>
      </trkpt>
      <trkpt lat="43.67372" lon="7.12269">
        <ele>36.6</ele>
        <time>2026-05-15T06:29:42Z</time>
      </trkpt>
      <trkpt lat="43.67372" lon="7.12269">
        <ele>36.6</ele>
        <time>2026-05-15T06:29:43Z</time>
      </trkpt>
      <trkpt lat="43.67372" lon="7.12269">
        <ele>36.6</ele>
        <time>2026-05-15T06:29:44Z</time>
      </trkpt>
      <trkpt lat="43.67372" lon="7.12269">
        <ele>36.6</ele>
        <time>2026-05-15T06:29:45Z</time>
      </trkpt>
      <trkpt lat="43.67372" lon="7.12269">
        <ele>36.6</ele>
        <time>2026-05-15T06:29:46Z</time>
      </trkpt>
      <trkpt lat="43.67372" lon="7.12269">
        <ele>36.6</ele>
        <time>2026-05-15T06:29:47Z</time>
      </trkpt>
      <trkpt lat="43.67372" lon="7.12269">
        <ele>36.6</ele>
        <time>2026-05-15T06:29:48Z</time>
      </trkpt>
      <trkpt lat="43.67372" lon="7.12269">
        <ele>36.6</ele>
        <time>2026-05-15T06:29:49Z</time>
      </trkpt>
      <trkpt lat="43.67372" lon="7.12269">
        <ele>36.6</ele>
        <time>2026-05-15T06:29:50Z</time>
      </trkpt>
      <trkpt lat="43.67372" lon="7.12269">
        <ele>36.6</ele>
        <time>2026-05-15T06:29:51Z</time>
      </trkpt>
      <trkpt lat="43.67372" lon="7.12269">
        <ele>36.6</ele>
        <time>2026-05-15T06:29:52Z</time>
      </trkpt>
      <trkpt lat="43.67372" lon="7.12269">
        <ele>36.6</ele>
        <time>2026-05-15T06:29:53Z</time>
      </trkpt>
      <trkpt lat="43.67372" lon="7.12269">
        <ele>36.6</ele>
        <time>2026-05-15T06:29:54Z</time>
      </trkpt>
      <trkpt lat="43.67372" lon="7.12269">
        <ele>36.6</ele>
        <time>2026-05-15T06:29:55Z</time>
      </trkpt>
      <trkpt lat="43.67372" lon="7.12269">
        <ele>36.6</ele>
        <time>2026-05-15T06:29:56Z</time>
      </trkpt>
      <trkpt lat="43.67372" lon="7.12269">
        <ele>36.6</ele>
        <time>2026-05-15T06:29:57Z</time>
      </trkpt>
      <trkpt lat="43.67372" lon="7.12269">
        <ele>36.6</ele>
        <time>2026-05-15T06:29:58Z</time>
      </trkpt>
      <trkpt lat="43.67372" lon="7.12269">
        <ele>36.6</ele>
        <time>2026-05-15T06:29:59Z</time>
      </trkpt>
      <trkpt lat="43.67372" lon="7.12269">
        <ele>36.6</ele>
        <time>2026-05-15T06:30:00Z</time>
      </trkpt>
      <trkpt lat="43.67372" lon="7.12269">
        <ele>36.6</ele>
        <time>2026-05-15T06:30:01Z</time>
      </trkpt>
      <trkpt lat="43.67372" lon="7.12269">
        <ele>36.6</ele>
        <time>2026-05-15T06:30:02Z</time>
      </trkpt>
      <trkpt lat="43.67372" lon="7.12269">
        <ele>36.6</ele>
        <time>2026-05-15T06:30:03Z</time>
      </trkpt>
      <trkpt lat="43.67372" lon="7.12269">
        <ele>36.6</ele>
        <time>2026-05-15T06:30:04Z</time>
      </trkpt>
      <trkpt lat="43.67372" lon="7.12269">
        <ele>36.6</ele>
        <time>2026-05-15T06:30:05Z</time>
      </trkpt>
      <trkpt lat="43.67372" lon="7.12269">
        <ele>36.6</ele>
        <time>2026-05-15T06:30:06Z</time>
      </trkpt>
      <trkpt lat="43.67372" lon="7.12269">
        <ele>36.6</ele>
        <time>2026-05-15T06:30:07Z</time>
      </trkpt>
      <trkpt lat="43.67372" lon="7.12269">
        <ele>36.6</ele>
        <time>2026-05-15T06:30:08Z</time>
      </trkpt>
      <trkpt lat="43.67372" lon="7.12269">
        <ele>36.6</ele>
        <time>2026-05-15T06:30:09Z</time>
      </trkpt>
      <trkpt lat="43.67372" lon="7.12269">
        <ele>36.6</ele>
        <time>2026-05-15T06:30:10Z</time>
      </trkpt>
      <trkpt lat="43.67372" lon="7.12269">
        <ele>36.6</ele>
        <time>2026-05-15T06:30:11Z</time>
      </trkpt>
      <trkpt lat="43.67372" lon="7.12269">
        <ele>36.6</ele>
        <time>2026-05-15T06:30:12Z</time>
      </trkpt>
      <trkpt lat="43.67372" lon="7.12269">
        <ele>36.6</ele>
        <time>2026-05-15T06:30:13Z</time>
      </trkpt>
      <trkpt lat="43.67372" lon="7.12269">
        <ele>36.6</ele>
        <time>2026-05-15T06:30:14Z</time>
      </trkpt>
      <trkpt lat="43.67372" lon="7.12269">
        <ele>36.6</ele>
        <time>2026-05-15T06:30:15Z</time>
      </trkpt>
      <trkpt lat="43.67372" lon="7.12269">
        <ele>36.6</ele>
        <time>2026-05-15T06:30:16Z</time>
      </trkpt>
      <trkpt lat="43.67372" lon="7.12269">
        <ele>36.6</ele>
        <time>2026-05-15T06:30:17Z</time>
      </trkpt>
      <trkpt lat="43.67372" lon="7.12269">
        <ele>36.6</ele>
        <time>2026-05-15T06:30:18Z</time>
      </trkpt>
      <trkpt lat="43.67372" lon="7.12269">
        <ele>36.6</ele>
        <time>2026-05-15T06:30:19Z</time>
      </trkpt>
      <trkpt lat="43.67372" lon="7.12269">
        <ele>36.6</ele>
        <time>2026-05-15T06:30:20Z</time>
      </trkpt>
      <trkpt lat="43.67372" lon="7.12269">
        <ele>36.6</ele>
        <time>2026-05-15T06:30:21Z</time>
      </trkpt>
      <trkpt lat="43.67372" lon="7.12269">
        <ele>36.6</ele>
        <time>2026-05-15T06:30:22Z</time>
      </trkpt>
      <trkpt lat="43.67372" lon="7.12269">
        <ele>36.6</ele>
        <time>2026-05-15T06:30:23Z</time>
      </trkpt>
      <trkpt lat="43.67372" lon="7.12269">
        <ele>36.6</ele>
        <time>2026-05-15T06:30:24Z</time>
      </trkpt>
      <trkpt lat="43.67372" lon="7.12269">
        <ele>36.6</ele>
        <time>2026-05-15T06:30:25Z</time>
      </trkpt>
      <trkpt lat="43.67372" lon="7.12269">
        <ele>36.6</ele>
        <time>2026-05-15T06:30:26Z</time>
      </trkpt>
      <trkpt lat="43.67372" lon="7.12269">
        <ele>36.6</ele>
        <time>2026-05-15T06:30:27Z</time>
      </trkpt>
      <trkpt lat="43.67372" lon="7.12269">
        <ele>36.6</ele>
        <time>2026-05-15T06:30:28Z</time>
      </trkpt>
      <trkpt lat="43.67372" lon="7.12269">
        <ele>36.6</ele>
        <time>2026-05-15T06:30:29Z</time>
      </trkpt>
      <trkpt lat="43.67372" lon="7.12269">
        <ele>36.6</ele>
        <time>2026-05-15T06:30:30Z</time>
      </trkpt>
      <trkpt lat="43.67372" lon="7.12269">
        <ele>36.6</ele>
        <time>2026-05-15T06:30:31Z</time>
      </trkpt>
      <trkpt lat="43.67372" lon="7.12269">
        <ele>36.6</ele>
        <time>2026-05-15T06:30:32Z</time>
      </trkpt>
      <trkpt lat="43.67372" lon="7.12269">
        <ele>36.6</ele>
        <time>2026-05-15T06:30:33Z</time>
      </trkpt>
      <trkpt lat="43.67372" lon="7.12269">
        <ele>36.6</ele>
        <time>2026-05-15T06:30:34Z</time>
      </trkpt>
      <trkpt lat="43.67372" lon="7.12269">
        <ele>36.6</ele>
        <time>2026-05-15T06:30:35Z</time>
      </trkpt>
      <trkpt lat="43.67372" lon="7.12269">
        <ele>36.6</ele>
        <time>2026-05-15T06:30:36Z</time>
      </trkpt>
      <trkpt lat="43.67372" lon="7.12269">
        <ele>36.6</ele>
        <time>2026-05-15T06:30:37Z</time>
      </trkpt>
      <trkpt lat="43.67372" lon="7.12269">
        <ele>36.6</ele>
        <time>2026-05-15T06:30:38Z</time>
      </trkpt>
      <trkpt lat="43.67372" lon="7.12269">
        <ele>36.6</ele>
        <time>2026-05-15T06:30:39Z</time>
      </trkpt>
      <trkpt lat="43.67372" lon="7.12269">
        <ele>36.6</ele>
        <time>2026-05-15T06:30:40Z</time>
      </trkpt>
      <trkpt lat="43.67372" lon="7.12269">
        <ele>36.6</ele>
        <time>2026-05-15T06:30:41Z</time>
      </trkpt>
      <trkpt lat="43.67372" lon="7.12269">
        <ele>36.6</ele>
        <time>2026-05-15T06:30:42Z</time>
      </trkpt>
      <trkpt lat="43.67372" lon="7.12269">
        <ele>36.6</ele>
        <time>2026-05-15T06:30:43Z</time>
      </trkpt>
      <trkpt lat="43.67372" lon="7.12269">
        <ele>36.6</ele>
        <time>2026-05-15T06:30:44Z</time>
      </trkpt>
      <trkpt lat="43.67372" lon="7.12269">
        <ele>36.6</ele>
        <time>2026-05-15T06:30:45Z</time>
      </trkpt>
      <trkpt lat="43.67372" lon="7.12269">
        <ele>36.6</ele>
        <time>2026-05-15T06:30:46Z</time>
      </trkpt>
      <trkpt lat="43.67372" lon="7.12269">
        <ele>36.6</ele>
        <time>2026-05-15T06:30:47Z</time>
      </trkpt>
      <trkpt lat="43.67372" lon="7.12269">
        <ele>36.6</ele>
        <time>2026-05-15T06:30:48Z</time>
      </trkpt>
      <trkpt lat="43.67372" lon="7.12269">
        <ele>36.6</ele>
        <time>2026-05-15T06:30:49Z</time>
      </trkpt>
      <trkpt lat="43.67372" lon="7.12269">
        <ele>36.6</ele>
        <time>2026-05-15T06:30:50Z</time>
      </trkpt>
      <trkpt lat="43.67372" lon="7.12269">
        <ele>36.6</ele>
        <time>2026-05-15T06:30:51Z</time>
      </trkpt>
      <trkpt lat="43.67372" lon="7.12269">
        <ele>36.6</ele>
        <time>2026-05-15T06:30:52Z</time>
      </trkpt>
      <trkpt lat="43.67372" lon="7.12269">
        <ele>36.6</ele>
        <time>2026-05-15T06:30:53Z</time>
      </trkpt>
      <trkpt lat="43.67372" lon="7.12269">
        <ele>36.6</ele>
        <time>2026-05-15T06:30:54Z</time>
      </trkpt>
      <trkpt lat="43.67372" lon="7.12269">
        <ele>36.6</ele>
        <time>2026-05-15T06:30:55Z</time>
      </trkpt>
      <trkpt lat="43.67372" lon="7.12269">
        <ele>36.6</ele>
        <time>2026-05-15T06:30:56Z</time>
      </trkpt>
      <trkpt lat="43.67372" lon="7.12269">
        <ele>36.6</ele>
        <time>2026-05-15T06:30:57Z</time>
      </trkpt>
      <trkpt lat="43.67372" lon="7.12269">
        <ele>36.6</ele>
        <time>2026-05-15T06:30:58Z</time>
      </trkpt>
      <trkpt lat="43.67372" lon="7.12269">
        <ele>36.6</ele>
        <time>2026-05-15T06:30:59Z</time>
      </trkpt>
      <trkpt lat="43.67372" lon="7.12269">
        <ele>36.6</ele>
        <time>2026-05-15T06:31:00Z</time>
      </trkpt>
      <trkpt lat="43.67372" lon="7.12269">
        <ele>36.6</ele>
        <time>2026-05-15T06:31:01Z</time>
      </trkpt>
      <trkpt lat="43.67372" lon="7.12269">
        <ele>36.6</ele>
        <time>2026-05-15T06:31:02Z</time>
      </trkpt>
      <trkpt lat="43.67372" lon="7.12269">
        <ele>36.6</ele>
        <time>2026-05-15T06:31:03Z</time>
      </trkpt>
      <trkpt lat="43.67372" lon="7.12269">
        <ele>36.6</ele>
        <time>2026-05-15T06:31:04Z</time>
      </trkpt>
      <trkpt lat="43.67372" lon="7.12269">
        <ele>36.6</ele>
        <time>2026-05-15T06:31:05Z</time>
      </trkpt>
      <trkpt lat="43.67372" lon="7.12269">
        <ele>36.6</ele>
        <time>2026-05-15T06:31:06Z</time>
      </trkpt>
      <trkpt lat="43.67372" lon="7.12269">
        <ele>36.6</ele>
        <time>2026-05-15T06:31:07Z</time>
      </trkpt>
      <trkpt lat="43.67372" lon="7.12269">
        <ele>36.6</ele>
        <time>2026-05-15T06:31:08Z</time>
      </trkpt>
      <trkpt lat="43.67372" lon="7.12269">
        <ele>36.6</ele>
        <time>2026-05-15T06:31:09Z</time>
      </trkpt>
      <trkpt lat="43.67372" lon="7.12269">
        <ele>36.6</ele>
        <time>2026-05-15T06:31:10Z</time>
      </trkpt>
      <trkpt lat="43.67372" lon="7.12269">
        <ele>36.6</ele>
        <time>2026-05-15T06:31:11Z</time>
      </trkpt>
      <trkpt lat="43.67372" lon="7.12269">
        <ele>36.6</ele>
        <time>2026-05-15T06:31:12Z</time>
      </trkpt>
      <trkpt lat="43.67372" lon="7.12269">
        <ele>36.6</ele>
        <time>2026-05-15T06:31:13Z</time>
      </trkpt>
      <trkpt lat="43.67372" lon="7.12269">
        <ele>36.6</ele>
        <time>2026-05-15T06:31:14Z</time>
      </trkpt>
      <trkpt lat="43.67372" lon="7.12269">
        <ele>36.6</ele>
        <time>2026-05-15T06:31:15Z</time>
      </trkpt>
      <trkpt lat="43.67372" lon="7.12269">
        <ele>36.6</ele>
        <time>2026-05-15T06:31:16Z</time>
      </trkpt>
      <trkpt lat="43.67372" lon="7.12269">
        <ele>36.6</ele>
        <time>2026-05-15T06:31:17Z</time>
      </trkpt>
      <trkpt lat="43.67372" lon="7.12269">
        <ele>36.6</ele>
        <time>2026-05-15T06:31:18Z</time>
      </trkpt>
      <trkpt lat="43.67372" lon="7.12269">
        <ele>36.6</ele>
        <time>2026-05-15T06:31:19Z</time>
      </trkpt>
      <trkpt lat="43.67372" lon="7.12269">
        <ele>36.6</ele>
        <time>2026-05-15T06:31:20Z</time>
      </trkpt>
      <trkpt lat="43.67372" lon="7.12269">
        <ele>36.6</ele>
        <time>2026-05-15T06:31:21Z</time>
      </trkpt>
      <trkpt lat="43.67372" lon="7.12269">
        <ele>36.6</ele>
        <time>2026-05-15T06:31:22Z</time>
      </trkpt>
      <trkpt lat="43.67372" lon="7.12269">
        <ele>36.6</ele>
        <time>2026-05-15T06:31:23Z</time>
      </trkpt>
      <trkpt lat="43.67372" lon="7.12269">
        <ele>36.6</ele>
        <time>2026-05-15T06:31:24Z</time>
      </trkpt>
      <trkpt lat="43.67372" lon="7.12269">
        <ele>36.6</ele>
        <time>2026-05-15T06:31:25Z</time>
      </trkpt>
      <trkpt lat="43.67372" lon="7.12269">
        <ele>36.6</ele>
        <time>2026-05-15T06:31:26Z</time>
      </trkpt>
      <trkpt lat="43.67372" lon="7.12269">
        <ele>36.6</ele>
        <time>2026-05-15T06:31:27Z</time>
      </trkpt>
      <trkpt lat="43.67372" lon="7.12269">
        <ele>36.6</ele>
        <time>2026-05-15T06:31:28Z</time>
      </trkpt>
      <trkpt lat="43.67372" lon="7.12269">
        <ele>36.6</ele>
        <time>2026-05-15T06:31:29Z</time>
      </trkpt>
      <trkpt lat="43.67372" lon="7.12269">
        <ele>36.6</ele>
        <time>2026-05-15T06:31:30Z</time>
      </trkpt>
      <trkpt lat="43.67372" lon="7.12269">
        <ele>36.6</ele>
        <time>2026-05-15T06:31:31Z</time>
      </trkpt>
      <trkpt lat="43.67372" lon="7.12269">
        <ele>36.6</ele>
        <time>2026-05-15T06:31:32Z</time>
      </trkpt>
      <trkpt lat="43.67372" lon="7.12269">
        <ele>36.6</ele>
        <time>2026-05-15T06:31:33Z</time>
      </trkpt>
      <trkpt lat="43.67372" lon="7.12269">
        <ele>36.6</ele>
        <time>2026-05-15T06:31:34Z</time>
      </trkpt>
      <trkpt lat="43.67372" lon="7.12269">
        <ele>36.6</ele>
        <time>2026-05-15T06:31:35Z</time>
      </trkpt>
      <trkpt lat="43.67372" lon="7.12269">
        <ele>36.6</ele>
        <time>2026-05-15T06:31:36Z</time>
      </trkpt>
      <trkpt lat="43.67372" lon="7.12269">
        <ele>36.6</ele>
        <time>2026-05-15T06:31:37Z</time>
      </trkpt>
      <trkpt lat="43.67373" lon="7.12268">
        <ele>36.6</ele>
        <time>2026-05-15T06:31:38Z</time>
      </trkpt>
      <trkpt lat="43.67374" lon="7.12268">
        <ele>36.7</ele>
        <time>2026-05-15T06:31:39Z</time>
      </trkpt>
      <trkpt lat="43.67376" lon="7.12268">
        <ele>36.7</ele>
        <time>2026-05-15T06:31:40Z</time>
      </trkpt>
      <trkpt lat="43.67378" lon="7.12268">
        <ele>36.7</ele>
        <time>2026-05-15T06:31:41Z</time>
      </trkpt>
      <trkpt lat="43.6738" lon="7.12268">
        <ele>36.8</ele>
        <time>2026-05-15T06:31:42Z</time>
      </trkpt>
      <trkpt lat="43.67381" lon="7.12268">
        <ele>36.8</ele>
        <time>2026-05-15T06:31:43Z</time>
      </trkpt>
      <trkpt lat="43.67383" lon="7.12268">
        <ele>36.9</ele>
        <time>2026-05-15T06:31:44Z</time>
      </trkpt>
      <trkpt lat="43.67386" lon="7.12269">
        <ele>36.9</ele>
        <time>2026-05-15T06:31:45Z</time>
      </trkpt>
      <trkpt lat="43.67389" lon="7.1227">
        <ele>37</ele>
        <time>2026-05-15T06:31:46Z</time>
      </trkpt>
      <trkpt lat="43.67391" lon="7.12273">
        <ele>37</ele>
        <time>2026-05-15T06:31:47Z</time>
      </trkpt>
      <trkpt lat="43.67393" lon="7.12277">
        <ele>37</ele>
        <time>2026-05-15T06:31:48Z</time>
      </trkpt>
      <trkpt lat="43.67393" lon="7.1229">
        <ele>36.6</ele>
        <time>2026-05-15T06:31:49Z</time>
      </trkpt>
      <trkpt lat="43.67392" lon="7.12298">
        <ele>36.3</ele>
        <time>2026-05-15T06:31:50Z</time>
      </trkpt>
      <trkpt lat="43.67391" lon="7.12306">
        <ele>36</ele>
        <time>2026-05-15T06:31:51Z</time>
      </trkpt>
      <trkpt lat="43.67389" lon="7.12313">
        <ele>36</ele>
        <time>2026-05-15T06:31:52Z</time>
      </trkpt>
      <trkpt lat="43.67385" lon="7.1232">
        <ele>35.9</ele>
        <time>2026-05-15T06:31:53Z</time>
      </trkpt>
      <trkpt lat="43.67379" lon="7.12326">
        <ele>35.9</ele>
        <time>2026-05-15T06:31:54Z</time>
      </trkpt>
      <trkpt lat="43.6737" lon="7.1233">
        <ele>35.9</ele>
        <time>2026-05-15T06:31:55Z</time>
      </trkpt>
      <trkpt lat="43.67362" lon="7.12334">
        <ele>36</ele>
        <time>2026-05-15T06:31:56Z</time>
      </trkpt>
      <trkpt lat="43.67354" lon="7.12338">
        <ele>35.6</ele>
        <time>2026-05-15T06:31:57Z</time>
      </trkpt>
      <trkpt lat="43.67345" lon="7.12342">
        <ele>35.3</ele>
        <time>2026-05-15T06:31:58Z</time>
      </trkpt>
      <trkpt lat="43.67336" lon="7.12348">
        <ele>35</ele>
        <time>2026-05-15T06:31:59Z</time>
      </trkpt>
      <trkpt lat="43.67327" lon="7.12354">
        <ele>35</ele>
        <time>2026-05-15T06:32:00Z</time>
      </trkpt>
      <trkpt lat="43.67319" lon="7.12359">
        <ele>35</ele>
        <time>2026-05-15T06:32:01Z</time>
      </trkpt>
      <trkpt lat="43.67313" lon="7.12362">
        <ele>35</ele>
        <time>2026-05-15T06:32:02Z</time>
      </trkpt>
      <trkpt lat="43.6731" lon="7.12363">
        <ele>35.1</ele>
        <time>2026-05-15T06:32:03Z</time>
      </trkpt>
      <trkpt lat="43.67308" lon="7.12364">
        <ele>35.1</ele>
        <time>2026-05-15T06:32:04Z</time>
      </trkpt>
      <trkpt lat="43.67304" lon="7.12365">
        <ele>35.1</ele>
        <time>2026-05-15T06:32:05Z</time>
      </trkpt>
      <trkpt lat="43.673" lon="7.12366">
        <ele>35.1</ele>
        <time>2026-05-15T06:32:06Z</time>
      </trkpt>
      <trkpt lat="43.67295" lon="7.1237">
        <ele>35.2</ele>
        <time>2026-05-15T06:32:07Z</time>
      </trkpt>
      <trkpt lat="43.67289" lon="7.12375">
        <ele>35.2</ele>
        <time>2026-05-15T06:32:08Z</time>
      </trkpt>
      <trkpt lat="43.67283" lon="7.12381">
        <ele>35.1</ele>
        <time>2026-05-15T06:32:09Z</time>
      </trkpt>
      <trkpt lat="43.67275" lon="7.12385">
        <ele>35</ele>
        <time>2026-05-15T06:32:10Z</time>
      </trkpt>
      <trkpt lat="43.67266" lon="7.12388">
        <ele>35</ele>
        <time>2026-05-15T06:32:11Z</time>
      </trkpt>
      <trkpt lat="43.67257" lon="7.1239">
        <ele>35</ele>
        <time>2026-05-15T06:32:12Z</time>
      </trkpt>
      <trkpt lat="43.67247" lon="7.12393">
        <ele>35</ele>
        <time>2026-05-15T06:32:13Z</time>
      </trkpt>
      <trkpt lat="43.67238" lon="7.12396">
        <ele>35</ele>
        <time>2026-05-15T06:32:14Z</time>
      </trkpt>
      <trkpt lat="43.67229" lon="7.12399">
        <ele>35</ele>
        <time>2026-05-15T06:32:15Z</time>
      </trkpt>
      <trkpt lat="43.6722" lon="7.12403">
        <ele>35</ele>
        <time>2026-05-15T06:32:16Z</time>
      </trkpt>
      <trkpt lat="43.6721" lon="7.12407">
        <ele>34.8</ele>
        <time>2026-05-15T06:32:17Z</time>
      </trkpt>
      <trkpt lat="43.672" lon="7.12411">
        <ele>34.8</ele>
        <time>2026-05-15T06:32:18Z</time>
      </trkpt>
      <trkpt lat="43.67189" lon="7.12416">
        <ele>34.8</ele>
        <time>2026-05-15T06:32:19Z</time>
      </trkpt>
      <trkpt lat="43.67178" lon="7.12421">
        <ele>34.4</ele>
        <time>2026-05-15T06:32:20Z</time>
      </trkpt>
      <trkpt lat="43.67168" lon="7.12425">
        <ele>34</ele>
        <time>2026-05-15T06:32:21Z</time>
      </trkpt>
      <trkpt lat="43.67157" lon="7.1243">
        <ele>34.2</ele>
        <time>2026-05-15T06:32:22Z</time>
      </trkpt>
      <trkpt lat="43.67147" lon="7.12435">
        <ele>34.2</ele>
        <time>2026-05-15T06:32:23Z</time>
      </trkpt>
      <trkpt lat="43.67136" lon="7.12441">
        <ele>34.1</ele>
        <time>2026-05-15T06:32:24Z</time>
      </trkpt>
      <trkpt lat="43.67126" lon="7.12446">
        <ele>34</ele>
        <time>2026-05-15T06:32:25Z</time>
      </trkpt>
      <trkpt lat="43.67115" lon="7.12451">
        <ele>34</ele>
        <time>2026-05-15T06:32:26Z</time>
      </trkpt>
      <trkpt lat="43.67105" lon="7.12456">
        <ele>34</ele>
        <time>2026-05-15T06:32:27Z</time>
      </trkpt>
      <trkpt lat="43.67094" lon="7.12461">
        <ele>34</ele>
        <time>2026-05-15T06:32:28Z</time>
      </trkpt>
      <trkpt lat="43.67085" lon="7.12466">
        <ele>34</ele>
        <time>2026-05-15T06:32:29Z</time>
      </trkpt>
      <trkpt lat="43.67075" lon="7.12471">
        <ele>34</ele>
        <time>2026-05-15T06:32:30Z</time>
      </trkpt>
      <trkpt lat="43.67068" lon="7.12475">
        <ele>34</ele>
        <time>2026-05-15T06:32:31Z</time>
      </trkpt>
      <trkpt lat="43.67062" lon="7.12478">
        <ele>34</ele>
        <time>2026-05-15T06:32:32Z</time>
      </trkpt>
      <trkpt lat="43.67058" lon="7.1248">
        <ele>34</ele>
        <time>2026-05-15T06:32:33Z</time>
      </trkpt>
      <trkpt lat="43.67055" lon="7.12482">
        <ele>34</ele>
        <time>2026-05-15T06:32:34Z</time>
      </trkpt>
      <trkpt lat="43.67053" lon="7.12483">
        <ele>33.9</ele>
        <time>2026-05-15T06:32:35Z</time>
      </trkpt>
      <trkpt lat="43.67051" lon="7.12484">
        <ele>33.9</ele>
        <time>2026-05-15T06:32:36Z</time>
      </trkpt>
      <trkpt lat="43.6705" lon="7.12485">
        <ele>33.9</ele>
        <time>2026-05-15T06:32:37Z</time>
      </trkpt>
      <trkpt lat="43.67049" lon="7.12486">
        <ele>33.9</ele>
        <time>2026-05-15T06:32:38Z</time>
      </trkpt>
      <trkpt lat="43.67049" lon="7.12486">
        <ele>33.9</ele>
        <time>2026-05-15T06:32:39Z</time>
      </trkpt>
      <trkpt lat="43.67049" lon="7.12486">
        <ele>33.9</ele>
        <time>2026-05-15T06:32:40Z</time>
      </trkpt>
      <trkpt lat="43.67049" lon="7.12486">
        <ele>33.9</ele>
        <time>2026-05-15T06:32:41Z</time>
      </trkpt>
      <trkpt lat="43.67049" lon="7.12486">
        <ele>33.9</ele>
        <time>2026-05-15T06:32:42Z</time>
      </trkpt>
      <trkpt lat="43.67049" lon="7.12486">
        <ele>33.9</ele>
        <time>2026-05-15T06:32:43Z</time>
      </trkpt>
      <trkpt lat="43.67049" lon="7.12486">
        <ele>33.9</ele>
        <time>2026-05-15T06:32:44Z</time>
      </trkpt>
      <trkpt lat="43.67049" lon="7.12486">
        <ele>33.9</ele>
        <time>2026-05-15T06:32:45Z</time>
      </trkpt>
      <trkpt lat="43.67049" lon="7.12486">
        <ele>33.9</ele>
        <time>2026-05-15T06:32:46Z</time>
      </trkpt>
      <trkpt lat="43.67049" lon="7.12486">
        <ele>33.9</ele>
        <time>2026-05-15T06:32:47Z</time>
      </trkpt>
      <trkpt lat="43.67048" lon="7.12486">
        <ele>33.9</ele>
        <time>2026-05-15T06:32:48Z</time>
      </trkpt>
      <trkpt lat="43.67047" lon="7.12487">
        <ele>33.9</ele>
        <time>2026-05-15T06:32:49Z</time>
      </trkpt>
      <trkpt lat="43.67044" lon="7.12489">
        <ele>33.8</ele>
        <time>2026-05-15T06:32:50Z</time>
      </trkpt>
      <trkpt lat="43.67039" lon="7.12492">
        <ele>33.8</ele>
        <time>2026-05-15T06:32:51Z</time>
      </trkpt>
      <trkpt lat="43.67034" lon="7.12497">
        <ele>33.9</ele>
        <time>2026-05-15T06:32:52Z</time>
      </trkpt>
      <trkpt lat="43.67029" lon="7.12501">
        <ele>34</ele>
        <time>2026-05-15T06:32:53Z</time>
      </trkpt>
      <trkpt lat="43.67023" lon="7.12505">
        <ele>33.8</ele>
        <time>2026-05-15T06:32:54Z</time>
      </trkpt>
      <trkpt lat="43.67017" lon="7.12508">
        <ele>33.6</ele>
        <time>2026-05-15T06:32:55Z</time>
      </trkpt>
      <trkpt lat="43.6701" lon="7.12511">
        <ele>33.4</ele>
        <time>2026-05-15T06:32:56Z</time>
      </trkpt>
      <trkpt lat="43.67004" lon="7.12515">
        <ele>33.1</ele>
        <time>2026-05-15T06:32:57Z</time>
      </trkpt>
      <trkpt lat="43.66999" lon="7.1252">
        <ele>33</ele>
        <time>2026-05-15T06:32:58Z</time>
      </trkpt>
      <trkpt lat="43.66995" lon="7.12528">
        <ele>33</ele>
        <time>2026-05-15T06:32:59Z</time>
      </trkpt>
      <trkpt lat="43.66993" lon="7.12537">
        <ele>33</ele>
        <time>2026-05-15T06:33:00Z</time>
      </trkpt>
      <trkpt lat="43.66993" lon="7.12546">
        <ele>33</ele>
        <time>2026-05-15T06:33:01Z</time>
      </trkpt>
      <trkpt lat="43.66995" lon="7.12556">
        <ele>33</ele>
        <time>2026-05-15T06:33:02Z</time>
      </trkpt>
      <trkpt lat="43.66999" lon="7.12564">
        <ele>33.3</ele>
        <time>2026-05-15T06:33:03Z</time>
      </trkpt>
      <trkpt lat="43.67005" lon="7.1257">
        <ele>33.7</ele>
        <time>2026-05-15T06:33:04Z</time>
      </trkpt>
      <trkpt lat="43.67011" lon="7.12573">
        <ele>34</ele>
        <time>2026-05-15T06:33:05Z</time>
      </trkpt>
      <trkpt lat="43.67019" lon="7.12574">
        <ele>34.3</ele>
        <time>2026-05-15T06:33:06Z</time>
      </trkpt>
      <trkpt lat="43.67028" lon="7.12572">
        <ele>34.6</ele>
        <time>2026-05-15T06:33:07Z</time>
      </trkpt>
      <trkpt lat="43.67039" lon="7.12571">
        <ele>34.6</ele>
        <time>2026-05-15T06:33:08Z</time>
      </trkpt>
      <trkpt lat="43.6705" lon="7.12571">
        <ele>34.6</ele>
        <time>2026-05-15T06:33:09Z</time>
      </trkpt>
      <trkpt lat="43.67063" lon="7.12572">
        <ele>34.6</ele>
        <time>2026-05-15T06:33:10Z</time>
      </trkpt>
      <trkpt lat="43.67074" lon="7.12574">
        <ele>34.7</ele>
        <time>2026-05-15T06:33:11Z</time>
      </trkpt>
      <trkpt lat="43.67086" lon="7.12575">
        <ele>34.7</ele>
        <time>2026-05-15T06:33:12Z</time>
      </trkpt>
      <trkpt lat="43.67099" lon="7.12577">
        <ele>34.8</ele>
        <time>2026-05-15T06:33:13Z</time>
      </trkpt>
      <trkpt lat="43.67113" lon="7.1258">
        <ele>34.9</ele>
        <time>2026-05-15T06:33:14Z</time>
      </trkpt>
      <trkpt lat="43.67126" lon="7.12586">
        <ele>35.4</ele>
        <time>2026-05-15T06:33:15Z</time>
      </trkpt>
      <trkpt lat="43.67138" lon="7.1259">
        <ele>36</ele>
        <time>2026-05-15T06:33:16Z</time>
      </trkpt>
      <trkpt lat="43.6715" lon="7.12595">
        <ele>36.5</ele>
        <time>2026-05-15T06:33:17Z</time>
      </trkpt>
      <trkpt lat="43.6716" lon="7.12601">
        <ele>37.1</ele>
        <time>2026-05-15T06:33:18Z</time>
      </trkpt>
      <trkpt lat="43.6717" lon="7.12605">
        <ele>37.3</ele>
        <time>2026-05-15T06:33:19Z</time>
      </trkpt>
      <trkpt lat="43.67178" lon="7.12608">
        <ele>37.3</ele>
        <time>2026-05-15T06:33:20Z</time>
      </trkpt>
      <trkpt lat="43.67185" lon="7.12611">
        <ele>37.3</ele>
        <time>2026-05-15T06:33:21Z</time>
      </trkpt>
      <trkpt lat="43.67191" lon="7.12614">
        <ele>37.3</ele>
        <time>2026-05-15T06:33:22Z</time>
      </trkpt>
      <trkpt lat="43.67197" lon="7.12616">
        <ele>37.3</ele>
        <time>2026-05-15T06:33:23Z</time>
      </trkpt>
      <trkpt lat="43.67201" lon="7.12618">
        <ele>37.4</ele>
        <time>2026-05-15T06:33:24Z</time>
      </trkpt>
      <trkpt lat="43.67204" lon="7.12619">
        <ele>37.4</ele>
        <time>2026-05-15T06:33:25Z</time>
      </trkpt>
      <trkpt lat="43.67206" lon="7.1262">
        <ele>37.4</ele>
        <time>2026-05-15T06:33:26Z</time>
      </trkpt>
      <trkpt lat="43.67208" lon="7.1262">
        <ele>37.3</ele>
        <time>2026-05-15T06:33:27Z</time>
      </trkpt>
      <trkpt lat="43.6721" lon="7.1262">
        <ele>37.3</ele>
        <time>2026-05-15T06:33:28Z</time>
      </trkpt>
      <trkpt lat="43.67211" lon="7.1262">
        <ele>37.3</ele>
        <time>2026-05-15T06:33:29Z</time>
      </trkpt>
      <trkpt lat="43.67212" lon="7.1262">
        <ele>37.2</ele>
        <time>2026-05-15T06:33:30Z</time>
      </trkpt>
      <trkpt lat="43.67213" lon="7.1262">
        <ele>37.2</ele>
        <time>2026-05-15T06:33:31Z</time>
      </trkpt>
      <trkpt lat="43.67214" lon="7.1262">
        <ele>37.2</ele>
        <time>2026-05-15T06:33:32Z</time>
      </trkpt>
      <trkpt lat="43.67218" lon="7.12619">
        <ele>37.1</ele>
        <time>2026-05-15T06:33:33Z</time>
      </trkpt>
      <trkpt lat="43.67222" lon="7.12618">
        <ele>37</ele>
        <time>2026-05-15T06:33:34Z</time>
      </trkpt>
      <trkpt lat="43.67226" lon="7.12618">
        <ele>37.2</ele>
        <time>2026-05-15T06:33:35Z</time>
      </trkpt>
      <trkpt lat="43.67232" lon="7.12619">
        <ele>37.5</ele>
        <time>2026-05-15T06:33:36Z</time>
      </trkpt>
      <trkpt lat="43.67237" lon="7.12621">
        <ele>37.7</ele>
        <time>2026-05-15T06:33:37Z</time>
      </trkpt>
      <trkpt lat="43.67244" lon="7.12627">
        <ele>38.2</ele>
        <time>2026-05-15T06:33:38Z</time>
      </trkpt>
      <trkpt lat="43.67252" lon="7.12633">
        <ele>38.7</ele>
        <time>2026-05-15T06:33:39Z</time>
      </trkpt>
      <trkpt lat="43.6726" lon="7.12638">
        <ele>38.6</ele>
        <time>2026-05-15T06:33:40Z</time>
      </trkpt>
      <trkpt lat="43.67269" lon="7.12643">
        <ele>38.4</ele>
        <time>2026-05-15T06:33:41Z</time>
      </trkpt>
      <trkpt lat="43.67278" lon="7.1265">
        <ele>38.4</ele>
        <time>2026-05-15T06:33:42Z</time>
      </trkpt>
      <trkpt lat="43.67288" lon="7.12655">
        <ele>38.4</ele>
        <time>2026-05-15T06:33:43Z</time>
      </trkpt>
      <trkpt lat="43.67297" lon="7.1266">
        <ele>38.6</ele>
        <time>2026-05-15T06:33:44Z</time>
      </trkpt>
      <trkpt lat="43.67307" lon="7.12665">
        <ele>38.9</ele>
        <time>2026-05-15T06:33:45Z</time>
      </trkpt>
      <trkpt lat="43.67318" lon="7.1267">
        <ele>39.1</ele>
        <time>2026-05-15T06:33:46Z</time>
      </trkpt>
      <trkpt lat="43.67329" lon="7.12675">
        <ele>39.3</ele>
        <time>2026-05-15T06:33:47Z</time>
      </trkpt>
      <trkpt lat="43.67341" lon="7.12681">
        <ele>39.4</ele>
        <time>2026-05-15T06:33:48Z</time>
      </trkpt>
      <trkpt lat="43.67353" lon="7.12686">
        <ele>39.8</ele>
        <time>2026-05-15T06:33:49Z</time>
      </trkpt>
      <trkpt lat="43.67365" lon="7.12691">
        <ele>40.5</ele>
        <time>2026-05-15T06:33:50Z</time>
      </trkpt>
      <trkpt lat="43.67378" lon="7.12696">
        <ele>41.3</ele>
        <time>2026-05-15T06:33:51Z</time>
      </trkpt>
      <trkpt lat="43.67391" lon="7.127">
        <ele>42</ele>
        <time>2026-05-15T06:33:52Z</time>
      </trkpt>
      <trkpt lat="43.67403" lon="7.12705">
        <ele>43.3</ele>
        <time>2026-05-15T06:33:53Z</time>
      </trkpt>
      <trkpt lat="43.67416" lon="7.12708">
        <ele>44.4</ele>
        <time>2026-05-15T06:33:54Z</time>
      </trkpt>
      <trkpt lat="43.67429" lon="7.12711">
        <ele>43.8</ele>
        <time>2026-05-15T06:33:55Z</time>
      </trkpt>
      <trkpt lat="43.6744" lon="7.12714">
        <ele>43</ele>
        <time>2026-05-15T06:33:56Z</time>
      </trkpt>
      <trkpt lat="43.67451" lon="7.12717">
        <ele>42.4</ele>
        <time>2026-05-15T06:33:57Z</time>
      </trkpt>
      <trkpt lat="43.67462" lon="7.12719">
        <ele>42.1</ele>
        <time>2026-05-15T06:33:58Z</time>
      </trkpt>
      <trkpt lat="43.67474" lon="7.12721">
        <ele>42</ele>
        <time>2026-05-15T06:33:59Z</time>
      </trkpt>
      <trkpt lat="43.67485" lon="7.12722">
        <ele>42.4</ele>
        <time>2026-05-15T06:34:00Z</time>
      </trkpt>
      <trkpt lat="43.67498" lon="7.12724">
        <ele>43</ele>
        <time>2026-05-15T06:34:01Z</time>
      </trkpt>
      <trkpt lat="43.67511" lon="7.12726">
        <ele>42.8</ele>
        <time>2026-05-15T06:34:02Z</time>
      </trkpt>
      <trkpt lat="43.67525" lon="7.12728">
        <ele>42.7</ele>
        <time>2026-05-15T06:34:03Z</time>
      </trkpt>
      <trkpt lat="43.67538" lon="7.12728">
        <ele>42.8</ele>
        <time>2026-05-15T06:34:04Z</time>
      </trkpt>
      <trkpt lat="43.67551" lon="7.1273">
        <ele>43.3</ele>
        <time>2026-05-15T06:34:05Z</time>
      </trkpt>
      <trkpt lat="43.67564" lon="7.12731">
        <ele>43.2</ele>
        <time>2026-05-15T06:34:06Z</time>
      </trkpt>
      <trkpt lat="43.67576" lon="7.12732">
        <ele>42.7</ele>
        <time>2026-05-15T06:34:07Z</time>
      </trkpt>
      <trkpt lat="43.67588" lon="7.12734">
        <ele>42.6</ele>
        <time>2026-05-15T06:34:08Z</time>
      </trkpt>
      <trkpt lat="43.676" lon="7.12735">
        <ele>43.1</ele>
        <time>2026-05-15T06:34:09Z</time>
      </trkpt>
      <trkpt lat="43.67611" lon="7.12736">
        <ele>43.5</ele>
        <time>2026-05-15T06:34:10Z</time>
      </trkpt>
      <trkpt lat="43.67623" lon="7.12737">
        <ele>43.3</ele>
        <time>2026-05-15T06:34:11Z</time>
      </trkpt>
      <trkpt lat="43.67634" lon="7.12738">
        <ele>43.1</ele>
        <time>2026-05-15T06:34:12Z</time>
      </trkpt>
      <trkpt lat="43.67646" lon="7.1274">
        <ele>43.6</ele>
        <time>2026-05-15T06:34:13Z</time>
      </trkpt>
      <trkpt lat="43.67657" lon="7.12741">
        <ele>44.5</ele>
        <time>2026-05-15T06:34:14Z</time>
      </trkpt>
      <trkpt lat="43.67669" lon="7.12742">
        <ele>45.6</ele>
        <time>2026-05-15T06:34:15Z</time>
      </trkpt>
      <trkpt lat="43.67681" lon="7.12743">
        <ele>46.4</ele>
        <time>2026-05-15T06:34:16Z</time>
      </trkpt>
      <trkpt lat="43.67693" lon="7.12744">
        <ele>47.3</ele>
        <time>2026-05-15T06:34:17Z</time>
      </trkpt>
      <trkpt lat="43.67706" lon="7.12745">
        <ele>48.5</ele>
        <time>2026-05-15T06:34:18Z</time>
      </trkpt>
      <trkpt lat="43.67719" lon="7.12747">
        <ele>50</ele>
        <time>2026-05-15T06:34:19Z</time>
      </trkpt>
      <trkpt lat="43.67731" lon="7.12748">
        <ele>50.9</ele>
        <time>2026-05-15T06:34:20Z</time>
      </trkpt>
      <trkpt lat="43.67744" lon="7.12749">
        <ele>51.5</ele>
        <time>2026-05-15T06:34:21Z</time>
      </trkpt>
      <trkpt lat="43.67756" lon="7.12751">
        <ele>52.7</ele>
        <time>2026-05-15T06:34:22Z</time>
      </trkpt>
      <trkpt lat="43.67768" lon="7.12753">
        <ele>54.2</ele>
        <time>2026-05-15T06:34:23Z</time>
      </trkpt>
      <trkpt lat="43.67779" lon="7.12755">
        <ele>55.4</ele>
        <time>2026-05-15T06:34:24Z</time>
      </trkpt>
      <trkpt lat="43.6779" lon="7.12759">
        <ele>55.7</ele>
        <time>2026-05-15T06:34:25Z</time>
      </trkpt>
      <trkpt lat="43.67801" lon="7.12765">
        <ele>56.1</ele>
        <time>2026-05-15T06:34:26Z</time>
      </trkpt>
      <trkpt lat="43.67812" lon="7.12773">
        <ele>57.1</ele>
        <time>2026-05-15T06:34:27Z</time>
      </trkpt>
      <trkpt lat="43.67823" lon="7.12782">
        <ele>58.8</ele>
        <time>2026-05-15T06:34:28Z</time>
      </trkpt>
      <trkpt lat="43.67833" lon="7.12792">
        <ele>59.1</ele>
        <time>2026-05-15T06:34:29Z</time>
      </trkpt>
      <trkpt lat="43.67843" lon="7.12804">
        <ele>59.1</ele>
        <time>2026-05-15T06:34:30Z</time>
      </trkpt>
      <trkpt lat="43.67854" lon="7.12815">
        <ele>59.5</ele>
        <time>2026-05-15T06:34:31Z</time>
      </trkpt>
      <trkpt lat="43.67864" lon="7.12827">
        <ele>59.2</ele>
        <time>2026-05-15T06:34:32Z</time>
      </trkpt>
      <trkpt lat="43.67875" lon="7.1284">
        <ele>59.7</ele>
        <time>2026-05-15T06:34:33Z</time>
      </trkpt>
      <trkpt lat="43.67887" lon="7.12851">
        <ele>60.6</ele>
        <time>2026-05-15T06:34:34Z</time>
      </trkpt>
      <trkpt lat="43.67899" lon="7.12862">
        <ele>62</ele>
        <time>2026-05-15T06:34:35Z</time>
      </trkpt>
      <trkpt lat="43.67912" lon="7.12871">
        <ele>62.6</ele>
        <time>2026-05-15T06:34:36Z</time>
      </trkpt>
      <trkpt lat="43.67926" lon="7.12878">
        <ele>63.9</ele>
        <time>2026-05-15T06:34:37Z</time>
      </trkpt>
      <trkpt lat="43.67941" lon="7.12882">
        <ele>65.3</ele>
        <time>2026-05-15T06:34:38Z</time>
      </trkpt>
      <trkpt lat="43.67956" lon="7.12885">
        <ele>67</ele>
        <time>2026-05-15T06:34:39Z</time>
      </trkpt>
      <trkpt lat="43.67971" lon="7.12886">
        <ele>68.7</ele>
        <time>2026-05-15T06:34:40Z</time>
      </trkpt>
      <trkpt lat="43.67986" lon="7.12887">
        <ele>69.8</ele>
        <time>2026-05-15T06:34:41Z</time>
      </trkpt>
      <trkpt lat="43.68001" lon="7.12887">
        <ele>70.9</ele>
        <time>2026-05-15T06:34:42Z</time>
      </trkpt>
      <trkpt lat="43.68016" lon="7.12886">
        <ele>71.7</ele>
        <time>2026-05-15T06:34:43Z</time>
      </trkpt>
      <trkpt lat="43.68031" lon="7.12886">
        <ele>72.9</ele>
        <time>2026-05-15T06:34:44Z</time>
      </trkpt>
      <trkpt lat="43.68048" lon="7.12885">
        <ele>75.2</ele>
        <time>2026-05-15T06:34:45Z</time>
      </trkpt>
      <trkpt lat="43.68065" lon="7.12884">
        <ele>77.1</ele>
        <time>2026-05-15T06:34:46Z</time>
      </trkpt>
      <trkpt lat="43.68082" lon="7.12883">
        <ele>78.8</ele>
        <time>2026-05-15T06:34:47Z</time>
      </trkpt>
      <trkpt lat="43.681" lon="7.12883">
        <ele>80.5</ele>
        <time>2026-05-15T06:34:48Z</time>
      </trkpt>
      <trkpt lat="43.68118" lon="7.12882">
        <ele>81.4</ele>
        <time>2026-05-15T06:34:49Z</time>
      </trkpt>
      <trkpt lat="43.68135" lon="7.12883">
        <ele>82</ele>
        <time>2026-05-15T06:34:50Z</time>
      </trkpt>
      <trkpt lat="43.68152" lon="7.12884">
        <ele>83.4</ele>
        <time>2026-05-15T06:34:51Z</time>
      </trkpt>
      <trkpt lat="43.68169" lon="7.12884">
        <ele>84.5</ele>
        <time>2026-05-15T06:34:52Z</time>
      </trkpt>
      <trkpt lat="43.68186" lon="7.12885">
        <ele>85.6</ele>
        <time>2026-05-15T06:34:53Z</time>
      </trkpt>
      <trkpt lat="43.68202" lon="7.12886">
        <ele>86.7</ele>
        <time>2026-05-15T06:34:54Z</time>
      </trkpt>
      <trkpt lat="43.68219" lon="7.12888">
        <ele>88.5</ele>
        <time>2026-05-15T06:34:55Z</time>
      </trkpt>
      <trkpt lat="43.68236" lon="7.12889">
        <ele>90.5</ele>
        <time>2026-05-15T06:34:56Z</time>
      </trkpt>
      <trkpt lat="43.68252" lon="7.12891">
        <ele>92.9</ele>
        <time>2026-05-15T06:34:57Z</time>
      </trkpt>
      <trkpt lat="43.68268" lon="7.12892">
        <ele>94.5</ele>
        <time>2026-05-15T06:34:58Z</time>
      </trkpt>
      <trkpt lat="43.68286" lon="7.12892">
        <ele>95.5</ele>
        <time>2026-05-15T06:34:59Z</time>
      </trkpt>
      <trkpt lat="43.68304" lon="7.12894">
        <ele>97</ele>
        <time>2026-05-15T06:35:00Z</time>
      </trkpt>
      <trkpt lat="43.68322" lon="7.12897">
        <ele>98.8</ele>
        <time>2026-05-15T06:35:01Z</time>
      </trkpt>
      <trkpt lat="43.68339" lon="7.12902">
        <ele>101</ele>
        <time>2026-05-15T06:35:02Z</time>
      </trkpt>
      <trkpt lat="43.68357" lon="7.12907">
        <ele>101.5</ele>
        <time>2026-05-15T06:35:03Z</time>
      </trkpt>
      <trkpt lat="43.68374" lon="7.12913">
        <ele>102.2</ele>
        <time>2026-05-15T06:35:04Z</time>
      </trkpt>
      <trkpt lat="43.68391" lon="7.1292">
        <ele>104.4</ele>
        <time>2026-05-15T06:35:05Z</time>
      </trkpt>
      <trkpt lat="43.68407" lon="7.12926">
        <ele>104.7</ele>
        <time>2026-05-15T06:35:06Z</time>
      </trkpt>
      <trkpt lat="43.68423" lon="7.12933">
        <ele>104.8</ele>
        <time>2026-05-15T06:35:07Z</time>
      </trkpt>
      <trkpt lat="43.68438" lon="7.1294">
        <ele>106.4</ele>
        <time>2026-05-15T06:35:08Z</time>
      </trkpt>
      <trkpt lat="43.68452" lon="7.12947">
        <ele>108.7</ele>
        <time>2026-05-15T06:35:09Z</time>
      </trkpt>
      <trkpt lat="43.68465" lon="7.12954">
        <ele>110.5</ele>
        <time>2026-05-15T06:35:10Z</time>
      </trkpt>
      <trkpt lat="43.68477" lon="7.12959">
        <ele>111.2</ele>
        <time>2026-05-15T06:35:11Z</time>
      </trkpt>
      <trkpt lat="43.68489" lon="7.12966">
        <ele>111.9</ele>
        <time>2026-05-15T06:35:12Z</time>
      </trkpt>
      <trkpt lat="43.68499" lon="7.12971">
        <ele>112.7</ele>
        <time>2026-05-15T06:35:13Z</time>
      </trkpt>
      <trkpt lat="43.68509" lon="7.12976">
        <ele>114.6</ele>
        <time>2026-05-15T06:35:14Z</time>
      </trkpt>
      <trkpt lat="43.68519" lon="7.12981">
        <ele>116.4</ele>
        <time>2026-05-15T06:35:15Z</time>
      </trkpt>
      <trkpt lat="43.68528" lon="7.12985">
        <ele>117.7</ele>
        <time>2026-05-15T06:35:16Z</time>
      </trkpt>
      <trkpt lat="43.68537" lon="7.1299">
        <ele>118</ele>
        <time>2026-05-15T06:35:17Z</time>
      </trkpt>
      <trkpt lat="43.68545" lon="7.12993">
        <ele>117.8</ele>
        <time>2026-05-15T06:35:18Z</time>
      </trkpt>
      <trkpt lat="43.68553" lon="7.12997">
        <ele>117.7</ele>
        <time>2026-05-15T06:35:19Z</time>
      </trkpt>
      <trkpt lat="43.6856" lon="7.13001">
        <ele>118.5</ele>
        <time>2026-05-15T06:35:20Z</time>
      </trkpt>
      <trkpt lat="43.68567" lon="7.13003">
        <ele>119.2</ele>
        <time>2026-05-15T06:35:21Z</time>
      </trkpt>
      <trkpt lat="43.68574" lon="7.13006">
        <ele>120</ele>
        <time>2026-05-15T06:35:22Z</time>
      </trkpt>
      <trkpt lat="43.68579" lon="7.13008">
        <ele>120.3</ele>
        <time>2026-05-15T06:35:23Z</time>
      </trkpt>
      <trkpt lat="43.68583" lon="7.1301">
        <ele>120.5</ele>
        <time>2026-05-15T06:35:24Z</time>
      </trkpt>
      <trkpt lat="43.68588" lon="7.13012">
        <ele>120.5</ele>
        <time>2026-05-15T06:35:25Z</time>
      </trkpt>
      <trkpt lat="43.68593" lon="7.13012">
        <ele>120.2</ele>
        <time>2026-05-15T06:35:26Z</time>
      </trkpt>
      <trkpt lat="43.68597" lon="7.13014">
        <ele>120.3</ele>
        <time>2026-05-15T06:35:27Z</time>
      </trkpt>
      <trkpt lat="43.68602" lon="7.13017">
        <ele>120.5</ele>
        <time>2026-05-15T06:35:28Z</time>
      </trkpt>
      <trkpt lat="43.68607" lon="7.13022">
        <ele>121.1</ele>
        <time>2026-05-15T06:35:29Z</time>
      </trkpt>
      <trkpt lat="43.68611" lon="7.13028">
        <ele>122</ele>
        <time>2026-05-15T06:35:30Z</time>
      </trkpt>
      <trkpt lat="43.68616" lon="7.13033">
        <ele>122.7</ele>
        <time>2026-05-15T06:35:31Z</time>
      </trkpt>
      <trkpt lat="43.68623" lon="7.13034">
        <ele>123.5</ele>
        <time>2026-05-15T06:35:32Z</time>
      </trkpt>
      <trkpt lat="43.6863" lon="7.13033">
        <ele>124.1</ele>
        <time>2026-05-15T06:35:33Z</time>
      </trkpt>
      <trkpt lat="43.68638" lon="7.13028">
        <ele>124</ele>
        <time>2026-05-15T06:35:34Z</time>
      </trkpt>
      <trkpt lat="43.68648" lon="7.13025">
        <ele>124.4</ele>
        <time>2026-05-15T06:35:35Z</time>
      </trkpt>
      <trkpt lat="43.68659" lon="7.13025">
        <ele>125.8</ele>
        <time>2026-05-15T06:35:36Z</time>
      </trkpt>
      <trkpt lat="43.68672" lon="7.13025">
        <ele>127</ele>
        <time>2026-05-15T06:35:37Z</time>
      </trkpt>
      <trkpt lat="43.68686" lon="7.13026">
        <ele>127.6</ele>
        <time>2026-05-15T06:35:38Z</time>
      </trkpt>
      <trkpt lat="43.687" lon="7.13027">
        <ele>127.9</ele>
        <time>2026-05-15T06:35:39Z</time>
      </trkpt>
      <trkpt lat="43.68714" lon="7.13029">
        <ele>128.5</ele>
        <time>2026-05-15T06:35:40Z</time>
      </trkpt>
      <trkpt lat="43.68729" lon="7.1303">
        <ele>129.4</ele>
        <time>2026-05-15T06:35:41Z</time>
      </trkpt>
      <trkpt lat="43.68744" lon="7.13032">
        <ele>131.2</ele>
        <time>2026-05-15T06:35:42Z</time>
      </trkpt>
      <trkpt lat="43.68761" lon="7.13034">
        <ele>132.6</ele>
        <time>2026-05-15T06:35:43Z</time>
      </trkpt>
      <trkpt lat="43.68779" lon="7.13036">
        <ele>134</ele>
        <time>2026-05-15T06:35:44Z</time>
      </trkpt>
      <trkpt lat="43.68797" lon="7.13039">
        <ele>135.9</ele>
        <time>2026-05-15T06:35:45Z</time>
      </trkpt>
      <trkpt lat="43.68815" lon="7.13041">
        <ele>137</ele>
        <time>2026-05-15T06:35:46Z</time>
      </trkpt>
      <trkpt lat="43.68834" lon="7.13044">
        <ele>138.1</ele>
        <time>2026-05-15T06:35:47Z</time>
      </trkpt>
      <trkpt lat="43.68852" lon="7.13047">
        <ele>138.6</ele>
        <time>2026-05-15T06:35:48Z</time>
      </trkpt>
      <trkpt lat="43.68871" lon="7.13052">
        <ele>138.6</ele>
        <time>2026-05-15T06:35:49Z</time>
      </trkpt>
      <trkpt lat="43.68887" lon="7.13063">
        <ele>140.8</ele>
        <time>2026-05-15T06:35:50Z</time>
      </trkpt>
      <trkpt lat="43.68903" lon="7.13077">
        <ele>142.9</ele>
        <time>2026-05-15T06:35:51Z</time>
      </trkpt>
      <trkpt lat="43.68919" lon="7.1309">
        <ele>142.4</ele>
        <time>2026-05-15T06:35:52Z</time>
      </trkpt>
      <trkpt lat="43.68936" lon="7.13102">
        <ele>143.9</ele>
        <time>2026-05-15T06:35:53Z</time>
      </trkpt>
      <trkpt lat="43.68955" lon="7.1311">
        <ele>143.9</ele>
        <time>2026-05-15T06:35:54Z</time>
      </trkpt>
      <trkpt lat="43.68973" lon="7.13114">
        <ele>145</ele>
        <time>2026-05-15T06:35:55Z</time>
      </trkpt>
      <trkpt lat="43.68992" lon="7.13114">
        <ele>145.4</ele>
        <time>2026-05-15T06:35:56Z</time>
      </trkpt>
      <trkpt lat="43.6901" lon="7.1311">
        <ele>148.4</ele>
        <time>2026-05-15T06:35:57Z</time>
      </trkpt>
      <trkpt lat="43.69027" lon="7.13101">
        <ele>151.5</ele>
        <time>2026-05-15T06:35:58Z</time>
      </trkpt>
      <trkpt lat="43.69043" lon="7.1309">
        <ele>150.6</ele>
        <time>2026-05-15T06:35:59Z</time>
      </trkpt>
      <trkpt lat="43.6906" lon="7.13079">
        <ele>149.9</ele>
        <time>2026-05-15T06:36:00Z</time>
      </trkpt>
      <trkpt lat="43.69075" lon="7.13068">
        <ele>152.5</ele>
        <time>2026-05-15T06:36:01Z</time>
      </trkpt>
      <trkpt lat="43.6909" lon="7.13058">
        <ele>151.1</ele>
        <time>2026-05-15T06:36:02Z</time>
      </trkpt>
      <trkpt lat="43.69105" lon="7.13048">
        <ele>152.8</ele>
        <time>2026-05-15T06:36:03Z</time>
      </trkpt>
      <trkpt lat="43.6912" lon="7.13038">
        <ele>153</ele>
        <time>2026-05-15T06:36:04Z</time>
      </trkpt>
      <trkpt lat="43.69134" lon="7.13029">
        <ele>152.6</ele>
        <time>2026-05-15T06:36:05Z</time>
      </trkpt>
      <trkpt lat="43.69147" lon="7.1302">
        <ele>152.8</ele>
        <time>2026-05-15T06:36:06Z</time>
      </trkpt>
      <trkpt lat="43.69161" lon="7.13016">
        <ele>154.4</ele>
        <time>2026-05-15T06:36:07Z</time>
      </trkpt>
      <trkpt lat="43.69175" lon="7.13013">
        <ele>155.2</ele>
        <time>2026-05-15T06:36:08Z</time>
      </trkpt>
      <trkpt lat="43.6919" lon="7.13014">
        <ele>156.3</ele>
        <time>2026-05-15T06:36:09Z</time>
      </trkpt>
      <trkpt lat="43.69205" lon="7.13016">
        <ele>156.4</ele>
        <time>2026-05-15T06:36:10Z</time>
      </trkpt>
      <trkpt lat="43.6922" lon="7.13018">
        <ele>156</ele>
        <time>2026-05-15T06:36:11Z</time>
      </trkpt>
      <trkpt lat="43.69236" lon="7.13019">
        <ele>156.3</ele>
        <time>2026-05-15T06:36:12Z</time>
      </trkpt>
      <trkpt lat="43.69253" lon="7.13021">
        <ele>156.8</ele>
        <time>2026-05-15T06:36:13Z</time>
      </trkpt>
      <trkpt lat="43.6927" lon="7.13024">
        <ele>156.9</ele>
        <time>2026-05-15T06:36:14Z</time>
      </trkpt>
      <trkpt lat="43.69287" lon="7.13026">
        <ele>156.8</ele>
        <time>2026-05-15T06:36:15Z</time>
      </trkpt>
      <trkpt lat="43.69304" lon="7.13028">
        <ele>157.1</ele>
        <time>2026-05-15T06:36:16Z</time>
      </trkpt>
      <trkpt lat="43.69322" lon="7.13031">
        <ele>158.6</ele>
        <time>2026-05-15T06:36:17Z</time>
      </trkpt>
      <trkpt lat="43.69339" lon="7.13033">
        <ele>159.4</ele>
        <time>2026-05-15T06:36:18Z</time>
      </trkpt>
      <trkpt lat="43.69356" lon="7.13036">
        <ele>160.4</ele>
        <time>2026-05-15T06:36:19Z</time>
      </trkpt>
      <trkpt lat="43.69373" lon="7.13038">
        <ele>161</ele>
        <time>2026-05-15T06:36:20Z</time>
      </trkpt>
      <trkpt lat="43.6939" lon="7.1304">
        <ele>161.3</ele>
        <time>2026-05-15T06:36:21Z</time>
      </trkpt>
      <trkpt lat="43.69406" lon="7.1304">
        <ele>161</ele>
        <time>2026-05-15T06:36:22Z</time>
      </trkpt>
      <trkpt lat="43.69422" lon="7.13039">
        <ele>161.6</ele>
        <time>2026-05-15T06:36:23Z</time>
      </trkpt>
      <trkpt lat="43.69436" lon="7.13037">
        <ele>163.2</ele>
        <time>2026-05-15T06:36:24Z</time>
      </trkpt>
      <trkpt lat="43.6945" lon="7.13035">
        <ele>164.4</ele>
        <time>2026-05-15T06:36:25Z</time>
      </trkpt>
      <trkpt lat="43.69464" lon="7.13033">
        <ele>164.9</ele>
        <time>2026-05-15T06:36:26Z</time>
      </trkpt>
      <trkpt lat="43.69477" lon="7.13031">
        <ele>165.1</ele>
        <time>2026-05-15T06:36:27Z</time>
      </trkpt>
      <trkpt lat="43.69489" lon="7.13029">
        <ele>165.3</ele>
        <time>2026-05-15T06:36:28Z</time>
      </trkpt>
      <trkpt lat="43.69502" lon="7.13027">
        <ele>166</ele>
        <time>2026-05-15T06:36:29Z</time>
      </trkpt>
      <trkpt lat="43.69516" lon="7.13026">
        <ele>166.8</ele>
        <time>2026-05-15T06:36:30Z</time>
      </trkpt>
      <trkpt lat="43.6953" lon="7.13024">
        <ele>167.6</ele>
        <time>2026-05-15T06:36:31Z</time>
      </trkpt>
      <trkpt lat="43.69543" lon="7.13022">
        <ele>168.2</ele>
        <time>2026-05-15T06:36:32Z</time>
      </trkpt>
      <trkpt lat="43.69558" lon="7.1302">
        <ele>168.9</ele>
        <time>2026-05-15T06:36:33Z</time>
      </trkpt>
      <trkpt lat="43.69572" lon="7.13018">
        <ele>170.2</ele>
        <time>2026-05-15T06:36:34Z</time>
      </trkpt>
      <trkpt lat="43.69586" lon="7.13015">
        <ele>170.4</ele>
        <time>2026-05-15T06:36:35Z</time>
      </trkpt>
      <trkpt lat="43.69601" lon="7.13013">
        <ele>170.1</ele>
        <time>2026-05-15T06:36:36Z</time>
      </trkpt>
      <trkpt lat="43.69616" lon="7.13011">
        <ele>169.9</ele>
        <time>2026-05-15T06:36:37Z</time>
      </trkpt>
      <trkpt lat="43.69632" lon="7.1301">
        <ele>170</ele>
        <time>2026-05-15T06:36:38Z</time>
      </trkpt>
      <trkpt lat="43.69648" lon="7.1301">
        <ele>170.4</ele>
        <time>2026-05-15T06:36:39Z</time>
      </trkpt>
      <trkpt lat="43.69664" lon="7.13012">
        <ele>171.1</ele>
        <time>2026-05-15T06:36:40Z</time>
      </trkpt>
      <trkpt lat="43.69679" lon="7.13012">
        <ele>171.6</ele>
        <time>2026-05-15T06:36:41Z</time>
      </trkpt>
      <trkpt lat="43.69694" lon="7.13013">
        <ele>172.3</ele>
        <time>2026-05-15T06:36:42Z</time>
      </trkpt>
      <trkpt lat="43.69709" lon="7.13012">
        <ele>172.5</ele>
        <time>2026-05-15T06:36:43Z</time>
      </trkpt>
      <trkpt lat="43.69724" lon="7.13009">
        <ele>172.4</ele>
        <time>2026-05-15T06:36:44Z</time>
      </trkpt>
      <trkpt lat="43.69739" lon="7.13004">
        <ele>172.4</ele>
        <time>2026-05-15T06:36:45Z</time>
      </trkpt>
      <trkpt lat="43.69754" lon="7.13">
        <ele>172.4</ele>
        <time>2026-05-15T06:36:46Z</time>
      </trkpt>
      <trkpt lat="43.69769" lon="7.12997">
        <ele>173.3</ele>
        <time>2026-05-15T06:36:47Z</time>
      </trkpt>
      <trkpt lat="43.69783" lon="7.12995">
        <ele>174.1</ele>
        <time>2026-05-15T06:36:48Z</time>
      </trkpt>
      <trkpt lat="43.69798" lon="7.12996">
        <ele>174.9</ele>
        <time>2026-05-15T06:36:49Z</time>
      </trkpt>
      <trkpt lat="43.69812" lon="7.12999">
        <ele>175.5</ele>
        <time>2026-05-15T06:36:50Z</time>
      </trkpt>
      <trkpt lat="43.69825" lon="7.13002">
        <ele>175.8</ele>
        <time>2026-05-15T06:36:51Z</time>
      </trkpt>
      <trkpt lat="43.69838" lon="7.13005">
        <ele>176.4</ele>
        <time>2026-05-15T06:36:52Z</time>
      </trkpt>
      <trkpt lat="43.69851" lon="7.13008">
        <ele>177.3</ele>
        <time>2026-05-15T06:36:53Z</time>
      </trkpt>
      <trkpt lat="43.69862" lon="7.1301">
        <ele>177.8</ele>
        <time>2026-05-15T06:36:54Z</time>
      </trkpt>
      <trkpt lat="43.69874" lon="7.1301">
        <ele>178.4</ele>
        <time>2026-05-15T06:36:55Z</time>
      </trkpt>
      <trkpt lat="43.69885" lon="7.1301">
        <ele>179</ele>
        <time>2026-05-15T06:36:56Z</time>
      </trkpt>
      <trkpt lat="43.69896" lon="7.13007">
        <ele>179</ele>
        <time>2026-05-15T06:36:57Z</time>
      </trkpt>
      <trkpt lat="43.69907" lon="7.13003">
        <ele>178.5</ele>
        <time>2026-05-15T06:36:58Z</time>
      </trkpt>
      <trkpt lat="43.69918" lon="7.13">
        <ele>178.2</ele>
        <time>2026-05-15T06:36:59Z</time>
      </trkpt>
      <trkpt lat="43.69929" lon="7.12997">
        <ele>179.6</ele>
        <time>2026-05-15T06:37:00Z</time>
      </trkpt>
      <trkpt lat="43.6994" lon="7.12994">
        <ele>180.8</ele>
        <time>2026-05-15T06:37:01Z</time>
      </trkpt>
      <trkpt lat="43.69951" lon="7.12992">
        <ele>181.2</ele>
        <time>2026-05-15T06:37:02Z</time>
      </trkpt>
      <trkpt lat="43.69961" lon="7.1299">
        <ele>181.1</ele>
        <time>2026-05-15T06:37:03Z</time>
      </trkpt>
      <trkpt lat="43.69972" lon="7.12991">
        <ele>181.7</ele>
        <time>2026-05-15T06:37:04Z</time>
      </trkpt>
      <trkpt lat="43.69982" lon="7.12995">
        <ele>181.8</ele>
        <time>2026-05-15T06:37:05Z</time>
      </trkpt>
      <trkpt lat="43.69992" lon="7.13001">
        <ele>182.1</ele>
        <time>2026-05-15T06:37:06Z</time>
      </trkpt>
      <trkpt lat="43.70002" lon="7.1301">
        <ele>182.8</ele>
        <time>2026-05-15T06:37:07Z</time>
      </trkpt>
      <trkpt lat="43.7001" lon="7.13022">
        <ele>184</ele>
        <time>2026-05-15T06:37:08Z</time>
      </trkpt>
      <trkpt lat="43.70018" lon="7.13033">
        <ele>184.5</ele>
        <time>2026-05-15T06:37:09Z</time>
      </trkpt>
      <trkpt lat="43.70026" lon="7.13044">
        <ele>184.2</ele>
        <time>2026-05-15T06:37:10Z</time>
      </trkpt>
      <trkpt lat="43.70033" lon="7.13054">
        <ele>184.4</ele>
        <time>2026-05-15T06:37:11Z</time>
      </trkpt>
      <trkpt lat="43.70039" lon="7.13063">
        <ele>184.6</ele>
        <time>2026-05-15T06:37:12Z</time>
      </trkpt>
      <trkpt lat="43.70045" lon="7.13071">
        <ele>184.5</ele>
        <time>2026-05-15T06:37:13Z</time>
      </trkpt>
      <trkpt lat="43.70049" lon="7.13077">
        <ele>184.4</ele>
        <time>2026-05-15T06:37:14Z</time>
      </trkpt>
      <trkpt lat="43.70053" lon="7.13083">
        <ele>184.3</ele>
        <time>2026-05-15T06:37:15Z</time>
      </trkpt>
      <trkpt lat="43.70057" lon="7.13088">
        <ele>184</ele>
        <time>2026-05-15T06:37:16Z</time>
      </trkpt>
      <trkpt lat="43.7006" lon="7.13092">
        <ele>184</ele>
        <time>2026-05-15T06:37:17Z</time>
      </trkpt>
      <trkpt lat="43.70062" lon="7.13095">
        <ele>184.1</ele>
        <time>2026-05-15T06:37:18Z</time>
      </trkpt>
      <trkpt lat="43.70064" lon="7.13098">
        <ele>184.2</ele>
        <time>2026-05-15T06:37:19Z</time>
      </trkpt>
      <trkpt lat="43.70066" lon="7.131">
        <ele>184.2</ele>
        <time>2026-05-15T06:37:20Z</time>
      </trkpt>
      <trkpt lat="43.70068" lon="7.13103">
        <ele>184.3</ele>
        <time>2026-05-15T06:37:21Z</time>
      </trkpt>
      <trkpt lat="43.70071" lon="7.13107">
        <ele>184.5</ele>
        <time>2026-05-15T06:37:22Z</time>
      </trkpt>
      <trkpt lat="43.70074" lon="7.13112">
        <ele>184.6</ele>
        <time>2026-05-15T06:37:23Z</time>
      </trkpt>
      <trkpt lat="43.70078" lon="7.13117">
        <ele>184.7</ele>
        <time>2026-05-15T06:37:24Z</time>
      </trkpt>
      <trkpt lat="43.70082" lon="7.13122">
        <ele>184.9</ele>
        <time>2026-05-15T06:37:25Z</time>
      </trkpt>
      <trkpt lat="43.70084" lon="7.13126">
        <ele>185</ele>
        <time>2026-05-15T06:37:26Z</time>
      </trkpt>
      <trkpt lat="43.70087" lon="7.1313">
        <ele>185.1</ele>
        <time>2026-05-15T06:37:27Z</time>
      </trkpt>
      <trkpt lat="43.70089" lon="7.13136">
        <ele>185.2</ele>
        <time>2026-05-15T06:37:28Z</time>
      </trkpt>
      <trkpt lat="43.70091" lon="7.13145">
        <ele>184.6</ele>
        <time>2026-05-15T06:37:29Z</time>
      </trkpt>
      <trkpt lat="43.70095" lon="7.13154">
        <ele>184.2</ele>
        <time>2026-05-15T06:37:30Z</time>
      </trkpt>
      <trkpt lat="43.70102" lon="7.13161">
        <ele>184.6</ele>
        <time>2026-05-15T06:37:31Z</time>
      </trkpt>
      <trkpt lat="43.70111" lon="7.13166">
        <ele>186</ele>
        <time>2026-05-15T06:37:32Z</time>
      </trkpt>
      <trkpt lat="43.70118" lon="7.13173">
        <ele>186.6</ele>
        <time>2026-05-15T06:37:33Z</time>
      </trkpt>
      <trkpt lat="43.70125" lon="7.13182">
        <ele>186.6</ele>
        <time>2026-05-15T06:37:34Z</time>
      </trkpt>
      <trkpt lat="43.70132" lon="7.13193">
        <ele>185.9</ele>
        <time>2026-05-15T06:37:35Z</time>
      </trkpt>
      <trkpt lat="43.70141" lon="7.13204">
        <ele>186</ele>
        <time>2026-05-15T06:37:36Z</time>
      </trkpt>
      <trkpt lat="43.7015" lon="7.13216">
        <ele>185.9</ele>
        <time>2026-05-15T06:37:37Z</time>
      </trkpt>
      <trkpt lat="43.70158" lon="7.13227">
        <ele>185</ele>
        <time>2026-05-15T06:37:38Z</time>
      </trkpt>
      <trkpt lat="43.70168" lon="7.13236">
        <ele>185</ele>
        <time>2026-05-15T06:37:39Z</time>
      </trkpt>
      <trkpt lat="43.70178" lon="7.13243">
        <ele>185</ele>
        <time>2026-05-15T06:37:40Z</time>
      </trkpt>
      <trkpt lat="43.70188" lon="7.13248">
        <ele>184.5</ele>
        <time>2026-05-15T06:37:41Z</time>
      </trkpt>
      <trkpt lat="43.70199" lon="7.13251">
        <ele>183.6</ele>
        <time>2026-05-15T06:37:42Z</time>
      </trkpt>
      <trkpt lat="43.70209" lon="7.13253">
        <ele>182.7</ele>
        <time>2026-05-15T06:37:43Z</time>
      </trkpt>
      <trkpt lat="43.70219" lon="7.13254">
        <ele>181.8</ele>
        <time>2026-05-15T06:37:44Z</time>
      </trkpt>
      <trkpt lat="43.70229" lon="7.13254">
        <ele>181.1</ele>
        <time>2026-05-15T06:37:45Z</time>
      </trkpt>
      <trkpt lat="43.70238" lon="7.13254">
        <ele>180.4</ele>
        <time>2026-05-15T06:37:46Z</time>
      </trkpt>
      <trkpt lat="43.70247" lon="7.13253">
        <ele>179.9</ele>
        <time>2026-05-15T06:37:47Z</time>
      </trkpt>
      <trkpt lat="43.70257" lon="7.13253">
        <ele>179.9</ele>
        <time>2026-05-15T06:37:48Z</time>
      </trkpt>
      <trkpt lat="43.70268" lon="7.13252">
        <ele>180.4</ele>
        <time>2026-05-15T06:37:49Z</time>
      </trkpt>
      <trkpt lat="43.70279" lon="7.13254">
        <ele>180.6</ele>
        <time>2026-05-15T06:37:50Z</time>
      </trkpt>
      <trkpt lat="43.70289" lon="7.13257">
        <ele>180.6</ele>
        <time>2026-05-15T06:37:51Z</time>
      </trkpt>
      <trkpt lat="43.70297" lon="7.13262">
        <ele>180.4</ele>
        <time>2026-05-15T06:37:52Z</time>
      </trkpt>
      <trkpt lat="43.70305" lon="7.13267">
        <ele>180.1</ele>
        <time>2026-05-15T06:37:53Z</time>
      </trkpt>
      <trkpt lat="43.70312" lon="7.13274">
        <ele>180</ele>
        <time>2026-05-15T06:37:54Z</time>
      </trkpt>
      <trkpt lat="43.70319" lon="7.13281">
        <ele>180.2</ele>
        <time>2026-05-15T06:37:55Z</time>
      </trkpt>
      <trkpt lat="43.70326" lon="7.13288">
        <ele>180.2</ele>
        <time>2026-05-15T06:37:56Z</time>
      </trkpt>
      <trkpt lat="43.70334" lon="7.13296">
        <ele>180.1</ele>
        <time>2026-05-15T06:37:57Z</time>
      </trkpt>
      <trkpt lat="43.70343" lon="7.13304">
        <ele>179.8</ele>
        <time>2026-05-15T06:37:58Z</time>
      </trkpt>
      <trkpt lat="43.70351" lon="7.13313">
        <ele>180</ele>
        <time>2026-05-15T06:37:59Z</time>
      </trkpt>
      <trkpt lat="43.7036" lon="7.13321">
        <ele>180.4</ele>
        <time>2026-05-15T06:38:00Z</time>
      </trkpt>
      <trkpt lat="43.7037" lon="7.13328">
        <ele>180.3</ele>
        <time>2026-05-15T06:38:01Z</time>
      </trkpt>
      <trkpt lat="43.7038" lon="7.13334">
        <ele>180</ele>
        <time>2026-05-15T06:38:02Z</time>
      </trkpt>
      <trkpt lat="43.7039" lon="7.13338">
        <ele>179.9</ele>
        <time>2026-05-15T06:38:03Z</time>
      </trkpt>
      <trkpt lat="43.70401" lon="7.13342">
        <ele>180.3</ele>
        <time>2026-05-15T06:38:04Z</time>
      </trkpt>
      <trkpt lat="43.70412" lon="7.13344">
        <ele>180.8</ele>
        <time>2026-05-15T06:38:05Z</time>
      </trkpt>
      <trkpt lat="43.70422" lon="7.13345">
        <ele>180.9</ele>
        <time>2026-05-15T06:38:06Z</time>
      </trkpt>
      <trkpt lat="43.70432" lon="7.13344">
        <ele>180.8</ele>
        <time>2026-05-15T06:38:07Z</time>
      </trkpt>
      <trkpt lat="43.70441" lon="7.13342">
        <ele>180.7</ele>
        <time>2026-05-15T06:38:08Z</time>
      </trkpt>
      <trkpt lat="43.70451" lon="7.13339">
        <ele>180.6</ele>
        <time>2026-05-15T06:38:09Z</time>
      </trkpt>
      <trkpt lat="43.70461" lon="7.13335">
        <ele>180.3</ele>
        <time>2026-05-15T06:38:10Z</time>
      </trkpt>
      <trkpt lat="43.7047" lon="7.1333">
        <ele>180.2</ele>
        <time>2026-05-15T06:38:11Z</time>
      </trkpt>
      <trkpt lat="43.70479" lon="7.13324">
        <ele>180</ele>
        <time>2026-05-15T06:38:12Z</time>
      </trkpt>
      <trkpt lat="43.70488" lon="7.13318">
        <ele>179.7</ele>
        <time>2026-05-15T06:38:13Z</time>
      </trkpt>
      <trkpt lat="43.70497" lon="7.13313">
        <ele>179.2</ele>
        <time>2026-05-15T06:38:14Z</time>
      </trkpt>
      <trkpt lat="43.70506" lon="7.13308">
        <ele>178.8</ele>
        <time>2026-05-15T06:38:15Z</time>
      </trkpt>
      <trkpt lat="43.70515" lon="7.13302">
        <ele>178.6</ele>
        <time>2026-05-15T06:38:16Z</time>
      </trkpt>
      <trkpt lat="43.70524" lon="7.13297">
        <ele>178.4</ele>
        <time>2026-05-15T06:38:17Z</time>
      </trkpt>
      <trkpt lat="43.70533" lon="7.13291">
        <ele>178.1</ele>
        <time>2026-05-15T06:38:18Z</time>
      </trkpt>
      <trkpt lat="43.70543" lon="7.13286">
        <ele>177.6</ele>
        <time>2026-05-15T06:38:19Z</time>
      </trkpt>
      <trkpt lat="43.70553" lon="7.1328">
        <ele>177.1</ele>
        <time>2026-05-15T06:38:20Z</time>
      </trkpt>
      <trkpt lat="43.70563" lon="7.13273">
        <ele>176.8</ele>
        <time>2026-05-15T06:38:21Z</time>
      </trkpt>
      <trkpt lat="43.70573" lon="7.13267">
        <ele>176.5</ele>
        <time>2026-05-15T06:38:22Z</time>
      </trkpt>
      <trkpt lat="43.70584" lon="7.1326">
        <ele>176.2</ele>
        <time>2026-05-15T06:38:23Z</time>
      </trkpt>
      <trkpt lat="43.70594" lon="7.13254">
        <ele>175.4</ele>
        <time>2026-05-15T06:38:24Z</time>
      </trkpt>
      <trkpt lat="43.70604" lon="7.13249">
        <ele>174.9</ele>
        <time>2026-05-15T06:38:25Z</time>
      </trkpt>
      <trkpt lat="43.70614" lon="7.13243">
        <ele>174.4</ele>
        <time>2026-05-15T06:38:26Z</time>
      </trkpt>
      <trkpt lat="43.70623" lon="7.13238">
        <ele>174</ele>
        <time>2026-05-15T06:38:27Z</time>
      </trkpt>
      <trkpt lat="43.70632" lon="7.13232">
        <ele>173.9</ele>
        <time>2026-05-15T06:38:28Z</time>
      </trkpt>
      <trkpt lat="43.7064" lon="7.13227">
        <ele>174</ele>
        <time>2026-05-15T06:38:29Z</time>
      </trkpt>
      <trkpt lat="43.70649" lon="7.13222">
        <ele>173.6</ele>
        <time>2026-05-15T06:38:30Z</time>
      </trkpt>
      <trkpt lat="43.70657" lon="7.13216">
        <ele>173.1</ele>
        <time>2026-05-15T06:38:31Z</time>
      </trkpt>
      <trkpt lat="43.70666" lon="7.13209">
        <ele>173</ele>
        <time>2026-05-15T06:38:32Z</time>
      </trkpt>
      <trkpt lat="43.70674" lon="7.13203">
        <ele>172.7</ele>
        <time>2026-05-15T06:38:33Z</time>
      </trkpt>
      <trkpt lat="43.70682" lon="7.13197">
        <ele>172.8</ele>
        <time>2026-05-15T06:38:34Z</time>
      </trkpt>
      <trkpt lat="43.7069" lon="7.1319">
        <ele>172.9</ele>
        <time>2026-05-15T06:38:35Z</time>
      </trkpt>
      <trkpt lat="43.70697" lon="7.13185">
        <ele>172.7</ele>
        <time>2026-05-15T06:38:36Z</time>
      </trkpt>
      <trkpt lat="43.70703" lon="7.1318">
        <ele>172.5</ele>
        <time>2026-05-15T06:38:37Z</time>
      </trkpt>
      <trkpt lat="43.70708" lon="7.13175">
        <ele>172.7</ele>
        <time>2026-05-15T06:38:38Z</time>
      </trkpt>
      <trkpt lat="43.70713" lon="7.13171">
        <ele>172.9</ele>
        <time>2026-05-15T06:38:39Z</time>
      </trkpt>
      <trkpt lat="43.70717" lon="7.13168">
        <ele>173.1</ele>
        <time>2026-05-15T06:38:40Z</time>
      </trkpt>
      <trkpt lat="43.7072" lon="7.13164">
        <ele>173.1</ele>
        <time>2026-05-15T06:38:41Z</time>
      </trkpt>
      <trkpt lat="43.70724" lon="7.1316">
        <ele>172.9</ele>
        <time>2026-05-15T06:38:42Z</time>
      </trkpt>
      <trkpt lat="43.70728" lon="7.13155">
        <ele>172.8</ele>
        <time>2026-05-15T06:38:43Z</time>
      </trkpt>
      <trkpt lat="43.70734" lon="7.13151">
        <ele>172.9</ele>
        <time>2026-05-15T06:38:44Z</time>
      </trkpt>
      <trkpt lat="43.70741" lon="7.13147">
        <ele>173.1</ele>
        <time>2026-05-15T06:38:45Z</time>
      </trkpt>
      <trkpt lat="43.70749" lon="7.13146">
        <ele>173.2</ele>
        <time>2026-05-15T06:38:46Z</time>
      </trkpt>
      <trkpt lat="43.70755" lon="7.13143">
        <ele>173.5</ele>
        <time>2026-05-15T06:38:47Z</time>
      </trkpt>
      <trkpt lat="43.70761" lon="7.13138">
        <ele>174</ele>
        <time>2026-05-15T06:38:48Z</time>
      </trkpt>
      <trkpt lat="43.70764" lon="7.13129">
        <ele>174.2</ele>
        <time>2026-05-15T06:38:49Z</time>
      </trkpt>
      <trkpt lat="43.70765" lon="7.13119">
        <ele>174.4</ele>
        <time>2026-05-15T06:38:50Z</time>
      </trkpt>
      <trkpt lat="43.70764" lon="7.13106">
        <ele>174</ele>
        <time>2026-05-15T06:38:51Z</time>
      </trkpt>
      <trkpt lat="43.70764" lon="7.13093">
        <ele>172.6</ele>
        <time>2026-05-15T06:38:52Z</time>
      </trkpt>
      <trkpt lat="43.70766" lon="7.13078">
        <ele>171.4</ele>
        <time>2026-05-15T06:38:53Z</time>
      </trkpt>
      <trkpt lat="43.7077" lon="7.13063">
        <ele>170.9</ele>
        <time>2026-05-15T06:38:54Z</time>
      </trkpt>
      <trkpt lat="43.70775" lon="7.13047">
        <ele>170.5</ele>
        <time>2026-05-15T06:38:55Z</time>
      </trkpt>
      <trkpt lat="43.70779" lon="7.1303">
        <ele>169.5</ele>
        <time>2026-05-15T06:38:56Z</time>
      </trkpt>
      <trkpt lat="43.70785" lon="7.13013">
        <ele>169.8</ele>
        <time>2026-05-15T06:38:57Z</time>
      </trkpt>
      <trkpt lat="43.7079" lon="7.12996">
        <ele>169.8</ele>
        <time>2026-05-15T06:38:58Z</time>
      </trkpt>
      <trkpt lat="43.70795" lon="7.1298">
        <ele>169.9</ele>
        <time>2026-05-15T06:38:59Z</time>
      </trkpt>
      <trkpt lat="43.708" lon="7.12963">
        <ele>169.9</ele>
        <time>2026-05-15T06:39:00Z</time>
      </trkpt>
      <trkpt lat="43.70805" lon="7.12947">
        <ele>170</ele>
        <time>2026-05-15T06:39:01Z</time>
      </trkpt>
      <trkpt lat="43.7081" lon="7.12931">
        <ele>170</ele>
        <time>2026-05-15T06:39:02Z</time>
      </trkpt>
      <trkpt lat="43.70814" lon="7.12918">
        <ele>169.9</ele>
        <time>2026-05-15T06:39:03Z</time>
      </trkpt>
      <trkpt lat="43.70818" lon="7.12907">
        <ele>170</ele>
        <time>2026-05-15T06:39:04Z</time>
      </trkpt>
      <trkpt lat="43.70822" lon="7.12897">
        <ele>170.1</ele>
        <time>2026-05-15T06:39:05Z</time>
      </trkpt>
      <trkpt lat="43.70825" lon="7.12888">
        <ele>170.1</ele>
        <time>2026-05-15T06:39:06Z</time>
      </trkpt>
      <trkpt lat="43.70829" lon="7.12879">
        <ele>170.4</ele>
        <time>2026-05-15T06:39:07Z</time>
      </trkpt>
      <trkpt lat="43.70834" lon="7.1287">
        <ele>170.8</ele>
        <time>2026-05-15T06:39:08Z</time>
      </trkpt>
      <trkpt lat="43.70839" lon="7.12859">
        <ele>170.9</ele>
        <time>2026-05-15T06:39:09Z</time>
      </trkpt>
      <trkpt lat="43.70845" lon="7.12848">
        <ele>171.2</ele>
        <time>2026-05-15T06:39:10Z</time>
      </trkpt>
      <trkpt lat="43.70851" lon="7.12836">
        <ele>171.1</ele>
        <time>2026-05-15T06:39:11Z</time>
      </trkpt>
      <trkpt lat="43.70858" lon="7.12826">
        <ele>171.1</ele>
        <time>2026-05-15T06:39:12Z</time>
      </trkpt>
      <trkpt lat="43.70864" lon="7.12816">
        <ele>171.2</ele>
        <time>2026-05-15T06:39:13Z</time>
      </trkpt>
      <trkpt lat="43.70871" lon="7.12807">
        <ele>171.5</ele>
        <time>2026-05-15T06:39:14Z</time>
      </trkpt>
      <trkpt lat="43.70879" lon="7.12798">
        <ele>171.9</ele>
        <time>2026-05-15T06:39:15Z</time>
      </trkpt>
      <trkpt lat="43.70885" lon="7.1279">
        <ele>171.8</ele>
        <time>2026-05-15T06:39:16Z</time>
      </trkpt>
      <trkpt lat="43.70892" lon="7.12782">
        <ele>171.8</ele>
        <time>2026-05-15T06:39:17Z</time>
      </trkpt>
      <trkpt lat="43.70899" lon="7.12774">
        <ele>171.7</ele>
        <time>2026-05-15T06:39:18Z</time>
      </trkpt>
      <trkpt lat="43.70906" lon="7.12767">
        <ele>171.7</ele>
        <time>2026-05-15T06:39:19Z</time>
      </trkpt>
      <trkpt lat="43.70913" lon="7.1276">
        <ele>171.7</ele>
        <time>2026-05-15T06:39:20Z</time>
      </trkpt>
      <trkpt lat="43.7092" lon="7.12752">
        <ele>171.6</ele>
        <time>2026-05-15T06:39:21Z</time>
      </trkpt>
      <trkpt lat="43.70928" lon="7.12744">
        <ele>171.7</ele>
        <time>2026-05-15T06:39:22Z</time>
      </trkpt>
      <trkpt lat="43.70936" lon="7.12736">
        <ele>171.9</ele>
        <time>2026-05-15T06:39:23Z</time>
      </trkpt>
      <trkpt lat="43.70944" lon="7.12727">
        <ele>172.3</ele>
        <time>2026-05-15T06:39:24Z</time>
      </trkpt>
      <trkpt lat="43.70952" lon="7.12719">
        <ele>172.3</ele>
        <time>2026-05-15T06:39:25Z</time>
      </trkpt>
      <trkpt lat="43.7096" lon="7.12709">
        <ele>172.1</ele>
        <time>2026-05-15T06:39:26Z</time>
      </trkpt>
      <trkpt lat="43.70968" lon="7.12701">
        <ele>172.7</ele>
        <time>2026-05-15T06:39:27Z</time>
      </trkpt>
      <trkpt lat="43.70976" lon="7.12693">
        <ele>173.3</ele>
        <time>2026-05-15T06:39:28Z</time>
      </trkpt>
      <trkpt lat="43.70983" lon="7.12685">
        <ele>173.4</ele>
        <time>2026-05-15T06:39:29Z</time>
      </trkpt>
      <trkpt lat="43.70991" lon="7.12677">
        <ele>174</ele>
        <time>2026-05-15T06:39:30Z</time>
      </trkpt>
      <trkpt lat="43.70999" lon="7.12669">
        <ele>174.9</ele>
        <time>2026-05-15T06:39:31Z</time>
      </trkpt>
      <trkpt lat="43.71007" lon="7.1266">
        <ele>175.5</ele>
        <time>2026-05-15T06:39:32Z</time>
      </trkpt>
      <trkpt lat="43.71016" lon="7.12652">
        <ele>175.9</ele>
        <time>2026-05-15T06:39:33Z</time>
      </trkpt>
      <trkpt lat="43.71026" lon="7.12643">
        <ele>176.2</ele>
        <time>2026-05-15T06:39:34Z</time>
      </trkpt>
      <trkpt lat="43.71034" lon="7.12635">
        <ele>176.8</ele>
        <time>2026-05-15T06:39:35Z</time>
      </trkpt>
      <trkpt lat="43.71043" lon="7.12626">
        <ele>177.6</ele>
        <time>2026-05-15T06:39:36Z</time>
      </trkpt>
      <trkpt lat="43.71051" lon="7.12619">
        <ele>178.1</ele>
        <time>2026-05-15T06:39:37Z</time>
      </trkpt>
      <trkpt lat="43.71059" lon="7.1261">
        <ele>178.4</ele>
        <time>2026-05-15T06:39:38Z</time>
      </trkpt>
      <trkpt lat="43.71067" lon="7.12602">
        <ele>178.7</ele>
        <time>2026-05-15T06:39:39Z</time>
      </trkpt>
      <trkpt lat="43.71075" lon="7.12593">
        <ele>178.8</ele>
        <time>2026-05-15T06:39:40Z</time>
      </trkpt>
      <trkpt lat="43.71084" lon="7.12584">
        <ele>179.1</ele>
        <time>2026-05-15T06:39:41Z</time>
      </trkpt>
      <trkpt lat="43.71093" lon="7.12575">
        <ele>179.4</ele>
        <time>2026-05-15T06:39:42Z</time>
      </trkpt>
      <trkpt lat="43.71103" lon="7.12566">
        <ele>179.9</ele>
        <time>2026-05-15T06:39:43Z</time>
      </trkpt>
      <trkpt lat="43.71112" lon="7.12557">
        <ele>180.2</ele>
        <time>2026-05-15T06:39:44Z</time>
      </trkpt>
      <trkpt lat="43.71122" lon="7.12548">
        <ele>180.6</ele>
        <time>2026-05-15T06:39:45Z</time>
      </trkpt>
      <trkpt lat="43.71131" lon="7.1254">
        <ele>181</ele>
        <time>2026-05-15T06:39:46Z</time>
      </trkpt>
      <trkpt lat="43.71141" lon="7.12533">
        <ele>181.6</ele>
        <time>2026-05-15T06:39:47Z</time>
      </trkpt>
      <trkpt lat="43.7115" lon="7.12525">
        <ele>182</ele>
        <time>2026-05-15T06:39:48Z</time>
      </trkpt>
      <trkpt lat="43.7116" lon="7.12518">
        <ele>182.6</ele>
        <time>2026-05-15T06:39:49Z</time>
      </trkpt>
      <trkpt lat="43.7117" lon="7.1251">
        <ele>183</ele>
        <time>2026-05-15T06:39:50Z</time>
      </trkpt>
      <trkpt lat="43.7118" lon="7.12503">
        <ele>183.2</ele>
        <time>2026-05-15T06:39:51Z</time>
      </trkpt>
      <trkpt lat="43.71191" lon="7.12497">
        <ele>183.3</ele>
        <time>2026-05-15T06:39:52Z</time>
      </trkpt>
      <trkpt lat="43.71201" lon="7.12489">
        <ele>183</ele>
        <time>2026-05-15T06:39:53Z</time>
      </trkpt>
      <trkpt lat="43.71212" lon="7.12482">
        <ele>183.1</ele>
        <time>2026-05-15T06:39:54Z</time>
      </trkpt>
      <trkpt lat="43.71222" lon="7.12474">
        <ele>183.2</ele>
        <time>2026-05-15T06:39:55Z</time>
      </trkpt>
      <trkpt lat="43.71232" lon="7.12465">
        <ele>183.7</ele>
        <time>2026-05-15T06:39:56Z</time>
      </trkpt>
      <trkpt lat="43.7124" lon="7.12453">
        <ele>183.9</ele>
        <time>2026-05-15T06:39:57Z</time>
      </trkpt>
      <trkpt lat="43.71246" lon="7.12439">
        <ele>184</ele>
        <time>2026-05-15T06:39:58Z</time>
      </trkpt>
      <trkpt lat="43.71251" lon="7.12424">
        <ele>184.5</ele>
        <time>2026-05-15T06:39:59Z</time>
      </trkpt>
      <trkpt lat="43.71253" lon="7.1241">
        <ele>184.7</ele>
        <time>2026-05-15T06:40:00Z</time>
      </trkpt>
      <trkpt lat="43.71255" lon="7.12397">
        <ele>185.2</ele>
        <time>2026-05-15T06:40:01Z</time>
      </trkpt>
      <trkpt lat="43.71255" lon="7.12385">
        <ele>185.5</ele>
        <time>2026-05-15T06:40:02Z</time>
      </trkpt>
      <trkpt lat="43.71256" lon="7.12375">
        <ele>186.4</ele>
        <time>2026-05-15T06:40:03Z</time>
      </trkpt>
      <trkpt lat="43.71257" lon="7.12368">
        <ele>187.1</ele>
        <time>2026-05-15T06:40:04Z</time>
      </trkpt>
      <trkpt lat="43.71257" lon="7.12362">
        <ele>187.5</ele>
        <time>2026-05-15T06:40:05Z</time>
      </trkpt>
      <trkpt lat="43.71258" lon="7.12357">
        <ele>187.9</ele>
        <time>2026-05-15T06:40:06Z</time>
      </trkpt>
      <trkpt lat="43.71258" lon="7.1235">
        <ele>188.1</ele>
        <time>2026-05-15T06:40:07Z</time>
      </trkpt>
      <trkpt lat="43.71258" lon="7.12343">
        <ele>188.4</ele>
        <time>2026-05-15T06:40:08Z</time>
      </trkpt>
      <trkpt lat="43.71259" lon="7.12335">
        <ele>188.9</ele>
        <time>2026-05-15T06:40:09Z</time>
      </trkpt>
      <trkpt lat="43.71259" lon="7.12325">
        <ele>189</ele>
        <time>2026-05-15T06:40:10Z</time>
      </trkpt>
      <trkpt lat="43.71261" lon="7.12314">
        <ele>189.7</ele>
        <time>2026-05-15T06:40:11Z</time>
      </trkpt>
      <trkpt lat="43.71263" lon="7.12302">
        <ele>190.4</ele>
        <time>2026-05-15T06:40:12Z</time>
      </trkpt>
      <trkpt lat="43.71265" lon="7.12289">
        <ele>191.4</ele>
        <time>2026-05-15T06:40:13Z</time>
      </trkpt>
      <trkpt lat="43.71267" lon="7.12275">
        <ele>192.4</ele>
        <time>2026-05-15T06:40:14Z</time>
      </trkpt>
      <trkpt lat="43.7127" lon="7.1226">
        <ele>193.7</ele>
        <time>2026-05-15T06:40:15Z</time>
      </trkpt>
      <trkpt lat="43.71274" lon="7.12246">
        <ele>195</ele>
        <time>2026-05-15T06:40:16Z</time>
      </trkpt>
      <trkpt lat="43.71278" lon="7.12233">
        <ele>196.1</ele>
        <time>2026-05-15T06:40:17Z</time>
      </trkpt>
      <trkpt lat="43.71283" lon="7.1222">
        <ele>197.3</ele>
        <time>2026-05-15T06:40:18Z</time>
      </trkpt>
      <trkpt lat="43.71288" lon="7.12205">
        <ele>198.3</ele>
        <time>2026-05-15T06:40:19Z</time>
      </trkpt>
      <trkpt lat="43.71294" lon="7.12193">
        <ele>199.5</ele>
        <time>2026-05-15T06:40:20Z</time>
      </trkpt>
      <trkpt lat="43.71299" lon="7.12181">
        <ele>200.1</ele>
        <time>2026-05-15T06:40:21Z</time>
      </trkpt>
      <trkpt lat="43.71304" lon="7.1217">
        <ele>200.8</ele>
        <time>2026-05-15T06:40:22Z</time>
      </trkpt>
      <trkpt lat="43.71309" lon="7.12159">
        <ele>201.2</ele>
        <time>2026-05-15T06:40:23Z</time>
      </trkpt>
      <trkpt lat="43.71315" lon="7.12147">
        <ele>201.9</ele>
        <time>2026-05-15T06:40:24Z</time>
      </trkpt>
      <trkpt lat="43.71321" lon="7.12134">
        <ele>202.5</ele>
        <time>2026-05-15T06:40:25Z</time>
      </trkpt>
      <trkpt lat="43.71327" lon="7.12121">
        <ele>203</ele>
        <time>2026-05-15T06:40:26Z</time>
      </trkpt>
      <trkpt lat="43.71333" lon="7.12107">
        <ele>203.6</ele>
        <time>2026-05-15T06:40:27Z</time>
      </trkpt>
      <trkpt lat="43.7134" lon="7.12093">
        <ele>204.9</ele>
        <time>2026-05-15T06:40:28Z</time>
      </trkpt>
      <trkpt lat="43.71347" lon="7.12078">
        <ele>206.3</ele>
        <time>2026-05-15T06:40:29Z</time>
      </trkpt>
      <trkpt lat="43.71355" lon="7.12063">
        <ele>208</ele>
        <time>2026-05-15T06:40:30Z</time>
      </trkpt>
      <trkpt lat="43.71362" lon="7.12047">
        <ele>209.8</ele>
        <time>2026-05-15T06:40:31Z</time>
      </trkpt>
      <trkpt lat="43.7137" lon="7.12033">
        <ele>212.8</ele>
        <time>2026-05-15T06:40:32Z</time>
      </trkpt>
      <trkpt lat="43.71376" lon="7.12018">
        <ele>214.8</ele>
        <time>2026-05-15T06:40:33Z</time>
      </trkpt>
      <trkpt lat="43.71383" lon="7.12005">
        <ele>216.9</ele>
        <time>2026-05-15T06:40:34Z</time>
      </trkpt>
      <trkpt lat="43.71391" lon="7.1199">
        <ele>218.5</ele>
        <time>2026-05-15T06:40:35Z</time>
      </trkpt>
      <trkpt lat="43.71399" lon="7.11976">
        <ele>220.6</ele>
        <time>2026-05-15T06:40:36Z</time>
      </trkpt>
      <trkpt lat="43.71407" lon="7.11962">
        <ele>222.9</ele>
        <time>2026-05-15T06:40:37Z</time>
      </trkpt>
      <trkpt lat="43.71414" lon="7.11947">
        <ele>223.5</ele>
        <time>2026-05-15T06:40:38Z</time>
      </trkpt>
      <trkpt lat="43.7142" lon="7.11933">
        <ele>223.6</ele>
        <time>2026-05-15T06:40:39Z</time>
      </trkpt>
      <trkpt lat="43.71426" lon="7.11919">
        <ele>223.8</ele>
        <time>2026-05-15T06:40:40Z</time>
      </trkpt>
      <trkpt lat="43.7143" lon="7.11907">
        <ele>224.2</ele>
        <time>2026-05-15T06:40:41Z</time>
      </trkpt>
      <trkpt lat="43.71434" lon="7.11894">
        <ele>224.3</ele>
        <time>2026-05-15T06:40:42Z</time>
      </trkpt>
      <trkpt lat="43.71439" lon="7.11882">
        <ele>224.6</ele>
        <time>2026-05-15T06:40:43Z</time>
      </trkpt>
      <trkpt lat="43.71444" lon="7.1187">
        <ele>224.8</ele>
        <time>2026-05-15T06:40:44Z</time>
      </trkpt>
      <trkpt lat="43.7145" lon="7.1186">
        <ele>225.9</ele>
        <time>2026-05-15T06:40:45Z</time>
      </trkpt>
      <trkpt lat="43.71458" lon="7.1185">
        <ele>227.7</ele>
        <time>2026-05-15T06:40:46Z</time>
      </trkpt>
      <trkpt lat="43.71466" lon="7.11841">
        <ele>228.8</ele>
        <time>2026-05-15T06:40:47Z</time>
      </trkpt>
      <trkpt lat="43.71474" lon="7.11831">
        <ele>229.4</ele>
        <time>2026-05-15T06:40:48Z</time>
      </trkpt>
      <trkpt lat="43.71481" lon="7.11822">
        <ele>230.8</ele>
        <time>2026-05-15T06:40:49Z</time>
      </trkpt>
      <trkpt lat="43.71489" lon="7.11812">
        <ele>232.3</ele>
        <time>2026-05-15T06:40:50Z</time>
      </trkpt>
      <trkpt lat="43.71496" lon="7.118">
        <ele>233</ele>
        <time>2026-05-15T06:40:51Z</time>
      </trkpt>
      <trkpt lat="43.71502" lon="7.11788">
        <ele>233.3</ele>
        <time>2026-05-15T06:40:52Z</time>
      </trkpt>
      <trkpt lat="43.71506" lon="7.11776">
        <ele>233.3</ele>
        <time>2026-05-15T06:40:53Z</time>
      </trkpt>
      <trkpt lat="43.7151" lon="7.11765">
        <ele>234.5</ele>
        <time>2026-05-15T06:40:54Z</time>
      </trkpt>
      <trkpt lat="43.71514" lon="7.11754">
        <ele>235.2</ele>
        <time>2026-05-15T06:40:55Z</time>
      </trkpt>
      <trkpt lat="43.71516" lon="7.11744">
        <ele>235.4</ele>
        <time>2026-05-15T06:40:56Z</time>
      </trkpt>
      <trkpt lat="43.71519" lon="7.11734">
        <ele>235.7</ele>
        <time>2026-05-15T06:40:57Z</time>
      </trkpt>
      <trkpt lat="43.71521" lon="7.11727">
        <ele>235.8</ele>
        <time>2026-05-15T06:40:58Z</time>
      </trkpt>
      <trkpt lat="43.71522" lon="7.1172">
        <ele>235.7</ele>
        <time>2026-05-15T06:40:59Z</time>
      </trkpt>
      <trkpt lat="43.71523" lon="7.11714">
        <ele>235.6</ele>
        <time>2026-05-15T06:41:00Z</time>
      </trkpt>
      <trkpt lat="43.71525" lon="7.11709">
        <ele>235.7</ele>
        <time>2026-05-15T06:41:01Z</time>
      </trkpt>
      <trkpt lat="43.71526" lon="7.11702">
        <ele>235.4</ele>
        <time>2026-05-15T06:41:02Z</time>
      </trkpt>
      <trkpt lat="43.71528" lon="7.11694">
        <ele>235.1</ele>
        <time>2026-05-15T06:41:03Z</time>
      </trkpt>
      <trkpt lat="43.71531" lon="7.11686">
        <ele>236.4</ele>
        <time>2026-05-15T06:41:04Z</time>
      </trkpt>
      <trkpt lat="43.71534" lon="7.11679">
        <ele>237.4</ele>
        <time>2026-05-15T06:41:05Z</time>
      </trkpt>
      <trkpt lat="43.7154" lon="7.11673">
        <ele>239.2</ele>
        <time>2026-05-15T06:41:06Z</time>
      </trkpt>
      <trkpt lat="43.71546" lon="7.11667">
        <ele>240.6</ele>
        <time>2026-05-15T06:41:07Z</time>
      </trkpt>
      <trkpt lat="43.7155" lon="7.11657">
        <ele>241.5</ele>
        <time>2026-05-15T06:41:08Z</time>
      </trkpt>
      <trkpt lat="43.71551" lon="7.11646">
        <ele>241.6</ele>
        <time>2026-05-15T06:41:09Z</time>
      </trkpt>
      <trkpt lat="43.7155" lon="7.11634">
        <ele>241.9</ele>
        <time>2026-05-15T06:41:10Z</time>
      </trkpt>
      <trkpt lat="43.71552" lon="7.11621">
        <ele>243.2</ele>
        <time>2026-05-15T06:41:11Z</time>
      </trkpt>
      <trkpt lat="43.71557" lon="7.11608">
        <ele>244.7</ele>
        <time>2026-05-15T06:41:12Z</time>
      </trkpt>
      <trkpt lat="43.71563" lon="7.11596">
        <ele>247.3</ele>
        <time>2026-05-15T06:41:13Z</time>
      </trkpt>
      <trkpt lat="43.71569" lon="7.11585">
        <ele>249.3</ele>
        <time>2026-05-15T06:41:14Z</time>
      </trkpt>
      <trkpt lat="43.71574" lon="7.11575">
        <ele>250.8</ele>
        <time>2026-05-15T06:41:15Z</time>
      </trkpt>
      <trkpt lat="43.7158" lon="7.11566">
        <ele>251.8</ele>
        <time>2026-05-15T06:41:16Z</time>
      </trkpt>
      <trkpt lat="43.71584" lon="7.11558">
        <ele>252.2</ele>
        <time>2026-05-15T06:41:17Z</time>
      </trkpt>
      <trkpt lat="43.71588" lon="7.1155">
        <ele>253.2</ele>
        <time>2026-05-15T06:41:18Z</time>
      </trkpt>
      <trkpt lat="43.71593" lon="7.11541">
        <ele>254.2</ele>
        <time>2026-05-15T06:41:19Z</time>
      </trkpt>
      <trkpt lat="43.71598" lon="7.11532">
        <ele>254.8</ele>
        <time>2026-05-15T06:41:20Z</time>
      </trkpt>
      <trkpt lat="43.71604" lon="7.11522">
        <ele>255.5</ele>
        <time>2026-05-15T06:41:21Z</time>
      </trkpt>
      <trkpt lat="43.7161" lon="7.11512">
        <ele>256</ele>
        <time>2026-05-15T06:41:22Z</time>
      </trkpt>
      <trkpt lat="43.71617" lon="7.11504">
        <ele>256.8</ele>
        <time>2026-05-15T06:41:23Z</time>
      </trkpt>
      <trkpt lat="43.71623" lon="7.11496">
        <ele>257.4</ele>
        <time>2026-05-15T06:41:24Z</time>
      </trkpt>
      <trkpt lat="43.71628" lon="7.11489">
        <ele>257.9</ele>
        <time>2026-05-15T06:41:25Z</time>
      </trkpt>
      <trkpt lat="43.71633" lon="7.11481">
        <ele>258.1</ele>
        <time>2026-05-15T06:41:26Z</time>
      </trkpt>
      <trkpt lat="43.71639" lon="7.11473">
        <ele>258</ele>
        <time>2026-05-15T06:41:27Z</time>
      </trkpt>
      <trkpt lat="43.71646" lon="7.11465">
        <ele>258.6</ele>
        <time>2026-05-15T06:41:28Z</time>
      </trkpt>
      <trkpt lat="43.71653" lon="7.11456">
        <ele>258.6</ele>
        <time>2026-05-15T06:41:29Z</time>
      </trkpt>
      <trkpt lat="43.7166" lon="7.1145">
        <ele>258.5</ele>
        <time>2026-05-15T06:41:30Z</time>
      </trkpt>
      <trkpt lat="43.71666" lon="7.11443">
        <ele>258.1</ele>
        <time>2026-05-15T06:41:31Z</time>
      </trkpt>
      <trkpt lat="43.71672" lon="7.11438">
        <ele>258.7</ele>
        <time>2026-05-15T06:41:32Z</time>
      </trkpt>
      <trkpt lat="43.71678" lon="7.11432">
        <ele>259.1</ele>
        <time>2026-05-15T06:41:33Z</time>
      </trkpt>
      <trkpt lat="43.71684" lon="7.11427">
        <ele>259.3</ele>
        <time>2026-05-15T06:41:34Z</time>
      </trkpt>
      <trkpt lat="43.71692" lon="7.11422">
        <ele>259.3</ele>
        <time>2026-05-15T06:41:35Z</time>
      </trkpt>
      <trkpt lat="43.71698" lon="7.11416">
        <ele>259.3</ele>
        <time>2026-05-15T06:41:36Z</time>
      </trkpt>
      <trkpt lat="43.71705" lon="7.11412">
        <ele>259.8</ele>
        <time>2026-05-15T06:41:37Z</time>
      </trkpt>
      <trkpt lat="43.71712" lon="7.11406">
        <ele>260.2</ele>
        <time>2026-05-15T06:41:38Z</time>
      </trkpt>
      <trkpt lat="43.7172" lon="7.11401">
        <ele>260.4</ele>
        <time>2026-05-15T06:41:39Z</time>
      </trkpt>
      <trkpt lat="43.71728" lon="7.11397">
        <ele>260.7</ele>
        <time>2026-05-15T06:41:40Z</time>
      </trkpt>
      <trkpt lat="43.71736" lon="7.11392">
        <ele>260.8</ele>
        <time>2026-05-15T06:41:41Z</time>
      </trkpt>
      <trkpt lat="43.71743" lon="7.11387">
        <ele>260.8</ele>
        <time>2026-05-15T06:41:42Z</time>
      </trkpt>
      <trkpt lat="43.71752" lon="7.11382">
        <ele>261.5</ele>
        <time>2026-05-15T06:41:43Z</time>
      </trkpt>
      <trkpt lat="43.71762" lon="7.11377">
        <ele>262.6</ele>
        <time>2026-05-15T06:41:44Z</time>
      </trkpt>
      <trkpt lat="43.71771" lon="7.11373">
        <ele>263.3</ele>
        <time>2026-05-15T06:41:45Z</time>
      </trkpt>
      <trkpt lat="43.71781" lon="7.1137">
        <ele>263.9</ele>
        <time>2026-05-15T06:41:46Z</time>
      </trkpt>
      <trkpt lat="43.71791" lon="7.11368">
        <ele>264.6</ele>
        <time>2026-05-15T06:41:47Z</time>
      </trkpt>
      <trkpt lat="43.71802" lon="7.11367">
        <ele>265.4</ele>
        <time>2026-05-15T06:41:48Z</time>
      </trkpt>
      <trkpt lat="43.71813" lon="7.11367">
        <ele>266.2</ele>
        <time>2026-05-15T06:41:49Z</time>
      </trkpt>
      <trkpt lat="43.71825" lon="7.11368">
        <ele>267.1</ele>
        <time>2026-05-15T06:41:50Z</time>
      </trkpt>
      <trkpt lat="43.71838" lon="7.11369">
        <ele>268.1</ele>
        <time>2026-05-15T06:41:51Z</time>
      </trkpt>
      <trkpt lat="43.71851" lon="7.11369">
        <ele>268.7</ele>
        <time>2026-05-15T06:41:52Z</time>
      </trkpt>
      <trkpt lat="43.71865" lon="7.11369">
        <ele>269.5</ele>
        <time>2026-05-15T06:41:53Z</time>
      </trkpt>
      <trkpt lat="43.71878" lon="7.11368">
        <ele>270.7</ele>
        <time>2026-05-15T06:41:54Z</time>
      </trkpt>
      <trkpt lat="43.7189" lon="7.11365">
        <ele>271.6</ele>
        <time>2026-05-15T06:41:55Z</time>
      </trkpt>
      <trkpt lat="43.71902" lon="7.1136">
        <ele>272.8</ele>
        <time>2026-05-15T06:41:56Z</time>
      </trkpt>
      <trkpt lat="43.71913" lon="7.11352">
        <ele>273.9</ele>
        <time>2026-05-15T06:41:57Z</time>
      </trkpt>
      <trkpt lat="43.71923" lon="7.11344">
        <ele>275</ele>
        <time>2026-05-15T06:41:58Z</time>
      </trkpt>
      <trkpt lat="43.71932" lon="7.11334">
        <ele>275.8</ele>
        <time>2026-05-15T06:41:59Z</time>
      </trkpt>
      <trkpt lat="43.7194" lon="7.11325">
        <ele>276.7</ele>
        <time>2026-05-15T06:42:00Z</time>
      </trkpt>
      <trkpt lat="43.71947" lon="7.11315">
        <ele>277.2</ele>
        <time>2026-05-15T06:42:01Z</time>
      </trkpt>
      <trkpt lat="43.71954" lon="7.11305">
        <ele>277.7</ele>
        <time>2026-05-15T06:42:02Z</time>
      </trkpt>
      <trkpt lat="43.7196" lon="7.11296">
        <ele>278.6</ele>
        <time>2026-05-15T06:42:03Z</time>
      </trkpt>
      <trkpt lat="43.71965" lon="7.11289">
        <ele>279.3</ele>
        <time>2026-05-15T06:42:04Z</time>
      </trkpt>
      <trkpt lat="43.7197" lon="7.11282">
        <ele>279.8</ele>
        <time>2026-05-15T06:42:05Z</time>
      </trkpt>
      <trkpt lat="43.71974" lon="7.11275">
        <ele>280.2</ele>
        <time>2026-05-15T06:42:06Z</time>
      </trkpt>
      <trkpt lat="43.71979" lon="7.11267">
        <ele>280.7</ele>
        <time>2026-05-15T06:42:07Z</time>
      </trkpt>
      <trkpt lat="43.71984" lon="7.11258">
        <ele>281.1</ele>
        <time>2026-05-15T06:42:08Z</time>
      </trkpt>
      <trkpt lat="43.71989" lon="7.11247">
        <ele>281.5</ele>
        <time>2026-05-15T06:42:09Z</time>
      </trkpt>
      <trkpt lat="43.71994" lon="7.11236">
        <ele>282.4</ele>
        <time>2026-05-15T06:42:10Z</time>
      </trkpt>
      <trkpt lat="43.71999" lon="7.11225">
        <ele>282.9</ele>
        <time>2026-05-15T06:42:11Z</time>
      </trkpt>
      <trkpt lat="43.72005" lon="7.11214">
        <ele>284.4</ele>
        <time>2026-05-15T06:42:12Z</time>
      </trkpt>
      <trkpt lat="43.72011" lon="7.11203">
        <ele>285.9</ele>
        <time>2026-05-15T06:42:13Z</time>
      </trkpt>
      <trkpt lat="43.72017" lon="7.11192">
        <ele>287</ele>
        <time>2026-05-15T06:42:14Z</time>
      </trkpt>
      <trkpt lat="43.72023" lon="7.11182">
        <ele>287.8</ele>
        <time>2026-05-15T06:42:15Z</time>
      </trkpt>
      <trkpt lat="43.72028" lon="7.11172">
        <ele>288.2</ele>
        <time>2026-05-15T06:42:16Z</time>
      </trkpt>
      <trkpt lat="43.72034" lon="7.11163">
        <ele>289.3</ele>
        <time>2026-05-15T06:42:17Z</time>
      </trkpt>
      <trkpt lat="43.7204" lon="7.11155">
        <ele>290.3</ele>
        <time>2026-05-15T06:42:18Z</time>
      </trkpt>
      <trkpt lat="43.72045" lon="7.11147">
        <ele>290.8</ele>
        <time>2026-05-15T06:42:19Z</time>
      </trkpt>
      <trkpt lat="43.7205" lon="7.11139">
        <ele>291.2</ele>
        <time>2026-05-15T06:42:20Z</time>
      </trkpt>
      <trkpt lat="43.72055" lon="7.11129">
        <ele>291.6</ele>
        <time>2026-05-15T06:42:21Z</time>
      </trkpt>
      <trkpt lat="43.7206" lon="7.11119">
        <ele>292.3</ele>
        <time>2026-05-15T06:42:22Z</time>
      </trkpt>
      <trkpt lat="43.72066" lon="7.11109">
        <ele>293.2</ele>
        <time>2026-05-15T06:42:23Z</time>
      </trkpt>
      <trkpt lat="43.72071" lon="7.11098">
        <ele>294</ele>
        <time>2026-05-15T06:42:24Z</time>
      </trkpt>
      <trkpt lat="43.72076" lon="7.11086">
        <ele>294.3</ele>
        <time>2026-05-15T06:42:25Z</time>
      </trkpt>
      <trkpt lat="43.72082" lon="7.11076">
        <ele>294.9</ele>
        <time>2026-05-15T06:42:26Z</time>
      </trkpt>
      <trkpt lat="43.72086" lon="7.11066">
        <ele>295.6</ele>
        <time>2026-05-15T06:42:27Z</time>
      </trkpt>
      <trkpt lat="43.72091" lon="7.11056">
        <ele>296.7</ele>
        <time>2026-05-15T06:42:28Z</time>
      </trkpt>
      <trkpt lat="43.72095" lon="7.11047">
        <ele>297.4</ele>
        <time>2026-05-15T06:42:29Z</time>
      </trkpt>
      <trkpt lat="43.721" lon="7.11037">
        <ele>298.1</ele>
        <time>2026-05-15T06:42:30Z</time>
      </trkpt>
      <trkpt lat="43.72105" lon="7.11027">
        <ele>298.3</ele>
        <time>2026-05-15T06:42:31Z</time>
      </trkpt>
      <trkpt lat="43.7211" lon="7.11017">
        <ele>298.5</ele>
        <time>2026-05-15T06:42:32Z</time>
      </trkpt>
      <trkpt lat="43.72115" lon="7.11006">
        <ele>299.2</ele>
        <time>2026-05-15T06:42:33Z</time>
      </trkpt>
      <trkpt lat="43.7212" lon="7.10995">
        <ele>300.2</ele>
        <time>2026-05-15T06:42:34Z</time>
      </trkpt>
      <trkpt lat="43.72125" lon="7.10985">
        <ele>301.2</ele>
        <time>2026-05-15T06:42:35Z</time>
      </trkpt>
      <trkpt lat="43.7213" lon="7.10975">
        <ele>301.8</ele>
        <time>2026-05-15T06:42:36Z</time>
      </trkpt>
      <trkpt lat="43.72135" lon="7.10964">
        <ele>302.2</ele>
        <time>2026-05-15T06:42:37Z</time>
      </trkpt>
      <trkpt lat="43.72141" lon="7.10954">
        <ele>302.8</ele>
        <time>2026-05-15T06:42:38Z</time>
      </trkpt>
      <trkpt lat="43.72145" lon="7.10945">
        <ele>303.1</ele>
        <time>2026-05-15T06:42:39Z</time>
      </trkpt>
      <trkpt lat="43.72149" lon="7.10937">
        <ele>303.7</ele>
        <time>2026-05-15T06:42:40Z</time>
      </trkpt>
      <trkpt lat="43.72153" lon="7.10931">
        <ele>304.3</ele>
        <time>2026-05-15T06:42:41Z</time>
      </trkpt>
      <trkpt lat="43.72156" lon="7.10926">
        <ele>304.7</ele>
        <time>2026-05-15T06:42:42Z</time>
      </trkpt>
      <trkpt lat="43.72158" lon="7.10921">
        <ele>304.9</ele>
        <time>2026-05-15T06:42:43Z</time>
      </trkpt>
      <trkpt lat="43.72161" lon="7.10916">
        <ele>305.2</ele>
        <time>2026-05-15T06:42:44Z</time>
      </trkpt>
      <trkpt lat="43.72165" lon="7.10911">
        <ele>305.6</ele>
        <time>2026-05-15T06:42:45Z</time>
      </trkpt>
      <trkpt lat="43.72169" lon="7.10905">
        <ele>305.9</ele>
        <time>2026-05-15T06:42:46Z</time>
      </trkpt>
      <trkpt lat="43.72174" lon="7.10899">
        <ele>306.4</ele>
        <time>2026-05-15T06:42:47Z</time>
      </trkpt>
      <trkpt lat="43.7218" lon="7.10891">
        <ele>307</ele>
        <time>2026-05-15T06:42:48Z</time>
      </trkpt>
      <trkpt lat="43.72187" lon="7.10882">
        <ele>307.7</ele>
        <time>2026-05-15T06:42:49Z</time>
      </trkpt>
      <trkpt lat="43.72195" lon="7.10872">
        <ele>308.5</ele>
        <time>2026-05-15T06:42:50Z</time>
      </trkpt>
      <trkpt lat="43.72203" lon="7.10862">
        <ele>309</ele>
        <time>2026-05-15T06:42:51Z</time>
      </trkpt>
      <trkpt lat="43.72211" lon="7.10852">
        <ele>310.1</ele>
        <time>2026-05-15T06:42:52Z</time>
      </trkpt>
      <trkpt lat="43.7222" lon="7.10841">
        <ele>311.5</ele>
        <time>2026-05-15T06:42:53Z</time>
      </trkpt>
      <trkpt lat="43.72228" lon="7.10832">
        <ele>312.5</ele>
        <time>2026-05-15T06:42:54Z</time>
      </trkpt>
      <trkpt lat="43.72235" lon="7.10823">
        <ele>313.3</ele>
        <time>2026-05-15T06:42:55Z</time>
      </trkpt>
      <trkpt lat="43.72241" lon="7.10815">
        <ele>314</ele>
        <time>2026-05-15T06:42:56Z</time>
      </trkpt>
      <trkpt lat="43.72246" lon="7.10809">
        <ele>314.6</ele>
        <time>2026-05-15T06:42:57Z</time>
      </trkpt>
      <trkpt lat="43.72249" lon="7.10805">
        <ele>314.9</ele>
        <time>2026-05-15T06:42:58Z</time>
      </trkpt>
      <trkpt lat="43.72251" lon="7.10803">
        <ele>315.2</ele>
        <time>2026-05-15T06:42:59Z</time>
      </trkpt>
      <trkpt lat="43.72253" lon="7.10801">
        <ele>315.5</ele>
        <time>2026-05-15T06:43:00Z</time>
      </trkpt>
      <trkpt lat="43.72253" lon="7.108">
        <ele>315.5</ele>
        <time>2026-05-15T06:43:01Z</time>
      </trkpt>
      <trkpt lat="43.72253" lon="7.10799">
        <ele>315.5</ele>
        <time>2026-05-15T06:43:02Z</time>
      </trkpt>
      <trkpt lat="43.72253" lon="7.10799">
        <ele>315.5</ele>
        <time>2026-05-15T06:43:03Z</time>
      </trkpt>
      <trkpt lat="43.72253" lon="7.10799">
        <ele>315.5</ele>
        <time>2026-05-15T06:43:04Z</time>
      </trkpt>
      <trkpt lat="43.72254" lon="7.10798">
        <ele>315.7</ele>
        <time>2026-05-15T06:43:05Z</time>
      </trkpt>
      <trkpt lat="43.72256" lon="7.10796">
        <ele>315.9</ele>
        <time>2026-05-15T06:43:06Z</time>
      </trkpt>
      <trkpt lat="43.72259" lon="7.10792">
        <ele>316.3</ele>
        <time>2026-05-15T06:43:07Z</time>
      </trkpt>
      <trkpt lat="43.72263" lon="7.10786">
        <ele>316.8</ele>
        <time>2026-05-15T06:43:08Z</time>
      </trkpt>
      <trkpt lat="43.72268" lon="7.10781">
        <ele>317.3</ele>
        <time>2026-05-15T06:43:09Z</time>
      </trkpt>
      <trkpt lat="43.72272" lon="7.10775">
        <ele>317.7</ele>
        <time>2026-05-15T06:43:10Z</time>
      </trkpt>
      <trkpt lat="43.72277" lon="7.1077">
        <ele>318.2</ele>
        <time>2026-05-15T06:43:11Z</time>
      </trkpt>
      <trkpt lat="43.72281" lon="7.10766">
        <ele>318.7</ele>
        <time>2026-05-15T06:43:12Z</time>
      </trkpt>
      <trkpt lat="43.72286" lon="7.10763">
        <ele>319.3</ele>
        <time>2026-05-15T06:43:13Z</time>
      </trkpt>
      <trkpt lat="43.72291" lon="7.10762">
        <ele>319.7</ele>
        <time>2026-05-15T06:43:14Z</time>
      </trkpt>
      <trkpt lat="43.72297" lon="7.10761">
        <ele>320.3</ele>
        <time>2026-05-15T06:43:15Z</time>
      </trkpt>
      <trkpt lat="43.72302" lon="7.10758">
        <ele>320.7</ele>
        <time>2026-05-15T06:43:16Z</time>
      </trkpt>
      <trkpt lat="43.72307" lon="7.10753">
        <ele>321.1</ele>
        <time>2026-05-15T06:43:17Z</time>
      </trkpt>
      <trkpt lat="43.72309" lon="7.10747">
        <ele>321.1</ele>
        <time>2026-05-15T06:43:18Z</time>
      </trkpt>
      <trkpt lat="43.7231" lon="7.1074">
        <ele>321.2</ele>
        <time>2026-05-15T06:43:19Z</time>
      </trkpt>
      <trkpt lat="43.72311" lon="7.10734">
        <ele>321.2</ele>
        <time>2026-05-15T06:43:20Z</time>
      </trkpt>
      <trkpt lat="43.72313" lon="7.10729">
        <ele>321.3</ele>
        <time>2026-05-15T06:43:21Z</time>
      </trkpt>
      <trkpt lat="43.72315" lon="7.10724">
        <ele>321.3</ele>
        <time>2026-05-15T06:43:22Z</time>
      </trkpt>
      <trkpt lat="43.72317" lon="7.10721">
        <ele>321.4</ele>
        <time>2026-05-15T06:43:23Z</time>
      </trkpt>
      <trkpt lat="43.72319" lon="7.10718">
        <ele>321.5</ele>
        <time>2026-05-15T06:43:24Z</time>
      </trkpt>
      <trkpt lat="43.72321" lon="7.10716">
        <ele>321.6</ele>
        <time>2026-05-15T06:43:25Z</time>
      </trkpt>
      <trkpt lat="43.72323" lon="7.10714">
        <ele>321.6</ele>
        <time>2026-05-15T06:43:26Z</time>
      </trkpt>
      <trkpt lat="43.72326" lon="7.10712">
        <ele>321.7</ele>
        <time>2026-05-15T06:43:27Z</time>
      </trkpt>
      <trkpt lat="43.72327" lon="7.10711">
        <ele>321.8</ele>
        <time>2026-05-15T06:43:28Z</time>
      </trkpt>
      <trkpt lat="43.72329" lon="7.1071">
        <ele>321.8</ele>
        <time>2026-05-15T06:43:29Z</time>
      </trkpt>
      <trkpt lat="43.7233" lon="7.10708">
        <ele>321.9</ele>
        <time>2026-05-15T06:43:30Z</time>
      </trkpt>
      <trkpt lat="43.7233" lon="7.10708">
        <ele>321.9</ele>
        <time>2026-05-15T06:43:31Z</time>
      </trkpt>
      <trkpt lat="43.7233" lon="7.10708">
        <ele>321.9</ele>
        <time>2026-05-15T06:43:32Z</time>
      </trkpt>
      <trkpt lat="43.72331" lon="7.10707">
        <ele>321.9</ele>
        <time>2026-05-15T06:43:33Z</time>
      </trkpt>
      <trkpt lat="43.72334" lon="7.10705">
        <ele>322</ele>
        <time>2026-05-15T06:43:34Z</time>
      </trkpt>
      <trkpt lat="43.72343" lon="7.10704">
        <ele>322.3</ele>
        <time>2026-05-15T06:43:35Z</time>
      </trkpt>
      <trkpt lat="43.72352" lon="7.10705">
        <ele>322.7</ele>
        <time>2026-05-15T06:43:36Z</time>
      </trkpt>
      <trkpt lat="43.7236" lon="7.10707">
        <ele>323</ele>
        <time>2026-05-15T06:43:37Z</time>
      </trkpt>
      <trkpt lat="43.72369" lon="7.10708">
        <ele>323.1</ele>
        <time>2026-05-15T06:43:38Z</time>
      </trkpt>
      <trkpt lat="43.72377" lon="7.1071">
        <ele>323.3</ele>
        <time>2026-05-15T06:43:39Z</time>
      </trkpt>
      <trkpt lat="43.72387" lon="7.10712">
        <ele>323.3</ele>
        <time>2026-05-15T06:43:40Z</time>
      </trkpt>
      <trkpt lat="43.72396" lon="7.10713">
        <ele>323.5</ele>
        <time>2026-05-15T06:43:41Z</time>
      </trkpt>
      <trkpt lat="43.72404" lon="7.10715">
        <ele>323.7</ele>
        <time>2026-05-15T06:43:42Z</time>
      </trkpt>
      <trkpt lat="43.72413" lon="7.10716">
        <ele>323.9</ele>
        <time>2026-05-15T06:43:43Z</time>
      </trkpt>
      <trkpt lat="43.7242" lon="7.10718">
        <ele>324</ele>
        <time>2026-05-15T06:43:44Z</time>
      </trkpt>
      <trkpt lat="43.72426" lon="7.10719">
        <ele>324</ele>
        <time>2026-05-15T06:43:45Z</time>
      </trkpt>
      <trkpt lat="43.72431" lon="7.10719">
        <ele>324.1</ele>
        <time>2026-05-15T06:43:46Z</time>
      </trkpt>
      <trkpt lat="43.72435" lon="7.10716">
        <ele>324.1</ele>
        <time>2026-05-15T06:43:47Z</time>
      </trkpt>
      <trkpt lat="43.72439" lon="7.10711">
        <ele>324.3</ele>
        <time>2026-05-15T06:43:48Z</time>
      </trkpt>
      <trkpt lat="43.72441" lon="7.10705">
        <ele>324.5</ele>
        <time>2026-05-15T06:43:49Z</time>
      </trkpt>
      <trkpt lat="43.72441" lon="7.10697">
        <ele>324.8</ele>
        <time>2026-05-15T06:43:50Z</time>
      </trkpt>
      <trkpt lat="43.7244" lon="7.10688">
        <ele>325.1</ele>
        <time>2026-05-15T06:43:51Z</time>
      </trkpt>
      <trkpt lat="43.72437" lon="7.10678">
        <ele>325.3</ele>
        <time>2026-05-15T06:43:52Z</time>
      </trkpt>
      <trkpt lat="43.72432" lon="7.10667">
        <ele>325.5</ele>
        <time>2026-05-15T06:43:53Z</time>
      </trkpt>
      <trkpt lat="43.72428" lon="7.10655">
        <ele>325.7</ele>
        <time>2026-05-15T06:43:54Z</time>
      </trkpt>
      <trkpt lat="43.72423" lon="7.10644">
        <ele>325.9</ele>
        <time>2026-05-15T06:43:55Z</time>
      </trkpt>
      <trkpt lat="43.7242" lon="7.10632">
        <ele>326</ele>
        <time>2026-05-15T06:43:56Z</time>
      </trkpt>
      <trkpt lat="43.72416" lon="7.10622">
        <ele>326</ele>
        <time>2026-05-15T06:43:57Z</time>
      </trkpt>
      <trkpt lat="43.72412" lon="7.10612">
        <ele>325.8</ele>
        <time>2026-05-15T06:43:58Z</time>
      </trkpt>
      <trkpt lat="43.72408" lon="7.10602">
        <ele>325.7</ele>
        <time>2026-05-15T06:43:59Z</time>
      </trkpt>
      <trkpt lat="43.72406" lon="7.10592">
        <ele>325.6</ele>
        <time>2026-05-15T06:44:00Z</time>
      </trkpt>
      <trkpt lat="43.72404" lon="7.10581">
        <ele>325.5</ele>
        <time>2026-05-15T06:44:01Z</time>
      </trkpt>
      <trkpt lat="43.72401" lon="7.10571">
        <ele>325.4</ele>
        <time>2026-05-15T06:44:02Z</time>
      </trkpt>
      <trkpt lat="43.72398" lon="7.10562">
        <ele>325.3</ele>
        <time>2026-05-15T06:44:03Z</time>
      </trkpt>
      <trkpt lat="43.72393" lon="7.10557">
        <ele>325.1</ele>
        <time>2026-05-15T06:44:04Z</time>
      </trkpt>
      <trkpt lat="43.72386" lon="7.10557">
        <ele>324.9</ele>
        <time>2026-05-15T06:44:05Z</time>
      </trkpt>
      <trkpt lat="43.72379" lon="7.10558">
        <ele>324.6</ele>
        <time>2026-05-15T06:44:06Z</time>
      </trkpt>
      <trkpt lat="43.72374" lon="7.1056">
        <ele>324.5</ele>
        <time>2026-05-15T06:44:07Z</time>
      </trkpt>
      <trkpt lat="43.7237" lon="7.10562">
        <ele>324.3</ele>
        <time>2026-05-15T06:44:08Z</time>
      </trkpt>
      <trkpt lat="43.72367" lon="7.10563">
        <ele>324.2</ele>
        <time>2026-05-15T06:44:09Z</time>
      </trkpt>
      <trkpt lat="43.72364" lon="7.10564">
        <ele>324.1</ele>
        <time>2026-05-15T06:44:10Z</time>
      </trkpt>
      <trkpt lat="43.72361" lon="7.10564">
        <ele>324</ele>
        <time>2026-05-15T06:44:11Z</time>
      </trkpt>
      <trkpt lat="43.7236" lon="7.10565">
        <ele>324</ele>
        <time>2026-05-15T06:44:12Z</time>
      </trkpt>
      <trkpt lat="43.72359" lon="7.10564">
        <ele>324.1</ele>
        <time>2026-05-15T06:44:13Z</time>
      </trkpt>
      <trkpt lat="43.72359" lon="7.10565">
        <ele>324.1</ele>
        <time>2026-05-15T06:44:14Z</time>
      </trkpt>
      <trkpt lat="43.72359" lon="7.10565">
        <ele>324.1</ele>
        <time>2026-05-15T06:44:15Z</time>
      </trkpt>
      <trkpt lat="43.72359" lon="7.10566">
        <ele>324.1</ele>
        <time>2026-05-15T06:44:16Z</time>
      </trkpt>
      <trkpt lat="43.72359" lon="7.10566">
        <ele>324.1</ele>
        <time>2026-05-15T06:44:17Z</time>
      </trkpt>
      <trkpt lat="43.72359" lon="7.10566">
        <ele>324.1</ele>
        <time>2026-05-15T06:44:18Z</time>
      </trkpt>
      <trkpt lat="43.72359" lon="7.10566">
        <ele>324.1</ele>
        <time>2026-05-15T06:44:19Z</time>
      </trkpt>
      <trkpt lat="43.72359" lon="7.10567">
        <ele>324.1</ele>
        <time>2026-05-15T06:44:20Z</time>
      </trkpt>
      <trkpt lat="43.72359" lon="7.10567">
        <ele>324.1</ele>
        <time>2026-05-15T06:44:21Z</time>
      </trkpt>
      <trkpt lat="43.72359" lon="7.10567">
        <ele>324.1</ele>
        <time>2026-05-15T06:44:22Z</time>
      </trkpt>
      <trkpt lat="43.72359" lon="7.10567">
        <ele>324.1</ele>
        <time>2026-05-15T06:44:23Z</time>
      </trkpt>
      <trkpt lat="43.72359" lon="7.10567">
        <ele>324.1</ele>
        <time>2026-05-15T06:44:24Z</time>
      </trkpt>
      <trkpt lat="43.72359" lon="7.10567">
        <ele>324.1</ele>
        <time>2026-05-15T06:44:25Z</time>
      </trkpt>
      <trkpt lat="43.72359" lon="7.10567">
        <ele>324.1</ele>
        <time>2026-05-15T06:44:26Z</time>
      </trkpt>
      <trkpt lat="43.72359" lon="7.10567">
        <ele>324.1</ele>
        <time>2026-05-15T06:44:27Z</time>
      </trkpt>
      <trkpt lat="43.72359" lon="7.10567">
        <ele>324.1</ele>
        <time>2026-05-15T06:44:28Z</time>
      </trkpt>
      <trkpt lat="43.72359" lon="7.10567">
        <ele>324.1</ele>
        <time>2026-05-15T06:44:29Z</time>
      </trkpt>
      <trkpt lat="43.72359" lon="7.10567">
        <ele>324.1</ele>
        <time>2026-05-15T06:44:30Z</time>
      </trkpt>
      <trkpt lat="43.72359" lon="7.10567">
        <ele>324.1</ele>
        <time>2026-05-15T06:44:31Z</time>
      </trkpt>
      <trkpt lat="43.72359" lon="7.10567">
        <ele>324.1</ele>
        <time>2026-05-15T06:44:32Z</time>
      </trkpt>
      <trkpt lat="43.72359" lon="7.10567">
        <ele>324.1</ele>
        <time>2026-05-15T06:44:33Z</time>
      </trkpt>
      <trkpt lat="43.72359" lon="7.10567">
        <ele>324.1</ele>
        <time>2026-05-15T06:44:34Z</time>
      </trkpt>
      <trkpt lat="43.72359" lon="7.10567">
        <ele>324.1</ele>
        <time>2026-05-15T06:44:35Z</time>
      </trkpt>
      <trkpt lat="43.72358" lon="7.10568">
        <ele>324.1</ele>
        <time>2026-05-15T06:44:36Z</time>
      </trkpt>
      <trkpt lat="43.72356" lon="7.10569">
        <ele>324.2</ele>
        <time>2026-05-15T06:44:37Z</time>
      </trkpt>
      <trkpt lat="43.72353" lon="7.10569">
        <ele>324.3</ele>
        <time>2026-05-15T06:44:38Z</time>
      </trkpt>
      <trkpt lat="43.72347" lon="7.10576">
        <ele>324.5</ele>
        <time>2026-05-15T06:44:39Z</time>
      </trkpt>
      <trkpt lat="43.72343" lon="7.10584">
        <ele>324.6</ele>
        <time>2026-05-15T06:44:40Z</time>
      </trkpt>
      <trkpt lat="43.72341" lon="7.10593">
        <ele>324.5</ele>
        <time>2026-05-15T06:44:41Z</time>
      </trkpt>
      <trkpt lat="43.7234" lon="7.10604">
        <ele>324.2</ele>
        <time>2026-05-15T06:44:42Z</time>
      </trkpt>
      <trkpt lat="43.72339" lon="7.10617">
        <ele>323.8</ele>
        <time>2026-05-15T06:44:43Z</time>
      </trkpt>
      <trkpt lat="43.72337" lon="7.10629">
        <ele>323.4</ele>
        <time>2026-05-15T06:44:44Z</time>
      </trkpt>
      <trkpt lat="43.72336" lon="7.1064">
        <ele>323</ele>
        <time>2026-05-15T06:44:45Z</time>
      </trkpt>
      <trkpt lat="43.72335" lon="7.10649">
        <ele>322.7</ele>
        <time>2026-05-15T06:44:46Z</time>
      </trkpt>
      <trkpt lat="43.72334" lon="7.10658">
        <ele>322.3</ele>
        <time>2026-05-15T06:44:47Z</time>
      </trkpt>
      <trkpt lat="43.72333" lon="7.10667">
        <ele>322</ele>
        <time>2026-05-15T06:44:48Z</time>
      </trkpt>
      <trkpt lat="43.72333" lon="7.10674">
        <ele>322</ele>
        <time>2026-05-15T06:44:49Z</time>
      </trkpt>
      <trkpt lat="43.72332" lon="7.10681">
        <ele>322</ele>
        <time>2026-05-15T06:44:50Z</time>
      </trkpt>
      <trkpt lat="43.72332" lon="7.10687">
        <ele>322</ele>
        <time>2026-05-15T06:44:51Z</time>
      </trkpt>
      <trkpt lat="43.72333" lon="7.10692">
        <ele>322</ele>
        <time>2026-05-15T06:44:52Z</time>
      </trkpt>
      <trkpt lat="43.72336" lon="7.10697">
        <ele>322.1</ele>
        <time>2026-05-15T06:44:53Z</time>
      </trkpt>
      <trkpt lat="43.72341" lon="7.107">
        <ele>322.3</ele>
        <time>2026-05-15T06:44:54Z</time>
      </trkpt>
      <trkpt lat="43.72345" lon="7.10703">
        <ele>322.4</ele>
        <time>2026-05-15T06:44:55Z</time>
      </trkpt>
      <trkpt lat="43.72352" lon="7.10703">
        <ele>322.7</ele>
        <time>2026-05-15T06:44:56Z</time>
      </trkpt>
      <trkpt lat="43.72358" lon="7.10704">
        <ele>322.9</ele>
        <time>2026-05-15T06:44:57Z</time>
      </trkpt>
      <trkpt lat="43.72364" lon="7.10705">
        <ele>323.1</ele>
        <time>2026-05-15T06:44:58Z</time>
      </trkpt>
      <trkpt lat="43.72371" lon="7.10707">
        <ele>323.2</ele>
        <time>2026-05-15T06:44:59Z</time>
      </trkpt>
      <trkpt lat="43.72377" lon="7.10708">
        <ele>323.3</ele>
        <time>2026-05-15T06:45:00Z</time>
      </trkpt>
      <trkpt lat="43.72382" lon="7.10709">
        <ele>323.4</ele>
        <time>2026-05-15T06:45:01Z</time>
      </trkpt>
      <trkpt lat="43.72388" lon="7.10711">
        <ele>323.4</ele>
        <time>2026-05-15T06:45:02Z</time>
      </trkpt>
      <trkpt lat="43.72394" lon="7.10711">
        <ele>323.5</ele>
        <time>2026-05-15T06:45:03Z</time>
      </trkpt>
      <trkpt lat="43.72398" lon="7.10712">
        <ele>323.6</ele>
        <time>2026-05-15T06:45:04Z</time>
      </trkpt>
      <trkpt lat="43.72402" lon="7.10713">
        <ele>323.6</ele>
        <time>2026-05-15T06:45:05Z</time>
      </trkpt>
      <trkpt lat="43.72406" lon="7.10713">
        <ele>323.7</ele>
        <time>2026-05-15T06:45:06Z</time>
      </trkpt>
      <trkpt lat="43.72408" lon="7.10714">
        <ele>323.8</ele>
        <time>2026-05-15T06:45:07Z</time>
      </trkpt>
      <trkpt lat="43.72409" lon="7.10714">
        <ele>323.8</ele>
        <time>2026-05-15T06:45:08Z</time>
      </trkpt>
      <trkpt lat="43.72409" lon="7.10714">
        <ele>323.8</ele>
        <time>2026-05-15T06:45:09Z</time>
      </trkpt>
      <trkpt lat="43.72409" lon="7.10714">
        <ele>323.8</ele>
        <time>2026-05-15T06:45:10Z</time>
      </trkpt>
      <trkpt lat="43.72408" lon="7.10714">
        <ele>323.8</ele>
        <time>2026-05-15T06:45:11Z</time>
      </trkpt>
      <trkpt lat="43.72408" lon="7.10713">
        <ele>323.8</ele>
        <time>2026-05-15T06:45:12Z</time>
      </trkpt>
      <trkpt lat="43.72408" lon="7.10713">
        <ele>323.8</ele>
        <time>2026-05-15T06:45:13Z</time>
      </trkpt>
      <trkpt lat="43.7241" lon="7.10714">
        <ele>323.8</ele>
        <time>2026-05-15T06:45:14Z</time>
      </trkpt>
      <trkpt lat="43.72414" lon="7.10714">
        <ele>323.9</ele>
        <time>2026-05-15T06:45:15Z</time>
      </trkpt>
      <trkpt lat="43.72419" lon="7.10716">
        <ele>324</ele>
        <time>2026-05-15T06:45:16Z</time>
      </trkpt>
      <trkpt lat="43.72425" lon="7.10718">
        <ele>324</ele>
        <time>2026-05-15T06:45:17Z</time>
      </trkpt>
      <trkpt lat="43.72431" lon="7.10719">
        <ele>324.1</ele>
        <time>2026-05-15T06:45:18Z</time>
      </trkpt>
      <trkpt lat="43.72436" lon="7.10719">
        <ele>324.1</ele>
        <time>2026-05-15T06:45:19Z</time>
      </trkpt>
      <trkpt lat="43.7244" lon="7.10719">
        <ele>324.1</ele>
        <time>2026-05-15T06:45:20Z</time>
      </trkpt>
      <trkpt lat="43.72444" lon="7.10718">
        <ele>324.1</ele>
        <time>2026-05-15T06:45:21Z</time>
      </trkpt>
      <trkpt lat="43.72449" lon="7.10718">
        <ele>323.8</ele>
        <time>2026-05-15T06:45:22Z</time>
      </trkpt>
      <trkpt lat="43.72454" lon="7.10715">
        <ele>323.7</ele>
        <time>2026-05-15T06:45:23Z</time>
      </trkpt>
      <trkpt lat="43.72459" lon="7.1071">
        <ele>323.6</ele>
        <time>2026-05-15T06:45:24Z</time>
      </trkpt>
      <trkpt lat="43.72465" lon="7.10701">
        <ele>323.8</ele>
        <time>2026-05-15T06:45:25Z</time>
      </trkpt>
      <trkpt lat="43.72471" lon="7.10691">
        <ele>324.3</ele>
        <time>2026-05-15T06:45:26Z</time>
      </trkpt>
      <trkpt lat="43.72478" lon="7.10678">
        <ele>324.6</ele>
        <time>2026-05-15T06:45:27Z</time>
      </trkpt>
      <trkpt lat="43.72485" lon="7.10665">
        <ele>325.2</ele>
        <time>2026-05-15T06:45:28Z</time>
      </trkpt>
      <trkpt lat="43.72492" lon="7.10652">
        <ele>325.9</ele>
        <time>2026-05-15T06:45:29Z</time>
      </trkpt>
      <trkpt lat="43.72499" lon="7.10641">
        <ele>326.8</ele>
        <time>2026-05-15T06:45:30Z</time>
      </trkpt>
      <trkpt lat="43.72505" lon="7.1063">
        <ele>327</ele>
        <time>2026-05-15T06:45:31Z</time>
      </trkpt>
      <trkpt lat="43.7251" lon="7.10621">
        <ele>327.3</ele>
        <time>2026-05-15T06:45:32Z</time>
      </trkpt>
      <trkpt lat="43.7251" lon="7.10611">
        <ele>328.3</ele>
        <time>2026-05-15T06:45:33Z</time>
      </trkpt>
      <trkpt lat="43.72511" lon="7.10603">
        <ele>329</ele>
        <time>2026-05-15T06:45:34Z</time>
      </trkpt>
      <trkpt lat="43.72511" lon="7.10596">
        <ele>329.7</ele>
        <time>2026-05-15T06:45:35Z</time>
      </trkpt>
      <trkpt lat="43.72511" lon="7.1059">
        <ele>330.3</ele>
        <time>2026-05-15T06:45:36Z</time>
      </trkpt>
      <trkpt lat="43.72512" lon="7.10586">
        <ele>330.7</ele>
        <time>2026-05-15T06:45:37Z</time>
      </trkpt>
      <trkpt lat="43.72512" lon="7.10582">
        <ele>331.1</ele>
        <time>2026-05-15T06:45:38Z</time>
      </trkpt>
      <trkpt lat="43.72514" lon="7.10578">
        <ele>331.4</ele>
        <time>2026-05-15T06:45:39Z</time>
      </trkpt>
      <trkpt lat="43.72516" lon="7.10573">
        <ele>331.7</ele>
        <time>2026-05-15T06:45:40Z</time>
      </trkpt>
      <trkpt lat="43.72518" lon="7.10568">
        <ele>332.1</ele>
        <time>2026-05-15T06:45:41Z</time>
      </trkpt>
      <trkpt lat="43.72522" lon="7.10561">
        <ele>332.6</ele>
        <time>2026-05-15T06:45:42Z</time>
      </trkpt>
      <trkpt lat="43.72525" lon="7.10554">
        <ele>333.2</ele>
        <time>2026-05-15T06:45:43Z</time>
      </trkpt>
      <trkpt lat="43.72529" lon="7.10546">
        <ele>334</ele>
        <time>2026-05-15T06:45:44Z</time>
      </trkpt>
      <trkpt lat="43.72533" lon="7.10539">
        <ele>334.8</ele>
        <time>2026-05-15T06:45:45Z</time>
      </trkpt>
      <trkpt lat="43.72538" lon="7.10533">
        <ele>335.4</ele>
        <time>2026-05-15T06:45:46Z</time>
      </trkpt>
      <trkpt lat="43.72543" lon="7.10526">
        <ele>336.1</ele>
        <time>2026-05-15T06:45:47Z</time>
      </trkpt>
      <trkpt lat="43.72549" lon="7.10518">
        <ele>336.7</ele>
        <time>2026-05-15T06:45:48Z</time>
      </trkpt>
      <trkpt lat="43.72555" lon="7.10509">
        <ele>337.4</ele>
        <time>2026-05-15T06:45:49Z</time>
      </trkpt>
      <trkpt lat="43.7256" lon="7.10501">
        <ele>337.9</ele>
        <time>2026-05-15T06:45:50Z</time>
      </trkpt>
      <trkpt lat="43.72566" lon="7.10494">
        <ele>338.5</ele>
        <time>2026-05-15T06:45:51Z</time>
      </trkpt>
      <trkpt lat="43.72571" lon="7.10488">
        <ele>339.1</ele>
        <time>2026-05-15T06:45:52Z</time>
      </trkpt>
      <trkpt lat="43.72576" lon="7.10482">
        <ele>339.8</ele>
        <time>2026-05-15T06:45:53Z</time>
      </trkpt>
      <trkpt lat="43.7258" lon="7.10477">
        <ele>340.4</ele>
        <time>2026-05-15T06:45:54Z</time>
      </trkpt>
      <trkpt lat="43.72585" lon="7.10472">
        <ele>341</ele>
        <time>2026-05-15T06:45:55Z</time>
      </trkpt>
      <trkpt lat="43.7259" lon="7.10466">
        <ele>341.3</ele>
        <time>2026-05-15T06:45:56Z</time>
      </trkpt>
      <trkpt lat="43.72596" lon="7.1046">
        <ele>341.6</ele>
        <time>2026-05-15T06:45:57Z</time>
      </trkpt>
      <trkpt lat="43.72603" lon="7.10453">
        <ele>342.2</ele>
        <time>2026-05-15T06:45:58Z</time>
      </trkpt>
      <trkpt lat="43.7261" lon="7.10446">
        <ele>342.9</ele>
        <time>2026-05-15T06:45:59Z</time>
      </trkpt>
      <trkpt lat="43.72617" lon="7.10439">
        <ele>343.6</ele>
        <time>2026-05-15T06:46:00Z</time>
      </trkpt>
      <trkpt lat="43.72625" lon="7.10432">
        <ele>344.6</ele>
        <time>2026-05-15T06:46:01Z</time>
      </trkpt>
      <trkpt lat="43.72631" lon="7.10427">
        <ele>345.4</ele>
        <time>2026-05-15T06:46:02Z</time>
      </trkpt>
      <trkpt lat="43.72639" lon="7.10425">
        <ele>346.1</ele>
        <time>2026-05-15T06:46:03Z</time>
      </trkpt>
      <trkpt lat="43.72646" lon="7.10423">
        <ele>346.6</ele>
        <time>2026-05-15T06:46:04Z</time>
      </trkpt>
      <trkpt lat="43.72654" lon="7.10419">
        <ele>347.3</ele>
        <time>2026-05-15T06:46:05Z</time>
      </trkpt>
      <trkpt lat="43.72661" lon="7.10413">
        <ele>348</ele>
        <time>2026-05-15T06:46:06Z</time>
      </trkpt>
      <trkpt lat="43.72668" lon="7.10407">
        <ele>348.8</ele>
        <time>2026-05-15T06:46:07Z</time>
      </trkpt>
      <trkpt lat="43.72674" lon="7.10403">
        <ele>349.5</ele>
        <time>2026-05-15T06:46:08Z</time>
      </trkpt>
      <trkpt lat="43.72681" lon="7.10397">
        <ele>350.4</ele>
        <time>2026-05-15T06:46:09Z</time>
      </trkpt>
      <trkpt lat="43.72687" lon="7.10392">
        <ele>351.2</ele>
        <time>2026-05-15T06:46:10Z</time>
      </trkpt>
      <trkpt lat="43.72693" lon="7.10389">
        <ele>351.9</ele>
        <time>2026-05-15T06:46:11Z</time>
      </trkpt>
      <trkpt lat="43.72699" lon="7.10386">
        <ele>352.5</ele>
        <time>2026-05-15T06:46:12Z</time>
      </trkpt>
      <trkpt lat="43.72705" lon="7.10384">
        <ele>353.2</ele>
        <time>2026-05-15T06:46:13Z</time>
      </trkpt>
      <trkpt lat="43.7271" lon="7.10382">
        <ele>353.8</ele>
        <time>2026-05-15T06:46:14Z</time>
      </trkpt>
      <trkpt lat="43.72714" lon="7.1038">
        <ele>354.3</ele>
        <time>2026-05-15T06:46:15Z</time>
      </trkpt>
      <trkpt lat="43.72717" lon="7.10379">
        <ele>354.7</ele>
        <time>2026-05-15T06:46:16Z</time>
      </trkpt>
      <trkpt lat="43.7272" lon="7.10378">
        <ele>355.1</ele>
        <time>2026-05-15T06:46:17Z</time>
      </trkpt>
      <trkpt lat="43.72723" lon="7.10377">
        <ele>355.5</ele>
        <time>2026-05-15T06:46:18Z</time>
      </trkpt>
      <trkpt lat="43.72726" lon="7.10375">
        <ele>355.8</ele>
        <time>2026-05-15T06:46:19Z</time>
      </trkpt>
      <trkpt lat="43.7273" lon="7.10375">
        <ele>356.2</ele>
        <time>2026-05-15T06:46:20Z</time>
      </trkpt>
      <trkpt lat="43.72734" lon="7.10373">
        <ele>356.7</ele>
        <time>2026-05-15T06:46:21Z</time>
      </trkpt>
      <trkpt lat="43.72737" lon="7.10372">
        <ele>357</ele>
        <time>2026-05-15T06:46:22Z</time>
      </trkpt>
      <trkpt lat="43.72741" lon="7.1037">
        <ele>357.5</ele>
        <time>2026-05-15T06:46:23Z</time>
      </trkpt>
      <trkpt lat="43.72745" lon="7.10369">
        <ele>357.9</ele>
        <time>2026-05-15T06:46:24Z</time>
      </trkpt>
      <trkpt lat="43.72749" lon="7.10367">
        <ele>358.5</ele>
        <time>2026-05-15T06:46:25Z</time>
      </trkpt>
      <trkpt lat="43.72753" lon="7.10365">
        <ele>358.9</ele>
        <time>2026-05-15T06:46:26Z</time>
      </trkpt>
      <trkpt lat="43.72758" lon="7.10362">
        <ele>359.5</ele>
        <time>2026-05-15T06:46:27Z</time>
      </trkpt>
      <trkpt lat="43.72763" lon="7.10359">
        <ele>360</ele>
        <time>2026-05-15T06:46:28Z</time>
      </trkpt>
      <trkpt lat="43.72769" lon="7.10355">
        <ele>360.5</ele>
        <time>2026-05-15T06:46:29Z</time>
      </trkpt>
      <trkpt lat="43.72776" lon="7.1035">
        <ele>361.2</ele>
        <time>2026-05-15T06:46:30Z</time>
      </trkpt>
      <trkpt lat="43.72782" lon="7.10348">
        <ele>361.6</ele>
        <time>2026-05-15T06:46:31Z</time>
      </trkpt>
      <trkpt lat="43.72789" lon="7.10343">
        <ele>362.2</ele>
        <time>2026-05-15T06:46:32Z</time>
      </trkpt>
      <trkpt lat="43.72797" lon="7.10338">
        <ele>363</ele>
        <time>2026-05-15T06:46:33Z</time>
      </trkpt>
      <trkpt lat="43.72805" lon="7.10334">
        <ele>363.9</ele>
        <time>2026-05-15T06:46:34Z</time>
      </trkpt>
      <trkpt lat="43.72813" lon="7.10329">
        <ele>364.5</ele>
        <time>2026-05-15T06:46:35Z</time>
      </trkpt>
      <trkpt lat="43.72822" lon="7.10324">
        <ele>365.3</ele>
        <time>2026-05-15T06:46:36Z</time>
      </trkpt>
      <trkpt lat="43.72831" lon="7.10319">
        <ele>366.4</ele>
        <time>2026-05-15T06:46:37Z</time>
      </trkpt>
      <trkpt lat="43.72839" lon="7.10317">
        <ele>367.2</ele>
        <time>2026-05-15T06:46:38Z</time>
      </trkpt>
      <trkpt lat="43.72849" lon="7.10314">
        <ele>368.2</ele>
        <time>2026-05-15T06:46:39Z</time>
      </trkpt>
      <trkpt lat="43.72858" lon="7.10312">
        <ele>369.1</ele>
        <time>2026-05-15T06:46:40Z</time>
      </trkpt>
      <trkpt lat="43.72869" lon="7.10312">
        <ele>369.8</ele>
        <time>2026-05-15T06:46:41Z</time>
      </trkpt>
      <trkpt lat="43.7288" lon="7.10312">
        <ele>370.5</ele>
        <time>2026-05-15T06:46:42Z</time>
      </trkpt>
      <trkpt lat="43.72892" lon="7.10312">
        <ele>371.2</ele>
        <time>2026-05-15T06:46:43Z</time>
      </trkpt>
      <trkpt lat="43.72905" lon="7.10312">
        <ele>371.5</ele>
        <time>2026-05-15T06:46:44Z</time>
      </trkpt>
      <trkpt lat="43.72919" lon="7.10313">
        <ele>371.7</ele>
        <time>2026-05-15T06:46:45Z</time>
      </trkpt>
      <trkpt lat="43.72932" lon="7.10313">
        <ele>372.1</ele>
        <time>2026-05-15T06:46:46Z</time>
      </trkpt>
      <trkpt lat="43.72946" lon="7.10313">
        <ele>372.4</ele>
        <time>2026-05-15T06:46:47Z</time>
      </trkpt>
      <trkpt lat="43.72959" lon="7.10312">
        <ele>372.5</ele>
        <time>2026-05-15T06:46:48Z</time>
      </trkpt>
      <trkpt lat="43.72972" lon="7.1031">
        <ele>372.9</ele>
        <time>2026-05-15T06:46:49Z</time>
      </trkpt>
      <trkpt lat="43.72985" lon="7.10306">
        <ele>373</ele>
        <time>2026-05-15T06:46:50Z</time>
      </trkpt>
      <trkpt lat="43.72997" lon="7.103">
        <ele>373.8</ele>
        <time>2026-05-15T06:46:51Z</time>
      </trkpt>
      <trkpt lat="43.73009" lon="7.10293">
        <ele>375.3</ele>
        <time>2026-05-15T06:46:52Z</time>
      </trkpt>
      <trkpt lat="43.7302" lon="7.10286">
        <ele>376.9</ele>
        <time>2026-05-15T06:46:53Z</time>
      </trkpt>
      <trkpt lat="43.73031" lon="7.10279">
        <ele>378.6</ele>
        <time>2026-05-15T06:46:54Z</time>
      </trkpt>
      <trkpt lat="43.73043" lon="7.10273">
        <ele>380.3</ele>
        <time>2026-05-15T06:46:55Z</time>
      </trkpt>
      <trkpt lat="43.73054" lon="7.10269">
        <ele>381.5</ele>
        <time>2026-05-15T06:46:56Z</time>
      </trkpt>
      <trkpt lat="43.73066" lon="7.10267">
        <ele>382.2</ele>
        <time>2026-05-15T06:46:57Z</time>
      </trkpt>
      <trkpt lat="43.73078" lon="7.10266">
        <ele>382.7</ele>
        <time>2026-05-15T06:46:58Z</time>
      </trkpt>
      <trkpt lat="43.7309" lon="7.10266">
        <ele>382.8</ele>
        <time>2026-05-15T06:46:59Z</time>
      </trkpt>
      <trkpt lat="43.73102" lon="7.10265">
        <ele>383.1</ele>
        <time>2026-05-15T06:47:00Z</time>
      </trkpt>
      <trkpt lat="43.73113" lon="7.10265">
        <ele>383.2</ele>
        <time>2026-05-15T06:47:01Z</time>
      </trkpt>
      <trkpt lat="43.73123" lon="7.10265">
        <ele>383.6</ele>
        <time>2026-05-15T06:47:02Z</time>
      </trkpt>
      <trkpt lat="43.73132" lon="7.10265">
        <ele>383.9</ele>
        <time>2026-05-15T06:47:03Z</time>
      </trkpt>
      <trkpt lat="43.73141" lon="7.10264">
        <ele>384.7</ele>
        <time>2026-05-15T06:47:04Z</time>
      </trkpt>
      <trkpt lat="43.73149" lon="7.10263">
        <ele>386.1</ele>
        <time>2026-05-15T06:47:05Z</time>
      </trkpt>
      <trkpt lat="43.73159" lon="7.10263">
        <ele>387.3</ele>
        <time>2026-05-15T06:47:06Z</time>
      </trkpt>
      <trkpt lat="43.73169" lon="7.10265">
        <ele>388.2</ele>
        <time>2026-05-15T06:47:07Z</time>
      </trkpt>
      <trkpt lat="43.73179" lon="7.1027">
        <ele>389.2</ele>
        <time>2026-05-15T06:47:08Z</time>
      </trkpt>
      <trkpt lat="43.73188" lon="7.10279">
        <ele>389.2</ele>
        <time>2026-05-15T06:47:09Z</time>
      </trkpt>
      <trkpt lat="43.73198" lon="7.10289">
        <ele>390.2</ele>
        <time>2026-05-15T06:47:10Z</time>
      </trkpt>
      <trkpt lat="43.73207" lon="7.10299">
        <ele>391.4</ele>
        <time>2026-05-15T06:47:11Z</time>
      </trkpt>
      <trkpt lat="43.73215" lon="7.10309">
        <ele>392.4</ele>
        <time>2026-05-15T06:47:12Z</time>
      </trkpt>
      <trkpt lat="43.73222" lon="7.10317">
        <ele>393.7</ele>
        <time>2026-05-15T06:47:13Z</time>
      </trkpt>
      <trkpt lat="43.73229" lon="7.10325">
        <ele>395.1</ele>
        <time>2026-05-15T06:47:14Z</time>
      </trkpt>
      <trkpt lat="43.73235" lon="7.10332">
        <ele>395.9</ele>
        <time>2026-05-15T06:47:15Z</time>
      </trkpt>
      <trkpt lat="43.73241" lon="7.10338">
        <ele>397.2</ele>
        <time>2026-05-15T06:47:16Z</time>
      </trkpt>
      <trkpt lat="43.73245" lon="7.10344">
        <ele>397.9</ele>
        <time>2026-05-15T06:47:17Z</time>
      </trkpt>
      <trkpt lat="43.73248" lon="7.10349">
        <ele>398.4</ele>
        <time>2026-05-15T06:47:18Z</time>
      </trkpt>
      <trkpt lat="43.7325" lon="7.10355">
        <ele>398.4</ele>
        <time>2026-05-15T06:47:19Z</time>
      </trkpt>
      <trkpt lat="43.73251" lon="7.10361">
        <ele>398.2</ele>
        <time>2026-05-15T06:47:20Z</time>
      </trkpt>
      <trkpt lat="43.7325" lon="7.10369">
        <ele>399.4</ele>
        <time>2026-05-15T06:47:21Z</time>
      </trkpt>
      <trkpt lat="43.73248" lon="7.10376">
        <ele>400.3</ele>
        <time>2026-05-15T06:47:22Z</time>
      </trkpt>
      <trkpt lat="43.73243" lon="7.10382">
        <ele>400.4</ele>
        <time>2026-05-15T06:47:23Z</time>
      </trkpt>
      <trkpt lat="43.73236" lon="7.10387">
        <ele>400.1</ele>
        <time>2026-05-15T06:47:24Z</time>
      </trkpt>
      <trkpt lat="43.73228" lon="7.10391">
        <ele>399.9</ele>
        <time>2026-05-15T06:47:25Z</time>
      </trkpt>
      <trkpt lat="43.73218" lon="7.10396">
        <ele>400.5</ele>
        <time>2026-05-15T06:47:26Z</time>
      </trkpt>
      <trkpt lat="43.73206" lon="7.10401">
        <ele>400.9</ele>
        <time>2026-05-15T06:47:27Z</time>
      </trkpt>
      <trkpt lat="43.73195" lon="7.10406">
        <ele>401.5</ele>
        <time>2026-05-15T06:47:28Z</time>
      </trkpt>
      <trkpt lat="43.73184" lon="7.10411">
        <ele>401.8</ele>
        <time>2026-05-15T06:47:29Z</time>
      </trkpt>
      <trkpt lat="43.73174" lon="7.10417">
        <ele>402.5</ele>
        <time>2026-05-15T06:47:30Z</time>
      </trkpt>
      <trkpt lat="43.73163" lon="7.10423">
        <ele>403.2</ele>
        <time>2026-05-15T06:47:31Z</time>
      </trkpt>
      <trkpt lat="43.73151" lon="7.10431">
        <ele>404.3</ele>
        <time>2026-05-15T06:47:32Z</time>
      </trkpt>
      <trkpt lat="43.73141" lon="7.1044">
        <ele>405.7</ele>
        <time>2026-05-15T06:47:33Z</time>
      </trkpt>
      <trkpt lat="43.73129" lon="7.1045">
        <ele>405.9</ele>
        <time>2026-05-15T06:47:34Z</time>
      </trkpt>
      <trkpt lat="43.73118" lon="7.10461">
        <ele>406.3</ele>
        <time>2026-05-15T06:47:35Z</time>
      </trkpt>
      <trkpt lat="43.73107" lon="7.10474">
        <ele>407.2</ele>
        <time>2026-05-15T06:47:36Z</time>
      </trkpt>
      <trkpt lat="43.73097" lon="7.10489">
        <ele>409.3</ele>
        <time>2026-05-15T06:47:37Z</time>
      </trkpt>
      <trkpt lat="43.73088" lon="7.10502">
        <ele>410.6</ele>
        <time>2026-05-15T06:47:38Z</time>
      </trkpt>
      <trkpt lat="43.73079" lon="7.10515">
        <ele>411.6</ele>
        <time>2026-05-15T06:47:39Z</time>
      </trkpt>
      <trkpt lat="43.73072" lon="7.10526">
        <ele>412.5</ele>
        <time>2026-05-15T06:47:40Z</time>
      </trkpt>
      <trkpt lat="43.73065" lon="7.10537">
        <ele>413.5</ele>
        <time>2026-05-15T06:47:41Z</time>
      </trkpt>
      <trkpt lat="43.73059" lon="7.10548">
        <ele>414.9</ele>
        <time>2026-05-15T06:47:42Z</time>
      </trkpt>
      <trkpt lat="43.73052" lon="7.10559">
        <ele>415.7</ele>
        <time>2026-05-15T06:47:43Z</time>
      </trkpt>
      <trkpt lat="43.73045" lon="7.10571">
        <ele>416.8</ele>
        <time>2026-05-15T06:47:44Z</time>
      </trkpt>
      <trkpt lat="43.73037" lon="7.10584">
        <ele>417.5</ele>
        <time>2026-05-15T06:47:45Z</time>
      </trkpt>
      <trkpt lat="43.73029" lon="7.10598">
        <ele>417.8</ele>
        <time>2026-05-15T06:47:46Z</time>
      </trkpt>
      <trkpt lat="43.73021" lon="7.10611">
        <ele>417.3</ele>
        <time>2026-05-15T06:47:47Z</time>
      </trkpt>
      <trkpt lat="43.73015" lon="7.10626">
        <ele>416.8</ele>
        <time>2026-05-15T06:47:48Z</time>
      </trkpt>
      <trkpt lat="43.7301" lon="7.1064">
        <ele>416.5</ele>
        <time>2026-05-15T06:47:49Z</time>
      </trkpt>
      <trkpt lat="43.73007" lon="7.10656">
        <ele>417.1</ele>
        <time>2026-05-15T06:47:50Z</time>
      </trkpt>
      <trkpt lat="43.73004" lon="7.10673">
        <ele>417.6</ele>
        <time>2026-05-15T06:47:51Z</time>
      </trkpt>
      <trkpt lat="43.73001" lon="7.1069">
        <ele>417.9</ele>
        <time>2026-05-15T06:47:52Z</time>
      </trkpt>
      <trkpt lat="43.72999" lon="7.10707">
        <ele>418.9</ele>
        <time>2026-05-15T06:47:53Z</time>
      </trkpt>
      <trkpt lat="43.72997" lon="7.10724">
        <ele>420.1</ele>
        <time>2026-05-15T06:47:54Z</time>
      </trkpt>
      <trkpt lat="43.72994" lon="7.1074">
        <ele>421.2</ele>
        <time>2026-05-15T06:47:55Z</time>
      </trkpt>
      <trkpt lat="43.72993" lon="7.10754">
        <ele>423</ele>
        <time>2026-05-15T06:47:56Z</time>
      </trkpt>
      <trkpt lat="43.7299" lon="7.10768">
        <ele>424.5</ele>
        <time>2026-05-15T06:47:57Z</time>
      </trkpt>
      <trkpt lat="43.72988" lon="7.10782">
        <ele>426.1</ele>
        <time>2026-05-15T06:47:58Z</time>
      </trkpt>
      <trkpt lat="43.72986" lon="7.10796">
        <ele>427.4</ele>
        <time>2026-05-15T06:47:59Z</time>
      </trkpt>
      <trkpt lat="43.72984" lon="7.1081">
        <ele>428.5</ele>
        <time>2026-05-15T06:48:00Z</time>
      </trkpt>
      <trkpt lat="43.72982" lon="7.10823">
        <ele>429</ele>
        <time>2026-05-15T06:48:01Z</time>
      </trkpt>
      <trkpt lat="43.7298" lon="7.10837">
        <ele>429.5</ele>
        <time>2026-05-15T06:48:02Z</time>
      </trkpt>
      <trkpt lat="43.72978" lon="7.10852">
        <ele>429.5</ele>
        <time>2026-05-15T06:48:03Z</time>
      </trkpt>
      <trkpt lat="43.72977" lon="7.10868">
        <ele>429.8</ele>
        <time>2026-05-15T06:48:04Z</time>
      </trkpt>
      <trkpt lat="43.72977" lon="7.10884">
        <ele>430.3</ele>
        <time>2026-05-15T06:48:05Z</time>
      </trkpt>
      <trkpt lat="43.72977" lon="7.109">
        <ele>430.3</ele>
        <time>2026-05-15T06:48:06Z</time>
      </trkpt>
      <trkpt lat="43.72978" lon="7.10918">
        <ele>430.7</ele>
        <time>2026-05-15T06:48:07Z</time>
      </trkpt>
      <trkpt lat="43.7298" lon="7.10935">
        <ele>431.5</ele>
        <time>2026-05-15T06:48:08Z</time>
      </trkpt>
      <trkpt lat="43.72983" lon="7.10954">
        <ele>432.5</ele>
        <time>2026-05-15T06:48:09Z</time>
      </trkpt>
      <trkpt lat="43.72985" lon="7.10971">
        <ele>433.1</ele>
        <time>2026-05-15T06:48:10Z</time>
      </trkpt>
      <trkpt lat="43.72987" lon="7.10989">
        <ele>433.2</ele>
        <time>2026-05-15T06:48:11Z</time>
      </trkpt>
      <trkpt lat="43.7299" lon="7.11005">
        <ele>433.7</ele>
        <time>2026-05-15T06:48:12Z</time>
      </trkpt>
      <trkpt lat="43.72993" lon="7.11021">
        <ele>434.5</ele>
        <time>2026-05-15T06:48:13Z</time>
      </trkpt>
      <trkpt lat="43.72995" lon="7.11036">
        <ele>434.7</ele>
        <time>2026-05-15T06:48:14Z</time>
      </trkpt>
      <trkpt lat="43.72997" lon="7.1105">
        <ele>434.5</ele>
        <time>2026-05-15T06:48:15Z</time>
      </trkpt>
      <trkpt lat="43.72999" lon="7.11063">
        <ele>434.4</ele>
        <time>2026-05-15T06:48:16Z</time>
      </trkpt>
      <trkpt lat="43.73001" lon="7.11077">
        <ele>434.5</ele>
        <time>2026-05-15T06:48:17Z</time>
      </trkpt>
      <trkpt lat="43.73004" lon="7.11089">
        <ele>434.6</ele>
        <time>2026-05-15T06:48:18Z</time>
      </trkpt>
      <trkpt lat="43.73009" lon="7.11098">
        <ele>435</ele>
        <time>2026-05-15T06:48:19Z</time>
      </trkpt>
      <trkpt lat="43.73014" lon="7.11104">
        <ele>435.7</ele>
        <time>2026-05-15T06:48:20Z</time>
      </trkpt>
      <trkpt lat="43.7302" lon="7.11105">
        <ele>436.9</ele>
        <time>2026-05-15T06:48:21Z</time>
      </trkpt>
      <trkpt lat="43.73026" lon="7.111">
        <ele>438.8</ele>
        <time>2026-05-15T06:48:22Z</time>
      </trkpt>
      <trkpt lat="43.73029" lon="7.1109">
        <ele>440.5</ele>
        <time>2026-05-15T06:48:23Z</time>
      </trkpt>
      <trkpt lat="43.73031" lon="7.1108">
        <ele>441.9</ele>
        <time>2026-05-15T06:48:24Z</time>
      </trkpt>
      <trkpt lat="43.73032" lon="7.11069">
        <ele>442.9</ele>
        <time>2026-05-15T06:48:25Z</time>
      </trkpt>
      <trkpt lat="43.73027" lon="7.11051">
        <ele>443.1</ele>
        <time>2026-05-15T06:48:26Z</time>
      </trkpt>
      <trkpt lat="43.73025" lon="7.11035">
        <ele>443.7</ele>
        <time>2026-05-15T06:48:27Z</time>
      </trkpt>
      <trkpt lat="43.73024" lon="7.11019">
        <ele>443.9</ele>
        <time>2026-05-15T06:48:28Z</time>
      </trkpt>
      <trkpt lat="43.73024" lon="7.11003">
        <ele>443.9</ele>
        <time>2026-05-15T06:48:29Z</time>
      </trkpt>
      <trkpt lat="43.73024" lon="7.10988">
        <ele>444.8</ele>
        <time>2026-05-15T06:48:30Z</time>
      </trkpt>
      <trkpt lat="43.73025" lon="7.10976">
        <ele>445.9</ele>
        <time>2026-05-15T06:48:31Z</time>
      </trkpt>
      <trkpt lat="43.73026" lon="7.10964">
        <ele>446.8</ele>
        <time>2026-05-15T06:48:32Z</time>
      </trkpt>
      <trkpt lat="43.73027" lon="7.10952">
        <ele>447.5</ele>
        <time>2026-05-15T06:48:33Z</time>
      </trkpt>
      <trkpt lat="43.73027" lon="7.10939">
        <ele>448</ele>
        <time>2026-05-15T06:48:34Z</time>
      </trkpt>
      <trkpt lat="43.73026" lon="7.10925">
        <ele>448.2</ele>
        <time>2026-05-15T06:48:35Z</time>
      </trkpt>
      <trkpt lat="43.73023" lon="7.10911">
        <ele>448</ele>
        <time>2026-05-15T06:48:36Z</time>
      </trkpt>
      <trkpt lat="43.73019" lon="7.10898">
        <ele>447.6</ele>
        <time>2026-05-15T06:48:37Z</time>
      </trkpt>
      <trkpt lat="43.73015" lon="7.10884">
        <ele>447</ele>
        <time>2026-05-15T06:48:38Z</time>
      </trkpt>
      <trkpt lat="43.73012" lon="7.10871">
        <ele>446.2</ele>
        <time>2026-05-15T06:48:39Z</time>
      </trkpt>
      <trkpt lat="43.73012" lon="7.10857">
        <ele>446</ele>
        <time>2026-05-15T06:48:40Z</time>
      </trkpt>
      <trkpt lat="43.73013" lon="7.10843">
        <ele>445.4</ele>
        <time>2026-05-15T06:48:41Z</time>
      </trkpt>
      <trkpt lat="43.73018" lon="7.1083">
        <ele>446.1</ele>
        <time>2026-05-15T06:48:42Z</time>
      </trkpt>
      <trkpt lat="43.73025" lon="7.10819">
        <ele>447.4</ele>
        <time>2026-05-15T06:48:43Z</time>
      </trkpt>
      <trkpt lat="43.73033" lon="7.10809">
        <ele>448.7</ele>
        <time>2026-05-15T06:48:44Z</time>
      </trkpt>
      <trkpt lat="43.73042" lon="7.108">
        <ele>449.7</ele>
        <time>2026-05-15T06:48:45Z</time>
      </trkpt>
      <trkpt lat="43.73052" lon="7.1079">
        <ele>450.8</ele>
        <time>2026-05-15T06:48:46Z</time>
      </trkpt>
      <trkpt lat="43.73062" lon="7.1078">
        <ele>451.9</ele>
        <time>2026-05-15T06:48:47Z</time>
      </trkpt>
      <trkpt lat="43.73072" lon="7.10769">
        <ele>452.6</ele>
        <time>2026-05-15T06:48:48Z</time>
      </trkpt>
      <trkpt lat="43.73082" lon="7.10758">
        <ele>453.7</ele>
        <time>2026-05-15T06:48:49Z</time>
      </trkpt>
      <trkpt lat="43.73092" lon="7.10749">
        <ele>455.1</ele>
        <time>2026-05-15T06:48:50Z</time>
      </trkpt>
      <trkpt lat="43.73101" lon="7.1074">
        <ele>456.4</ele>
        <time>2026-05-15T06:48:51Z</time>
      </trkpt>
      <trkpt lat="43.73109" lon="7.10732">
        <ele>457.5</ele>
        <time>2026-05-15T06:48:52Z</time>
      </trkpt>
      <trkpt lat="43.73117" lon="7.10724">
        <ele>458.3</ele>
        <time>2026-05-15T06:48:53Z</time>
      </trkpt>
      <trkpt lat="43.73124" lon="7.10716">
        <ele>458.8</ele>
        <time>2026-05-15T06:48:54Z</time>
      </trkpt>
      <trkpt lat="43.7313" lon="7.10709">
        <ele>459.1</ele>
        <time>2026-05-15T06:48:55Z</time>
      </trkpt>
      <trkpt lat="43.73137" lon="7.10701">
        <ele>459.4</ele>
        <time>2026-05-15T06:48:56Z</time>
      </trkpt>
      <trkpt lat="43.73145" lon="7.10693">
        <ele>459.8</ele>
        <time>2026-05-15T06:48:57Z</time>
      </trkpt>
      <trkpt lat="43.73154" lon="7.10686">
        <ele>460.2</ele>
        <time>2026-05-15T06:48:58Z</time>
      </trkpt>
      <trkpt lat="43.73164" lon="7.10678">
        <ele>460.4</ele>
        <time>2026-05-15T06:48:59Z</time>
      </trkpt>
      <trkpt lat="43.73173" lon="7.10669">
        <ele>460.3</ele>
        <time>2026-05-15T06:49:00Z</time>
      </trkpt>
      <trkpt lat="43.73183" lon="7.10659">
        <ele>460.6</ele>
        <time>2026-05-15T06:49:01Z</time>
      </trkpt>
      <trkpt lat="43.73192" lon="7.10649">
        <ele>460.8</ele>
        <time>2026-05-15T06:49:02Z</time>
      </trkpt>
      <trkpt lat="43.73202" lon="7.10639">
        <ele>460.8</ele>
        <time>2026-05-15T06:49:03Z</time>
      </trkpt>
      <trkpt lat="43.73212" lon="7.10631">
        <ele>460.9</ele>
        <time>2026-05-15T06:49:04Z</time>
      </trkpt>
      <trkpt lat="43.73222" lon="7.10623">
        <ele>461.3</ele>
        <time>2026-05-15T06:49:05Z</time>
      </trkpt>
      <trkpt lat="43.73233" lon="7.10616">
        <ele>462.6</ele>
        <time>2026-05-15T06:49:06Z</time>
      </trkpt>
      <trkpt lat="43.73243" lon="7.10608">
        <ele>463.3</ele>
        <time>2026-05-15T06:49:07Z</time>
      </trkpt>
      <trkpt lat="43.73253" lon="7.10602">
        <ele>464.2</ele>
        <time>2026-05-15T06:49:08Z</time>
      </trkpt>
      <trkpt lat="43.73264" lon="7.10596">
        <ele>465.1</ele>
        <time>2026-05-15T06:49:09Z</time>
      </trkpt>
      <trkpt lat="43.73275" lon="7.10592">
        <ele>466.1</ele>
        <time>2026-05-15T06:49:10Z</time>
      </trkpt>
      <trkpt lat="43.73286" lon="7.10587">
        <ele>467</ele>
        <time>2026-05-15T06:49:11Z</time>
      </trkpt>
      <trkpt lat="43.73297" lon="7.10583">
        <ele>467.7</ele>
        <time>2026-05-15T06:49:12Z</time>
      </trkpt>
      <trkpt lat="43.73308" lon="7.10579">
        <ele>468.6</ele>
        <time>2026-05-15T06:49:13Z</time>
      </trkpt>
      <trkpt lat="43.7332" lon="7.10576">
        <ele>470</ele>
        <time>2026-05-15T06:49:14Z</time>
      </trkpt>
      <trkpt lat="43.73331" lon="7.10571">
        <ele>470.5</ele>
        <time>2026-05-15T06:49:15Z</time>
      </trkpt>
      <trkpt lat="43.73343" lon="7.10567">
        <ele>471.6</ele>
        <time>2026-05-15T06:49:16Z</time>
      </trkpt>
      <trkpt lat="43.73356" lon="7.10563">
        <ele>472.6</ele>
        <time>2026-05-15T06:49:17Z</time>
      </trkpt>
      <trkpt lat="43.73368" lon="7.10559">
        <ele>473.9</ele>
        <time>2026-05-15T06:49:18Z</time>
      </trkpt>
      <trkpt lat="43.73381" lon="7.10554">
        <ele>475.5</ele>
        <time>2026-05-15T06:49:19Z</time>
      </trkpt>
      <trkpt lat="43.73394" lon="7.10549">
        <ele>476.8</ele>
        <time>2026-05-15T06:49:20Z</time>
      </trkpt>
      <trkpt lat="43.73406" lon="7.10544">
        <ele>477.6</ele>
        <time>2026-05-15T06:49:21Z</time>
      </trkpt>
      <trkpt lat="43.73419" lon="7.10537">
        <ele>477.7</ele>
        <time>2026-05-15T06:49:22Z</time>
      </trkpt>
      <trkpt lat="43.73432" lon="7.1053">
        <ele>478.4</ele>
        <time>2026-05-15T06:49:23Z</time>
      </trkpt>
      <trkpt lat="43.73445" lon="7.10522">
        <ele>478.7</ele>
        <time>2026-05-15T06:49:24Z</time>
      </trkpt>
      <trkpt lat="43.73457" lon="7.10514">
        <ele>478.4</ele>
        <time>2026-05-15T06:49:25Z</time>
      </trkpt>
      <trkpt lat="43.73469" lon="7.10507">
        <ele>478.4</ele>
        <time>2026-05-15T06:49:26Z</time>
      </trkpt>
      <trkpt lat="43.73482" lon="7.10501">
        <ele>478.2</ele>
        <time>2026-05-15T06:49:27Z</time>
      </trkpt>
      <trkpt lat="43.73495" lon="7.10497">
        <ele>478.8</ele>
        <time>2026-05-15T06:49:28Z</time>
      </trkpt>
      <trkpt lat="43.73508" lon="7.10496">
        <ele>479.6</ele>
        <time>2026-05-15T06:49:29Z</time>
      </trkpt>
      <trkpt lat="43.73521" lon="7.10498">
        <ele>480.9</ele>
        <time>2026-05-15T06:49:30Z</time>
      </trkpt>
      <trkpt lat="43.73534" lon="7.10502">
        <ele>482.2</ele>
        <time>2026-05-15T06:49:31Z</time>
      </trkpt>
      <trkpt lat="43.73548" lon="7.10506">
        <ele>482.4</ele>
        <time>2026-05-15T06:49:32Z</time>
      </trkpt>
      <trkpt lat="43.73562" lon="7.10511">
        <ele>483.2</ele>
        <time>2026-05-15T06:49:33Z</time>
      </trkpt>
      <trkpt lat="43.73575" lon="7.10514">
        <ele>484.2</ele>
        <time>2026-05-15T06:49:34Z</time>
      </trkpt>
      <trkpt lat="43.7359" lon="7.10514">
        <ele>484.9</ele>
        <time>2026-05-15T06:49:35Z</time>
      </trkpt>
      <trkpt lat="43.73605" lon="7.10514">
        <ele>485.7</ele>
        <time>2026-05-15T06:49:36Z</time>
      </trkpt>
      <trkpt lat="43.7362" lon="7.10517">
        <ele>487.1</ele>
        <time>2026-05-15T06:49:37Z</time>
      </trkpt>
      <trkpt lat="43.73635" lon="7.10522">
        <ele>489.1</ele>
        <time>2026-05-15T06:49:38Z</time>
      </trkpt>
      <trkpt lat="43.7365" lon="7.10528">
        <ele>491</ele>
        <time>2026-05-15T06:49:39Z</time>
      </trkpt>
      <trkpt lat="43.73666" lon="7.10535">
        <ele>492.8</ele>
        <time>2026-05-15T06:49:40Z</time>
      </trkpt>
      <trkpt lat="43.7368" lon="7.1054">
        <ele>494.8</ele>
        <time>2026-05-15T06:49:41Z</time>
      </trkpt>
      <trkpt lat="43.73695" lon="7.1054">
        <ele>495.8</ele>
        <time>2026-05-15T06:49:42Z</time>
      </trkpt>
      <trkpt lat="43.7371" lon="7.10536">
        <ele>497.9</ele>
        <time>2026-05-15T06:49:43Z</time>
      </trkpt>
      <trkpt lat="43.73725" lon="7.1053">
        <ele>499.2</ele>
        <time>2026-05-15T06:49:44Z</time>
      </trkpt>
      <trkpt lat="43.7374" lon="7.10527">
        <ele>500.9</ele>
        <time>2026-05-15T06:49:45Z</time>
      </trkpt>
      <trkpt lat="43.73755" lon="7.10526">
        <ele>502.1</ele>
        <time>2026-05-15T06:49:46Z</time>
      </trkpt>
      <trkpt lat="43.73769" lon="7.10529">
        <ele>502.8</ele>
        <time>2026-05-15T06:49:47Z</time>
      </trkpt>
      <trkpt lat="43.73783" lon="7.10533">
        <ele>503.7</ele>
        <time>2026-05-15T06:49:48Z</time>
      </trkpt>
      <trkpt lat="43.73797" lon="7.10539">
        <ele>504.3</ele>
        <time>2026-05-15T06:49:49Z</time>
      </trkpt>
      <trkpt lat="43.73811" lon="7.10546">
        <ele>504.7</ele>
        <time>2026-05-15T06:49:50Z</time>
      </trkpt>
      <trkpt lat="43.73825" lon="7.10553">
        <ele>504.7</ele>
        <time>2026-05-15T06:49:51Z</time>
      </trkpt>
      <trkpt lat="43.73837" lon="7.10558">
        <ele>504.2</ele>
        <time>2026-05-15T06:49:52Z</time>
      </trkpt>
      <trkpt lat="43.7385" lon="7.10559">
        <ele>504.5</ele>
        <time>2026-05-15T06:49:53Z</time>
      </trkpt>
      <trkpt lat="43.73862" lon="7.10559">
        <ele>504.8</ele>
        <time>2026-05-15T06:49:54Z</time>
      </trkpt>
      <trkpt lat="43.73875" lon="7.10556">
        <ele>504.6</ele>
        <time>2026-05-15T06:49:55Z</time>
      </trkpt>
      <trkpt lat="43.73888" lon="7.10554">
        <ele>504.7</ele>
        <time>2026-05-15T06:49:56Z</time>
      </trkpt>
      <trkpt lat="43.73901" lon="7.10553">
        <ele>505.1</ele>
        <time>2026-05-15T06:49:57Z</time>
      </trkpt>
      <trkpt lat="43.73914" lon="7.10554">
        <ele>505.7</ele>
        <time>2026-05-15T06:49:58Z</time>
      </trkpt>
      <trkpt lat="43.73926" lon="7.10557">
        <ele>506.9</ele>
        <time>2026-05-15T06:49:59Z</time>
      </trkpt>
      <trkpt lat="43.73938" lon="7.10559">
        <ele>508.3</ele>
        <time>2026-05-15T06:50:00Z</time>
      </trkpt>
      <trkpt lat="43.7395" lon="7.10559">
        <ele>509.3</ele>
        <time>2026-05-15T06:50:01Z</time>
      </trkpt>
      <trkpt lat="43.73961" lon="7.10557">
        <ele>510.1</ele>
        <time>2026-05-15T06:50:02Z</time>
      </trkpt>
      <trkpt lat="43.73973" lon="7.10555">
        <ele>511</ele>
        <time>2026-05-15T06:50:03Z</time>
      </trkpt>
      <trkpt lat="43.73984" lon="7.10553">
        <ele>511.9</ele>
        <time>2026-05-15T06:50:04Z</time>
      </trkpt>
      <trkpt lat="43.73996" lon="7.1055">
        <ele>512.9</ele>
        <time>2026-05-15T06:50:05Z</time>
      </trkpt>
      <trkpt lat="43.74007" lon="7.10549">
        <ele>514.1</ele>
        <time>2026-05-15T06:50:06Z</time>
      </trkpt>
      <trkpt lat="43.74018" lon="7.10547">
        <ele>515.2</ele>
        <time>2026-05-15T06:50:07Z</time>
      </trkpt>
      <trkpt lat="43.7403" lon="7.10545">
        <ele>516.5</ele>
        <time>2026-05-15T06:50:08Z</time>
      </trkpt>
      <trkpt lat="43.74041" lon="7.10543">
        <ele>517.5</ele>
        <time>2026-05-15T06:50:09Z</time>
      </trkpt>
      <trkpt lat="43.74054" lon="7.10543">
        <ele>518.9</ele>
        <time>2026-05-15T06:50:10Z</time>
      </trkpt>
      <trkpt lat="43.74066" lon="7.10543">
        <ele>520.1</ele>
        <time>2026-05-15T06:50:11Z</time>
      </trkpt>
      <trkpt lat="43.7408" lon="7.10545">
        <ele>521.5</ele>
        <time>2026-05-15T06:50:12Z</time>
      </trkpt>
      <trkpt lat="43.74093" lon="7.10545">
        <ele>523.1</ele>
        <time>2026-05-15T06:50:13Z</time>
      </trkpt>
      <trkpt lat="43.74106" lon="7.10542">
        <ele>524.4</ele>
        <time>2026-05-15T06:50:14Z</time>
      </trkpt>
      <trkpt lat="43.7412" lon="7.10538">
        <ele>525.5</ele>
        <time>2026-05-15T06:50:15Z</time>
      </trkpt>
      <trkpt lat="43.74133" lon="7.10533">
        <ele>526.3</ele>
        <time>2026-05-15T06:50:16Z</time>
      </trkpt>
      <trkpt lat="43.74145" lon="7.10526">
        <ele>527.7</ele>
        <time>2026-05-15T06:50:17Z</time>
      </trkpt>
      <trkpt lat="43.74156" lon="7.10516">
        <ele>529.4</ele>
        <time>2026-05-15T06:50:18Z</time>
      </trkpt>
      <trkpt lat="43.74167" lon="7.10506">
        <ele>529.4</ele>
        <time>2026-05-15T06:50:19Z</time>
      </trkpt>
      <trkpt lat="43.74179" lon="7.10497">
        <ele>531.3</ele>
        <time>2026-05-15T06:50:20Z</time>
      </trkpt>
      <trkpt lat="43.74191" lon="7.10489">
        <ele>532.9</ele>
        <time>2026-05-15T06:50:21Z</time>
      </trkpt>
      <trkpt lat="43.74203" lon="7.10483">
        <ele>534</ele>
        <time>2026-05-15T06:50:22Z</time>
      </trkpt>
      <trkpt lat="43.74214" lon="7.10478">
        <ele>534.6</ele>
        <time>2026-05-15T06:50:23Z</time>
      </trkpt>
      <trkpt lat="43.74226" lon="7.10472">
        <ele>535.1</ele>
        <time>2026-05-15T06:50:24Z</time>
      </trkpt>
      <trkpt lat="43.74237" lon="7.10468">
        <ele>537.5</ele>
        <time>2026-05-15T06:50:25Z</time>
      </trkpt>
      <trkpt lat="43.74249" lon="7.10463">
        <ele>539.1</ele>
        <time>2026-05-15T06:50:26Z</time>
      </trkpt>
      <trkpt lat="43.7426" lon="7.10456">
        <ele>540.5</ele>
        <time>2026-05-15T06:50:27Z</time>
      </trkpt>
      <trkpt lat="43.74271" lon="7.10448">
        <ele>541.3</ele>
        <time>2026-05-15T06:50:28Z</time>
      </trkpt>
      <trkpt lat="43.74281" lon="7.10439">
        <ele>542.2</ele>
        <time>2026-05-15T06:50:29Z</time>
      </trkpt>
      <trkpt lat="43.74292" lon="7.1043">
        <ele>544</ele>
        <time>2026-05-15T06:50:30Z</time>
      </trkpt>
      <trkpt lat="43.74302" lon="7.10421">
        <ele>544.4</ele>
        <time>2026-05-15T06:50:31Z</time>
      </trkpt>
      <trkpt lat="43.74312" lon="7.10412">
        <ele>545.4</ele>
        <time>2026-05-15T06:50:32Z</time>
      </trkpt>
      <trkpt lat="43.74322" lon="7.10403">
        <ele>546.7</ele>
        <time>2026-05-15T06:50:33Z</time>
      </trkpt>
      <trkpt lat="43.74332" lon="7.10395">
        <ele>547.3</ele>
        <time>2026-05-15T06:50:34Z</time>
      </trkpt>
      <trkpt lat="43.74343" lon="7.10389">
        <ele>547.8</ele>
        <time>2026-05-15T06:50:35Z</time>
      </trkpt>
      <trkpt lat="43.74355" lon="7.10385">
        <ele>549.3</ele>
        <time>2026-05-15T06:50:36Z</time>
      </trkpt>
      <trkpt lat="43.74366" lon="7.10381">
        <ele>550.9</ele>
        <time>2026-05-15T06:50:37Z</time>
      </trkpt>
      <trkpt lat="43.74377" lon="7.10375">
        <ele>552.8</ele>
        <time>2026-05-15T06:50:38Z</time>
      </trkpt>
      <trkpt lat="43.74387" lon="7.10366">
        <ele>553.6</ele>
        <time>2026-05-15T06:50:39Z</time>
      </trkpt>
      <trkpt lat="43.74397" lon="7.10355">
        <ele>555.2</ele>
        <time>2026-05-15T06:50:40Z</time>
      </trkpt>
      <trkpt lat="43.74405" lon="7.10342">
        <ele>555.8</ele>
        <time>2026-05-15T06:50:41Z</time>
      </trkpt>
      <trkpt lat="43.74413" lon="7.10327">
        <ele>556.3</ele>
        <time>2026-05-15T06:50:42Z</time>
      </trkpt>
      <trkpt lat="43.74422" lon="7.10312">
        <ele>557.6</ele>
        <time>2026-05-15T06:50:43Z</time>
      </trkpt>
      <trkpt lat="43.74431" lon="7.103">
        <ele>558.9</ele>
        <time>2026-05-15T06:50:44Z</time>
      </trkpt>
      <trkpt lat="43.74441" lon="7.10289">
        <ele>560.1</ele>
        <time>2026-05-15T06:50:45Z</time>
      </trkpt>
      <trkpt lat="43.74451" lon="7.1028">
        <ele>561.3</ele>
        <time>2026-05-15T06:50:46Z</time>
      </trkpt>
      <trkpt lat="43.7446" lon="7.10272">
        <ele>562.9</ele>
        <time>2026-05-15T06:50:47Z</time>
      </trkpt>
      <trkpt lat="43.74469" lon="7.10264">
        <ele>563.9</ele>
        <time>2026-05-15T06:50:48Z</time>
      </trkpt>
      <trkpt lat="43.74477" lon="7.10257">
        <ele>564.6</ele>
        <time>2026-05-15T06:50:49Z</time>
      </trkpt>
      <trkpt lat="43.74485" lon="7.10249">
        <ele>565.1</ele>
        <time>2026-05-15T06:50:50Z</time>
      </trkpt>
      <trkpt lat="43.74494" lon="7.10241">
        <ele>566</ele>
        <time>2026-05-15T06:50:51Z</time>
      </trkpt>
      <trkpt lat="43.74503" lon="7.10233">
        <ele>566.4</ele>
        <time>2026-05-15T06:50:52Z</time>
      </trkpt>
      <trkpt lat="43.74513" lon="7.10224">
        <ele>568.1</ele>
        <time>2026-05-15T06:50:53Z</time>
      </trkpt>
      <trkpt lat="43.74523" lon="7.10214">
        <ele>570.1</ele>
        <time>2026-05-15T06:50:54Z</time>
      </trkpt>
      <trkpt lat="43.74534" lon="7.10204">
        <ele>571</ele>
        <time>2026-05-15T06:50:55Z</time>
      </trkpt>
      <trkpt lat="43.74545" lon="7.10193">
        <ele>571.8</ele>
        <time>2026-05-15T06:50:56Z</time>
      </trkpt>
      <trkpt lat="43.74557" lon="7.10182">
        <ele>573.2</ele>
        <time>2026-05-15T06:50:57Z</time>
      </trkpt>
      <trkpt lat="43.74568" lon="7.10172">
        <ele>573.9</ele>
        <time>2026-05-15T06:50:58Z</time>
      </trkpt>
      <trkpt lat="43.7458" lon="7.10161">
        <ele>574.8</ele>
        <time>2026-05-15T06:50:59Z</time>
      </trkpt>
      <trkpt lat="43.74592" lon="7.1015">
        <ele>576.6</ele>
        <time>2026-05-15T06:51:00Z</time>
      </trkpt>
      <trkpt lat="43.74604" lon="7.10139">
        <ele>577.5</ele>
        <time>2026-05-15T06:51:01Z</time>
      </trkpt>
      <trkpt lat="43.74615" lon="7.10128">
        <ele>578.7</ele>
        <time>2026-05-15T06:51:02Z</time>
      </trkpt>
      <trkpt lat="43.74626" lon="7.10118">
        <ele>579.4</ele>
        <time>2026-05-15T06:51:03Z</time>
      </trkpt>
      <trkpt lat="43.74635" lon="7.10107">
        <ele>579.4</ele>
        <time>2026-05-15T06:51:04Z</time>
      </trkpt>
      <trkpt lat="43.74641" lon="7.10094">
        <ele>579.9</ele>
        <time>2026-05-15T06:51:05Z</time>
      </trkpt>
      <trkpt lat="43.74646" lon="7.1008">
        <ele>580.5</ele>
        <time>2026-05-15T06:51:06Z</time>
      </trkpt>
      <trkpt lat="43.7465" lon="7.10064">
        <ele>581.1</ele>
        <time>2026-05-15T06:51:07Z</time>
      </trkpt>
      <trkpt lat="43.74655" lon="7.10048">
        <ele>582</ele>
        <time>2026-05-15T06:51:08Z</time>
      </trkpt>
      <trkpt lat="43.74659" lon="7.10031">
        <ele>582.5</ele>
        <time>2026-05-15T06:51:09Z</time>
      </trkpt>
      <trkpt lat="43.74664" lon="7.10013">
        <ele>582.9</ele>
        <time>2026-05-15T06:51:10Z</time>
      </trkpt>
      <trkpt lat="43.74669" lon="7.09995">
        <ele>583.9</ele>
        <time>2026-05-15T06:51:11Z</time>
      </trkpt>
      <trkpt lat="43.74674" lon="7.09976">
        <ele>585.9</ele>
        <time>2026-05-15T06:51:12Z</time>
      </trkpt>
      <trkpt lat="43.7468" lon="7.09956">
        <ele>588.3</ele>
        <time>2026-05-15T06:51:13Z</time>
      </trkpt>
      <trkpt lat="43.74686" lon="7.09937">
        <ele>590.1</ele>
        <time>2026-05-15T06:51:14Z</time>
      </trkpt>
      <trkpt lat="43.74692" lon="7.09917">
        <ele>590.6</ele>
        <time>2026-05-15T06:51:15Z</time>
      </trkpt>
      <trkpt lat="43.74699" lon="7.09899">
        <ele>592.1</ele>
        <time>2026-05-15T06:51:16Z</time>
      </trkpt>
      <trkpt lat="43.74705" lon="7.09882">
        <ele>593.1</ele>
        <time>2026-05-15T06:51:17Z</time>
      </trkpt>
      <trkpt lat="43.74713" lon="7.09866">
        <ele>594.4</ele>
        <time>2026-05-15T06:51:18Z</time>
      </trkpt>
      <trkpt lat="43.74722" lon="7.09851">
        <ele>595.2</ele>
        <time>2026-05-15T06:51:19Z</time>
      </trkpt>
      <trkpt lat="43.74732" lon="7.09837">
        <ele>597.6</ele>
        <time>2026-05-15T06:51:20Z</time>
      </trkpt>
      <trkpt lat="43.74743" lon="7.09823">
        <ele>599.3</ele>
        <time>2026-05-15T06:51:21Z</time>
      </trkpt>
      <trkpt lat="43.74753" lon="7.09809">
        <ele>599.8</ele>
        <time>2026-05-15T06:51:22Z</time>
      </trkpt>
      <trkpt lat="43.74762" lon="7.09794">
        <ele>601.4</ele>
        <time>2026-05-15T06:51:23Z</time>
      </trkpt>
      <trkpt lat="43.74772" lon="7.09779">
        <ele>602</ele>
        <time>2026-05-15T06:51:24Z</time>
      </trkpt>
      <trkpt lat="43.7478" lon="7.09763">
        <ele>602.8</ele>
        <time>2026-05-15T06:51:25Z</time>
      </trkpt>
      <trkpt lat="43.74789" lon="7.09748">
        <ele>604.4</ele>
        <time>2026-05-15T06:51:26Z</time>
      </trkpt>
      <trkpt lat="43.74799" lon="7.09733">
        <ele>605.7</ele>
        <time>2026-05-15T06:51:27Z</time>
      </trkpt>
      <trkpt lat="43.74809" lon="7.09719">
        <ele>607</ele>
        <time>2026-05-15T06:51:28Z</time>
      </trkpt>
      <trkpt lat="43.74819" lon="7.09704">
        <ele>608.7</ele>
        <time>2026-05-15T06:51:29Z</time>
      </trkpt>
      <trkpt lat="43.74828" lon="7.09692">
        <ele>610</ele>
        <time>2026-05-15T06:51:30Z</time>
      </trkpt>
      <trkpt lat="43.74837" lon="7.09679">
        <ele>610.5</ele>
        <time>2026-05-15T06:51:31Z</time>
      </trkpt>
      <trkpt lat="43.74846" lon="7.09667">
        <ele>610.7</ele>
        <time>2026-05-15T06:51:32Z</time>
      </trkpt>
      <trkpt lat="43.74855" lon="7.09655">
        <ele>611.8</ele>
        <time>2026-05-15T06:51:33Z</time>
      </trkpt>
      <trkpt lat="43.74865" lon="7.09643">
        <ele>612.1</ele>
        <time>2026-05-15T06:51:34Z</time>
      </trkpt>
      <trkpt lat="43.74875" lon="7.09633">
        <ele>614.2</ele>
        <time>2026-05-15T06:51:35Z</time>
      </trkpt>
      <trkpt lat="43.74888" lon="7.09625">
        <ele>615.9</ele>
        <time>2026-05-15T06:51:36Z</time>
      </trkpt>
      <trkpt lat="43.749" lon="7.09618">
        <ele>616.6</ele>
        <time>2026-05-15T06:51:37Z</time>
      </trkpt>
      <trkpt lat="43.74914" lon="7.0961">
        <ele>616.6</ele>
        <time>2026-05-15T06:51:38Z</time>
      </trkpt>
      <trkpt lat="43.74928" lon="7.09602">
        <ele>619.5</ele>
        <time>2026-05-15T06:51:39Z</time>
      </trkpt>
      <trkpt lat="43.74942" lon="7.09594">
        <ele>621.2</ele>
        <time>2026-05-15T06:51:40Z</time>
      </trkpt>
      <trkpt lat="43.74956" lon="7.09586">
        <ele>621.8</ele>
        <time>2026-05-15T06:51:41Z</time>
      </trkpt>
      <trkpt lat="43.74969" lon="7.09579">
        <ele>623.2</ele>
        <time>2026-05-15T06:51:42Z</time>
      </trkpt>
      <trkpt lat="43.7498" lon="7.09573">
        <ele>624.2</ele>
        <time>2026-05-15T06:51:43Z</time>
      </trkpt>
      <trkpt lat="43.7499" lon="7.09567">
        <ele>624.6</ele>
        <time>2026-05-15T06:51:44Z</time>
      </trkpt>
      <trkpt lat="43.74997" lon="7.09562">
        <ele>624.7</ele>
        <time>2026-05-15T06:51:45Z</time>
      </trkpt>
      <trkpt lat="43.75003" lon="7.09558">
        <ele>624.6</ele>
        <time>2026-05-15T06:51:46Z</time>
      </trkpt>
      <trkpt lat="43.75008" lon="7.09554">
        <ele>624.8</ele>
        <time>2026-05-15T06:51:47Z</time>
      </trkpt>
      <trkpt lat="43.75014" lon="7.09554">
        <ele>625.2</ele>
        <time>2026-05-15T06:51:48Z</time>
      </trkpt>
      <trkpt lat="43.75019" lon="7.09557">
        <ele>625.6</ele>
        <time>2026-05-15T06:51:49Z</time>
      </trkpt>
      <trkpt lat="43.75021" lon="7.09564">
        <ele>627</ele>
        <time>2026-05-15T06:51:50Z</time>
      </trkpt>
      <trkpt lat="43.75021" lon="7.09573">
        <ele>628.5</ele>
        <time>2026-05-15T06:51:51Z</time>
      </trkpt>
      <trkpt lat="43.75015" lon="7.09578">
        <ele>628.7</ele>
        <time>2026-05-15T06:51:52Z</time>
      </trkpt>
      <trkpt lat="43.75008" lon="7.0958">
        <ele>628.3</ele>
        <time>2026-05-15T06:51:53Z</time>
      </trkpt>
      <trkpt lat="43.75" lon="7.09581">
        <ele>627.7</ele>
        <time>2026-05-15T06:51:54Z</time>
      </trkpt>
      <trkpt lat="43.7499" lon="7.09584">
        <ele>626.8</ele>
        <time>2026-05-15T06:51:55Z</time>
      </trkpt>
      <trkpt lat="43.7498" lon="7.09591">
        <ele>627.5</ele>
        <time>2026-05-15T06:51:56Z</time>
      </trkpt>
      <trkpt lat="43.7497" lon="7.09599">
        <ele>628.1</ele>
        <time>2026-05-15T06:51:57Z</time>
      </trkpt>
      <trkpt lat="43.7496" lon="7.09608">
        <ele>628.5</ele>
        <time>2026-05-15T06:51:58Z</time>
      </trkpt>
      <trkpt lat="43.74951" lon="7.09617">
        <ele>629.1</ele>
        <time>2026-05-15T06:51:59Z</time>
      </trkpt>
      <trkpt lat="43.74943" lon="7.09624">
        <ele>629.3</ele>
        <time>2026-05-15T06:52:00Z</time>
      </trkpt>
      <trkpt lat="43.74935" lon="7.0963">
        <ele>629.1</ele>
        <time>2026-05-15T06:52:01Z</time>
      </trkpt>
      <trkpt lat="43.74928" lon="7.09635">
        <ele>629.1</ele>
        <time>2026-05-15T06:52:02Z</time>
      </trkpt>
      <trkpt lat="43.74923" lon="7.09641">
        <ele>629.9</ele>
        <time>2026-05-15T06:52:03Z</time>
      </trkpt>
      <trkpt lat="43.7492" lon="7.09649">
        <ele>631.3</ele>
        <time>2026-05-15T06:52:04Z</time>
      </trkpt>
      <trkpt lat="43.74922" lon="7.09657">
        <ele>633.8</ele>
        <time>2026-05-15T06:52:05Z</time>
      </trkpt>
      <trkpt lat="43.74927" lon="7.09662">
        <ele>636.4</ele>
        <time>2026-05-15T06:52:06Z</time>
      </trkpt>
      <trkpt lat="43.74934" lon="7.09661">
        <ele>637.8</ele>
        <time>2026-05-15T06:52:07Z</time>
      </trkpt>
      <trkpt lat="43.74941" lon="7.09655">
        <ele>637.8</ele>
        <time>2026-05-15T06:52:08Z</time>
      </trkpt>
      <trkpt lat="43.74949" lon="7.09647">
        <ele>637.4</ele>
        <time>2026-05-15T06:52:09Z</time>
      </trkpt>
      <trkpt lat="43.74958" lon="7.09638">
        <ele>636.7</ele>
        <time>2026-05-15T06:52:10Z</time>
      </trkpt>
      <trkpt lat="43.74968" lon="7.0963">
        <ele>636.5</ele>
        <time>2026-05-15T06:52:11Z</time>
      </trkpt>
      <trkpt lat="43.7498" lon="7.09623">
        <ele>637.1</ele>
        <time>2026-05-15T06:52:12Z</time>
      </trkpt>
      <trkpt lat="43.74992" lon="7.09619">
        <ele>638.5</ele>
        <time>2026-05-15T06:52:13Z</time>
      </trkpt>
      <trkpt lat="43.75004" lon="7.09616">
        <ele>639.9</ele>
        <time>2026-05-15T06:52:14Z</time>
      </trkpt>
      <trkpt lat="43.75017" lon="7.09614">
        <ele>640.8</ele>
        <time>2026-05-15T06:52:15Z</time>
      </trkpt>
      <trkpt lat="43.75031" lon="7.09612">
        <ele>641.9</ele>
        <time>2026-05-15T06:52:16Z</time>
      </trkpt>
      <trkpt lat="43.75045" lon="7.0961">
        <ele>643.7</ele>
        <time>2026-05-15T06:52:17Z</time>
      </trkpt>
      <trkpt lat="43.75059" lon="7.09605">
        <ele>644.5</ele>
        <time>2026-05-15T06:52:18Z</time>
      </trkpt>
      <trkpt lat="43.75072" lon="7.09601">
        <ele>645.9</ele>
        <time>2026-05-15T06:52:19Z</time>
      </trkpt>
      <trkpt lat="43.75084" lon="7.09596">
        <ele>646.7</ele>
        <time>2026-05-15T06:52:20Z</time>
      </trkpt>
      <trkpt lat="43.75096" lon="7.09592">
        <ele>647.4</ele>
        <time>2026-05-15T06:52:21Z</time>
      </trkpt>
      <trkpt lat="43.75108" lon="7.09588">
        <ele>648.1</ele>
        <time>2026-05-15T06:52:22Z</time>
      </trkpt>
      <trkpt lat="43.75118" lon="7.09585">
        <ele>648.6</ele>
        <time>2026-05-15T06:52:23Z</time>
      </trkpt>
      <trkpt lat="43.75129" lon="7.09585">
        <ele>650.2</ele>
        <time>2026-05-15T06:52:24Z</time>
      </trkpt>
      <trkpt lat="43.7514" lon="7.09587">
        <ele>652.4</ele>
        <time>2026-05-15T06:52:25Z</time>
      </trkpt>
      <trkpt lat="43.7515" lon="7.09589">
        <ele>653.6</ele>
        <time>2026-05-15T06:52:26Z</time>
      </trkpt>
      <trkpt lat="43.75159" lon="7.09588">
        <ele>653.8</ele>
        <time>2026-05-15T06:52:27Z</time>
      </trkpt>
      <trkpt lat="43.75166" lon="7.09581">
        <ele>652.9</ele>
        <time>2026-05-15T06:52:28Z</time>
      </trkpt>
      <trkpt lat="43.7517" lon="7.09571">
        <ele>653.9</ele>
        <time>2026-05-15T06:52:29Z</time>
      </trkpt>
      <trkpt lat="43.75172" lon="7.09558">
        <ele>654.4</ele>
        <time>2026-05-15T06:52:30Z</time>
      </trkpt>
      <trkpt lat="43.75174" lon="7.09545">
        <ele>654.2</ele>
        <time>2026-05-15T06:52:31Z</time>
      </trkpt>
      <trkpt lat="43.7518" lon="7.09532">
        <ele>655.2</ele>
        <time>2026-05-15T06:52:32Z</time>
      </trkpt>
      <trkpt lat="43.75188" lon="7.09522">
        <ele>656.4</ele>
        <time>2026-05-15T06:52:33Z</time>
      </trkpt>
      <trkpt lat="43.75196" lon="7.09512">
        <ele>657.1</ele>
        <time>2026-05-15T06:52:34Z</time>
      </trkpt>
      <trkpt lat="43.75205" lon="7.09502">
        <ele>657.9</ele>
        <time>2026-05-15T06:52:35Z</time>
      </trkpt>
      <trkpt lat="43.75214" lon="7.09493">
        <ele>658.6</ele>
        <time>2026-05-15T06:52:36Z</time>
      </trkpt>
      <trkpt lat="43.75224" lon="7.09486">
        <ele>659.8</ele>
        <time>2026-05-15T06:52:37Z</time>
      </trkpt>
      <trkpt lat="43.75234" lon="7.09482">
        <ele>660.7</ele>
        <time>2026-05-15T06:52:38Z</time>
      </trkpt>
      <trkpt lat="43.75246" lon="7.09479">
        <ele>662.2</ele>
        <time>2026-05-15T06:52:39Z</time>
      </trkpt>
      <trkpt lat="43.75257" lon="7.09478">
        <ele>663.7</ele>
        <time>2026-05-15T06:52:40Z</time>
      </trkpt>
      <trkpt lat="43.7527" lon="7.09476">
        <ele>665</ele>
        <time>2026-05-15T06:52:41Z</time>
      </trkpt>
      <trkpt lat="43.75283" lon="7.09473">
        <ele>666</ele>
        <time>2026-05-15T06:52:42Z</time>
      </trkpt>
      <trkpt lat="43.75296" lon="7.09469">
        <ele>666.6</ele>
        <time>2026-05-15T06:52:43Z</time>
      </trkpt>
      <trkpt lat="43.75309" lon="7.09464">
        <ele>667.2</ele>
        <time>2026-05-15T06:52:44Z</time>
      </trkpt>
      <trkpt lat="43.75323" lon="7.09457">
        <ele>668.1</ele>
        <time>2026-05-15T06:52:45Z</time>
      </trkpt>
      <trkpt lat="43.75336" lon="7.09451">
        <ele>669.2</ele>
        <time>2026-05-15T06:52:46Z</time>
      </trkpt>
      <trkpt lat="43.75349" lon="7.09446">
        <ele>671.6</ele>
        <time>2026-05-15T06:52:47Z</time>
      </trkpt>
      <trkpt lat="43.75362" lon="7.0944">
        <ele>673.3</ele>
        <time>2026-05-15T06:52:48Z</time>
      </trkpt>
      <trkpt lat="43.75374" lon="7.09433">
        <ele>673.8</ele>
        <time>2026-05-15T06:52:49Z</time>
      </trkpt>
      <trkpt lat="43.75386" lon="7.09424">
        <ele>673.3</ele>
        <time>2026-05-15T06:52:50Z</time>
      </trkpt>
      <trkpt lat="43.75397" lon="7.09416">
        <ele>674.7</ele>
        <time>2026-05-15T06:52:51Z</time>
      </trkpt>
      <trkpt lat="43.75406" lon="7.09407">
        <ele>677</ele>
        <time>2026-05-15T06:52:52Z</time>
      </trkpt>
      <trkpt lat="43.75415" lon="7.09397">
        <ele>677.8</ele>
        <time>2026-05-15T06:52:53Z</time>
      </trkpt>
      <trkpt lat="43.75422" lon="7.09388">
        <ele>678.3</ele>
        <time>2026-05-15T06:52:54Z</time>
      </trkpt>
      <trkpt lat="43.75428" lon="7.09378">
        <ele>680.3</ele>
        <time>2026-05-15T06:52:55Z</time>
      </trkpt>
      <trkpt lat="43.75433" lon="7.09369">
        <ele>681.4</ele>
        <time>2026-05-15T06:52:56Z</time>
      </trkpt>
      <trkpt lat="43.75437" lon="7.0936">
        <ele>681.8</ele>
        <time>2026-05-15T06:52:57Z</time>
      </trkpt>
      <trkpt lat="43.7544" lon="7.09352">
        <ele>682.2</ele>
        <time>2026-05-15T06:52:58Z</time>
      </trkpt>
      <trkpt lat="43.75444" lon="7.09344">
        <ele>682.1</ele>
        <time>2026-05-15T06:52:59Z</time>
      </trkpt>
      <trkpt lat="43.75447" lon="7.09338">
        <ele>682.9</ele>
        <time>2026-05-15T06:53:00Z</time>
      </trkpt>
      <trkpt lat="43.75449" lon="7.09332">
        <ele>683.5</ele>
        <time>2026-05-15T06:53:01Z</time>
      </trkpt>
      <trkpt lat="43.75452" lon="7.09327">
        <ele>685.1</ele>
        <time>2026-05-15T06:53:02Z</time>
      </trkpt>
      <trkpt lat="43.75454" lon="7.09321">
        <ele>686.1</ele>
        <time>2026-05-15T06:53:03Z</time>
      </trkpt>
      <trkpt lat="43.75455" lon="7.09314">
        <ele>686.6</ele>
        <time>2026-05-15T06:53:04Z</time>
      </trkpt>
      <trkpt lat="43.75455" lon="7.09307">
        <ele>686.6</ele>
        <time>2026-05-15T06:53:05Z</time>
      </trkpt>
      <trkpt lat="43.75452" lon="7.09299">
        <ele>685.8</ele>
        <time>2026-05-15T06:53:06Z</time>
      </trkpt>
      <trkpt lat="43.75447" lon="7.09295">
        <ele>684.4</ele>
        <time>2026-05-15T06:53:07Z</time>
      </trkpt>
      <trkpt lat="43.7544" lon="7.09294">
        <ele>685.1</ele>
        <time>2026-05-15T06:53:08Z</time>
      </trkpt>
      <trkpt lat="43.75433" lon="7.093">
        <ele>686.3</ele>
        <time>2026-05-15T06:53:09Z</time>
      </trkpt>
      <trkpt lat="43.75426" lon="7.09308">
        <ele>686.8</ele>
        <time>2026-05-15T06:53:10Z</time>
      </trkpt>
      <trkpt lat="43.75418" lon="7.09318">
        <ele>686.2</ele>
        <time>2026-05-15T06:53:11Z</time>
      </trkpt>
      <trkpt lat="43.75409" lon="7.09327">
        <ele>685.5</ele>
        <time>2026-05-15T06:53:12Z</time>
      </trkpt>
      <trkpt lat="43.75398" lon="7.09333">
        <ele>686.1</ele>
        <time>2026-05-15T06:53:13Z</time>
      </trkpt>
      <trkpt lat="43.75386" lon="7.09337">
        <ele>687</ele>
        <time>2026-05-15T06:53:14Z</time>
      </trkpt>
      <trkpt lat="43.75375" lon="7.09338">
        <ele>687.5</ele>
        <time>2026-05-15T06:53:15Z</time>
      </trkpt>
      <trkpt lat="43.75364" lon="7.09336">
        <ele>688.9</ele>
        <time>2026-05-15T06:53:16Z</time>
      </trkpt>
      <trkpt lat="43.75352" lon="7.09331">
        <ele>690.3</ele>
        <time>2026-05-15T06:53:17Z</time>
      </trkpt>
      <trkpt lat="43.7534" lon="7.09325">
        <ele>691.6</ele>
        <time>2026-05-15T06:53:18Z</time>
      </trkpt>
      <trkpt lat="43.75326" lon="7.09317">
        <ele>692.8</ele>
        <time>2026-05-15T06:53:19Z</time>
      </trkpt>
      <trkpt lat="43.75314" lon="7.09309">
        <ele>693.8</ele>
        <time>2026-05-15T06:53:20Z</time>
      </trkpt>
      <trkpt lat="43.75303" lon="7.09301">
        <ele>694.7</ele>
        <time>2026-05-15T06:53:21Z</time>
      </trkpt>
      <trkpt lat="43.75293" lon="7.09294">
        <ele>694.8</ele>
        <time>2026-05-15T06:53:22Z</time>
      </trkpt>
      <trkpt lat="43.75285" lon="7.09286">
        <ele>695.7</ele>
        <time>2026-05-15T06:53:23Z</time>
      </trkpt>
      <trkpt lat="43.75277" lon="7.09275">
        <ele>697.2</ele>
        <time>2026-05-15T06:53:24Z</time>
      </trkpt>
      <trkpt lat="43.75271" lon="7.09264">
        <ele>697.3</ele>
        <time>2026-05-15T06:53:25Z</time>
      </trkpt>
      <trkpt lat="43.75268" lon="7.0925">
        <ele>698.5</ele>
        <time>2026-05-15T06:53:26Z</time>
      </trkpt>
      <trkpt lat="43.75265" lon="7.09235">
        <ele>699.4</ele>
        <time>2026-05-15T06:53:27Z</time>
      </trkpt>
      <trkpt lat="43.75264" lon="7.09218">
        <ele>700.9</ele>
        <time>2026-05-15T06:53:28Z</time>
      </trkpt>
      <trkpt lat="43.75262" lon="7.09201">
        <ele>701.7</ele>
        <time>2026-05-15T06:53:29Z</time>
      </trkpt>
      <trkpt lat="43.75261" lon="7.09183">
        <ele>702.5</ele>
        <time>2026-05-15T06:53:30Z</time>
      </trkpt>
      <trkpt lat="43.75261" lon="7.09166">
        <ele>703.4</ele>
        <time>2026-05-15T06:53:31Z</time>
      </trkpt>
      <trkpt lat="43.7526" lon="7.09149">
        <ele>704.2</ele>
        <time>2026-05-15T06:53:32Z</time>
      </trkpt>
      <trkpt lat="43.7526" lon="7.09132">
        <ele>705.5</ele>
        <time>2026-05-15T06:53:33Z</time>
      </trkpt>
      <trkpt lat="43.7526" lon="7.09115">
        <ele>706.7</ele>
        <time>2026-05-15T06:53:34Z</time>
      </trkpt>
      <trkpt lat="43.7526" lon="7.09099">
        <ele>707.8</ele>
        <time>2026-05-15T06:53:35Z</time>
      </trkpt>
      <trkpt lat="43.7526" lon="7.09083">
        <ele>709</ele>
        <time>2026-05-15T06:53:36Z</time>
      </trkpt>
      <trkpt lat="43.75261" lon="7.09067">
        <ele>710.5</ele>
        <time>2026-05-15T06:53:37Z</time>
      </trkpt>
      <trkpt lat="43.7526" lon="7.09051">
        <ele>711.4</ele>
        <time>2026-05-15T06:53:38Z</time>
      </trkpt>
      <trkpt lat="43.75257" lon="7.09036">
        <ele>712.1</ele>
        <time>2026-05-15T06:53:39Z</time>
      </trkpt>
      <trkpt lat="43.75253" lon="7.09022">
        <ele>712.7</ele>
        <time>2026-05-15T06:53:40Z</time>
      </trkpt>
      <trkpt lat="43.75249" lon="7.09009">
        <ele>713.7</ele>
        <time>2026-05-15T06:53:41Z</time>
      </trkpt>
      <trkpt lat="43.75245" lon="7.08998">
        <ele>715.2</ele>
        <time>2026-05-15T06:53:42Z</time>
      </trkpt>
      <trkpt lat="43.75242" lon="7.08988">
        <ele>716.5</ele>
        <time>2026-05-15T06:53:43Z</time>
      </trkpt>
      <trkpt lat="43.75243" lon="7.08979">
        <ele>717.5</ele>
        <time>2026-05-15T06:53:44Z</time>
      </trkpt>
      <trkpt lat="43.75246" lon="7.08972">
        <ele>717.7</ele>
        <time>2026-05-15T06:53:45Z</time>
      </trkpt>
      <trkpt lat="43.75252" lon="7.08968">
        <ele>717.9</ele>
        <time>2026-05-15T06:53:46Z</time>
      </trkpt>
      <trkpt lat="43.75259" lon="7.08971">
        <ele>719.4</ele>
        <time>2026-05-15T06:53:47Z</time>
      </trkpt>
      <trkpt lat="43.75264" lon="7.08978">
        <ele>720.1</ele>
        <time>2026-05-15T06:53:48Z</time>
      </trkpt>
      <trkpt lat="43.75267" lon="7.08988">
        <ele>720.1</ele>
        <time>2026-05-15T06:53:49Z</time>
      </trkpt>
      <trkpt lat="43.7527" lon="7.09001">
        <ele>719.9</ele>
        <time>2026-05-15T06:53:50Z</time>
      </trkpt>
      <trkpt lat="43.75274" lon="7.09015">
        <ele>719.4</ele>
        <time>2026-05-15T06:53:51Z</time>
      </trkpt>
      <trkpt lat="43.75278" lon="7.0903">
        <ele>719</ele>
        <time>2026-05-15T06:53:52Z</time>
      </trkpt>
      <trkpt lat="43.75282" lon="7.09046">
        <ele>719.8</ele>
        <time>2026-05-15T06:53:53Z</time>
      </trkpt>
      <trkpt lat="43.75288" lon="7.09061">
        <ele>720.8</ele>
        <time>2026-05-15T06:53:54Z</time>
      </trkpt>
      <trkpt lat="43.75295" lon="7.09075">
        <ele>721.3</ele>
        <time>2026-05-15T06:53:55Z</time>
      </trkpt>
      <trkpt lat="43.75304" lon="7.09088">
        <ele>722.3</ele>
        <time>2026-05-15T06:53:56Z</time>
      </trkpt>
      <trkpt lat="43.75315" lon="7.09098">
        <ele>723.5</ele>
        <time>2026-05-15T06:53:57Z</time>
      </trkpt>
      <trkpt lat="43.75327" lon="7.09107">
        <ele>724.5</ele>
        <time>2026-05-15T06:53:58Z</time>
      </trkpt>
      <trkpt lat="43.75338" lon="7.09112">
        <ele>725.3</ele>
        <time>2026-05-15T06:53:59Z</time>
      </trkpt>
      <trkpt lat="43.75349" lon="7.09116">
        <ele>725.7</ele>
        <time>2026-05-15T06:54:00Z</time>
      </trkpt>
      <trkpt lat="43.75361" lon="7.09116">
        <ele>726.5</ele>
        <time>2026-05-15T06:54:01Z</time>
      </trkpt>
      <trkpt lat="43.75371" lon="7.09111">
        <ele>726.7</ele>
        <time>2026-05-15T06:54:02Z</time>
      </trkpt>
      <trkpt lat="43.7538" lon="7.09101">
        <ele>727.8</ele>
        <time>2026-05-15T06:54:03Z</time>
      </trkpt>
      <trkpt lat="43.75389" lon="7.0909">
        <ele>729</ele>
        <time>2026-05-15T06:54:04Z</time>
      </trkpt>
      <trkpt lat="43.75397" lon="7.09077">
        <ele>730</ele>
        <time>2026-05-15T06:54:05Z</time>
      </trkpt>
      <trkpt lat="43.75405" lon="7.09064">
        <ele>731</ele>
        <time>2026-05-15T06:54:06Z</time>
      </trkpt>
      <trkpt lat="43.75413" lon="7.09049">
        <ele>732.1</ele>
        <time>2026-05-15T06:54:07Z</time>
      </trkpt>
      <trkpt lat="43.7542" lon="7.09032">
        <ele>733</ele>
        <time>2026-05-15T06:54:08Z</time>
      </trkpt>
      <trkpt lat="43.75428" lon="7.09015">
        <ele>734.2</ele>
        <time>2026-05-15T06:54:09Z</time>
      </trkpt>
      <trkpt lat="43.75435" lon="7.08998">
        <ele>735.6</ele>
        <time>2026-05-15T06:54:10Z</time>
      </trkpt>
      <trkpt lat="43.75443" lon="7.08981">
        <ele>736.9</ele>
        <time>2026-05-15T06:54:11Z</time>
      </trkpt>
      <trkpt lat="43.7545" lon="7.08964">
        <ele>737.9</ele>
        <time>2026-05-15T06:54:12Z</time>
      </trkpt>
      <trkpt lat="43.75455" lon="7.08947">
        <ele>739.2</ele>
        <time>2026-05-15T06:54:13Z</time>
      </trkpt>
      <trkpt lat="43.7546" lon="7.08929">
        <ele>740.1</ele>
        <time>2026-05-15T06:54:14Z</time>
      </trkpt>
      <trkpt lat="43.75463" lon="7.08912">
        <ele>741.1</ele>
        <time>2026-05-15T06:54:15Z</time>
      </trkpt>
      <trkpt lat="43.75466" lon="7.08894">
        <ele>741.9</ele>
        <time>2026-05-15T06:54:16Z</time>
      </trkpt>
      <trkpt lat="43.75469" lon="7.08876">
        <ele>743.5</ele>
        <time>2026-05-15T06:54:17Z</time>
      </trkpt>
      <trkpt lat="43.75472" lon="7.08859">
        <ele>745.3</ele>
        <time>2026-05-15T06:54:18Z</time>
      </trkpt>
      <trkpt lat="43.75476" lon="7.08843">
        <ele>746.8</ele>
        <time>2026-05-15T06:54:19Z</time>
      </trkpt>
      <trkpt lat="43.7548" lon="7.08828">
        <ele>748.1</ele>
        <time>2026-05-15T06:54:20Z</time>
      </trkpt>
      <trkpt lat="43.75484" lon="7.08814">
        <ele>749.2</ele>
        <time>2026-05-15T06:54:21Z</time>
      </trkpt>
      <trkpt lat="43.75489" lon="7.08803">
        <ele>749.9</ele>
        <time>2026-05-15T06:54:22Z</time>
      </trkpt>
      <trkpt lat="43.75497" lon="7.08795">
        <ele>749.8</ele>
        <time>2026-05-15T06:54:23Z</time>
      </trkpt>
      <trkpt lat="43.75506" lon="7.08792">
        <ele>750.7</ele>
        <time>2026-05-15T06:54:24Z</time>
      </trkpt>
      <trkpt lat="43.75515" lon="7.08795">
        <ele>751.2</ele>
        <time>2026-05-15T06:54:25Z</time>
      </trkpt>
      <trkpt lat="43.75524" lon="7.08798">
        <ele>751.9</ele>
        <time>2026-05-15T06:54:26Z</time>
      </trkpt>
      <trkpt lat="43.75534" lon="7.088">
        <ele>752.2</ele>
        <time>2026-05-15T06:54:27Z</time>
      </trkpt>
      <trkpt lat="43.75544" lon="7.088">
        <ele>752.6</ele>
        <time>2026-05-15T06:54:28Z</time>
      </trkpt>
      <trkpt lat="43.75553" lon="7.08795">
        <ele>753.8</ele>
        <time>2026-05-15T06:54:29Z</time>
      </trkpt>
      <trkpt lat="43.75562" lon="7.08788">
        <ele>754.7</ele>
        <time>2026-05-15T06:54:30Z</time>
      </trkpt>
      <trkpt lat="43.75571" lon="7.0878">
        <ele>755.5</ele>
        <time>2026-05-15T06:54:31Z</time>
      </trkpt>
      <trkpt lat="43.7558" lon="7.08772">
        <ele>756.3</ele>
        <time>2026-05-15T06:54:32Z</time>
      </trkpt>
      <trkpt lat="43.75589" lon="7.08763">
        <ele>757</ele>
        <time>2026-05-15T06:54:33Z</time>
      </trkpt>
      <trkpt lat="43.75598" lon="7.08752">
        <ele>758.1</ele>
        <time>2026-05-15T06:54:34Z</time>
      </trkpt>
      <trkpt lat="43.75607" lon="7.0874">
        <ele>758.9</ele>
        <time>2026-05-15T06:54:35Z</time>
      </trkpt>
      <trkpt lat="43.75615" lon="7.08727">
        <ele>759.5</ele>
        <time>2026-05-15T06:54:36Z</time>
      </trkpt>
      <trkpt lat="43.75622" lon="7.08712">
        <ele>760.3</ele>
        <time>2026-05-15T06:54:37Z</time>
      </trkpt>
      <trkpt lat="43.75627" lon="7.08696">
        <ele>761.7</ele>
        <time>2026-05-15T06:54:38Z</time>
      </trkpt>
      <trkpt lat="43.75631" lon="7.08679">
        <ele>762.8</ele>
        <time>2026-05-15T06:54:39Z</time>
      </trkpt>
      <trkpt lat="43.75633" lon="7.08661">
        <ele>764.5</ele>
        <time>2026-05-15T06:54:40Z</time>
      </trkpt>
      <trkpt lat="43.75632" lon="7.08645">
        <ele>766.9</ele>
        <time>2026-05-15T06:54:41Z</time>
      </trkpt>
      <trkpt lat="43.75631" lon="7.08631">
        <ele>768.8</ele>
        <time>2026-05-15T06:54:42Z</time>
      </trkpt>
      <trkpt lat="43.75632" lon="7.08618">
        <ele>769.8</ele>
        <time>2026-05-15T06:54:43Z</time>
      </trkpt>
      <trkpt lat="43.75636" lon="7.08608">
        <ele>770.2</ele>
        <time>2026-05-15T06:54:44Z</time>
      </trkpt>
      <trkpt lat="43.75643" lon="7.08601">
        <ele>770.6</ele>
        <time>2026-05-15T06:54:45Z</time>
      </trkpt>
      <trkpt lat="43.75652" lon="7.08598">
        <ele>770.9</ele>
        <time>2026-05-15T06:54:46Z</time>
      </trkpt>
      <trkpt lat="43.75662" lon="7.08597">
        <ele>770.7</ele>
        <time>2026-05-15T06:54:47Z</time>
      </trkpt>
      <trkpt lat="43.75673" lon="7.08596">
        <ele>770.7</ele>
        <time>2026-05-15T06:54:48Z</time>
      </trkpt>
      <trkpt lat="43.75683" lon="7.08592">
        <ele>771.4</ele>
        <time>2026-05-15T06:54:49Z</time>
      </trkpt>
      <trkpt lat="43.75693" lon="7.08585">
        <ele>772.7</ele>
        <time>2026-05-15T06:54:50Z</time>
      </trkpt>
      <trkpt lat="43.75703" lon="7.08576">
        <ele>774.7</ele>
        <time>2026-05-15T06:54:51Z</time>
      </trkpt>
      <trkpt lat="43.75712" lon="7.08568">
        <ele>776.2</ele>
        <time>2026-05-15T06:54:52Z</time>
      </trkpt>
      <trkpt lat="43.75722" lon="7.08562">
        <ele>776.9</ele>
        <time>2026-05-15T06:54:53Z</time>
      </trkpt>
      <trkpt lat="43.75732" lon="7.08561">
        <ele>778.3</ele>
        <time>2026-05-15T06:54:54Z</time>
      </trkpt>
      <trkpt lat="43.7574" lon="7.08566">
        <ele>778.8</ele>
        <time>2026-05-15T06:54:55Z</time>
      </trkpt>
      <trkpt lat="43.75745" lon="7.08574">
        <ele>778.8</ele>
        <time>2026-05-15T06:54:56Z</time>
      </trkpt>
      <trkpt lat="43.75748" lon="7.08586">
        <ele>778.5</ele>
        <time>2026-05-15T06:54:57Z</time>
      </trkpt>
      <trkpt lat="43.7575" lon="7.08598">
        <ele>779</ele>
        <time>2026-05-15T06:54:58Z</time>
      </trkpt>
      <trkpt lat="43.75753" lon="7.08612">
        <ele>779.7</ele>
        <time>2026-05-15T06:54:59Z</time>
      </trkpt>
      <trkpt lat="43.75758" lon="7.08625">
        <ele>779.9</ele>
        <time>2026-05-15T06:55:00Z</time>
      </trkpt>
      <trkpt lat="43.75767" lon="7.08634">
        <ele>781.1</ele>
        <time>2026-05-15T06:55:01Z</time>
      </trkpt>
      <trkpt lat="43.75776" lon="7.0864">
        <ele>782.5</ele>
        <time>2026-05-15T06:55:02Z</time>
      </trkpt>
      <trkpt lat="43.75787" lon="7.08646">
        <ele>783.8</ele>
        <time>2026-05-15T06:55:03Z</time>
      </trkpt>
      <trkpt lat="43.75798" lon="7.08652">
        <ele>785</ele>
        <time>2026-05-15T06:55:04Z</time>
      </trkpt>
      <trkpt lat="43.7581" lon="7.08657">
        <ele>786.2</ele>
        <time>2026-05-15T06:55:05Z</time>
      </trkpt>
      <trkpt lat="43.75821" lon="7.08661">
        <ele>787.2</ele>
        <time>2026-05-15T06:55:06Z</time>
      </trkpt>
      <trkpt lat="43.75833" lon="7.08664">
        <ele>788.3</ele>
        <time>2026-05-15T06:55:07Z</time>
      </trkpt>
      <trkpt lat="43.75845" lon="7.08664">
        <ele>789.1</ele>
        <time>2026-05-15T06:55:08Z</time>
      </trkpt>
      <trkpt lat="43.75858" lon="7.08661">
        <ele>790.4</ele>
        <time>2026-05-15T06:55:09Z</time>
      </trkpt>
      <trkpt lat="43.75871" lon="7.08661">
        <ele>791.7</ele>
        <time>2026-05-15T06:55:10Z</time>
      </trkpt>
      <trkpt lat="43.75882" lon="7.08666">
        <ele>792.3</ele>
        <time>2026-05-15T06:55:11Z</time>
      </trkpt>
      <trkpt lat="43.75891" lon="7.08671">
        <ele>792.6</ele>
        <time>2026-05-15T06:55:12Z</time>
      </trkpt>
      <trkpt lat="43.75899" lon="7.08673">
        <ele>792.8</ele>
        <time>2026-05-15T06:55:13Z</time>
      </trkpt>
      <trkpt lat="43.75906" lon="7.08671">
        <ele>793.3</ele>
        <time>2026-05-15T06:55:14Z</time>
      </trkpt>
      <trkpt lat="43.75914" lon="7.08663">
        <ele>794.3</ele>
        <time>2026-05-15T06:55:15Z</time>
      </trkpt>
      <trkpt lat="43.75923" lon="7.08654">
        <ele>794.9</ele>
        <time>2026-05-15T06:55:16Z</time>
      </trkpt>
      <trkpt lat="43.75932" lon="7.08644">
        <ele>795.3</ele>
        <time>2026-05-15T06:55:17Z</time>
      </trkpt>
      <trkpt lat="43.75943" lon="7.08632">
        <ele>795.8</ele>
        <time>2026-05-15T06:55:18Z</time>
      </trkpt>
      <trkpt lat="43.75954" lon="7.0862">
        <ele>795.9</ele>
        <time>2026-05-15T06:55:19Z</time>
      </trkpt>
      <trkpt lat="43.75964" lon="7.08607">
        <ele>796.5</ele>
        <time>2026-05-15T06:55:20Z</time>
      </trkpt>
      <trkpt lat="43.75974" lon="7.08592">
        <ele>797.4</ele>
        <time>2026-05-15T06:55:21Z</time>
      </trkpt>
      <trkpt lat="43.75982" lon="7.08574">
        <ele>798.6</ele>
        <time>2026-05-15T06:55:22Z</time>
      </trkpt>
      <trkpt lat="43.75989" lon="7.08555">
        <ele>800.1</ele>
        <time>2026-05-15T06:55:23Z</time>
      </trkpt>
      <trkpt lat="43.75998" lon="7.08537">
        <ele>801.7</ele>
        <time>2026-05-15T06:55:24Z</time>
      </trkpt>
      <trkpt lat="43.76008" lon="7.08522">
        <ele>802.5</ele>
        <time>2026-05-15T06:55:25Z</time>
      </trkpt>
      <trkpt lat="43.76018" lon="7.08508">
        <ele>803.1</ele>
        <time>2026-05-15T06:55:26Z</time>
      </trkpt>
      <trkpt lat="43.76027" lon="7.08497">
        <ele>803.8</ele>
        <time>2026-05-15T06:55:27Z</time>
      </trkpt>
      <trkpt lat="43.76035" lon="7.08484">
        <ele>805.3</ele>
        <time>2026-05-15T06:55:28Z</time>
      </trkpt>
      <trkpt lat="43.76042" lon="7.08469">
        <ele>807</ele>
        <time>2026-05-15T06:55:29Z</time>
      </trkpt>
      <trkpt lat="43.76047" lon="7.08454">
        <ele>808.6</ele>
        <time>2026-05-15T06:55:30Z</time>
      </trkpt>
      <trkpt lat="43.76051" lon="7.08439">
        <ele>810.6</ele>
        <time>2026-05-15T06:55:31Z</time>
      </trkpt>
      <trkpt lat="43.76053" lon="7.08424">
        <ele>813</ele>
        <time>2026-05-15T06:55:32Z</time>
      </trkpt>
      <trkpt lat="43.76056" lon="7.08411">
        <ele>814.6</ele>
        <time>2026-05-15T06:55:33Z</time>
      </trkpt>
      <trkpt lat="43.76061" lon="7.08399">
        <ele>815.4</ele>
        <time>2026-05-15T06:55:34Z</time>
      </trkpt>
      <trkpt lat="43.7607" lon="7.08394">
        <ele>815.3</ele>
        <time>2026-05-15T06:55:35Z</time>
      </trkpt>
      <trkpt lat="43.76078" lon="7.08392">
        <ele>815</ele>
        <time>2026-05-15T06:55:36Z</time>
      </trkpt>
      <trkpt lat="43.76086" lon="7.08395">
        <ele>814.6</ele>
        <time>2026-05-15T06:55:37Z</time>
      </trkpt>
      <trkpt lat="43.76094" lon="7.08404">
        <ele>814.7</ele>
        <time>2026-05-15T06:55:38Z</time>
      </trkpt>
      <trkpt lat="43.76101" lon="7.08415">
        <ele>814.4</ele>
        <time>2026-05-15T06:55:39Z</time>
      </trkpt>
      <trkpt lat="43.7611" lon="7.08427">
        <ele>815</ele>
        <time>2026-05-15T06:55:40Z</time>
      </trkpt>
      <trkpt lat="43.76118" lon="7.0844">
        <ele>816.1</ele>
        <time>2026-05-15T06:55:41Z</time>
      </trkpt>
      <trkpt lat="43.76126" lon="7.08453">
        <ele>816.7</ele>
        <time>2026-05-15T06:55:42Z</time>
      </trkpt>
      <trkpt lat="43.76134" lon="7.08465">
        <ele>817.4</ele>
        <time>2026-05-15T06:55:43Z</time>
      </trkpt>
      <trkpt lat="43.76142" lon="7.08477">
        <ele>818</ele>
        <time>2026-05-15T06:55:44Z</time>
      </trkpt>
      <trkpt lat="43.76153" lon="7.08487">
        <ele>818.9</ele>
        <time>2026-05-15T06:55:45Z</time>
      </trkpt>
      <trkpt lat="43.76164" lon="7.08495">
        <ele>820.1</ele>
        <time>2026-05-15T06:55:46Z</time>
      </trkpt>
      <trkpt lat="43.76176" lon="7.08503">
        <ele>821.2</ele>
        <time>2026-05-15T06:55:47Z</time>
      </trkpt>
      <trkpt lat="43.76188" lon="7.08511">
        <ele>822.2</ele>
        <time>2026-05-15T06:55:48Z</time>
      </trkpt>
      <trkpt lat="43.76199" lon="7.08517">
        <ele>823.1</ele>
        <time>2026-05-15T06:55:49Z</time>
      </trkpt>
      <trkpt lat="43.76209" lon="7.08522">
        <ele>823.8</ele>
        <time>2026-05-15T06:55:50Z</time>
      </trkpt>
      <trkpt lat="43.76219" lon="7.08526">
        <ele>824.7</ele>
        <time>2026-05-15T06:55:51Z</time>
      </trkpt>
      <trkpt lat="43.76226" lon="7.0853">
        <ele>825.3</ele>
        <time>2026-05-15T06:55:52Z</time>
      </trkpt>
      <trkpt lat="43.76233" lon="7.08533">
        <ele>825.9</ele>
        <time>2026-05-15T06:55:53Z</time>
      </trkpt>
      <trkpt lat="43.76238" lon="7.08536">
        <ele>826.2</ele>
        <time>2026-05-15T06:55:54Z</time>
      </trkpt>
      <trkpt lat="43.76243" lon="7.08539">
        <ele>826.5</ele>
        <time>2026-05-15T06:55:55Z</time>
      </trkpt>
      <trkpt lat="43.76247" lon="7.08541">
        <ele>826.8</ele>
        <time>2026-05-15T06:55:56Z</time>
      </trkpt>
      <trkpt lat="43.76249" lon="7.08543">
        <ele>826.8</ele>
        <time>2026-05-15T06:55:57Z</time>
      </trkpt>
      <trkpt lat="43.76253" lon="7.08544">
        <ele>827</ele>
        <time>2026-05-15T06:55:58Z</time>
      </trkpt>
      <trkpt lat="43.76256" lon="7.08545">
        <ele>827.2</ele>
        <time>2026-05-15T06:55:59Z</time>
      </trkpt>
      <trkpt lat="43.76261" lon="7.08546">
        <ele>827.5</ele>
        <time>2026-05-15T06:56:00Z</time>
      </trkpt>
      <trkpt lat="43.76265" lon="7.08545">
        <ele>827.8</ele>
        <time>2026-05-15T06:56:01Z</time>
      </trkpt>
      <trkpt lat="43.7627" lon="7.08544">
        <ele>828.3</ele>
        <time>2026-05-15T06:56:02Z</time>
      </trkpt>
      <trkpt lat="43.76274" lon="7.08542">
        <ele>828.7</ele>
        <time>2026-05-15T06:56:03Z</time>
      </trkpt>
      <trkpt lat="43.76278" lon="7.0854">
        <ele>829.1</ele>
        <time>2026-05-15T06:56:04Z</time>
      </trkpt>
      <trkpt lat="43.76284" lon="7.08537">
        <ele>829.7</ele>
        <time>2026-05-15T06:56:05Z</time>
      </trkpt>
      <trkpt lat="43.76291" lon="7.08535">
        <ele>830.3</ele>
        <time>2026-05-15T06:56:06Z</time>
      </trkpt>
      <trkpt lat="43.76298" lon="7.08532">
        <ele>831</ele>
        <time>2026-05-15T06:56:07Z</time>
      </trkpt>
      <trkpt lat="43.76305" lon="7.08529">
        <ele>831.8</ele>
        <time>2026-05-15T06:56:08Z</time>
      </trkpt>
      <trkpt lat="43.76312" lon="7.08526">
        <ele>831.9</ele>
        <time>2026-05-15T06:56:09Z</time>
      </trkpt>
      <trkpt lat="43.76319" lon="7.08523">
        <ele>831.9</ele>
        <time>2026-05-15T06:56:10Z</time>
      </trkpt>
      <trkpt lat="43.76325" lon="7.08519">
        <ele>832.2</ele>
        <time>2026-05-15T06:56:11Z</time>
      </trkpt>
      <trkpt lat="43.76331" lon="7.08513">
        <ele>832.6</ele>
        <time>2026-05-15T06:56:12Z</time>
      </trkpt>
      <trkpt lat="43.76333" lon="7.08505">
        <ele>833.5</ele>
        <time>2026-05-15T06:56:13Z</time>
      </trkpt>
      <trkpt lat="43.76332" lon="7.08497">
        <ele>834.3</ele>
        <time>2026-05-15T06:56:14Z</time>
      </trkpt>
      <trkpt lat="43.76327" lon="7.08491">
        <ele>834.9</ele>
        <time>2026-05-15T06:56:15Z</time>
      </trkpt>
      <trkpt lat="43.76319" lon="7.08483">
        <ele>835.5</ele>
        <time>2026-05-15T06:56:16Z</time>
      </trkpt>
      <trkpt lat="43.76311" lon="7.08474">
        <ele>836.1</ele>
        <time>2026-05-15T06:56:17Z</time>
      </trkpt>
      <trkpt lat="43.763" lon="7.08465">
        <ele>836.9</ele>
        <time>2026-05-15T06:56:18Z</time>
      </trkpt>
      <trkpt lat="43.76289" lon="7.08455">
        <ele>838.1</ele>
        <time>2026-05-15T06:56:19Z</time>
      </trkpt>
      <trkpt lat="43.76278" lon="7.08446">
        <ele>838.9</ele>
        <time>2026-05-15T06:56:20Z</time>
      </trkpt>
      <trkpt lat="43.76266" lon="7.08437">
        <ele>839.3</ele>
        <time>2026-05-15T06:56:21Z</time>
      </trkpt>
      <trkpt lat="43.76254" lon="7.08428">
        <ele>840.2</ele>
        <time>2026-05-15T06:56:22Z</time>
      </trkpt>
      <trkpt lat="43.76241" lon="7.08418">
        <ele>841.1</ele>
        <time>2026-05-15T06:56:23Z</time>
      </trkpt>
      <trkpt lat="43.76229" lon="7.08408">
        <ele>842</ele>
        <time>2026-05-15T06:56:24Z</time>
      </trkpt>
      <trkpt lat="43.76218" lon="7.08398">
        <ele>842.8</ele>
        <time>2026-05-15T06:56:25Z</time>
      </trkpt>
      <trkpt lat="43.76208" lon="7.08385">
        <ele>843.6</ele>
        <time>2026-05-15T06:56:26Z</time>
      </trkpt>
      <trkpt lat="43.76199" lon="7.0837">
        <ele>844.5</ele>
        <time>2026-05-15T06:56:27Z</time>
      </trkpt>
      <trkpt lat="43.76192" lon="7.08354">
        <ele>845.7</ele>
        <time>2026-05-15T06:56:28Z</time>
      </trkpt>
      <trkpt lat="43.76185" lon="7.08337">
        <ele>847</ele>
        <time>2026-05-15T06:56:29Z</time>
      </trkpt>
      <trkpt lat="43.76179" lon="7.08321">
        <ele>848.3</ele>
        <time>2026-05-15T06:56:30Z</time>
      </trkpt>
      <trkpt lat="43.76173" lon="7.08306">
        <ele>849.5</ele>
        <time>2026-05-15T06:56:31Z</time>
      </trkpt>
      <trkpt lat="43.76169" lon="7.08293">
        <ele>850.4</ele>
        <time>2026-05-15T06:56:32Z</time>
      </trkpt>
      <trkpt lat="43.76164" lon="7.08281">
        <ele>850.9</ele>
        <time>2026-05-15T06:56:33Z</time>
      </trkpt>
      <trkpt lat="43.7616" lon="7.0827">
        <ele>851.7</ele>
        <time>2026-05-15T06:56:34Z</time>
      </trkpt>
      <trkpt lat="43.76156" lon="7.08261">
        <ele>852.3</ele>
        <time>2026-05-15T06:56:35Z</time>
      </trkpt>
      <trkpt lat="43.76152" lon="7.08252">
        <ele>853</ele>
        <time>2026-05-15T06:56:36Z</time>
      </trkpt>
      <trkpt lat="43.76147" lon="7.08243">
        <ele>853.5</ele>
        <time>2026-05-15T06:56:37Z</time>
      </trkpt>
      <trkpt lat="43.76143" lon="7.08233">
        <ele>854.3</ele>
        <time>2026-05-15T06:56:38Z</time>
      </trkpt>
      <trkpt lat="43.76138" lon="7.08224">
        <ele>854.6</ele>
        <time>2026-05-15T06:56:39Z</time>
      </trkpt>
      <trkpt lat="43.76133" lon="7.08215">
        <ele>855.5</ele>
        <time>2026-05-15T06:56:40Z</time>
      </trkpt>
      <trkpt lat="43.76128" lon="7.08208">
        <ele>856.1</ele>
        <time>2026-05-15T06:56:41Z</time>
      </trkpt>
      <trkpt lat="43.76124" lon="7.08202">
        <ele>856.7</ele>
        <time>2026-05-15T06:56:42Z</time>
      </trkpt>
      <trkpt lat="43.76119" lon="7.08195">
        <ele>857.3</ele>
        <time>2026-05-15T06:56:43Z</time>
      </trkpt>
      <trkpt lat="43.76115" lon="7.08189">
        <ele>857.9</ele>
        <time>2026-05-15T06:56:44Z</time>
      </trkpt>
      <trkpt lat="43.76109" lon="7.08183">
        <ele>858.2</ele>
        <time>2026-05-15T06:56:45Z</time>
      </trkpt>
      <trkpt lat="43.76105" lon="7.08177">
        <ele>858.9</ele>
        <time>2026-05-15T06:56:46Z</time>
      </trkpt>
      <trkpt lat="43.76102" lon="7.08173">
        <ele>859.3</ele>
        <time>2026-05-15T06:56:47Z</time>
      </trkpt>
      <trkpt lat="43.76099" lon="7.08169">
        <ele>859.8</ele>
        <time>2026-05-15T06:56:48Z</time>
      </trkpt>
      <trkpt lat="43.76095" lon="7.08165">
        <ele>860</ele>
        <time>2026-05-15T06:56:49Z</time>
      </trkpt>
      <trkpt lat="43.76092" lon="7.08161">
        <ele>860.5</ele>
        <time>2026-05-15T06:56:50Z</time>
      </trkpt>
      <trkpt lat="43.76088" lon="7.08157">
        <ele>860.8</ele>
        <time>2026-05-15T06:56:51Z</time>
      </trkpt>
      <trkpt lat="43.76085" lon="7.08153">
        <ele>861.2</ele>
        <time>2026-05-15T06:56:52Z</time>
      </trkpt>
      <trkpt lat="43.76081" lon="7.0815">
        <ele>861.6</ele>
        <time>2026-05-15T06:56:53Z</time>
      </trkpt>
      <trkpt lat="43.76078" lon="7.08146">
        <ele>862.5</ele>
        <time>2026-05-15T06:56:54Z</time>
      </trkpt>
      <trkpt lat="43.76074" lon="7.08142">
        <ele>863.4</ele>
        <time>2026-05-15T06:56:55Z</time>
      </trkpt>
      <trkpt lat="43.76071" lon="7.08139">
        <ele>864</ele>
        <time>2026-05-15T06:56:56Z</time>
      </trkpt>
      <trkpt lat="43.76067" lon="7.08137">
        <ele>864.3</ele>
        <time>2026-05-15T06:56:57Z</time>
      </trkpt>
      <trkpt lat="43.76064" lon="7.08136">
        <ele>864.4</ele>
        <time>2026-05-15T06:56:58Z</time>
      </trkpt>
      <trkpt lat="43.76062" lon="7.08135">
        <ele>864.5</ele>
        <time>2026-05-15T06:56:59Z</time>
      </trkpt>
      <trkpt lat="43.76059" lon="7.08135">
        <ele>864.5</ele>
        <time>2026-05-15T06:57:00Z</time>
      </trkpt>
      <trkpt lat="43.76056" lon="7.08135">
        <ele>864.4</ele>
        <time>2026-05-15T06:57:01Z</time>
      </trkpt>
      <trkpt lat="43.76053" lon="7.08135">
        <ele>864.9</ele>
        <time>2026-05-15T06:57:02Z</time>
      </trkpt>
      <trkpt lat="43.76049" lon="7.08136">
        <ele>865.5</ele>
        <time>2026-05-15T06:57:03Z</time>
      </trkpt>
      <trkpt lat="43.76045" lon="7.08139">
        <ele>865.9</ele>
        <time>2026-05-15T06:57:04Z</time>
      </trkpt>
      <trkpt lat="43.76042" lon="7.08143">
        <ele>865.7</ele>
        <time>2026-05-15T06:57:05Z</time>
      </trkpt>
      <trkpt lat="43.76038" lon="7.08147">
        <ele>865.7</ele>
        <time>2026-05-15T06:57:06Z</time>
      </trkpt>
      <trkpt lat="43.76035" lon="7.0815">
        <ele>865.7</ele>
        <time>2026-05-15T06:57:07Z</time>
      </trkpt>
      <trkpt lat="43.76032" lon="7.08154">
        <ele>865.5</ele>
        <time>2026-05-15T06:57:08Z</time>
      </trkpt>
      <trkpt lat="43.76029" lon="7.08156">
        <ele>865.7</ele>
        <time>2026-05-15T06:57:09Z</time>
      </trkpt>
      <trkpt lat="43.76026" lon="7.08159">
        <ele>865.7</ele>
        <time>2026-05-15T06:57:10Z</time>
      </trkpt>
      <trkpt lat="43.76022" lon="7.08162">
        <ele>865.9</ele>
        <time>2026-05-15T06:57:11Z</time>
      </trkpt>
      <trkpt lat="43.76017" lon="7.08166">
        <ele>866.1</ele>
        <time>2026-05-15T06:57:12Z</time>
      </trkpt>
      <trkpt lat="43.76012" lon="7.08169">
        <ele>866.5</ele>
        <time>2026-05-15T06:57:13Z</time>
      </trkpt>
      <trkpt lat="43.76006" lon="7.08172">
        <ele>867.2</ele>
        <time>2026-05-15T06:57:14Z</time>
      </trkpt>
      <trkpt lat="43.76" lon="7.08175">
        <ele>867.8</ele>
        <time>2026-05-15T06:57:15Z</time>
      </trkpt>
      <trkpt lat="43.75994" lon="7.08179">
        <ele>868.2</ele>
        <time>2026-05-15T06:57:16Z</time>
      </trkpt>
      <trkpt lat="43.75988" lon="7.08182">
        <ele>868.7</ele>
        <time>2026-05-15T06:57:17Z</time>
      </trkpt>
      <trkpt lat="43.75981" lon="7.08186">
        <ele>869.2</ele>
        <time>2026-05-15T06:57:18Z</time>
      </trkpt>
      <trkpt lat="43.75974" lon="7.08191">
        <ele>869.4</ele>
        <time>2026-05-15T06:57:19Z</time>
      </trkpt>
      <trkpt lat="43.75966" lon="7.08195">
        <ele>869.6</ele>
        <time>2026-05-15T06:57:20Z</time>
      </trkpt>
      <trkpt lat="43.75957" lon="7.08197">
        <ele>870.1</ele>
        <time>2026-05-15T06:57:21Z</time>
      </trkpt>
      <trkpt lat="43.75947" lon="7.08198">
        <ele>871</ele>
        <time>2026-05-15T06:57:22Z</time>
      </trkpt>
      <trkpt lat="43.75938" lon="7.08198">
        <ele>871.5</ele>
        <time>2026-05-15T06:57:23Z</time>
      </trkpt>
      <trkpt lat="43.75928" lon="7.08197">
        <ele>872</ele>
        <time>2026-05-15T06:57:24Z</time>
      </trkpt>
      <trkpt lat="43.75917" lon="7.08195">
        <ele>872.9</ele>
        <time>2026-05-15T06:57:25Z</time>
      </trkpt>
      <trkpt lat="43.75907" lon="7.08191">
        <ele>873.4</ele>
        <time>2026-05-15T06:57:26Z</time>
      </trkpt>
      <trkpt lat="43.75897" lon="7.08187">
        <ele>874.1</ele>
        <time>2026-05-15T06:57:27Z</time>
      </trkpt>
      <trkpt lat="43.75886" lon="7.08181">
        <ele>875.2</ele>
        <time>2026-05-15T06:57:28Z</time>
      </trkpt>
      <trkpt lat="43.75875" lon="7.08175">
        <ele>875.9</ele>
        <time>2026-05-15T06:57:29Z</time>
      </trkpt>
      <trkpt lat="43.75864" lon="7.08168">
        <ele>876.9</ele>
        <time>2026-05-15T06:57:30Z</time>
      </trkpt>
      <trkpt lat="43.75854" lon="7.08159">
        <ele>878.6</ele>
        <time>2026-05-15T06:57:31Z</time>
      </trkpt>
      <trkpt lat="43.75842" lon="7.0815">
        <ele>880.1</ele>
        <time>2026-05-15T06:57:32Z</time>
      </trkpt>
      <trkpt lat="43.75831" lon="7.08141">
        <ele>881.4</ele>
        <time>2026-05-15T06:57:33Z</time>
      </trkpt>
      <trkpt lat="43.75819" lon="7.08131">
        <ele>882.5</ele>
        <time>2026-05-15T06:57:34Z</time>
      </trkpt>
      <trkpt lat="43.75809" lon="7.08121">
        <ele>883.5</ele>
        <time>2026-05-15T06:57:35Z</time>
      </trkpt>
      <trkpt lat="43.75798" lon="7.08112">
        <ele>884.3</ele>
        <time>2026-05-15T06:57:36Z</time>
      </trkpt>
      <trkpt lat="43.75787" lon="7.08103">
        <ele>885.4</ele>
        <time>2026-05-15T06:57:37Z</time>
      </trkpt>
      <trkpt lat="43.75776" lon="7.08094">
        <ele>886.6</ele>
        <time>2026-05-15T06:57:38Z</time>
      </trkpt>
      <trkpt lat="43.75766" lon="7.08086">
        <ele>887.6</ele>
        <time>2026-05-15T06:57:39Z</time>
      </trkpt>
      <trkpt lat="43.75757" lon="7.08077">
        <ele>888.6</ele>
        <time>2026-05-15T06:57:40Z</time>
      </trkpt>
      <trkpt lat="43.75747" lon="7.08068">
        <ele>889.5</ele>
        <time>2026-05-15T06:57:41Z</time>
      </trkpt>
      <trkpt lat="43.75737" lon="7.08059">
        <ele>890.4</ele>
        <time>2026-05-15T06:57:42Z</time>
      </trkpt>
      <trkpt lat="43.75726" lon="7.08051">
        <ele>891.1</ele>
        <time>2026-05-15T06:57:43Z</time>
      </trkpt>
      <trkpt lat="43.75716" lon="7.08043">
        <ele>891.6</ele>
        <time>2026-05-15T06:57:44Z</time>
      </trkpt>
      <trkpt lat="43.75707" lon="7.08035">
        <ele>892.1</ele>
        <time>2026-05-15T06:57:45Z</time>
      </trkpt>
      <trkpt lat="43.75698" lon="7.08027">
        <ele>892.5</ele>
        <time>2026-05-15T06:57:46Z</time>
      </trkpt>
      <trkpt lat="43.75691" lon="7.08016">
        <ele>893.1</ele>
        <time>2026-05-15T06:57:47Z</time>
      </trkpt>
      <trkpt lat="43.75686" lon="7.08004">
        <ele>893.9</ele>
        <time>2026-05-15T06:57:48Z</time>
      </trkpt>
      <trkpt lat="43.75683" lon="7.0799">
        <ele>895.2</ele>
        <time>2026-05-15T06:57:49Z</time>
      </trkpt>
      <trkpt lat="43.75681" lon="7.07975">
        <ele>896.7</ele>
        <time>2026-05-15T06:57:50Z</time>
      </trkpt>
      <trkpt lat="43.75679" lon="7.0796">
        <ele>897.7</ele>
        <time>2026-05-15T06:57:51Z</time>
      </trkpt>
      <trkpt lat="43.75678" lon="7.07942">
        <ele>899</ele>
        <time>2026-05-15T06:57:52Z</time>
      </trkpt>
      <trkpt lat="43.75676" lon="7.07924">
        <ele>899.8</ele>
        <time>2026-05-15T06:57:53Z</time>
      </trkpt>
      <trkpt lat="43.75674" lon="7.07906">
        <ele>900.6</ele>
        <time>2026-05-15T06:57:54Z</time>
      </trkpt>
      <trkpt lat="43.75672" lon="7.07887">
        <ele>901.5</ele>
        <time>2026-05-15T06:57:55Z</time>
      </trkpt>
      <trkpt lat="43.75671" lon="7.07869">
        <ele>902.5</ele>
        <time>2026-05-15T06:57:56Z</time>
      </trkpt>
      <trkpt lat="43.7567" lon="7.07849">
        <ele>903.7</ele>
        <time>2026-05-15T06:57:57Z</time>
      </trkpt>
      <trkpt lat="43.75669" lon="7.0783">
        <ele>904.8</ele>
        <time>2026-05-15T06:57:58Z</time>
      </trkpt>
      <trkpt lat="43.75668" lon="7.07811">
        <ele>905.9</ele>
        <time>2026-05-15T06:57:59Z</time>
      </trkpt>
      <trkpt lat="43.75667" lon="7.07793">
        <ele>906.5</ele>
        <time>2026-05-15T06:58:00Z</time>
      </trkpt>
      <trkpt lat="43.75668" lon="7.07775">
        <ele>907.4</ele>
        <time>2026-05-15T06:58:01Z</time>
      </trkpt>
      <trkpt lat="43.7567" lon="7.07757">
        <ele>908.6</ele>
        <time>2026-05-15T06:58:02Z</time>
      </trkpt>
      <trkpt lat="43.75673" lon="7.07738">
        <ele>909.6</ele>
        <time>2026-05-15T06:58:03Z</time>
      </trkpt>
      <trkpt lat="43.75678" lon="7.0772">
        <ele>910.9</ele>
        <time>2026-05-15T06:58:04Z</time>
      </trkpt>
      <trkpt lat="43.75684" lon="7.07702">
        <ele>912.4</ele>
        <time>2026-05-15T06:58:05Z</time>
      </trkpt>
      <trkpt lat="43.7569" lon="7.07684">
        <ele>913.5</ele>
        <time>2026-05-15T06:58:06Z</time>
      </trkpt>
      <trkpt lat="43.75697" lon="7.07665">
        <ele>914.6</ele>
        <time>2026-05-15T06:58:07Z</time>
      </trkpt>
      <trkpt lat="43.75703" lon="7.07646">
        <ele>916.2</ele>
        <time>2026-05-15T06:58:08Z</time>
      </trkpt>
      <trkpt lat="43.75709" lon="7.07626">
        <ele>917.4</ele>
        <time>2026-05-15T06:58:09Z</time>
      </trkpt>
      <trkpt lat="43.75714" lon="7.07607">
        <ele>918.6</ele>
        <time>2026-05-15T06:58:10Z</time>
      </trkpt>
      <trkpt lat="43.75716" lon="7.07589">
        <ele>919.2</ele>
        <time>2026-05-15T06:58:11Z</time>
      </trkpt>
      <trkpt lat="43.75718" lon="7.0757">
        <ele>919.9</ele>
        <time>2026-05-15T06:58:12Z</time>
      </trkpt>
      <trkpt lat="43.75719" lon="7.07552">
        <ele>920.3</ele>
        <time>2026-05-15T06:58:13Z</time>
      </trkpt>
      <trkpt lat="43.7572" lon="7.07535">
        <ele>921.1</ele>
        <time>2026-05-15T06:58:14Z</time>
      </trkpt>
      <trkpt lat="43.75719" lon="7.07518">
        <ele>920.8</ele>
        <time>2026-05-15T06:58:15Z</time>
      </trkpt>
      <trkpt lat="43.75716" lon="7.07503">
        <ele>919.7</ele>
        <time>2026-05-15T06:58:16Z</time>
      </trkpt>
      <trkpt lat="43.75713" lon="7.07489">
        <ele>919.8</ele>
        <time>2026-05-15T06:58:17Z</time>
      </trkpt>
      <trkpt lat="43.7571" lon="7.07478">
        <ele>919.9</ele>
        <time>2026-05-15T06:58:18Z</time>
      </trkpt>
      <trkpt lat="43.7571" lon="7.07467">
        <ele>920.8</ele>
        <time>2026-05-15T06:58:19Z</time>
      </trkpt>
      <trkpt lat="43.75713" lon="7.07458">
        <ele>922.4</ele>
        <time>2026-05-15T06:58:20Z</time>
      </trkpt>
      <trkpt lat="43.7572" lon="7.07452">
        <ele>924.6</ele>
        <time>2026-05-15T06:58:21Z</time>
      </trkpt>
      <trkpt lat="43.75727" lon="7.07452">
        <ele>926.6</ele>
        <time>2026-05-15T06:58:22Z</time>
      </trkpt>
      <trkpt lat="43.75734" lon="7.07458">
        <ele>927.9</ele>
        <time>2026-05-15T06:58:23Z</time>
      </trkpt>
      <trkpt lat="43.7574" lon="7.07467">
        <ele>928.7</ele>
        <time>2026-05-15T06:58:24Z</time>
      </trkpt>
      <trkpt lat="43.75746" lon="7.07479">
        <ele>929.2</ele>
        <time>2026-05-15T06:58:25Z</time>
      </trkpt>
      <trkpt lat="43.75752" lon="7.07494">
        <ele>929.4</ele>
        <time>2026-05-15T06:58:26Z</time>
      </trkpt>
      <trkpt lat="43.75757" lon="7.07511">
        <ele>930.3</ele>
        <time>2026-05-15T06:58:27Z</time>
      </trkpt>
      <trkpt lat="43.75761" lon="7.07529">
        <ele>931.2</ele>
        <time>2026-05-15T06:58:28Z</time>
      </trkpt>
      <trkpt lat="43.75765" lon="7.07547">
        <ele>931.9</ele>
        <time>2026-05-15T06:58:29Z</time>
      </trkpt>
      <trkpt lat="43.75769" lon="7.07565">
        <ele>932.7</ele>
        <time>2026-05-15T06:58:30Z</time>
      </trkpt>
      <trkpt lat="43.75773" lon="7.07584">
        <ele>933.6</ele>
        <time>2026-05-15T06:58:31Z</time>
      </trkpt>
      <trkpt lat="43.75777" lon="7.07604">
        <ele>934.1</ele>
        <time>2026-05-15T06:58:32Z</time>
      </trkpt>
      <trkpt lat="43.75781" lon="7.07623">
        <ele>935.2</ele>
        <time>2026-05-15T06:58:33Z</time>
      </trkpt>
      <trkpt lat="43.75785" lon="7.0764">
        <ele>936.5</ele>
        <time>2026-05-15T06:58:34Z</time>
      </trkpt>
      <trkpt lat="43.75789" lon="7.07655">
        <ele>937.2</ele>
        <time>2026-05-15T06:58:35Z</time>
      </trkpt>
      <trkpt lat="43.75796" lon="7.07668">
        <ele>938.2</ele>
        <time>2026-05-15T06:58:36Z</time>
      </trkpt>
      <trkpt lat="43.75805" lon="7.07678">
        <ele>939.1</ele>
        <time>2026-05-15T06:58:37Z</time>
      </trkpt>
      <trkpt lat="43.75815" lon="7.07686">
        <ele>940</ele>
        <time>2026-05-15T06:58:38Z</time>
      </trkpt>
      <trkpt lat="43.75827" lon="7.07692">
        <ele>941.3</ele>
        <time>2026-05-15T06:58:39Z</time>
      </trkpt>
      <trkpt lat="43.7584" lon="7.07696">
        <ele>942.3</ele>
        <time>2026-05-15T06:58:40Z</time>
      </trkpt>
      <trkpt lat="43.75853" lon="7.07698">
        <ele>943.1</ele>
        <time>2026-05-15T06:58:41Z</time>
      </trkpt>
      <trkpt lat="43.75865" lon="7.07697">
        <ele>944</ele>
        <time>2026-05-15T06:58:42Z</time>
      </trkpt>
      <trkpt lat="43.75877" lon="7.07693">
        <ele>944.7</ele>
        <time>2026-05-15T06:58:43Z</time>
      </trkpt>
      <trkpt lat="43.75887" lon="7.07684">
        <ele>946</ele>
        <time>2026-05-15T06:58:44Z</time>
      </trkpt>
      <trkpt lat="43.75896" lon="7.07673">
        <ele>947.4</ele>
        <time>2026-05-15T06:58:45Z</time>
      </trkpt>
      <trkpt lat="43.75906" lon="7.07659">
        <ele>948.4</ele>
        <time>2026-05-15T06:58:46Z</time>
      </trkpt>
      <trkpt lat="43.75915" lon="7.07644">
        <ele>949.6</ele>
        <time>2026-05-15T06:58:47Z</time>
      </trkpt>
      <trkpt lat="43.75925" lon="7.07628">
        <ele>950.8</ele>
        <time>2026-05-15T06:58:48Z</time>
      </trkpt>
      <trkpt lat="43.75935" lon="7.07612">
        <ele>951.9</ele>
        <time>2026-05-15T06:58:49Z</time>
      </trkpt>
      <trkpt lat="43.75946" lon="7.07596">
        <ele>953.1</ele>
        <time>2026-05-15T06:58:50Z</time>
      </trkpt>
      <trkpt lat="43.75957" lon="7.07581">
        <ele>954.3</ele>
        <time>2026-05-15T06:58:51Z</time>
      </trkpt>
      <trkpt lat="43.75968" lon="7.07569">
        <ele>955.5</ele>
        <time>2026-05-15T06:58:52Z</time>
      </trkpt>
      <trkpt lat="43.75979" lon="7.0756">
        <ele>956.5</ele>
        <time>2026-05-15T06:58:53Z</time>
      </trkpt>
      <trkpt lat="43.7599" lon="7.07554">
        <ele>957.2</ele>
        <time>2026-05-15T06:58:54Z</time>
      </trkpt>
      <trkpt lat="43.75999" lon="7.0755">
        <ele>957.6</ele>
        <time>2026-05-15T06:58:55Z</time>
      </trkpt>
      <trkpt lat="43.76005" lon="7.07548">
        <ele>958.3</ele>
        <time>2026-05-15T06:58:56Z</time>
      </trkpt>
      <trkpt lat="43.76009" lon="7.07547">
        <ele>958.7</ele>
        <time>2026-05-15T06:58:57Z</time>
      </trkpt>
      <trkpt lat="43.76013" lon="7.07546">
        <ele>959.1</ele>
        <time>2026-05-15T06:58:58Z</time>
      </trkpt>
      <trkpt lat="43.76015" lon="7.07544">
        <ele>959.4</ele>
        <time>2026-05-15T06:58:59Z</time>
      </trkpt>
      <trkpt lat="43.76017" lon="7.07543">
        <ele>959.6</ele>
        <time>2026-05-15T06:59:00Z</time>
      </trkpt>
      <trkpt lat="43.76019" lon="7.07543">
        <ele>959.8</ele>
        <time>2026-05-15T06:59:01Z</time>
      </trkpt>
      <trkpt lat="43.76021" lon="7.07542">
        <ele>960</ele>
        <time>2026-05-15T06:59:02Z</time>
      </trkpt>
      <trkpt lat="43.76022" lon="7.07541">
        <ele>960.1</ele>
        <time>2026-05-15T06:59:03Z</time>
      </trkpt>
      <trkpt lat="43.76022" lon="7.07541">
        <ele>960.1</ele>
        <time>2026-05-15T06:59:04Z</time>
      </trkpt>
      <trkpt lat="43.76021" lon="7.07541">
        <ele>960</ele>
        <time>2026-05-15T06:59:05Z</time>
      </trkpt>
      <trkpt lat="43.76022" lon="7.07542">
        <ele>960.1</ele>
        <time>2026-05-15T06:59:06Z</time>
      </trkpt>
      <trkpt lat="43.76021" lon="7.07542">
        <ele>960</ele>
        <time>2026-05-15T06:59:07Z</time>
      </trkpt>
      <trkpt lat="43.76021" lon="7.07542">
        <ele>960</ele>
        <time>2026-05-15T06:59:08Z</time>
      </trkpt>
      <trkpt lat="43.76021" lon="7.07542">
        <ele>960</ele>
        <time>2026-05-15T06:59:09Z</time>
      </trkpt>
      <trkpt lat="43.76022" lon="7.07542">
        <ele>960.1</ele>
        <time>2026-05-15T06:59:10Z</time>
      </trkpt>
      <trkpt lat="43.76023" lon="7.07541">
        <ele>960.2</ele>
        <time>2026-05-15T06:59:11Z</time>
      </trkpt>
      <trkpt lat="43.76026" lon="7.07539">
        <ele>960.5</ele>
        <time>2026-05-15T06:59:12Z</time>
      </trkpt>
      <trkpt lat="43.76029" lon="7.07538">
        <ele>960.7</ele>
        <time>2026-05-15T06:59:13Z</time>
      </trkpt>
      <trkpt lat="43.76032" lon="7.07536">
        <ele>960.9</ele>
        <time>2026-05-15T06:59:14Z</time>
      </trkpt>
      <trkpt lat="43.76034" lon="7.07535">
        <ele>961</ele>
        <time>2026-05-15T06:59:15Z</time>
      </trkpt>
      <trkpt lat="43.76036" lon="7.07534">
        <ele>961.1</ele>
        <time>2026-05-15T06:59:16Z</time>
      </trkpt>
      <trkpt lat="43.76037" lon="7.07533">
        <ele>961.2</ele>
        <time>2026-05-15T06:59:17Z</time>
      </trkpt>
      <trkpt lat="43.76037" lon="7.07533">
        <ele>961.2</ele>
        <time>2026-05-15T06:59:18Z</time>
      </trkpt>
      <trkpt lat="43.76037" lon="7.07533">
        <ele>961.2</ele>
        <time>2026-05-15T06:59:19Z</time>
      </trkpt>
      <trkpt lat="43.76037" lon="7.07533">
        <ele>961.2</ele>
        <time>2026-05-15T06:59:20Z</time>
      </trkpt>
      <trkpt lat="43.76036" lon="7.07533">
        <ele>961.2</ele>
        <time>2026-05-15T06:59:21Z</time>
      </trkpt>
      <trkpt lat="43.76036" lon="7.07533">
        <ele>961.2</ele>
        <time>2026-05-15T06:59:22Z</time>
      </trkpt>
      <trkpt lat="43.76036" lon="7.07533">
        <ele>961.2</ele>
        <time>2026-05-15T06:59:23Z</time>
      </trkpt>
      <trkpt lat="43.76036" lon="7.07533">
        <ele>961.2</ele>
        <time>2026-05-15T06:59:24Z</time>
      </trkpt>
      <trkpt lat="43.76036" lon="7.07533">
        <ele>961.2</ele>
        <time>2026-05-15T06:59:25Z</time>
      </trkpt>
      <trkpt lat="43.76036" lon="7.07533">
        <ele>961.2</ele>
        <time>2026-05-15T06:59:26Z</time>
      </trkpt>
      <trkpt lat="43.76036" lon="7.07533">
        <ele>961.2</ele>
        <time>2026-05-15T06:59:27Z</time>
      </trkpt>
      <trkpt lat="43.76036" lon="7.07533">
        <ele>961.2</ele>
        <time>2026-05-15T06:59:28Z</time>
      </trkpt>
      <trkpt lat="43.76036" lon="7.07533">
        <ele>961.2</ele>
        <time>2026-05-15T06:59:29Z</time>
      </trkpt>
      <trkpt lat="43.76036" lon="7.07533">
        <ele>961.2</ele>
        <time>2026-05-15T06:59:30Z</time>
      </trkpt>
      <trkpt lat="43.76036" lon="7.07533">
        <ele>961.2</ele>
        <time>2026-05-15T06:59:31Z</time>
      </trkpt>
      <trkpt lat="43.76036" lon="7.07533">
        <ele>961.2</ele>
        <time>2026-05-15T06:59:32Z</time>
      </trkpt>
      <trkpt lat="43.76036" lon="7.07533">
        <ele>961.2</ele>
        <time>2026-05-15T06:59:33Z</time>
      </trkpt>
      <trkpt lat="43.76036" lon="7.07533">
        <ele>961.2</ele>
        <time>2026-05-15T06:59:34Z</time>
      </trkpt>
      <trkpt lat="43.76036" lon="7.07533">
        <ele>961.2</ele>
        <time>2026-05-15T06:59:35Z</time>
      </trkpt>
      <trkpt lat="43.76036" lon="7.07533">
        <ele>961.2</ele>
        <time>2026-05-15T06:59:36Z</time>
      </trkpt>
      <trkpt lat="43.76036" lon="7.07533">
        <ele>961.2</ele>
        <time>2026-05-15T06:59:37Z</time>
      </trkpt>
      <trkpt lat="43.76036" lon="7.07533">
        <ele>961.2</ele>
        <time>2026-05-15T06:59:38Z</time>
      </trkpt>
      <trkpt lat="43.76036" lon="7.07533">
        <ele>961.2</ele>
        <time>2026-05-15T06:59:39Z</time>
      </trkpt>
      <trkpt lat="43.76036" lon="7.07533">
        <ele>961.2</ele>
        <time>2026-05-15T06:59:40Z</time>
      </trkpt>
      <trkpt lat="43.76036" lon="7.07533">
        <ele>961.2</ele>
        <time>2026-05-15T06:59:41Z</time>
      </trkpt>
      <trkpt lat="43.76036" lon="7.07533">
        <ele>961.2</ele>
        <time>2026-05-15T06:59:42Z</time>
      </trkpt>
      <trkpt lat="43.76036" lon="7.07533">
        <ele>961.2</ele>
        <time>2026-05-15T06:59:43Z</time>
      </trkpt>
      <trkpt lat="43.76037" lon="7.07533">
        <ele>961.2</ele>
        <time>2026-05-15T06:59:44Z</time>
      </trkpt>
      <trkpt lat="43.76037" lon="7.07533">
        <ele>961.2</ele>
        <time>2026-05-15T06:59:45Z</time>
      </trkpt>
      <trkpt lat="43.76037" lon="7.07533">
        <ele>961.2</ele>
        <time>2026-05-15T06:59:46Z</time>
      </trkpt>
      <trkpt lat="43.76037" lon="7.07533">
        <ele>961.2</ele>
        <time>2026-05-15T06:59:47Z</time>
      </trkpt>
      <trkpt lat="43.76037" lon="7.07533">
        <ele>961.2</ele>
        <time>2026-05-15T06:59:48Z</time>
      </trkpt>
      <trkpt lat="43.76037" lon="7.07533">
        <ele>961.2</ele>
        <time>2026-05-15T06:59:49Z</time>
      </trkpt>
      <trkpt lat="43.76037" lon="7.07533">
        <ele>961.2</ele>
        <time>2026-05-15T06:59:50Z</time>
      </trkpt>
      <trkpt lat="43.76037" lon="7.07533">
        <ele>961.2</ele>
        <time>2026-05-15T06:59:51Z</time>
      </trkpt>
      <trkpt lat="43.76037" lon="7.07533">
        <ele>961.2</ele>
        <time>2026-05-15T06:59:52Z</time>
      </trkpt>
      <trkpt lat="43.76037" lon="7.07533">
        <ele>961.2</ele>
        <time>2026-05-15T06:59:53Z</time>
      </trkpt>
      <trkpt lat="43.76037" lon="7.07533">
        <ele>961.2</ele>
        <time>2026-05-15T06:59:54Z</time>
      </trkpt>
      <trkpt lat="43.76036" lon="7.07533">
        <ele>961.2</ele>
        <time>2026-05-15T06:59:55Z</time>
      </trkpt>
      <trkpt lat="43.76036" lon="7.07533">
        <ele>961.2</ele>
        <time>2026-05-15T06:59:56Z</time>
      </trkpt>
      <trkpt lat="43.76036" lon="7.07533">
        <ele>961.2</ele>
        <time>2026-05-15T06:59:57Z</time>
      </trkpt>
      <trkpt lat="43.76036" lon="7.07533">
        <ele>961.2</ele>
        <time>2026-05-15T06:59:58Z</time>
      </trkpt>
      <trkpt lat="43.76036" lon="7.07533">
        <ele>961.2</ele>
        <time>2026-05-15T06:59:59Z</time>
      </trkpt>
      <trkpt lat="43.76036" lon="7.07533">
        <ele>961.2</ele>
        <time>2026-05-15T07:00:00Z</time>
      </trkpt>
      <trkpt lat="43.76036" lon="7.07533">
        <ele>961.2</ele>
        <time>2026-05-15T07:00:01Z</time>
      </trkpt>
      <trkpt lat="43.76036" lon="7.07533">
        <ele>961.2</ele>
        <time>2026-05-15T07:00:02Z</time>
      </trkpt>
      <trkpt lat="43.76036" lon="7.07533">
        <ele>961.2</ele>
        <time>2026-05-15T07:00:03Z</time>
      </trkpt>
      <trkpt lat="43.76036" lon="7.07533">
        <ele>961.2</ele>
        <time>2026-05-15T07:00:04Z</time>
      </trkpt>
      <trkpt lat="43.76036" lon="7.07533">
        <ele>961.2</ele>
        <time>2026-05-15T07:00:05Z</time>
      </trkpt>
      <trkpt lat="43.76037" lon="7.07533">
        <ele>961.2</ele>
        <time>2026-05-15T07:00:06Z</time>
      </trkpt>
      <trkpt lat="43.76037" lon="7.07533">
        <ele>961.2</ele>
        <time>2026-05-15T07:00:07Z</time>
      </trkpt>
      <trkpt lat="43.76037" lon="7.07533">
        <ele>961.2</ele>
        <time>2026-05-15T07:00:08Z</time>
      </trkpt>
      <trkpt lat="43.76037" lon="7.07533">
        <ele>961.2</ele>
        <time>2026-05-15T07:00:09Z</time>
      </trkpt>
      <trkpt lat="43.76037" lon="7.07533">
        <ele>961.2</ele>
        <time>2026-05-15T07:00:10Z</time>
      </trkpt>
      <trkpt lat="43.76037" lon="7.07533">
        <ele>961.2</ele>
        <time>2026-05-15T07:00:11Z</time>
      </trkpt>
      <trkpt lat="43.76037" lon="7.07533">
        <ele>961.2</ele>
        <time>2026-05-15T07:00:12Z</time>
      </trkpt>
      <trkpt lat="43.76037" lon="7.07532">
        <ele>961.2</ele>
        <time>2026-05-15T07:00:13Z</time>
      </trkpt>
      <trkpt lat="43.76037" lon="7.07532">
        <ele>961.2</ele>
        <time>2026-05-15T07:00:14Z</time>
      </trkpt>
      <trkpt lat="43.76037" lon="7.07532">
        <ele>961.2</ele>
        <time>2026-05-15T07:00:15Z</time>
      </trkpt>
      <trkpt lat="43.76037" lon="7.07532">
        <ele>961.2</ele>
        <time>2026-05-15T07:00:16Z</time>
      </trkpt>
      <trkpt lat="43.76037" lon="7.07532">
        <ele>961.2</ele>
        <time>2026-05-15T07:00:17Z</time>
      </trkpt>
      <trkpt lat="43.76037" lon="7.07532">
        <ele>961.2</ele>
        <time>2026-05-15T07:00:18Z</time>
      </trkpt>
      <trkpt lat="43.76037" lon="7.07532">
        <ele>961.2</ele>
        <time>2026-05-15T07:00:19Z</time>
      </trkpt>
      <trkpt lat="43.76037" lon="7.07532">
        <ele>961.2</ele>
        <time>2026-05-15T07:00:20Z</time>
      </trkpt>
      <trkpt lat="43.76035" lon="7.07532">
        <ele>961.1</ele>
        <time>2026-05-15T07:13:31Z</time>
      </trkpt>
      <trkpt lat="43.76037" lon="7.07531">
        <ele>961.3</ele>
        <time>2026-05-15T07:13:32Z</time>
      </trkpt>
      <trkpt lat="43.76038" lon="7.07531">
        <ele>961.3</ele>
        <time>2026-05-15T07:13:33Z</time>
      </trkpt>
      <trkpt lat="43.76037" lon="7.0753">
        <ele>961.3</ele>
        <time>2026-05-15T07:13:34Z</time>
      </trkpt>
      <trkpt lat="43.76037" lon="7.07531">
        <ele>961.3</ele>
        <time>2026-05-15T07:13:35Z</time>
      </trkpt>
      <trkpt lat="43.76037" lon="7.07532">
        <ele>961.2</ele>
        <time>2026-05-15T07:13:36Z</time>
      </trkpt>
      <trkpt lat="43.76037" lon="7.07534">
        <ele>961.2</ele>
        <time>2026-05-15T07:13:37Z</time>
      </trkpt>
      <trkpt lat="43.76038" lon="7.07532">
        <ele>961.3</ele>
        <time>2026-05-15T07:13:38Z</time>
      </trkpt>
      <trkpt lat="43.76037" lon="7.07532">
        <ele>961.2</ele>
        <time>2026-05-15T07:13:39Z</time>
      </trkpt>
      <trkpt lat="43.76038" lon="7.07532">
        <ele>961.3</ele>
        <time>2026-05-15T07:13:40Z</time>
      </trkpt>
      <trkpt lat="43.76038" lon="7.07532">
        <ele>961.3</ele>
        <time>2026-05-15T07:13:41Z</time>
      </trkpt>
      <trkpt lat="43.76038" lon="7.07532">
        <ele>961.3</ele>
        <time>2026-05-15T07:13:42Z</time>
      </trkpt>
      <trkpt lat="43.76038" lon="7.07532">
        <ele>961.3</ele>
        <time>2026-05-15T07:13:43Z</time>
      </trkpt>
      <trkpt lat="43.76038" lon="7.07532">
        <ele>961.3</ele>
        <time>2026-05-15T07:13:44Z</time>
      </trkpt>
      <trkpt lat="43.76038" lon="7.07531">
        <ele>961.3</ele>
        <time>2026-05-15T07:13:45Z</time>
      </trkpt>
      <trkpt lat="43.76038" lon="7.07531">
        <ele>961.3</ele>
        <time>2026-05-15T07:13:46Z</time>
      </trkpt>
      <trkpt lat="43.76038" lon="7.07531">
        <ele>961.3</ele>
        <time>2026-05-15T07:13:47Z</time>
      </trkpt>
      <trkpt lat="43.76038" lon="7.07531">
        <ele>961.3</ele>
        <time>2026-05-15T07:13:48Z</time>
      </trkpt>
      <trkpt lat="43.76038" lon="7.07531">
        <ele>961.3</ele>
        <time>2026-05-15T07:13:49Z</time>
      </trkpt>
      <trkpt lat="43.76038" lon="7.07531">
        <ele>961.3</ele>
        <time>2026-05-15T07:13:50Z</time>
      </trkpt>
      <trkpt lat="43.76038" lon="7.07531">
        <ele>961.3</ele>
        <time>2026-05-15T07:13:51Z</time>
      </trkpt>
      <trkpt lat="43.76038" lon="7.07531">
        <ele>961.3</ele>
        <time>2026-05-15T07:13:52Z</time>
      </trkpt>
      <trkpt lat="43.76038" lon="7.07531">
        <ele>961.3</ele>
        <time>2026-05-15T07:13:53Z</time>
      </trkpt>
      <trkpt lat="43.76038" lon="7.07531">
        <ele>961.3</ele>
        <time>2026-05-15T07:13:54Z</time>
      </trkpt>
      <trkpt lat="43.76038" lon="7.07531">
        <ele>961.3</ele>
        <time>2026-05-15T07:13:55Z</time>
      </trkpt>
      <trkpt lat="43.76038" lon="7.07531">
        <ele>961.3</ele>
        <time>2026-05-15T07:13:56Z</time>
      </trkpt>
      <trkpt lat="43.76038" lon="7.07531">
        <ele>961.3</ele>
        <time>2026-05-15T07:13:57Z</time>
      </trkpt>
      <trkpt lat="43.76038" lon="7.07531">
        <ele>961.3</ele>
        <time>2026-05-15T07:13:58Z</time>
      </trkpt>
      <trkpt lat="43.76038" lon="7.07531">
        <ele>961.3</ele>
        <time>2026-05-15T07:13:59Z</time>
      </trkpt>
      <trkpt lat="43.76038" lon="7.07531">
        <ele>961.3</ele>
        <time>2026-05-15T07:14:00Z</time>
      </trkpt>
      <trkpt lat="43.76038" lon="7.07531">
        <ele>961.3</ele>
        <time>2026-05-15T07:14:01Z</time>
      </trkpt>
      <trkpt lat="43.76038" lon="7.07531">
        <ele>961.3</ele>
        <time>2026-05-15T07:14:02Z</time>
      </trkpt>
      <trkpt lat="43.76038" lon="7.07531">
        <ele>961.3</ele>
        <time>2026-05-15T07:14:03Z</time>
      </trkpt>
      <trkpt lat="43.76038" lon="7.07531">
        <ele>961.3</ele>
        <time>2026-05-15T07:14:04Z</time>
      </trkpt>
      <trkpt lat="43.76038" lon="7.07531">
        <ele>961.3</ele>
        <time>2026-05-15T07:14:05Z</time>
      </trkpt>
      <trkpt lat="43.76038" lon="7.07531">
        <ele>961.3</ele>
        <time>2026-05-15T07:14:06Z</time>
      </trkpt>
      <trkpt lat="43.76038" lon="7.07531">
        <ele>961.3</ele>
        <time>2026-05-15T07:14:07Z</time>
      </trkpt>
      <trkpt lat="43.76038" lon="7.07531">
        <ele>961.3</ele>
        <time>2026-05-15T07:14:08Z</time>
      </trkpt>
      <trkpt lat="43.76038" lon="7.07531">
        <ele>961.3</ele>
        <time>2026-05-15T07:14:09Z</time>
      </trkpt>
      <trkpt lat="43.76038" lon="7.07531">
        <ele>961.3</ele>
        <time>2026-05-15T07:14:10Z</time>
      </trkpt>
      <trkpt lat="43.76038" lon="7.07531">
        <ele>961.3</ele>
        <time>2026-05-15T07:14:11Z</time>
      </trkpt>
      <trkpt lat="43.76038" lon="7.07531">
        <ele>961.3</ele>
        <time>2026-05-15T07:14:12Z</time>
      </trkpt>
      <trkpt lat="43.76038" lon="7.07531">
        <ele>961.3</ele>
        <time>2026-05-15T07:14:13Z</time>
      </trkpt>
      <trkpt lat="43.76038" lon="7.07531">
        <ele>961.3</ele>
        <time>2026-05-15T07:14:14Z</time>
      </trkpt>
      <trkpt lat="43.76038" lon="7.07531">
        <ele>961.3</ele>
        <time>2026-05-15T07:14:15Z</time>
      </trkpt>
      <trkpt lat="43.76038" lon="7.07531">
        <ele>961.3</ele>
        <time>2026-05-15T07:14:16Z</time>
      </trkpt>
      <trkpt lat="43.76038" lon="7.07531">
        <ele>961.3</ele>
        <time>2026-05-15T07:14:17Z</time>
      </trkpt>
      <trkpt lat="43.76038" lon="7.07531">
        <ele>961.3</ele>
        <time>2026-05-15T07:14:18Z</time>
      </trkpt>
      <trkpt lat="43.76038" lon="7.07531">
        <ele>961.3</ele>
        <time>2026-05-15T07:14:19Z</time>
      </trkpt>
      <trkpt lat="43.76038" lon="7.07531">
        <ele>961.3</ele>
        <time>2026-05-15T07:14:20Z</time>
      </trkpt>
      <trkpt lat="43.76038" lon="7.07531">
        <ele>961.3</ele>
        <time>2026-05-15T07:14:21Z</time>
      </trkpt>
      <trkpt lat="43.76038" lon="7.07531">
        <ele>961.3</ele>
        <time>2026-05-15T07:14:22Z</time>
      </trkpt>
      <trkpt lat="43.76038" lon="7.07531">
        <ele>961.3</ele>
        <time>2026-05-15T07:14:23Z</time>
      </trkpt>
      <trkpt lat="43.76038" lon="7.07531">
        <ele>961.3</ele>
        <time>2026-05-15T07:14:24Z</time>
      </trkpt>
      <trkpt lat="43.76038" lon="7.07531">
        <ele>961.3</ele>
        <time>2026-05-15T07:14:25Z</time>
      </trkpt>
      <trkpt lat="43.76038" lon="7.07531">
        <ele>961.3</ele>
        <time>2026-05-15T07:14:26Z</time>
      </trkpt>
      <trkpt lat="43.76038" lon="7.07531">
        <ele>961.3</ele>
        <time>2026-05-15T07:14:27Z</time>
      </trkpt>
      <trkpt lat="43.76038" lon="7.07531">
        <ele>961.3</ele>
        <time>2026-05-15T07:14:28Z</time>
      </trkpt>
      <trkpt lat="43.76038" lon="7.07531">
        <ele>961.3</ele>
        <time>2026-05-15T07:14:29Z</time>
      </trkpt>
      <trkpt lat="43.76038" lon="7.07531">
        <ele>961.3</ele>
        <time>2026-05-15T07:14:30Z</time>
      </trkpt>
      <trkpt lat="43.76038" lon="7.07531">
        <ele>961.3</ele>
        <time>2026-05-15T07:14:31Z</time>
      </trkpt>
      <trkpt lat="43.76038" lon="7.07531">
        <ele>961.3</ele>
        <time>2026-05-15T07:14:32Z</time>
      </trkpt>
      <trkpt lat="43.76038" lon="7.07531">
        <ele>961.3</ele>
        <time>2026-05-15T07:14:33Z</time>
      </trkpt>
      <trkpt lat="43.76038" lon="7.07531">
        <ele>961.3</ele>
        <time>2026-05-15T07:14:34Z</time>
      </trkpt>
      <trkpt lat="43.76038" lon="7.07531">
        <ele>961.3</ele>
        <time>2026-05-15T07:14:35Z</time>
      </trkpt>
      <trkpt lat="43.76038" lon="7.07531">
        <ele>961.3</ele>
        <time>2026-05-15T07:14:36Z</time>
      </trkpt>
      <trkpt lat="43.76038" lon="7.07531">
        <ele>961.3</ele>
        <time>2026-05-15T07:14:37Z</time>
      </trkpt>
      <trkpt lat="43.76038" lon="7.07531">
        <ele>961.3</ele>
        <time>2026-05-15T07:14:38Z</time>
      </trkpt>
      <trkpt lat="43.76038" lon="7.07531">
        <ele>961.3</ele>
        <time>2026-05-15T07:14:39Z</time>
      </trkpt>
      <trkpt lat="43.76038" lon="7.07531">
        <ele>961.3</ele>
        <time>2026-05-15T07:14:40Z</time>
      </trkpt>
      <trkpt lat="43.76039" lon="7.0753">
        <ele>961.4</ele>
        <time>2026-05-15T07:14:41Z</time>
      </trkpt>
      <trkpt lat="43.76042" lon="7.07528">
        <ele>961.5</ele>
        <time>2026-05-15T07:14:42Z</time>
      </trkpt>
      <trkpt lat="43.76046" lon="7.07524">
        <ele>961.7</ele>
        <time>2026-05-15T07:14:43Z</time>
      </trkpt>
      <trkpt lat="43.76051" lon="7.07519">
        <ele>961.9</ele>
        <time>2026-05-15T07:14:44Z</time>
      </trkpt>
      <trkpt lat="43.76059" lon="7.07514">
        <ele>962.2</ele>
        <time>2026-05-15T07:14:45Z</time>
      </trkpt>
      <trkpt lat="43.76065" lon="7.07509">
        <ele>962.5</ele>
        <time>2026-05-15T07:14:46Z</time>
      </trkpt>
      <trkpt lat="43.76071" lon="7.07506">
        <ele>962.7</ele>
        <time>2026-05-15T07:14:47Z</time>
      </trkpt>
      <trkpt lat="43.76076" lon="7.07502">
        <ele>962.8</ele>
        <time>2026-05-15T07:14:48Z</time>
      </trkpt>
      <trkpt lat="43.76081" lon="7.07499">
        <ele>962.9</ele>
        <time>2026-05-15T07:14:49Z</time>
      </trkpt>
      <trkpt lat="43.76085" lon="7.07497">
        <ele>963</ele>
        <time>2026-05-15T07:14:50Z</time>
      </trkpt>
      <trkpt lat="43.76088" lon="7.07494">
        <ele>963</ele>
        <time>2026-05-15T07:14:51Z</time>
      </trkpt>
      <trkpt lat="43.76091" lon="7.07492">
        <ele>962.9</ele>
        <time>2026-05-15T07:14:52Z</time>
      </trkpt>
      <trkpt lat="43.76094" lon="7.0749">
        <ele>962.9</ele>
        <time>2026-05-15T07:14:53Z</time>
      </trkpt>
      <trkpt lat="43.76097" lon="7.07488">
        <ele>962.8</ele>
        <time>2026-05-15T07:14:54Z</time>
      </trkpt>
      <trkpt lat="43.76098" lon="7.07487">
        <ele>962.8</ele>
        <time>2026-05-15T07:14:55Z</time>
      </trkpt>
      <trkpt lat="43.76099" lon="7.07487">
        <ele>962.7</ele>
        <time>2026-05-15T07:14:56Z</time>
      </trkpt>
      <trkpt lat="43.76099" lon="7.07487">
        <ele>962.7</ele>
        <time>2026-05-15T07:14:57Z</time>
      </trkpt>
      <trkpt lat="43.76099" lon="7.07487">
        <ele>962.7</ele>
        <time>2026-05-15T07:14:58Z</time>
      </trkpt>
      <trkpt lat="43.76099" lon="7.07487">
        <ele>962.7</ele>
        <time>2026-05-15T07:14:59Z</time>
      </trkpt>
      <trkpt lat="43.76099" lon="7.07487">
        <ele>962.7</ele>
        <time>2026-05-15T07:15:00Z</time>
      </trkpt>
      <trkpt lat="43.76099" lon="7.07487">
        <ele>962.7</ele>
        <time>2026-05-15T07:15:01Z</time>
      </trkpt>
      <trkpt lat="43.76099" lon="7.07487">
        <ele>962.7</ele>
        <time>2026-05-15T07:15:02Z</time>
      </trkpt>
      <trkpt lat="43.76099" lon="7.07487">
        <ele>962.7</ele>
        <time>2026-05-15T07:15:03Z</time>
      </trkpt>
      <trkpt lat="43.76099" lon="7.07487">
        <ele>962.7</ele>
        <time>2026-05-15T07:15:04Z</time>
      </trkpt>
      <trkpt lat="43.76099" lon="7.07487">
        <ele>962.7</ele>
        <time>2026-05-15T07:15:05Z</time>
      </trkpt>
      <trkpt lat="43.76099" lon="7.07487">
        <ele>962.7</ele>
        <time>2026-05-15T07:15:06Z</time>
      </trkpt>
      <trkpt lat="43.76099" lon="7.07487">
        <ele>962.7</ele>
        <time>2026-05-15T07:15:07Z</time>
      </trkpt>
      <trkpt lat="43.76099" lon="7.07487">
        <ele>962.7</ele>
        <time>2026-05-15T07:15:08Z</time>
      </trkpt>
      <trkpt lat="43.76099" lon="7.07487">
        <ele>962.7</ele>
        <time>2026-05-15T07:15:09Z</time>
      </trkpt>
      <trkpt lat="43.76099" lon="7.07487">
        <ele>962.7</ele>
        <time>2026-05-15T07:15:10Z</time>
      </trkpt>
      <trkpt lat="43.76099" lon="7.07487">
        <ele>962.7</ele>
        <time>2026-05-15T07:15:11Z</time>
      </trkpt>
      <trkpt lat="43.76099" lon="7.07487">
        <ele>962.7</ele>
        <time>2026-05-15T07:15:12Z</time>
      </trkpt>
      <trkpt lat="43.76099" lon="7.07487">
        <ele>962.7</ele>
        <time>2026-05-15T07:15:13Z</time>
      </trkpt>
      <trkpt lat="43.761" lon="7.07486">
        <ele>962.7</ele>
        <time>2026-05-15T07:15:14Z</time>
      </trkpt>
      <trkpt lat="43.76104" lon="7.07483">
        <ele>962.5</ele>
        <time>2026-05-15T07:15:15Z</time>
      </trkpt>
      <trkpt lat="43.76108" lon="7.0748">
        <ele>962.4</ele>
        <time>2026-05-15T07:15:16Z</time>
      </trkpt>
      <trkpt lat="43.76113" lon="7.07475">
        <ele>962</ele>
        <time>2026-05-15T07:15:17Z</time>
      </trkpt>
      <trkpt lat="43.76118" lon="7.07469">
        <ele>961.7</ele>
        <time>2026-05-15T07:15:18Z</time>
      </trkpt>
      <trkpt lat="43.76122" lon="7.07462">
        <ele>961.5</ele>
        <time>2026-05-15T07:15:19Z</time>
      </trkpt>
      <trkpt lat="43.76126" lon="7.07456">
        <ele>961.2</ele>
        <time>2026-05-15T07:15:20Z</time>
      </trkpt>
      <trkpt lat="43.76131" lon="7.07448">
        <ele>960.7</ele>
        <time>2026-05-15T07:15:21Z</time>
      </trkpt>
      <trkpt lat="43.76136" lon="7.07439">
        <ele>960.2</ele>
        <time>2026-05-15T07:15:22Z</time>
      </trkpt>
      <trkpt lat="43.76141" lon="7.0743">
        <ele>960</ele>
        <time>2026-05-15T07:15:23Z</time>
      </trkpt>
      <trkpt lat="43.76148" lon="7.07421">
        <ele>960</ele>
        <time>2026-05-15T07:15:24Z</time>
      </trkpt>
      <trkpt lat="43.76154" lon="7.0741">
        <ele>959.8</ele>
        <time>2026-05-15T07:15:25Z</time>
      </trkpt>
      <trkpt lat="43.7616" lon="7.07399">
        <ele>959.4</ele>
        <time>2026-05-15T07:15:26Z</time>
      </trkpt>
      <trkpt lat="43.76166" lon="7.07387">
        <ele>958.9</ele>
        <time>2026-05-15T07:15:27Z</time>
      </trkpt>
      <trkpt lat="43.76171" lon="7.07374">
        <ele>958.5</ele>
        <time>2026-05-15T07:15:28Z</time>
      </trkpt>
      <trkpt lat="43.76177" lon="7.07361">
        <ele>958</ele>
        <time>2026-05-15T07:15:29Z</time>
      </trkpt>
      <trkpt lat="43.76182" lon="7.07348">
        <ele>957.5</ele>
        <time>2026-05-15T07:15:30Z</time>
      </trkpt>
      <trkpt lat="43.76187" lon="7.07335">
        <ele>957.1</ele>
        <time>2026-05-15T07:15:31Z</time>
      </trkpt>
      <trkpt lat="43.76192" lon="7.07321">
        <ele>956.5</ele>
        <time>2026-05-15T07:15:32Z</time>
      </trkpt>
      <trkpt lat="43.76198" lon="7.07306">
        <ele>956.3</ele>
        <time>2026-05-15T07:15:33Z</time>
      </trkpt>
      <trkpt lat="43.76206" lon="7.07292">
        <ele>955.9</ele>
        <time>2026-05-15T07:15:34Z</time>
      </trkpt>
      <trkpt lat="43.76215" lon="7.07278">
        <ele>955.5</ele>
        <time>2026-05-15T07:15:35Z</time>
      </trkpt>
      <trkpt lat="43.76226" lon="7.07266">
        <ele>954.9</ele>
        <time>2026-05-15T07:15:36Z</time>
      </trkpt>
      <trkpt lat="43.76238" lon="7.07255">
        <ele>954.1</ele>
        <time>2026-05-15T07:15:37Z</time>
      </trkpt>
      <trkpt lat="43.76251" lon="7.07246">
        <ele>953.6</ele>
        <time>2026-05-15T07:15:38Z</time>
      </trkpt>
      <trkpt lat="43.76263" lon="7.07236">
        <ele>953.2</ele>
        <time>2026-05-15T07:15:39Z</time>
      </trkpt>
      <trkpt lat="43.76275" lon="7.07224">
        <ele>952.9</ele>
        <time>2026-05-15T07:15:40Z</time>
      </trkpt>
      <trkpt lat="43.76284" lon="7.07209">
        <ele>953</ele>
        <time>2026-05-15T07:15:41Z</time>
      </trkpt>
      <trkpt lat="43.76293" lon="7.07194">
        <ele>953.1</ele>
        <time>2026-05-15T07:15:42Z</time>
      </trkpt>
      <trkpt lat="43.76303" lon="7.07182">
        <ele>953</ele>
        <time>2026-05-15T07:15:43Z</time>
      </trkpt>
      <trkpt lat="43.76315" lon="7.07172">
        <ele>952.4</ele>
        <time>2026-05-15T07:15:44Z</time>
      </trkpt>
      <trkpt lat="43.76328" lon="7.07165">
        <ele>951.8</ele>
        <time>2026-05-15T07:15:45Z</time>
      </trkpt>
      <trkpt lat="43.76342" lon="7.07158">
        <ele>950.8</ele>
        <time>2026-05-15T07:15:46Z</time>
      </trkpt>
      <trkpt lat="43.76356" lon="7.07152">
        <ele>949.6</ele>
        <time>2026-05-15T07:15:47Z</time>
      </trkpt>
      <trkpt lat="43.7637" lon="7.07144">
        <ele>948</ele>
        <time>2026-05-15T07:15:48Z</time>
      </trkpt>
      <trkpt lat="43.76384" lon="7.07138">
        <ele>946.3</ele>
        <time>2026-05-15T07:15:49Z</time>
      </trkpt>
      <trkpt lat="43.76398" lon="7.07132">
        <ele>945.1</ele>
        <time>2026-05-15T07:15:50Z</time>
      </trkpt>
      <trkpt lat="43.76412" lon="7.07125">
        <ele>943.8</ele>
        <time>2026-05-15T07:15:51Z</time>
      </trkpt>
      <trkpt lat="43.76426" lon="7.07119">
        <ele>942.9</ele>
        <time>2026-05-15T07:15:52Z</time>
      </trkpt>
      <trkpt lat="43.76439" lon="7.07112">
        <ele>942.1</ele>
        <time>2026-05-15T07:15:53Z</time>
      </trkpt>
      <trkpt lat="43.76453" lon="7.07105">
        <ele>941.3</ele>
        <time>2026-05-15T07:15:54Z</time>
      </trkpt>
      <trkpt lat="43.76465" lon="7.07099">
        <ele>940.7</ele>
        <time>2026-05-15T07:15:55Z</time>
      </trkpt>
      <trkpt lat="43.76476" lon="7.07092">
        <ele>939.9</ele>
        <time>2026-05-15T07:15:56Z</time>
      </trkpt>
      <trkpt lat="43.76486" lon="7.07085">
        <ele>939.2</ele>
        <time>2026-05-15T07:15:57Z</time>
      </trkpt>
      <trkpt lat="43.76496" lon="7.07079">
        <ele>938.8</ele>
        <time>2026-05-15T07:15:58Z</time>
      </trkpt>
      <trkpt lat="43.76506" lon="7.07073">
        <ele>939</ele>
        <time>2026-05-15T07:15:59Z</time>
      </trkpt>
      <trkpt lat="43.76517" lon="7.07066">
        <ele>939.2</ele>
        <time>2026-05-15T07:16:00Z</time>
      </trkpt>
      <trkpt lat="43.76528" lon="7.07061">
        <ele>939.4</ele>
        <time>2026-05-15T07:16:01Z</time>
      </trkpt>
      <trkpt lat="43.7654" lon="7.07056">
        <ele>939</ele>
        <time>2026-05-15T07:16:02Z</time>
      </trkpt>
      <trkpt lat="43.76553" lon="7.07053">
        <ele>938.8</ele>
        <time>2026-05-15T07:16:03Z</time>
      </trkpt>
      <trkpt lat="43.76566" lon="7.07049">
        <ele>938.1</ele>
        <time>2026-05-15T07:16:04Z</time>
      </trkpt>
      <trkpt lat="43.76579" lon="7.07046">
        <ele>937.2</ele>
        <time>2026-05-15T07:16:05Z</time>
      </trkpt>
      <trkpt lat="43.76592" lon="7.07042">
        <ele>936.1</ele>
        <time>2026-05-15T07:16:06Z</time>
      </trkpt>
      <trkpt lat="43.76605" lon="7.07039">
        <ele>935</ele>
        <time>2026-05-15T07:16:07Z</time>
      </trkpt>
      <trkpt lat="43.76618" lon="7.07035">
        <ele>933.6</ele>
        <time>2026-05-15T07:16:08Z</time>
      </trkpt>
      <trkpt lat="43.76631" lon="7.07031">
        <ele>932.1</ele>
        <time>2026-05-15T07:16:09Z</time>
      </trkpt>
      <trkpt lat="43.76643" lon="7.07028">
        <ele>930.9</ele>
        <time>2026-05-15T07:16:10Z</time>
      </trkpt>
      <trkpt lat="43.76656" lon="7.07024">
        <ele>929.9</ele>
        <time>2026-05-15T07:16:11Z</time>
      </trkpt>
      <trkpt lat="43.76669" lon="7.0702">
        <ele>928.9</ele>
        <time>2026-05-15T07:16:12Z</time>
      </trkpt>
      <trkpt lat="43.76682" lon="7.07016">
        <ele>928.3</ele>
        <time>2026-05-15T07:16:13Z</time>
      </trkpt>
      <trkpt lat="43.76696" lon="7.07012">
        <ele>927.7</ele>
        <time>2026-05-15T07:16:14Z</time>
      </trkpt>
      <trkpt lat="43.76711" lon="7.07009">
        <ele>927.3</ele>
        <time>2026-05-15T07:16:15Z</time>
      </trkpt>
      <trkpt lat="43.76725" lon="7.07004">
        <ele>926.6</ele>
        <time>2026-05-15T07:16:16Z</time>
      </trkpt>
      <trkpt lat="43.7674" lon="7.07">
        <ele>926</ele>
        <time>2026-05-15T07:16:17Z</time>
      </trkpt>
      <trkpt lat="43.76755" lon="7.06996">
        <ele>926</ele>
        <time>2026-05-15T07:16:18Z</time>
      </trkpt>
      <trkpt lat="43.76769" lon="7.06991">
        <ele>926.3</ele>
        <time>2026-05-15T07:16:19Z</time>
      </trkpt>
      <trkpt lat="43.76784" lon="7.06987">
        <ele>926.4</ele>
        <time>2026-05-15T07:16:20Z</time>
      </trkpt>
      <trkpt lat="43.76797" lon="7.06981">
        <ele>926</ele>
        <time>2026-05-15T07:16:21Z</time>
      </trkpt>
      <trkpt lat="43.7681" lon="7.06974">
        <ele>925.2</ele>
        <time>2026-05-15T07:16:22Z</time>
      </trkpt>
      <trkpt lat="43.76822" lon="7.06966">
        <ele>924.4</ele>
        <time>2026-05-15T07:16:23Z</time>
      </trkpt>
      <trkpt lat="43.76832" lon="7.06955">
        <ele>923.2</ele>
        <time>2026-05-15T07:16:24Z</time>
      </trkpt>
      <trkpt lat="43.76842" lon="7.06942">
        <ele>921.7</ele>
        <time>2026-05-15T07:16:25Z</time>
      </trkpt>
      <trkpt lat="43.76851" lon="7.06929">
        <ele>921.4</ele>
        <time>2026-05-15T07:16:26Z</time>
      </trkpt>
      <trkpt lat="43.76861" lon="7.06916">
        <ele>921</ele>
        <time>2026-05-15T07:16:27Z</time>
      </trkpt>
      <trkpt lat="43.76871" lon="7.06902">
        <ele>920.8</ele>
        <time>2026-05-15T07:16:28Z</time>
      </trkpt>
      <trkpt lat="43.76881" lon="7.06888">
        <ele>920.6</ele>
        <time>2026-05-15T07:16:29Z</time>
      </trkpt>
      <trkpt lat="43.7689" lon="7.06876">
        <ele>920.9</ele>
        <time>2026-05-15T07:16:30Z</time>
      </trkpt>
      <trkpt lat="43.76899" lon="7.06864">
        <ele>921.4</ele>
        <time>2026-05-15T07:16:31Z</time>
      </trkpt>
      <trkpt lat="43.76908" lon="7.06852">
        <ele>922.3</ele>
        <time>2026-05-15T07:16:32Z</time>
      </trkpt>
      <trkpt lat="43.76916" lon="7.06841">
        <ele>923.2</ele>
        <time>2026-05-15T07:16:33Z</time>
      </trkpt>
      <trkpt lat="43.76924" lon="7.0683">
        <ele>923.8</ele>
        <time>2026-05-15T07:16:34Z</time>
      </trkpt>
      <trkpt lat="43.76933" lon="7.06821">
        <ele>924.2</ele>
        <time>2026-05-15T07:16:35Z</time>
      </trkpt>
      <trkpt lat="43.76943" lon="7.06815">
        <ele>924.1</ele>
        <time>2026-05-15T07:16:36Z</time>
      </trkpt>
      <trkpt lat="43.76955" lon="7.06812">
        <ele>923.5</ele>
        <time>2026-05-15T07:16:37Z</time>
      </trkpt>
      <trkpt lat="43.76967" lon="7.06812">
        <ele>922.7</ele>
        <time>2026-05-15T07:16:38Z</time>
      </trkpt>
      <trkpt lat="43.76979" lon="7.06817">
        <ele>921.6</ele>
        <time>2026-05-15T07:16:39Z</time>
      </trkpt>
      <trkpt lat="43.76989" lon="7.06827">
        <ele>920.5</ele>
        <time>2026-05-15T07:16:40Z</time>
      </trkpt>
      <trkpt lat="43.76997" lon="7.06839">
        <ele>920</ele>
        <time>2026-05-15T07:16:41Z</time>
      </trkpt>
      <trkpt lat="43.77003" lon="7.06852">
        <ele>920.2</ele>
        <time>2026-05-15T07:16:42Z</time>
      </trkpt>
      <trkpt lat="43.77007" lon="7.06867">
        <ele>920.4</ele>
        <time>2026-05-15T07:16:43Z</time>
      </trkpt>
      <trkpt lat="43.7701" lon="7.06883">
        <ele>920.5</ele>
        <time>2026-05-15T07:16:44Z</time>
      </trkpt>
      <trkpt lat="43.77011" lon="7.06899">
        <ele>920.4</ele>
        <time>2026-05-15T07:16:45Z</time>
      </trkpt>
      <trkpt lat="43.77013" lon="7.06916">
        <ele>920.7</ele>
        <time>2026-05-15T07:16:46Z</time>
      </trkpt>
      <trkpt lat="43.77015" lon="7.06931">
        <ele>921.1</ele>
        <time>2026-05-15T07:16:47Z</time>
      </trkpt>
      <trkpt lat="43.77016" lon="7.06947">
        <ele>921.1</ele>
        <time>2026-05-15T07:16:48Z</time>
      </trkpt>
      <trkpt lat="43.77018" lon="7.06961">
        <ele>921.4</ele>
        <time>2026-05-15T07:16:49Z</time>
      </trkpt>
      <trkpt lat="43.77019" lon="7.06975">
        <ele>921.4</ele>
        <time>2026-05-15T07:16:50Z</time>
      </trkpt>
      <trkpt lat="43.7702" lon="7.06989">
        <ele>921.3</ele>
        <time>2026-05-15T07:16:51Z</time>
      </trkpt>
      <trkpt lat="43.77022" lon="7.07003">
        <ele>921.4</ele>
        <time>2026-05-15T07:16:52Z</time>
      </trkpt>
      <trkpt lat="43.77024" lon="7.07017">
        <ele>920.9</ele>
        <time>2026-05-15T07:16:53Z</time>
      </trkpt>
      <trkpt lat="43.77026" lon="7.0703">
        <ele>920.4</ele>
        <time>2026-05-15T07:16:54Z</time>
      </trkpt>
      <trkpt lat="43.7703" lon="7.07045">
        <ele>920</ele>
        <time>2026-05-15T07:16:55Z</time>
      </trkpt>
      <trkpt lat="43.77035" lon="7.07058">
        <ele>920.3</ele>
        <time>2026-05-15T07:16:56Z</time>
      </trkpt>
      <trkpt lat="43.77041" lon="7.07071">
        <ele>920.3</ele>
        <time>2026-05-15T07:16:57Z</time>
      </trkpt>
      <trkpt lat="43.77049" lon="7.07083">
        <ele>920.4</ele>
        <time>2026-05-15T07:16:58Z</time>
      </trkpt>
      <trkpt lat="43.77058" lon="7.07093">
        <ele>921.2</ele>
        <time>2026-05-15T07:16:59Z</time>
      </trkpt>
      <trkpt lat="43.77069" lon="7.07101">
        <ele>922.2</ele>
        <time>2026-05-15T07:17:00Z</time>
      </trkpt>
      <trkpt lat="43.7708" lon="7.07108">
        <ele>923</ele>
        <time>2026-05-15T07:17:01Z</time>
      </trkpt>
      <trkpt lat="43.77091" lon="7.07113">
        <ele>923.7</ele>
        <time>2026-05-15T07:17:02Z</time>
      </trkpt>
      <trkpt lat="43.77102" lon="7.07116">
        <ele>924.6</ele>
        <time>2026-05-15T07:17:03Z</time>
      </trkpt>
      <trkpt lat="43.77115" lon="7.07119">
        <ele>925.6</ele>
        <time>2026-05-15T07:17:04Z</time>
      </trkpt>
      <trkpt lat="43.77128" lon="7.07123">
        <ele>926.5</ele>
        <time>2026-05-15T07:17:05Z</time>
      </trkpt>
      <trkpt lat="43.77142" lon="7.07128">
        <ele>926.9</ele>
        <time>2026-05-15T07:17:06Z</time>
      </trkpt>
      <trkpt lat="43.77155" lon="7.07134">
        <ele>926.8</ele>
        <time>2026-05-15T07:17:07Z</time>
      </trkpt>
      <trkpt lat="43.77169" lon="7.07142">
        <ele>926.4</ele>
        <time>2026-05-15T07:17:08Z</time>
      </trkpt>
      <trkpt lat="43.77182" lon="7.07152">
        <ele>925.4</ele>
        <time>2026-05-15T07:17:09Z</time>
      </trkpt>
      <trkpt lat="43.77195" lon="7.07161">
        <ele>924.8</ele>
        <time>2026-05-15T07:17:10Z</time>
      </trkpt>
      <trkpt lat="43.77208" lon="7.07171">
        <ele>924.8</ele>
        <time>2026-05-15T07:17:11Z</time>
      </trkpt>
      <trkpt lat="43.77221" lon="7.07181">
        <ele>924.7</ele>
        <time>2026-05-15T07:17:12Z</time>
      </trkpt>
      <trkpt lat="43.77233" lon="7.0719">
        <ele>923.9</ele>
        <time>2026-05-15T07:17:13Z</time>
      </trkpt>
      <trkpt lat="43.77246" lon="7.07198">
        <ele>923.8</ele>
        <time>2026-05-15T07:17:14Z</time>
      </trkpt>
      <trkpt lat="43.77259" lon="7.07205">
        <ele>924.9</ele>
        <time>2026-05-15T07:17:15Z</time>
      </trkpt>
      <trkpt lat="43.77272" lon="7.07211">
        <ele>925.7</ele>
        <time>2026-05-15T07:17:16Z</time>
      </trkpt>
      <trkpt lat="43.77285" lon="7.07216">
        <ele>926.1</ele>
        <time>2026-05-15T07:17:17Z</time>
      </trkpt>
      <trkpt lat="43.77297" lon="7.0722">
        <ele>926.5</ele>
        <time>2026-05-15T07:17:18Z</time>
      </trkpt>
      <trkpt lat="43.7731" lon="7.07225">
        <ele>926.8</ele>
        <time>2026-05-15T07:17:19Z</time>
      </trkpt>
      <trkpt lat="43.77324" lon="7.07229">
        <ele>927.5</ele>
        <time>2026-05-15T07:17:20Z</time>
      </trkpt>
      <trkpt lat="43.77337" lon="7.07234">
        <ele>927.6</ele>
        <time>2026-05-15T07:17:21Z</time>
      </trkpt>
      <trkpt lat="43.77348" lon="7.07242">
        <ele>926</ele>
        <time>2026-05-15T07:17:22Z</time>
      </trkpt>
      <trkpt lat="43.77361" lon="7.07247">
        <ele>925.2</ele>
        <time>2026-05-15T07:17:23Z</time>
      </trkpt>
      <trkpt lat="43.77373" lon="7.07251">
        <ele>924.1</ele>
        <time>2026-05-15T07:17:24Z</time>
      </trkpt>
      <trkpt lat="43.77386" lon="7.07256">
        <ele>923.1</ele>
        <time>2026-05-15T07:17:25Z</time>
      </trkpt>
      <trkpt lat="43.77398" lon="7.07259">
        <ele>923.1</ele>
        <time>2026-05-15T07:17:26Z</time>
      </trkpt>
      <trkpt lat="43.77409" lon="7.07263">
        <ele>922.4</ele>
        <time>2026-05-15T07:17:27Z</time>
      </trkpt>
      <trkpt lat="43.77421" lon="7.07266">
        <ele>921.5</ele>
        <time>2026-05-15T07:17:28Z</time>
      </trkpt>
      <trkpt lat="43.77433" lon="7.07268">
        <ele>919.9</ele>
        <time>2026-05-15T07:17:29Z</time>
      </trkpt>
      <trkpt lat="43.77445" lon="7.07268">
        <ele>919.1</ele>
        <time>2026-05-15T07:17:30Z</time>
      </trkpt>
      <trkpt lat="43.77457" lon="7.07265">
        <ele>917</ele>
        <time>2026-05-15T07:17:31Z</time>
      </trkpt>
      <trkpt lat="43.77468" lon="7.07259">
        <ele>917.7</ele>
        <time>2026-05-15T07:17:32Z</time>
      </trkpt>
      <trkpt lat="43.77479" lon="7.0725">
        <ele>920.6</ele>
        <time>2026-05-15T07:17:33Z</time>
      </trkpt>
      <trkpt lat="43.7749" lon="7.0724">
        <ele>922.8</ele>
        <time>2026-05-15T07:17:34Z</time>
      </trkpt>
      <trkpt lat="43.775" lon="7.0723">
        <ele>925.2</ele>
        <time>2026-05-15T07:17:35Z</time>
      </trkpt>
      <trkpt lat="43.77511" lon="7.0722">
        <ele>926.7</ele>
        <time>2026-05-15T07:17:36Z</time>
      </trkpt>
      <trkpt lat="43.77522" lon="7.07214">
        <ele>926</ele>
        <time>2026-05-15T07:17:37Z</time>
      </trkpt>
      <trkpt lat="43.77535" lon="7.0721">
        <ele>924.9</ele>
        <time>2026-05-15T07:17:38Z</time>
      </trkpt>
      <trkpt lat="43.77548" lon="7.07208">
        <ele>923.7</ele>
        <time>2026-05-15T07:17:39Z</time>
      </trkpt>
      <trkpt lat="43.7756" lon="7.07205">
        <ele>924</ele>
        <time>2026-05-15T07:17:40Z</time>
      </trkpt>
      <trkpt lat="43.77572" lon="7.07202">
        <ele>924.9</ele>
        <time>2026-05-15T07:17:41Z</time>
      </trkpt>
      <trkpt lat="43.77584" lon="7.07202">
        <ele>923.9</ele>
        <time>2026-05-15T07:17:42Z</time>
      </trkpt>
      <trkpt lat="43.77595" lon="7.07205">
        <ele>923</ele>
        <time>2026-05-15T07:17:43Z</time>
      </trkpt>
      <trkpt lat="43.77606" lon="7.07208">
        <ele>921.8</ele>
        <time>2026-05-15T07:17:44Z</time>
      </trkpt>
      <trkpt lat="43.77618" lon="7.07214">
        <ele>918.1</ele>
        <time>2026-05-15T07:17:45Z</time>
      </trkpt>
      <trkpt lat="43.7763" lon="7.07219">
        <ele>915</ele>
        <time>2026-05-15T07:17:46Z</time>
      </trkpt>
      <trkpt lat="43.77641" lon="7.07222">
        <ele>913.1</ele>
        <time>2026-05-15T07:17:47Z</time>
      </trkpt>
      <trkpt lat="43.77652" lon="7.07221">
        <ele>913.4</ele>
        <time>2026-05-15T07:17:48Z</time>
      </trkpt>
      <trkpt lat="43.77664" lon="7.07217">
        <ele>915.1</ele>
        <time>2026-05-15T07:17:49Z</time>
      </trkpt>
      <trkpt lat="43.77673" lon="7.07209">
        <ele>917.5</ele>
        <time>2026-05-15T07:17:50Z</time>
      </trkpt>
      <trkpt lat="43.77681" lon="7.07198">
        <ele>919.5</ele>
        <time>2026-05-15T07:17:51Z</time>
      </trkpt>
      <trkpt lat="43.77684" lon="7.07184">
        <ele>921.8</ele>
        <time>2026-05-15T07:17:52Z</time>
      </trkpt>
      <trkpt lat="43.77687" lon="7.0717">
        <ele>922.6</ele>
        <time>2026-05-15T07:17:53Z</time>
      </trkpt>
      <trkpt lat="43.7769" lon="7.07155">
        <ele>923.8</ele>
        <time>2026-05-15T07:17:54Z</time>
      </trkpt>
      <trkpt lat="43.77695" lon="7.07143">
        <ele>922.5</ele>
        <time>2026-05-15T07:17:55Z</time>
      </trkpt>
      <trkpt lat="43.77701" lon="7.0713">
        <ele>920.5</ele>
        <time>2026-05-15T07:17:56Z</time>
      </trkpt>
      <trkpt lat="43.77707" lon="7.07117">
        <ele>919.5</ele>
        <time>2026-05-15T07:17:57Z</time>
      </trkpt>
      <trkpt lat="43.77712" lon="7.07103">
        <ele>919.3</ele>
        <time>2026-05-15T07:17:58Z</time>
      </trkpt>
      <trkpt lat="43.77712" lon="7.07085">
        <ele>922.8</ele>
        <time>2026-05-15T07:17:59Z</time>
      </trkpt>
      <trkpt lat="43.77713" lon="7.07068">
        <ele>922.9</ele>
        <time>2026-05-15T07:18:00Z</time>
      </trkpt>
      <trkpt lat="43.77715" lon="7.0705">
        <ele>922</ele>
        <time>2026-05-15T07:18:01Z</time>
      </trkpt>
      <trkpt lat="43.7772" lon="7.07034">
        <ele>918.6</ele>
        <time>2026-05-15T07:18:02Z</time>
      </trkpt>
      <trkpt lat="43.77726" lon="7.0702">
        <ele>916.6</ele>
        <time>2026-05-15T07:18:03Z</time>
      </trkpt>
      <trkpt lat="43.77734" lon="7.07005">
        <ele>915.5</ele>
        <time>2026-05-15T07:18:04Z</time>
      </trkpt>
      <trkpt lat="43.77742" lon="7.06989">
        <ele>913.3</ele>
        <time>2026-05-15T07:18:05Z</time>
      </trkpt>
      <trkpt lat="43.7775" lon="7.06972">
        <ele>910</ele>
        <time>2026-05-15T07:18:06Z</time>
      </trkpt>
      <trkpt lat="43.77758" lon="7.06956">
        <ele>909.3</ele>
        <time>2026-05-15T07:18:07Z</time>
      </trkpt>
      <trkpt lat="43.77766" lon="7.06941">
        <ele>909.8</ele>
        <time>2026-05-15T07:18:08Z</time>
      </trkpt>
      <trkpt lat="43.77775" lon="7.06928">
        <ele>910.7</ele>
        <time>2026-05-15T07:18:09Z</time>
      </trkpt>
      <trkpt lat="43.77784" lon="7.06915">
        <ele>912.1</ele>
        <time>2026-05-15T07:18:10Z</time>
      </trkpt>
      <trkpt lat="43.77792" lon="7.06902">
        <ele>913.9</ele>
        <time>2026-05-15T07:18:11Z</time>
      </trkpt>
      <trkpt lat="43.77799" lon="7.06888">
        <ele>915.4</ele>
        <time>2026-05-15T07:18:12Z</time>
      </trkpt>
      <trkpt lat="43.77806" lon="7.06873">
        <ele>917</ele>
        <time>2026-05-15T07:18:13Z</time>
      </trkpt>
      <trkpt lat="43.77813" lon="7.06858">
        <ele>917.6</ele>
        <time>2026-05-15T07:18:14Z</time>
      </trkpt>
      <trkpt lat="43.77819" lon="7.06843">
        <ele>917</ele>
        <time>2026-05-15T07:18:15Z</time>
      </trkpt>
      <trkpt lat="43.77826" lon="7.06827">
        <ele>917.3</ele>
        <time>2026-05-15T07:18:16Z</time>
      </trkpt>
      <trkpt lat="43.77833" lon="7.06812">
        <ele>918.1</ele>
        <time>2026-05-15T07:18:17Z</time>
      </trkpt>
      <trkpt lat="43.7784" lon="7.06797">
        <ele>916.9</ele>
        <time>2026-05-15T07:18:18Z</time>
      </trkpt>
      <trkpt lat="43.77848" lon="7.06782">
        <ele>914.7</ele>
        <time>2026-05-15T07:18:19Z</time>
      </trkpt>
      <trkpt lat="43.77857" lon="7.06771">
        <ele>913.6</ele>
        <time>2026-05-15T07:18:20Z</time>
      </trkpt>
      <trkpt lat="43.77867" lon="7.06761">
        <ele>915.1</ele>
        <time>2026-05-15T07:18:21Z</time>
      </trkpt>
      <trkpt lat="43.77876" lon="7.06752">
        <ele>917.3</ele>
        <time>2026-05-15T07:18:22Z</time>
      </trkpt>
      <trkpt lat="43.77884" lon="7.06741">
        <ele>918.3</ele>
        <time>2026-05-15T07:18:23Z</time>
      </trkpt>
      <trkpt lat="43.77892" lon="7.06729">
        <ele>916.6</ele>
        <time>2026-05-15T07:18:24Z</time>
      </trkpt>
      <trkpt lat="43.77896" lon="7.06713">
        <ele>915.6</ele>
        <time>2026-05-15T07:18:25Z</time>
      </trkpt>
      <trkpt lat="43.77901" lon="7.06697">
        <ele>913.5</ele>
        <time>2026-05-15T07:18:26Z</time>
      </trkpt>
      <trkpt lat="43.77906" lon="7.0668">
        <ele>914.5</ele>
        <time>2026-05-15T07:18:27Z</time>
      </trkpt>
      <trkpt lat="43.77913" lon="7.06663">
        <ele>914</ele>
        <time>2026-05-15T07:18:28Z</time>
      </trkpt>
      <trkpt lat="43.77919" lon="7.06647">
        <ele>914.3</ele>
        <time>2026-05-15T07:18:29Z</time>
      </trkpt>
      <trkpt lat="43.77927" lon="7.0663">
        <ele>915.2</ele>
        <time>2026-05-15T07:18:30Z</time>
      </trkpt>
      <trkpt lat="43.77935" lon="7.06617">
        <ele>914.7</ele>
        <time>2026-05-15T07:18:31Z</time>
      </trkpt>
      <trkpt lat="43.77944" lon="7.06605">
        <ele>913.4</ele>
        <time>2026-05-15T07:18:32Z</time>
      </trkpt>
      <trkpt lat="43.77954" lon="7.066">
        <ele>914</ele>
        <time>2026-05-15T07:18:33Z</time>
      </trkpt>
      <trkpt lat="43.77968" lon="7.066">
        <ele>911.7</ele>
        <time>2026-05-15T07:18:34Z</time>
      </trkpt>
      <trkpt lat="43.77979" lon="7.06594">
        <ele>911.7</ele>
        <time>2026-05-15T07:18:35Z</time>
      </trkpt>
      <trkpt lat="43.7799" lon="7.06586">
        <ele>911.1</ele>
        <time>2026-05-15T07:18:36Z</time>
      </trkpt>
      <trkpt lat="43.78001" lon="7.06577">
        <ele>910.6</ele>
        <time>2026-05-15T07:18:37Z</time>
      </trkpt>
      <trkpt lat="43.78009" lon="7.0656">
        <ele>914.6</ele>
        <time>2026-05-15T07:18:38Z</time>
      </trkpt>
      <trkpt lat="43.78019" lon="7.06546">
        <ele>915.9</ele>
        <time>2026-05-15T07:18:39Z</time>
      </trkpt>
      <trkpt lat="43.78028" lon="7.06531">
        <ele>918.2</ele>
        <time>2026-05-15T07:18:40Z</time>
      </trkpt>
      <trkpt lat="43.78038" lon="7.06515">
        <ele>919.9</ele>
        <time>2026-05-15T07:18:41Z</time>
      </trkpt>
      <trkpt lat="43.78048" lon="7.065">
        <ele>919.4</ele>
        <time>2026-05-15T07:18:42Z</time>
      </trkpt>
      <trkpt lat="43.78059" lon="7.06486">
        <ele>917.4</ele>
        <time>2026-05-15T07:18:43Z</time>
      </trkpt>
      <trkpt lat="43.78071" lon="7.06476">
        <ele>916.1</ele>
        <time>2026-05-15T07:18:44Z</time>
      </trkpt>
      <trkpt lat="43.78084" lon="7.06468">
        <ele>915.2</ele>
        <time>2026-05-15T07:18:45Z</time>
      </trkpt>
      <trkpt lat="43.78097" lon="7.06461">
        <ele>916.7</ele>
        <time>2026-05-15T07:18:46Z</time>
      </trkpt>
      <trkpt lat="43.7811" lon="7.06454">
        <ele>917.7</ele>
        <time>2026-05-15T07:18:47Z</time>
      </trkpt>
      <trkpt lat="43.78124" lon="7.06449">
        <ele>916.5</ele>
        <time>2026-05-15T07:18:48Z</time>
      </trkpt>
      <trkpt lat="43.78137" lon="7.06443">
        <ele>916.4</ele>
        <time>2026-05-15T07:18:49Z</time>
      </trkpt>
      <trkpt lat="43.78148" lon="7.06441">
        <ele>917.1</ele>
        <time>2026-05-15T07:18:50Z</time>
      </trkpt>
      <trkpt lat="43.78161" lon="7.06444">
        <ele>915.3</ele>
        <time>2026-05-15T07:18:51Z</time>
      </trkpt>
      <trkpt lat="43.78172" lon="7.0645">
        <ele>912.9</ele>
        <time>2026-05-15T07:18:52Z</time>
      </trkpt>
      <trkpt lat="43.78184" lon="7.06455">
        <ele>911.9</ele>
        <time>2026-05-15T07:18:53Z</time>
      </trkpt>
      <trkpt lat="43.78196" lon="7.06457">
        <ele>912.3</ele>
        <time>2026-05-15T07:18:54Z</time>
      </trkpt>
      <trkpt lat="43.78208" lon="7.06455">
        <ele>913.2</ele>
        <time>2026-05-15T07:18:55Z</time>
      </trkpt>
      <trkpt lat="43.7822" lon="7.06451">
        <ele>915.6</ele>
        <time>2026-05-15T07:18:56Z</time>
      </trkpt>
      <trkpt lat="43.78232" lon="7.06446">
        <ele>916.4</ele>
        <time>2026-05-15T07:18:57Z</time>
      </trkpt>
      <trkpt lat="43.78246" lon="7.06442">
        <ele>916.1</ele>
        <time>2026-05-15T07:18:58Z</time>
      </trkpt>
      <trkpt lat="43.78259" lon="7.06438">
        <ele>916.4</ele>
        <time>2026-05-15T07:18:59Z</time>
      </trkpt>
      <trkpt lat="43.78273" lon="7.06435">
        <ele>915.6</ele>
        <time>2026-05-15T07:19:00Z</time>
      </trkpt>
      <trkpt lat="43.78287" lon="7.06432">
        <ele>916.3</ele>
        <time>2026-05-15T07:19:01Z</time>
      </trkpt>
      <trkpt lat="43.78301" lon="7.06429">
        <ele>917.2</ele>
        <time>2026-05-15T07:19:02Z</time>
      </trkpt>
      <trkpt lat="43.78314" lon="7.06427">
        <ele>915.6</ele>
        <time>2026-05-15T07:19:03Z</time>
      </trkpt>
      <trkpt lat="43.78326" lon="7.06423">
        <ele>914.5</ele>
        <time>2026-05-15T07:19:04Z</time>
      </trkpt>
      <trkpt lat="43.78337" lon="7.06417">
        <ele>915.4</ele>
        <time>2026-05-15T07:19:05Z</time>
      </trkpt>
      <trkpt lat="43.78347" lon="7.06409">
        <ele>917.3</ele>
        <time>2026-05-15T07:19:06Z</time>
      </trkpt>
      <trkpt lat="43.78353" lon="7.06397">
        <ele>919.5</ele>
        <time>2026-05-15T07:19:07Z</time>
      </trkpt>
      <trkpt lat="43.78356" lon="7.06383">
        <ele>920.8</ele>
        <time>2026-05-15T07:19:08Z</time>
      </trkpt>
      <trkpt lat="43.78358" lon="7.06368">
        <ele>920.3</ele>
        <time>2026-05-15T07:19:09Z</time>
      </trkpt>
      <trkpt lat="43.78359" lon="7.06351">
        <ele>920.6</ele>
        <time>2026-05-15T07:19:10Z</time>
      </trkpt>
      <trkpt lat="43.78359" lon="7.06334">
        <ele>921.9</ele>
        <time>2026-05-15T07:19:11Z</time>
      </trkpt>
      <trkpt lat="43.78359" lon="7.06315">
        <ele>922.4</ele>
        <time>2026-05-15T07:19:12Z</time>
      </trkpt>
      <trkpt lat="43.78359" lon="7.06296">
        <ele>922.6</ele>
        <time>2026-05-15T07:19:13Z</time>
      </trkpt>
      <trkpt lat="43.78359" lon="7.06277">
        <ele>922.5</ele>
        <time>2026-05-15T07:19:14Z</time>
      </trkpt>
      <trkpt lat="43.78359" lon="7.06257">
        <ele>924.4</ele>
        <time>2026-05-15T07:19:15Z</time>
      </trkpt>
      <trkpt lat="43.78358" lon="7.06237">
        <ele>924.6</ele>
        <time>2026-05-15T07:19:16Z</time>
      </trkpt>
      <trkpt lat="43.78354" lon="7.06218">
        <ele>924.8</ele>
        <time>2026-05-15T07:19:17Z</time>
      </trkpt>
      <trkpt lat="43.7835" lon="7.06199">
        <ele>924.4</ele>
        <time>2026-05-15T07:19:18Z</time>
      </trkpt>
      <trkpt lat="43.78345" lon="7.06179">
        <ele>924.3</ele>
        <time>2026-05-15T07:19:19Z</time>
      </trkpt>
      <trkpt lat="43.78341" lon="7.06161">
        <ele>924.5</ele>
        <time>2026-05-15T07:19:20Z</time>
      </trkpt>
      <trkpt lat="43.78338" lon="7.06143">
        <ele>925.3</ele>
        <time>2026-05-15T07:19:21Z</time>
      </trkpt>
      <trkpt lat="43.78338" lon="7.06125">
        <ele>925.8</ele>
        <time>2026-05-15T07:19:22Z</time>
      </trkpt>
      <trkpt lat="43.78341" lon="7.0611">
        <ele>925.7</ele>
        <time>2026-05-15T07:19:23Z</time>
      </trkpt>
      <trkpt lat="43.78348" lon="7.06096">
        <ele>925.5</ele>
        <time>2026-05-15T07:19:24Z</time>
      </trkpt>
      <trkpt lat="43.78357" lon="7.06084">
        <ele>924.9</ele>
        <time>2026-05-15T07:19:25Z</time>
      </trkpt>
      <trkpt lat="43.78368" lon="7.06074">
        <ele>924.6</ele>
        <time>2026-05-15T07:19:26Z</time>
      </trkpt>
      <trkpt lat="43.7838" lon="7.06063">
        <ele>924.8</ele>
        <time>2026-05-15T07:19:27Z</time>
      </trkpt>
      <trkpt lat="43.78392" lon="7.0605">
        <ele>925.3</ele>
        <time>2026-05-15T07:19:28Z</time>
      </trkpt>
      <trkpt lat="43.78404" lon="7.06036">
        <ele>925.3</ele>
        <time>2026-05-15T07:19:29Z</time>
      </trkpt>
      <trkpt lat="43.78417" lon="7.06023">
        <ele>924.6</ele>
        <time>2026-05-15T07:19:30Z</time>
      </trkpt>
      <trkpt lat="43.78428" lon="7.06011">
        <ele>923.6</ele>
        <time>2026-05-15T07:19:31Z</time>
      </trkpt>
      <trkpt lat="43.78439" lon="7.06">
        <ele>922.4</ele>
        <time>2026-05-15T07:19:32Z</time>
      </trkpt>
      <trkpt lat="43.78449" lon="7.05987">
        <ele>922.2</ele>
        <time>2026-05-15T07:19:33Z</time>
      </trkpt>
      <trkpt lat="43.78457" lon="7.05974">
        <ele>922.5</ele>
        <time>2026-05-15T07:19:34Z</time>
      </trkpt>
      <trkpt lat="43.78464" lon="7.0596">
        <ele>922.4</ele>
        <time>2026-05-15T07:19:35Z</time>
      </trkpt>
      <trkpt lat="43.78469" lon="7.05946">
        <ele>922.6</ele>
        <time>2026-05-15T07:19:36Z</time>
      </trkpt>
      <trkpt lat="43.78473" lon="7.05931">
        <ele>922.8</ele>
        <time>2026-05-15T07:19:37Z</time>
      </trkpt>
      <trkpt lat="43.78475" lon="7.05916">
        <ele>923.3</ele>
        <time>2026-05-15T07:19:38Z</time>
      </trkpt>
      <trkpt lat="43.78476" lon="7.059">
        <ele>924.2</ele>
        <time>2026-05-15T07:19:39Z</time>
      </trkpt>
      <trkpt lat="43.78476" lon="7.05884">
        <ele>925.2</ele>
        <time>2026-05-15T07:19:40Z</time>
      </trkpt>
      <trkpt lat="43.78475" lon="7.05868">
        <ele>926.1</ele>
        <time>2026-05-15T07:19:41Z</time>
      </trkpt>
      <trkpt lat="43.78474" lon="7.05852">
        <ele>926.6</ele>
        <time>2026-05-15T07:19:42Z</time>
      </trkpt>
      <trkpt lat="43.78473" lon="7.05836">
        <ele>926.8</ele>
        <time>2026-05-15T07:19:43Z</time>
      </trkpt>
      <trkpt lat="43.78472" lon="7.0582">
        <ele>926.1</ele>
        <time>2026-05-15T07:19:44Z</time>
      </trkpt>
      <trkpt lat="43.78471" lon="7.05803">
        <ele>925.3</ele>
        <time>2026-05-15T07:19:45Z</time>
      </trkpt>
      <trkpt lat="43.7847" lon="7.05785">
        <ele>925.6</ele>
        <time>2026-05-15T07:19:46Z</time>
      </trkpt>
      <trkpt lat="43.78469" lon="7.05767">
        <ele>925.5</ele>
        <time>2026-05-15T07:19:47Z</time>
      </trkpt>
      <trkpt lat="43.78467" lon="7.0575">
        <ele>925.5</ele>
        <time>2026-05-15T07:19:48Z</time>
      </trkpt>
      <trkpt lat="43.78466" lon="7.05732">
        <ele>925.8</ele>
        <time>2026-05-15T07:19:49Z</time>
      </trkpt>
      <trkpt lat="43.78465" lon="7.05713">
        <ele>926.3</ele>
        <time>2026-05-15T07:19:50Z</time>
      </trkpt>
      <trkpt lat="43.78464" lon="7.05693">
        <ele>927.1</ele>
        <time>2026-05-15T07:19:51Z</time>
      </trkpt>
      <trkpt lat="43.78464" lon="7.05672">
        <ele>926.8</ele>
        <time>2026-05-15T07:19:52Z</time>
      </trkpt>
      <trkpt lat="43.78463" lon="7.0565">
        <ele>926.6</ele>
        <time>2026-05-15T07:19:53Z</time>
      </trkpt>
      <trkpt lat="43.78462" lon="7.05627">
        <ele>926.1</ele>
        <time>2026-05-15T07:19:54Z</time>
      </trkpt>
      <trkpt lat="43.78461" lon="7.05603">
        <ele>925.7</ele>
        <time>2026-05-15T07:19:55Z</time>
      </trkpt>
      <trkpt lat="43.78459" lon="7.05579">
        <ele>925.8</ele>
        <time>2026-05-15T07:19:56Z</time>
      </trkpt>
      <trkpt lat="43.78458" lon="7.05555">
        <ele>926.1</ele>
        <time>2026-05-15T07:19:57Z</time>
      </trkpt>
      <trkpt lat="43.78457" lon="7.05532">
        <ele>925.9</ele>
        <time>2026-05-15T07:19:58Z</time>
      </trkpt>
      <trkpt lat="43.78455" lon="7.05508">
        <ele>926.3</ele>
        <time>2026-05-15T07:19:59Z</time>
      </trkpt>
      <trkpt lat="43.78454" lon="7.05484">
        <ele>927</ele>
        <time>2026-05-15T07:20:00Z</time>
      </trkpt>
      <trkpt lat="43.78453" lon="7.05459">
        <ele>927.9</ele>
        <time>2026-05-15T07:20:01Z</time>
      </trkpt>
      <trkpt lat="43.78453" lon="7.05435">
        <ele>928.5</ele>
        <time>2026-05-15T07:20:02Z</time>
      </trkpt>
      <trkpt lat="43.78455" lon="7.05411">
        <ele>928.3</ele>
        <time>2026-05-15T07:20:03Z</time>
      </trkpt>
      <trkpt lat="43.78458" lon="7.05387">
        <ele>927.6</ele>
        <time>2026-05-15T07:20:04Z</time>
      </trkpt>
      <trkpt lat="43.78462" lon="7.05364">
        <ele>926.6</ele>
        <time>2026-05-15T07:20:05Z</time>
      </trkpt>
      <trkpt lat="43.78466" lon="7.0534">
        <ele>926.4</ele>
        <time>2026-05-15T07:20:06Z</time>
      </trkpt>
      <trkpt lat="43.7847" lon="7.05316">
        <ele>926.3</ele>
        <time>2026-05-15T07:20:07Z</time>
      </trkpt>
      <trkpt lat="43.78473" lon="7.05291">
        <ele>926.8</ele>
        <time>2026-05-15T07:20:08Z</time>
      </trkpt>
      <trkpt lat="43.78474" lon="7.05267">
        <ele>927.5</ele>
        <time>2026-05-15T07:20:09Z</time>
      </trkpt>
      <trkpt lat="43.78475" lon="7.05244">
        <ele>927.5</ele>
        <time>2026-05-15T07:20:10Z</time>
      </trkpt>
      <trkpt lat="43.78476" lon="7.05222">
        <ele>928</ele>
        <time>2026-05-15T07:20:11Z</time>
      </trkpt>
      <trkpt lat="43.78477" lon="7.05202">
        <ele>927.9</ele>
        <time>2026-05-15T07:20:12Z</time>
      </trkpt>
      <trkpt lat="43.78477" lon="7.05182">
        <ele>928.4</ele>
        <time>2026-05-15T07:20:13Z</time>
      </trkpt>
      <trkpt lat="43.78477" lon="7.05163">
        <ele>928.9</ele>
        <time>2026-05-15T07:20:14Z</time>
      </trkpt>
      <trkpt lat="43.78479" lon="7.05146">
        <ele>928.2</ele>
        <time>2026-05-15T07:20:15Z</time>
      </trkpt>
      <trkpt lat="43.78483" lon="7.0513">
        <ele>928</ele>
        <time>2026-05-15T07:20:16Z</time>
      </trkpt>
      <trkpt lat="43.7849" lon="7.05116">
        <ele>928.3</ele>
        <time>2026-05-15T07:20:17Z</time>
      </trkpt>
      <trkpt lat="43.78499" lon="7.05105">
        <ele>929.2</ele>
        <time>2026-05-15T07:20:18Z</time>
      </trkpt>
      <trkpt lat="43.78512" lon="7.05096">
        <ele>929.4</ele>
        <time>2026-05-15T07:20:19Z</time>
      </trkpt>
      <trkpt lat="43.78525" lon="7.05088">
        <ele>929.5</ele>
        <time>2026-05-15T07:20:20Z</time>
      </trkpt>
      <trkpt lat="43.78539" lon="7.05079">
        <ele>929.6</ele>
        <time>2026-05-15T07:20:21Z</time>
      </trkpt>
      <trkpt lat="43.78553" lon="7.05071">
        <ele>929.5</ele>
        <time>2026-05-15T07:20:22Z</time>
      </trkpt>
      <trkpt lat="43.78566" lon="7.05063">
        <ele>928.9</ele>
        <time>2026-05-15T07:20:23Z</time>
      </trkpt>
      <trkpt lat="43.78578" lon="7.05055">
        <ele>928.3</ele>
        <time>2026-05-15T07:20:24Z</time>
      </trkpt>
      <trkpt lat="43.78589" lon="7.05046">
        <ele>928</ele>
        <time>2026-05-15T07:20:25Z</time>
      </trkpt>
      <trkpt lat="43.78598" lon="7.05034">
        <ele>928.4</ele>
        <time>2026-05-15T07:20:26Z</time>
      </trkpt>
      <trkpt lat="43.78606" lon="7.05018">
        <ele>928.6</ele>
        <time>2026-05-15T07:20:27Z</time>
      </trkpt>
      <trkpt lat="43.78612" lon="7.05">
        <ele>928.7</ele>
        <time>2026-05-15T07:20:28Z</time>
      </trkpt>
      <trkpt lat="43.78618" lon="7.0498">
        <ele>929.5</ele>
        <time>2026-05-15T07:20:29Z</time>
      </trkpt>
      <trkpt lat="43.78627" lon="7.0496">
        <ele>930.3</ele>
        <time>2026-05-15T07:20:30Z</time>
      </trkpt>
      <trkpt lat="43.78639" lon="7.04942">
        <ele>930.5</ele>
        <time>2026-05-15T07:20:31Z</time>
      </trkpt>
      <trkpt lat="43.78651" lon="7.04924">
        <ele>931.2</ele>
        <time>2026-05-15T07:20:32Z</time>
      </trkpt>
      <trkpt lat="43.78661" lon="7.04906">
        <ele>931.2</ele>
        <time>2026-05-15T07:20:33Z</time>
      </trkpt>
      <trkpt lat="43.78669" lon="7.04887">
        <ele>931.3</ele>
        <time>2026-05-15T07:20:34Z</time>
      </trkpt>
      <trkpt lat="43.78675" lon="7.04865">
        <ele>930.7</ele>
        <time>2026-05-15T07:20:35Z</time>
      </trkpt>
      <trkpt lat="43.78679" lon="7.04842">
        <ele>930.6</ele>
        <time>2026-05-15T07:20:36Z</time>
      </trkpt>
      <trkpt lat="43.78682" lon="7.04819">
        <ele>930.4</ele>
        <time>2026-05-15T07:20:37Z</time>
      </trkpt>
      <trkpt lat="43.78684" lon="7.04795">
        <ele>931.1</ele>
        <time>2026-05-15T07:20:38Z</time>
      </trkpt>
      <trkpt lat="43.78687" lon="7.04773">
        <ele>931.9</ele>
        <time>2026-05-15T07:20:39Z</time>
      </trkpt>
      <trkpt lat="43.7869" lon="7.04749">
        <ele>931.8</ele>
        <time>2026-05-15T07:20:40Z</time>
      </trkpt>
      <trkpt lat="43.78693" lon="7.04725">
        <ele>931.5</ele>
        <time>2026-05-15T07:20:41Z</time>
      </trkpt>
      <trkpt lat="43.78695" lon="7.047">
        <ele>932.4</ele>
        <time>2026-05-15T07:20:42Z</time>
      </trkpt>
      <trkpt lat="43.78698" lon="7.04675">
        <ele>932.4</ele>
        <time>2026-05-15T07:20:43Z</time>
      </trkpt>
      <trkpt lat="43.78701" lon="7.04649">
        <ele>932.4</ele>
        <time>2026-05-15T07:20:44Z</time>
      </trkpt>
      <trkpt lat="43.78706" lon="7.04624">
        <ele>932.4</ele>
        <time>2026-05-15T07:20:45Z</time>
      </trkpt>
      <trkpt lat="43.7871" lon="7.04598">
        <ele>932.6</ele>
        <time>2026-05-15T07:20:46Z</time>
      </trkpt>
      <trkpt lat="43.78714" lon="7.04572">
        <ele>932.8</ele>
        <time>2026-05-15T07:20:47Z</time>
      </trkpt>
      <trkpt lat="43.78718" lon="7.04546">
        <ele>933.3</ele>
        <time>2026-05-15T07:20:48Z</time>
      </trkpt>
      <trkpt lat="43.78723" lon="7.0452">
        <ele>933.6</ele>
        <time>2026-05-15T07:20:49Z</time>
      </trkpt>
      <trkpt lat="43.78729" lon="7.04495">
        <ele>934.1</ele>
        <time>2026-05-15T07:20:50Z</time>
      </trkpt>
      <trkpt lat="43.78735" lon="7.04469">
        <ele>934.7</ele>
        <time>2026-05-15T07:20:51Z</time>
      </trkpt>
      <trkpt lat="43.78742" lon="7.04442">
        <ele>935.2</ele>
        <time>2026-05-15T07:20:52Z</time>
      </trkpt>
      <trkpt lat="43.78749" lon="7.04417">
        <ele>935.4</ele>
        <time>2026-05-15T07:20:53Z</time>
      </trkpt>
      <trkpt lat="43.78754" lon="7.04391">
        <ele>936.2</ele>
        <time>2026-05-15T07:20:54Z</time>
      </trkpt>
      <trkpt lat="43.78757" lon="7.04366">
        <ele>936.9</ele>
        <time>2026-05-15T07:20:55Z</time>
      </trkpt>
      <trkpt lat="43.7876" lon="7.0434">
        <ele>936.8</ele>
        <time>2026-05-15T07:20:56Z</time>
      </trkpt>
      <trkpt lat="43.78764" lon="7.04313">
        <ele>937.3</ele>
        <time>2026-05-15T07:20:57Z</time>
      </trkpt>
      <trkpt lat="43.7877" lon="7.04289">
        <ele>937.1</ele>
        <time>2026-05-15T07:20:58Z</time>
      </trkpt>
      <trkpt lat="43.7878" lon="7.04265">
        <ele>936.2</ele>
        <time>2026-05-15T07:20:59Z</time>
      </trkpt>
      <trkpt lat="43.7879" lon="7.04241">
        <ele>936.2</ele>
        <time>2026-05-15T07:21:00Z</time>
      </trkpt>
      <trkpt lat="43.78798" lon="7.04219">
        <ele>936.1</ele>
        <time>2026-05-15T07:21:01Z</time>
      </trkpt>
      <trkpt lat="43.78806" lon="7.04198">
        <ele>935.5</ele>
        <time>2026-05-15T07:21:02Z</time>
      </trkpt>
      <trkpt lat="43.78812" lon="7.04176">
        <ele>936</ele>
        <time>2026-05-15T07:21:03Z</time>
      </trkpt>
      <trkpt lat="43.78816" lon="7.04155">
        <ele>936.9</ele>
        <time>2026-05-15T07:21:04Z</time>
      </trkpt>
      <trkpt lat="43.78819" lon="7.04136">
        <ele>937.8</ele>
        <time>2026-05-15T07:21:05Z</time>
      </trkpt>
      <trkpt lat="43.78822" lon="7.04118">
        <ele>937.7</ele>
        <time>2026-05-15T07:21:06Z</time>
      </trkpt>
      <trkpt lat="43.78824" lon="7.04101">
        <ele>937.8</ele>
        <time>2026-05-15T07:21:07Z</time>
      </trkpt>
      <trkpt lat="43.78827" lon="7.04085">
        <ele>937.4</ele>
        <time>2026-05-15T07:21:08Z</time>
      </trkpt>
      <trkpt lat="43.78828" lon="7.04068">
        <ele>938.1</ele>
        <time>2026-05-15T07:21:09Z</time>
      </trkpt>
      <trkpt lat="43.78829" lon="7.0405">
        <ele>938.8</ele>
        <time>2026-05-15T07:21:10Z</time>
      </trkpt>
      <trkpt lat="43.78828" lon="7.04033">
        <ele>939.7</ele>
        <time>2026-05-15T07:21:11Z</time>
      </trkpt>
      <trkpt lat="43.78828" lon="7.04016">
        <ele>939.9</ele>
        <time>2026-05-15T07:21:12Z</time>
      </trkpt>
      <trkpt lat="43.78827" lon="7.03998">
        <ele>940.3</ele>
        <time>2026-05-15T07:21:13Z</time>
      </trkpt>
      <trkpt lat="43.78828" lon="7.0398">
        <ele>940.5</ele>
        <time>2026-05-15T07:21:14Z</time>
      </trkpt>
      <trkpt lat="43.78831" lon="7.03962">
        <ele>940.8</ele>
        <time>2026-05-15T07:21:15Z</time>
      </trkpt>
      <trkpt lat="43.78838" lon="7.03944">
        <ele>941.1</ele>
        <time>2026-05-15T07:21:16Z</time>
      </trkpt>
      <trkpt lat="43.78845" lon="7.03926">
        <ele>941.9</ele>
        <time>2026-05-15T07:21:17Z</time>
      </trkpt>
      <trkpt lat="43.78853" lon="7.03908">
        <ele>941.8</ele>
        <time>2026-05-15T07:21:18Z</time>
      </trkpt>
      <trkpt lat="43.78861" lon="7.03891">
        <ele>940.9</ele>
        <time>2026-05-15T07:21:19Z</time>
      </trkpt>
      <trkpt lat="43.7887" lon="7.03874">
        <ele>939.8</ele>
        <time>2026-05-15T07:21:20Z</time>
      </trkpt>
      <trkpt lat="43.7888" lon="7.03858">
        <ele>938.7</ele>
        <time>2026-05-15T07:21:21Z</time>
      </trkpt>
      <trkpt lat="43.78891" lon="7.03845">
        <ele>937.4</ele>
        <time>2026-05-15T07:21:22Z</time>
      </trkpt>
      <trkpt lat="43.78903" lon="7.03831">
        <ele>936.7</ele>
        <time>2026-05-15T07:21:23Z</time>
      </trkpt>
      <trkpt lat="43.78914" lon="7.03814">
        <ele>937.3</ele>
        <time>2026-05-15T07:21:24Z</time>
      </trkpt>
      <trkpt lat="43.78923" lon="7.03795">
        <ele>937.8</ele>
        <time>2026-05-15T07:21:25Z</time>
      </trkpt>
      <trkpt lat="43.7893" lon="7.03775">
        <ele>937.9</ele>
        <time>2026-05-15T07:21:26Z</time>
      </trkpt>
      <trkpt lat="43.78937" lon="7.03756">
        <ele>938.3</ele>
        <time>2026-05-15T07:21:27Z</time>
      </trkpt>
      <trkpt lat="43.78945" lon="7.03735">
        <ele>938</ele>
        <time>2026-05-15T07:21:28Z</time>
      </trkpt>
      <trkpt lat="43.78951" lon="7.03716">
        <ele>938.4</ele>
        <time>2026-05-15T07:21:29Z</time>
      </trkpt>
      <trkpt lat="43.78958" lon="7.03696">
        <ele>938.9</ele>
        <time>2026-05-15T07:21:30Z</time>
      </trkpt>
      <trkpt lat="43.78964" lon="7.03677">
        <ele>940</ele>
        <time>2026-05-15T07:21:31Z</time>
      </trkpt>
      <trkpt lat="43.78969" lon="7.03657">
        <ele>940.7</ele>
        <time>2026-05-15T07:21:32Z</time>
      </trkpt>
      <trkpt lat="43.78972" lon="7.03636">
        <ele>941.3</ele>
        <time>2026-05-15T07:21:33Z</time>
      </trkpt>
      <trkpt lat="43.78973" lon="7.03616">
        <ele>942.5</ele>
        <time>2026-05-15T07:21:34Z</time>
      </trkpt>
      <trkpt lat="43.78973" lon="7.03597">
        <ele>943.8</ele>
        <time>2026-05-15T07:21:35Z</time>
      </trkpt>
      <trkpt lat="43.78974" lon="7.03579">
        <ele>945.3</ele>
        <time>2026-05-15T07:21:36Z</time>
      </trkpt>
      <trkpt lat="43.78978" lon="7.03563">
        <ele>946.9</ele>
        <time>2026-05-15T07:21:37Z</time>
      </trkpt>
      <trkpt lat="43.78985" lon="7.0355">
        <ele>946.7</ele>
        <time>2026-05-15T07:21:38Z</time>
      </trkpt>
      <trkpt lat="43.7899" lon="7.03536">
        <ele>946.9</ele>
        <time>2026-05-15T07:21:39Z</time>
      </trkpt>
      <trkpt lat="43.78993" lon="7.03522">
        <ele>947.4</ele>
        <time>2026-05-15T07:21:40Z</time>
      </trkpt>
      <trkpt lat="43.78993" lon="7.03506">
        <ele>949.1</ele>
        <time>2026-05-15T07:21:41Z</time>
      </trkpt>
      <trkpt lat="43.78989" lon="7.0349">
        <ele>951.6</ele>
        <time>2026-05-15T07:21:42Z</time>
      </trkpt>
      <trkpt lat="43.78988" lon="7.03473">
        <ele>952.3</ele>
        <time>2026-05-15T07:21:43Z</time>
      </trkpt>
      <trkpt lat="43.78991" lon="7.03457">
        <ele>952.5</ele>
        <time>2026-05-15T07:21:44Z</time>
      </trkpt>
      <trkpt lat="43.78996" lon="7.0344">
        <ele>953</ele>
        <time>2026-05-15T07:21:45Z</time>
      </trkpt>
      <trkpt lat="43.79002" lon="7.03425">
        <ele>953.9</ele>
        <time>2026-05-15T07:21:46Z</time>
      </trkpt>
      <trkpt lat="43.79008" lon="7.03411">
        <ele>954.7</ele>
        <time>2026-05-15T07:21:47Z</time>
      </trkpt>
      <trkpt lat="43.79013" lon="7.03398">
        <ele>955.3</ele>
        <time>2026-05-15T07:21:48Z</time>
      </trkpt>
      <trkpt lat="43.79019" lon="7.03384">
        <ele>955.7</ele>
        <time>2026-05-15T07:21:49Z</time>
      </trkpt>
      <trkpt lat="43.79024" lon="7.03372">
        <ele>956.3</ele>
        <time>2026-05-15T07:21:50Z</time>
      </trkpt>
      <trkpt lat="43.79028" lon="7.03361">
        <ele>956.9</ele>
        <time>2026-05-15T07:21:51Z</time>
      </trkpt>
      <trkpt lat="43.79032" lon="7.03352">
        <ele>957.1</ele>
        <time>2026-05-15T07:21:52Z</time>
      </trkpt>
      <trkpt lat="43.79035" lon="7.03346">
        <ele>957.1</ele>
        <time>2026-05-15T07:21:53Z</time>
      </trkpt>
      <trkpt lat="43.79038" lon="7.03341">
        <ele>957.1</ele>
        <time>2026-05-15T07:21:54Z</time>
      </trkpt>
      <trkpt lat="43.79041" lon="7.03336">
        <ele>957.1</ele>
        <time>2026-05-15T07:21:55Z</time>
      </trkpt>
      <trkpt lat="43.79044" lon="7.03332">
        <ele>957.1</ele>
        <time>2026-05-15T07:21:56Z</time>
      </trkpt>
      <trkpt lat="43.79047" lon="7.03327">
        <ele>957.4</ele>
        <time>2026-05-15T07:21:57Z</time>
      </trkpt>
      <trkpt lat="43.79047" lon="7.03321">
        <ele>958.9</ele>
        <time>2026-05-15T07:21:58Z</time>
      </trkpt>
      <trkpt lat="43.79045" lon="7.03315">
        <ele>960.9</ele>
        <time>2026-05-15T07:21:59Z</time>
      </trkpt>
      <trkpt lat="43.7904" lon="7.03312">
        <ele>962.9</ele>
        <time>2026-05-15T07:22:00Z</time>
      </trkpt>
      <trkpt lat="43.79035" lon="7.03314">
        <ele>963.7</ele>
        <time>2026-05-15T07:22:01Z</time>
      </trkpt>
      <trkpt lat="43.79029" lon="7.03322">
        <ele>963.7</ele>
        <time>2026-05-15T07:22:02Z</time>
      </trkpt>
      <trkpt lat="43.79021" lon="7.03333">
        <ele>963.3</ele>
        <time>2026-05-15T07:22:03Z</time>
      </trkpt>
      <trkpt lat="43.79012" lon="7.03342">
        <ele>964</ele>
        <time>2026-05-15T07:22:04Z</time>
      </trkpt>
      <trkpt lat="43.79002" lon="7.03352">
        <ele>965.8</ele>
        <time>2026-05-15T07:22:05Z</time>
      </trkpt>
      <trkpt lat="43.78992" lon="7.03359">
        <ele>966.6</ele>
        <time>2026-05-15T07:22:06Z</time>
      </trkpt>
      <trkpt lat="43.78981" lon="7.03363">
        <ele>967.2</ele>
        <time>2026-05-15T07:22:07Z</time>
      </trkpt>
      <trkpt lat="43.78971" lon="7.03362">
        <ele>968.1</ele>
        <time>2026-05-15T07:22:08Z</time>
      </trkpt>
      <trkpt lat="43.78961" lon="7.03358">
        <ele>969.2</ele>
        <time>2026-05-15T07:22:09Z</time>
      </trkpt>
      <trkpt lat="43.7895" lon="7.03352">
        <ele>970.1</ele>
        <time>2026-05-15T07:22:10Z</time>
      </trkpt>
      <trkpt lat="43.78938" lon="7.03344">
        <ele>971.1</ele>
        <time>2026-05-15T07:22:11Z</time>
      </trkpt>
      <trkpt lat="43.78926" lon="7.03337">
        <ele>972.1</ele>
        <time>2026-05-15T07:22:12Z</time>
      </trkpt>
      <trkpt lat="43.78913" lon="7.0333">
        <ele>973.1</ele>
        <time>2026-05-15T07:22:13Z</time>
      </trkpt>
      <trkpt lat="43.789" lon="7.03323">
        <ele>973.8</ele>
        <time>2026-05-15T07:22:14Z</time>
      </trkpt>
      <trkpt lat="43.78886" lon="7.03315">
        <ele>974.5</ele>
        <time>2026-05-15T07:22:15Z</time>
      </trkpt>
      <trkpt lat="43.78872" lon="7.03306">
        <ele>975.2</ele>
        <time>2026-05-15T07:22:16Z</time>
      </trkpt>
      <trkpt lat="43.7886" lon="7.03294">
        <ele>976.1</ele>
        <time>2026-05-15T07:22:17Z</time>
      </trkpt>
      <trkpt lat="43.7885" lon="7.03279">
        <ele>976.8</ele>
        <time>2026-05-15T07:22:18Z</time>
      </trkpt>
      <trkpt lat="43.78842" lon="7.03262">
        <ele>977</ele>
        <time>2026-05-15T07:22:19Z</time>
      </trkpt>
      <trkpt lat="43.78836" lon="7.03242">
        <ele>977.4</ele>
        <time>2026-05-15T07:22:20Z</time>
      </trkpt>
      <trkpt lat="43.78832" lon="7.03221">
        <ele>977.1</ele>
        <time>2026-05-15T07:22:21Z</time>
      </trkpt>
      <trkpt lat="43.78829" lon="7.032">
        <ele>977.5</ele>
        <time>2026-05-15T07:22:22Z</time>
      </trkpt>
      <trkpt lat="43.78826" lon="7.03179">
        <ele>977.8</ele>
        <time>2026-05-15T07:22:23Z</time>
      </trkpt>
      <trkpt lat="43.78821" lon="7.03157">
        <ele>978</ele>
        <time>2026-05-15T07:22:24Z</time>
      </trkpt>
      <trkpt lat="43.78814" lon="7.03135">
        <ele>977.9</ele>
        <time>2026-05-15T07:22:25Z</time>
      </trkpt>
      <trkpt lat="43.78806" lon="7.03112">
        <ele>978</ele>
        <time>2026-05-15T07:22:26Z</time>
      </trkpt>
      <trkpt lat="43.78797" lon="7.03089">
        <ele>978.1</ele>
        <time>2026-05-15T07:22:27Z</time>
      </trkpt>
      <trkpt lat="43.78789" lon="7.03065">
        <ele>977.9</ele>
        <time>2026-05-15T07:22:28Z</time>
      </trkpt>
      <trkpt lat="43.7878" lon="7.03042">
        <ele>978.2</ele>
        <time>2026-05-15T07:22:29Z</time>
      </trkpt>
      <trkpt lat="43.78772" lon="7.03019">
        <ele>978.4</ele>
        <time>2026-05-15T07:22:30Z</time>
      </trkpt>
      <trkpt lat="43.78763" lon="7.02996">
        <ele>978.9</ele>
        <time>2026-05-15T07:22:31Z</time>
      </trkpt>
      <trkpt lat="43.78753" lon="7.02974">
        <ele>978.7</ele>
        <time>2026-05-15T07:22:32Z</time>
      </trkpt>
      <trkpt lat="43.78745" lon="7.02951">
        <ele>978.6</ele>
        <time>2026-05-15T07:22:33Z</time>
      </trkpt>
      <trkpt lat="43.7874" lon="7.02926">
        <ele>978.1</ele>
        <time>2026-05-15T07:22:34Z</time>
      </trkpt>
      <trkpt lat="43.78735" lon="7.029">
        <ele>977.2</ele>
        <time>2026-05-15T07:22:35Z</time>
      </trkpt>
      <trkpt lat="43.78731" lon="7.02873">
        <ele>977.1</ele>
        <time>2026-05-15T07:22:36Z</time>
      </trkpt>
      <trkpt lat="43.78726" lon="7.02846">
        <ele>977.4</ele>
        <time>2026-05-15T07:22:37Z</time>
      </trkpt>
      <trkpt lat="43.7872" lon="7.02818">
        <ele>977.6</ele>
        <time>2026-05-15T07:22:38Z</time>
      </trkpt>
      <trkpt lat="43.78714" lon="7.02789">
        <ele>977.2</ele>
        <time>2026-05-15T07:22:39Z</time>
      </trkpt>
      <trkpt lat="43.78706" lon="7.02759">
        <ele>977.5</ele>
        <time>2026-05-15T07:22:40Z</time>
      </trkpt>
      <trkpt lat="43.787" lon="7.02731">
        <ele>977.5</ele>
        <time>2026-05-15T07:22:41Z</time>
      </trkpt>
      <trkpt lat="43.78693" lon="7.02703">
        <ele>977.4</ele>
        <time>2026-05-15T07:22:42Z</time>
      </trkpt>
      <trkpt lat="43.78686" lon="7.02675">
        <ele>978.1</ele>
        <time>2026-05-15T07:22:43Z</time>
      </trkpt>
      <trkpt lat="43.78679" lon="7.02647">
        <ele>978.2</ele>
        <time>2026-05-15T07:22:44Z</time>
      </trkpt>
      <trkpt lat="43.78672" lon="7.0262">
        <ele>978.3</ele>
        <time>2026-05-15T07:22:45Z</time>
      </trkpt>
      <trkpt lat="43.78666" lon="7.02595">
        <ele>978.6</ele>
        <time>2026-05-15T07:22:46Z</time>
      </trkpt>
      <trkpt lat="43.78659" lon="7.02569">
        <ele>979.1</ele>
        <time>2026-05-15T07:22:47Z</time>
      </trkpt>
      <trkpt lat="43.78653" lon="7.02543">
        <ele>979.9</ele>
        <time>2026-05-15T07:22:48Z</time>
      </trkpt>
      <trkpt lat="43.78647" lon="7.02518">
        <ele>980.7</ele>
        <time>2026-05-15T07:22:49Z</time>
      </trkpt>
      <trkpt lat="43.78641" lon="7.02493">
        <ele>981</ele>
        <time>2026-05-15T07:22:50Z</time>
      </trkpt>
      <trkpt lat="43.78635" lon="7.02469">
        <ele>981.8</ele>
        <time>2026-05-15T07:22:51Z</time>
      </trkpt>
      <trkpt lat="43.7863" lon="7.02447">
        <ele>982.3</ele>
        <time>2026-05-15T07:22:52Z</time>
      </trkpt>
      <trkpt lat="43.78625" lon="7.02425">
        <ele>982.6</ele>
        <time>2026-05-15T07:22:53Z</time>
      </trkpt>
      <trkpt lat="43.7862" lon="7.02403">
        <ele>982.6</ele>
        <time>2026-05-15T07:22:54Z</time>
      </trkpt>
      <trkpt lat="43.78616" lon="7.02382">
        <ele>982.5</ele>
        <time>2026-05-15T07:22:55Z</time>
      </trkpt>
      <trkpt lat="43.78612" lon="7.02361">
        <ele>982.3</ele>
        <time>2026-05-15T07:22:56Z</time>
      </trkpt>
      <trkpt lat="43.78608" lon="7.02339">
        <ele>982.3</ele>
        <time>2026-05-15T07:22:57Z</time>
      </trkpt>
      <trkpt lat="43.78605" lon="7.02316">
        <ele>982.9</ele>
        <time>2026-05-15T07:22:58Z</time>
      </trkpt>
      <trkpt lat="43.78602" lon="7.02293">
        <ele>983</ele>
        <time>2026-05-15T07:22:59Z</time>
      </trkpt>
      <trkpt lat="43.78599" lon="7.02271">
        <ele>982.9</ele>
        <time>2026-05-15T07:23:00Z</time>
      </trkpt>
      <trkpt lat="43.78596" lon="7.02248">
        <ele>983.2</ele>
        <time>2026-05-15T07:23:01Z</time>
      </trkpt>
      <trkpt lat="43.78594" lon="7.02225">
        <ele>983.1</ele>
        <time>2026-05-15T07:23:02Z</time>
      </trkpt>
      <trkpt lat="43.78591" lon="7.02203">
        <ele>982.4</ele>
        <time>2026-05-15T07:23:03Z</time>
      </trkpt>
      <trkpt lat="43.78589" lon="7.02179">
        <ele>982.3</ele>
        <time>2026-05-15T07:23:04Z</time>
      </trkpt>
      <trkpt lat="43.78586" lon="7.02158">
        <ele>981.7</ele>
        <time>2026-05-15T07:23:05Z</time>
      </trkpt>
      <trkpt lat="43.78585" lon="7.02134">
        <ele>982.2</ele>
        <time>2026-05-15T07:23:06Z</time>
      </trkpt>
      <trkpt lat="43.78586" lon="7.02111">
        <ele>984.1</ele>
        <time>2026-05-15T07:23:07Z</time>
      </trkpt>
      <trkpt lat="43.78587" lon="7.02088">
        <ele>984.5</ele>
        <time>2026-05-15T07:23:08Z</time>
      </trkpt>
      <trkpt lat="43.78589" lon="7.02064">
        <ele>983.9</ele>
        <time>2026-05-15T07:23:09Z</time>
      </trkpt>
      <trkpt lat="43.78592" lon="7.02041">
        <ele>983.7</ele>
        <time>2026-05-15T07:23:10Z</time>
      </trkpt>
      <trkpt lat="43.78594" lon="7.02018">
        <ele>983.1</ele>
        <time>2026-05-15T07:23:11Z</time>
      </trkpt>
      <trkpt lat="43.78596" lon="7.01996">
        <ele>982.4</ele>
        <time>2026-05-15T07:23:12Z</time>
      </trkpt>
      <trkpt lat="43.78598" lon="7.01974">
        <ele>982.4</ele>
        <time>2026-05-15T07:23:13Z</time>
      </trkpt>
      <trkpt lat="43.786" lon="7.01951">
        <ele>982</ele>
        <time>2026-05-15T07:23:14Z</time>
      </trkpt>
      <trkpt lat="43.78603" lon="7.01931">
        <ele>981.6</ele>
        <time>2026-05-15T07:23:15Z</time>
      </trkpt>
      <trkpt lat="43.78606" lon="7.01909">
        <ele>980.5</ele>
        <time>2026-05-15T07:23:16Z</time>
      </trkpt>
      <trkpt lat="43.78609" lon="7.01887">
        <ele>979.1</ele>
        <time>2026-05-15T07:23:17Z</time>
      </trkpt>
      <trkpt lat="43.78613" lon="7.01865">
        <ele>977.1</ele>
        <time>2026-05-15T07:23:18Z</time>
      </trkpt>
      <trkpt lat="43.78616" lon="7.01843">
        <ele>975.6</ele>
        <time>2026-05-15T07:23:19Z</time>
      </trkpt>
      <trkpt lat="43.78618" lon="7.01821">
        <ele>974.6</ele>
        <time>2026-05-15T07:23:20Z</time>
      </trkpt>
      <trkpt lat="43.78619" lon="7.01798">
        <ele>973.4</ele>
        <time>2026-05-15T07:23:21Z</time>
      </trkpt>
      <trkpt lat="43.7862" lon="7.01775">
        <ele>971.7</ele>
        <time>2026-05-15T07:23:22Z</time>
      </trkpt>
      <trkpt lat="43.78619" lon="7.01751">
        <ele>969.1</ele>
        <time>2026-05-15T07:23:23Z</time>
      </trkpt>
      <trkpt lat="43.78618" lon="7.01728">
        <ele>967</ele>
        <time>2026-05-15T07:23:24Z</time>
      </trkpt>
      <trkpt lat="43.78618" lon="7.01705">
        <ele>965.4</ele>
        <time>2026-05-15T07:23:25Z</time>
      </trkpt>
      <trkpt lat="43.7862" lon="7.01683">
        <ele>964.8</ele>
        <time>2026-05-15T07:23:26Z</time>
      </trkpt>
      <trkpt lat="43.78624" lon="7.01662">
        <ele>965.2</ele>
        <time>2026-05-15T07:23:27Z</time>
      </trkpt>
      <trkpt lat="43.78627" lon="7.01641">
        <ele>965.6</ele>
        <time>2026-05-15T07:23:28Z</time>
      </trkpt>
      <trkpt lat="43.78626" lon="7.0162">
        <ele>964.3</ele>
        <time>2026-05-15T07:23:29Z</time>
      </trkpt>
      <trkpt lat="43.78625" lon="7.01598">
        <ele>963.7</ele>
        <time>2026-05-15T07:23:30Z</time>
      </trkpt>
      <trkpt lat="43.78623" lon="7.01578">
        <ele>963.3</ele>
        <time>2026-05-15T07:23:31Z</time>
      </trkpt>
      <trkpt lat="43.78623" lon="7.01559">
        <ele>963.3</ele>
        <time>2026-05-15T07:23:32Z</time>
      </trkpt>
      <trkpt lat="43.78623" lon="7.0154">
        <ele>963</ele>
        <time>2026-05-15T07:23:33Z</time>
      </trkpt>
      <trkpt lat="43.78628" lon="7.01521">
        <ele>964.3</ele>
        <time>2026-05-15T07:23:34Z</time>
      </trkpt>
      <trkpt lat="43.78633" lon="7.01504">
        <ele>965.1</ele>
        <time>2026-05-15T07:23:35Z</time>
      </trkpt>
      <trkpt lat="43.78637" lon="7.01485">
        <ele>964.7</ele>
        <time>2026-05-15T07:23:36Z</time>
      </trkpt>
      <trkpt lat="43.78638" lon="7.01466">
        <ele>963.3</ele>
        <time>2026-05-15T07:23:37Z</time>
      </trkpt>
      <trkpt lat="43.78638" lon="7.01447">
        <ele>961.9</ele>
        <time>2026-05-15T07:23:38Z</time>
      </trkpt>
      <trkpt lat="43.78639" lon="7.01428">
        <ele>961.5</ele>
        <time>2026-05-15T07:23:39Z</time>
      </trkpt>
      <trkpt lat="43.78636" lon="7.01409">
        <ele>959.8</ele>
        <time>2026-05-15T07:23:40Z</time>
      </trkpt>
      <trkpt lat="43.78634" lon="7.01389">
        <ele>958.2</ele>
        <time>2026-05-15T07:23:41Z</time>
      </trkpt>
      <trkpt lat="43.78631" lon="7.0137">
        <ele>956</ele>
        <time>2026-05-15T07:23:42Z</time>
      </trkpt>
      <trkpt lat="43.7863" lon="7.0135">
        <ele>954.3</ele>
        <time>2026-05-15T07:23:43Z</time>
      </trkpt>
      <trkpt lat="43.7863" lon="7.0133">
        <ele>952.9</ele>
        <time>2026-05-15T07:23:44Z</time>
      </trkpt>
      <trkpt lat="43.78633" lon="7.01309">
        <ele>952.3</ele>
        <time>2026-05-15T07:23:45Z</time>
      </trkpt>
      <trkpt lat="43.78635" lon="7.01288">
        <ele>951.5</ele>
        <time>2026-05-15T07:23:46Z</time>
      </trkpt>
      <trkpt lat="43.78635" lon="7.01267">
        <ele>950</ele>
        <time>2026-05-15T07:23:47Z</time>
      </trkpt>
      <trkpt lat="43.78636" lon="7.01246">
        <ele>949</ele>
        <time>2026-05-15T07:23:48Z</time>
      </trkpt>
      <trkpt lat="43.78637" lon="7.01225">
        <ele>948.6</ele>
        <time>2026-05-15T07:23:49Z</time>
      </trkpt>
      <trkpt lat="43.78636" lon="7.01205">
        <ele>948.2</ele>
        <time>2026-05-15T07:23:50Z</time>
      </trkpt>
      <trkpt lat="43.78634" lon="7.01185">
        <ele>947.6</ele>
        <time>2026-05-15T07:23:51Z</time>
      </trkpt>
      <trkpt lat="43.78633" lon="7.01165">
        <ele>947.2</ele>
        <time>2026-05-15T07:23:52Z</time>
      </trkpt>
      <trkpt lat="43.78631" lon="7.01145">
        <ele>945.9</ele>
        <time>2026-05-15T07:23:53Z</time>
      </trkpt>
      <trkpt lat="43.78629" lon="7.01127">
        <ele>945.2</ele>
        <time>2026-05-15T07:23:54Z</time>
      </trkpt>
      <trkpt lat="43.78626" lon="7.01108">
        <ele>944.3</ele>
        <time>2026-05-15T07:23:55Z</time>
      </trkpt>
      <trkpt lat="43.78624" lon="7.01089">
        <ele>943.7</ele>
        <time>2026-05-15T07:23:56Z</time>
      </trkpt>
      <trkpt lat="43.78622" lon="7.0107">
        <ele>943.1</ele>
        <time>2026-05-15T07:23:57Z</time>
      </trkpt>
      <trkpt lat="43.78619" lon="7.0105">
        <ele>942.3</ele>
        <time>2026-05-15T07:23:58Z</time>
      </trkpt>
      <trkpt lat="43.78617" lon="7.01028">
        <ele>941.9</ele>
        <time>2026-05-15T07:23:59Z</time>
      </trkpt>
      <trkpt lat="43.78615" lon="7.01007">
        <ele>941.9</ele>
        <time>2026-05-15T07:24:00Z</time>
      </trkpt>
      <trkpt lat="43.78613" lon="7.00985">
        <ele>941</ele>
        <time>2026-05-15T07:24:01Z</time>
      </trkpt>
      <trkpt lat="43.78611" lon="7.00964">
        <ele>939.7</ele>
        <time>2026-05-15T07:24:02Z</time>
      </trkpt>
      <trkpt lat="43.7861" lon="7.00942">
        <ele>938.5</ele>
        <time>2026-05-15T07:24:03Z</time>
      </trkpt>
      <trkpt lat="43.7861" lon="7.00921">
        <ele>937</ele>
        <time>2026-05-15T07:24:04Z</time>
      </trkpt>
      <trkpt lat="43.78614" lon="7.00901">
        <ele>936.8</ele>
        <time>2026-05-15T07:24:05Z</time>
      </trkpt>
      <trkpt lat="43.7862" lon="7.00882">
        <ele>937.4</ele>
        <time>2026-05-15T07:24:06Z</time>
      </trkpt>
      <trkpt lat="43.78623" lon="7.00861">
        <ele>936.8</ele>
        <time>2026-05-15T07:24:07Z</time>
      </trkpt>
      <trkpt lat="43.78625" lon="7.00839">
        <ele>936.3</ele>
        <time>2026-05-15T07:24:08Z</time>
      </trkpt>
      <trkpt lat="43.78625" lon="7.00817">
        <ele>935.1</ele>
        <time>2026-05-15T07:24:09Z</time>
      </trkpt>
      <trkpt lat="43.78624" lon="7.00794">
        <ele>933.3</ele>
        <time>2026-05-15T07:24:10Z</time>
      </trkpt>
      <trkpt lat="43.78623" lon="7.00773">
        <ele>931.7</ele>
        <time>2026-05-15T07:24:11Z</time>
      </trkpt>
      <trkpt lat="43.78622" lon="7.00752">
        <ele>930.6</ele>
        <time>2026-05-15T07:24:12Z</time>
      </trkpt>
      <trkpt lat="43.78621" lon="7.00731">
        <ele>929.5</ele>
        <time>2026-05-15T07:24:13Z</time>
      </trkpt>
      <trkpt lat="43.7862" lon="7.00708">
        <ele>928.9</ele>
        <time>2026-05-15T07:24:14Z</time>
      </trkpt>
      <trkpt lat="43.78619" lon="7.00685">
        <ele>928.8</ele>
        <time>2026-05-15T07:24:15Z</time>
      </trkpt>
      <trkpt lat="43.7862" lon="7.00662">
        <ele>929.3</ele>
        <time>2026-05-15T07:24:16Z</time>
      </trkpt>
      <trkpt lat="43.78622" lon="7.00639">
        <ele>928.7</ele>
        <time>2026-05-15T07:24:17Z</time>
      </trkpt>
      <trkpt lat="43.78624" lon="7.00616">
        <ele>928</ele>
        <time>2026-05-15T07:24:18Z</time>
      </trkpt>
      <trkpt lat="43.78626" lon="7.00593">
        <ele>927</ele>
        <time>2026-05-15T07:24:19Z</time>
      </trkpt>
      <trkpt lat="43.78626" lon="7.0057">
        <ele>925.6</ele>
        <time>2026-05-15T07:24:20Z</time>
      </trkpt>
      <trkpt lat="43.78626" lon="7.00547">
        <ele>924.6</ele>
        <time>2026-05-15T07:24:21Z</time>
      </trkpt>
      <trkpt lat="43.78627" lon="7.00524">
        <ele>924.3</ele>
        <time>2026-05-15T07:24:22Z</time>
      </trkpt>
      <trkpt lat="43.78627" lon="7.00502">
        <ele>922.7</ele>
        <time>2026-05-15T07:24:23Z</time>
      </trkpt>
      <trkpt lat="43.78627" lon="7.0048">
        <ele>920.4</ele>
        <time>2026-05-15T07:24:24Z</time>
      </trkpt>
      <trkpt lat="43.78627" lon="7.0046">
        <ele>918.7</ele>
        <time>2026-05-15T07:24:25Z</time>
      </trkpt>
      <trkpt lat="43.78627" lon="7.0044">
        <ele>917.3</ele>
        <time>2026-05-15T07:24:26Z</time>
      </trkpt>
      <trkpt lat="43.78627" lon="7.00419">
        <ele>915.7</ele>
        <time>2026-05-15T07:24:27Z</time>
      </trkpt>
      <trkpt lat="43.78628" lon="7.00398">
        <ele>915.2</ele>
        <time>2026-05-15T07:24:28Z</time>
      </trkpt>
      <trkpt lat="43.78628" lon="7.00376">
        <ele>914.1</ele>
        <time>2026-05-15T07:24:29Z</time>
      </trkpt>
      <trkpt lat="43.78629" lon="7.00355">
        <ele>913.3</ele>
        <time>2026-05-15T07:24:30Z</time>
      </trkpt>
      <trkpt lat="43.78629" lon="7.00334">
        <ele>912.5</ele>
        <time>2026-05-15T07:24:31Z</time>
      </trkpt>
      <trkpt lat="43.78631" lon="7.00313">
        <ele>911.8</ele>
        <time>2026-05-15T07:24:32Z</time>
      </trkpt>
      <trkpt lat="43.78633" lon="7.00291">
        <ele>910.8</ele>
        <time>2026-05-15T07:24:33Z</time>
      </trkpt>
      <trkpt lat="43.78639" lon="7.00271">
        <ele>910.6</ele>
        <time>2026-05-15T07:24:34Z</time>
      </trkpt>
      <trkpt lat="43.78644" lon="7.0025">
        <ele>910.8</ele>
        <time>2026-05-15T07:24:35Z</time>
      </trkpt>
      <trkpt lat="43.7865" lon="7.00231">
        <ele>911.4</ele>
        <time>2026-05-15T07:24:36Z</time>
      </trkpt>
      <trkpt lat="43.78654" lon="7.00211">
        <ele>910.9</ele>
        <time>2026-05-15T07:24:37Z</time>
      </trkpt>
      <trkpt lat="43.78658" lon="7.00193">
        <ele>910.4</ele>
        <time>2026-05-15T07:24:38Z</time>
      </trkpt>
      <trkpt lat="43.78662" lon="7.00173">
        <ele>909.6</ele>
        <time>2026-05-15T07:24:39Z</time>
      </trkpt>
      <trkpt lat="43.78666" lon="7.00153">
        <ele>909.4</ele>
        <time>2026-05-15T07:24:40Z</time>
      </trkpt>
      <trkpt lat="43.78669" lon="7.00132">
        <ele>909.3</ele>
        <time>2026-05-15T07:24:41Z</time>
      </trkpt>
      <trkpt lat="43.78671" lon="7.00111">
        <ele>908.4</ele>
        <time>2026-05-15T07:24:42Z</time>
      </trkpt>
      <trkpt lat="43.78674" lon="7.00092">
        <ele>908.7</ele>
        <time>2026-05-15T07:24:43Z</time>
      </trkpt>
      <trkpt lat="43.78678" lon="7.00071">
        <ele>908.6</ele>
        <time>2026-05-15T07:24:44Z</time>
      </trkpt>
      <trkpt lat="43.78684" lon="7.00051">
        <ele>908.6</ele>
        <time>2026-05-15T07:24:45Z</time>
      </trkpt>
      <trkpt lat="43.7869" lon="7.0003">
        <ele>908.1</ele>
        <time>2026-05-15T07:24:46Z</time>
      </trkpt>
      <trkpt lat="43.78696" lon="7.0001">
        <ele>907</ele>
        <time>2026-05-15T07:24:47Z</time>
      </trkpt>
      <trkpt lat="43.78701" lon="6.9999">
        <ele>905.6</ele>
        <time>2026-05-15T07:24:48Z</time>
      </trkpt>
      <trkpt lat="43.78708" lon="6.99971">
        <ele>904.6</ele>
        <time>2026-05-15T07:24:49Z</time>
      </trkpt>
      <trkpt lat="43.78715" lon="6.99952">
        <ele>902.7</ele>
        <time>2026-05-15T07:24:50Z</time>
      </trkpt>
      <trkpt lat="43.78723" lon="6.99934">
        <ele>901</ele>
        <time>2026-05-15T07:24:51Z</time>
      </trkpt>
      <trkpt lat="43.7873" lon="6.99916">
        <ele>899.7</ele>
        <time>2026-05-15T07:24:52Z</time>
      </trkpt>
      <trkpt lat="43.78738" lon="6.99897">
        <ele>899</ele>
        <time>2026-05-15T07:24:53Z</time>
      </trkpt>
      <trkpt lat="43.78745" lon="6.99878">
        <ele>897.6</ele>
        <time>2026-05-15T07:24:54Z</time>
      </trkpt>
      <trkpt lat="43.78753" lon="6.9986">
        <ele>896.7</ele>
        <time>2026-05-15T07:24:55Z</time>
      </trkpt>
      <trkpt lat="43.78761" lon="6.99842">
        <ele>895.7</ele>
        <time>2026-05-15T07:24:56Z</time>
      </trkpt>
      <trkpt lat="43.7877" lon="6.99824">
        <ele>895.1</ele>
        <time>2026-05-15T07:24:57Z</time>
      </trkpt>
      <trkpt lat="43.78779" lon="6.99806">
        <ele>894.5</ele>
        <time>2026-05-15T07:24:58Z</time>
      </trkpt>
      <trkpt lat="43.78788" lon="6.99789">
        <ele>893.1</ele>
        <time>2026-05-15T07:24:59Z</time>
      </trkpt>
      <trkpt lat="43.78797" lon="6.99771">
        <ele>891.7</ele>
        <time>2026-05-15T07:25:00Z</time>
      </trkpt>
      <trkpt lat="43.78806" lon="6.99754">
        <ele>890.2</ele>
        <time>2026-05-15T07:25:01Z</time>
      </trkpt>
      <trkpt lat="43.78814" lon="6.99737">
        <ele>890</ele>
        <time>2026-05-15T07:25:02Z</time>
      </trkpt>
      <trkpt lat="43.78823" lon="6.99718">
        <ele>889.4</ele>
        <time>2026-05-15T07:25:03Z</time>
      </trkpt>
      <trkpt lat="43.78831" lon="6.997">
        <ele>888.4</ele>
        <time>2026-05-15T07:25:04Z</time>
      </trkpt>
      <trkpt lat="43.7884" lon="6.99683">
        <ele>888.1</ele>
        <time>2026-05-15T07:25:05Z</time>
      </trkpt>
      <trkpt lat="43.78849" lon="6.99665">
        <ele>887.2</ele>
        <time>2026-05-15T07:25:06Z</time>
      </trkpt>
      <trkpt lat="43.78858" lon="6.99648">
        <ele>886.3</ele>
        <time>2026-05-15T07:25:07Z</time>
      </trkpt>
      <trkpt lat="43.78866" lon="6.9963">
        <ele>885</ele>
        <time>2026-05-15T07:25:08Z</time>
      </trkpt>
      <trkpt lat="43.78875" lon="6.99613">
        <ele>884.4</ele>
        <time>2026-05-15T07:25:09Z</time>
      </trkpt>
      <trkpt lat="43.78884" lon="6.99595">
        <ele>883.3</ele>
        <time>2026-05-15T07:25:10Z</time>
      </trkpt>
      <trkpt lat="43.78892" lon="6.99577">
        <ele>882</ele>
        <time>2026-05-15T07:25:11Z</time>
      </trkpt>
      <trkpt lat="43.78901" lon="6.9956">
        <ele>881.8</ele>
        <time>2026-05-15T07:25:12Z</time>
      </trkpt>
      <trkpt lat="43.7891" lon="6.99542">
        <ele>881.5</ele>
        <time>2026-05-15T07:25:13Z</time>
      </trkpt>
      <trkpt lat="43.78919" lon="6.99524">
        <ele>881.2</ele>
        <time>2026-05-15T07:25:14Z</time>
      </trkpt>
      <trkpt lat="43.78928" lon="6.99506">
        <ele>881.2</ele>
        <time>2026-05-15T07:25:15Z</time>
      </trkpt>
      <trkpt lat="43.78936" lon="6.99488">
        <ele>880.6</ele>
        <time>2026-05-15T07:25:16Z</time>
      </trkpt>
      <trkpt lat="43.78946" lon="6.99471">
        <ele>880.4</ele>
        <time>2026-05-15T07:25:17Z</time>
      </trkpt>
      <trkpt lat="43.78953" lon="6.99451">
        <ele>878.9</ele>
        <time>2026-05-15T07:25:18Z</time>
      </trkpt>
      <trkpt lat="43.7896" lon="6.99433">
        <ele>877.5</ele>
        <time>2026-05-15T07:25:19Z</time>
      </trkpt>
      <trkpt lat="43.78969" lon="6.99415">
        <ele>876.4</ele>
        <time>2026-05-15T07:25:20Z</time>
      </trkpt>
      <trkpt lat="43.78979" lon="6.99399">
        <ele>875.9</ele>
        <time>2026-05-15T07:25:21Z</time>
      </trkpt>
      <trkpt lat="43.78989" lon="6.99383">
        <ele>874.8</ele>
        <time>2026-05-15T07:25:22Z</time>
      </trkpt>
      <trkpt lat="43.79" lon="6.99368">
        <ele>874</ele>
        <time>2026-05-15T07:25:23Z</time>
      </trkpt>
      <trkpt lat="43.79009" lon="6.99352">
        <ele>872.7</ele>
        <time>2026-05-15T07:25:24Z</time>
      </trkpt>
      <trkpt lat="43.79017" lon="6.99336">
        <ele>871</ele>
        <time>2026-05-15T07:25:25Z</time>
      </trkpt>
      <trkpt lat="43.79028" lon="6.99321">
        <ele>870.4</ele>
        <time>2026-05-15T07:25:26Z</time>
      </trkpt>
      <trkpt lat="43.79038" lon="6.99306">
        <ele>869.3</ele>
        <time>2026-05-15T07:25:27Z</time>
      </trkpt>
      <trkpt lat="43.7905" lon="6.99293">
        <ele>868.5</ele>
        <time>2026-05-15T07:25:28Z</time>
      </trkpt>
      <trkpt lat="43.79062" lon="6.99279">
        <ele>867.7</ele>
        <time>2026-05-15T07:25:29Z</time>
      </trkpt>
      <trkpt lat="43.79075" lon="6.99266">
        <ele>867.5</ele>
        <time>2026-05-15T07:25:30Z</time>
      </trkpt>
      <trkpt lat="43.79087" lon="6.99253">
        <ele>867.6</ele>
        <time>2026-05-15T07:25:31Z</time>
      </trkpt>
      <trkpt lat="43.791" lon="6.99239">
        <ele>867.6</ele>
        <time>2026-05-15T07:25:32Z</time>
      </trkpt>
      <trkpt lat="43.79111" lon="6.99224">
        <ele>866.4</ele>
        <time>2026-05-15T07:25:33Z</time>
      </trkpt>
      <trkpt lat="43.79123" lon="6.9921">
        <ele>865.7</ele>
        <time>2026-05-15T07:25:34Z</time>
      </trkpt>
      <trkpt lat="43.79134" lon="6.99196">
        <ele>864.5</ele>
        <time>2026-05-15T07:25:35Z</time>
      </trkpt>
      <trkpt lat="43.79145" lon="6.99181">
        <ele>864</ele>
        <time>2026-05-15T07:25:36Z</time>
      </trkpt>
      <trkpt lat="43.79154" lon="6.99166">
        <ele>863.1</ele>
        <time>2026-05-15T07:25:37Z</time>
      </trkpt>
      <trkpt lat="43.79162" lon="6.99151">
        <ele>862.2</ele>
        <time>2026-05-15T07:25:38Z</time>
      </trkpt>
      <trkpt lat="43.79168" lon="6.99135">
        <ele>860.7</ele>
        <time>2026-05-15T07:25:39Z</time>
      </trkpt>
      <trkpt lat="43.79174" lon="6.9912">
        <ele>859.8</ele>
        <time>2026-05-15T07:25:40Z</time>
      </trkpt>
      <trkpt lat="43.79179" lon="6.99104">
        <ele>858.2</ele>
        <time>2026-05-15T07:25:41Z</time>
      </trkpt>
      <trkpt lat="43.79184" lon="6.99089">
        <ele>857.2</ele>
        <time>2026-05-15T07:25:42Z</time>
      </trkpt>
      <trkpt lat="43.79188" lon="6.99075">
        <ele>856.7</ele>
        <time>2026-05-15T07:25:43Z</time>
      </trkpt>
      <trkpt lat="43.79193" lon="6.99062">
        <ele>857.1</ele>
        <time>2026-05-15T07:25:44Z</time>
      </trkpt>
      <trkpt lat="43.79197" lon="6.99049">
        <ele>857.3</ele>
        <time>2026-05-15T07:25:45Z</time>
      </trkpt>
      <trkpt lat="43.79201" lon="6.99037">
        <ele>857.4</ele>
        <time>2026-05-15T07:25:46Z</time>
      </trkpt>
      <trkpt lat="43.79205" lon="6.99025">
        <ele>857.5</ele>
        <time>2026-05-15T07:25:47Z</time>
      </trkpt>
      <trkpt lat="43.79209" lon="6.99014">
        <ele>857.8</ele>
        <time>2026-05-15T07:25:48Z</time>
      </trkpt>
      <trkpt lat="43.79213" lon="6.99003">
        <ele>858.1</ele>
        <time>2026-05-15T07:25:49Z</time>
      </trkpt>
      <trkpt lat="43.79216" lon="6.98993">
        <ele>858.2</ele>
        <time>2026-05-15T07:25:50Z</time>
      </trkpt>
      <trkpt lat="43.79218" lon="6.98984">
        <ele>857.9</ele>
        <time>2026-05-15T07:25:51Z</time>
      </trkpt>
      <trkpt lat="43.79217" lon="6.98976">
        <ele>856.4</ele>
        <time>2026-05-15T07:25:52Z</time>
      </trkpt>
      <trkpt lat="43.79212" lon="6.9897">
        <ele>853.8</ele>
        <time>2026-05-15T07:25:53Z</time>
      </trkpt>
      <trkpt lat="43.79207" lon="6.98968">
        <ele>851.7</ele>
        <time>2026-05-15T07:25:54Z</time>
      </trkpt>
      <trkpt lat="43.79201" lon="6.98971">
        <ele>849.5</ele>
        <time>2026-05-15T07:25:55Z</time>
      </trkpt>
      <trkpt lat="43.79197" lon="6.98977">
        <ele>848.4</ele>
        <time>2026-05-15T07:25:56Z</time>
      </trkpt>
      <trkpt lat="43.79195" lon="6.98989">
        <ele>848.5</ele>
        <time>2026-05-15T07:25:57Z</time>
      </trkpt>
      <trkpt lat="43.79193" lon="6.99">
        <ele>848.5</ele>
        <time>2026-05-15T07:25:58Z</time>
      </trkpt>
      <trkpt lat="43.79189" lon="6.99012">
        <ele>848.7</ele>
        <time>2026-05-15T07:25:59Z</time>
      </trkpt>
      <trkpt lat="43.79185" lon="6.99024">
        <ele>848.8</ele>
        <time>2026-05-15T07:26:00Z</time>
      </trkpt>
      <trkpt lat="43.7918" lon="6.99036">
        <ele>848.5</ele>
        <time>2026-05-15T07:26:01Z</time>
      </trkpt>
      <trkpt lat="43.79175" lon="6.99048">
        <ele>848.2</ele>
        <time>2026-05-15T07:26:02Z</time>
      </trkpt>
      <trkpt lat="43.79169" lon="6.99061">
        <ele>847.7</ele>
        <time>2026-05-15T07:26:03Z</time>
      </trkpt>
      <trkpt lat="43.79162" lon="6.99073">
        <ele>847.3</ele>
        <time>2026-05-15T07:26:04Z</time>
      </trkpt>
      <trkpt lat="43.79154" lon="6.99084">
        <ele>847</ele>
        <time>2026-05-15T07:26:05Z</time>
      </trkpt>
      <trkpt lat="43.79145" lon="6.99093">
        <ele>846.6</ele>
        <time>2026-05-15T07:26:06Z</time>
      </trkpt>
      <trkpt lat="43.79136" lon="6.991">
        <ele>846.1</ele>
        <time>2026-05-15T07:26:07Z</time>
      </trkpt>
      <trkpt lat="43.79125" lon="6.99103">
        <ele>844.7</ele>
        <time>2026-05-15T07:26:08Z</time>
      </trkpt>
      <trkpt lat="43.79114" lon="6.99105">
        <ele>843.2</ele>
        <time>2026-05-15T07:26:09Z</time>
      </trkpt>
      <trkpt lat="43.79102" lon="6.9911">
        <ele>842.1</ele>
        <time>2026-05-15T07:26:10Z</time>
      </trkpt>
      <trkpt lat="43.7909" lon="6.99116">
        <ele>841.1</ele>
        <time>2026-05-15T07:26:11Z</time>
      </trkpt>
      <trkpt lat="43.79081" lon="6.99124">
        <ele>840.7</ele>
        <time>2026-05-15T07:26:12Z</time>
      </trkpt>
      <trkpt lat="43.79072" lon="6.99135">
        <ele>840.4</ele>
        <time>2026-05-15T07:26:13Z</time>
      </trkpt>
      <trkpt lat="43.79065" lon="6.9915">
        <ele>841.1</ele>
        <time>2026-05-15T07:26:14Z</time>
      </trkpt>
      <trkpt lat="43.79057" lon="6.99164">
        <ele>841</ele>
        <time>2026-05-15T07:26:15Z</time>
      </trkpt>
      <trkpt lat="43.79048" lon="6.99176">
        <ele>840.8</ele>
        <time>2026-05-15T07:26:16Z</time>
      </trkpt>
      <trkpt lat="43.79037" lon="6.99184">
        <ele>839.4</ele>
        <time>2026-05-15T07:26:17Z</time>
      </trkpt>
      <trkpt lat="43.79027" lon="6.99194">
        <ele>838.7</ele>
        <time>2026-05-15T07:26:18Z</time>
      </trkpt>
      <trkpt lat="43.79015" lon="6.99202">
        <ele>837.3</ele>
        <time>2026-05-15T07:26:19Z</time>
      </trkpt>
      <trkpt lat="43.79006" lon="6.99211">
        <ele>836.6</ele>
        <time>2026-05-15T07:26:20Z</time>
      </trkpt>
      <trkpt lat="43.78997" lon="6.9922">
        <ele>835.8</ele>
        <time>2026-05-15T07:26:21Z</time>
      </trkpt>
      <trkpt lat="43.78988" lon="6.99229">
        <ele>835.5</ele>
        <time>2026-05-15T07:26:22Z</time>
      </trkpt>
      <trkpt lat="43.78979" lon="6.99238">
        <ele>834.8</ele>
        <time>2026-05-15T07:26:23Z</time>
      </trkpt>
      <trkpt lat="43.78971" lon="6.99247">
        <ele>834.2</ele>
        <time>2026-05-15T07:26:24Z</time>
      </trkpt>
      <trkpt lat="43.78965" lon="6.99256">
        <ele>834.9</ele>
        <time>2026-05-15T07:26:25Z</time>
      </trkpt>
      <trkpt lat="43.78959" lon="6.99265">
        <ele>835.7</ele>
        <time>2026-05-15T07:26:26Z</time>
      </trkpt>
      <trkpt lat="43.78955" lon="6.99273">
        <ele>836.6</ele>
        <time>2026-05-15T07:26:27Z</time>
      </trkpt>
      <trkpt lat="43.7895" lon="6.99278">
        <ele>836.5</ele>
        <time>2026-05-15T07:26:28Z</time>
      </trkpt>
      <trkpt lat="43.78945" lon="6.9928">
        <ele>835.7</ele>
        <time>2026-05-15T07:26:29Z</time>
      </trkpt>
      <trkpt lat="43.78942" lon="6.99276">
        <ele>834.3</ele>
        <time>2026-05-15T07:26:30Z</time>
      </trkpt>
      <trkpt lat="43.78943" lon="6.99265">
        <ele>832.1</ele>
        <time>2026-05-15T07:26:31Z</time>
      </trkpt>
      <trkpt lat="43.78943" lon="6.99258">
        <ele>830.6</ele>
        <time>2026-05-15T07:26:32Z</time>
      </trkpt>
      <trkpt lat="43.78947" lon="6.99253">
        <ele>830.2</ele>
        <time>2026-05-15T07:26:33Z</time>
      </trkpt>
      <trkpt lat="43.78956" lon="6.99245">
        <ele>830.7</ele>
        <time>2026-05-15T07:26:34Z</time>
      </trkpt>
      <trkpt lat="43.7896" lon="6.99236">
        <ele>830.1</ele>
        <time>2026-05-15T07:26:35Z</time>
      </trkpt>
      <trkpt lat="43.78966" lon="6.99223">
        <ele>829</ele>
        <time>2026-05-15T07:26:36Z</time>
      </trkpt>
      <trkpt lat="43.78973" lon="6.99208">
        <ele>827.6</ele>
        <time>2026-05-15T07:26:37Z</time>
      </trkpt>
      <trkpt lat="43.78981" lon="6.99192">
        <ele>826.9</ele>
        <time>2026-05-15T07:26:38Z</time>
      </trkpt>
      <trkpt lat="43.78988" lon="6.99175">
        <ele>826.1</ele>
        <time>2026-05-15T07:26:39Z</time>
      </trkpt>
      <trkpt lat="43.78997" lon="6.99158">
        <ele>825.6</ele>
        <time>2026-05-15T07:26:40Z</time>
      </trkpt>
      <trkpt lat="43.79005" lon="6.99141">
        <ele>825.3</ele>
        <time>2026-05-15T07:26:41Z</time>
      </trkpt>
      <trkpt lat="43.79012" lon="6.99123">
        <ele>824.6</ele>
        <time>2026-05-15T07:26:42Z</time>
      </trkpt>
      <trkpt lat="43.79019" lon="6.99105">
        <ele>823.8</ele>
        <time>2026-05-15T07:26:43Z</time>
      </trkpt>
      <trkpt lat="43.79024" lon="6.99084">
        <ele>822.4</ele>
        <time>2026-05-15T07:26:44Z</time>
      </trkpt>
      <trkpt lat="43.79028" lon="6.99064">
        <ele>820.9</ele>
        <time>2026-05-15T07:26:45Z</time>
      </trkpt>
      <trkpt lat="43.79032" lon="6.99043">
        <ele>819.2</ele>
        <time>2026-05-15T07:26:46Z</time>
      </trkpt>
      <trkpt lat="43.7904" lon="6.99023">
        <ele>817.8</ele>
        <time>2026-05-15T07:26:47Z</time>
      </trkpt>
      <trkpt lat="43.79048" lon="6.99003">
        <ele>816.9</ele>
        <time>2026-05-15T07:26:48Z</time>
      </trkpt>
      <trkpt lat="43.79055" lon="6.98984">
        <ele>815.6</ele>
        <time>2026-05-15T07:26:49Z</time>
      </trkpt>
      <trkpt lat="43.79061" lon="6.98964">
        <ele>813.6</ele>
        <time>2026-05-15T07:26:50Z</time>
      </trkpt>
      <trkpt lat="43.79069" lon="6.98946">
        <ele>812.2</ele>
        <time>2026-05-15T07:26:51Z</time>
      </trkpt>
      <trkpt lat="43.79081" lon="6.98932">
        <ele>811.9</ele>
        <time>2026-05-15T07:26:52Z</time>
      </trkpt>
      <trkpt lat="43.79091" lon="6.98915">
        <ele>811.1</ele>
        <time>2026-05-15T07:26:53Z</time>
      </trkpt>
      <trkpt lat="43.791" lon="6.98897">
        <ele>810.2</ele>
        <time>2026-05-15T07:26:54Z</time>
      </trkpt>
      <trkpt lat="43.79106" lon="6.98877">
        <ele>808.7</ele>
        <time>2026-05-15T07:26:55Z</time>
      </trkpt>
      <trkpt lat="43.7911" lon="6.98854">
        <ele>807</ele>
        <time>2026-05-15T07:26:56Z</time>
      </trkpt>
      <trkpt lat="43.79113" lon="6.98832">
        <ele>805.5</ele>
        <time>2026-05-15T07:26:57Z</time>
      </trkpt>
      <trkpt lat="43.79117" lon="6.98807">
        <ele>804.3</ele>
        <time>2026-05-15T07:26:58Z</time>
      </trkpt>
      <trkpt lat="43.7912" lon="6.98784">
        <ele>802.6</ele>
        <time>2026-05-15T07:26:59Z</time>
      </trkpt>
      <trkpt lat="43.79123" lon="6.98762">
        <ele>801.1</ele>
        <time>2026-05-15T07:27:00Z</time>
      </trkpt>
      <trkpt lat="43.79127" lon="6.98738">
        <ele>800</ele>
        <time>2026-05-15T07:27:01Z</time>
      </trkpt>
      <trkpt lat="43.7913" lon="6.98715">
        <ele>799</ele>
        <time>2026-05-15T07:27:02Z</time>
      </trkpt>
      <trkpt lat="43.79132" lon="6.98691">
        <ele>798.5</ele>
        <time>2026-05-15T07:27:03Z</time>
      </trkpt>
      <trkpt lat="43.79132" lon="6.98668">
        <ele>798.3</ele>
        <time>2026-05-15T07:27:04Z</time>
      </trkpt>
      <trkpt lat="43.79131" lon="6.98645">
        <ele>797.9</ele>
        <time>2026-05-15T07:27:05Z</time>
      </trkpt>
      <trkpt lat="43.79127" lon="6.98622">
        <ele>795.9</ele>
        <time>2026-05-15T07:27:06Z</time>
      </trkpt>
      <trkpt lat="43.79122" lon="6.986">
        <ele>793.8</ele>
        <time>2026-05-15T07:27:07Z</time>
      </trkpt>
      <trkpt lat="43.79118" lon="6.98578">
        <ele>792.4</ele>
        <time>2026-05-15T07:27:08Z</time>
      </trkpt>
      <trkpt lat="43.79113" lon="6.98557">
        <ele>791.6</ele>
        <time>2026-05-15T07:27:09Z</time>
      </trkpt>
      <trkpt lat="43.79109" lon="6.98537">
        <ele>790.9</ele>
        <time>2026-05-15T07:27:10Z</time>
      </trkpt>
      <trkpt lat="43.79106" lon="6.98517">
        <ele>789.8</ele>
        <time>2026-05-15T07:27:11Z</time>
      </trkpt>
      <trkpt lat="43.79106" lon="6.98497">
        <ele>789.3</ele>
        <time>2026-05-15T07:27:12Z</time>
      </trkpt>
      <trkpt lat="43.79109" lon="6.98478">
        <ele>788.6</ele>
        <time>2026-05-15T07:27:13Z</time>
      </trkpt>
      <trkpt lat="43.79113" lon="6.98458">
        <ele>788.7</ele>
        <time>2026-05-15T07:27:14Z</time>
      </trkpt>
      <trkpt lat="43.79118" lon="6.98437">
        <ele>789.6</ele>
        <time>2026-05-15T07:27:15Z</time>
      </trkpt>
      <trkpt lat="43.79123" lon="6.98416">
        <ele>790</ele>
        <time>2026-05-15T07:27:16Z</time>
      </trkpt>
      <trkpt lat="43.79128" lon="6.98395">
        <ele>788.2</ele>
        <time>2026-05-15T07:27:17Z</time>
      </trkpt>
      <trkpt lat="43.79134" lon="6.98376">
        <ele>786.2</ele>
        <time>2026-05-15T07:27:18Z</time>
      </trkpt>
      <trkpt lat="43.79139" lon="6.98359">
        <ele>783.3</ele>
        <time>2026-05-15T07:27:19Z</time>
      </trkpt>
      <trkpt lat="43.79145" lon="6.98343">
        <ele>779.8</ele>
        <time>2026-05-15T07:27:20Z</time>
      </trkpt>
      <trkpt lat="43.79156" lon="6.98333">
        <ele>780</ele>
        <time>2026-05-15T07:27:21Z</time>
      </trkpt>
      <trkpt lat="43.79167" lon="6.98326">
        <ele>780.9</ele>
        <time>2026-05-15T07:27:22Z</time>
      </trkpt>
      <trkpt lat="43.79178" lon="6.9832">
        <ele>782.1</ele>
        <time>2026-05-15T07:27:23Z</time>
      </trkpt>
      <trkpt lat="43.79188" lon="6.9831">
        <ele>781.5</ele>
        <time>2026-05-15T07:27:24Z</time>
      </trkpt>
      <trkpt lat="43.79196" lon="6.98298">
        <ele>779.4</ele>
        <time>2026-05-15T07:27:25Z</time>
      </trkpt>
      <trkpt lat="43.79203" lon="6.98286">
        <ele>776.6</ele>
        <time>2026-05-15T07:27:26Z</time>
      </trkpt>
      <trkpt lat="43.7921" lon="6.98276">
        <ele>774.8</ele>
        <time>2026-05-15T07:27:27Z</time>
      </trkpt>
      <trkpt lat="43.7922" lon="6.98269">
        <ele>774.9</ele>
        <time>2026-05-15T07:27:28Z</time>
      </trkpt>
      <trkpt lat="43.7923" lon="6.98267">
        <ele>776.1</ele>
        <time>2026-05-15T07:27:29Z</time>
      </trkpt>
      <trkpt lat="43.79242" lon="6.98264">
        <ele>776.8</ele>
        <time>2026-05-15T07:27:30Z</time>
      </trkpt>
      <trkpt lat="43.79254" lon="6.98258">
        <ele>776.6</ele>
        <time>2026-05-15T07:27:31Z</time>
      </trkpt>
      <trkpt lat="43.79265" lon="6.98249">
        <ele>776.5</ele>
        <time>2026-05-15T07:27:32Z</time>
      </trkpt>
      <trkpt lat="43.79274" lon="6.98236">
        <ele>774</ele>
        <time>2026-05-15T07:27:33Z</time>
      </trkpt>
      <trkpt lat="43.79283" lon="6.98224">
        <ele>771.7</ele>
        <time>2026-05-15T07:27:34Z</time>
      </trkpt>
      <trkpt lat="43.79291" lon="6.98213">
        <ele>769.3</ele>
        <time>2026-05-15T07:27:35Z</time>
      </trkpt>
      <trkpt lat="43.793" lon="6.98204">
        <ele>768.3</ele>
        <time>2026-05-15T07:27:36Z</time>
      </trkpt>
      <trkpt lat="43.79309" lon="6.98199">
        <ele>767.3</ele>
        <time>2026-05-15T07:27:37Z</time>
      </trkpt>
      <trkpt lat="43.79318" lon="6.98199">
        <ele>765.1</ele>
        <time>2026-05-15T07:27:38Z</time>
      </trkpt>
      <trkpt lat="43.79327" lon="6.98203">
        <ele>765.1</ele>
        <time>2026-05-15T07:27:39Z</time>
      </trkpt>
      <trkpt lat="43.79334" lon="6.98211">
        <ele>767.4</ele>
        <time>2026-05-15T07:27:40Z</time>
      </trkpt>
      <trkpt lat="43.7934" lon="6.98222">
        <ele>768.6</ele>
        <time>2026-05-15T07:27:41Z</time>
      </trkpt>
      <trkpt lat="43.79345" lon="6.98234">
        <ele>771.4</ele>
        <time>2026-05-15T07:27:42Z</time>
      </trkpt>
      <trkpt lat="43.79351" lon="6.98246">
        <ele>773.2</ele>
        <time>2026-05-15T07:27:43Z</time>
      </trkpt>
      <trkpt lat="43.79358" lon="6.98259">
        <ele>773.1</ele>
        <time>2026-05-15T07:27:44Z</time>
      </trkpt>
      <trkpt lat="43.79365" lon="6.98271">
        <ele>773.4</ele>
        <time>2026-05-15T07:27:45Z</time>
      </trkpt>
      <trkpt lat="43.79372" lon="6.98279">
        <ele>772.9</ele>
        <time>2026-05-15T07:27:46Z</time>
      </trkpt>
      <trkpt lat="43.79381" lon="6.98285">
        <ele>770.2</ele>
        <time>2026-05-15T07:27:47Z</time>
      </trkpt>
      <trkpt lat="43.79389" lon="6.98291">
        <ele>767.8</ele>
        <time>2026-05-15T07:27:48Z</time>
      </trkpt>
      <trkpt lat="43.79397" lon="6.983">
        <ele>766.4</ele>
        <time>2026-05-15T07:27:49Z</time>
      </trkpt>
      <trkpt lat="43.79404" lon="6.98313">
        <ele>765.7</ele>
        <time>2026-05-15T07:27:50Z</time>
      </trkpt>
      <trkpt lat="43.79407" lon="6.98328">
        <ele>766.7</ele>
        <time>2026-05-15T07:27:51Z</time>
      </trkpt>
      <trkpt lat="43.7941" lon="6.98343">
        <ele>767</ele>
        <time>2026-05-15T07:27:52Z</time>
      </trkpt>
      <trkpt lat="43.7941" lon="6.98359">
        <ele>768.8</ele>
        <time>2026-05-15T07:27:53Z</time>
      </trkpt>
      <trkpt lat="43.79411" lon="6.98374">
        <ele>770.4</ele>
        <time>2026-05-15T07:27:54Z</time>
      </trkpt>
      <trkpt lat="43.79413" lon="6.98388">
        <ele>771.2</ele>
        <time>2026-05-15T07:27:55Z</time>
      </trkpt>
      <trkpt lat="43.79419" lon="6.98401">
        <ele>771.4</ele>
        <time>2026-05-15T07:27:56Z</time>
      </trkpt>
      <trkpt lat="43.79427" lon="6.98414">
        <ele>770.8</ele>
        <time>2026-05-15T07:27:57Z</time>
      </trkpt>
      <trkpt lat="43.79436" lon="6.98427">
        <ele>770</ele>
        <time>2026-05-15T07:27:58Z</time>
      </trkpt>
      <trkpt lat="43.79448" lon="6.98436">
        <ele>766</ele>
        <time>2026-05-15T07:27:59Z</time>
      </trkpt>
      <trkpt lat="43.79458" lon="6.98446">
        <ele>762.8</ele>
        <time>2026-05-15T07:28:00Z</time>
      </trkpt>
      <trkpt lat="43.79468" lon="6.98458">
        <ele>760.3</ele>
        <time>2026-05-15T07:28:01Z</time>
      </trkpt>
      <trkpt lat="43.79477" lon="6.98471">
        <ele>758.9</ele>
        <time>2026-05-15T07:28:02Z</time>
      </trkpt>
      <trkpt lat="43.79485" lon="6.98485">
        <ele>758.6</ele>
        <time>2026-05-15T07:28:03Z</time>
      </trkpt>
      <trkpt lat="43.79492" lon="6.98498">
        <ele>758.3</ele>
        <time>2026-05-15T07:28:04Z</time>
      </trkpt>
      <trkpt lat="43.79499" lon="6.98512">
        <ele>758.1</ele>
        <time>2026-05-15T07:28:05Z</time>
      </trkpt>
      <trkpt lat="43.79506" lon="6.98524">
        <ele>758.2</ele>
        <time>2026-05-15T07:28:06Z</time>
      </trkpt>
      <trkpt lat="43.79512" lon="6.98535">
        <ele>758.8</ele>
        <time>2026-05-15T07:28:07Z</time>
      </trkpt>
      <trkpt lat="43.79516" lon="6.98543">
        <ele>759.4</ele>
        <time>2026-05-15T07:28:08Z</time>
      </trkpt>
      <trkpt lat="43.79523" lon="6.98549">
        <ele>757.6</ele>
        <time>2026-05-15T07:28:09Z</time>
      </trkpt>
      <trkpt lat="43.7953" lon="6.9855">
        <ele>755.4</ele>
        <time>2026-05-15T07:28:10Z</time>
      </trkpt>
      <trkpt lat="43.79538" lon="6.98548">
        <ele>755.3</ele>
        <time>2026-05-15T07:28:11Z</time>
      </trkpt>
      <trkpt lat="43.79546" lon="6.98545">
        <ele>755.3</ele>
        <time>2026-05-15T07:28:12Z</time>
      </trkpt>
      <trkpt lat="43.79553" lon="6.98541">
        <ele>755.7</ele>
        <time>2026-05-15T07:28:13Z</time>
      </trkpt>
      <trkpt lat="43.79559" lon="6.98535">
        <ele>758.2</ele>
        <time>2026-05-15T07:28:14Z</time>
      </trkpt>
      <trkpt lat="43.79563" lon="6.98526">
        <ele>760.6</ele>
        <time>2026-05-15T07:28:15Z</time>
      </trkpt>
      <trkpt lat="43.79564" lon="6.98513">
        <ele>761.4</ele>
        <time>2026-05-15T07:28:16Z</time>
      </trkpt>
      <trkpt lat="43.79561" lon="6.98498">
        <ele>760.3</ele>
        <time>2026-05-15T07:28:17Z</time>
      </trkpt>
      <trkpt lat="43.79555" lon="6.98485">
        <ele>759.4</ele>
        <time>2026-05-15T07:28:18Z</time>
      </trkpt>
      <trkpt lat="43.79547" lon="6.98474">
        <ele>756.8</ele>
        <time>2026-05-15T07:28:19Z</time>
      </trkpt>
      <trkpt lat="43.79539" lon="6.98462">
        <ele>754.6</ele>
        <time>2026-05-15T07:28:20Z</time>
      </trkpt>
      <trkpt lat="43.79533" lon="6.98449">
        <ele>753.5</ele>
        <time>2026-05-15T07:28:21Z</time>
      </trkpt>
      <trkpt lat="43.79529" lon="6.98434">
        <ele>754.1</ele>
        <time>2026-05-15T07:28:22Z</time>
      </trkpt>
      <trkpt lat="43.79525" lon="6.98418">
        <ele>755.2</ele>
        <time>2026-05-15T07:28:23Z</time>
      </trkpt>
      <trkpt lat="43.79522" lon="6.98401">
        <ele>756.3</ele>
        <time>2026-05-15T07:28:24Z</time>
      </trkpt>
      <trkpt lat="43.79518" lon="6.98384">
        <ele>755.6</ele>
        <time>2026-05-15T07:28:25Z</time>
      </trkpt>
      <trkpt lat="43.79516" lon="6.98367">
        <ele>754</ele>
        <time>2026-05-15T07:28:26Z</time>
      </trkpt>
      <trkpt lat="43.79514" lon="6.9835">
        <ele>752.4</ele>
        <time>2026-05-15T07:28:27Z</time>
      </trkpt>
      <trkpt lat="43.79515" lon="6.98333">
        <ele>752.7</ele>
        <time>2026-05-15T07:28:28Z</time>
      </trkpt>
      <trkpt lat="43.79516" lon="6.98315">
        <ele>751.7</ele>
        <time>2026-05-15T07:28:29Z</time>
      </trkpt>
      <trkpt lat="43.79517" lon="6.98294">
        <ele>750.5</ele>
        <time>2026-05-15T07:28:30Z</time>
      </trkpt>
      <trkpt lat="43.79518" lon="6.98273">
        <ele>749.6</ele>
        <time>2026-05-15T07:28:31Z</time>
      </trkpt>
      <trkpt lat="43.79518" lon="6.98253">
        <ele>749.1</ele>
        <time>2026-05-15T07:28:32Z</time>
      </trkpt>
      <trkpt lat="43.79517" lon="6.98233">
        <ele>748.8</ele>
        <time>2026-05-15T07:28:33Z</time>
      </trkpt>
      <trkpt lat="43.79516" lon="6.98214">
        <ele>749.7</ele>
        <time>2026-05-15T07:28:34Z</time>
      </trkpt>
      <trkpt lat="43.79512" lon="6.98196">
        <ele>750.4</ele>
        <time>2026-05-15T07:28:35Z</time>
      </trkpt>
      <trkpt lat="43.79501" lon="6.98182">
        <ele>748.2</ele>
        <time>2026-05-15T07:28:36Z</time>
      </trkpt>
      <trkpt lat="43.79492" lon="6.98167">
        <ele>746.9</ele>
        <time>2026-05-15T07:28:37Z</time>
      </trkpt>
      <trkpt lat="43.79483" lon="6.98152">
        <ele>745.5</ele>
        <time>2026-05-15T07:28:38Z</time>
      </trkpt>
      <trkpt lat="43.79476" lon="6.98137">
        <ele>744.4</ele>
        <time>2026-05-15T07:28:39Z</time>
      </trkpt>
      <trkpt lat="43.7947" lon="6.98121">
        <ele>742.5</ele>
        <time>2026-05-15T07:28:40Z</time>
      </trkpt>
      <trkpt lat="43.79467" lon="6.98103">
        <ele>742</ele>
        <time>2026-05-15T07:28:41Z</time>
      </trkpt>
      <trkpt lat="43.79466" lon="6.98083">
        <ele>742.2</ele>
        <time>2026-05-15T07:28:42Z</time>
      </trkpt>
      <trkpt lat="43.79467" lon="6.98064">
        <ele>741.8</ele>
        <time>2026-05-15T07:28:43Z</time>
      </trkpt>
      <trkpt lat="43.79468" lon="6.98045">
        <ele>740.8</ele>
        <time>2026-05-15T07:28:44Z</time>
      </trkpt>
      <trkpt lat="43.79472" lon="6.98026">
        <ele>740.6</ele>
        <time>2026-05-15T07:28:45Z</time>
      </trkpt>
      <trkpt lat="43.79478" lon="6.98009">
        <ele>739.8</ele>
        <time>2026-05-15T07:28:46Z</time>
      </trkpt>
      <trkpt lat="43.79485" lon="6.97992">
        <ele>738.9</ele>
        <time>2026-05-15T07:28:47Z</time>
      </trkpt>
      <trkpt lat="43.79493" lon="6.97978">
        <ele>738.7</ele>
        <time>2026-05-15T07:28:48Z</time>
      </trkpt>
      <trkpt lat="43.79502" lon="6.97966">
        <ele>738.6</ele>
        <time>2026-05-15T07:28:49Z</time>
      </trkpt>
      <trkpt lat="43.79513" lon="6.9796">
        <ele>738.6</ele>
        <time>2026-05-15T07:28:50Z</time>
      </trkpt>
      <trkpt lat="43.79524" lon="6.97955">
        <ele>738.8</ele>
        <time>2026-05-15T07:28:51Z</time>
      </trkpt>
      <trkpt lat="43.79536" lon="6.9795">
        <ele>738.6</ele>
        <time>2026-05-15T07:28:52Z</time>
      </trkpt>
      <trkpt lat="43.79547" lon="6.97946">
        <ele>738.5</ele>
        <time>2026-05-15T07:28:53Z</time>
      </trkpt>
      <trkpt lat="43.79558" lon="6.97941">
        <ele>738.2</ele>
        <time>2026-05-15T07:28:54Z</time>
      </trkpt>
      <trkpt lat="43.79569" lon="6.97935">
        <ele>737.4</ele>
        <time>2026-05-15T07:28:55Z</time>
      </trkpt>
      <trkpt lat="43.79578" lon="6.97927">
        <ele>736.1</ele>
        <time>2026-05-15T07:28:56Z</time>
      </trkpt>
      <trkpt lat="43.79587" lon="6.97917">
        <ele>734.5</ele>
        <time>2026-05-15T07:28:57Z</time>
      </trkpt>
      <trkpt lat="43.79594" lon="6.97907">
        <ele>732.5</ele>
        <time>2026-05-15T07:28:58Z</time>
      </trkpt>
      <trkpt lat="43.79601" lon="6.97901">
        <ele>731.8</ele>
        <time>2026-05-15T07:28:59Z</time>
      </trkpt>
      <trkpt lat="43.79609" lon="6.97899">
        <ele>732.3</ele>
        <time>2026-05-15T07:29:00Z</time>
      </trkpt>
      <trkpt lat="43.79617" lon="6.979">
        <ele>733.7</ele>
        <time>2026-05-15T07:29:01Z</time>
      </trkpt>
      <trkpt lat="43.79625" lon="6.97899">
        <ele>734.8</ele>
        <time>2026-05-15T07:29:02Z</time>
      </trkpt>
      <trkpt lat="43.79633" lon="6.97897">
        <ele>735.9</ele>
        <time>2026-05-15T07:29:03Z</time>
      </trkpt>
      <trkpt lat="43.7964" lon="6.9789">
        <ele>736.4</ele>
        <time>2026-05-15T07:29:04Z</time>
      </trkpt>
      <trkpt lat="43.79645" lon="6.9788">
        <ele>736.9</ele>
        <time>2026-05-15T07:29:05Z</time>
      </trkpt>
      <trkpt lat="43.79648" lon="6.9787">
        <ele>737.3</ele>
        <time>2026-05-15T07:29:06Z</time>
      </trkpt>
      <trkpt lat="43.79647" lon="6.97856">
        <ele>736.9</ele>
        <time>2026-05-15T07:29:07Z</time>
      </trkpt>
      <trkpt lat="43.79642" lon="6.97844">
        <ele>735.8</ele>
        <time>2026-05-15T07:29:08Z</time>
      </trkpt>
      <trkpt lat="43.79638" lon="6.97833">
        <ele>734.6</ele>
        <time>2026-05-15T07:29:09Z</time>
      </trkpt>
      <trkpt lat="43.79636" lon="6.97819">
        <ele>733.6</ele>
        <time>2026-05-15T07:29:10Z</time>
      </trkpt>
      <trkpt lat="43.79634" lon="6.97806">
        <ele>732.7</ele>
        <time>2026-05-15T07:29:11Z</time>
      </trkpt>
      <trkpt lat="43.79632" lon="6.97793">
        <ele>732.7</ele>
        <time>2026-05-15T07:29:12Z</time>
      </trkpt>
      <trkpt lat="43.79625" lon="6.97784">
        <ele>731.6</ele>
        <time>2026-05-15T07:29:13Z</time>
      </trkpt>
      <trkpt lat="43.79616" lon="6.97777">
        <ele>731</ele>
        <time>2026-05-15T07:29:14Z</time>
      </trkpt>
      <trkpt lat="43.79606" lon="6.97771">
        <ele>728.5</ele>
        <time>2026-05-15T07:29:15Z</time>
      </trkpt>
      <trkpt lat="43.79596" lon="6.97763">
        <ele>726</ele>
        <time>2026-05-15T07:29:16Z</time>
      </trkpt>
      <trkpt lat="43.79589" lon="6.97751">
        <ele>726.2</ele>
        <time>2026-05-15T07:29:17Z</time>
      </trkpt>
      <trkpt lat="43.79583" lon="6.97738">
        <ele>726.5</ele>
        <time>2026-05-15T07:29:18Z</time>
      </trkpt>
      <trkpt lat="43.79578" lon="6.97723">
        <ele>725.8</ele>
        <time>2026-05-15T07:29:19Z</time>
      </trkpt>
      <trkpt lat="43.79575" lon="6.97706">
        <ele>726.4</ele>
        <time>2026-05-15T07:29:20Z</time>
      </trkpt>
      <trkpt lat="43.79573" lon="6.97688">
        <ele>727.3</ele>
        <time>2026-05-15T07:29:21Z</time>
      </trkpt>
      <trkpt lat="43.79569" lon="6.97671">
        <ele>726.3</ele>
        <time>2026-05-15T07:29:22Z</time>
      </trkpt>
      <trkpt lat="43.79566" lon="6.97654">
        <ele>725.2</ele>
        <time>2026-05-15T07:29:23Z</time>
      </trkpt>
      <trkpt lat="43.79561" lon="6.97638">
        <ele>722.6</ele>
        <time>2026-05-15T07:29:24Z</time>
      </trkpt>
      <trkpt lat="43.7956" lon="6.97622">
        <ele>722.5</ele>
        <time>2026-05-15T07:29:25Z</time>
      </trkpt>
      <trkpt lat="43.79557" lon="6.97606">
        <ele>720.9</ele>
        <time>2026-05-15T07:29:26Z</time>
      </trkpt>
      <trkpt lat="43.79555" lon="6.9759">
        <ele>719.8</ele>
        <time>2026-05-15T07:29:27Z</time>
      </trkpt>
      <trkpt lat="43.79554" lon="6.97573">
        <ele>720.1</ele>
        <time>2026-05-15T07:29:28Z</time>
      </trkpt>
      <trkpt lat="43.79553" lon="6.97557">
        <ele>720.8</ele>
        <time>2026-05-15T07:29:29Z</time>
      </trkpt>
      <trkpt lat="43.79553" lon="6.9754">
        <ele>720.3</ele>
        <time>2026-05-15T07:29:30Z</time>
      </trkpt>
      <trkpt lat="43.79553" lon="6.97524">
        <ele>719.5</ele>
        <time>2026-05-15T07:29:31Z</time>
      </trkpt>
      <trkpt lat="43.79554" lon="6.97507">
        <ele>718.6</ele>
        <time>2026-05-15T07:29:32Z</time>
      </trkpt>
      <trkpt lat="43.79554" lon="6.97489">
        <ele>716.1</ele>
        <time>2026-05-15T07:29:33Z</time>
      </trkpt>
      <trkpt lat="43.79554" lon="6.97473">
        <ele>713.4</ele>
        <time>2026-05-15T07:29:34Z</time>
      </trkpt>
      <trkpt lat="43.79559" lon="6.97455">
        <ele>712.8</ele>
        <time>2026-05-15T07:29:35Z</time>
      </trkpt>
      <trkpt lat="43.79564" lon="6.97439">
        <ele>712.8</ele>
        <time>2026-05-15T07:29:36Z</time>
      </trkpt>
      <trkpt lat="43.79568" lon="6.97422">
        <ele>712.5</ele>
        <time>2026-05-15T07:29:37Z</time>
      </trkpt>
      <trkpt lat="43.79571" lon="6.97405">
        <ele>711.8</ele>
        <time>2026-05-15T07:29:38Z</time>
      </trkpt>
      <trkpt lat="43.79574" lon="6.97385">
        <ele>710.9</ele>
        <time>2026-05-15T07:29:39Z</time>
      </trkpt>
      <trkpt lat="43.79575" lon="6.97367">
        <ele>709.7</ele>
        <time>2026-05-15T07:29:40Z</time>
      </trkpt>
      <trkpt lat="43.79576" lon="6.9735">
        <ele>708.9</ele>
        <time>2026-05-15T07:29:41Z</time>
      </trkpt>
      <trkpt lat="43.79577" lon="6.97332">
        <ele>708.2</ele>
        <time>2026-05-15T07:29:42Z</time>
      </trkpt>
      <trkpt lat="43.79575" lon="6.97315">
        <ele>706.9</ele>
        <time>2026-05-15T07:29:43Z</time>
      </trkpt>
      <trkpt lat="43.79571" lon="6.973">
        <ele>705.2</ele>
        <time>2026-05-15T07:29:44Z</time>
      </trkpt>
      <trkpt lat="43.79567" lon="6.97284">
        <ele>703.9</ele>
        <time>2026-05-15T07:29:45Z</time>
      </trkpt>
      <trkpt lat="43.79565" lon="6.97268">
        <ele>703.3</ele>
        <time>2026-05-15T07:29:46Z</time>
      </trkpt>
      <trkpt lat="43.79563" lon="6.97251">
        <ele>702.7</ele>
        <time>2026-05-15T07:29:47Z</time>
      </trkpt>
      <trkpt lat="43.79561" lon="6.97233">
        <ele>700.6</ele>
        <time>2026-05-15T07:29:48Z</time>
      </trkpt>
      <trkpt lat="43.79561" lon="6.97215">
        <ele>699.4</ele>
        <time>2026-05-15T07:29:49Z</time>
      </trkpt>
      <trkpt lat="43.79567" lon="6.97197">
        <ele>701.4</ele>
        <time>2026-05-15T07:29:50Z</time>
      </trkpt>
      <trkpt lat="43.79571" lon="6.97179">
        <ele>700.8</ele>
        <time>2026-05-15T07:29:51Z</time>
      </trkpt>
      <trkpt lat="43.79575" lon="6.97163">
        <ele>700.2</ele>
        <time>2026-05-15T07:29:52Z</time>
      </trkpt>
      <trkpt lat="43.79578" lon="6.97146">
        <ele>698.9</ele>
        <time>2026-05-15T07:29:53Z</time>
      </trkpt>
      <trkpt lat="43.79581" lon="6.97129">
        <ele>697.6</ele>
        <time>2026-05-15T07:29:54Z</time>
      </trkpt>
      <trkpt lat="43.79584" lon="6.97114">
        <ele>696.8</ele>
        <time>2026-05-15T07:29:55Z</time>
      </trkpt>
      <trkpt lat="43.79586" lon="6.971">
        <ele>696.8</ele>
        <time>2026-05-15T07:29:56Z</time>
      </trkpt>
      <trkpt lat="43.79586" lon="6.97087">
        <ele>696.1</ele>
        <time>2026-05-15T07:29:57Z</time>
      </trkpt>
      <trkpt lat="43.79581" lon="6.97076">
        <ele>694.6</ele>
        <time>2026-05-15T07:29:58Z</time>
      </trkpt>
      <trkpt lat="43.79573" lon="6.97069">
        <ele>692.7</ele>
        <time>2026-05-15T07:29:59Z</time>
      </trkpt>
      <trkpt lat="43.79564" lon="6.97063">
        <ele>690.7</ele>
        <time>2026-05-15T07:30:00Z</time>
      </trkpt>
      <trkpt lat="43.79556" lon="6.97054">
        <ele>689.2</ele>
        <time>2026-05-15T07:30:01Z</time>
      </trkpt>
      <trkpt lat="43.79549" lon="6.97043">
        <ele>687.7</ele>
        <time>2026-05-15T07:30:02Z</time>
      </trkpt>
      <trkpt lat="43.79545" lon="6.97032">
        <ele>686.9</ele>
        <time>2026-05-15T07:30:03Z</time>
      </trkpt>
      <trkpt lat="43.79544" lon="6.97019">
        <ele>686.2</ele>
        <time>2026-05-15T07:30:04Z</time>
      </trkpt>
      <trkpt lat="43.79543" lon="6.97005">
        <ele>685.2</ele>
        <time>2026-05-15T07:30:05Z</time>
      </trkpt>
      <trkpt lat="43.79546" lon="6.96993">
        <ele>685.5</ele>
        <time>2026-05-15T07:30:06Z</time>
      </trkpt>
      <trkpt lat="43.7955" lon="6.96981">
        <ele>686</ele>
        <time>2026-05-15T07:30:07Z</time>
      </trkpt>
      <trkpt lat="43.79553" lon="6.96969">
        <ele>686.3</ele>
        <time>2026-05-15T07:30:08Z</time>
      </trkpt>
      <trkpt lat="43.79554" lon="6.96957">
        <ele>686.6</ele>
        <time>2026-05-15T07:30:09Z</time>
      </trkpt>
      <trkpt lat="43.79552" lon="6.96946">
        <ele>686.1</ele>
        <time>2026-05-15T07:30:10Z</time>
      </trkpt>
      <trkpt lat="43.79546" lon="6.96937">
        <ele>685.3</ele>
        <time>2026-05-15T07:30:11Z</time>
      </trkpt>
      <trkpt lat="43.79538" lon="6.96931">
        <ele>684.2</ele>
        <time>2026-05-15T07:30:12Z</time>
      </trkpt>
      <trkpt lat="43.79529" lon="6.96927">
        <ele>682.8</ele>
        <time>2026-05-15T07:30:13Z</time>
      </trkpt>
      <trkpt lat="43.79519" lon="6.96924">
        <ele>682.1</ele>
        <time>2026-05-15T07:30:14Z</time>
      </trkpt>
      <trkpt lat="43.79507" lon="6.96921">
        <ele>681.6</ele>
        <time>2026-05-15T07:30:15Z</time>
      </trkpt>
      <trkpt lat="43.79496" lon="6.96917">
        <ele>681.2</ele>
        <time>2026-05-15T07:30:16Z</time>
      </trkpt>
      <trkpt lat="43.79486" lon="6.96918">
        <ele>679.1</ele>
        <time>2026-05-15T07:30:17Z</time>
      </trkpt>
      <trkpt lat="43.79476" lon="6.96917">
        <ele>677.6</ele>
        <time>2026-05-15T07:30:18Z</time>
      </trkpt>
      <trkpt lat="43.79465" lon="6.96915">
        <ele>675.8</ele>
        <time>2026-05-15T07:30:19Z</time>
      </trkpt>
      <trkpt lat="43.79455" lon="6.96914">
        <ele>673.9</ele>
        <time>2026-05-15T07:30:20Z</time>
      </trkpt>
      <trkpt lat="43.79446" lon="6.96911">
        <ele>672.6</ele>
        <time>2026-05-15T07:30:21Z</time>
      </trkpt>
      <trkpt lat="43.79437" lon="6.96905">
        <ele>671.9</ele>
        <time>2026-05-15T07:30:22Z</time>
      </trkpt>
      <trkpt lat="43.79432" lon="6.96896">
        <ele>672.8</ele>
        <time>2026-05-15T07:30:23Z</time>
      </trkpt>
      <trkpt lat="43.79427" lon="6.96887">
        <ele>673.4</ele>
        <time>2026-05-15T07:30:24Z</time>
      </trkpt>
      <trkpt lat="43.79428" lon="6.96878">
        <ele>674.4</ele>
        <time>2026-05-15T07:30:25Z</time>
      </trkpt>
      <trkpt lat="43.7943" lon="6.96868">
        <ele>675.7</ele>
        <time>2026-05-15T07:30:26Z</time>
      </trkpt>
      <trkpt lat="43.79429" lon="6.96858">
        <ele>676.3</ele>
        <time>2026-05-15T07:30:27Z</time>
      </trkpt>
      <trkpt lat="43.79428" lon="6.96848">
        <ele>676.7</ele>
        <time>2026-05-15T07:30:28Z</time>
      </trkpt>
      <trkpt lat="43.79427" lon="6.96835">
        <ele>677.2</ele>
        <time>2026-05-15T07:30:29Z</time>
      </trkpt>
      <trkpt lat="43.79425" lon="6.96822">
        <ele>677.8</ele>
        <time>2026-05-15T07:30:30Z</time>
      </trkpt>
      <trkpt lat="43.79425" lon="6.96807">
        <ele>679.2</ele>
        <time>2026-05-15T07:30:31Z</time>
      </trkpt>
      <trkpt lat="43.79424" lon="6.96792">
        <ele>680.1</ele>
        <time>2026-05-15T07:30:32Z</time>
      </trkpt>
      <trkpt lat="43.79423" lon="6.96776">
        <ele>681.1</ele>
        <time>2026-05-15T07:30:33Z</time>
      </trkpt>
      <trkpt lat="43.79422" lon="6.96761">
        <ele>681.9</ele>
        <time>2026-05-15T07:30:34Z</time>
      </trkpt>
      <trkpt lat="43.7942" lon="6.96746">
        <ele>682.1</ele>
        <time>2026-05-15T07:30:35Z</time>
      </trkpt>
      <trkpt lat="43.79418" lon="6.9673">
        <ele>682.2</ele>
        <time>2026-05-15T07:30:36Z</time>
      </trkpt>
      <trkpt lat="43.79417" lon="6.96715">
        <ele>682.7</ele>
        <time>2026-05-15T07:30:37Z</time>
      </trkpt>
      <trkpt lat="43.79416" lon="6.96699">
        <ele>683.4</ele>
        <time>2026-05-15T07:30:38Z</time>
      </trkpt>
      <trkpt lat="43.79415" lon="6.96682">
        <ele>684.5</ele>
        <time>2026-05-15T07:30:39Z</time>
      </trkpt>
      <trkpt lat="43.79415" lon="6.96665">
        <ele>686.2</ele>
        <time>2026-05-15T07:30:40Z</time>
      </trkpt>
      <trkpt lat="43.79416" lon="6.96647">
        <ele>686.7</ele>
        <time>2026-05-15T07:30:41Z</time>
      </trkpt>
      <trkpt lat="43.79418" lon="6.96629">
        <ele>687.7</ele>
        <time>2026-05-15T07:30:42Z</time>
      </trkpt>
      <trkpt lat="43.7942" lon="6.9661">
        <ele>688.6</ele>
        <time>2026-05-15T07:30:43Z</time>
      </trkpt>
      <trkpt lat="43.79423" lon="6.9659">
        <ele>690.2</ele>
        <time>2026-05-15T07:30:44Z</time>
      </trkpt>
      <trkpt lat="43.79428" lon="6.96571">
        <ele>691.5</ele>
        <time>2026-05-15T07:30:45Z</time>
      </trkpt>
      <trkpt lat="43.79434" lon="6.96552">
        <ele>692.4</ele>
        <time>2026-05-15T07:30:46Z</time>
      </trkpt>
      <trkpt lat="43.79439" lon="6.96534">
        <ele>692.7</ele>
        <time>2026-05-15T07:30:47Z</time>
      </trkpt>
      <trkpt lat="43.79445" lon="6.96518">
        <ele>693.5</ele>
        <time>2026-05-15T07:30:48Z</time>
      </trkpt>
      <trkpt lat="43.7945" lon="6.96503">
        <ele>694.2</ele>
        <time>2026-05-15T07:30:49Z</time>
      </trkpt>
      <trkpt lat="43.79452" lon="6.96488">
        <ele>694.8</ele>
        <time>2026-05-15T07:30:50Z</time>
      </trkpt>
      <trkpt lat="43.79453" lon="6.96472">
        <ele>695.4</ele>
        <time>2026-05-15T07:30:51Z</time>
      </trkpt>
      <trkpt lat="43.79449" lon="6.96457">
        <ele>695.9</ele>
        <time>2026-05-15T07:30:52Z</time>
      </trkpt>
      <trkpt lat="43.79442" lon="6.96443">
        <ele>695.6</ele>
        <time>2026-05-15T07:30:53Z</time>
      </trkpt>
      <trkpt lat="43.79437" lon="6.9643">
        <ele>696.3</ele>
        <time>2026-05-15T07:30:54Z</time>
      </trkpt>
      <trkpt lat="43.79433" lon="6.96415">
        <ele>697.4</ele>
        <time>2026-05-15T07:30:55Z</time>
      </trkpt>
      <trkpt lat="43.79432" lon="6.964">
        <ele>698.5</ele>
        <time>2026-05-15T07:30:56Z</time>
      </trkpt>
      <trkpt lat="43.79432" lon="6.96384">
        <ele>699.6</ele>
        <time>2026-05-15T07:30:57Z</time>
      </trkpt>
      <trkpt lat="43.79435" lon="6.96369">
        <ele>701.1</ele>
        <time>2026-05-15T07:30:58Z</time>
      </trkpt>
      <trkpt lat="43.7944" lon="6.96355">
        <ele>702.8</ele>
        <time>2026-05-15T07:30:59Z</time>
      </trkpt>
      <trkpt lat="43.79446" lon="6.9634">
        <ele>704</ele>
        <time>2026-05-15T07:31:00Z</time>
      </trkpt>
      <trkpt lat="43.79452" lon="6.96326">
        <ele>705.5</ele>
        <time>2026-05-15T07:31:01Z</time>
      </trkpt>
      <trkpt lat="43.79459" lon="6.96312">
        <ele>707.5</ele>
        <time>2026-05-15T07:31:02Z</time>
      </trkpt>
      <trkpt lat="43.79465" lon="6.96297">
        <ele>709.1</ele>
        <time>2026-05-15T07:31:03Z</time>
      </trkpt>
      <trkpt lat="43.7947" lon="6.9628">
        <ele>710.3</ele>
        <time>2026-05-15T07:31:04Z</time>
      </trkpt>
      <trkpt lat="43.79474" lon="6.96262">
        <ele>711.1</ele>
        <time>2026-05-15T07:31:05Z</time>
      </trkpt>
      <trkpt lat="43.79477" lon="6.96243">
        <ele>711.9</ele>
        <time>2026-05-15T07:31:06Z</time>
      </trkpt>
      <trkpt lat="43.7948" lon="6.96224">
        <ele>713.1</ele>
        <time>2026-05-15T07:31:07Z</time>
      </trkpt>
      <trkpt lat="43.79483" lon="6.96205">
        <ele>713.6</ele>
        <time>2026-05-15T07:31:08Z</time>
      </trkpt>
      <trkpt lat="43.79486" lon="6.96188">
        <ele>714.1</ele>
        <time>2026-05-15T07:31:09Z</time>
      </trkpt>
      <trkpt lat="43.79487" lon="6.96172">
        <ele>713.6</ele>
        <time>2026-05-15T07:31:10Z</time>
      </trkpt>
      <trkpt lat="43.79487" lon="6.96155">
        <ele>713.8</ele>
        <time>2026-05-15T07:31:11Z</time>
      </trkpt>
      <trkpt lat="43.79484" lon="6.96139">
        <ele>713.1</ele>
        <time>2026-05-15T07:31:12Z</time>
      </trkpt>
      <trkpt lat="43.79481" lon="6.96124">
        <ele>714</ele>
        <time>2026-05-15T07:31:13Z</time>
      </trkpt>
      <trkpt lat="43.79477" lon="6.9611">
        <ele>714.7</ele>
        <time>2026-05-15T07:31:14Z</time>
      </trkpt>
      <trkpt lat="43.79475" lon="6.96095">
        <ele>715.6</ele>
        <time>2026-05-15T07:31:15Z</time>
      </trkpt>
      <trkpt lat="43.79475" lon="6.96082">
        <ele>716.7</ele>
        <time>2026-05-15T07:31:16Z</time>
      </trkpt>
      <trkpt lat="43.79477" lon="6.96069">
        <ele>716.5</ele>
        <time>2026-05-15T07:31:17Z</time>
      </trkpt>
      <trkpt lat="43.79485" lon="6.96056">
        <ele>718.6</ele>
        <time>2026-05-15T07:31:18Z</time>
      </trkpt>
      <trkpt lat="43.79496" lon="6.96047">
        <ele>721</ele>
        <time>2026-05-15T07:31:19Z</time>
      </trkpt>
      <trkpt lat="43.79505" lon="6.96036">
        <ele>722.2</ele>
        <time>2026-05-15T07:31:20Z</time>
      </trkpt>
      <trkpt lat="43.79514" lon="6.96025">
        <ele>723.5</ele>
        <time>2026-05-15T07:31:21Z</time>
      </trkpt>
      <trkpt lat="43.79522" lon="6.96012">
        <ele>724.1</ele>
        <time>2026-05-15T07:31:22Z</time>
      </trkpt>
      <trkpt lat="43.79529" lon="6.95997">
        <ele>724.2</ele>
        <time>2026-05-15T07:31:23Z</time>
      </trkpt>
      <trkpt lat="43.79533" lon="6.95981">
        <ele>724.5</ele>
        <time>2026-05-15T07:31:24Z</time>
      </trkpt>
      <trkpt lat="43.79535" lon="6.95963">
        <ele>724.5</ele>
        <time>2026-05-15T07:31:25Z</time>
      </trkpt>
      <trkpt lat="43.79538" lon="6.95946">
        <ele>725.9</ele>
        <time>2026-05-15T07:31:26Z</time>
      </trkpt>
      <trkpt lat="43.79543" lon="6.95929">
        <ele>727</ele>
        <time>2026-05-15T07:31:27Z</time>
      </trkpt>
      <trkpt lat="43.79549" lon="6.95913">
        <ele>728</ele>
        <time>2026-05-15T07:31:28Z</time>
      </trkpt>
      <trkpt lat="43.79559" lon="6.959">
        <ele>730.2</ele>
        <time>2026-05-15T07:31:29Z</time>
      </trkpt>
      <trkpt lat="43.7957" lon="6.95887">
        <ele>732.1</ele>
        <time>2026-05-15T07:31:30Z</time>
      </trkpt>
      <trkpt lat="43.79582" lon="6.95874">
        <ele>732.6</ele>
        <time>2026-05-15T07:31:31Z</time>
      </trkpt>
      <trkpt lat="43.79593" lon="6.95862">
        <ele>734.3</ele>
        <time>2026-05-15T07:31:32Z</time>
      </trkpt>
      <trkpt lat="43.79603" lon="6.9585">
        <ele>736.1</ele>
        <time>2026-05-15T07:31:33Z</time>
      </trkpt>
      <trkpt lat="43.79612" lon="6.95837">
        <ele>736.5</ele>
        <time>2026-05-15T07:31:34Z</time>
      </trkpt>
      <trkpt lat="43.7962" lon="6.95824">
        <ele>742.5</ele>
        <time>2026-05-15T07:31:35Z</time>
      </trkpt>
      <trkpt lat="43.79624" lon="6.95808">
        <ele>743.8</ele>
        <time>2026-05-15T07:31:36Z</time>
      </trkpt>
      <trkpt lat="43.79627" lon="6.95791">
        <ele>743.5</ele>
        <time>2026-05-15T07:31:37Z</time>
      </trkpt>
      <trkpt lat="43.7963" lon="6.95774">
        <ele>741.8</ele>
        <time>2026-05-15T07:31:38Z</time>
      </trkpt>
      <trkpt lat="43.79632" lon="6.95758">
        <ele>739.6</ele>
        <time>2026-05-15T07:31:39Z</time>
      </trkpt>
      <trkpt lat="43.79635" lon="6.95741">
        <ele>738.6</ele>
        <time>2026-05-15T07:31:40Z</time>
      </trkpt>
      <trkpt lat="43.79638" lon="6.95724">
        <ele>738.7</ele>
        <time>2026-05-15T07:31:41Z</time>
      </trkpt>
      <trkpt lat="43.79643" lon="6.95708">
        <ele>739.5</ele>
        <time>2026-05-15T07:31:42Z</time>
      </trkpt>
      <trkpt lat="43.79648" lon="6.95692">
        <ele>739.8</ele>
        <time>2026-05-15T07:31:43Z</time>
      </trkpt>
      <trkpt lat="43.79653" lon="6.95675">
        <ele>740.7</ele>
        <time>2026-05-15T07:31:44Z</time>
      </trkpt>
      <trkpt lat="43.79658" lon="6.95658">
        <ele>741.5</ele>
        <time>2026-05-15T07:31:45Z</time>
      </trkpt>
      <trkpt lat="43.79663" lon="6.9564">
        <ele>742.4</ele>
        <time>2026-05-15T07:31:46Z</time>
      </trkpt>
      <trkpt lat="43.79666" lon="6.95621">
        <ele>743</ele>
        <time>2026-05-15T07:31:47Z</time>
      </trkpt>
      <trkpt lat="43.79668" lon="6.95602">
        <ele>743.9</ele>
        <time>2026-05-15T07:31:48Z</time>
      </trkpt>
      <trkpt lat="43.79669" lon="6.95582">
        <ele>744.5</ele>
        <time>2026-05-15T07:31:49Z</time>
      </trkpt>
      <trkpt lat="43.79669" lon="6.95562">
        <ele>745.9</ele>
        <time>2026-05-15T07:31:50Z</time>
      </trkpt>
      <trkpt lat="43.79667" lon="6.95543">
        <ele>746.5</ele>
        <time>2026-05-15T07:31:51Z</time>
      </trkpt>
      <trkpt lat="43.79664" lon="6.95523">
        <ele>747.6</ele>
        <time>2026-05-15T07:31:52Z</time>
      </trkpt>
      <trkpt lat="43.7966" lon="6.95505">
        <ele>748.6</ele>
        <time>2026-05-15T07:31:53Z</time>
      </trkpt>
      <trkpt lat="43.79655" lon="6.95486">
        <ele>750.2</ele>
        <time>2026-05-15T07:31:54Z</time>
      </trkpt>
      <trkpt lat="43.79651" lon="6.95468">
        <ele>752.1</ele>
        <time>2026-05-15T07:31:55Z</time>
      </trkpt>
      <trkpt lat="43.79646" lon="6.9545">
        <ele>753.3</ele>
        <time>2026-05-15T07:31:56Z</time>
      </trkpt>
      <trkpt lat="43.79639" lon="6.95433">
        <ele>753.9</ele>
        <time>2026-05-15T07:31:57Z</time>
      </trkpt>
      <trkpt lat="43.79631" lon="6.95417">
        <ele>755.1</ele>
        <time>2026-05-15T07:31:58Z</time>
      </trkpt>
      <trkpt lat="43.79624" lon="6.954">
        <ele>757.1</ele>
        <time>2026-05-15T07:31:59Z</time>
      </trkpt>
      <trkpt lat="43.79616" lon="6.95382">
        <ele>758.3</ele>
        <time>2026-05-15T07:32:00Z</time>
      </trkpt>
      <trkpt lat="43.7961" lon="6.95364">
        <ele>759</ele>
        <time>2026-05-15T07:32:01Z</time>
      </trkpt>
      <trkpt lat="43.79606" lon="6.95344">
        <ele>760.8</ele>
        <time>2026-05-15T07:32:02Z</time>
      </trkpt>
      <trkpt lat="43.79601" lon="6.95326">
        <ele>761.1</ele>
        <time>2026-05-15T07:32:03Z</time>
      </trkpt>
      <trkpt lat="43.79598" lon="6.95309">
        <ele>761.5</ele>
        <time>2026-05-15T07:32:04Z</time>
      </trkpt>
      <trkpt lat="43.79594" lon="6.95295">
        <ele>761.7</ele>
        <time>2026-05-15T07:32:05Z</time>
      </trkpt>
      <trkpt lat="43.79589" lon="6.95282">
        <ele>761.2</ele>
        <time>2026-05-15T07:32:06Z</time>
      </trkpt>
      <trkpt lat="43.79584" lon="6.95272">
        <ele>760.2</ele>
        <time>2026-05-15T07:32:07Z</time>
      </trkpt>
      <trkpt lat="43.79579" lon="6.95262">
        <ele>759.6</ele>
        <time>2026-05-15T07:32:08Z</time>
      </trkpt>
      <trkpt lat="43.79574" lon="6.95254">
        <ele>758.7</ele>
        <time>2026-05-15T07:32:09Z</time>
      </trkpt>
      <trkpt lat="43.7957" lon="6.95246">
        <ele>758.1</ele>
        <time>2026-05-15T07:32:10Z</time>
      </trkpt>
      <trkpt lat="43.79569" lon="6.95238">
        <ele>758.6</ele>
        <time>2026-05-15T07:32:11Z</time>
      </trkpt>
      <trkpt lat="43.79571" lon="6.95232">
        <ele>760</ele>
        <time>2026-05-15T07:32:12Z</time>
      </trkpt>
      <trkpt lat="43.79575" lon="6.9523">
        <ele>761.6</ele>
        <time>2026-05-15T07:32:13Z</time>
      </trkpt>
      <trkpt lat="43.79579" lon="6.95232">
        <ele>762.8</ele>
        <time>2026-05-15T07:32:14Z</time>
      </trkpt>
      <trkpt lat="43.79582" lon="6.95238">
        <ele>763.4</ele>
        <time>2026-05-15T07:32:15Z</time>
      </trkpt>
      <trkpt lat="43.79586" lon="6.95247">
        <ele>764.7</ele>
        <time>2026-05-15T07:32:16Z</time>
      </trkpt>
      <trkpt lat="43.79591" lon="6.95258">
        <ele>766.1</ele>
        <time>2026-05-15T07:32:17Z</time>
      </trkpt>
      <trkpt lat="43.79598" lon="6.95272">
        <ele>767.4</ele>
        <time>2026-05-15T07:32:18Z</time>
      </trkpt>
      <trkpt lat="43.79606" lon="6.95288">
        <ele>768.7</ele>
        <time>2026-05-15T07:32:19Z</time>
      </trkpt>
      <trkpt lat="43.79614" lon="6.95302">
        <ele>770.1</ele>
        <time>2026-05-15T07:32:20Z</time>
      </trkpt>
      <trkpt lat="43.7962" lon="6.95317">
        <ele>771.1</ele>
        <time>2026-05-15T07:32:21Z</time>
      </trkpt>
      <trkpt lat="43.79627" lon="6.95332">
        <ele>772.6</ele>
        <time>2026-05-15T07:32:22Z</time>
      </trkpt>
      <trkpt lat="43.79634" lon="6.95349">
        <ele>772.9</ele>
        <time>2026-05-15T07:32:23Z</time>
      </trkpt>
      <trkpt lat="43.79642" lon="6.95366">
        <ele>773.3</ele>
        <time>2026-05-15T07:32:24Z</time>
      </trkpt>
      <trkpt lat="43.79649" lon="6.95383">
        <ele>772.6</ele>
        <time>2026-05-15T07:32:25Z</time>
      </trkpt>
      <trkpt lat="43.79659" lon="6.95397">
        <ele>773.6</ele>
        <time>2026-05-15T07:32:26Z</time>
      </trkpt>
      <trkpt lat="43.79668" lon="6.95411">
        <ele>773.8</ele>
        <time>2026-05-15T07:32:27Z</time>
      </trkpt>
      <trkpt lat="43.79677" lon="6.95425">
        <ele>775.5</ele>
        <time>2026-05-15T07:32:28Z</time>
      </trkpt>
      <trkpt lat="43.79685" lon="6.95438">
        <ele>776.1</ele>
        <time>2026-05-15T07:32:29Z</time>
      </trkpt>
      <trkpt lat="43.79691" lon="6.95451">
        <ele>775.7</ele>
        <time>2026-05-15T07:32:30Z</time>
      </trkpt>
      <trkpt lat="43.79696" lon="6.95464">
        <ele>775.7</ele>
        <time>2026-05-15T07:32:31Z</time>
      </trkpt>
      <trkpt lat="43.79699" lon="6.95474">
        <ele>775.4</ele>
        <time>2026-05-15T07:32:32Z</time>
      </trkpt>
      <trkpt lat="43.79704" lon="6.95481">
        <ele>777.3</ele>
        <time>2026-05-15T07:32:33Z</time>
      </trkpt>
      <trkpt lat="43.7971" lon="6.95483">
        <ele>780.6</ele>
        <time>2026-05-15T07:32:34Z</time>
      </trkpt>
      <trkpt lat="43.79714" lon="6.95478">
        <ele>783.6</ele>
        <time>2026-05-15T07:32:35Z</time>
      </trkpt>
      <trkpt lat="43.79718" lon="6.95473">
        <ele>786.5</ele>
        <time>2026-05-15T07:32:36Z</time>
      </trkpt>
      <trkpt lat="43.7972" lon="6.95466">
        <ele>789.5</ele>
        <time>2026-05-15T07:32:37Z</time>
      </trkpt>
      <trkpt lat="43.79707" lon="6.95449">
        <ele>786</ele>
        <time>2026-05-15T07:32:38Z</time>
      </trkpt>
      <trkpt lat="43.79699" lon="6.95436">
        <ele>785.4</ele>
        <time>2026-05-15T07:32:39Z</time>
      </trkpt>
      <trkpt lat="43.79691" lon="6.95422">
        <ele>785.6</ele>
        <time>2026-05-15T07:32:40Z</time>
      </trkpt>
      <trkpt lat="43.79684" lon="6.95409">
        <ele>785.5</ele>
        <time>2026-05-15T07:32:41Z</time>
      </trkpt>
      <trkpt lat="43.79677" lon="6.95396">
        <ele>785</ele>
        <time>2026-05-15T07:32:42Z</time>
      </trkpt>
      <trkpt lat="43.79671" lon="6.95379">
        <ele>785.6</ele>
        <time>2026-05-15T07:32:43Z</time>
      </trkpt>
      <trkpt lat="43.79667" lon="6.95362">
        <ele>787</ele>
        <time>2026-05-15T07:32:44Z</time>
      </trkpt>
      <trkpt lat="43.79663" lon="6.95343">
        <ele>789</ele>
        <time>2026-05-15T07:32:45Z</time>
      </trkpt>
      <trkpt lat="43.7966" lon="6.95324">
        <ele>790.7</ele>
        <time>2026-05-15T07:32:46Z</time>
      </trkpt>
      <trkpt lat="43.79657" lon="6.95305">
        <ele>791.9</ele>
        <time>2026-05-15T07:32:47Z</time>
      </trkpt>
      <trkpt lat="43.79652" lon="6.95288">
        <ele>792.5</ele>
        <time>2026-05-15T07:32:48Z</time>
      </trkpt>
      <trkpt lat="43.79648" lon="6.95271">
        <ele>793.1</ele>
        <time>2026-05-15T07:32:49Z</time>
      </trkpt>
      <trkpt lat="43.79647" lon="6.95254">
        <ele>795</ele>
        <time>2026-05-15T07:32:50Z</time>
      </trkpt>
      <trkpt lat="43.79648" lon="6.95239">
        <ele>795.7</ele>
        <time>2026-05-15T07:32:51Z</time>
      </trkpt>
      <trkpt lat="43.79654" lon="6.95223">
        <ele>797.5</ele>
        <time>2026-05-15T07:32:52Z</time>
      </trkpt>
      <trkpt lat="43.79659" lon="6.95207">
        <ele>798</ele>
        <time>2026-05-15T07:32:53Z</time>
      </trkpt>
      <trkpt lat="43.79664" lon="6.95191">
        <ele>798.7</ele>
        <time>2026-05-15T07:32:54Z</time>
      </trkpt>
      <trkpt lat="43.79667" lon="6.95174">
        <ele>798.7</ele>
        <time>2026-05-15T07:32:55Z</time>
      </trkpt>
      <trkpt lat="43.79669" lon="6.95158">
        <ele>798.7</ele>
        <time>2026-05-15T07:32:56Z</time>
      </trkpt>
      <trkpt lat="43.7967" lon="6.95141">
        <ele>798.4</ele>
        <time>2026-05-15T07:32:57Z</time>
      </trkpt>
      <trkpt lat="43.79669" lon="6.95123">
        <ele>798.4</ele>
        <time>2026-05-15T07:32:58Z</time>
      </trkpt>
      <trkpt lat="43.79669" lon="6.95107">
        <ele>798.8</ele>
        <time>2026-05-15T07:32:59Z</time>
      </trkpt>
      <trkpt lat="43.79669" lon="6.95091">
        <ele>798.8</ele>
        <time>2026-05-15T07:33:00Z</time>
      </trkpt>
      <trkpt lat="43.79668" lon="6.95075">
        <ele>798.7</ele>
        <time>2026-05-15T07:33:01Z</time>
      </trkpt>
      <trkpt lat="43.79667" lon="6.95059">
        <ele>799</ele>
        <time>2026-05-15T07:33:02Z</time>
      </trkpt>
      <trkpt lat="43.79667" lon="6.95044">
        <ele>799.5</ele>
        <time>2026-05-15T07:33:03Z</time>
      </trkpt>
      <trkpt lat="43.79669" lon="6.95027">
        <ele>800.7</ele>
        <time>2026-05-15T07:33:04Z</time>
      </trkpt>
      <trkpt lat="43.79673" lon="6.95011">
        <ele>802.3</ele>
        <time>2026-05-15T07:33:05Z</time>
      </trkpt>
      <trkpt lat="43.79677" lon="6.94994">
        <ele>803.9</ele>
        <time>2026-05-15T07:33:06Z</time>
      </trkpt>
      <trkpt lat="43.79681" lon="6.94976">
        <ele>805.9</ele>
        <time>2026-05-15T07:33:07Z</time>
      </trkpt>
      <trkpt lat="43.79684" lon="6.94959">
        <ele>808.1</ele>
        <time>2026-05-15T07:33:08Z</time>
      </trkpt>
      <trkpt lat="43.79687" lon="6.94942">
        <ele>810.4</ele>
        <time>2026-05-15T07:33:09Z</time>
      </trkpt>
      <trkpt lat="43.79689" lon="6.94924">
        <ele>811.8</ele>
        <time>2026-05-15T07:33:10Z</time>
      </trkpt>
      <trkpt lat="43.7969" lon="6.94905">
        <ele>812.9</ele>
        <time>2026-05-15T07:33:11Z</time>
      </trkpt>
      <trkpt lat="43.79691" lon="6.94888">
        <ele>814</ele>
        <time>2026-05-15T07:33:12Z</time>
      </trkpt>
      <trkpt lat="43.79689" lon="6.94869">
        <ele>814.8</ele>
        <time>2026-05-15T07:33:13Z</time>
      </trkpt>
      <trkpt lat="43.79687" lon="6.9485">
        <ele>815.7</ele>
        <time>2026-05-15T07:33:14Z</time>
      </trkpt>
      <trkpt lat="43.79685" lon="6.94831">
        <ele>816.5</ele>
        <time>2026-05-15T07:33:15Z</time>
      </trkpt>
      <trkpt lat="43.79684" lon="6.94812">
        <ele>817.8</ele>
        <time>2026-05-15T07:33:16Z</time>
      </trkpt>
      <trkpt lat="43.79681" lon="6.94794">
        <ele>818.7</ele>
        <time>2026-05-15T07:33:17Z</time>
      </trkpt>
      <trkpt lat="43.79679" lon="6.94774">
        <ele>820</ele>
        <time>2026-05-15T07:33:18Z</time>
      </trkpt>
      <trkpt lat="43.79678" lon="6.94755">
        <ele>822.1</ele>
        <time>2026-05-15T07:33:19Z</time>
      </trkpt>
      <trkpt lat="43.79675" lon="6.94737">
        <ele>823.9</ele>
        <time>2026-05-15T07:33:20Z</time>
      </trkpt>
      <trkpt lat="43.79671" lon="6.9472">
        <ele>825.2</ele>
        <time>2026-05-15T07:33:21Z</time>
      </trkpt>
      <trkpt lat="43.79668" lon="6.94703">
        <ele>827.8</ele>
        <time>2026-05-15T07:33:22Z</time>
      </trkpt>
      <trkpt lat="43.79664" lon="6.9469">
        <ele>828.7</ele>
        <time>2026-05-15T07:33:23Z</time>
      </trkpt>
      <trkpt lat="43.79661" lon="6.94677">
        <ele>829.8</ele>
        <time>2026-05-15T07:33:24Z</time>
      </trkpt>
      <trkpt lat="43.79657" lon="6.94667">
        <ele>829.8</ele>
        <time>2026-05-15T07:33:25Z</time>
      </trkpt>
      <trkpt lat="43.79655" lon="6.94655">
        <ele>831.5</ele>
        <time>2026-05-15T07:33:26Z</time>
      </trkpt>
      <trkpt lat="43.79651" lon="6.94645">
        <ele>831.9</ele>
        <time>2026-05-15T07:33:27Z</time>
      </trkpt>
      <trkpt lat="43.79647" lon="6.94635">
        <ele>832.2</ele>
        <time>2026-05-15T07:33:28Z</time>
      </trkpt>
      <trkpt lat="43.79643" lon="6.94624">
        <ele>832.5</ele>
        <time>2026-05-15T07:33:29Z</time>
      </trkpt>
      <trkpt lat="43.79638" lon="6.94613">
        <ele>832.4</ele>
        <time>2026-05-15T07:33:30Z</time>
      </trkpt>
      <trkpt lat="43.79634" lon="6.94603">
        <ele>833.1</ele>
        <time>2026-05-15T07:33:31Z</time>
      </trkpt>
      <trkpt lat="43.7963" lon="6.94593">
        <ele>833.8</ele>
        <time>2026-05-15T07:33:32Z</time>
      </trkpt>
      <trkpt lat="43.79626" lon="6.94584">
        <ele>834.2</ele>
        <time>2026-05-15T07:33:33Z</time>
      </trkpt>
      <trkpt lat="43.79622" lon="6.94576">
        <ele>834.1</ele>
        <time>2026-05-15T07:33:34Z</time>
      </trkpt>
      <trkpt lat="43.79619" lon="6.94569">
        <ele>834.3</ele>
        <time>2026-05-15T07:33:35Z</time>
      </trkpt>
      <trkpt lat="43.79617" lon="6.94563">
        <ele>834.6</ele>
        <time>2026-05-15T07:33:36Z</time>
      </trkpt>
      <trkpt lat="43.79615" lon="6.94558">
        <ele>834.8</ele>
        <time>2026-05-15T07:33:37Z</time>
      </trkpt>
      <trkpt lat="43.79613" lon="6.94552">
        <ele>835.3</ele>
        <time>2026-05-15T07:33:38Z</time>
      </trkpt>
      <trkpt lat="43.79612" lon="6.94547">
        <ele>835.8</ele>
        <time>2026-05-15T07:33:39Z</time>
      </trkpt>
      <trkpt lat="43.7961" lon="6.9454">
        <ele>836.5</ele>
        <time>2026-05-15T07:33:40Z</time>
      </trkpt>
      <trkpt lat="43.79609" lon="6.94532">
        <ele>837.6</ele>
        <time>2026-05-15T07:33:41Z</time>
      </trkpt>
      <trkpt lat="43.79608" lon="6.94523">
        <ele>839</ele>
        <time>2026-05-15T07:33:42Z</time>
      </trkpt>
      <trkpt lat="43.79607" lon="6.94513">
        <ele>840.5</ele>
        <time>2026-05-15T07:33:43Z</time>
      </trkpt>
      <trkpt lat="43.79606" lon="6.94501">
        <ele>842.3</ele>
        <time>2026-05-15T07:33:44Z</time>
      </trkpt>
      <trkpt lat="43.79606" lon="6.94489">
        <ele>843.4</ele>
        <time>2026-05-15T07:33:45Z</time>
      </trkpt>
      <trkpt lat="43.79606" lon="6.94476">
        <ele>844.4</ele>
        <time>2026-05-15T07:33:46Z</time>
      </trkpt>
      <trkpt lat="43.79607" lon="6.94461">
        <ele>845.4</ele>
        <time>2026-05-15T07:33:47Z</time>
      </trkpt>
      <trkpt lat="43.79609" lon="6.94447">
        <ele>846.4</ele>
        <time>2026-05-15T07:33:48Z</time>
      </trkpt>
      <trkpt lat="43.7961" lon="6.94433">
        <ele>846.3</ele>
        <time>2026-05-15T07:33:49Z</time>
      </trkpt>
      <trkpt lat="43.79612" lon="6.94419">
        <ele>846.2</ele>
        <time>2026-05-15T07:33:50Z</time>
      </trkpt>
      <trkpt lat="43.79613" lon="6.94406">
        <ele>846</ele>
        <time>2026-05-15T07:33:51Z</time>
      </trkpt>
      <trkpt lat="43.79615" lon="6.94394">
        <ele>845.9</ele>
        <time>2026-05-15T07:33:52Z</time>
      </trkpt>
      <trkpt lat="43.79617" lon="6.94382">
        <ele>845.8</ele>
        <time>2026-05-15T07:33:53Z</time>
      </trkpt>
      <trkpt lat="43.79619" lon="6.94371">
        <ele>845.8</ele>
        <time>2026-05-15T07:33:54Z</time>
      </trkpt>
      <trkpt lat="43.79622" lon="6.9436">
        <ele>845.9</ele>
        <time>2026-05-15T07:33:55Z</time>
      </trkpt>
      <trkpt lat="43.79624" lon="6.9435">
        <ele>845.9</ele>
        <time>2026-05-15T07:33:56Z</time>
      </trkpt>
      <trkpt lat="43.79626" lon="6.94342">
        <ele>845.9</ele>
        <time>2026-05-15T07:33:57Z</time>
      </trkpt>
      <trkpt lat="43.79629" lon="6.94334">
        <ele>846</ele>
        <time>2026-05-15T07:33:58Z</time>
      </trkpt>
      <trkpt lat="43.79631" lon="6.94327">
        <ele>845.9</ele>
        <time>2026-05-15T07:33:59Z</time>
      </trkpt>
      <trkpt lat="43.79632" lon="6.94322">
        <ele>845.8</ele>
        <time>2026-05-15T07:34:00Z</time>
      </trkpt>
      <trkpt lat="43.79632" lon="6.94319">
        <ele>845.7</ele>
        <time>2026-05-15T07:34:01Z</time>
      </trkpt>
      <trkpt lat="43.79632" lon="6.94315">
        <ele>845.6</ele>
        <time>2026-05-15T07:34:02Z</time>
      </trkpt>
      <trkpt lat="43.79632" lon="6.94313">
        <ele>845.5</ele>
        <time>2026-05-15T07:34:03Z</time>
      </trkpt>
      <trkpt lat="43.79632" lon="6.94312">
        <ele>845.5</ele>
        <time>2026-05-15T07:34:04Z</time>
      </trkpt>
      <trkpt lat="43.79632" lon="6.94312">
        <ele>845.5</ele>
        <time>2026-05-15T07:34:05Z</time>
      </trkpt>
      <trkpt lat="43.79632" lon="6.94312">
        <ele>845.5</ele>
        <time>2026-05-15T07:34:06Z</time>
      </trkpt>
      <trkpt lat="43.79632" lon="6.94311">
        <ele>845.5</ele>
        <time>2026-05-15T07:34:07Z</time>
      </trkpt>
      <trkpt lat="43.79632" lon="6.9431">
        <ele>845.4</ele>
        <time>2026-05-15T07:34:08Z</time>
      </trkpt>
      <trkpt lat="43.79632" lon="6.94307">
        <ele>845.3</ele>
        <time>2026-05-15T07:34:09Z</time>
      </trkpt>
      <trkpt lat="43.79632" lon="6.94304">
        <ele>845.2</ele>
        <time>2026-05-15T07:34:10Z</time>
      </trkpt>
      <trkpt lat="43.79632" lon="6.94301">
        <ele>845.1</ele>
        <time>2026-05-15T07:34:11Z</time>
      </trkpt>
      <trkpt lat="43.79632" lon="6.94299">
        <ele>845</ele>
        <time>2026-05-15T07:34:12Z</time>
      </trkpt>
      <trkpt lat="43.79632" lon="6.94297">
        <ele>844.9</ele>
        <time>2026-05-15T07:34:13Z</time>
      </trkpt>
      <trkpt lat="43.79632" lon="6.94296">
        <ele>844.9</ele>
        <time>2026-05-15T07:34:14Z</time>
      </trkpt>
      <trkpt lat="43.79633" lon="6.94295">
        <ele>845</ele>
        <time>2026-05-15T07:34:15Z</time>
      </trkpt>
      <trkpt lat="43.79633" lon="6.94295">
        <ele>845</ele>
        <time>2026-05-15T07:34:16Z</time>
      </trkpt>
      <trkpt lat="43.79633" lon="6.94296">
        <ele>845</ele>
        <time>2026-05-15T07:34:17Z</time>
      </trkpt>
      <trkpt lat="43.79633" lon="6.94296">
        <ele>845</ele>
        <time>2026-05-15T07:34:18Z</time>
      </trkpt>
      <trkpt lat="43.79633" lon="6.94296">
        <ele>845</ele>
        <time>2026-05-15T07:34:19Z</time>
      </trkpt>
      <trkpt lat="43.79633" lon="6.94295">
        <ele>845</ele>
        <time>2026-05-15T07:34:20Z</time>
      </trkpt>
      <trkpt lat="43.79634" lon="6.94293">
        <ele>845</ele>
        <time>2026-05-15T07:34:21Z</time>
      </trkpt>
      <trkpt lat="43.79635" lon="6.9429">
        <ele>845</ele>
        <time>2026-05-15T07:34:22Z</time>
      </trkpt>
      <trkpt lat="43.79636" lon="6.94287">
        <ele>845</ele>
        <time>2026-05-15T07:34:23Z</time>
      </trkpt>
      <trkpt lat="43.79636" lon="6.94285">
        <ele>844.9</ele>
        <time>2026-05-15T07:34:24Z</time>
      </trkpt>
      <trkpt lat="43.79637" lon="6.94282">
        <ele>844.9</ele>
        <time>2026-05-15T07:34:25Z</time>
      </trkpt>
      <trkpt lat="43.79637" lon="6.94279">
        <ele>844.8</ele>
        <time>2026-05-15T07:34:26Z</time>
      </trkpt>
      <trkpt lat="43.79637" lon="6.94277">
        <ele>844.7</ele>
        <time>2026-05-15T07:34:27Z</time>
      </trkpt>
      <trkpt lat="43.79637" lon="6.94275">
        <ele>844.6</ele>
        <time>2026-05-15T07:34:28Z</time>
      </trkpt>
      <trkpt lat="43.79636" lon="6.94273">
        <ele>844.3</ele>
        <time>2026-05-15T07:34:29Z</time>
      </trkpt>
      <trkpt lat="43.79635" lon="6.94271">
        <ele>844.1</ele>
        <time>2026-05-15T07:34:30Z</time>
      </trkpt>
      <trkpt lat="43.79634" lon="6.94269">
        <ele>843.8</ele>
        <time>2026-05-15T07:34:31Z</time>
      </trkpt>
      <trkpt lat="43.79633" lon="6.94267">
        <ele>843.6</ele>
        <time>2026-05-15T07:34:32Z</time>
      </trkpt>
      <trkpt lat="43.79632" lon="6.94264">
        <ele>843.3</ele>
        <time>2026-05-15T07:34:33Z</time>
      </trkpt>
      <trkpt lat="43.79631" lon="6.94262">
        <ele>843</ele>
        <time>2026-05-15T07:34:34Z</time>
      </trkpt>
      <trkpt lat="43.79631" lon="6.94261">
        <ele>842.9</ele>
        <time>2026-05-15T07:34:35Z</time>
      </trkpt>
      <trkpt lat="43.7963" lon="6.9426">
        <ele>842.8</ele>
        <time>2026-05-15T07:34:36Z</time>
      </trkpt>
      <trkpt lat="43.7963" lon="6.94259">
        <ele>842.7</ele>
        <time>2026-05-15T07:34:37Z</time>
      </trkpt>
      <trkpt lat="43.79629" lon="6.94257">
        <ele>842.4</ele>
        <time>2026-05-15T07:34:38Z</time>
      </trkpt>
      <trkpt lat="43.79629" lon="6.94255">
        <ele>842.3</ele>
        <time>2026-05-15T07:34:39Z</time>
      </trkpt>
      <trkpt lat="43.79628" lon="6.94253">
        <ele>842</ele>
        <time>2026-05-15T07:34:40Z</time>
      </trkpt>
      <trkpt lat="43.79628" lon="6.94252">
        <ele>842</ele>
        <time>2026-05-15T07:34:41Z</time>
      </trkpt>
      <trkpt lat="43.79628" lon="6.9425">
        <ele>841.8</ele>
        <time>2026-05-15T07:34:42Z</time>
      </trkpt>
      <trkpt lat="43.79628" lon="6.94249">
        <ele>841.7</ele>
        <time>2026-05-15T07:34:43Z</time>
      </trkpt>
      <trkpt lat="43.79628" lon="6.94248">
        <ele>841.6</ele>
        <time>2026-05-15T07:34:44Z</time>
      </trkpt>
      <trkpt lat="43.79627" lon="6.94248">
        <ele>841.5</ele>
        <time>2026-05-15T07:34:45Z</time>
      </trkpt>
      <trkpt lat="43.79627" lon="6.94248">
        <ele>841.5</ele>
        <time>2026-05-15T07:34:46Z</time>
      </trkpt>
      <trkpt lat="43.79627" lon="6.94248">
        <ele>841.5</ele>
        <time>2026-05-15T07:34:47Z</time>
      </trkpt>
      <trkpt lat="43.79626" lon="6.94248">
        <ele>841.4</ele>
        <time>2026-05-15T07:34:48Z</time>
      </trkpt>
      <trkpt lat="43.79626" lon="6.94248">
        <ele>841.4</ele>
        <time>2026-05-15T07:34:49Z</time>
      </trkpt>
      <trkpt lat="43.79626" lon="6.94248">
        <ele>841.4</ele>
        <time>2026-05-15T07:34:50Z</time>
      </trkpt>
      <trkpt lat="43.79626" lon="6.94248">
        <ele>841.4</ele>
        <time>2026-05-15T07:34:51Z</time>
      </trkpt>
      <trkpt lat="43.79626" lon="6.94248">
        <ele>841.4</ele>
        <time>2026-05-15T07:34:52Z</time>
      </trkpt>
      <trkpt lat="43.79626" lon="6.94248">
        <ele>841.4</ele>
        <time>2026-05-15T07:34:53Z</time>
      </trkpt>
      <trkpt lat="43.79626" lon="6.94248">
        <ele>841.4</ele>
        <time>2026-05-15T07:34:54Z</time>
      </trkpt>
      <trkpt lat="43.79626" lon="6.94249">
        <ele>841.5</ele>
        <time>2026-05-15T07:34:55Z</time>
      </trkpt>
      <trkpt lat="43.79626" lon="6.94249">
        <ele>841.5</ele>
        <time>2026-05-15T07:34:56Z</time>
      </trkpt>
      <trkpt lat="43.79626" lon="6.94249">
        <ele>841.5</ele>
        <time>2026-05-15T07:34:57Z</time>
      </trkpt>
      <trkpt lat="43.79626" lon="6.94249">
        <ele>841.5</ele>
        <time>2026-05-15T07:34:58Z</time>
      </trkpt>
      <trkpt lat="43.79627" lon="6.94249">
        <ele>841.6</ele>
        <time>2026-05-15T07:34:59Z</time>
      </trkpt>
      <trkpt lat="43.79627" lon="6.94249">
        <ele>841.6</ele>
        <time>2026-05-15T07:35:00Z</time>
      </trkpt>
      <trkpt lat="43.79627" lon="6.94249">
        <ele>841.6</ele>
        <time>2026-05-15T07:35:01Z</time>
      </trkpt>
      <trkpt lat="43.79626" lon="6.94249">
        <ele>841.5</ele>
        <time>2026-05-15T07:35:02Z</time>
      </trkpt>
      <trkpt lat="43.79626" lon="6.94249">
        <ele>841.5</ele>
        <time>2026-05-15T07:35:03Z</time>
      </trkpt>
      <trkpt lat="43.79627" lon="6.9425">
        <ele>841.7</ele>
        <time>2026-05-15T07:35:04Z</time>
      </trkpt>
      <trkpt lat="43.79627" lon="6.9425">
        <ele>841.7</ele>
        <time>2026-05-15T07:35:05Z</time>
      </trkpt>
      <trkpt lat="43.79627" lon="6.9425">
        <ele>841.7</ele>
        <time>2026-05-15T07:35:06Z</time>
      </trkpt>
      <trkpt lat="43.79628" lon="6.9425">
        <ele>841.8</ele>
        <time>2026-05-15T07:35:07Z</time>
      </trkpt>
      <trkpt lat="43.79628" lon="6.9425">
        <ele>841.8</ele>
        <time>2026-05-15T07:35:08Z</time>
      </trkpt>
      <trkpt lat="43.79628" lon="6.9425">
        <ele>841.8</ele>
        <time>2026-05-15T07:35:09Z</time>
      </trkpt>
      <trkpt lat="43.79628" lon="6.9425">
        <ele>841.8</ele>
        <time>2026-05-15T07:35:10Z</time>
      </trkpt>
      <trkpt lat="43.79628" lon="6.9425">
        <ele>841.8</ele>
        <time>2026-05-15T07:35:11Z</time>
      </trkpt>
      <trkpt lat="43.79628" lon="6.9425">
        <ele>841.8</ele>
        <time>2026-05-15T07:35:12Z</time>
      </trkpt>
      <trkpt lat="43.79628" lon="6.94249">
        <ele>841.7</ele>
        <time>2026-05-15T07:35:13Z</time>
      </trkpt>
      <trkpt lat="43.79629" lon="6.94249">
        <ele>841.8</ele>
        <time>2026-05-15T07:35:14Z</time>
      </trkpt>
      <trkpt lat="43.79629" lon="6.94249">
        <ele>841.8</ele>
        <time>2026-05-15T07:35:15Z</time>
      </trkpt>
      <trkpt lat="43.79629" lon="6.94249">
        <ele>841.8</ele>
        <time>2026-05-15T07:35:16Z</time>
      </trkpt>
      <trkpt lat="43.79629" lon="6.94249">
        <ele>841.8</ele>
        <time>2026-05-15T07:35:17Z</time>
      </trkpt>
      <trkpt lat="43.79629" lon="6.94249">
        <ele>841.8</ele>
        <time>2026-05-15T07:35:18Z</time>
      </trkpt>
      <trkpt lat="43.79629" lon="6.94249">
        <ele>841.8</ele>
        <time>2026-05-15T07:35:19Z</time>
      </trkpt>
      <trkpt lat="43.79629" lon="6.94249">
        <ele>841.8</ele>
        <time>2026-05-15T07:35:20Z</time>
      </trkpt>
      <trkpt lat="43.79629" lon="6.94249">
        <ele>841.8</ele>
        <time>2026-05-15T07:35:21Z</time>
      </trkpt>
      <trkpt lat="43.79629" lon="6.94249">
        <ele>841.8</ele>
        <time>2026-05-15T07:35:22Z</time>
      </trkpt>
      <trkpt lat="43.79629" lon="6.94249">
        <ele>841.8</ele>
        <time>2026-05-15T07:35:23Z</time>
      </trkpt>
      <trkpt lat="43.79629" lon="6.94249">
        <ele>841.8</ele>
        <time>2026-05-15T07:35:24Z</time>
      </trkpt>
      <trkpt lat="43.79629" lon="6.94249">
        <ele>841.8</ele>
        <time>2026-05-15T07:35:25Z</time>
      </trkpt>
      <trkpt lat="43.79629" lon="6.94249">
        <ele>841.8</ele>
        <time>2026-05-15T07:35:26Z</time>
      </trkpt>
      <trkpt lat="43.79629" lon="6.94249">
        <ele>841.8</ele>
        <time>2026-05-15T07:35:27Z</time>
      </trkpt>
      <trkpt lat="43.79629" lon="6.94249">
        <ele>841.8</ele>
        <time>2026-05-15T07:35:28Z</time>
      </trkpt>
      <trkpt lat="43.79629" lon="6.94249">
        <ele>841.8</ele>
        <time>2026-05-15T07:35:29Z</time>
      </trkpt>
      <trkpt lat="43.79629" lon="6.94249">
        <ele>841.8</ele>
        <time>2026-05-15T07:35:30Z</time>
      </trkpt>
      <trkpt lat="43.79629" lon="6.94249">
        <ele>841.8</ele>
        <time>2026-05-15T07:35:31Z</time>
      </trkpt>
      <trkpt lat="43.79629" lon="6.94249">
        <ele>841.8</ele>
        <time>2026-05-15T07:35:32Z</time>
      </trkpt>
      <trkpt lat="43.79629" lon="6.94249">
        <ele>841.8</ele>
        <time>2026-05-15T07:35:33Z</time>
      </trkpt>
      <trkpt lat="43.79629" lon="6.94249">
        <ele>841.8</ele>
        <time>2026-05-15T07:35:34Z</time>
      </trkpt>
      <trkpt lat="43.79629" lon="6.94249">
        <ele>841.8</ele>
        <time>2026-05-15T07:35:35Z</time>
      </trkpt>
      <trkpt lat="43.79629" lon="6.94249">
        <ele>841.8</ele>
        <time>2026-05-15T07:35:36Z</time>
      </trkpt>
      <trkpt lat="43.79621" lon="6.9425">
        <ele>841.1</ele>
        <time>2026-05-15T08:18:46Z</time>
      </trkpt>
      <trkpt lat="43.79624" lon="6.94249">
        <ele>841.3</ele>
        <time>2026-05-15T08:18:47Z</time>
      </trkpt>
      <trkpt lat="43.79623" lon="6.94249">
        <ele>841.2</ele>
        <time>2026-05-15T08:18:48Z</time>
      </trkpt>
      <trkpt lat="43.79625" lon="6.94249">
        <ele>841.4</ele>
        <time>2026-05-15T08:18:49Z</time>
      </trkpt>
      <trkpt lat="43.79629" lon="6.94249">
        <ele>841.8</ele>
        <time>2026-05-15T08:18:50Z</time>
      </trkpt>
      <trkpt lat="43.79629" lon="6.9425">
        <ele>841.9</ele>
        <time>2026-05-15T08:18:51Z</time>
      </trkpt>
      <trkpt lat="43.79629" lon="6.9425">
        <ele>841.9</ele>
        <time>2026-05-15T08:18:52Z</time>
      </trkpt>
      <trkpt lat="43.79629" lon="6.9425">
        <ele>841.9</ele>
        <time>2026-05-15T08:18:53Z</time>
      </trkpt>
      <trkpt lat="43.79629" lon="6.94251">
        <ele>842</ele>
        <time>2026-05-15T08:18:54Z</time>
      </trkpt>
      <trkpt lat="43.79628" lon="6.94251">
        <ele>841.9</ele>
        <time>2026-05-15T08:18:55Z</time>
      </trkpt>
      <trkpt lat="43.79627" lon="6.94251">
        <ele>841.8</ele>
        <time>2026-05-15T08:18:56Z</time>
      </trkpt>
      <trkpt lat="43.79627" lon="6.94251">
        <ele>841.8</ele>
        <time>2026-05-15T08:18:57Z</time>
      </trkpt>
      <trkpt lat="43.79627" lon="6.94251">
        <ele>841.8</ele>
        <time>2026-05-15T08:18:58Z</time>
      </trkpt>
      <trkpt lat="43.79627" lon="6.94251">
        <ele>841.8</ele>
        <time>2026-05-15T08:18:59Z</time>
      </trkpt>
      <trkpt lat="43.79627" lon="6.94251">
        <ele>841.8</ele>
        <time>2026-05-15T08:19:00Z</time>
      </trkpt>
      <trkpt lat="43.79627" lon="6.94251">
        <ele>841.8</ele>
        <time>2026-05-15T08:19:01Z</time>
      </trkpt>
      <trkpt lat="43.79626" lon="6.94251">
        <ele>841.7</ele>
        <time>2026-05-15T08:19:02Z</time>
      </trkpt>
      <trkpt lat="43.79625" lon="6.94251">
        <ele>841.6</ele>
        <time>2026-05-15T08:19:03Z</time>
      </trkpt>
      <trkpt lat="43.79626" lon="6.94251">
        <ele>841.7</ele>
        <time>2026-05-15T08:19:04Z</time>
      </trkpt>
      <trkpt lat="43.79626" lon="6.94251">
        <ele>841.7</ele>
        <time>2026-05-15T08:19:05Z</time>
      </trkpt>
      <trkpt lat="43.79626" lon="6.94251">
        <ele>841.7</ele>
        <time>2026-05-15T08:19:06Z</time>
      </trkpt>
      <trkpt lat="43.79626" lon="6.9425">
        <ele>841.6</ele>
        <time>2026-05-15T08:19:07Z</time>
      </trkpt>
      <trkpt lat="43.79626" lon="6.9425">
        <ele>841.6</ele>
        <time>2026-05-15T08:19:08Z</time>
      </trkpt>
      <trkpt lat="43.79627" lon="6.9425">
        <ele>841.7</ele>
        <time>2026-05-15T08:19:09Z</time>
      </trkpt>
      <trkpt lat="43.79627" lon="6.9425">
        <ele>841.7</ele>
        <time>2026-05-15T08:19:10Z</time>
      </trkpt>
      <trkpt lat="43.79627" lon="6.94249">
        <ele>841.6</ele>
        <time>2026-05-15T08:19:11Z</time>
      </trkpt>
      <trkpt lat="43.79627" lon="6.94249">
        <ele>841.6</ele>
        <time>2026-05-15T08:19:12Z</time>
      </trkpt>
      <trkpt lat="43.79627" lon="6.94249">
        <ele>841.6</ele>
        <time>2026-05-15T08:19:13Z</time>
      </trkpt>
      <trkpt lat="43.79627" lon="6.9425">
        <ele>841.7</ele>
        <time>2026-05-15T08:19:14Z</time>
      </trkpt>
      <trkpt lat="43.79627" lon="6.9425">
        <ele>841.7</ele>
        <time>2026-05-15T08:19:15Z</time>
      </trkpt>
      <trkpt lat="43.79627" lon="6.9425">
        <ele>841.7</ele>
        <time>2026-05-15T08:19:16Z</time>
      </trkpt>
      <trkpt lat="43.79626" lon="6.9425">
        <ele>841.6</ele>
        <time>2026-05-15T08:19:17Z</time>
      </trkpt>
      <trkpt lat="43.79625" lon="6.94249">
        <ele>841.4</ele>
        <time>2026-05-15T08:19:18Z</time>
      </trkpt>
      <trkpt lat="43.79624" lon="6.94248">
        <ele>841.2</ele>
        <time>2026-05-15T08:19:19Z</time>
      </trkpt>
      <trkpt lat="43.79622" lon="6.94246">
        <ele>840.8</ele>
        <time>2026-05-15T08:19:20Z</time>
      </trkpt>
      <trkpt lat="43.7962" lon="6.94244">
        <ele>840.5</ele>
        <time>2026-05-15T08:19:21Z</time>
      </trkpt>
      <trkpt lat="43.79618" lon="6.94244">
        <ele>840.3</ele>
        <time>2026-05-15T08:19:22Z</time>
      </trkpt>
      <trkpt lat="43.79617" lon="6.94244">
        <ele>840.2</ele>
        <time>2026-05-15T08:19:23Z</time>
      </trkpt>
      <trkpt lat="43.79616" lon="6.94245">
        <ele>840.1</ele>
        <time>2026-05-15T08:19:24Z</time>
      </trkpt>
      <trkpt lat="43.79615" lon="6.94247">
        <ele>840.2</ele>
        <time>2026-05-15T08:19:25Z</time>
      </trkpt>
      <trkpt lat="43.79615" lon="6.94249">
        <ele>840.3</ele>
        <time>2026-05-15T08:19:26Z</time>
      </trkpt>
      <trkpt lat="43.79615" lon="6.94251">
        <ele>840.5</ele>
        <time>2026-05-15T08:19:27Z</time>
      </trkpt>
      <trkpt lat="43.79616" lon="6.94254">
        <ele>840.8</ele>
        <time>2026-05-15T08:19:28Z</time>
      </trkpt>
      <trkpt lat="43.79616" lon="6.94256">
        <ele>841</ele>
        <time>2026-05-15T08:19:29Z</time>
      </trkpt>
      <trkpt lat="43.79617" lon="6.94257">
        <ele>841.1</ele>
        <time>2026-05-15T08:19:30Z</time>
      </trkpt>
      <trkpt lat="43.79617" lon="6.94258">
        <ele>841.2</ele>
        <time>2026-05-15T08:19:31Z</time>
      </trkpt>
      <trkpt lat="43.79618" lon="6.94258">
        <ele>841.3</ele>
        <time>2026-05-15T08:19:32Z</time>
      </trkpt>
      <trkpt lat="43.79618" lon="6.94258">
        <ele>841.3</ele>
        <time>2026-05-15T08:19:33Z</time>
      </trkpt>
      <trkpt lat="43.79619" lon="6.94258">
        <ele>841.4</ele>
        <time>2026-05-15T08:19:34Z</time>
      </trkpt>
      <trkpt lat="43.79619" lon="6.94258">
        <ele>841.4</ele>
        <time>2026-05-15T08:19:35Z</time>
      </trkpt>
      <trkpt lat="43.79619" lon="6.94258">
        <ele>841.4</ele>
        <time>2026-05-15T08:19:36Z</time>
      </trkpt>
      <trkpt lat="43.79619" lon="6.94259">
        <ele>841.5</ele>
        <time>2026-05-15T08:19:37Z</time>
      </trkpt>
      <trkpt lat="43.7962" lon="6.94261">
        <ele>841.8</ele>
        <time>2026-05-15T08:19:38Z</time>
      </trkpt>
      <trkpt lat="43.79621" lon="6.94265">
        <ele>842.1</ele>
        <time>2026-05-15T08:19:39Z</time>
      </trkpt>
      <trkpt lat="43.79622" lon="6.94269">
        <ele>842.5</ele>
        <time>2026-05-15T08:19:40Z</time>
      </trkpt>
      <trkpt lat="43.79623" lon="6.94272">
        <ele>842.9</ele>
        <time>2026-05-15T08:19:41Z</time>
      </trkpt>
      <trkpt lat="43.79624" lon="6.94274">
        <ele>843.1</ele>
        <time>2026-05-15T08:19:42Z</time>
      </trkpt>
      <trkpt lat="43.79625" lon="6.94277">
        <ele>843.4</ele>
        <time>2026-05-15T08:19:43Z</time>
      </trkpt>
      <trkpt lat="43.79625" lon="6.94279">
        <ele>843.5</ele>
        <time>2026-05-15T08:19:44Z</time>
      </trkpt>
      <trkpt lat="43.79626" lon="6.94281">
        <ele>843.7</ele>
        <time>2026-05-15T08:19:45Z</time>
      </trkpt>
      <trkpt lat="43.79626" lon="6.94283">
        <ele>843.8</ele>
        <time>2026-05-15T08:19:46Z</time>
      </trkpt>
      <trkpt lat="43.79627" lon="6.94284">
        <ele>843.9</ele>
        <time>2026-05-15T08:19:47Z</time>
      </trkpt>
      <trkpt lat="43.79627" lon="6.94286">
        <ele>844</ele>
        <time>2026-05-15T08:19:48Z</time>
      </trkpt>
      <trkpt lat="43.79627" lon="6.94286">
        <ele>844</ele>
        <time>2026-05-15T08:19:49Z</time>
      </trkpt>
      <trkpt lat="43.79627" lon="6.94285">
        <ele>844</ele>
        <time>2026-05-15T08:19:50Z</time>
      </trkpt>
      <trkpt lat="43.79627" lon="6.94285">
        <ele>844</ele>
        <time>2026-05-15T08:19:51Z</time>
      </trkpt>
      <trkpt lat="43.79627" lon="6.94284">
        <ele>843.9</ele>
        <time>2026-05-15T08:19:52Z</time>
      </trkpt>
      <trkpt lat="43.79627" lon="6.94284">
        <ele>843.9</ele>
        <time>2026-05-15T08:19:53Z</time>
      </trkpt>
      <trkpt lat="43.79627" lon="6.94284">
        <ele>843.9</ele>
        <time>2026-05-15T08:19:54Z</time>
      </trkpt>
      <trkpt lat="43.79627" lon="6.94284">
        <ele>843.9</ele>
        <time>2026-05-15T08:19:55Z</time>
      </trkpt>
      <trkpt lat="43.79627" lon="6.94284">
        <ele>843.9</ele>
        <time>2026-05-15T08:19:56Z</time>
      </trkpt>
      <trkpt lat="43.79627" lon="6.94284">
        <ele>843.9</ele>
        <time>2026-05-15T08:19:57Z</time>
      </trkpt>
      <trkpt lat="43.79627" lon="6.94284">
        <ele>843.9</ele>
        <time>2026-05-15T08:19:58Z</time>
      </trkpt>
      <trkpt lat="43.79627" lon="6.94284">
        <ele>843.9</ele>
        <time>2026-05-15T08:19:59Z</time>
      </trkpt>
      <trkpt lat="43.79627" lon="6.94283">
        <ele>843.9</ele>
        <time>2026-05-15T08:20:00Z</time>
      </trkpt>
      <trkpt lat="43.79627" lon="6.94283">
        <ele>843.9</ele>
        <time>2026-05-15T08:20:01Z</time>
      </trkpt>
      <trkpt lat="43.79627" lon="6.94283">
        <ele>843.9</ele>
        <time>2026-05-15T08:20:02Z</time>
      </trkpt>
      <trkpt lat="43.79627" lon="6.94283">
        <ele>843.9</ele>
        <time>2026-05-15T08:20:03Z</time>
      </trkpt>
      <trkpt lat="43.79627" lon="6.94283">
        <ele>843.9</ele>
        <time>2026-05-15T08:20:04Z</time>
      </trkpt>
      <trkpt lat="43.79627" lon="6.94283">
        <ele>843.9</ele>
        <time>2026-05-15T08:20:05Z</time>
      </trkpt>
      <trkpt lat="43.79627" lon="6.94283">
        <ele>843.9</ele>
        <time>2026-05-15T08:20:06Z</time>
      </trkpt>
      <trkpt lat="43.79627" lon="6.94283">
        <ele>843.9</ele>
        <time>2026-05-15T08:20:07Z</time>
      </trkpt>
      <trkpt lat="43.79628" lon="6.94283">
        <ele>844</ele>
        <time>2026-05-15T08:20:08Z</time>
      </trkpt>
      <trkpt lat="43.79628" lon="6.94283">
        <ele>844</ele>
        <time>2026-05-15T08:20:09Z</time>
      </trkpt>
      <trkpt lat="43.79628" lon="6.94283">
        <ele>844</ele>
        <time>2026-05-15T08:20:10Z</time>
      </trkpt>
      <trkpt lat="43.79628" lon="6.94283">
        <ele>844</ele>
        <time>2026-05-15T08:20:11Z</time>
      </trkpt>
      <trkpt lat="43.79628" lon="6.94283">
        <ele>844</ele>
        <time>2026-05-15T08:20:12Z</time>
      </trkpt>
      <trkpt lat="43.79628" lon="6.94283">
        <ele>844</ele>
        <time>2026-05-15T08:20:13Z</time>
      </trkpt>
      <trkpt lat="43.79628" lon="6.94283">
        <ele>844</ele>
        <time>2026-05-15T08:20:14Z</time>
      </trkpt>
      <trkpt lat="43.79628" lon="6.94283">
        <ele>844</ele>
        <time>2026-05-15T08:20:15Z</time>
      </trkpt>
      <trkpt lat="43.79628" lon="6.94283">
        <ele>844</ele>
        <time>2026-05-15T08:20:16Z</time>
      </trkpt>
      <trkpt lat="43.79628" lon="6.94283">
        <ele>844</ele>
        <time>2026-05-15T08:20:17Z</time>
      </trkpt>
      <trkpt lat="43.79628" lon="6.94283">
        <ele>844</ele>
        <time>2026-05-15T08:20:18Z</time>
      </trkpt>
      <trkpt lat="43.79628" lon="6.94283">
        <ele>844</ele>
        <time>2026-05-15T08:20:19Z</time>
      </trkpt>
      <trkpt lat="43.79628" lon="6.94283">
        <ele>844</ele>
        <time>2026-05-15T08:20:20Z</time>
      </trkpt>
      <trkpt lat="43.79628" lon="6.94283">
        <ele>844</ele>
        <time>2026-05-15T08:20:21Z</time>
      </trkpt>
      <trkpt lat="43.79628" lon="6.94283">
        <ele>844</ele>
        <time>2026-05-15T08:20:22Z</time>
      </trkpt>
      <trkpt lat="43.79628" lon="6.94283">
        <ele>844</ele>
        <time>2026-05-15T08:20:23Z</time>
      </trkpt>
      <trkpt lat="43.79628" lon="6.94283">
        <ele>844</ele>
        <time>2026-05-15T08:20:24Z</time>
      </trkpt>
      <trkpt lat="43.79628" lon="6.94283">
        <ele>844</ele>
        <time>2026-05-15T08:20:25Z</time>
      </trkpt>
      <trkpt lat="43.79628" lon="6.94283">
        <ele>844</ele>
        <time>2026-05-15T08:20:26Z</time>
      </trkpt>
      <trkpt lat="43.79628" lon="6.94283">
        <ele>844</ele>
        <time>2026-05-15T08:20:27Z</time>
      </trkpt>
      <trkpt lat="43.79628" lon="6.94283">
        <ele>844</ele>
        <time>2026-05-15T08:20:28Z</time>
      </trkpt>
      <trkpt lat="43.79628" lon="6.94283">
        <ele>844</ele>
        <time>2026-05-15T08:20:29Z</time>
      </trkpt>
      <trkpt lat="43.79628" lon="6.94283">
        <ele>844</ele>
        <time>2026-05-15T08:20:30Z</time>
      </trkpt>
      <trkpt lat="43.79628" lon="6.94283">
        <ele>844</ele>
        <time>2026-05-15T08:20:31Z</time>
      </trkpt>
      <trkpt lat="43.79628" lon="6.94283">
        <ele>844</ele>
        <time>2026-05-15T08:20:32Z</time>
      </trkpt>
      <trkpt lat="43.79628" lon="6.94283">
        <ele>844</ele>
        <time>2026-05-15T08:20:33Z</time>
      </trkpt>
      <trkpt lat="43.79628" lon="6.94283">
        <ele>844</ele>
        <time>2026-05-15T08:20:34Z</time>
      </trkpt>
      <trkpt lat="43.79628" lon="6.94283">
        <ele>844</ele>
        <time>2026-05-15T08:20:35Z</time>
      </trkpt>
      <trkpt lat="43.79628" lon="6.94283">
        <ele>844</ele>
        <time>2026-05-15T08:20:36Z</time>
      </trkpt>
      <trkpt lat="43.79628" lon="6.94283">
        <ele>844</ele>
        <time>2026-05-15T08:20:37Z</time>
      </trkpt>
      <trkpt lat="43.79628" lon="6.94283">
        <ele>844</ele>
        <time>2026-05-15T08:20:38Z</time>
      </trkpt>
      <trkpt lat="43.79628" lon="6.94283">
        <ele>844</ele>
        <time>2026-05-15T08:20:39Z</time>
      </trkpt>
      <trkpt lat="43.79628" lon="6.94283">
        <ele>844</ele>
        <time>2026-05-15T08:20:40Z</time>
      </trkpt>
      <trkpt lat="43.79628" lon="6.94283">
        <ele>844</ele>
        <time>2026-05-15T08:20:41Z</time>
      </trkpt>
      <trkpt lat="43.79628" lon="6.94283">
        <ele>844</ele>
        <time>2026-05-15T08:20:42Z</time>
      </trkpt>
      <trkpt lat="43.79628" lon="6.94283">
        <ele>844</ele>
        <time>2026-05-15T08:20:43Z</time>
      </trkpt>
      <trkpt lat="43.79628" lon="6.94283">
        <ele>844</ele>
        <time>2026-05-15T08:20:44Z</time>
      </trkpt>
      <trkpt lat="43.79628" lon="6.94283">
        <ele>844</ele>
        <time>2026-05-15T08:20:45Z</time>
      </trkpt>
      <trkpt lat="43.79628" lon="6.94283">
        <ele>844</ele>
        <time>2026-05-15T08:20:46Z</time>
      </trkpt>
      <trkpt lat="43.79628" lon="6.94283">
        <ele>844</ele>
        <time>2026-05-15T08:20:47Z</time>
      </trkpt>
      <trkpt lat="43.79628" lon="6.94283">
        <ele>844</ele>
        <time>2026-05-15T08:20:48Z</time>
      </trkpt>
      <trkpt lat="43.79628" lon="6.94283">
        <ele>844</ele>
        <time>2026-05-15T08:20:49Z</time>
      </trkpt>
      <trkpt lat="43.79628" lon="6.94283">
        <ele>844</ele>
        <time>2026-05-15T08:20:50Z</time>
      </trkpt>
      <trkpt lat="43.79628" lon="6.94283">
        <ele>844</ele>
        <time>2026-05-15T08:20:51Z</time>
      </trkpt>
      <trkpt lat="43.79628" lon="6.94283">
        <ele>844</ele>
        <time>2026-05-15T08:20:52Z</time>
      </trkpt>
      <trkpt lat="43.79628" lon="6.94283">
        <ele>844</ele>
        <time>2026-05-15T08:20:53Z</time>
      </trkpt>
      <trkpt lat="43.79628" lon="6.94283">
        <ele>844</ele>
        <time>2026-05-15T08:20:54Z</time>
      </trkpt>
      <trkpt lat="43.79628" lon="6.94283">
        <ele>844</ele>
        <time>2026-05-15T08:20:55Z</time>
      </trkpt>
      <trkpt lat="43.79628" lon="6.94283">
        <ele>844</ele>
        <time>2026-05-15T08:20:56Z</time>
      </trkpt>
      <trkpt lat="43.79628" lon="6.94283">
        <ele>844</ele>
        <time>2026-05-15T08:20:57Z</time>
      </trkpt>
      <trkpt lat="43.79628" lon="6.94283">
        <ele>844</ele>
        <time>2026-05-15T08:20:58Z</time>
      </trkpt>
      <trkpt lat="43.79628" lon="6.94283">
        <ele>844</ele>
        <time>2026-05-15T08:20:59Z</time>
      </trkpt>
      <trkpt lat="43.79628" lon="6.94283">
        <ele>844</ele>
        <time>2026-05-15T08:21:00Z</time>
      </trkpt>
      <trkpt lat="43.79628" lon="6.94283">
        <ele>844</ele>
        <time>2026-05-15T08:21:01Z</time>
      </trkpt>
      <trkpt lat="43.79628" lon="6.94283">
        <ele>844</ele>
        <time>2026-05-15T08:21:02Z</time>
      </trkpt>
      <trkpt lat="43.79628" lon="6.94283">
        <ele>844</ele>
        <time>2026-05-15T08:21:03Z</time>
      </trkpt>
      <trkpt lat="43.79628" lon="6.94283">
        <ele>844</ele>
        <time>2026-05-15T08:21:04Z</time>
      </trkpt>
      <trkpt lat="43.79628" lon="6.94283">
        <ele>844</ele>
        <time>2026-05-15T08:21:05Z</time>
      </trkpt>
      <trkpt lat="43.79628" lon="6.94283">
        <ele>844</ele>
        <time>2026-05-15T08:21:06Z</time>
      </trkpt>
      <trkpt lat="43.79628" lon="6.94283">
        <ele>844</ele>
        <time>2026-05-15T08:21:07Z</time>
      </trkpt>
      <trkpt lat="43.79628" lon="6.94283">
        <ele>844</ele>
        <time>2026-05-15T08:21:08Z</time>
      </trkpt>
      <trkpt lat="43.79628" lon="6.94283">
        <ele>844</ele>
        <time>2026-05-15T08:21:09Z</time>
      </trkpt>
      <trkpt lat="43.79628" lon="6.94283">
        <ele>844</ele>
        <time>2026-05-15T08:21:10Z</time>
      </trkpt>
      <trkpt lat="43.79628" lon="6.94283">
        <ele>844</ele>
        <time>2026-05-15T08:21:11Z</time>
      </trkpt>
      <trkpt lat="43.79628" lon="6.94283">
        <ele>844</ele>
        <time>2026-05-15T08:21:12Z</time>
      </trkpt>
      <trkpt lat="43.79628" lon="6.94283">
        <ele>844</ele>
        <time>2026-05-15T08:21:13Z</time>
      </trkpt>
      <trkpt lat="43.79628" lon="6.94283">
        <ele>844</ele>
        <time>2026-05-15T08:21:14Z</time>
      </trkpt>
      <trkpt lat="43.79628" lon="6.94283">
        <ele>844</ele>
        <time>2026-05-15T08:21:15Z</time>
      </trkpt>
      <trkpt lat="43.79628" lon="6.94283">
        <ele>844</ele>
        <time>2026-05-15T08:21:16Z</time>
      </trkpt>
      <trkpt lat="43.79628" lon="6.94283">
        <ele>844</ele>
        <time>2026-05-15T08:21:17Z</time>
      </trkpt>
      <trkpt lat="43.79628" lon="6.94283">
        <ele>844</ele>
        <time>2026-05-15T08:21:18Z</time>
      </trkpt>
      <trkpt lat="43.79628" lon="6.94283">
        <ele>844</ele>
        <time>2026-05-15T08:21:19Z</time>
      </trkpt>
      <trkpt lat="43.79628" lon="6.94283">
        <ele>844</ele>
        <time>2026-05-15T08:21:20Z</time>
      </trkpt>
      <trkpt lat="43.79628" lon="6.94283">
        <ele>844</ele>
        <time>2026-05-15T08:21:21Z</time>
      </trkpt>
      <trkpt lat="43.79628" lon="6.94283">
        <ele>844</ele>
        <time>2026-05-15T08:21:22Z</time>
      </trkpt>
      <trkpt lat="43.79628" lon="6.94283">
        <ele>844</ele>
        <time>2026-05-15T08:21:23Z</time>
      </trkpt>
      <trkpt lat="43.79628" lon="6.94283">
        <ele>844</ele>
        <time>2026-05-15T08:21:24Z</time>
      </trkpt>
      <trkpt lat="43.79628" lon="6.94283">
        <ele>844</ele>
        <time>2026-05-15T08:21:25Z</time>
      </trkpt>
      <trkpt lat="43.79628" lon="6.94283">
        <ele>844</ele>
        <time>2026-05-15T08:21:26Z</time>
      </trkpt>
      <trkpt lat="43.79628" lon="6.94283">
        <ele>844</ele>
        <time>2026-05-15T08:21:27Z</time>
      </trkpt>
      <trkpt lat="43.79628" lon="6.94283">
        <ele>844</ele>
        <time>2026-05-15T08:21:28Z</time>
      </trkpt>
      <trkpt lat="43.79628" lon="6.94283">
        <ele>844</ele>
        <time>2026-05-15T08:21:29Z</time>
      </trkpt>
      <trkpt lat="43.79628" lon="6.94283">
        <ele>844</ele>
        <time>2026-05-15T08:21:30Z</time>
      </trkpt>
      <trkpt lat="43.79628" lon="6.94283">
        <ele>844</ele>
        <time>2026-05-15T08:21:31Z</time>
      </trkpt>
      <trkpt lat="43.79628" lon="6.94283">
        <ele>844</ele>
        <time>2026-05-15T08:21:32Z</time>
      </trkpt>
      <trkpt lat="43.79628" lon="6.94283">
        <ele>844</ele>
        <time>2026-05-15T08:21:33Z</time>
      </trkpt>
      <trkpt lat="43.79628" lon="6.94283">
        <ele>844</ele>
        <time>2026-05-15T08:21:34Z</time>
      </trkpt>
      <trkpt lat="43.79628" lon="6.94283">
        <ele>844</ele>
        <time>2026-05-15T08:21:35Z</time>
      </trkpt>
      <trkpt lat="43.79628" lon="6.94283">
        <ele>844</ele>
        <time>2026-05-15T08:21:36Z</time>
      </trkpt>
      <trkpt lat="43.79628" lon="6.94283">
        <ele>844</ele>
        <time>2026-05-15T08:21:37Z</time>
      </trkpt>
      <trkpt lat="43.79628" lon="6.94283">
        <ele>844</ele>
        <time>2026-05-15T08:21:38Z</time>
      </trkpt>
      <trkpt lat="43.79628" lon="6.94283">
        <ele>844</ele>
        <time>2026-05-15T08:21:39Z</time>
      </trkpt>
      <trkpt lat="43.79628" lon="6.94283">
        <ele>844</ele>
        <time>2026-05-15T08:21:40Z</time>
      </trkpt>
      <trkpt lat="43.79628" lon="6.94283">
        <ele>844</ele>
        <time>2026-05-15T08:21:41Z</time>
      </trkpt>
      <trkpt lat="43.79628" lon="6.94283">
        <ele>844</ele>
        <time>2026-05-15T08:21:42Z</time>
      </trkpt>
      <trkpt lat="43.79627" lon="6.94283">
        <ele>843.9</ele>
        <time>2026-05-15T08:21:43Z</time>
      </trkpt>
      <trkpt lat="43.79627" lon="6.94283">
        <ele>843.9</ele>
        <time>2026-05-15T08:21:44Z</time>
      </trkpt>
      <trkpt lat="43.79627" lon="6.94283">
        <ele>843.9</ele>
        <time>2026-05-15T08:21:45Z</time>
      </trkpt>
      <trkpt lat="43.79627" lon="6.94283">
        <ele>843.9</ele>
        <time>2026-05-15T08:21:46Z</time>
      </trkpt>
      <trkpt lat="43.79627" lon="6.94283">
        <ele>843.9</ele>
        <time>2026-05-15T08:21:47Z</time>
      </trkpt>
      <trkpt lat="43.79627" lon="6.94283">
        <ele>843.9</ele>
        <time>2026-05-15T08:21:48Z</time>
      </trkpt>
      <trkpt lat="43.79627" lon="6.94283">
        <ele>843.9</ele>
        <time>2026-05-15T08:21:49Z</time>
      </trkpt>
      <trkpt lat="43.79627" lon="6.94283">
        <ele>843.9</ele>
        <time>2026-05-15T08:21:50Z</time>
      </trkpt>
      <trkpt lat="43.79627" lon="6.94283">
        <ele>843.9</ele>
        <time>2026-05-15T08:21:51Z</time>
      </trkpt>
      <trkpt lat="43.79627" lon="6.94283">
        <ele>843.9</ele>
        <time>2026-05-15T08:21:52Z</time>
      </trkpt>
      <trkpt lat="43.79627" lon="6.94283">
        <ele>843.9</ele>
        <time>2026-05-15T08:21:53Z</time>
      </trkpt>
      <trkpt lat="43.79627" lon="6.94283">
        <ele>843.9</ele>
        <time>2026-05-15T08:21:54Z</time>
      </trkpt>
      <trkpt lat="43.79627" lon="6.94283">
        <ele>843.9</ele>
        <time>2026-05-15T08:21:55Z</time>
      </trkpt>
      <trkpt lat="43.79627" lon="6.94283">
        <ele>843.9</ele>
        <time>2026-05-15T08:21:56Z</time>
      </trkpt>
      <trkpt lat="43.79627" lon="6.94283">
        <ele>843.9</ele>
        <time>2026-05-15T08:21:57Z</time>
      </trkpt>
      <trkpt lat="43.79627" lon="6.94283">
        <ele>843.9</ele>
        <time>2026-05-15T08:21:58Z</time>
      </trkpt>
      <trkpt lat="43.79627" lon="6.94283">
        <ele>843.9</ele>
        <time>2026-05-15T08:21:59Z</time>
      </trkpt>
      <trkpt lat="43.79627" lon="6.94283">
        <ele>843.9</ele>
        <time>2026-05-15T08:22:00Z</time>
      </trkpt>
      <trkpt lat="43.79627" lon="6.94283">
        <ele>843.9</ele>
        <time>2026-05-15T08:22:01Z</time>
      </trkpt>
      <trkpt lat="43.79627" lon="6.94283">
        <ele>843.9</ele>
        <time>2026-05-15T08:22:02Z</time>
      </trkpt>
      <trkpt lat="43.79627" lon="6.94283">
        <ele>843.9</ele>
        <time>2026-05-15T08:22:03Z</time>
      </trkpt>
      <trkpt lat="43.79627" lon="6.94283">
        <ele>843.9</ele>
        <time>2026-05-15T08:22:04Z</time>
      </trkpt>
      <trkpt lat="43.79627" lon="6.94283">
        <ele>843.9</ele>
        <time>2026-05-15T08:22:05Z</time>
      </trkpt>
      <trkpt lat="43.79627" lon="6.94283">
        <ele>843.9</ele>
        <time>2026-05-15T08:22:06Z</time>
      </trkpt>
      <trkpt lat="43.79627" lon="6.94283">
        <ele>843.9</ele>
        <time>2026-05-15T08:22:07Z</time>
      </trkpt>
      <trkpt lat="43.79627" lon="6.94283">
        <ele>843.9</ele>
        <time>2026-05-15T08:22:08Z</time>
      </trkpt>
      <trkpt lat="43.79627" lon="6.94283">
        <ele>843.9</ele>
        <time>2026-05-15T08:22:09Z</time>
      </trkpt>
      <trkpt lat="43.79627" lon="6.94283">
        <ele>843.9</ele>
        <time>2026-05-15T08:22:10Z</time>
      </trkpt>
      <trkpt lat="43.79627" lon="6.94283">
        <ele>843.9</ele>
        <time>2026-05-15T08:22:11Z</time>
      </trkpt>
      <trkpt lat="43.79627" lon="6.94283">
        <ele>843.9</ele>
        <time>2026-05-15T08:22:12Z</time>
      </trkpt>
      <trkpt lat="43.79627" lon="6.94283">
        <ele>843.9</ele>
        <time>2026-05-15T08:22:13Z</time>
      </trkpt>
      <trkpt lat="43.79627" lon="6.94283">
        <ele>843.9</ele>
        <time>2026-05-15T08:22:14Z</time>
      </trkpt>
      <trkpt lat="43.79627" lon="6.94283">
        <ele>843.9</ele>
        <time>2026-05-15T08:22:15Z</time>
      </trkpt>
      <trkpt lat="43.79627" lon="6.94283">
        <ele>843.9</ele>
        <time>2026-05-15T08:22:16Z</time>
      </trkpt>
      <trkpt lat="43.79627" lon="6.94283">
        <ele>843.9</ele>
        <time>2026-05-15T08:22:17Z</time>
      </trkpt>
      <trkpt lat="43.79627" lon="6.94283">
        <ele>843.9</ele>
        <time>2026-05-15T08:22:18Z</time>
      </trkpt>
      <trkpt lat="43.79627" lon="6.94283">
        <ele>843.9</ele>
        <time>2026-05-15T08:22:19Z</time>
      </trkpt>
      <trkpt lat="43.79627" lon="6.94283">
        <ele>843.9</ele>
        <time>2026-05-15T08:22:20Z</time>
      </trkpt>
      <trkpt lat="43.79627" lon="6.94283">
        <ele>843.9</ele>
        <time>2026-05-15T08:22:21Z</time>
      </trkpt>
      <trkpt lat="43.79627" lon="6.94283">
        <ele>843.9</ele>
        <time>2026-05-15T08:22:22Z</time>
      </trkpt>
      <trkpt lat="43.79627" lon="6.94283">
        <ele>843.9</ele>
        <time>2026-05-15T08:22:23Z</time>
      </trkpt>
      <trkpt lat="43.79627" lon="6.94283">
        <ele>843.9</ele>
        <time>2026-05-15T08:22:24Z</time>
      </trkpt>
      <trkpt lat="43.79627" lon="6.94283">
        <ele>843.9</ele>
        <time>2026-05-15T08:22:25Z</time>
      </trkpt>
      <trkpt lat="43.79627" lon="6.94283">
        <ele>843.9</ele>
        <time>2026-05-15T08:22:26Z</time>
      </trkpt>
      <trkpt lat="43.79627" lon="6.94283">
        <ele>843.9</ele>
        <time>2026-05-15T08:22:27Z</time>
      </trkpt>
      <trkpt lat="43.79627" lon="6.94283">
        <ele>843.9</ele>
        <time>2026-05-15T08:22:28Z</time>
      </trkpt>
      <trkpt lat="43.79627" lon="6.94283">
        <ele>843.9</ele>
        <time>2026-05-15T08:22:29Z</time>
      </trkpt>
      <trkpt lat="43.79627" lon="6.94283">
        <ele>843.9</ele>
        <time>2026-05-15T08:22:30Z</time>
      </trkpt>
      <trkpt lat="43.79627" lon="6.94283">
        <ele>843.9</ele>
        <time>2026-05-15T08:22:31Z</time>
      </trkpt>
      <trkpt lat="43.79627" lon="6.94283">
        <ele>843.9</ele>
        <time>2026-05-15T08:22:32Z</time>
      </trkpt>
      <trkpt lat="43.79627" lon="6.94283">
        <ele>843.9</ele>
        <time>2026-05-15T08:22:33Z</time>
      </trkpt>
      <trkpt lat="43.79627" lon="6.94283">
        <ele>843.9</ele>
        <time>2026-05-15T08:22:34Z</time>
      </trkpt>
      <trkpt lat="43.79627" lon="6.94283">
        <ele>843.9</ele>
        <time>2026-05-15T08:22:35Z</time>
      </trkpt>
      <trkpt lat="43.79627" lon="6.94283">
        <ele>843.9</ele>
        <time>2026-05-15T08:22:36Z</time>
      </trkpt>
      <trkpt lat="43.79627" lon="6.94283">
        <ele>843.9</ele>
        <time>2026-05-15T08:22:37Z</time>
      </trkpt>
      <trkpt lat="43.79627" lon="6.94283">
        <ele>843.9</ele>
        <time>2026-05-15T08:22:38Z</time>
      </trkpt>
      <trkpt lat="43.79627" lon="6.94283">
        <ele>843.9</ele>
        <time>2026-05-15T08:22:39Z</time>
      </trkpt>
      <trkpt lat="43.79627" lon="6.94283">
        <ele>843.9</ele>
        <time>2026-05-15T08:22:40Z</time>
      </trkpt>
      <trkpt lat="43.79627" lon="6.94284">
        <ele>843.9</ele>
        <time>2026-05-15T08:22:41Z</time>
      </trkpt>
      <trkpt lat="43.79627" lon="6.94284">
        <ele>843.9</ele>
        <time>2026-05-15T08:22:42Z</time>
      </trkpt>
      <trkpt lat="43.79627" lon="6.94284">
        <ele>843.9</ele>
        <time>2026-05-15T08:22:43Z</time>
      </trkpt>
      <trkpt lat="43.79627" lon="6.94284">
        <ele>843.9</ele>
        <time>2026-05-15T08:22:44Z</time>
      </trkpt>
      <trkpt lat="43.79627" lon="6.94284">
        <ele>843.9</ele>
        <time>2026-05-15T08:22:45Z</time>
      </trkpt>
      <trkpt lat="43.79627" lon="6.94284">
        <ele>843.9</ele>
        <time>2026-05-15T08:22:46Z</time>
      </trkpt>
      <trkpt lat="43.79627" lon="6.94284">
        <ele>843.9</ele>
        <time>2026-05-15T08:22:47Z</time>
      </trkpt>
      <trkpt lat="43.79627" lon="6.94284">
        <ele>843.9</ele>
        <time>2026-05-15T08:22:48Z</time>
      </trkpt>
      <trkpt lat="43.79627" lon="6.94284">
        <ele>843.9</ele>
        <time>2026-05-15T08:22:49Z</time>
      </trkpt>
      <trkpt lat="43.79627" lon="6.94284">
        <ele>843.9</ele>
        <time>2026-05-15T08:22:50Z</time>
      </trkpt>
      <trkpt lat="43.79627" lon="6.94284">
        <ele>843.9</ele>
        <time>2026-05-15T08:22:51Z</time>
      </trkpt>
      <trkpt lat="43.79627" lon="6.94284">
        <ele>843.9</ele>
        <time>2026-05-15T08:22:52Z</time>
      </trkpt>
      <trkpt lat="43.79627" lon="6.94284">
        <ele>843.9</ele>
        <time>2026-05-15T08:22:53Z</time>
      </trkpt>
      <trkpt lat="43.79627" lon="6.94284">
        <ele>843.9</ele>
        <time>2026-05-15T08:22:54Z</time>
      </trkpt>
      <trkpt lat="43.79627" lon="6.94284">
        <ele>843.9</ele>
        <time>2026-05-15T08:22:55Z</time>
      </trkpt>
      <trkpt lat="43.79627" lon="6.94284">
        <ele>843.9</ele>
        <time>2026-05-15T08:22:56Z</time>
      </trkpt>
      <trkpt lat="43.79627" lon="6.94284">
        <ele>843.9</ele>
        <time>2026-05-15T08:22:57Z</time>
      </trkpt>
      <trkpt lat="43.79627" lon="6.94284">
        <ele>843.9</ele>
        <time>2026-05-15T08:22:58Z</time>
      </trkpt>
      <trkpt lat="43.79627" lon="6.94284">
        <ele>843.9</ele>
        <time>2026-05-15T08:22:59Z</time>
      </trkpt>
      <trkpt lat="43.79627" lon="6.94284">
        <ele>843.9</ele>
        <time>2026-05-15T08:23:00Z</time>
      </trkpt>
      <trkpt lat="43.79627" lon="6.94284">
        <ele>843.9</ele>
        <time>2026-05-15T08:23:01Z</time>
      </trkpt>
      <trkpt lat="43.79627" lon="6.94284">
        <ele>843.9</ele>
        <time>2026-05-15T08:23:02Z</time>
      </trkpt>
      <trkpt lat="43.79627" lon="6.94284">
        <ele>843.9</ele>
        <time>2026-05-15T08:23:03Z</time>
      </trkpt>
      <trkpt lat="43.79627" lon="6.94284">
        <ele>843.9</ele>
        <time>2026-05-15T08:23:04Z</time>
      </trkpt>
      <trkpt lat="43.79627" lon="6.94284">
        <ele>843.9</ele>
        <time>2026-05-15T08:23:05Z</time>
      </trkpt>
      <trkpt lat="43.79627" lon="6.94284">
        <ele>843.9</ele>
        <time>2026-05-15T08:23:06Z</time>
      </trkpt>
      <trkpt lat="43.79627" lon="6.94284">
        <ele>843.9</ele>
        <time>2026-05-15T08:23:07Z</time>
      </trkpt>
      <trkpt lat="43.79627" lon="6.94284">
        <ele>843.9</ele>
        <time>2026-05-15T08:23:08Z</time>
      </trkpt>
      <trkpt lat="43.79627" lon="6.94285">
        <ele>844</ele>
        <time>2026-05-15T08:23:09Z</time>
      </trkpt>
      <trkpt lat="43.79627" lon="6.94285">
        <ele>844</ele>
        <time>2026-05-15T08:23:10Z</time>
      </trkpt>
      <trkpt lat="43.79627" lon="6.94285">
        <ele>844</ele>
        <time>2026-05-15T08:23:11Z</time>
      </trkpt>
      <trkpt lat="43.79626" lon="6.94285">
        <ele>843.9</ele>
        <time>2026-05-15T08:23:12Z</time>
      </trkpt>
      <trkpt lat="43.79626" lon="6.94285">
        <ele>843.9</ele>
        <time>2026-05-15T08:23:13Z</time>
      </trkpt>
      <trkpt lat="43.79626" lon="6.94285">
        <ele>843.9</ele>
        <time>2026-05-15T08:23:14Z</time>
      </trkpt>
      <trkpt lat="43.79626" lon="6.94286">
        <ele>843.9</ele>
        <time>2026-05-15T08:23:15Z</time>
      </trkpt>
      <trkpt lat="43.79626" lon="6.94286">
        <ele>843.9</ele>
        <time>2026-05-15T08:23:16Z</time>
      </trkpt>
      <trkpt lat="43.79626" lon="6.94286">
        <ele>843.9</ele>
        <time>2026-05-15T08:23:17Z</time>
      </trkpt>
      <trkpt lat="43.79626" lon="6.94286">
        <ele>843.9</ele>
        <time>2026-05-15T08:23:18Z</time>
      </trkpt>
      <trkpt lat="43.79626" lon="6.94286">
        <ele>843.9</ele>
        <time>2026-05-15T08:23:19Z</time>
      </trkpt>
      <trkpt lat="43.79626" lon="6.94286">
        <ele>843.9</ele>
        <time>2026-05-15T08:23:20Z</time>
      </trkpt>
      <trkpt lat="43.79626" lon="6.94286">
        <ele>843.9</ele>
        <time>2026-05-15T08:23:21Z</time>
      </trkpt>
      <trkpt lat="43.79626" lon="6.94286">
        <ele>843.9</ele>
        <time>2026-05-15T08:23:22Z</time>
      </trkpt>
      <trkpt lat="43.79626" lon="6.94286">
        <ele>843.9</ele>
        <time>2026-05-15T08:23:23Z</time>
      </trkpt>
      <trkpt lat="43.79626" lon="6.94286">
        <ele>843.9</ele>
        <time>2026-05-15T08:23:24Z</time>
      </trkpt>
      <trkpt lat="43.79626" lon="6.94286">
        <ele>843.9</ele>
        <time>2026-05-15T08:23:25Z</time>
      </trkpt>
      <trkpt lat="43.79626" lon="6.94286">
        <ele>843.9</ele>
        <time>2026-05-15T08:23:26Z</time>
      </trkpt>
      <trkpt lat="43.79626" lon="6.94286">
        <ele>843.9</ele>
        <time>2026-05-15T08:23:27Z</time>
      </trkpt>
      <trkpt lat="43.79626" lon="6.94286">
        <ele>843.9</ele>
        <time>2026-05-15T08:23:28Z</time>
      </trkpt>
      <trkpt lat="43.79626" lon="6.94286">
        <ele>843.9</ele>
        <time>2026-05-15T08:23:29Z</time>
      </trkpt>
      <trkpt lat="43.79626" lon="6.94286">
        <ele>843.9</ele>
        <time>2026-05-15T08:23:30Z</time>
      </trkpt>
      <trkpt lat="43.79626" lon="6.94286">
        <ele>843.9</ele>
        <time>2026-05-15T08:23:31Z</time>
      </trkpt>
      <trkpt lat="43.79626" lon="6.94286">
        <ele>843.9</ele>
        <time>2026-05-15T08:23:32Z</time>
      </trkpt>
      <trkpt lat="43.79626" lon="6.94286">
        <ele>843.9</ele>
        <time>2026-05-15T08:23:33Z</time>
      </trkpt>
      <trkpt lat="43.79626" lon="6.94286">
        <ele>843.9</ele>
        <time>2026-05-15T08:23:34Z</time>
      </trkpt>
      <trkpt lat="43.79626" lon="6.94286">
        <ele>843.9</ele>
        <time>2026-05-15T08:23:35Z</time>
      </trkpt>
      <trkpt lat="43.79626" lon="6.94286">
        <ele>843.9</ele>
        <time>2026-05-15T08:23:36Z</time>
      </trkpt>
      <trkpt lat="43.79626" lon="6.94286">
        <ele>843.9</ele>
        <time>2026-05-15T08:23:37Z</time>
      </trkpt>
      <trkpt lat="43.79626" lon="6.94286">
        <ele>843.9</ele>
        <time>2026-05-15T08:23:38Z</time>
      </trkpt>
      <trkpt lat="43.79626" lon="6.94286">
        <ele>843.9</ele>
        <time>2026-05-15T08:23:39Z</time>
      </trkpt>
      <trkpt lat="43.79626" lon="6.94286">
        <ele>843.9</ele>
        <time>2026-05-15T08:23:40Z</time>
      </trkpt>
      <trkpt lat="43.79626" lon="6.94286">
        <ele>843.9</ele>
        <time>2026-05-15T08:23:41Z</time>
      </trkpt>
      <trkpt lat="43.79626" lon="6.94286">
        <ele>843.9</ele>
        <time>2026-05-15T08:23:42Z</time>
      </trkpt>
      <trkpt lat="43.79626" lon="6.94286">
        <ele>843.9</ele>
        <time>2026-05-15T08:23:43Z</time>
      </trkpt>
      <trkpt lat="43.79626" lon="6.94286">
        <ele>843.9</ele>
        <time>2026-05-15T08:23:44Z</time>
      </trkpt>
      <trkpt lat="43.79626" lon="6.94286">
        <ele>843.9</ele>
        <time>2026-05-15T08:23:45Z</time>
      </trkpt>
      <trkpt lat="43.79626" lon="6.94286">
        <ele>843.9</ele>
        <time>2026-05-15T08:23:46Z</time>
      </trkpt>
      <trkpt lat="43.79626" lon="6.94286">
        <ele>843.9</ele>
        <time>2026-05-15T08:23:47Z</time>
      </trkpt>
      <trkpt lat="43.79626" lon="6.94286">
        <ele>843.9</ele>
        <time>2026-05-15T08:23:48Z</time>
      </trkpt>
      <trkpt lat="43.79626" lon="6.94286">
        <ele>843.9</ele>
        <time>2026-05-15T08:23:49Z</time>
      </trkpt>
      <trkpt lat="43.79626" lon="6.94286">
        <ele>843.9</ele>
        <time>2026-05-15T08:23:50Z</time>
      </trkpt>
      <trkpt lat="43.79626" lon="6.94286">
        <ele>843.9</ele>
        <time>2026-05-15T08:23:51Z</time>
      </trkpt>
      <trkpt lat="43.79626" lon="6.94286">
        <ele>843.9</ele>
        <time>2026-05-15T08:23:52Z</time>
      </trkpt>
      <trkpt lat="43.79626" lon="6.94286">
        <ele>843.9</ele>
        <time>2026-05-15T08:23:53Z</time>
      </trkpt>
      <trkpt lat="43.79626" lon="6.94286">
        <ele>843.9</ele>
        <time>2026-05-15T08:23:54Z</time>
      </trkpt>
      <trkpt lat="43.79626" lon="6.94286">
        <ele>843.9</ele>
        <time>2026-05-15T08:23:55Z</time>
      </trkpt>
      <trkpt lat="43.79626" lon="6.94286">
        <ele>843.9</ele>
        <time>2026-05-15T08:23:56Z</time>
      </trkpt>
      <trkpt lat="43.79626" lon="6.94286">
        <ele>843.9</ele>
        <time>2026-05-15T08:23:57Z</time>
      </trkpt>
      <trkpt lat="43.79626" lon="6.94286">
        <ele>843.9</ele>
        <time>2026-05-15T08:23:58Z</time>
      </trkpt>
      <trkpt lat="43.79626" lon="6.94286">
        <ele>843.9</ele>
        <time>2026-05-15T08:23:59Z</time>
      </trkpt>
      <trkpt lat="43.79626" lon="6.94286">
        <ele>843.9</ele>
        <time>2026-05-15T08:24:00Z</time>
      </trkpt>
      <trkpt lat="43.79626" lon="6.94286">
        <ele>843.9</ele>
        <time>2026-05-15T08:24:01Z</time>
      </trkpt>
      <trkpt lat="43.79626" lon="6.94286">
        <ele>843.9</ele>
        <time>2026-05-15T08:24:02Z</time>
      </trkpt>
      <trkpt lat="43.79626" lon="6.94286">
        <ele>843.9</ele>
        <time>2026-05-15T08:24:03Z</time>
      </trkpt>
      <trkpt lat="43.79626" lon="6.94286">
        <ele>843.9</ele>
        <time>2026-05-15T08:24:04Z</time>
      </trkpt>
      <trkpt lat="43.79626" lon="6.94286">
        <ele>843.9</ele>
        <time>2026-05-15T08:24:05Z</time>
      </trkpt>
      <trkpt lat="43.79626" lon="6.94286">
        <ele>843.9</ele>
        <time>2026-05-15T08:24:06Z</time>
      </trkpt>
      <trkpt lat="43.79626" lon="6.94286">
        <ele>843.9</ele>
        <time>2026-05-15T08:24:07Z</time>
      </trkpt>
      <trkpt lat="43.79626" lon="6.94286">
        <ele>843.9</ele>
        <time>2026-05-15T08:24:08Z</time>
      </trkpt>
      <trkpt lat="43.79626" lon="6.94286">
        <ele>843.9</ele>
        <time>2026-05-15T08:24:09Z</time>
      </trkpt>
      <trkpt lat="43.79626" lon="6.94286">
        <ele>843.9</ele>
        <time>2026-05-15T08:24:10Z</time>
      </trkpt>
      <trkpt lat="43.79626" lon="6.94286">
        <ele>843.9</ele>
        <time>2026-05-15T08:24:11Z</time>
      </trkpt>
      <trkpt lat="43.79626" lon="6.94286">
        <ele>843.9</ele>
        <time>2026-05-15T08:24:12Z</time>
      </trkpt>
      <trkpt lat="43.79626" lon="6.94286">
        <ele>843.9</ele>
        <time>2026-05-15T08:24:13Z</time>
      </trkpt>
      <trkpt lat="43.79626" lon="6.94286">
        <ele>843.9</ele>
        <time>2026-05-15T08:24:14Z</time>
      </trkpt>
      <trkpt lat="43.79626" lon="6.94287">
        <ele>843.9</ele>
        <time>2026-05-15T08:24:15Z</time>
      </trkpt>
      <trkpt lat="43.79627" lon="6.94289">
        <ele>844.1</ele>
        <time>2026-05-15T08:24:16Z</time>
      </trkpt>
      <trkpt lat="43.79628" lon="6.94293">
        <ele>844.4</ele>
        <time>2026-05-15T08:24:17Z</time>
      </trkpt>
      <trkpt lat="43.79629" lon="6.94297">
        <ele>844.6</ele>
        <time>2026-05-15T08:24:18Z</time>
      </trkpt>
      <trkpt lat="43.7963" lon="6.943">
        <ele>844.8</ele>
        <time>2026-05-15T08:24:19Z</time>
      </trkpt>
      <trkpt lat="43.79631" lon="6.94303">
        <ele>845.1</ele>
        <time>2026-05-15T08:24:20Z</time>
      </trkpt>
      <trkpt lat="43.79632" lon="6.94306">
        <ele>845.3</ele>
        <time>2026-05-15T08:24:21Z</time>
      </trkpt>
      <trkpt lat="43.79635" lon="6.94307">
        <ele>845.6</ele>
        <time>2026-05-15T08:24:22Z</time>
      </trkpt>
      <trkpt lat="43.79641" lon="6.94301">
        <ele>846.3</ele>
        <time>2026-05-15T08:24:23Z</time>
      </trkpt>
      <trkpt lat="43.79645" lon="6.94293">
        <ele>846.8</ele>
        <time>2026-05-15T08:24:24Z</time>
      </trkpt>
      <trkpt lat="43.79647" lon="6.94285">
        <ele>846.8</ele>
        <time>2026-05-15T08:24:25Z</time>
      </trkpt>
      <trkpt lat="43.7965" lon="6.94275">
        <ele>846.8</ele>
        <time>2026-05-15T08:24:26Z</time>
      </trkpt>
      <trkpt lat="43.79653" lon="6.94263">
        <ele>846.5</ele>
        <time>2026-05-15T08:24:27Z</time>
      </trkpt>
      <trkpt lat="43.79655" lon="6.9425">
        <ele>845.9</ele>
        <time>2026-05-15T08:24:28Z</time>
      </trkpt>
      <trkpt lat="43.79658" lon="6.94237">
        <ele>844.7</ele>
        <time>2026-05-15T08:24:29Z</time>
      </trkpt>
      <trkpt lat="43.7966" lon="6.94224">
        <ele>843.3</ele>
        <time>2026-05-15T08:24:30Z</time>
      </trkpt>
      <trkpt lat="43.79662" lon="6.94211">
        <ele>841.7</ele>
        <time>2026-05-15T08:24:31Z</time>
      </trkpt>
      <trkpt lat="43.79665" lon="6.94198">
        <ele>840.3</ele>
        <time>2026-05-15T08:24:32Z</time>
      </trkpt>
      <trkpt lat="43.79669" lon="6.94185">
        <ele>840</ele>
        <time>2026-05-15T08:24:33Z</time>
      </trkpt>
      <trkpt lat="43.79675" lon="6.94172">
        <ele>840.9</ele>
        <time>2026-05-15T08:24:34Z</time>
      </trkpt>
      <trkpt lat="43.79682" lon="6.94159">
        <ele>842.1</ele>
        <time>2026-05-15T08:24:35Z</time>
      </trkpt>
      <trkpt lat="43.79689" lon="6.94144">
        <ele>843.2</ele>
        <time>2026-05-15T08:24:36Z</time>
      </trkpt>
      <trkpt lat="43.79696" lon="6.94128">
        <ele>844.3</ele>
        <time>2026-05-15T08:24:37Z</time>
      </trkpt>
      <trkpt lat="43.79701" lon="6.94112">
        <ele>844.4</ele>
        <time>2026-05-15T08:24:38Z</time>
      </trkpt>
      <trkpt lat="43.79705" lon="6.94096">
        <ele>845.4</ele>
        <time>2026-05-15T08:24:39Z</time>
      </trkpt>
      <trkpt lat="43.79708" lon="6.9408">
        <ele>845.9</ele>
        <time>2026-05-15T08:24:40Z</time>
      </trkpt>
      <trkpt lat="43.79712" lon="6.94066">
        <ele>847.8</ele>
        <time>2026-05-15T08:24:41Z</time>
      </trkpt>
      <trkpt lat="43.79714" lon="6.9405">
        <ele>848.8</ele>
        <time>2026-05-15T08:24:42Z</time>
      </trkpt>
      <trkpt lat="43.79715" lon="6.94034">
        <ele>849.3</ele>
        <time>2026-05-15T08:24:43Z</time>
      </trkpt>
      <trkpt lat="43.79715" lon="6.94019">
        <ele>849.2</ele>
        <time>2026-05-15T08:24:44Z</time>
      </trkpt>
      <trkpt lat="43.79715" lon="6.94004">
        <ele>849</ele>
        <time>2026-05-15T08:24:45Z</time>
      </trkpt>
      <trkpt lat="43.79713" lon="6.93988">
        <ele>849.1</ele>
        <time>2026-05-15T08:24:46Z</time>
      </trkpt>
      <trkpt lat="43.79711" lon="6.93972">
        <ele>849.4</ele>
        <time>2026-05-15T08:24:47Z</time>
      </trkpt>
      <trkpt lat="43.7971" lon="6.93956">
        <ele>850.2</ele>
        <time>2026-05-15T08:24:48Z</time>
      </trkpt>
      <trkpt lat="43.79708" lon="6.93941">
        <ele>850.6</ele>
        <time>2026-05-15T08:24:49Z</time>
      </trkpt>
      <trkpt lat="43.79706" lon="6.93928">
        <ele>850.6</ele>
        <time>2026-05-15T08:24:50Z</time>
      </trkpt>
      <trkpt lat="43.79705" lon="6.93917">
        <ele>850.8</ele>
        <time>2026-05-15T08:24:51Z</time>
      </trkpt>
      <trkpt lat="43.79704" lon="6.93905">
        <ele>850.7</ele>
        <time>2026-05-15T08:24:52Z</time>
      </trkpt>
      <trkpt lat="43.79706" lon="6.93893">
        <ele>851.7</ele>
        <time>2026-05-15T08:24:53Z</time>
      </trkpt>
      <trkpt lat="43.79709" lon="6.93882">
        <ele>852.2</ele>
        <time>2026-05-15T08:24:54Z</time>
      </trkpt>
      <trkpt lat="43.79713" lon="6.93872">
        <ele>852.6</ele>
        <time>2026-05-15T08:24:55Z</time>
      </trkpt>
      <trkpt lat="43.79719" lon="6.93864">
        <ele>853.5</ele>
        <time>2026-05-15T08:24:56Z</time>
      </trkpt>
      <trkpt lat="43.79727" lon="6.93857">
        <ele>854.1</ele>
        <time>2026-05-15T08:24:57Z</time>
      </trkpt>
      <trkpt lat="43.79734" lon="6.93852">
        <ele>854.5</ele>
        <time>2026-05-15T08:24:58Z</time>
      </trkpt>
      <trkpt lat="43.79743" lon="6.9385">
        <ele>855.7</ele>
        <time>2026-05-15T08:24:59Z</time>
      </trkpt>
      <trkpt lat="43.79751" lon="6.93851">
        <ele>857.1</ele>
        <time>2026-05-15T08:25:00Z</time>
      </trkpt>
      <trkpt lat="43.79759" lon="6.93853">
        <ele>859</ele>
        <time>2026-05-15T08:25:01Z</time>
      </trkpt>
      <trkpt lat="43.79766" lon="6.93858">
        <ele>860.7</ele>
        <time>2026-05-15T08:25:02Z</time>
      </trkpt>
      <trkpt lat="43.79771" lon="6.93865">
        <ele>862</ele>
        <time>2026-05-15T08:25:03Z</time>
      </trkpt>
      <trkpt lat="43.79776" lon="6.93874">
        <ele>863.2</ele>
        <time>2026-05-15T08:25:04Z</time>
      </trkpt>
      <trkpt lat="43.79778" lon="6.93886">
        <ele>864</ele>
        <time>2026-05-15T08:25:05Z</time>
      </trkpt>
      <trkpt lat="43.7978" lon="6.939">
        <ele>865.1</ele>
        <time>2026-05-15T08:25:06Z</time>
      </trkpt>
      <trkpt lat="43.79781" lon="6.93915">
        <ele>865.9</ele>
        <time>2026-05-15T08:25:07Z</time>
      </trkpt>
      <trkpt lat="43.79781" lon="6.93931">
        <ele>866.4</ele>
        <time>2026-05-15T08:25:08Z</time>
      </trkpt>
      <trkpt lat="43.79782" lon="6.93947">
        <ele>867.2</ele>
        <time>2026-05-15T08:25:09Z</time>
      </trkpt>
      <trkpt lat="43.7978" lon="6.93963">
        <ele>867.3</ele>
        <time>2026-05-15T08:25:10Z</time>
      </trkpt>
      <trkpt lat="43.79777" lon="6.93978">
        <ele>867.8</ele>
        <time>2026-05-15T08:25:11Z</time>
      </trkpt>
      <trkpt lat="43.79772" lon="6.93993">
        <ele>868.7</ele>
        <time>2026-05-15T08:25:12Z</time>
      </trkpt>
      <trkpt lat="43.79767" lon="6.94007">
        <ele>869</ele>
        <time>2026-05-15T08:25:13Z</time>
      </trkpt>
      <trkpt lat="43.79762" lon="6.94022">
        <ele>869.6</ele>
        <time>2026-05-15T08:25:14Z</time>
      </trkpt>
      <trkpt lat="43.79758" lon="6.94039">
        <ele>869.6</ele>
        <time>2026-05-15T08:25:15Z</time>
      </trkpt>
      <trkpt lat="43.79756" lon="6.94056">
        <ele>869.8</ele>
        <time>2026-05-15T08:25:16Z</time>
      </trkpt>
      <trkpt lat="43.79755" lon="6.94076">
        <ele>870.8</ele>
        <time>2026-05-15T08:25:17Z</time>
      </trkpt>
      <trkpt lat="43.79755" lon="6.94096">
        <ele>871.9</ele>
        <time>2026-05-15T08:25:18Z</time>
      </trkpt>
      <trkpt lat="43.79753" lon="6.94117">
        <ele>872.3</ele>
        <time>2026-05-15T08:25:19Z</time>
      </trkpt>
      <trkpt lat="43.79749" lon="6.94137">
        <ele>873.2</ele>
        <time>2026-05-15T08:25:20Z</time>
      </trkpt>
      <trkpt lat="43.79744" lon="6.94157">
        <ele>874.2</ele>
        <time>2026-05-15T08:25:21Z</time>
      </trkpt>
      <trkpt lat="43.7974" lon="6.94177">
        <ele>875.6</ele>
        <time>2026-05-15T08:25:22Z</time>
      </trkpt>
      <trkpt lat="43.79739" lon="6.94195">
        <ele>877.7</ele>
        <time>2026-05-15T08:25:23Z</time>
      </trkpt>
      <trkpt lat="43.79737" lon="6.94213">
        <ele>877.5</ele>
        <time>2026-05-15T08:25:24Z</time>
      </trkpt>
      <trkpt lat="43.79736" lon="6.9423">
        <ele>877.9</ele>
        <time>2026-05-15T08:25:25Z</time>
      </trkpt>
      <trkpt lat="43.79735" lon="6.94248">
        <ele>878.3</ele>
        <time>2026-05-15T08:25:26Z</time>
      </trkpt>
      <trkpt lat="43.79735" lon="6.94265">
        <ele>878.4</ele>
        <time>2026-05-15T08:25:27Z</time>
      </trkpt>
      <trkpt lat="43.79737" lon="6.94283">
        <ele>879.2</ele>
        <time>2026-05-15T08:25:28Z</time>
      </trkpt>
      <trkpt lat="43.7974" lon="6.943">
        <ele>879.9</ele>
        <time>2026-05-15T08:25:29Z</time>
      </trkpt>
      <trkpt lat="43.79743" lon="6.94316">
        <ele>881</ele>
        <time>2026-05-15T08:25:30Z</time>
      </trkpt>
      <trkpt lat="43.79745" lon="6.9433">
        <ele>881.8</ele>
        <time>2026-05-15T08:25:31Z</time>
      </trkpt>
      <trkpt lat="43.79746" lon="6.94343">
        <ele>882.3</ele>
        <time>2026-05-15T08:25:32Z</time>
      </trkpt>
      <trkpt lat="43.79746" lon="6.94355">
        <ele>882.3</ele>
        <time>2026-05-15T08:25:33Z</time>
      </trkpt>
      <trkpt lat="43.79745" lon="6.94366">
        <ele>881.7</ele>
        <time>2026-05-15T08:25:34Z</time>
      </trkpt>
      <trkpt lat="43.79744" lon="6.94374">
        <ele>881</ele>
        <time>2026-05-15T08:25:35Z</time>
      </trkpt>
      <trkpt lat="43.79743" lon="6.94381">
        <ele>880.4</ele>
        <time>2026-05-15T08:25:36Z</time>
      </trkpt>
      <trkpt lat="43.79743" lon="6.94388">
        <ele>880.3</ele>
        <time>2026-05-15T08:25:37Z</time>
      </trkpt>
      <trkpt lat="43.79743" lon="6.94395">
        <ele>880.3</ele>
        <time>2026-05-15T08:25:38Z</time>
      </trkpt>
      <trkpt lat="43.79745" lon="6.94401">
        <ele>881.1</ele>
        <time>2026-05-15T08:25:39Z</time>
      </trkpt>
      <trkpt lat="43.79749" lon="6.94406">
        <ele>882.6</ele>
        <time>2026-05-15T08:25:40Z</time>
      </trkpt>
      <trkpt lat="43.79755" lon="6.94406">
        <ele>885</ele>
        <time>2026-05-15T08:25:41Z</time>
      </trkpt>
      <trkpt lat="43.79759" lon="6.94402">
        <ele>886.7</ele>
        <time>2026-05-15T08:25:42Z</time>
      </trkpt>
      <trkpt lat="43.79762" lon="6.94394">
        <ele>888.1</ele>
        <time>2026-05-15T08:25:43Z</time>
      </trkpt>
      <trkpt lat="43.79762" lon="6.94384">
        <ele>888.4</ele>
        <time>2026-05-15T08:25:44Z</time>
      </trkpt>
      <trkpt lat="43.7976" lon="6.94372">
        <ele>887.9</ele>
        <time>2026-05-15T08:25:45Z</time>
      </trkpt>
      <trkpt lat="43.79759" lon="6.94358">
        <ele>887.9</ele>
        <time>2026-05-15T08:25:46Z</time>
      </trkpt>
      <trkpt lat="43.79759" lon="6.94343">
        <ele>887.7</ele>
        <time>2026-05-15T08:25:47Z</time>
      </trkpt>
      <trkpt lat="43.7976" lon="6.94326">
        <ele>888</ele>
        <time>2026-05-15T08:25:48Z</time>
      </trkpt>
      <trkpt lat="43.79761" lon="6.94308">
        <ele>888.4</ele>
        <time>2026-05-15T08:25:49Z</time>
      </trkpt>
      <trkpt lat="43.79762" lon="6.94292">
        <ele>889.5</ele>
        <time>2026-05-15T08:25:50Z</time>
      </trkpt>
      <trkpt lat="43.79762" lon="6.94277">
        <ele>890.3</ele>
        <time>2026-05-15T08:25:51Z</time>
      </trkpt>
      <trkpt lat="43.79762" lon="6.94262">
        <ele>890.6</ele>
        <time>2026-05-15T08:25:52Z</time>
      </trkpt>
      <trkpt lat="43.79763" lon="6.94246">
        <ele>891</ele>
        <time>2026-05-15T08:25:53Z</time>
      </trkpt>
      <trkpt lat="43.79766" lon="6.94232">
        <ele>891.7</ele>
        <time>2026-05-15T08:25:54Z</time>
      </trkpt>
      <trkpt lat="43.79772" lon="6.94221">
        <ele>893.6</ele>
        <time>2026-05-15T08:25:55Z</time>
      </trkpt>
      <trkpt lat="43.79779" lon="6.94212">
        <ele>895.2</ele>
        <time>2026-05-15T08:25:56Z</time>
      </trkpt>
      <trkpt lat="43.79789" lon="6.94204">
        <ele>896.5</ele>
        <time>2026-05-15T08:25:57Z</time>
      </trkpt>
      <trkpt lat="43.79798" lon="6.94196">
        <ele>897.5</ele>
        <time>2026-05-15T08:25:58Z</time>
      </trkpt>
      <trkpt lat="43.79807" lon="6.94184">
        <ele>898.4</ele>
        <time>2026-05-15T08:25:59Z</time>
      </trkpt>
      <trkpt lat="43.79813" lon="6.94169">
        <ele>898.9</ele>
        <time>2026-05-15T08:26:00Z</time>
      </trkpt>
      <trkpt lat="43.79818" lon="6.94152">
        <ele>900</ele>
        <time>2026-05-15T08:26:01Z</time>
      </trkpt>
      <trkpt lat="43.79822" lon="6.94133">
        <ele>900.6</ele>
        <time>2026-05-15T08:26:02Z</time>
      </trkpt>
      <trkpt lat="43.79829" lon="6.94116">
        <ele>901.5</ele>
        <time>2026-05-15T08:26:03Z</time>
      </trkpt>
      <trkpt lat="43.79837" lon="6.94098">
        <ele>903.3</ele>
        <time>2026-05-15T08:26:04Z</time>
      </trkpt>
      <trkpt lat="43.79846" lon="6.94083">
        <ele>905.6</ele>
        <time>2026-05-15T08:26:05Z</time>
      </trkpt>
      <trkpt lat="43.79855" lon="6.94066">
        <ele>905.7</ele>
        <time>2026-05-15T08:26:06Z</time>
      </trkpt>
      <trkpt lat="43.79863" lon="6.9405">
        <ele>906.4</ele>
        <time>2026-05-15T08:26:07Z</time>
      </trkpt>
      <trkpt lat="43.7987" lon="6.94031">
        <ele>907.3</ele>
        <time>2026-05-15T08:26:08Z</time>
      </trkpt>
      <trkpt lat="43.79877" lon="6.94013">
        <ele>907.7</ele>
        <time>2026-05-15T08:26:09Z</time>
      </trkpt>
      <trkpt lat="43.79884" lon="6.93994">
        <ele>908.2</ele>
        <time>2026-05-15T08:26:10Z</time>
      </trkpt>
      <trkpt lat="43.79891" lon="6.93976">
        <ele>909.5</ele>
        <time>2026-05-15T08:26:11Z</time>
      </trkpt>
      <trkpt lat="43.79897" lon="6.93958">
        <ele>911.8</ele>
        <time>2026-05-15T08:26:12Z</time>
      </trkpt>
      <trkpt lat="43.79901" lon="6.9394">
        <ele>913.9</ele>
        <time>2026-05-15T08:26:13Z</time>
      </trkpt>
      <trkpt lat="43.79901" lon="6.93922">
        <ele>914.2</ele>
        <time>2026-05-15T08:26:14Z</time>
      </trkpt>
      <trkpt lat="43.79898" lon="6.93904">
        <ele>914.2</ele>
        <time>2026-05-15T08:26:15Z</time>
      </trkpt>
      <trkpt lat="43.79893" lon="6.93886">
        <ele>914</ele>
        <time>2026-05-15T08:26:16Z</time>
      </trkpt>
      <trkpt lat="43.79887" lon="6.93867">
        <ele>914.1</ele>
        <time>2026-05-15T08:26:17Z</time>
      </trkpt>
      <trkpt lat="43.79881" lon="6.93847">
        <ele>914.6</ele>
        <time>2026-05-15T08:26:18Z</time>
      </trkpt>
      <trkpt lat="43.79875" lon="6.93827">
        <ele>915.1</ele>
        <time>2026-05-15T08:26:19Z</time>
      </trkpt>
      <trkpt lat="43.79868" lon="6.93806">
        <ele>915.9</ele>
        <time>2026-05-15T08:26:20Z</time>
      </trkpt>
      <trkpt lat="43.79861" lon="6.93785">
        <ele>917.4</ele>
        <time>2026-05-15T08:26:21Z</time>
      </trkpt>
      <trkpt lat="43.79855" lon="6.93765">
        <ele>918</ele>
        <time>2026-05-15T08:26:22Z</time>
      </trkpt>
      <trkpt lat="43.79851" lon="6.93744">
        <ele>919.3</ele>
        <time>2026-05-15T08:26:23Z</time>
      </trkpt>
      <trkpt lat="43.79849" lon="6.93724">
        <ele>920.8</ele>
        <time>2026-05-15T08:26:24Z</time>
      </trkpt>
      <trkpt lat="43.79847" lon="6.93703">
        <ele>921.3</ele>
        <time>2026-05-15T08:26:25Z</time>
      </trkpt>
      <trkpt lat="43.79845" lon="6.93682">
        <ele>922.3</ele>
        <time>2026-05-15T08:26:26Z</time>
      </trkpt>
      <trkpt lat="43.79843" lon="6.93661">
        <ele>923.7</ele>
        <time>2026-05-15T08:26:27Z</time>
      </trkpt>
      <trkpt lat="43.79839" lon="6.93641">
        <ele>924</ele>
        <time>2026-05-15T08:26:28Z</time>
      </trkpt>
      <trkpt lat="43.79835" lon="6.9362">
        <ele>925.3</ele>
        <time>2026-05-15T08:26:29Z</time>
      </trkpt>
      <trkpt lat="43.79831" lon="6.936">
        <ele>926.4</ele>
        <time>2026-05-15T08:26:30Z</time>
      </trkpt>
      <trkpt lat="43.7983" lon="6.9358">
        <ele>928.9</ele>
        <time>2026-05-15T08:26:31Z</time>
      </trkpt>
      <trkpt lat="43.79831" lon="6.93558">
        <ele>930.4</ele>
        <time>2026-05-15T08:26:32Z</time>
      </trkpt>
      <trkpt lat="43.79833" lon="6.93537">
        <ele>930.5</ele>
        <time>2026-05-15T08:26:33Z</time>
      </trkpt>
      <trkpt lat="43.79835" lon="6.93516">
        <ele>931.3</ele>
        <time>2026-05-15T08:26:34Z</time>
      </trkpt>
      <trkpt lat="43.79837" lon="6.93495">
        <ele>933.4</ele>
        <time>2026-05-15T08:26:35Z</time>
      </trkpt>
      <trkpt lat="43.79837" lon="6.93475">
        <ele>934.6</ele>
        <time>2026-05-15T08:26:36Z</time>
      </trkpt>
      <trkpt lat="43.79836" lon="6.93457">
        <ele>938</ele>
        <time>2026-05-15T08:26:37Z</time>
      </trkpt>
      <trkpt lat="43.79831" lon="6.93438">
        <ele>938.9</ele>
        <time>2026-05-15T08:26:38Z</time>
      </trkpt>
      <trkpt lat="43.79826" lon="6.9342">
        <ele>939.6</ele>
        <time>2026-05-15T08:26:39Z</time>
      </trkpt>
      <trkpt lat="43.7982" lon="6.93401">
        <ele>940.1</ele>
        <time>2026-05-15T08:26:40Z</time>
      </trkpt>
      <trkpt lat="43.79815" lon="6.93382">
        <ele>941.5</ele>
        <time>2026-05-15T08:26:41Z</time>
      </trkpt>
      <trkpt lat="43.7981" lon="6.93362">
        <ele>943</ele>
        <time>2026-05-15T08:26:42Z</time>
      </trkpt>
      <trkpt lat="43.79805" lon="6.93341">
        <ele>943.2</ele>
        <time>2026-05-15T08:26:43Z</time>
      </trkpt>
      <trkpt lat="43.798" lon="6.93319">
        <ele>943.9</ele>
        <time>2026-05-15T08:26:44Z</time>
      </trkpt>
      <trkpt lat="43.79795" lon="6.93298">
        <ele>945.1</ele>
        <time>2026-05-15T08:26:45Z</time>
      </trkpt>
      <trkpt lat="43.7979" lon="6.93277">
        <ele>947.1</ele>
        <time>2026-05-15T08:26:46Z</time>
      </trkpt>
      <trkpt lat="43.79781" lon="6.93259">
        <ele>946.5</ele>
        <time>2026-05-15T08:26:47Z</time>
      </trkpt>
      <trkpt lat="43.79772" lon="6.93242">
        <ele>947.5</ele>
        <time>2026-05-15T08:26:48Z</time>
      </trkpt>
      <trkpt lat="43.79762" lon="6.93226">
        <ele>948.6</ele>
        <time>2026-05-15T08:26:49Z</time>
      </trkpt>
      <trkpt lat="43.79754" lon="6.93208">
        <ele>949.4</ele>
        <time>2026-05-15T08:26:50Z</time>
      </trkpt>
      <trkpt lat="43.7975" lon="6.93187">
        <ele>951.3</ele>
        <time>2026-05-15T08:26:51Z</time>
      </trkpt>
      <trkpt lat="43.79748" lon="6.93166">
        <ele>954.2</ele>
        <time>2026-05-15T08:26:52Z</time>
      </trkpt>
      <trkpt lat="43.79748" lon="6.93143">
        <ele>954.8</ele>
        <time>2026-05-15T08:26:53Z</time>
      </trkpt>
      <trkpt lat="43.79748" lon="6.93119">
        <ele>955</ele>
        <time>2026-05-15T08:26:54Z</time>
      </trkpt>
      <trkpt lat="43.79747" lon="6.93096">
        <ele>955.8</ele>
        <time>2026-05-15T08:26:55Z</time>
      </trkpt>
      <trkpt lat="43.79745" lon="6.93073">
        <ele>957.6</ele>
        <time>2026-05-15T08:26:56Z</time>
      </trkpt>
      <trkpt lat="43.79739" lon="6.93051">
        <ele>958.6</ele>
        <time>2026-05-15T08:26:57Z</time>
      </trkpt>
      <trkpt lat="43.79732" lon="6.9303">
        <ele>958.9</ele>
        <time>2026-05-15T08:26:58Z</time>
      </trkpt>
      <trkpt lat="43.79723" lon="6.9301">
        <ele>959.5</ele>
        <time>2026-05-15T08:26:59Z</time>
      </trkpt>
      <trkpt lat="43.79715" lon="6.9299">
        <ele>961</ele>
        <time>2026-05-15T08:27:00Z</time>
      </trkpt>
      <trkpt lat="43.79708" lon="6.92968">
        <ele>961.8</ele>
        <time>2026-05-15T08:27:01Z</time>
      </trkpt>
      <trkpt lat="43.79701" lon="6.92947">
        <ele>961.3</ele>
        <time>2026-05-15T08:27:02Z</time>
      </trkpt>
      <trkpt lat="43.79692" lon="6.92928">
        <ele>961.3</ele>
        <time>2026-05-15T08:27:03Z</time>
      </trkpt>
      <trkpt lat="43.79683" lon="6.92908">
        <ele>962.6</ele>
        <time>2026-05-15T08:27:04Z</time>
      </trkpt>
      <trkpt lat="43.79673" lon="6.9289">
        <ele>963.6</ele>
        <time>2026-05-15T08:27:05Z</time>
      </trkpt>
      <trkpt lat="43.79666" lon="6.92871">
        <ele>964.9</ele>
        <time>2026-05-15T08:27:06Z</time>
      </trkpt>
      <trkpt lat="43.79663" lon="6.92851">
        <ele>966.7</ele>
        <time>2026-05-15T08:27:07Z</time>
      </trkpt>
      <trkpt lat="43.79662" lon="6.9283">
        <ele>968.6</ele>
        <time>2026-05-15T08:27:08Z</time>
      </trkpt>
      <trkpt lat="43.79662" lon="6.92809">
        <ele>969.2</ele>
        <time>2026-05-15T08:27:09Z</time>
      </trkpt>
      <trkpt lat="43.79665" lon="6.92787">
        <ele>970.4</ele>
        <time>2026-05-15T08:27:10Z</time>
      </trkpt>
      <trkpt lat="43.79669" lon="6.92767">
        <ele>971.6</ele>
        <time>2026-05-15T08:27:11Z</time>
      </trkpt>
      <trkpt lat="43.79674" lon="6.92747">
        <ele>972.8</ele>
        <time>2026-05-15T08:27:12Z</time>
      </trkpt>
      <trkpt lat="43.79681" lon="6.92729">
        <ele>974.2</ele>
        <time>2026-05-15T08:27:13Z</time>
      </trkpt>
      <trkpt lat="43.7969" lon="6.92714">
        <ele>975.2</ele>
        <time>2026-05-15T08:27:14Z</time>
      </trkpt>
      <trkpt lat="43.797" lon="6.92701">
        <ele>976.2</ele>
        <time>2026-05-15T08:27:15Z</time>
      </trkpt>
      <trkpt lat="43.79709" lon="6.92688">
        <ele>977.7</ele>
        <time>2026-05-15T08:27:16Z</time>
      </trkpt>
      <trkpt lat="43.79717" lon="6.92672">
        <ele>979.4</ele>
        <time>2026-05-15T08:27:17Z</time>
      </trkpt>
      <trkpt lat="43.79721" lon="6.92654">
        <ele>980.5</ele>
        <time>2026-05-15T08:27:18Z</time>
      </trkpt>
      <trkpt lat="43.79723" lon="6.92634">
        <ele>982.4</ele>
        <time>2026-05-15T08:27:19Z</time>
      </trkpt>
      <trkpt lat="43.79722" lon="6.92615">
        <ele>984.3</ele>
        <time>2026-05-15T08:27:20Z</time>
      </trkpt>
      <trkpt lat="43.79719" lon="6.92595">
        <ele>985.7</ele>
        <time>2026-05-15T08:27:21Z</time>
      </trkpt>
      <trkpt lat="43.79715" lon="6.92575">
        <ele>985.5</ele>
        <time>2026-05-15T08:27:22Z</time>
      </trkpt>
      <trkpt lat="43.79711" lon="6.92554">
        <ele>984.6</ele>
        <time>2026-05-15T08:27:23Z</time>
      </trkpt>
      <trkpt lat="43.79708" lon="6.92533">
        <ele>985.8</ele>
        <time>2026-05-15T08:27:24Z</time>
      </trkpt>
      <trkpt lat="43.79704" lon="6.92511">
        <ele>987.6</ele>
        <time>2026-05-15T08:27:25Z</time>
      </trkpt>
      <trkpt lat="43.797" lon="6.92489">
        <ele>990.6</ele>
        <time>2026-05-15T08:27:26Z</time>
      </trkpt>
      <trkpt lat="43.79695" lon="6.92467">
        <ele>991.9</ele>
        <time>2026-05-15T08:27:27Z</time>
      </trkpt>
      <trkpt lat="43.79691" lon="6.92445">
        <ele>989.7</ele>
        <time>2026-05-15T08:27:28Z</time>
      </trkpt>
      <trkpt lat="43.79688" lon="6.92422">
        <ele>988.5</ele>
        <time>2026-05-15T08:27:29Z</time>
      </trkpt>
      <trkpt lat="43.79685" lon="6.92399">
        <ele>990.8</ele>
        <time>2026-05-15T08:27:30Z</time>
      </trkpt>
      <trkpt lat="43.79682" lon="6.92376">
        <ele>991.9</ele>
        <time>2026-05-15T08:27:31Z</time>
      </trkpt>
      <trkpt lat="43.7968" lon="6.92353">
        <ele>993.3</ele>
        <time>2026-05-15T08:27:32Z</time>
      </trkpt>
      <trkpt lat="43.79677" lon="6.9233">
        <ele>995.8</ele>
        <time>2026-05-15T08:27:33Z</time>
      </trkpt>
      <trkpt lat="43.79675" lon="6.92307">
        <ele>998</ele>
        <time>2026-05-15T08:27:34Z</time>
      </trkpt>
      <trkpt lat="43.79673" lon="6.92285">
        <ele>999.2</ele>
        <time>2026-05-15T08:27:35Z</time>
      </trkpt>
      <trkpt lat="43.79672" lon="6.92264">
        <ele>1001.1</ele>
        <time>2026-05-15T08:27:36Z</time>
      </trkpt>
      <trkpt lat="43.79671" lon="6.92244">
        <ele>1002.7</ele>
        <time>2026-05-15T08:27:37Z</time>
      </trkpt>
      <trkpt lat="43.7967" lon="6.92226">
        <ele>1003.6</ele>
        <time>2026-05-15T08:27:38Z</time>
      </trkpt>
      <trkpt lat="43.79668" lon="6.92211">
        <ele>1003.1</ele>
        <time>2026-05-15T08:27:39Z</time>
      </trkpt>
      <trkpt lat="43.79668" lon="6.92196">
        <ele>1005.2</ele>
        <time>2026-05-15T08:27:40Z</time>
      </trkpt>
      <trkpt lat="43.7967" lon="6.92183">
        <ele>1006.1</ele>
        <time>2026-05-15T08:27:41Z</time>
      </trkpt>
      <trkpt lat="43.79672" lon="6.9217">
        <ele>1006.1</ele>
        <time>2026-05-15T08:27:42Z</time>
      </trkpt>
      <trkpt lat="43.79679" lon="6.92155">
        <ele>1009</ele>
        <time>2026-05-15T08:27:43Z</time>
      </trkpt>
      <trkpt lat="43.79682" lon="6.9214">
        <ele>1007.9</ele>
        <time>2026-05-15T08:27:44Z</time>
      </trkpt>
      <trkpt lat="43.7968" lon="6.92125">
        <ele>1009.6</ele>
        <time>2026-05-15T08:27:45Z</time>
      </trkpt>
      <trkpt lat="43.79678" lon="6.92113">
        <ele>1011.4</ele>
        <time>2026-05-15T08:27:46Z</time>
      </trkpt>
      <trkpt lat="43.79674" lon="6.92102">
        <ele>1014.5</ele>
        <time>2026-05-15T08:27:47Z</time>
      </trkpt>
      <trkpt lat="43.79668" lon="6.92095">
        <ele>1014.5</ele>
        <time>2026-05-15T08:27:48Z</time>
      </trkpt>
      <trkpt lat="43.79661" lon="6.92089">
        <ele>1012.6</ele>
        <time>2026-05-15T08:27:49Z</time>
      </trkpt>
      <trkpt lat="43.79651" lon="6.92092">
        <ele>1003.1</ele>
        <time>2026-05-15T08:27:50Z</time>
      </trkpt>
      <trkpt lat="43.79643" lon="6.92092">
        <ele>996.9</ele>
        <time>2026-05-15T08:27:51Z</time>
      </trkpt>
      <trkpt lat="43.79635" lon="6.92087">
        <ele>993.3</ele>
        <time>2026-05-15T08:27:52Z</time>
      </trkpt>
      <trkpt lat="43.79629" lon="6.9208">
        <ele>992.1</ele>
        <time>2026-05-15T08:27:53Z</time>
      </trkpt>
      <trkpt lat="43.79622" lon="6.92073">
        <ele>990.1</ele>
        <time>2026-05-15T08:27:54Z</time>
      </trkpt>
      <trkpt lat="43.79617" lon="6.92065">
        <ele>990.5</ele>
        <time>2026-05-15T08:27:55Z</time>
      </trkpt>
      <trkpt lat="43.79614" lon="6.92055">
        <ele>993.9</ele>
        <time>2026-05-15T08:27:56Z</time>
      </trkpt>
      <trkpt lat="43.79612" lon="6.92044">
        <ele>997.6</ele>
        <time>2026-05-15T08:27:57Z</time>
      </trkpt>
      <trkpt lat="43.79612" lon="6.92032">
        <ele>1003.5</ele>
        <time>2026-05-15T08:27:58Z</time>
      </trkpt>
      <trkpt lat="43.79614" lon="6.9202">
        <ele>1008.2</ele>
        <time>2026-05-15T08:27:59Z</time>
      </trkpt>
      <trkpt lat="43.79618" lon="6.92007">
        <ele>1013</ele>
        <time>2026-05-15T08:28:00Z</time>
      </trkpt>
      <trkpt lat="43.79623" lon="6.91994">
        <ele>1018.5</ele>
        <time>2026-05-15T08:28:01Z</time>
      </trkpt>
      <trkpt lat="43.79626" lon="6.91979">
        <ele>1023.2</ele>
        <time>2026-05-15T08:28:02Z</time>
      </trkpt>
      <trkpt lat="43.79627" lon="6.91963">
        <ele>1028.7</ele>
        <time>2026-05-15T08:28:03Z</time>
      </trkpt>
      <trkpt lat="43.79627" lon="6.91948">
        <ele>1034.5</ele>
        <time>2026-05-15T08:28:04Z</time>
      </trkpt>
      <trkpt lat="43.79627" lon="6.91931">
        <ele>1039.6</ele>
        <time>2026-05-15T08:28:05Z</time>
      </trkpt>
      <trkpt lat="43.79625" lon="6.91914">
        <ele>1040.8</ele>
        <time>2026-05-15T08:28:06Z</time>
      </trkpt>
      <trkpt lat="43.79621" lon="6.91901">
        <ele>1035.4</ele>
        <time>2026-05-15T08:28:07Z</time>
      </trkpt>
      <trkpt lat="43.79622" lon="6.91887">
        <ele>1037.5</ele>
        <time>2026-05-15T08:28:08Z</time>
      </trkpt>
      <trkpt lat="43.79625" lon="6.91875">
        <ele>1039.3</ele>
        <time>2026-05-15T08:28:09Z</time>
      </trkpt>
      <trkpt lat="43.79631" lon="6.91864">
        <ele>1045.2</ele>
        <time>2026-05-15T08:28:10Z</time>
      </trkpt>
      <trkpt lat="43.79637" lon="6.91852">
        <ele>1047.1</ele>
        <time>2026-05-15T08:28:11Z</time>
      </trkpt>
      <trkpt lat="43.79643" lon="6.91839">
        <ele>1046.6</ele>
        <time>2026-05-15T08:28:12Z</time>
      </trkpt>
      <trkpt lat="43.79647" lon="6.91824">
        <ele>1047.5</ele>
        <time>2026-05-15T08:28:13Z</time>
      </trkpt>
      <trkpt lat="43.79648" lon="6.91808">
        <ele>1045.9</ele>
        <time>2026-05-15T08:28:14Z</time>
      </trkpt>
      <trkpt lat="43.7965" lon="6.91791">
        <ele>1047</ele>
        <time>2026-05-15T08:28:15Z</time>
      </trkpt>
      <trkpt lat="43.79654" lon="6.91776">
        <ele>1054.6</ele>
        <time>2026-05-15T08:28:16Z</time>
      </trkpt>
      <trkpt lat="43.79657" lon="6.91762">
        <ele>1062.2</ele>
        <time>2026-05-15T08:28:17Z</time>
      </trkpt>
      <trkpt lat="43.79658" lon="6.91749">
        <ele>1064.7</ele>
        <time>2026-05-15T08:28:18Z</time>
      </trkpt>
      <trkpt lat="43.79658" lon="6.91738">
        <ele>1066.5</ele>
        <time>2026-05-15T08:28:19Z</time>
      </trkpt>
      <trkpt lat="43.79655" lon="6.91725">
        <ele>1062.8</ele>
        <time>2026-05-15T08:28:20Z</time>
      </trkpt>
      <trkpt lat="43.79652" lon="6.91717">
        <ele>1059.1</ele>
        <time>2026-05-15T08:28:21Z</time>
      </trkpt>
      <trkpt lat="43.79647" lon="6.91701">
        <ele>1055.4</ele>
        <time>2026-05-15T08:28:22Z</time>
      </trkpt>
      <trkpt lat="43.79643" lon="6.91685">
        <ele>1051.7</ele>
        <time>2026-05-15T08:28:23Z</time>
      </trkpt>
      <trkpt lat="43.79642" lon="6.91681">
        <ele>1050.3</ele>
        <time>2026-05-15T08:28:24Z</time>
      </trkpt>
      <trkpt lat="43.79644" lon="6.91669">
        <ele>1054.8</ele>
        <time>2026-05-15T08:28:25Z</time>
      </trkpt>
      <trkpt lat="43.79646" lon="6.91657">
        <ele>1060.1</ele>
        <time>2026-05-15T08:28:26Z</time>
      </trkpt>
      <trkpt lat="43.79646" lon="6.91643">
        <ele>1062.3</ele>
        <time>2026-05-15T08:28:27Z</time>
      </trkpt>
      <trkpt lat="43.79644" lon="6.91628">
        <ele>1061.5</ele>
        <time>2026-05-15T08:28:28Z</time>
      </trkpt>
      <trkpt lat="43.79635" lon="6.91614">
        <ele>1051</ele>
        <time>2026-05-15T08:28:29Z</time>
      </trkpt>
      <trkpt lat="43.79627" lon="6.91602">
        <ele>1045.5</ele>
        <time>2026-05-15T08:28:30Z</time>
      </trkpt>
      <trkpt lat="43.79618" lon="6.9159">
        <ele>1039.9</ele>
        <time>2026-05-15T08:28:31Z</time>
      </trkpt>
      <trkpt lat="43.79611" lon="6.91577">
        <ele>1036.5</ele>
        <time>2026-05-15T08:28:32Z</time>
      </trkpt>
      <trkpt lat="43.79607" lon="6.91562">
        <ele>1037.7</ele>
        <time>2026-05-15T08:28:33Z</time>
      </trkpt>
      <trkpt lat="43.79605" lon="6.91547">
        <ele>1039</ele>
        <time>2026-05-15T08:28:34Z</time>
      </trkpt>
      <trkpt lat="43.79604" lon="6.9153">
        <ele>1041</ele>
        <time>2026-05-15T08:28:35Z</time>
      </trkpt>
      <trkpt lat="43.79606" lon="6.91513">
        <ele>1042.7</ele>
        <time>2026-05-15T08:28:36Z</time>
      </trkpt>
      <trkpt lat="43.79609" lon="6.91498">
        <ele>1045</ele>
        <time>2026-05-15T08:28:37Z</time>
      </trkpt>
      <trkpt lat="43.7961" lon="6.91481">
        <ele>1045.4</ele>
        <time>2026-05-15T08:28:38Z</time>
      </trkpt>
      <trkpt lat="43.7961" lon="6.91464">
        <ele>1045.7</ele>
        <time>2026-05-15T08:28:39Z</time>
      </trkpt>
      <trkpt lat="43.7961" lon="6.91447">
        <ele>1047</ele>
        <time>2026-05-15T08:28:40Z</time>
      </trkpt>
      <trkpt lat="43.79613" lon="6.91434">
        <ele>1047.9</ele>
        <time>2026-05-15T08:28:41Z</time>
      </trkpt>
      <trkpt lat="43.79619" lon="6.91424">
        <ele>1049</ele>
        <time>2026-05-15T08:28:42Z</time>
      </trkpt>
      <trkpt lat="43.79627" lon="6.91415">
        <ele>1049.5</ele>
        <time>2026-05-15T08:28:43Z</time>
      </trkpt>
      <trkpt lat="43.79636" lon="6.91408">
        <ele>1049.4</ele>
        <time>2026-05-15T08:28:44Z</time>
      </trkpt>
      <trkpt lat="43.79646" lon="6.91402">
        <ele>1050.4</ele>
        <time>2026-05-15T08:28:45Z</time>
      </trkpt>
      <trkpt lat="43.79655" lon="6.91393">
        <ele>1050.9</ele>
        <time>2026-05-15T08:28:46Z</time>
      </trkpt>
      <trkpt lat="43.79662" lon="6.9138">
        <ele>1050.7</ele>
        <time>2026-05-15T08:28:47Z</time>
      </trkpt>
      <trkpt lat="43.79669" lon="6.91367">
        <ele>1051.7</ele>
        <time>2026-05-15T08:28:48Z</time>
      </trkpt>
      <trkpt lat="43.79675" lon="6.91351">
        <ele>1053</ele>
        <time>2026-05-15T08:28:49Z</time>
      </trkpt>
      <trkpt lat="43.79678" lon="6.91333">
        <ele>1052.9</ele>
        <time>2026-05-15T08:28:50Z</time>
      </trkpt>
      <trkpt lat="43.79679" lon="6.91313">
        <ele>1053.2</ele>
        <time>2026-05-15T08:28:51Z</time>
      </trkpt>
      <trkpt lat="43.79679" lon="6.91293">
        <ele>1053.8</ele>
        <time>2026-05-15T08:28:52Z</time>
      </trkpt>
      <trkpt lat="43.79678" lon="6.91272">
        <ele>1054.7</ele>
        <time>2026-05-15T08:28:53Z</time>
      </trkpt>
      <trkpt lat="43.79676" lon="6.9125">
        <ele>1056</ele>
        <time>2026-05-15T08:28:54Z</time>
      </trkpt>
      <trkpt lat="43.79675" lon="6.91229">
        <ele>1057.2</ele>
        <time>2026-05-15T08:28:55Z</time>
      </trkpt>
      <trkpt lat="43.79673" lon="6.91209">
        <ele>1057.3</ele>
        <time>2026-05-15T08:28:56Z</time>
      </trkpt>
      <trkpt lat="43.7967" lon="6.9119">
        <ele>1057</ele>
        <time>2026-05-15T08:28:57Z</time>
      </trkpt>
      <trkpt lat="43.79666" lon="6.91171">
        <ele>1057.7</ele>
        <time>2026-05-15T08:28:58Z</time>
      </trkpt>
      <trkpt lat="43.79662" lon="6.91152">
        <ele>1058</ele>
        <time>2026-05-15T08:28:59Z</time>
      </trkpt>
      <trkpt lat="43.79659" lon="6.91134">
        <ele>1058.8</ele>
        <time>2026-05-15T08:29:00Z</time>
      </trkpt>
      <trkpt lat="43.79657" lon="6.91115">
        <ele>1059.6</ele>
        <time>2026-05-15T08:29:01Z</time>
      </trkpt>
      <trkpt lat="43.79658" lon="6.91095">
        <ele>1059.4</ele>
        <time>2026-05-15T08:29:02Z</time>
      </trkpt>
      <trkpt lat="43.7966" lon="6.91075">
        <ele>1059.4</ele>
        <time>2026-05-15T08:29:03Z</time>
      </trkpt>
      <trkpt lat="43.79664" lon="6.91055">
        <ele>1061.1</ele>
        <time>2026-05-15T08:29:04Z</time>
      </trkpt>
      <trkpt lat="43.79669" lon="6.91035">
        <ele>1063.5</ele>
        <time>2026-05-15T08:29:05Z</time>
      </trkpt>
      <trkpt lat="43.79672" lon="6.91014">
        <ele>1065.8</ele>
        <time>2026-05-15T08:29:06Z</time>
      </trkpt>
      <trkpt lat="43.79673" lon="6.90992">
        <ele>1067.5</ele>
        <time>2026-05-15T08:29:07Z</time>
      </trkpt>
      <trkpt lat="43.79673" lon="6.90968">
        <ele>1068.7</ele>
        <time>2026-05-15T08:29:08Z</time>
      </trkpt>
      <trkpt lat="43.79672" lon="6.90947">
        <ele>1069.5</ele>
        <time>2026-05-15T08:29:09Z</time>
      </trkpt>
      <trkpt lat="43.79671" lon="6.90926">
        <ele>1070.4</ele>
        <time>2026-05-15T08:29:10Z</time>
      </trkpt>
      <trkpt lat="43.7967" lon="6.90908">
        <ele>1071.3</ele>
        <time>2026-05-15T08:29:11Z</time>
      </trkpt>
      <trkpt lat="43.79669" lon="6.90893">
        <ele>1072.4</ele>
        <time>2026-05-15T08:29:12Z</time>
      </trkpt>
      <trkpt lat="43.79669" lon="6.9088">
        <ele>1072.9</ele>
        <time>2026-05-15T08:29:13Z</time>
      </trkpt>
      <trkpt lat="43.79672" lon="6.90869">
        <ele>1073.8</ele>
        <time>2026-05-15T08:29:14Z</time>
      </trkpt>
      <trkpt lat="43.79677" lon="6.90861">
        <ele>1074.5</ele>
        <time>2026-05-15T08:29:15Z</time>
      </trkpt>
      <trkpt lat="43.79684" lon="6.90859">
        <ele>1075.1</ele>
        <time>2026-05-15T08:29:16Z</time>
      </trkpt>
      <trkpt lat="43.79691" lon="6.90861">
        <ele>1076.5</ele>
        <time>2026-05-15T08:29:17Z</time>
      </trkpt>
      <trkpt lat="43.797" lon="6.90865">
        <ele>1076.1</ele>
        <time>2026-05-15T08:29:18Z</time>
      </trkpt>
      <trkpt lat="43.79708" lon="6.90877">
        <ele>1077.1</ele>
        <time>2026-05-15T08:29:19Z</time>
      </trkpt>
      <trkpt lat="43.79716" lon="6.90889">
        <ele>1079.5</ele>
        <time>2026-05-15T08:29:20Z</time>
      </trkpt>
      <trkpt lat="43.79724" lon="6.90904">
        <ele>1082.2</ele>
        <time>2026-05-15T08:29:21Z</time>
      </trkpt>
      <trkpt lat="43.79732" lon="6.90919">
        <ele>1083</ele>
        <time>2026-05-15T08:29:22Z</time>
      </trkpt>
      <trkpt lat="43.79739" lon="6.90934">
        <ele>1084.7</ele>
        <time>2026-05-15T08:29:23Z</time>
      </trkpt>
      <trkpt lat="43.79748" lon="6.90948">
        <ele>1087.4</ele>
        <time>2026-05-15T08:29:24Z</time>
      </trkpt>
      <trkpt lat="43.7976" lon="6.90958">
        <ele>1087.9</ele>
        <time>2026-05-15T08:29:25Z</time>
      </trkpt>
      <trkpt lat="43.79773" lon="6.90967">
        <ele>1088.5</ele>
        <time>2026-05-15T08:29:26Z</time>
      </trkpt>
      <trkpt lat="43.79788" lon="6.90972">
        <ele>1089.2</ele>
        <time>2026-05-15T08:29:27Z</time>
      </trkpt>
      <trkpt lat="43.79803" lon="6.90974">
        <ele>1089.1</ele>
        <time>2026-05-15T08:29:28Z</time>
      </trkpt>
      <trkpt lat="43.7982" lon="6.90972">
        <ele>1088.4</ele>
        <time>2026-05-15T08:29:29Z</time>
      </trkpt>
      <trkpt lat="43.79838" lon="6.90971">
        <ele>1089</ele>
        <time>2026-05-15T08:29:30Z</time>
      </trkpt>
      <trkpt lat="43.79857" lon="6.90968">
        <ele>1089.7</ele>
        <time>2026-05-15T08:29:31Z</time>
      </trkpt>
      <trkpt lat="43.79875" lon="6.90964">
        <ele>1089.9</ele>
        <time>2026-05-15T08:29:32Z</time>
      </trkpt>
      <trkpt lat="43.79894" lon="6.90959">
        <ele>1089.9</ele>
        <time>2026-05-15T08:29:33Z</time>
      </trkpt>
      <trkpt lat="43.79913" lon="6.90953">
        <ele>1090.8</ele>
        <time>2026-05-15T08:29:34Z</time>
      </trkpt>
      <trkpt lat="43.79933" lon="6.90949">
        <ele>1092.5</ele>
        <time>2026-05-15T08:29:35Z</time>
      </trkpt>
      <trkpt lat="43.79951" lon="6.90945">
        <ele>1093.1</ele>
        <time>2026-05-15T08:29:36Z</time>
      </trkpt>
      <trkpt lat="43.7997" lon="6.90942">
        <ele>1093.9</ele>
        <time>2026-05-15T08:29:37Z</time>
      </trkpt>
      <trkpt lat="43.79987" lon="6.90939">
        <ele>1096.7</ele>
        <time>2026-05-15T08:29:38Z</time>
      </trkpt>
      <trkpt lat="43.80003" lon="6.90935">
        <ele>1098.4</ele>
        <time>2026-05-15T08:29:39Z</time>
      </trkpt>
      <trkpt lat="43.80018" lon="6.90926">
        <ele>1096.7</ele>
        <time>2026-05-15T08:29:40Z</time>
      </trkpt>
      <trkpt lat="43.80032" lon="6.90913">
        <ele>1093.8</ele>
        <time>2026-05-15T08:29:41Z</time>
      </trkpt>
      <trkpt lat="43.80046" lon="6.90899">
        <ele>1095.6</ele>
        <time>2026-05-15T08:29:42Z</time>
      </trkpt>
      <trkpt lat="43.80059" lon="6.90883">
        <ele>1096.4</ele>
        <time>2026-05-15T08:29:43Z</time>
      </trkpt>
      <trkpt lat="43.80072" lon="6.90867">
        <ele>1098.6</ele>
        <time>2026-05-15T08:29:44Z</time>
      </trkpt>
      <trkpt lat="43.80085" lon="6.9085">
        <ele>1099.2</ele>
        <time>2026-05-15T08:29:45Z</time>
      </trkpt>
      <trkpt lat="43.80096" lon="6.90833">
        <ele>1099.8</ele>
        <time>2026-05-15T08:29:46Z</time>
      </trkpt>
      <trkpt lat="43.80106" lon="6.90815">
        <ele>1100.4</ele>
        <time>2026-05-15T08:29:47Z</time>
      </trkpt>
      <trkpt lat="43.80116" lon="6.90797">
        <ele>1100.2</ele>
        <time>2026-05-15T08:29:48Z</time>
      </trkpt>
      <trkpt lat="43.80127" lon="6.90781">
        <ele>1102.3</ele>
        <time>2026-05-15T08:29:49Z</time>
      </trkpt>
      <trkpt lat="43.80136" lon="6.90763">
        <ele>1103</ele>
        <time>2026-05-15T08:29:50Z</time>
      </trkpt>
      <trkpt lat="43.80142" lon="6.90743">
        <ele>1101.7</ele>
        <time>2026-05-15T08:29:51Z</time>
      </trkpt>
      <trkpt lat="43.80146" lon="6.90724">
        <ele>1101.3</ele>
        <time>2026-05-15T08:29:52Z</time>
      </trkpt>
      <trkpt lat="43.8015" lon="6.90705">
        <ele>1101.4</ele>
        <time>2026-05-15T08:29:53Z</time>
      </trkpt>
      <trkpt lat="43.80153" lon="6.90686">
        <ele>1101.3</ele>
        <time>2026-05-15T08:29:54Z</time>
      </trkpt>
      <trkpt lat="43.80154" lon="6.90668">
        <ele>1101</ele>
        <time>2026-05-15T08:29:55Z</time>
      </trkpt>
      <trkpt lat="43.80151" lon="6.9065">
        <ele>1100.7</ele>
        <time>2026-05-15T08:29:56Z</time>
      </trkpt>
      <trkpt lat="43.80146" lon="6.90632">
        <ele>1101</ele>
        <time>2026-05-15T08:29:57Z</time>
      </trkpt>
      <trkpt lat="43.80138" lon="6.90615">
        <ele>1102.1</ele>
        <time>2026-05-15T08:29:58Z</time>
      </trkpt>
      <trkpt lat="43.8013" lon="6.90597">
        <ele>1105.1</ele>
        <time>2026-05-15T08:29:59Z</time>
      </trkpt>
      <trkpt lat="43.80122" lon="6.90579">
        <ele>1105.2</ele>
        <time>2026-05-15T08:30:00Z</time>
      </trkpt>
      <trkpt lat="43.80116" lon="6.9056">
        <ele>1106.2</ele>
        <time>2026-05-15T08:30:01Z</time>
      </trkpt>
      <trkpt lat="43.8011" lon="6.90542">
        <ele>1106.9</ele>
        <time>2026-05-15T08:30:02Z</time>
      </trkpt>
      <trkpt lat="43.80104" lon="6.90522">
        <ele>1109.5</ele>
        <time>2026-05-15T08:30:03Z</time>
      </trkpt>
      <trkpt lat="43.801" lon="6.90502">
        <ele>1111.5</ele>
        <time>2026-05-15T08:30:04Z</time>
      </trkpt>
      <trkpt lat="43.80097" lon="6.90482">
        <ele>1112</ele>
        <time>2026-05-15T08:30:05Z</time>
      </trkpt>
      <trkpt lat="43.80095" lon="6.90461">
        <ele>1112.8</ele>
        <time>2026-05-15T08:30:06Z</time>
      </trkpt>
      <trkpt lat="43.80094" lon="6.9044">
        <ele>1114.1</ele>
        <time>2026-05-15T08:30:07Z</time>
      </trkpt>
      <trkpt lat="43.80093" lon="6.90419">
        <ele>1115.1</ele>
        <time>2026-05-15T08:30:08Z</time>
      </trkpt>
      <trkpt lat="43.80093" lon="6.90399">
        <ele>1115.7</ele>
        <time>2026-05-15T08:30:09Z</time>
      </trkpt>
      <trkpt lat="43.80094" lon="6.90381">
        <ele>1115.9</ele>
        <time>2026-05-15T08:30:10Z</time>
      </trkpt>
      <trkpt lat="43.80097" lon="6.90365">
        <ele>1115.4</ele>
        <time>2026-05-15T08:30:11Z</time>
      </trkpt>
      <trkpt lat="43.80103" lon="6.90352">
        <ele>1115.8</ele>
        <time>2026-05-15T08:30:12Z</time>
      </trkpt>
      <trkpt lat="43.80109" lon="6.90341">
        <ele>1114.6</ele>
        <time>2026-05-15T08:30:13Z</time>
      </trkpt>
      <trkpt lat="43.80122" lon="6.9034">
        <ele>1116</ele>
        <time>2026-05-15T08:30:14Z</time>
      </trkpt>
      <trkpt lat="43.80134" lon="6.90339">
        <ele>1117.7</ele>
        <time>2026-05-15T08:30:15Z</time>
      </trkpt>
      <trkpt lat="43.80148" lon="6.90336">
        <ele>1119.1</ele>
        <time>2026-05-15T08:30:16Z</time>
      </trkpt>
      <trkpt lat="43.80161" lon="6.90332">
        <ele>1120.5</ele>
        <time>2026-05-15T08:30:17Z</time>
      </trkpt>
      <trkpt lat="43.80172" lon="6.90324">
        <ele>1122.3</ele>
        <time>2026-05-15T08:30:18Z</time>
      </trkpt>
      <trkpt lat="43.80181" lon="6.90311">
        <ele>1123.6</ele>
        <time>2026-05-15T08:30:19Z</time>
      </trkpt>
      <trkpt lat="43.80187" lon="6.90295">
        <ele>1124</ele>
        <time>2026-05-15T08:30:20Z</time>
      </trkpt>
      <trkpt lat="43.8019" lon="6.90278">
        <ele>1122.4</ele>
        <time>2026-05-15T08:30:21Z</time>
      </trkpt>
      <trkpt lat="43.80193" lon="6.90259">
        <ele>1121.7</ele>
        <time>2026-05-15T08:30:22Z</time>
      </trkpt>
      <trkpt lat="43.80195" lon="6.9024">
        <ele>1120.5</ele>
        <time>2026-05-15T08:30:23Z</time>
      </trkpt>
      <trkpt lat="43.80199" lon="6.90222">
        <ele>1121</ele>
        <time>2026-05-15T08:30:24Z</time>
      </trkpt>
      <trkpt lat="43.80205" lon="6.90207">
        <ele>1122.2</ele>
        <time>2026-05-15T08:30:25Z</time>
      </trkpt>
      <trkpt lat="43.80214" lon="6.90193">
        <ele>1121</ele>
        <time>2026-05-15T08:30:26Z</time>
      </trkpt>
      <trkpt lat="43.80224" lon="6.9018">
        <ele>1120.7</ele>
        <time>2026-05-15T08:30:27Z</time>
      </trkpt>
      <trkpt lat="43.80235" lon="6.90166">
        <ele>1122.2</ele>
        <time>2026-05-15T08:30:28Z</time>
      </trkpt>
      <trkpt lat="43.80246" lon="6.90151">
        <ele>1122.3</ele>
        <time>2026-05-15T08:30:29Z</time>
      </trkpt>
      <trkpt lat="43.80255" lon="6.90136">
        <ele>1121.8</ele>
        <time>2026-05-15T08:30:30Z</time>
      </trkpt>
      <trkpt lat="43.80264" lon="6.90119">
        <ele>1124</ele>
        <time>2026-05-15T08:30:31Z</time>
      </trkpt>
      <trkpt lat="43.80271" lon="6.90101">
        <ele>1123.1</ele>
        <time>2026-05-15T08:30:32Z</time>
      </trkpt>
      <trkpt lat="43.80277" lon="6.90083">
        <ele>1121.2</ele>
        <time>2026-05-15T08:30:33Z</time>
      </trkpt>
      <trkpt lat="43.80281" lon="6.90064">
        <ele>1122.3</ele>
        <time>2026-05-15T08:30:34Z</time>
      </trkpt>
      <trkpt lat="43.80284" lon="6.90043">
        <ele>1123.6</ele>
        <time>2026-05-15T08:30:35Z</time>
      </trkpt>
      <trkpt lat="43.80285" lon="6.90022">
        <ele>1125.1</ele>
        <time>2026-05-15T08:30:36Z</time>
      </trkpt>
      <trkpt lat="43.80287" lon="6.90001">
        <ele>1127.6</ele>
        <time>2026-05-15T08:30:37Z</time>
      </trkpt>
      <trkpt lat="43.80288" lon="6.89979">
        <ele>1129.5</ele>
        <time>2026-05-15T08:30:38Z</time>
      </trkpt>
      <trkpt lat="43.8029" lon="6.89958">
        <ele>1129.8</ele>
        <time>2026-05-15T08:30:39Z</time>
      </trkpt>
      <trkpt lat="43.80292" lon="6.89938">
        <ele>1129.5</ele>
        <time>2026-05-15T08:30:40Z</time>
      </trkpt>
      <trkpt lat="43.80293" lon="6.89919">
        <ele>1129.5</ele>
        <time>2026-05-15T08:30:41Z</time>
      </trkpt>
      <trkpt lat="43.80294" lon="6.899">
        <ele>1128.9</ele>
        <time>2026-05-15T08:30:42Z</time>
      </trkpt>
      <trkpt lat="43.80296" lon="6.89882">
        <ele>1128.1</ele>
        <time>2026-05-15T08:30:43Z</time>
      </trkpt>
      <trkpt lat="43.80298" lon="6.89863">
        <ele>1127.4</ele>
        <time>2026-05-15T08:30:44Z</time>
      </trkpt>
      <trkpt lat="43.80301" lon="6.89845">
        <ele>1127</ele>
        <time>2026-05-15T08:30:45Z</time>
      </trkpt>
      <trkpt lat="43.80303" lon="6.89826">
        <ele>1127</ele>
        <time>2026-05-15T08:30:46Z</time>
      </trkpt>
      <trkpt lat="43.80307" lon="6.89809">
        <ele>1126.7</ele>
        <time>2026-05-15T08:30:47Z</time>
      </trkpt>
      <trkpt lat="43.80311" lon="6.89792">
        <ele>1126.6</ele>
        <time>2026-05-15T08:30:48Z</time>
      </trkpt>
      <trkpt lat="43.80315" lon="6.89776">
        <ele>1126.3</ele>
        <time>2026-05-15T08:30:49Z</time>
      </trkpt>
      <trkpt lat="43.8032" lon="6.89759">
        <ele>1125.8</ele>
        <time>2026-05-15T08:30:50Z</time>
      </trkpt>
      <trkpt lat="43.80325" lon="6.89743">
        <ele>1125.5</ele>
        <time>2026-05-15T08:30:51Z</time>
      </trkpt>
      <trkpt lat="43.80332" lon="6.89728">
        <ele>1125</ele>
        <time>2026-05-15T08:30:52Z</time>
      </trkpt>
      <trkpt lat="43.8034" lon="6.89712">
        <ele>1124.8</ele>
        <time>2026-05-15T08:30:53Z</time>
      </trkpt>
      <trkpt lat="43.8035" lon="6.89696">
        <ele>1124.2</ele>
        <time>2026-05-15T08:30:54Z</time>
      </trkpt>
      <trkpt lat="43.8036" lon="6.89681">
        <ele>1123.6</ele>
        <time>2026-05-15T08:30:55Z</time>
      </trkpt>
      <trkpt lat="43.8037" lon="6.89666">
        <ele>1124</ele>
        <time>2026-05-15T08:30:56Z</time>
      </trkpt>
      <trkpt lat="43.80382" lon="6.89651">
        <ele>1124</ele>
        <time>2026-05-15T08:30:57Z</time>
      </trkpt>
      <trkpt lat="43.80393" lon="6.89636">
        <ele>1124</ele>
        <time>2026-05-15T08:30:58Z</time>
      </trkpt>
      <trkpt lat="43.80405" lon="6.89621">
        <ele>1124</ele>
        <time>2026-05-15T08:30:59Z</time>
      </trkpt>
      <trkpt lat="43.80416" lon="6.89606">
        <ele>1124</ele>
        <time>2026-05-15T08:31:00Z</time>
      </trkpt>
      <trkpt lat="43.80428" lon="6.8959">
        <ele>1124.3</ele>
        <time>2026-05-15T08:31:01Z</time>
      </trkpt>
      <trkpt lat="43.8044" lon="6.89574">
        <ele>1124.6</ele>
        <time>2026-05-15T08:31:02Z</time>
      </trkpt>
      <trkpt lat="43.80453" lon="6.89558">
        <ele>1124.1</ele>
        <time>2026-05-15T08:31:03Z</time>
      </trkpt>
      <trkpt lat="43.80464" lon="6.89541">
        <ele>1124.5</ele>
        <time>2026-05-15T08:31:04Z</time>
      </trkpt>
      <trkpt lat="43.80477" lon="6.89524">
        <ele>1125</ele>
        <time>2026-05-15T08:31:05Z</time>
      </trkpt>
      <trkpt lat="43.80489" lon="6.89508">
        <ele>1125</ele>
        <time>2026-05-15T08:31:06Z</time>
      </trkpt>
      <trkpt lat="43.80502" lon="6.89492">
        <ele>1125</ele>
        <time>2026-05-15T08:31:07Z</time>
      </trkpt>
      <trkpt lat="43.80515" lon="6.89476">
        <ele>1125</ele>
        <time>2026-05-15T08:31:08Z</time>
      </trkpt>
      <trkpt lat="43.80527" lon="6.8946">
        <ele>1125.4</ele>
        <time>2026-05-15T08:31:09Z</time>
      </trkpt>
      <trkpt lat="43.80538" lon="6.89444">
        <ele>1126</ele>
        <time>2026-05-15T08:31:10Z</time>
      </trkpt>
      <trkpt lat="43.8055" lon="6.89429">
        <ele>1126.1</ele>
        <time>2026-05-15T08:31:11Z</time>
      </trkpt>
      <trkpt lat="43.80562" lon="6.89415">
        <ele>1126</ele>
        <time>2026-05-15T08:31:12Z</time>
      </trkpt>
      <trkpt lat="43.80573" lon="6.894">
        <ele>1126.2</ele>
        <time>2026-05-15T08:31:13Z</time>
      </trkpt>
      <trkpt lat="43.80583" lon="6.89387">
        <ele>1126.1</ele>
        <time>2026-05-15T08:31:14Z</time>
      </trkpt>
      <trkpt lat="43.80594" lon="6.89373">
        <ele>1126.4</ele>
        <time>2026-05-15T08:31:15Z</time>
      </trkpt>
      <trkpt lat="43.80605" lon="6.89358">
        <ele>1126.3</ele>
        <time>2026-05-15T08:31:16Z</time>
      </trkpt>
      <trkpt lat="43.80616" lon="6.89344">
        <ele>1126.6</ele>
        <time>2026-05-15T08:31:17Z</time>
      </trkpt>
      <trkpt lat="43.80627" lon="6.8933">
        <ele>1127</ele>
        <time>2026-05-15T08:31:18Z</time>
      </trkpt>
      <trkpt lat="43.80638" lon="6.89315">
        <ele>1127</ele>
        <time>2026-05-15T08:31:19Z</time>
      </trkpt>
      <trkpt lat="43.80649" lon="6.893">
        <ele>1127</ele>
        <time>2026-05-15T08:31:20Z</time>
      </trkpt>
      <trkpt lat="43.8066" lon="6.89286">
        <ele>1127</ele>
        <time>2026-05-15T08:31:21Z</time>
      </trkpt>
      <trkpt lat="43.80672" lon="6.89272">
        <ele>1127</ele>
        <time>2026-05-15T08:31:22Z</time>
      </trkpt>
      <trkpt lat="43.80683" lon="6.89258">
        <ele>1127</ele>
        <time>2026-05-15T08:31:23Z</time>
      </trkpt>
      <trkpt lat="43.80693" lon="6.89244">
        <ele>1127.2</ele>
        <time>2026-05-15T08:31:24Z</time>
      </trkpt>
      <trkpt lat="43.80703" lon="6.8923">
        <ele>1127.5</ele>
        <time>2026-05-15T08:31:25Z</time>
      </trkpt>
      <trkpt lat="43.80712" lon="6.89214">
        <ele>1127.6</ele>
        <time>2026-05-15T08:31:26Z</time>
      </trkpt>
      <trkpt lat="43.8072" lon="6.89197">
        <ele>1127.9</ele>
        <time>2026-05-15T08:31:27Z</time>
      </trkpt>
      <trkpt lat="43.80726" lon="6.89178">
        <ele>1127.9</ele>
        <time>2026-05-15T08:31:28Z</time>
      </trkpt>
      <trkpt lat="43.8073" lon="6.89158">
        <ele>1127.8</ele>
        <time>2026-05-15T08:31:29Z</time>
      </trkpt>
      <trkpt lat="43.80734" lon="6.89137">
        <ele>1128</ele>
        <time>2026-05-15T08:31:30Z</time>
      </trkpt>
      <trkpt lat="43.80738" lon="6.89116">
        <ele>1128.4</ele>
        <time>2026-05-15T08:31:31Z</time>
      </trkpt>
      <trkpt lat="43.80741" lon="6.89094">
        <ele>1128.7</ele>
        <time>2026-05-15T08:31:32Z</time>
      </trkpt>
      <trkpt lat="43.80744" lon="6.89072">
        <ele>1129.1</ele>
        <time>2026-05-15T08:31:33Z</time>
      </trkpt>
      <trkpt lat="43.80747" lon="6.8905">
        <ele>1129.3</ele>
        <time>2026-05-15T08:31:34Z</time>
      </trkpt>
      <trkpt lat="43.8075" lon="6.89027">
        <ele>1130.1</ele>
        <time>2026-05-15T08:31:35Z</time>
      </trkpt>
      <trkpt lat="43.80754" lon="6.89005">
        <ele>1131.4</ele>
        <time>2026-05-15T08:31:36Z</time>
      </trkpt>
      <trkpt lat="43.80757" lon="6.88982">
        <ele>1132.1</ele>
        <time>2026-05-15T08:31:37Z</time>
      </trkpt>
      <trkpt lat="43.80761" lon="6.88959">
        <ele>1132.7</ele>
        <time>2026-05-15T08:31:38Z</time>
      </trkpt>
      <trkpt lat="43.80764" lon="6.88936">
        <ele>1133.1</ele>
        <time>2026-05-15T08:31:39Z</time>
      </trkpt>
      <trkpt lat="43.80768" lon="6.88912">
        <ele>1133.6</ele>
        <time>2026-05-15T08:31:40Z</time>
      </trkpt>
      <trkpt lat="43.80771" lon="6.88889">
        <ele>1135</ele>
        <time>2026-05-15T08:31:41Z</time>
      </trkpt>
      <trkpt lat="43.80775" lon="6.88864">
        <ele>1136.7</ele>
        <time>2026-05-15T08:31:42Z</time>
      </trkpt>
      <trkpt lat="43.80779" lon="6.8884">
        <ele>1138.3</ele>
        <time>2026-05-15T08:31:43Z</time>
      </trkpt>
      <trkpt lat="43.80782" lon="6.88815">
        <ele>1139.1</ele>
        <time>2026-05-15T08:31:44Z</time>
      </trkpt>
      <trkpt lat="43.80787" lon="6.8879">
        <ele>1139.2</ele>
        <time>2026-05-15T08:31:45Z</time>
      </trkpt>
      <trkpt lat="43.80791" lon="6.88764">
        <ele>1140.3</ele>
        <time>2026-05-15T08:31:46Z</time>
      </trkpt>
      <trkpt lat="43.80796" lon="6.88739">
        <ele>1141.6</ele>
        <time>2026-05-15T08:31:47Z</time>
      </trkpt>
      <trkpt lat="43.80802" lon="6.88714">
        <ele>1142.4</ele>
        <time>2026-05-15T08:31:48Z</time>
      </trkpt>
      <trkpt lat="43.80807" lon="6.88688">
        <ele>1143.1</ele>
        <time>2026-05-15T08:31:49Z</time>
      </trkpt>
      <trkpt lat="43.80812" lon="6.88662">
        <ele>1143.6</ele>
        <time>2026-05-15T08:31:50Z</time>
      </trkpt>
      <trkpt lat="43.80817" lon="6.88637">
        <ele>1144.9</ele>
        <time>2026-05-15T08:31:51Z</time>
      </trkpt>
      <trkpt lat="43.80823" lon="6.88612">
        <ele>1145.6</ele>
        <time>2026-05-15T08:31:52Z</time>
      </trkpt>
      <trkpt lat="43.8083" lon="6.88588">
        <ele>1146</ele>
        <time>2026-05-15T08:31:53Z</time>
      </trkpt>
      <trkpt lat="43.80836" lon="6.88566">
        <ele>1147.1</ele>
        <time>2026-05-15T08:31:54Z</time>
      </trkpt>
      <trkpt lat="43.80843" lon="6.88545">
        <ele>1147.6</ele>
        <time>2026-05-15T08:31:55Z</time>
      </trkpt>
      <trkpt lat="43.80849" lon="6.88525">
        <ele>1147.5</ele>
        <time>2026-05-15T08:31:56Z</time>
      </trkpt>
      <trkpt lat="43.80855" lon="6.88506">
        <ele>1148.1</ele>
        <time>2026-05-15T08:31:57Z</time>
      </trkpt>
      <trkpt lat="43.8086" lon="6.88486">
        <ele>1148.6</ele>
        <time>2026-05-15T08:31:58Z</time>
      </trkpt>
      <trkpt lat="43.80864" lon="6.88467">
        <ele>1148.4</ele>
        <time>2026-05-15T08:31:59Z</time>
      </trkpt>
      <trkpt lat="43.80867" lon="6.88448">
        <ele>1147.3</ele>
        <time>2026-05-15T08:32:00Z</time>
      </trkpt>
      <trkpt lat="43.8087" lon="6.8843">
        <ele>1146.2</ele>
        <time>2026-05-15T08:32:01Z</time>
      </trkpt>
      <trkpt lat="43.80872" lon="6.88412">
        <ele>1145.4</ele>
        <time>2026-05-15T08:32:02Z</time>
      </trkpt>
      <trkpt lat="43.80875" lon="6.88394">
        <ele>1145</ele>
        <time>2026-05-15T08:32:03Z</time>
      </trkpt>
      <trkpt lat="43.80877" lon="6.88377">
        <ele>1144.5</ele>
        <time>2026-05-15T08:32:04Z</time>
      </trkpt>
      <trkpt lat="43.8088" lon="6.88362">
        <ele>1143.6</ele>
        <time>2026-05-15T08:32:05Z</time>
      </trkpt>
      <trkpt lat="43.80882" lon="6.8835">
        <ele>1143.2</ele>
        <time>2026-05-15T08:32:06Z</time>
      </trkpt>
      <trkpt lat="43.80884" lon="6.88338">
        <ele>1142.9</ele>
        <time>2026-05-15T08:32:07Z</time>
      </trkpt>
      <trkpt lat="43.80887" lon="6.88327">
        <ele>1142.5</ele>
        <time>2026-05-15T08:32:08Z</time>
      </trkpt>
      <trkpt lat="43.80891" lon="6.88316">
        <ele>1142.4</ele>
        <time>2026-05-15T08:32:09Z</time>
      </trkpt>
      <trkpt lat="43.80894" lon="6.88305">
        <ele>1142.4</ele>
        <time>2026-05-15T08:32:10Z</time>
      </trkpt>
      <trkpt lat="43.80894" lon="6.88293">
        <ele>1142.4</ele>
        <time>2026-05-15T08:32:11Z</time>
      </trkpt>
      <trkpt lat="43.80894" lon="6.88278">
        <ele>1142.4</ele>
        <time>2026-05-15T08:32:12Z</time>
      </trkpt>
      <trkpt lat="43.80894" lon="6.88261">
        <ele>1141.8</ele>
        <time>2026-05-15T08:32:13Z</time>
      </trkpt>
      <trkpt lat="43.80895" lon="6.88243">
        <ele>1141.3</ele>
        <time>2026-05-15T08:32:14Z</time>
      </trkpt>
      <trkpt lat="43.80898" lon="6.88223">
        <ele>1140.7</ele>
        <time>2026-05-15T08:32:15Z</time>
      </trkpt>
      <trkpt lat="43.809" lon="6.88201">
        <ele>1140.7</ele>
        <time>2026-05-15T08:32:16Z</time>
      </trkpt>
      <trkpt lat="43.80903" lon="6.88177">
        <ele>1140.2</ele>
        <time>2026-05-15T08:32:17Z</time>
      </trkpt>
      <trkpt lat="43.80905" lon="6.88154">
        <ele>1139.5</ele>
        <time>2026-05-15T08:32:18Z</time>
      </trkpt>
      <trkpt lat="43.80906" lon="6.8813">
        <ele>1139.3</ele>
        <time>2026-05-15T08:32:19Z</time>
      </trkpt>
      <trkpt lat="43.80906" lon="6.88105">
        <ele>1139.5</ele>
        <time>2026-05-15T08:32:20Z</time>
      </trkpt>
      <trkpt lat="43.80905" lon="6.88078">
        <ele>1138.8</ele>
        <time>2026-05-15T08:32:21Z</time>
      </trkpt>
      <trkpt lat="43.80904" lon="6.8805">
        <ele>1139</ele>
        <time>2026-05-15T08:32:22Z</time>
      </trkpt>
      <trkpt lat="43.80903" lon="6.88022">
        <ele>1139.4</ele>
        <time>2026-05-15T08:32:23Z</time>
      </trkpt>
      <trkpt lat="43.80902" lon="6.87994">
        <ele>1139</ele>
        <time>2026-05-15T08:32:24Z</time>
      </trkpt>
      <trkpt lat="43.80901" lon="6.87965">
        <ele>1139.3</ele>
        <time>2026-05-15T08:32:25Z</time>
      </trkpt>
      <trkpt lat="43.809" lon="6.87937">
        <ele>1140</ele>
        <time>2026-05-15T08:32:26Z</time>
      </trkpt>
      <trkpt lat="43.80899" lon="6.87908">
        <ele>1140.2</ele>
        <time>2026-05-15T08:32:27Z</time>
      </trkpt>
      <trkpt lat="43.80898" lon="6.8788">
        <ele>1140.7</ele>
        <time>2026-05-15T08:32:28Z</time>
      </trkpt>
      <trkpt lat="43.80897" lon="6.87852">
        <ele>1140.7</ele>
        <time>2026-05-15T08:32:29Z</time>
      </trkpt>
      <trkpt lat="43.80896" lon="6.87825">
        <ele>1140.7</ele>
        <time>2026-05-15T08:32:30Z</time>
      </trkpt>
      <trkpt lat="43.80895" lon="6.87799">
        <ele>1140.8</ele>
        <time>2026-05-15T08:32:31Z</time>
      </trkpt>
      <trkpt lat="43.80895" lon="6.87774">
        <ele>1140.9</ele>
        <time>2026-05-15T08:32:32Z</time>
      </trkpt>
      <trkpt lat="43.80894" lon="6.8775">
        <ele>1141.6</ele>
        <time>2026-05-15T08:32:33Z</time>
      </trkpt>
      <trkpt lat="43.80893" lon="6.87727">
        <ele>1141.8</ele>
        <time>2026-05-15T08:32:34Z</time>
      </trkpt>
      <trkpt lat="43.80891" lon="6.87703">
        <ele>1141.9</ele>
        <time>2026-05-15T08:32:35Z</time>
      </trkpt>
      <trkpt lat="43.80888" lon="6.8768">
        <ele>1142</ele>
        <time>2026-05-15T08:32:36Z</time>
      </trkpt>
      <trkpt lat="43.80884" lon="6.87658">
        <ele>1142.3</ele>
        <time>2026-05-15T08:32:37Z</time>
      </trkpt>
      <trkpt lat="43.8088" lon="6.87635">
        <ele>1143</ele>
        <time>2026-05-15T08:32:38Z</time>
      </trkpt>
      <trkpt lat="43.80874" lon="6.87613">
        <ele>1143</ele>
        <time>2026-05-15T08:32:39Z</time>
      </trkpt>
      <trkpt lat="43.80867" lon="6.87593">
        <ele>1143.1</ele>
        <time>2026-05-15T08:32:40Z</time>
      </trkpt>
      <trkpt lat="43.80859" lon="6.87574">
        <ele>1143.4</ele>
        <time>2026-05-15T08:32:41Z</time>
      </trkpt>
      <trkpt lat="43.80852" lon="6.87554">
        <ele>1144</ele>
        <time>2026-05-15T08:32:42Z</time>
      </trkpt>
      <trkpt lat="43.80846" lon="6.87533">
        <ele>1144.4</ele>
        <time>2026-05-15T08:32:43Z</time>
      </trkpt>
      <trkpt lat="43.80842" lon="6.87512">
        <ele>1145.3</ele>
        <time>2026-05-15T08:32:44Z</time>
      </trkpt>
      <trkpt lat="43.80837" lon="6.87491">
        <ele>1145.9</ele>
        <time>2026-05-15T08:32:45Z</time>
      </trkpt>
      <trkpt lat="43.80833" lon="6.87469">
        <ele>1146.1</ele>
        <time>2026-05-15T08:32:46Z</time>
      </trkpt>
      <trkpt lat="43.80829" lon="6.87447">
        <ele>1146.8</ele>
        <time>2026-05-15T08:32:47Z</time>
      </trkpt>
      <trkpt lat="43.80826" lon="6.87425">
        <ele>1146.9</ele>
        <time>2026-05-15T08:32:48Z</time>
      </trkpt>
      <trkpt lat="43.80824" lon="6.87402">
        <ele>1146.8</ele>
        <time>2026-05-15T08:32:49Z</time>
      </trkpt>
      <trkpt lat="43.80822" lon="6.87379">
        <ele>1146.8</ele>
        <time>2026-05-15T08:32:50Z</time>
      </trkpt>
      <trkpt lat="43.80821" lon="6.87356">
        <ele>1147.3</ele>
        <time>2026-05-15T08:32:51Z</time>
      </trkpt>
      <trkpt lat="43.8082" lon="6.87333">
        <ele>1148</ele>
        <time>2026-05-15T08:32:52Z</time>
      </trkpt>
      <trkpt lat="43.80819" lon="6.8731">
        <ele>1148.4</ele>
        <time>2026-05-15T08:32:53Z</time>
      </trkpt>
      <trkpt lat="43.80818" lon="6.87287">
        <ele>1149</ele>
        <time>2026-05-15T08:32:54Z</time>
      </trkpt>
      <trkpt lat="43.80816" lon="6.87263">
        <ele>1150.1</ele>
        <time>2026-05-15T08:32:55Z</time>
      </trkpt>
      <trkpt lat="43.80812" lon="6.8724">
        <ele>1151</ele>
        <time>2026-05-15T08:32:56Z</time>
      </trkpt>
      <trkpt lat="43.80808" lon="6.87217">
        <ele>1152</ele>
        <time>2026-05-15T08:32:57Z</time>
      </trkpt>
      <trkpt lat="43.80804" lon="6.87194">
        <ele>1152.8</ele>
        <time>2026-05-15T08:32:58Z</time>
      </trkpt>
      <trkpt lat="43.80801" lon="6.87171">
        <ele>1153.7</ele>
        <time>2026-05-15T08:32:59Z</time>
      </trkpt>
      <trkpt lat="43.80801" lon="6.87148">
        <ele>1154.1</ele>
        <time>2026-05-15T08:33:00Z</time>
      </trkpt>
      <trkpt lat="43.80803" lon="6.87124">
        <ele>1154.1</ele>
        <time>2026-05-15T08:33:01Z</time>
      </trkpt>
      <trkpt lat="43.80805" lon="6.87101">
        <ele>1153.6</ele>
        <time>2026-05-15T08:33:02Z</time>
      </trkpt>
      <trkpt lat="43.80807" lon="6.87079">
        <ele>1153.4</ele>
        <time>2026-05-15T08:33:03Z</time>
      </trkpt>
      <trkpt lat="43.8081" lon="6.87057">
        <ele>1154.4</ele>
        <time>2026-05-15T08:33:04Z</time>
      </trkpt>
      <trkpt lat="43.80813" lon="6.87035">
        <ele>1155</ele>
        <time>2026-05-15T08:33:05Z</time>
      </trkpt>
      <trkpt lat="43.80817" lon="6.87013">
        <ele>1155.6</ele>
        <time>2026-05-15T08:33:06Z</time>
      </trkpt>
      <trkpt lat="43.80821" lon="6.86992">
        <ele>1156.1</ele>
        <time>2026-05-15T08:33:07Z</time>
      </trkpt>
      <trkpt lat="43.80826" lon="6.8697">
        <ele>1156.2</ele>
        <time>2026-05-15T08:33:08Z</time>
      </trkpt>
      <trkpt lat="43.8083" lon="6.86948">
        <ele>1156.6</ele>
        <time>2026-05-15T08:33:09Z</time>
      </trkpt>
      <trkpt lat="43.80834" lon="6.86925">
        <ele>1157.2</ele>
        <time>2026-05-15T08:33:10Z</time>
      </trkpt>
      <trkpt lat="43.80837" lon="6.86902">
        <ele>1158.6</ele>
        <time>2026-05-15T08:33:11Z</time>
      </trkpt>
      <trkpt lat="43.80839" lon="6.86878">
        <ele>1160</ele>
        <time>2026-05-15T08:33:12Z</time>
      </trkpt>
      <trkpt lat="43.80841" lon="6.86855">
        <ele>1161.4</ele>
        <time>2026-05-15T08:33:13Z</time>
      </trkpt>
      <trkpt lat="43.80841" lon="6.86833">
        <ele>1162.2</ele>
        <time>2026-05-15T08:33:14Z</time>
      </trkpt>
      <trkpt lat="43.80838" lon="6.8681">
        <ele>1161.5</ele>
        <time>2026-05-15T08:33:15Z</time>
      </trkpt>
      <trkpt lat="43.80835" lon="6.86788">
        <ele>1161.2</ele>
        <time>2026-05-15T08:33:16Z</time>
      </trkpt>
      <trkpt lat="43.80833" lon="6.86765">
        <ele>1161.9</ele>
        <time>2026-05-15T08:33:17Z</time>
      </trkpt>
      <trkpt lat="43.80832" lon="6.86742">
        <ele>1162.7</ele>
        <time>2026-05-15T08:33:18Z</time>
      </trkpt>
      <trkpt lat="43.80834" lon="6.86719">
        <ele>1163.2</ele>
        <time>2026-05-15T08:33:19Z</time>
      </trkpt>
      <trkpt lat="43.80838" lon="6.86696">
        <ele>1164.4</ele>
        <time>2026-05-15T08:33:20Z</time>
      </trkpt>
      <trkpt lat="43.80845" lon="6.86675">
        <ele>1165.1</ele>
        <time>2026-05-15T08:33:21Z</time>
      </trkpt>
      <trkpt lat="43.80854" lon="6.86654">
        <ele>1165.8</ele>
        <time>2026-05-15T08:33:22Z</time>
      </trkpt>
      <trkpt lat="43.80863" lon="6.86635">
        <ele>1166.1</ele>
        <time>2026-05-15T08:33:23Z</time>
      </trkpt>
      <trkpt lat="43.80873" lon="6.86616">
        <ele>1166.6</ele>
        <time>2026-05-15T08:33:24Z</time>
      </trkpt>
      <trkpt lat="43.80882" lon="6.86597">
        <ele>1167</ele>
        <time>2026-05-15T08:33:25Z</time>
      </trkpt>
      <trkpt lat="43.80891" lon="6.86579">
        <ele>1167.2</ele>
        <time>2026-05-15T08:33:26Z</time>
      </trkpt>
      <trkpt lat="43.80898" lon="6.86561">
        <ele>1167.5</ele>
        <time>2026-05-15T08:33:27Z</time>
      </trkpt>
      <trkpt lat="43.80903" lon="6.86543">
        <ele>1167.7</ele>
        <time>2026-05-15T08:33:28Z</time>
      </trkpt>
      <trkpt lat="43.80905" lon="6.86524">
        <ele>1168.2</ele>
        <time>2026-05-15T08:33:29Z</time>
      </trkpt>
      <trkpt lat="43.80905" lon="6.86504">
        <ele>1169.4</ele>
        <time>2026-05-15T08:33:30Z</time>
      </trkpt>
      <trkpt lat="43.80904" lon="6.86484">
        <ele>1170.1</ele>
        <time>2026-05-15T08:33:31Z</time>
      </trkpt>
      <trkpt lat="43.80903" lon="6.86463">
        <ele>1170.8</ele>
        <time>2026-05-15T08:33:32Z</time>
      </trkpt>
      <trkpt lat="43.80903" lon="6.86441">
        <ele>1171.4</ele>
        <time>2026-05-15T08:33:33Z</time>
      </trkpt>
      <trkpt lat="43.80904" lon="6.86419">
        <ele>1171.1</ele>
        <time>2026-05-15T08:33:34Z</time>
      </trkpt>
      <trkpt lat="43.80905" lon="6.86397">
        <ele>1171.6</ele>
        <time>2026-05-15T08:33:35Z</time>
      </trkpt>
      <trkpt lat="43.80906" lon="6.86374">
        <ele>1171.8</ele>
        <time>2026-05-15T08:33:36Z</time>
      </trkpt>
      <trkpt lat="43.80905" lon="6.86351">
        <ele>1172.3</ele>
        <time>2026-05-15T08:33:37Z</time>
      </trkpt>
      <trkpt lat="43.80902" lon="6.86329">
        <ele>1173.3</ele>
        <time>2026-05-15T08:33:38Z</time>
      </trkpt>
      <trkpt lat="43.80898" lon="6.86306">
        <ele>1174.6</ele>
        <time>2026-05-15T08:33:39Z</time>
      </trkpt>
      <trkpt lat="43.80893" lon="6.86284">
        <ele>1174.7</ele>
        <time>2026-05-15T08:33:40Z</time>
      </trkpt>
      <trkpt lat="43.80888" lon="6.86262">
        <ele>1175.6</ele>
        <time>2026-05-15T08:33:41Z</time>
      </trkpt>
      <trkpt lat="43.80883" lon="6.86238">
        <ele>1177.2</ele>
        <time>2026-05-15T08:33:42Z</time>
      </trkpt>
      <trkpt lat="43.80879" lon="6.86215">
        <ele>1178.6</ele>
        <time>2026-05-15T08:33:43Z</time>
      </trkpt>
      <trkpt lat="43.80875" lon="6.86192">
        <ele>1180.2</ele>
        <time>2026-05-15T08:33:44Z</time>
      </trkpt>
      <trkpt lat="43.8087" lon="6.86168">
        <ele>1181.2</ele>
        <time>2026-05-15T08:33:45Z</time>
      </trkpt>
      <trkpt lat="43.80864" lon="6.86145">
        <ele>1182</ele>
        <time>2026-05-15T08:33:46Z</time>
      </trkpt>
      <trkpt lat="43.80856" lon="6.86122">
        <ele>1182.4</ele>
        <time>2026-05-15T08:33:47Z</time>
      </trkpt>
      <trkpt lat="43.80848" lon="6.86099">
        <ele>1183.4</ele>
        <time>2026-05-15T08:33:48Z</time>
      </trkpt>
      <trkpt lat="43.80839" lon="6.86075">
        <ele>1184.8</ele>
        <time>2026-05-15T08:33:49Z</time>
      </trkpt>
      <trkpt lat="43.80831" lon="6.8605">
        <ele>1186.2</ele>
        <time>2026-05-15T08:33:50Z</time>
      </trkpt>
      <trkpt lat="43.80824" lon="6.86025">
        <ele>1187.1</ele>
        <time>2026-05-15T08:33:51Z</time>
      </trkpt>
      <trkpt lat="43.80818" lon="6.85999">
        <ele>1187.4</ele>
        <time>2026-05-15T08:33:52Z</time>
      </trkpt>
      <trkpt lat="43.80811" lon="6.85973">
        <ele>1187.2</ele>
        <time>2026-05-15T08:33:53Z</time>
      </trkpt>
      <trkpt lat="43.80803" lon="6.85949">
        <ele>1186.9</ele>
        <time>2026-05-15T08:33:54Z</time>
      </trkpt>
      <trkpt lat="43.80793" lon="6.85926">
        <ele>1185.9</ele>
        <time>2026-05-15T08:33:55Z</time>
      </trkpt>
      <trkpt lat="43.80781" lon="6.85904">
        <ele>1185.1</ele>
        <time>2026-05-15T08:33:56Z</time>
      </trkpt>
      <trkpt lat="43.80769" lon="6.85882">
        <ele>1184.5</ele>
        <time>2026-05-15T08:33:57Z</time>
      </trkpt>
      <trkpt lat="43.80756" lon="6.8586">
        <ele>1184</ele>
        <time>2026-05-15T08:33:58Z</time>
      </trkpt>
      <trkpt lat="43.80744" lon="6.85838">
        <ele>1183.2</ele>
        <time>2026-05-15T08:33:59Z</time>
      </trkpt>
      <trkpt lat="43.80731" lon="6.85815">
        <ele>1182.3</ele>
        <time>2026-05-15T08:34:00Z</time>
      </trkpt>
      <trkpt lat="43.80718" lon="6.85791">
        <ele>1181.5</ele>
        <time>2026-05-15T08:34:01Z</time>
      </trkpt>
      <trkpt lat="43.80706" lon="6.85767">
        <ele>1180.6</ele>
        <time>2026-05-15T08:34:02Z</time>
      </trkpt>
      <trkpt lat="43.80693" lon="6.85744">
        <ele>1180</ele>
        <time>2026-05-15T08:34:03Z</time>
      </trkpt>
      <trkpt lat="43.8068" lon="6.8572">
        <ele>1179.9</ele>
        <time>2026-05-15T08:34:04Z</time>
      </trkpt>
      <trkpt lat="43.80666" lon="6.85696">
        <ele>1179.1</ele>
        <time>2026-05-15T08:34:05Z</time>
      </trkpt>
      <trkpt lat="43.80653" lon="6.85671">
        <ele>1179.1</ele>
        <time>2026-05-15T08:34:06Z</time>
      </trkpt>
      <trkpt lat="43.80641" lon="6.85647">
        <ele>1178.9</ele>
        <time>2026-05-15T08:34:07Z</time>
      </trkpt>
      <trkpt lat="43.80628" lon="6.85622">
        <ele>1178.6</ele>
        <time>2026-05-15T08:34:08Z</time>
      </trkpt>
      <trkpt lat="43.80617" lon="6.85596">
        <ele>1178.4</ele>
        <time>2026-05-15T08:34:09Z</time>
      </trkpt>
      <trkpt lat="43.80606" lon="6.8557">
        <ele>1178.2</ele>
        <time>2026-05-15T08:34:10Z</time>
      </trkpt>
      <trkpt lat="43.80594" lon="6.85544">
        <ele>1178.2</ele>
        <time>2026-05-15T08:34:11Z</time>
      </trkpt>
      <trkpt lat="43.80583" lon="6.85518">
        <ele>1177.7</ele>
        <time>2026-05-15T08:34:12Z</time>
      </trkpt>
      <trkpt lat="43.80571" lon="6.85493">
        <ele>1177.8</ele>
        <time>2026-05-15T08:34:13Z</time>
      </trkpt>
      <trkpt lat="43.8056" lon="6.85468">
        <ele>1177.7</ele>
        <time>2026-05-15T08:34:14Z</time>
      </trkpt>
      <trkpt lat="43.80548" lon="6.85444">
        <ele>1177.5</ele>
        <time>2026-05-15T08:34:15Z</time>
      </trkpt>
      <trkpt lat="43.80538" lon="6.8542">
        <ele>1177.7</ele>
        <time>2026-05-15T08:34:16Z</time>
      </trkpt>
      <trkpt lat="43.80527" lon="6.85398">
        <ele>1177.4</ele>
        <time>2026-05-15T08:34:17Z</time>
      </trkpt>
      <trkpt lat="43.80517" lon="6.85375">
        <ele>1177.4</ele>
        <time>2026-05-15T08:34:18Z</time>
      </trkpt>
      <trkpt lat="43.80507" lon="6.85353">
        <ele>1177.5</ele>
        <time>2026-05-15T08:34:19Z</time>
      </trkpt>
      <trkpt lat="43.80498" lon="6.85332">
        <ele>1177.1</ele>
        <time>2026-05-15T08:34:20Z</time>
      </trkpt>
      <trkpt lat="43.80489" lon="6.85311">
        <ele>1177.4</ele>
        <time>2026-05-15T08:34:21Z</time>
      </trkpt>
      <trkpt lat="43.80481" lon="6.8529">
        <ele>1177.1</ele>
        <time>2026-05-15T08:34:22Z</time>
      </trkpt>
      <trkpt lat="43.80473" lon="6.85268">
        <ele>1176.6</ele>
        <time>2026-05-15T08:34:23Z</time>
      </trkpt>
      <trkpt lat="43.80465" lon="6.85245">
        <ele>1176.1</ele>
        <time>2026-05-15T08:34:24Z</time>
      </trkpt>
      <trkpt lat="43.80457" lon="6.85222">
        <ele>1175.5</ele>
        <time>2026-05-15T08:34:25Z</time>
      </trkpt>
      <trkpt lat="43.8045" lon="6.85199">
        <ele>1174.3</ele>
        <time>2026-05-15T08:34:26Z</time>
      </trkpt>
      <trkpt lat="43.80442" lon="6.85176">
        <ele>1173.4</ele>
        <time>2026-05-15T08:34:27Z</time>
      </trkpt>
      <trkpt lat="43.80435" lon="6.85153">
        <ele>1173</ele>
        <time>2026-05-15T08:34:28Z</time>
      </trkpt>
      <trkpt lat="43.80427" lon="6.8513">
        <ele>1173.1</ele>
        <time>2026-05-15T08:34:29Z</time>
      </trkpt>
      <trkpt lat="43.8042" lon="6.85107">
        <ele>1172.9</ele>
        <time>2026-05-15T08:34:30Z</time>
      </trkpt>
      <trkpt lat="43.80412" lon="6.85084">
        <ele>1173.3</ele>
        <time>2026-05-15T08:34:31Z</time>
      </trkpt>
      <trkpt lat="43.80405" lon="6.85061">
        <ele>1173</ele>
        <time>2026-05-15T08:34:32Z</time>
      </trkpt>
      <trkpt lat="43.80398" lon="6.85037">
        <ele>1172.9</ele>
        <time>2026-05-15T08:34:33Z</time>
      </trkpt>
      <trkpt lat="43.8039" lon="6.85013">
        <ele>1172.4</ele>
        <time>2026-05-15T08:34:34Z</time>
      </trkpt>
      <trkpt lat="43.80382" lon="6.84989">
        <ele>1172.2</ele>
        <time>2026-05-15T08:34:35Z</time>
      </trkpt>
      <trkpt lat="43.80374" lon="6.84965">
        <ele>1172.3</ele>
        <time>2026-05-15T08:34:36Z</time>
      </trkpt>
      <trkpt lat="43.80367" lon="6.84941">
        <ele>1172.3</ele>
        <time>2026-05-15T08:34:37Z</time>
      </trkpt>
      <trkpt lat="43.80359" lon="6.84917">
        <ele>1172.2</ele>
        <time>2026-05-15T08:34:38Z</time>
      </trkpt>
      <trkpt lat="43.80351" lon="6.84894">
        <ele>1172</ele>
        <time>2026-05-15T08:34:39Z</time>
      </trkpt>
      <trkpt lat="43.80343" lon="6.8487">
        <ele>1171.6</ele>
        <time>2026-05-15T08:34:40Z</time>
      </trkpt>
      <trkpt lat="43.80336" lon="6.84847">
        <ele>1171.3</ele>
        <time>2026-05-15T08:34:41Z</time>
      </trkpt>
      <trkpt lat="43.80328" lon="6.84824">
        <ele>1171.2</ele>
        <time>2026-05-15T08:34:42Z</time>
      </trkpt>
      <trkpt lat="43.80319" lon="6.84802">
        <ele>1170.8</ele>
        <time>2026-05-15T08:34:43Z</time>
      </trkpt>
      <trkpt lat="43.80311" lon="6.8478">
        <ele>1169.9</ele>
        <time>2026-05-15T08:34:44Z</time>
      </trkpt>
      <trkpt lat="43.80303" lon="6.84759">
        <ele>1169.4</ele>
        <time>2026-05-15T08:34:45Z</time>
      </trkpt>
      <trkpt lat="43.80295" lon="6.84737">
        <ele>1168.5</ele>
        <time>2026-05-15T08:34:46Z</time>
      </trkpt>
      <trkpt lat="43.80288" lon="6.84716">
        <ele>1168</ele>
        <time>2026-05-15T08:34:47Z</time>
      </trkpt>
      <trkpt lat="43.80281" lon="6.84694">
        <ele>1168</ele>
        <time>2026-05-15T08:34:48Z</time>
      </trkpt>
      <trkpt lat="43.80275" lon="6.84672">
        <ele>1168</ele>
        <time>2026-05-15T08:34:49Z</time>
      </trkpt>
      <trkpt lat="43.80268" lon="6.84649">
        <ele>1168</ele>
        <time>2026-05-15T08:34:50Z</time>
      </trkpt>
      <trkpt lat="43.80261" lon="6.84627">
        <ele>1168.2</ele>
        <time>2026-05-15T08:34:51Z</time>
      </trkpt>
      <trkpt lat="43.80254" lon="6.84605">
        <ele>1168.3</ele>
        <time>2026-05-15T08:34:52Z</time>
      </trkpt>
      <trkpt lat="43.80249" lon="6.84582">
        <ele>1169</ele>
        <time>2026-05-15T08:34:53Z</time>
      </trkpt>
      <trkpt lat="43.80244" lon="6.84559">
        <ele>1169</ele>
        <time>2026-05-15T08:34:54Z</time>
      </trkpt>
      <trkpt lat="43.80241" lon="6.84535">
        <ele>1169.2</ele>
        <time>2026-05-15T08:34:55Z</time>
      </trkpt>
      <trkpt lat="43.80239" lon="6.84511">
        <ele>1170.2</ele>
        <time>2026-05-15T08:34:56Z</time>
      </trkpt>
      <trkpt lat="43.80236" lon="6.84487">
        <ele>1171</ele>
        <time>2026-05-15T08:34:57Z</time>
      </trkpt>
      <trkpt lat="43.80234" lon="6.84463">
        <ele>1171.3</ele>
        <time>2026-05-15T08:34:58Z</time>
      </trkpt>
      <trkpt lat="43.80232" lon="6.84439">
        <ele>1172</ele>
        <time>2026-05-15T08:34:59Z</time>
      </trkpt>
      <trkpt lat="43.8023" lon="6.84416">
        <ele>1172.4</ele>
        <time>2026-05-15T08:35:00Z</time>
      </trkpt>
      <trkpt lat="43.80228" lon="6.84392">
        <ele>1172.6</ele>
        <time>2026-05-15T08:35:01Z</time>
      </trkpt>
      <trkpt lat="43.80225" lon="6.8437">
        <ele>1172.9</ele>
        <time>2026-05-15T08:35:02Z</time>
      </trkpt>
      <trkpt lat="43.80223" lon="6.84347">
        <ele>1173</ele>
        <time>2026-05-15T08:35:03Z</time>
      </trkpt>
      <trkpt lat="43.80221" lon="6.84324">
        <ele>1173.1</ele>
        <time>2026-05-15T08:35:04Z</time>
      </trkpt>
      <trkpt lat="43.80219" lon="6.84301">
        <ele>1173.2</ele>
        <time>2026-05-15T08:35:05Z</time>
      </trkpt>
      <trkpt lat="43.80217" lon="6.84278">
        <ele>1173.4</ele>
        <time>2026-05-15T08:35:06Z</time>
      </trkpt>
      <trkpt lat="43.80215" lon="6.84254">
        <ele>1173.5</ele>
        <time>2026-05-15T08:35:07Z</time>
      </trkpt>
      <trkpt lat="43.80213" lon="6.8423">
        <ele>1173.7</ele>
        <time>2026-05-15T08:35:08Z</time>
      </trkpt>
      <trkpt lat="43.80211" lon="6.84207">
        <ele>1173.6</ele>
        <time>2026-05-15T08:35:09Z</time>
      </trkpt>
      <trkpt lat="43.80208" lon="6.84183">
        <ele>1173.3</ele>
        <time>2026-05-15T08:35:10Z</time>
      </trkpt>
      <trkpt lat="43.80204" lon="6.84158">
        <ele>1173</ele>
        <time>2026-05-15T08:35:11Z</time>
      </trkpt>
      <trkpt lat="43.802" lon="6.84134">
        <ele>1172.5</ele>
        <time>2026-05-15T08:35:12Z</time>
      </trkpt>
      <trkpt lat="43.80195" lon="6.84109">
        <ele>1171.9</ele>
        <time>2026-05-15T08:35:13Z</time>
      </trkpt>
      <trkpt lat="43.80189" lon="6.84084">
        <ele>1171.4</ele>
        <time>2026-05-15T08:35:14Z</time>
      </trkpt>
      <trkpt lat="43.80182" lon="6.84059">
        <ele>1170.6</ele>
        <time>2026-05-15T08:35:15Z</time>
      </trkpt>
      <trkpt lat="43.80175" lon="6.84035">
        <ele>1170</ele>
        <time>2026-05-15T08:35:16Z</time>
      </trkpt>
      <trkpt lat="43.80168" lon="6.84011">
        <ele>1169.3</ele>
        <time>2026-05-15T08:35:17Z</time>
      </trkpt>
      <trkpt lat="43.8016" lon="6.83989">
        <ele>1169.2</ele>
        <time>2026-05-15T08:35:18Z</time>
      </trkpt>
      <trkpt lat="43.80152" lon="6.83966">
        <ele>1168.7</ele>
        <time>2026-05-15T08:35:19Z</time>
      </trkpt>
      <trkpt lat="43.80144" lon="6.83944">
        <ele>1167.8</ele>
        <time>2026-05-15T08:35:20Z</time>
      </trkpt>
      <trkpt lat="43.80135" lon="6.83923">
        <ele>1167.7</ele>
        <time>2026-05-15T08:35:21Z</time>
      </trkpt>
      <trkpt lat="43.80128" lon="6.83906">
        <ele>1167.4</ele>
        <time>2026-05-15T08:35:22Z</time>
      </trkpt>
      <trkpt lat="43.80122" lon="6.83892">
        <ele>1167</ele>
        <time>2026-05-15T08:35:23Z</time>
      </trkpt>
      <trkpt lat="43.80117" lon="6.83884">
        <ele>1167</ele>
        <time>2026-05-15T08:35:24Z</time>
      </trkpt>
      <trkpt lat="43.80112" lon="6.83874">
        <ele>1166.8</ele>
        <time>2026-05-15T08:35:25Z</time>
      </trkpt>
      <trkpt lat="43.80107" lon="6.83865">
        <ele>1166.6</ele>
        <time>2026-05-15T08:35:26Z</time>
      </trkpt>
      <trkpt lat="43.80103" lon="6.83856">
        <ele>1166.2</ele>
        <time>2026-05-15T08:35:27Z</time>
      </trkpt>
      <trkpt lat="43.80098" lon="6.83849">
        <ele>1165.9</ele>
        <time>2026-05-15T08:35:28Z</time>
      </trkpt>
      <trkpt lat="43.80094" lon="6.83843">
        <ele>1165.5</ele>
        <time>2026-05-15T08:35:29Z</time>
      </trkpt>
      <trkpt lat="43.80089" lon="6.83838">
        <ele>1165.3</ele>
        <time>2026-05-15T08:35:30Z</time>
      </trkpt>
      <trkpt lat="43.80083" lon="6.83833">
        <ele>1165</ele>
        <time>2026-05-15T08:35:31Z</time>
      </trkpt>
      <trkpt lat="43.80077" lon="6.83828">
        <ele>1164.4</ele>
        <time>2026-05-15T08:35:32Z</time>
      </trkpt>
      <trkpt lat="43.8007" lon="6.83824">
        <ele>1164</ele>
        <time>2026-05-15T08:35:33Z</time>
      </trkpt>
      <trkpt lat="43.80064" lon="6.8382">
        <ele>1163.7</ele>
        <time>2026-05-15T08:35:34Z</time>
      </trkpt>
      <trkpt lat="43.8006" lon="6.83815">
        <ele>1163.4</ele>
        <time>2026-05-15T08:35:35Z</time>
      </trkpt>
      <trkpt lat="43.80058" lon="6.83809">
        <ele>1163.1</ele>
        <time>2026-05-15T08:35:36Z</time>
      </trkpt>
      <trkpt lat="43.80059" lon="6.83802">
        <ele>1163</ele>
        <time>2026-05-15T08:35:37Z</time>
      </trkpt>
      <trkpt lat="43.80061" lon="6.83797">
        <ele>1162.9</ele>
        <time>2026-05-15T08:35:38Z</time>
      </trkpt>
      <trkpt lat="43.80064" lon="6.83793">
        <ele>1162.9</ele>
        <time>2026-05-15T08:35:39Z</time>
      </trkpt>
      <trkpt lat="43.80067" lon="6.83792">
        <ele>1162.8</ele>
        <time>2026-05-15T08:35:40Z</time>
      </trkpt>
      <trkpt lat="43.8007" lon="6.83793">
        <ele>1162.8</ele>
        <time>2026-05-15T08:35:41Z</time>
      </trkpt>
      <trkpt lat="43.80073" lon="6.83795">
        <ele>1162.8</ele>
        <time>2026-05-15T08:35:42Z</time>
      </trkpt>
      <trkpt lat="43.80077" lon="6.83799">
        <ele>1162.8</ele>
        <time>2026-05-15T08:35:43Z</time>
      </trkpt>
      <trkpt lat="43.80082" lon="6.83807">
        <ele>1163.1</ele>
        <time>2026-05-15T08:35:44Z</time>
      </trkpt>
      <trkpt lat="43.80086" lon="6.83817">
        <ele>1163.8</ele>
        <time>2026-05-15T08:35:45Z</time>
      </trkpt>
      <trkpt lat="43.80091" lon="6.83828">
        <ele>1164.4</ele>
        <time>2026-05-15T08:35:46Z</time>
      </trkpt>
      <trkpt lat="43.80097" lon="6.83839">
        <ele>1165</ele>
        <time>2026-05-15T08:35:47Z</time>
      </trkpt>
      <trkpt lat="43.80105" lon="6.83853">
        <ele>1165.8</ele>
        <time>2026-05-15T08:35:48Z</time>
      </trkpt>
      <trkpt lat="43.80112" lon="6.83866">
        <ele>1166.3</ele>
        <time>2026-05-15T08:35:49Z</time>
      </trkpt>
      <trkpt lat="43.8012" lon="6.83879">
        <ele>1166.4</ele>
        <time>2026-05-15T08:35:50Z</time>
      </trkpt>
      <trkpt lat="43.80129" lon="6.83893">
        <ele>1166.4</ele>
        <time>2026-05-15T08:35:51Z</time>
      </trkpt>
      <trkpt lat="43.8014" lon="6.83905">
        <ele>1166.1</ele>
        <time>2026-05-15T08:35:52Z</time>
      </trkpt>
      <trkpt lat="43.80152" lon="6.83917">
        <ele>1166.1</ele>
        <time>2026-05-15T08:35:53Z</time>
      </trkpt>
      <trkpt lat="43.80166" lon="6.83928">
        <ele>1165.9</ele>
        <time>2026-05-15T08:35:54Z</time>
      </trkpt>
      <trkpt lat="43.8018" lon="6.83939">
        <ele>1166.7</ele>
        <time>2026-05-15T08:35:55Z</time>
      </trkpt>
      <trkpt lat="43.80194" lon="6.83947">
        <ele>1167</ele>
        <time>2026-05-15T08:35:56Z</time>
      </trkpt>
      <trkpt lat="43.8021" lon="6.83954">
        <ele>1167.6</ele>
        <time>2026-05-15T08:35:57Z</time>
      </trkpt>
      <trkpt lat="43.80227" lon="6.83959">
        <ele>1168.3</ele>
        <time>2026-05-15T08:35:58Z</time>
      </trkpt>
      <trkpt lat="43.80242" lon="6.8396">
        <ele>1169.4</ele>
        <time>2026-05-15T08:35:59Z</time>
      </trkpt>
      <trkpt lat="43.80258" lon="6.8396">
        <ele>1170.6</ele>
        <time>2026-05-15T08:36:00Z</time>
      </trkpt>
      <trkpt lat="43.80274" lon="6.8396">
        <ele>1171.7</ele>
        <time>2026-05-15T08:36:01Z</time>
      </trkpt>
      <trkpt lat="43.80288" lon="6.83956">
        <ele>1172.7</ele>
        <time>2026-05-15T08:36:02Z</time>
      </trkpt>
      <trkpt lat="43.80302" lon="6.83951">
        <ele>1173.7</ele>
        <time>2026-05-15T08:36:03Z</time>
      </trkpt>
      <trkpt lat="43.80315" lon="6.83945">
        <ele>1174.7</ele>
        <time>2026-05-15T08:36:04Z</time>
      </trkpt>
      <trkpt lat="43.80327" lon="6.83939">
        <ele>1175.5</ele>
        <time>2026-05-15T08:36:05Z</time>
      </trkpt>
      <trkpt lat="43.80339" lon="6.83931">
        <ele>1176.5</ele>
        <time>2026-05-15T08:36:06Z</time>
      </trkpt>
      <trkpt lat="43.80351" lon="6.83922">
        <ele>1177.4</ele>
        <time>2026-05-15T08:36:07Z</time>
      </trkpt>
      <trkpt lat="43.80361" lon="6.83914">
        <ele>1178</ele>
        <time>2026-05-15T08:36:08Z</time>
      </trkpt>
      <trkpt lat="43.80372" lon="6.83907">
        <ele>1179.2</ele>
        <time>2026-05-15T08:36:09Z</time>
      </trkpt>
      <trkpt lat="43.80384" lon="6.83899">
        <ele>1180.5</ele>
        <time>2026-05-15T08:36:10Z</time>
      </trkpt>
      <trkpt lat="43.80395" lon="6.83891">
        <ele>1181.7</ele>
        <time>2026-05-15T08:36:11Z</time>
      </trkpt>
      <trkpt lat="43.80407" lon="6.83882">
        <ele>1182.7</ele>
        <time>2026-05-15T08:36:12Z</time>
      </trkpt>
      <trkpt lat="43.80418" lon="6.83873">
        <ele>1183.6</ele>
        <time>2026-05-15T08:36:13Z</time>
      </trkpt>
      <trkpt lat="43.80429" lon="6.83864">
        <ele>1184.4</ele>
        <time>2026-05-15T08:36:14Z</time>
      </trkpt>
      <trkpt lat="43.80441" lon="6.83855">
        <ele>1185.6</ele>
        <time>2026-05-15T08:36:15Z</time>
      </trkpt>
      <trkpt lat="43.80452" lon="6.83846">
        <ele>1186.9</ele>
        <time>2026-05-15T08:36:16Z</time>
      </trkpt>
      <trkpt lat="43.80464" lon="6.83838">
        <ele>1188.2</ele>
        <time>2026-05-15T08:36:17Z</time>
      </trkpt>
      <trkpt lat="43.80476" lon="6.83829">
        <ele>1189.5</ele>
        <time>2026-05-15T08:36:18Z</time>
      </trkpt>
      <trkpt lat="43.80489" lon="6.8382">
        <ele>1191.1</ele>
        <time>2026-05-15T08:36:19Z</time>
      </trkpt>
      <trkpt lat="43.80502" lon="6.83809">
        <ele>1192.4</ele>
        <time>2026-05-15T08:36:20Z</time>
      </trkpt>
      <trkpt lat="43.80516" lon="6.83799">
        <ele>1194.1</ele>
        <time>2026-05-15T08:36:21Z</time>
      </trkpt>
      <trkpt lat="43.8053" lon="6.83788">
        <ele>1195.7</ele>
        <time>2026-05-15T08:36:22Z</time>
      </trkpt>
      <trkpt lat="43.80545" lon="6.83777">
        <ele>1197.5</ele>
        <time>2026-05-15T08:36:23Z</time>
      </trkpt>
      <trkpt lat="43.80559" lon="6.83766">
        <ele>1198.9</ele>
        <time>2026-05-15T08:36:24Z</time>
      </trkpt>
      <trkpt lat="43.80575" lon="6.83755">
        <ele>1200.3</ele>
        <time>2026-05-15T08:36:25Z</time>
      </trkpt>
      <trkpt lat="43.8059" lon="6.83744">
        <ele>1201.9</ele>
        <time>2026-05-15T08:36:26Z</time>
      </trkpt>
      <trkpt lat="43.80605" lon="6.83734">
        <ele>1203.7</ele>
        <time>2026-05-15T08:36:27Z</time>
      </trkpt>
      <trkpt lat="43.80621" lon="6.83722">
        <ele>1205.4</ele>
        <time>2026-05-15T08:36:28Z</time>
      </trkpt>
      <trkpt lat="43.80636" lon="6.83711">
        <ele>1207.2</ele>
        <time>2026-05-15T08:36:29Z</time>
      </trkpt>
      <trkpt lat="43.80651" lon="6.83699">
        <ele>1208.9</ele>
        <time>2026-05-15T08:36:30Z</time>
      </trkpt>
      <trkpt lat="43.80664" lon="6.83686">
        <ele>1210.6</ele>
        <time>2026-05-15T08:36:31Z</time>
      </trkpt>
      <trkpt lat="43.80675" lon="6.8367">
        <ele>1212.5</ele>
        <time>2026-05-15T08:36:32Z</time>
      </trkpt>
      <trkpt lat="43.80683" lon="6.83651">
        <ele>1213.4</ele>
        <time>2026-05-15T08:36:33Z</time>
      </trkpt>
      <trkpt lat="43.80689" lon="6.83632">
        <ele>1213.8</ele>
        <time>2026-05-15T08:36:34Z</time>
      </trkpt>
      <trkpt lat="43.80693" lon="6.83611">
        <ele>1213.8</ele>
        <time>2026-05-15T08:36:35Z</time>
      </trkpt>
      <trkpt lat="43.80697" lon="6.8359">
        <ele>1214.5</ele>
        <time>2026-05-15T08:36:36Z</time>
      </trkpt>
      <trkpt lat="43.80701" lon="6.83569">
        <ele>1215.2</ele>
        <time>2026-05-15T08:36:37Z</time>
      </trkpt>
      <trkpt lat="43.80708" lon="6.83548">
        <ele>1216.3</ele>
        <time>2026-05-15T08:36:38Z</time>
      </trkpt>
      <trkpt lat="43.80715" lon="6.83526">
        <ele>1216.9</ele>
        <time>2026-05-15T08:36:39Z</time>
      </trkpt>
      <trkpt lat="43.80724" lon="6.83506">
        <ele>1218.3</ele>
        <time>2026-05-15T08:36:40Z</time>
      </trkpt>
      <trkpt lat="43.80733" lon="6.83486">
        <ele>1219.2</ele>
        <time>2026-05-15T08:36:41Z</time>
      </trkpt>
      <trkpt lat="43.80742" lon="6.83467">
        <ele>1220.6</ele>
        <time>2026-05-15T08:36:42Z</time>
      </trkpt>
      <trkpt lat="43.8075" lon="6.83448">
        <ele>1222</ele>
        <time>2026-05-15T08:36:43Z</time>
      </trkpt>
      <trkpt lat="43.80758" lon="6.83428">
        <ele>1224.2</ele>
        <time>2026-05-15T08:36:44Z</time>
      </trkpt>
      <trkpt lat="43.80764" lon="6.83408">
        <ele>1226.3</ele>
        <time>2026-05-15T08:36:45Z</time>
      </trkpt>
      <trkpt lat="43.80768" lon="6.83387">
        <ele>1228</ele>
        <time>2026-05-15T08:36:46Z</time>
      </trkpt>
      <trkpt lat="43.80769" lon="6.83367">
        <ele>1228.9</ele>
        <time>2026-05-15T08:36:47Z</time>
      </trkpt>
      <trkpt lat="43.8077" lon="6.83347">
        <ele>1230.3</ele>
        <time>2026-05-15T08:36:48Z</time>
      </trkpt>
      <trkpt lat="43.8077" lon="6.83326">
        <ele>1231.8</ele>
        <time>2026-05-15T08:36:49Z</time>
      </trkpt>
      <trkpt lat="43.8077" lon="6.83306">
        <ele>1233.3</ele>
        <time>2026-05-15T08:36:50Z</time>
      </trkpt>
      <trkpt lat="43.8077" lon="6.83286">
        <ele>1235.2</ele>
        <time>2026-05-15T08:36:51Z</time>
      </trkpt>
      <trkpt lat="43.8077" lon="6.83265">
        <ele>1237.8</ele>
        <time>2026-05-15T08:36:52Z</time>
      </trkpt>
      <trkpt lat="43.80768" lon="6.83244">
        <ele>1240.1</ele>
        <time>2026-05-15T08:36:53Z</time>
      </trkpt>
      <trkpt lat="43.80765" lon="6.83224">
        <ele>1242.1</ele>
        <time>2026-05-15T08:36:54Z</time>
      </trkpt>
      <trkpt lat="43.80761" lon="6.83203">
        <ele>1244</ele>
        <time>2026-05-15T08:36:55Z</time>
      </trkpt>
      <trkpt lat="43.80755" lon="6.83184">
        <ele>1244.5</ele>
        <time>2026-05-15T08:36:56Z</time>
      </trkpt>
      <trkpt lat="43.80748" lon="6.83164">
        <ele>1244.8</ele>
        <time>2026-05-15T08:36:57Z</time>
      </trkpt>
      <trkpt lat="43.80741" lon="6.83144">
        <ele>1246.2</ele>
        <time>2026-05-15T08:36:58Z</time>
      </trkpt>
      <trkpt lat="43.80733" lon="6.83125">
        <ele>1247.5</ele>
        <time>2026-05-15T08:36:59Z</time>
      </trkpt>
      <trkpt lat="43.80725" lon="6.83106">
        <ele>1248.8</ele>
        <time>2026-05-15T08:37:00Z</time>
      </trkpt>
      <trkpt lat="43.80717" lon="6.83086">
        <ele>1250</ele>
        <time>2026-05-15T08:37:01Z</time>
      </trkpt>
      <trkpt lat="43.80708" lon="6.83068">
        <ele>1250.4</ele>
        <time>2026-05-15T08:37:02Z</time>
      </trkpt>
      <trkpt lat="43.80696" lon="6.83051">
        <ele>1248.8</ele>
        <time>2026-05-15T08:37:03Z</time>
      </trkpt>
      <trkpt lat="43.80685" lon="6.83035">
        <ele>1249.5</ele>
        <time>2026-05-15T08:37:04Z</time>
      </trkpt>
      <trkpt lat="43.80674" lon="6.8302">
        <ele>1250.8</ele>
        <time>2026-05-15T08:37:05Z</time>
      </trkpt>
      <trkpt lat="43.80662" lon="6.83006">
        <ele>1251.7</ele>
        <time>2026-05-15T08:37:06Z</time>
      </trkpt>
      <trkpt lat="43.80652" lon="6.82993">
        <ele>1253.1</ele>
        <time>2026-05-15T08:37:07Z</time>
      </trkpt>
      <trkpt lat="43.80644" lon="6.82981">
        <ele>1254.3</ele>
        <time>2026-05-15T08:37:08Z</time>
      </trkpt>
      <trkpt lat="43.80636" lon="6.82969">
        <ele>1254.4</ele>
        <time>2026-05-15T08:37:09Z</time>
      </trkpt>
      <trkpt lat="43.80632" lon="6.82958">
        <ele>1254.8</ele>
        <time>2026-05-15T08:37:10Z</time>
      </trkpt>
      <trkpt lat="43.80631" lon="6.82946">
        <ele>1256.6</ele>
        <time>2026-05-15T08:37:11Z</time>
      </trkpt>
      <trkpt lat="43.80632" lon="6.82933">
        <ele>1257.5</ele>
        <time>2026-05-15T08:37:12Z</time>
      </trkpt>
      <trkpt lat="43.80636" lon="6.8292">
        <ele>1259</ele>
        <time>2026-05-15T08:37:13Z</time>
      </trkpt>
      <trkpt lat="43.80642" lon="6.82907">
        <ele>1260.6</ele>
        <time>2026-05-15T08:37:14Z</time>
      </trkpt>
      <trkpt lat="43.80648" lon="6.82893">
        <ele>1261.8</ele>
        <time>2026-05-15T08:37:15Z</time>
      </trkpt>
      <trkpt lat="43.80655" lon="6.82877">
        <ele>1262.1</ele>
        <time>2026-05-15T08:37:16Z</time>
      </trkpt>
      <trkpt lat="43.80661" lon="6.8286">
        <ele>1261.5</ele>
        <time>2026-05-15T08:37:17Z</time>
      </trkpt>
      <trkpt lat="43.80666" lon="6.82842">
        <ele>1261.5</ele>
        <time>2026-05-15T08:37:18Z</time>
      </trkpt>
      <trkpt lat="43.80671" lon="6.82825">
        <ele>1262.5</ele>
        <time>2026-05-15T08:37:19Z</time>
      </trkpt>
      <trkpt lat="43.80677" lon="6.82808">
        <ele>1264</ele>
        <time>2026-05-15T08:37:20Z</time>
      </trkpt>
      <trkpt lat="43.80684" lon="6.82791">
        <ele>1264.4</ele>
        <time>2026-05-15T08:37:21Z</time>
      </trkpt>
      <trkpt lat="43.80694" lon="6.82776">
        <ele>1265.7</ele>
        <time>2026-05-15T08:37:22Z</time>
      </trkpt>
      <trkpt lat="43.80703" lon="6.82762">
        <ele>1266.3</ele>
        <time>2026-05-15T08:37:23Z</time>
      </trkpt>
      <trkpt lat="43.80711" lon="6.82746">
        <ele>1266.1</ele>
        <time>2026-05-15T08:37:24Z</time>
      </trkpt>
      <trkpt lat="43.80717" lon="6.8273">
        <ele>1265.6</ele>
        <time>2026-05-15T08:37:25Z</time>
      </trkpt>
      <trkpt lat="43.80724" lon="6.82716">
        <ele>1265.7</ele>
        <time>2026-05-15T08:37:26Z</time>
      </trkpt>
      <trkpt lat="43.80732" lon="6.82704">
        <ele>1266.4</ele>
        <time>2026-05-15T08:37:27Z</time>
      </trkpt>
      <trkpt lat="43.80742" lon="6.82694">
        <ele>1267.9</ele>
        <time>2026-05-15T08:37:28Z</time>
      </trkpt>
      <trkpt lat="43.80751" lon="6.82684">
        <ele>1268.6</ele>
        <time>2026-05-15T08:37:29Z</time>
      </trkpt>
      <trkpt lat="43.80761" lon="6.82677">
        <ele>1268.7</ele>
        <time>2026-05-15T08:37:30Z</time>
      </trkpt>
      <trkpt lat="43.80772" lon="6.82673">
        <ele>1269.3</ele>
        <time>2026-05-15T08:37:31Z</time>
      </trkpt>
      <trkpt lat="43.80783" lon="6.82672">
        <ele>1269.9</ele>
        <time>2026-05-15T08:37:32Z</time>
      </trkpt>
      <trkpt lat="43.80793" lon="6.82676">
        <ele>1270.7</ele>
        <time>2026-05-15T08:37:33Z</time>
      </trkpt>
      <trkpt lat="43.80802" lon="6.82685">
        <ele>1271.9</ele>
        <time>2026-05-15T08:37:34Z</time>
      </trkpt>
      <trkpt lat="43.80808" lon="6.82696">
        <ele>1273.1</ele>
        <time>2026-05-15T08:37:35Z</time>
      </trkpt>
      <trkpt lat="43.80811" lon="6.82711">
        <ele>1274.4</ele>
        <time>2026-05-15T08:37:36Z</time>
      </trkpt>
      <trkpt lat="43.80814" lon="6.82726">
        <ele>1276</ele>
        <time>2026-05-15T08:37:37Z</time>
      </trkpt>
      <trkpt lat="43.80819" lon="6.82741">
        <ele>1278</ele>
        <time>2026-05-15T08:37:38Z</time>
      </trkpt>
      <trkpt lat="43.80825" lon="6.82753">
        <ele>1279.8</ele>
        <time>2026-05-15T08:37:39Z</time>
      </trkpt>
      <trkpt lat="43.80836" lon="6.82761">
        <ele>1281.9</ele>
        <time>2026-05-15T08:37:40Z</time>
      </trkpt>
      <trkpt lat="43.80847" lon="6.82767">
        <ele>1283.9</ele>
        <time>2026-05-15T08:37:41Z</time>
      </trkpt>
      <trkpt lat="43.80857" lon="6.82771">
        <ele>1285.6</ele>
        <time>2026-05-15T08:37:42Z</time>
      </trkpt>
      <trkpt lat="43.80868" lon="6.82773">
        <ele>1287.6</ele>
        <time>2026-05-15T08:37:43Z</time>
      </trkpt>
      <trkpt lat="43.80878" lon="6.82771">
        <ele>1289.1</ele>
        <time>2026-05-15T08:37:44Z</time>
      </trkpt>
      <trkpt lat="43.80888" lon="6.82766">
        <ele>1290.1</ele>
        <time>2026-05-15T08:37:45Z</time>
      </trkpt>
      <trkpt lat="43.80894" lon="6.82751">
        <ele>1289.4</ele>
        <time>2026-05-15T08:37:46Z</time>
      </trkpt>
      <trkpt lat="43.80903" lon="6.82741">
        <ele>1290.1</ele>
        <time>2026-05-15T08:37:47Z</time>
      </trkpt>
      <trkpt lat="43.80913" lon="6.82732">
        <ele>1291.4</ele>
        <time>2026-05-15T08:37:48Z</time>
      </trkpt>
      <trkpt lat="43.80922" lon="6.82723">
        <ele>1292.8</ele>
        <time>2026-05-15T08:37:49Z</time>
      </trkpt>
      <trkpt lat="43.80931" lon="6.82713">
        <ele>1294.5</ele>
        <time>2026-05-15T08:37:50Z</time>
      </trkpt>
      <trkpt lat="43.80938" lon="6.827">
        <ele>1295.3</ele>
        <time>2026-05-15T08:37:51Z</time>
      </trkpt>
      <trkpt lat="43.80946" lon="6.82686">
        <ele>1296.7</ele>
        <time>2026-05-15T08:37:52Z</time>
      </trkpt>
      <trkpt lat="43.80954" lon="6.82671">
        <ele>1298.5</ele>
        <time>2026-05-15T08:37:53Z</time>
      </trkpt>
      <trkpt lat="43.8096" lon="6.82653">
        <ele>1299.2</ele>
        <time>2026-05-15T08:37:54Z</time>
      </trkpt>
      <trkpt lat="43.80966" lon="6.82634">
        <ele>1299.7</ele>
        <time>2026-05-15T08:37:55Z</time>
      </trkpt>
      <trkpt lat="43.80972" lon="6.82615">
        <ele>1300.3</ele>
        <time>2026-05-15T08:37:56Z</time>
      </trkpt>
      <trkpt lat="43.80978" lon="6.82597">
        <ele>1301.1</ele>
        <time>2026-05-15T08:37:57Z</time>
      </trkpt>
      <trkpt lat="43.80985" lon="6.8258">
        <ele>1302.7</ele>
        <time>2026-05-15T08:37:58Z</time>
      </trkpt>
      <trkpt lat="43.80991" lon="6.82565">
        <ele>1304.5</ele>
        <time>2026-05-15T08:37:59Z</time>
      </trkpt>
      <trkpt lat="43.80995" lon="6.82548">
        <ele>1305.7</ele>
        <time>2026-05-15T08:38:00Z</time>
      </trkpt>
      <trkpt lat="43.80999" lon="6.82531">
        <ele>1307.5</ele>
        <time>2026-05-15T08:38:01Z</time>
      </trkpt>
      <trkpt lat="43.80994" lon="6.82513">
        <ele>1305.7</ele>
        <time>2026-05-15T08:38:02Z</time>
      </trkpt>
      <trkpt lat="43.80992" lon="6.82494">
        <ele>1305.7</ele>
        <time>2026-05-15T08:38:03Z</time>
      </trkpt>
      <trkpt lat="43.80989" lon="6.82474">
        <ele>1305.7</ele>
        <time>2026-05-15T08:38:04Z</time>
      </trkpt>
      <trkpt lat="43.80987" lon="6.82454">
        <ele>1306.5</ele>
        <time>2026-05-15T08:38:05Z</time>
      </trkpt>
      <trkpt lat="43.80984" lon="6.82434">
        <ele>1306.8</ele>
        <time>2026-05-15T08:38:06Z</time>
      </trkpt>
      <trkpt lat="43.80981" lon="6.82415">
        <ele>1306.9</ele>
        <time>2026-05-15T08:38:07Z</time>
      </trkpt>
      <trkpt lat="43.80979" lon="6.82396">
        <ele>1307.2</ele>
        <time>2026-05-15T08:38:08Z</time>
      </trkpt>
      <trkpt lat="43.80978" lon="6.82378">
        <ele>1307.3</ele>
        <time>2026-05-15T08:38:09Z</time>
      </trkpt>
      <trkpt lat="43.80978" lon="6.82361">
        <ele>1307.3</ele>
        <time>2026-05-15T08:38:10Z</time>
      </trkpt>
      <trkpt lat="43.8098" lon="6.82347">
        <ele>1307.6</ele>
        <time>2026-05-15T08:38:11Z</time>
      </trkpt>
      <trkpt lat="43.80985" lon="6.82334">
        <ele>1309.1</ele>
        <time>2026-05-15T08:38:12Z</time>
      </trkpt>
      <trkpt lat="43.80991" lon="6.82323">
        <ele>1310.7</ele>
        <time>2026-05-15T08:38:13Z</time>
      </trkpt>
      <trkpt lat="43.81" lon="6.82313">
        <ele>1313.5</ele>
        <time>2026-05-15T08:38:14Z</time>
      </trkpt>
      <trkpt lat="43.81009" lon="6.82301">
        <ele>1315.2</ele>
        <time>2026-05-15T08:38:15Z</time>
      </trkpt>
      <trkpt lat="43.81017" lon="6.82288">
        <ele>1316.4</ele>
        <time>2026-05-15T08:38:16Z</time>
      </trkpt>
      <trkpt lat="43.81025" lon="6.82273">
        <ele>1317.6</ele>
        <time>2026-05-15T08:38:17Z</time>
      </trkpt>
      <trkpt lat="43.81032" lon="6.82258">
        <ele>1318</ele>
        <time>2026-05-15T08:38:18Z</time>
      </trkpt>
      <trkpt lat="43.8104" lon="6.82243">
        <ele>1318.9</ele>
        <time>2026-05-15T08:38:19Z</time>
      </trkpt>
      <trkpt lat="43.81046" lon="6.82226">
        <ele>1319.2</ele>
        <time>2026-05-15T08:38:20Z</time>
      </trkpt>
      <trkpt lat="43.81051" lon="6.82209">
        <ele>1319.6</ele>
        <time>2026-05-15T08:38:21Z</time>
      </trkpt>
      <trkpt lat="43.81057" lon="6.82192">
        <ele>1320.3</ele>
        <time>2026-05-15T08:38:22Z</time>
      </trkpt>
      <trkpt lat="43.81064" lon="6.82176">
        <ele>1321.8</ele>
        <time>2026-05-15T08:38:23Z</time>
      </trkpt>
      <trkpt lat="43.81073" lon="6.82161">
        <ele>1323.8</ele>
        <time>2026-05-15T08:38:24Z</time>
      </trkpt>
      <trkpt lat="43.81082" lon="6.82145">
        <ele>1325.8</ele>
        <time>2026-05-15T08:38:25Z</time>
      </trkpt>
      <trkpt lat="43.81091" lon="6.82129">
        <ele>1326.7</ele>
        <time>2026-05-15T08:38:26Z</time>
      </trkpt>
      <trkpt lat="43.811" lon="6.8211">
        <ele>1327.1</ele>
        <time>2026-05-15T08:38:27Z</time>
      </trkpt>
      <trkpt lat="43.81108" lon="6.82092">
        <ele>1327.1</ele>
        <time>2026-05-15T08:38:28Z</time>
      </trkpt>
      <trkpt lat="43.81117" lon="6.82073">
        <ele>1327.5</ele>
        <time>2026-05-15T08:38:29Z</time>
      </trkpt>
      <trkpt lat="43.81126" lon="6.82054">
        <ele>1328.1</ele>
        <time>2026-05-15T08:38:30Z</time>
      </trkpt>
      <trkpt lat="43.81135" lon="6.82037">
        <ele>1329.4</ele>
        <time>2026-05-15T08:38:31Z</time>
      </trkpt>
      <trkpt lat="43.81144" lon="6.82019">
        <ele>1331.2</ele>
        <time>2026-05-15T08:38:32Z</time>
      </trkpt>
      <trkpt lat="43.81152" lon="6.82002">
        <ele>1333.3</ele>
        <time>2026-05-15T08:38:33Z</time>
      </trkpt>
      <trkpt lat="43.81159" lon="6.81984">
        <ele>1336.1</ele>
        <time>2026-05-15T08:38:34Z</time>
      </trkpt>
      <trkpt lat="43.81164" lon="6.81967">
        <ele>1338.3</ele>
        <time>2026-05-15T08:38:35Z</time>
      </trkpt>
      <trkpt lat="43.81165" lon="6.81949">
        <ele>1338.2</ele>
        <time>2026-05-15T08:38:36Z</time>
      </trkpt>
      <trkpt lat="43.81165" lon="6.81933">
        <ele>1338.5</ele>
        <time>2026-05-15T08:38:37Z</time>
      </trkpt>
      <trkpt lat="43.81161" lon="6.81915">
        <ele>1337.1</ele>
        <time>2026-05-15T08:38:38Z</time>
      </trkpt>
      <trkpt lat="43.81158" lon="6.81897">
        <ele>1336.7</ele>
        <time>2026-05-15T08:38:39Z</time>
      </trkpt>
      <trkpt lat="43.81153" lon="6.81879">
        <ele>1335.9</ele>
        <time>2026-05-15T08:38:40Z</time>
      </trkpt>
      <trkpt lat="43.81148" lon="6.8186">
        <ele>1335.8</ele>
        <time>2026-05-15T08:38:41Z</time>
      </trkpt>
      <trkpt lat="43.81142" lon="6.81841">
        <ele>1335.5</ele>
        <time>2026-05-15T08:38:42Z</time>
      </trkpt>
      <trkpt lat="43.81136" lon="6.81822">
        <ele>1335.7</ele>
        <time>2026-05-15T08:38:43Z</time>
      </trkpt>
      <trkpt lat="43.81132" lon="6.81801">
        <ele>1337.1</ele>
        <time>2026-05-15T08:38:44Z</time>
      </trkpt>
      <trkpt lat="43.81129" lon="6.8178">
        <ele>1338</ele>
        <time>2026-05-15T08:38:45Z</time>
      </trkpt>
      <trkpt lat="43.81126" lon="6.81758">
        <ele>1338.4</ele>
        <time>2026-05-15T08:38:46Z</time>
      </trkpt>
      <trkpt lat="43.81122" lon="6.81736">
        <ele>1338.7</ele>
        <time>2026-05-15T08:38:47Z</time>
      </trkpt>
      <trkpt lat="43.81118" lon="6.81713">
        <ele>1339.9</ele>
        <time>2026-05-15T08:38:48Z</time>
      </trkpt>
      <trkpt lat="43.81114" lon="6.81689">
        <ele>1341.8</ele>
        <time>2026-05-15T08:38:49Z</time>
      </trkpt>
      <trkpt lat="43.81109" lon="6.81666">
        <ele>1342.8</ele>
        <time>2026-05-15T08:38:50Z</time>
      </trkpt>
      <trkpt lat="43.81105" lon="6.81643">
        <ele>1343.7</ele>
        <time>2026-05-15T08:38:51Z</time>
      </trkpt>
      <trkpt lat="43.81102" lon="6.81619">
        <ele>1345.3</ele>
        <time>2026-05-15T08:38:52Z</time>
      </trkpt>
      <trkpt lat="43.81099" lon="6.81594">
        <ele>1347</ele>
        <time>2026-05-15T08:38:53Z</time>
      </trkpt>
      <trkpt lat="43.81096" lon="6.8157">
        <ele>1348.7</ele>
        <time>2026-05-15T08:38:54Z</time>
      </trkpt>
      <trkpt lat="43.81092" lon="6.81548">
        <ele>1349.4</ele>
        <time>2026-05-15T08:38:55Z</time>
      </trkpt>
      <trkpt lat="43.81089" lon="6.81527">
        <ele>1350.5</ele>
        <time>2026-05-15T08:38:56Z</time>
      </trkpt>
      <trkpt lat="43.81087" lon="6.81506">
        <ele>1351.4</ele>
        <time>2026-05-15T08:38:57Z</time>
      </trkpt>
      <trkpt lat="43.81088" lon="6.81485">
        <ele>1353.1</ele>
        <time>2026-05-15T08:38:58Z</time>
      </trkpt>
      <trkpt lat="43.81089" lon="6.81463">
        <ele>1354.3</ele>
        <time>2026-05-15T08:38:59Z</time>
      </trkpt>
      <trkpt lat="43.8109" lon="6.81443">
        <ele>1355.5</ele>
        <time>2026-05-15T08:39:00Z</time>
      </trkpt>
      <trkpt lat="43.81091" lon="6.81421">
        <ele>1357.8</ele>
        <time>2026-05-15T08:39:01Z</time>
      </trkpt>
      <trkpt lat="43.81089" lon="6.814">
        <ele>1358.5</ele>
        <time>2026-05-15T08:39:02Z</time>
      </trkpt>
      <trkpt lat="43.81087" lon="6.81379">
        <ele>1359</ele>
        <time>2026-05-15T08:39:03Z</time>
      </trkpt>
      <trkpt lat="43.81085" lon="6.81359">
        <ele>1359.2</ele>
        <time>2026-05-15T08:39:04Z</time>
      </trkpt>
      <trkpt lat="43.81085" lon="6.81339">
        <ele>1359.9</ele>
        <time>2026-05-15T08:39:05Z</time>
      </trkpt>
      <trkpt lat="43.81085" lon="6.81319">
        <ele>1360.6</ele>
        <time>2026-05-15T08:39:06Z</time>
      </trkpt>
      <trkpt lat="43.81086" lon="6.81298">
        <ele>1361.7</ele>
        <time>2026-05-15T08:39:07Z</time>
      </trkpt>
      <trkpt lat="43.81087" lon="6.81279">
        <ele>1362.2</ele>
        <time>2026-05-15T08:39:08Z</time>
      </trkpt>
      <trkpt lat="43.81085" lon="6.8126">
        <ele>1362.9</ele>
        <time>2026-05-15T08:39:09Z</time>
      </trkpt>
      <trkpt lat="43.81083" lon="6.81242">
        <ele>1363.1</ele>
        <time>2026-05-15T08:39:10Z</time>
      </trkpt>
      <trkpt lat="43.81084" lon="6.81224">
        <ele>1364.4</ele>
        <time>2026-05-15T08:39:11Z</time>
      </trkpt>
      <trkpt lat="43.81086" lon="6.81205">
        <ele>1364.6</ele>
        <time>2026-05-15T08:39:12Z</time>
      </trkpt>
      <trkpt lat="43.8109" lon="6.81187">
        <ele>1365.8</ele>
        <time>2026-05-15T08:39:13Z</time>
      </trkpt>
      <trkpt lat="43.81094" lon="6.81168">
        <ele>1366.8</ele>
        <time>2026-05-15T08:39:14Z</time>
      </trkpt>
      <trkpt lat="43.81098" lon="6.81151">
        <ele>1367.9</ele>
        <time>2026-05-15T08:39:15Z</time>
      </trkpt>
      <trkpt lat="43.81104" lon="6.81136">
        <ele>1370.5</ele>
        <time>2026-05-15T08:39:16Z</time>
      </trkpt>
      <trkpt lat="43.81111" lon="6.81121">
        <ele>1373.4</ele>
        <time>2026-05-15T08:39:17Z</time>
      </trkpt>
      <trkpt lat="43.81116" lon="6.81104">
        <ele>1374.4</ele>
        <time>2026-05-15T08:39:18Z</time>
      </trkpt>
      <trkpt lat="43.81119" lon="6.81085">
        <ele>1374.6</ele>
        <time>2026-05-15T08:39:19Z</time>
      </trkpt>
      <trkpt lat="43.81122" lon="6.81065">
        <ele>1375.8</ele>
        <time>2026-05-15T08:39:20Z</time>
      </trkpt>
      <trkpt lat="43.81126" lon="6.81045">
        <ele>1377.8</ele>
        <time>2026-05-15T08:39:21Z</time>
      </trkpt>
      <trkpt lat="43.8113" lon="6.81024">
        <ele>1379.6</ele>
        <time>2026-05-15T08:39:22Z</time>
      </trkpt>
      <trkpt lat="43.81135" lon="6.81003">
        <ele>1380.8</ele>
        <time>2026-05-15T08:39:23Z</time>
      </trkpt>
      <trkpt lat="43.8114" lon="6.8098">
        <ele>1382.4</ele>
        <time>2026-05-15T08:39:24Z</time>
      </trkpt>
      <trkpt lat="43.81143" lon="6.80956">
        <ele>1382.9</ele>
        <time>2026-05-15T08:39:25Z</time>
      </trkpt>
      <trkpt lat="43.81147" lon="6.80932">
        <ele>1385</ele>
        <time>2026-05-15T08:39:26Z</time>
      </trkpt>
      <trkpt lat="43.8115" lon="6.80907">
        <ele>1386.3</ele>
        <time>2026-05-15T08:39:27Z</time>
      </trkpt>
      <trkpt lat="43.81154" lon="6.80883">
        <ele>1387.2</ele>
        <time>2026-05-15T08:39:28Z</time>
      </trkpt>
      <trkpt lat="43.81158" lon="6.80858">
        <ele>1387.6</ele>
        <time>2026-05-15T08:39:29Z</time>
      </trkpt>
      <trkpt lat="43.81161" lon="6.80833">
        <ele>1388.3</ele>
        <time>2026-05-15T08:39:30Z</time>
      </trkpt>
      <trkpt lat="43.81165" lon="6.80809">
        <ele>1389.2</ele>
        <time>2026-05-15T08:39:31Z</time>
      </trkpt>
      <trkpt lat="43.81167" lon="6.80786">
        <ele>1390.3</ele>
        <time>2026-05-15T08:39:32Z</time>
      </trkpt>
      <trkpt lat="43.8117" lon="6.80764">
        <ele>1392.7</ele>
        <time>2026-05-15T08:39:33Z</time>
      </trkpt>
      <trkpt lat="43.81171" lon="6.80743">
        <ele>1393.3</ele>
        <time>2026-05-15T08:39:34Z</time>
      </trkpt>
      <trkpt lat="43.81174" lon="6.80721">
        <ele>1395.1</ele>
        <time>2026-05-15T08:39:35Z</time>
      </trkpt>
      <trkpt lat="43.81176" lon="6.807">
        <ele>1397.3</ele>
        <time>2026-05-15T08:39:36Z</time>
      </trkpt>
      <trkpt lat="43.81178" lon="6.80678">
        <ele>1398.7</ele>
        <time>2026-05-15T08:39:37Z</time>
      </trkpt>
      <trkpt lat="43.8118" lon="6.80655">
        <ele>1400.3</ele>
        <time>2026-05-15T08:39:38Z</time>
      </trkpt>
      <trkpt lat="43.8118" lon="6.80632">
        <ele>1401</ele>
        <time>2026-05-15T08:39:39Z</time>
      </trkpt>
      <trkpt lat="43.81179" lon="6.80609">
        <ele>1401.5</ele>
        <time>2026-05-15T08:39:40Z</time>
      </trkpt>
      <trkpt lat="43.81178" lon="6.80584">
        <ele>1403.1</ele>
        <time>2026-05-15T08:39:41Z</time>
      </trkpt>
      <trkpt lat="43.81177" lon="6.8056">
        <ele>1404.1</ele>
        <time>2026-05-15T08:39:42Z</time>
      </trkpt>
      <trkpt lat="43.81177" lon="6.80535">
        <ele>1405.3</ele>
        <time>2026-05-15T08:39:43Z</time>
      </trkpt>
      <trkpt lat="43.81178" lon="6.8051">
        <ele>1406.5</ele>
        <time>2026-05-15T08:39:44Z</time>
      </trkpt>
      <trkpt lat="43.81179" lon="6.80484">
        <ele>1407.9</ele>
        <time>2026-05-15T08:39:45Z</time>
      </trkpt>
      <trkpt lat="43.81181" lon="6.8046">
        <ele>1409.8</ele>
        <time>2026-05-15T08:39:46Z</time>
      </trkpt>
      <trkpt lat="43.81183" lon="6.80435">
        <ele>1410.6</ele>
        <time>2026-05-15T08:39:47Z</time>
      </trkpt>
      <trkpt lat="43.81187" lon="6.80412">
        <ele>1411.8</ele>
        <time>2026-05-15T08:39:48Z</time>
      </trkpt>
      <trkpt lat="43.8119" lon="6.80389">
        <ele>1412.6</ele>
        <time>2026-05-15T08:39:49Z</time>
      </trkpt>
      <trkpt lat="43.81194" lon="6.80367">
        <ele>1413.2</ele>
        <time>2026-05-15T08:39:50Z</time>
      </trkpt>
      <trkpt lat="43.812" lon="6.80347">
        <ele>1414.6</ele>
        <time>2026-05-15T08:39:51Z</time>
      </trkpt>
      <trkpt lat="43.81207" lon="6.80328">
        <ele>1416.1</ele>
        <time>2026-05-15T08:39:52Z</time>
      </trkpt>
      <trkpt lat="43.81214" lon="6.80312">
        <ele>1417.6</ele>
        <time>2026-05-15T08:39:53Z</time>
      </trkpt>
      <trkpt lat="43.81221" lon="6.80298">
        <ele>1419.9</ele>
        <time>2026-05-15T08:39:54Z</time>
      </trkpt>
      <trkpt lat="43.81226" lon="6.80285">
        <ele>1421.4</ele>
        <time>2026-05-15T08:39:55Z</time>
      </trkpt>
      <trkpt lat="43.81225" lon="6.80273">
        <ele>1422.3</ele>
        <time>2026-05-15T08:39:56Z</time>
      </trkpt>
      <trkpt lat="43.81221" lon="6.80264">
        <ele>1423.2</ele>
        <time>2026-05-15T08:39:57Z</time>
      </trkpt>
      <trkpt lat="43.81215" lon="6.80258">
        <ele>1422.9</ele>
        <time>2026-05-15T08:39:58Z</time>
      </trkpt>
      <trkpt lat="43.81207" lon="6.80254">
        <ele>1421.8</ele>
        <time>2026-05-15T08:39:59Z</time>
      </trkpt>
      <trkpt lat="43.81201" lon="6.80252">
        <ele>1420.9</ele>
        <time>2026-05-15T08:40:00Z</time>
      </trkpt>
      <trkpt lat="43.81195" lon="6.80249">
        <ele>1420.5</ele>
        <time>2026-05-15T08:40:01Z</time>
      </trkpt>
      <trkpt lat="43.81191" lon="6.80247">
        <ele>1420.1</ele>
        <time>2026-05-15T08:40:02Z</time>
      </trkpt>
      <trkpt lat="43.81188" lon="6.80243">
        <ele>1420.7</ele>
        <time>2026-05-15T08:40:03Z</time>
      </trkpt>
      <trkpt lat="43.81188" lon="6.80239">
        <ele>1422.2</ele>
        <time>2026-05-15T08:40:04Z</time>
      </trkpt>
      <trkpt lat="43.81189" lon="6.80235">
        <ele>1423.9</ele>
        <time>2026-05-15T08:40:05Z</time>
      </trkpt>
      <trkpt lat="43.81192" lon="6.80232">
        <ele>1425.8</ele>
        <time>2026-05-15T08:40:06Z</time>
      </trkpt>
      <trkpt lat="43.81198" lon="6.80231">
        <ele>1427.5</ele>
        <time>2026-05-15T08:40:07Z</time>
      </trkpt>
      <trkpt lat="43.81205" lon="6.80233">
        <ele>1428.2</ele>
        <time>2026-05-15T08:40:08Z</time>
      </trkpt>
      <trkpt lat="43.81213" lon="6.80235">
        <ele>1429</ele>
        <time>2026-05-15T08:40:09Z</time>
      </trkpt>
      <trkpt lat="43.81224" lon="6.80239">
        <ele>1429.8</ele>
        <time>2026-05-15T08:40:10Z</time>
      </trkpt>
      <trkpt lat="43.81235" lon="6.80242">
        <ele>1430.3</ele>
        <time>2026-05-15T08:40:11Z</time>
      </trkpt>
      <trkpt lat="43.81245" lon="6.80249">
        <ele>1429.6</ele>
        <time>2026-05-15T08:40:12Z</time>
      </trkpt>
      <trkpt lat="43.81256" lon="6.80257">
        <ele>1429.2</ele>
        <time>2026-05-15T08:40:13Z</time>
      </trkpt>
      <trkpt lat="43.81266" lon="6.80269">
        <ele>1427.7</ele>
        <time>2026-05-15T08:40:14Z</time>
      </trkpt>
      <trkpt lat="43.81275" lon="6.80282">
        <ele>1426.8</ele>
        <time>2026-05-15T08:40:15Z</time>
      </trkpt>
      <trkpt lat="43.81283" lon="6.80297">
        <ele>1426.9</ele>
        <time>2026-05-15T08:40:16Z</time>
      </trkpt>
      <trkpt lat="43.81292" lon="6.80309">
        <ele>1427.2</ele>
        <time>2026-05-15T08:40:17Z</time>
      </trkpt>
      <trkpt lat="43.81304" lon="6.80317">
        <ele>1428.5</ele>
        <time>2026-05-15T08:40:18Z</time>
      </trkpt>
      <trkpt lat="43.81317" lon="6.80323">
        <ele>1429.1</ele>
        <time>2026-05-15T08:40:19Z</time>
      </trkpt>
      <trkpt lat="43.8133" lon="6.80326">
        <ele>1428.9</ele>
        <time>2026-05-15T08:40:20Z</time>
      </trkpt>
      <trkpt lat="43.81343" lon="6.80329">
        <ele>1429.3</ele>
        <time>2026-05-15T08:40:21Z</time>
      </trkpt>
      <trkpt lat="43.81355" lon="6.80332">
        <ele>1429.8</ele>
        <time>2026-05-15T08:40:22Z</time>
      </trkpt>
      <trkpt lat="43.81366" lon="6.80333">
        <ele>1430.5</ele>
        <time>2026-05-15T08:40:23Z</time>
      </trkpt>
      <trkpt lat="43.81377" lon="6.80331">
        <ele>1431.4</ele>
        <time>2026-05-15T08:40:24Z</time>
      </trkpt>
      <trkpt lat="43.81387" lon="6.80324">
        <ele>1431.5</ele>
        <time>2026-05-15T08:40:25Z</time>
      </trkpt>
      <trkpt lat="43.81395" lon="6.80318">
        <ele>1431.2</ele>
        <time>2026-05-15T08:40:26Z</time>
      </trkpt>
      <trkpt lat="43.81405" lon="6.80316">
        <ele>1431.7</ele>
        <time>2026-05-15T08:40:27Z</time>
      </trkpt>
      <trkpt lat="43.81415" lon="6.80318">
        <ele>1432.7</ele>
        <time>2026-05-15T08:40:28Z</time>
      </trkpt>
      <trkpt lat="43.81425" lon="6.8032">
        <ele>1432.9</ele>
        <time>2026-05-15T08:40:29Z</time>
      </trkpt>
      <trkpt lat="43.81434" lon="6.80325">
        <ele>1433.4</ele>
        <time>2026-05-15T08:40:30Z</time>
      </trkpt>
      <trkpt lat="43.81443" lon="6.80329">
        <ele>1433.6</ele>
        <time>2026-05-15T08:40:31Z</time>
      </trkpt>
      <trkpt lat="43.81452" lon="6.80335">
        <ele>1434</ele>
        <time>2026-05-15T08:40:32Z</time>
      </trkpt>
      <trkpt lat="43.81462" lon="6.80342">
        <ele>1434.9</ele>
        <time>2026-05-15T08:40:33Z</time>
      </trkpt>
      <trkpt lat="43.81471" lon="6.80351">
        <ele>1436.2</ele>
        <time>2026-05-15T08:40:34Z</time>
      </trkpt>
      <trkpt lat="43.81481" lon="6.8036">
        <ele>1437.2</ele>
        <time>2026-05-15T08:40:35Z</time>
      </trkpt>
      <trkpt lat="43.81491" lon="6.8037">
        <ele>1437.4</ele>
        <time>2026-05-15T08:40:36Z</time>
      </trkpt>
      <trkpt lat="43.81501" lon="6.80382">
        <ele>1437.4</ele>
        <time>2026-05-15T08:40:37Z</time>
      </trkpt>
      <trkpt lat="43.81512" lon="6.80394">
        <ele>1437.2</ele>
        <time>2026-05-15T08:40:38Z</time>
      </trkpt>
      <trkpt lat="43.81522" lon="6.80407">
        <ele>1437.1</ele>
        <time>2026-05-15T08:40:39Z</time>
      </trkpt>
      <trkpt lat="43.81534" lon="6.80418">
        <ele>1436.5</ele>
        <time>2026-05-15T08:40:40Z</time>
      </trkpt>
      <trkpt lat="43.81546" lon="6.80431">
        <ele>1436.2</ele>
        <time>2026-05-15T08:40:41Z</time>
      </trkpt>
      <trkpt lat="43.81558" lon="6.80444">
        <ele>1435.7</ele>
        <time>2026-05-15T08:40:42Z</time>
      </trkpt>
      <trkpt lat="43.81569" lon="6.80457">
        <ele>1436.1</ele>
        <time>2026-05-15T08:40:43Z</time>
      </trkpt>
      <trkpt lat="43.8158" lon="6.80469">
        <ele>1436.1</ele>
        <time>2026-05-15T08:40:44Z</time>
      </trkpt>
      <trkpt lat="43.81591" lon="6.80482">
        <ele>1436.4</ele>
        <time>2026-05-15T08:40:45Z</time>
      </trkpt>
      <trkpt lat="43.81601" lon="6.80494">
        <ele>1436.6</ele>
        <time>2026-05-15T08:40:46Z</time>
      </trkpt>
      <trkpt lat="43.81611" lon="6.80507">
        <ele>1436.5</ele>
        <time>2026-05-15T08:40:47Z</time>
      </trkpt>
      <trkpt lat="43.8162" lon="6.80521">
        <ele>1436.2</ele>
        <time>2026-05-15T08:40:48Z</time>
      </trkpt>
      <trkpt lat="43.81629" lon="6.80534">
        <ele>1436.1</ele>
        <time>2026-05-15T08:40:49Z</time>
      </trkpt>
      <trkpt lat="43.8164" lon="6.80543">
        <ele>1435.5</ele>
        <time>2026-05-15T08:40:50Z</time>
      </trkpt>
      <trkpt lat="43.81652" lon="6.8055">
        <ele>1434.1</ele>
        <time>2026-05-15T08:40:51Z</time>
      </trkpt>
      <trkpt lat="43.81664" lon="6.80555">
        <ele>1432.4</ele>
        <time>2026-05-15T08:40:52Z</time>
      </trkpt>
      <trkpt lat="43.81675" lon="6.80561">
        <ele>1430.7</ele>
        <time>2026-05-15T08:40:53Z</time>
      </trkpt>
      <trkpt lat="43.81685" lon="6.80568">
        <ele>1429.1</ele>
        <time>2026-05-15T08:40:54Z</time>
      </trkpt>
      <trkpt lat="43.81691" lon="6.80578">
        <ele>1428.5</ele>
        <time>2026-05-15T08:40:55Z</time>
      </trkpt>
      <trkpt lat="43.81695" lon="6.80591">
        <ele>1428.3</ele>
        <time>2026-05-15T08:40:56Z</time>
      </trkpt>
      <trkpt lat="43.81697" lon="6.80606">
        <ele>1428.6</ele>
        <time>2026-05-15T08:40:57Z</time>
      </trkpt>
      <trkpt lat="43.81698" lon="6.80622">
        <ele>1429.7</ele>
        <time>2026-05-15T08:40:58Z</time>
      </trkpt>
      <trkpt lat="43.81699" lon="6.80638">
        <ele>1430.9</ele>
        <time>2026-05-15T08:40:59Z</time>
      </trkpt>
      <trkpt lat="43.81702" lon="6.80653">
        <ele>1431.4</ele>
        <time>2026-05-15T08:41:00Z</time>
      </trkpt>
      <trkpt lat="43.81706" lon="6.80666">
        <ele>1431.3</ele>
        <time>2026-05-15T08:41:01Z</time>
      </trkpt>
      <trkpt lat="43.81708" lon="6.80676">
        <ele>1432.3</ele>
        <time>2026-05-15T08:41:02Z</time>
      </trkpt>
      <trkpt lat="43.81711" lon="6.80684">
        <ele>1432.7</ele>
        <time>2026-05-15T08:41:03Z</time>
      </trkpt>
      <trkpt lat="43.81714" lon="6.8069">
        <ele>1432.8</ele>
        <time>2026-05-15T08:41:04Z</time>
      </trkpt>
      <trkpt lat="43.81718" lon="6.80696">
        <ele>1432.8</ele>
        <time>2026-05-15T08:41:05Z</time>
      </trkpt>
      <trkpt lat="43.81723" lon="6.80689">
        <ele>1429.5</ele>
        <time>2026-05-15T08:41:06Z</time>
      </trkpt>
      <trkpt lat="43.81725" lon="6.80684">
        <ele>1427.7</ele>
        <time>2026-05-15T08:41:07Z</time>
      </trkpt>
      <trkpt lat="43.81726" lon="6.8068">
        <ele>1426.4</ele>
        <time>2026-05-15T08:41:08Z</time>
      </trkpt>
      <trkpt lat="43.81725" lon="6.80676">
        <ele>1425.9</ele>
        <time>2026-05-15T08:41:09Z</time>
      </trkpt>
      <trkpt lat="43.81724" lon="6.80672">
        <ele>1425.4</ele>
        <time>2026-05-15T08:41:10Z</time>
      </trkpt>
      <trkpt lat="43.81722" lon="6.80666">
        <ele>1425</ele>
        <time>2026-05-15T08:41:11Z</time>
      </trkpt>
      <trkpt lat="43.81719" lon="6.80658">
        <ele>1425.1</ele>
        <time>2026-05-15T08:41:12Z</time>
      </trkpt>
      <trkpt lat="43.81717" lon="6.8065">
        <ele>1424.8</ele>
        <time>2026-05-15T08:41:13Z</time>
      </trkpt>
      <trkpt lat="43.81715" lon="6.80639">
        <ele>1424.1</ele>
        <time>2026-05-15T08:41:14Z</time>
      </trkpt>
      <trkpt lat="43.81714" lon="6.80627">
        <ele>1423.6</ele>
        <time>2026-05-15T08:41:15Z</time>
      </trkpt>
      <trkpt lat="43.81715" lon="6.80612">
        <ele>1421.9</ele>
        <time>2026-05-15T08:41:16Z</time>
      </trkpt>
      <trkpt lat="43.81718" lon="6.80597">
        <ele>1419.7</ele>
        <time>2026-05-15T08:41:17Z</time>
      </trkpt>
      <trkpt lat="43.8172" lon="6.80581">
        <ele>1417.9</ele>
        <time>2026-05-15T08:41:18Z</time>
      </trkpt>
      <trkpt lat="43.81722" lon="6.80564">
        <ele>1417.1</ele>
        <time>2026-05-15T08:41:19Z</time>
      </trkpt>
      <trkpt lat="43.81724" lon="6.80547">
        <ele>1416</ele>
        <time>2026-05-15T08:41:20Z</time>
      </trkpt>
      <trkpt lat="43.81725" lon="6.8053">
        <ele>1415.1</ele>
        <time>2026-05-15T08:41:21Z</time>
      </trkpt>
      <trkpt lat="43.81728" lon="6.80512">
        <ele>1414.6</ele>
        <time>2026-05-15T08:41:22Z</time>
      </trkpt>
      <trkpt lat="43.81732" lon="6.80495">
        <ele>1414.3</ele>
        <time>2026-05-15T08:41:23Z</time>
      </trkpt>
      <trkpt lat="43.81738" lon="6.80479">
        <ele>1413.7</ele>
        <time>2026-05-15T08:41:24Z</time>
      </trkpt>
      <trkpt lat="43.81745" lon="6.80464">
        <ele>1412.4</ele>
        <time>2026-05-15T08:41:25Z</time>
      </trkpt>
      <trkpt lat="43.81752" lon="6.80448">
        <ele>1411</ele>
        <time>2026-05-15T08:41:26Z</time>
      </trkpt>
      <trkpt lat="43.81758" lon="6.80431">
        <ele>1410</ele>
        <time>2026-05-15T08:41:27Z</time>
      </trkpt>
      <trkpt lat="43.81762" lon="6.80412">
        <ele>1409.6</ele>
        <time>2026-05-15T08:41:28Z</time>
      </trkpt>
      <trkpt lat="43.81765" lon="6.80393">
        <ele>1408.8</ele>
        <time>2026-05-15T08:41:29Z</time>
      </trkpt>
      <trkpt lat="43.81765" lon="6.80374">
        <ele>1409.2</ele>
        <time>2026-05-15T08:41:30Z</time>
      </trkpt>
      <trkpt lat="43.81764" lon="6.80356">
        <ele>1409.9</ele>
        <time>2026-05-15T08:41:31Z</time>
      </trkpt>
      <trkpt lat="43.81763" lon="6.80339">
        <ele>1410.1</ele>
        <time>2026-05-15T08:41:32Z</time>
      </trkpt>
      <trkpt lat="43.81761" lon="6.80324">
        <ele>1411.1</ele>
        <time>2026-05-15T08:41:33Z</time>
      </trkpt>
      <trkpt lat="43.8176" lon="6.80312">
        <ele>1411.6</ele>
        <time>2026-05-15T08:41:34Z</time>
      </trkpt>
      <trkpt lat="43.81759" lon="6.80301">
        <ele>1412.3</ele>
        <time>2026-05-15T08:41:35Z</time>
      </trkpt>
      <trkpt lat="43.81758" lon="6.80293">
        <ele>1413</ele>
        <time>2026-05-15T08:41:36Z</time>
      </trkpt>
      <trkpt lat="43.81758" lon="6.80287">
        <ele>1413.2</ele>
        <time>2026-05-15T08:41:37Z</time>
      </trkpt>
      <trkpt lat="43.8176" lon="6.80283">
        <ele>1412.1</ele>
        <time>2026-05-15T08:41:38Z</time>
      </trkpt>
      <trkpt lat="43.81763" lon="6.80281">
        <ele>1410.5</ele>
        <time>2026-05-15T08:41:39Z</time>
      </trkpt>
      <trkpt lat="43.81766" lon="6.80283">
        <ele>1408.7</ele>
        <time>2026-05-15T08:41:40Z</time>
      </trkpt>
      <trkpt lat="43.81768" lon="6.80287">
        <ele>1407.5</ele>
        <time>2026-05-15T08:41:41Z</time>
      </trkpt>
      <trkpt lat="43.81768" lon="6.80293">
        <ele>1407.4</ele>
        <time>2026-05-15T08:41:42Z</time>
      </trkpt>
      <trkpt lat="43.81768" lon="6.80301">
        <ele>1407.3</ele>
        <time>2026-05-15T08:41:43Z</time>
      </trkpt>
      <trkpt lat="43.81768" lon="6.80312">
        <ele>1407.3</ele>
        <time>2026-05-15T08:41:44Z</time>
      </trkpt>
      <trkpt lat="43.81769" lon="6.80324">
        <ele>1406.7</ele>
        <time>2026-05-15T08:41:45Z</time>
      </trkpt>
      <trkpt lat="43.81772" lon="6.80337">
        <ele>1405.2</ele>
        <time>2026-05-15T08:41:46Z</time>
      </trkpt>
      <trkpt lat="43.81775" lon="6.80351">
        <ele>1404.1</ele>
        <time>2026-05-15T08:41:47Z</time>
      </trkpt>
      <trkpt lat="43.8178" lon="6.80365">
        <ele>1401.8</ele>
        <time>2026-05-15T08:41:48Z</time>
      </trkpt>
      <trkpt lat="43.81784" lon="6.8038">
        <ele>1399.8</ele>
        <time>2026-05-15T08:41:49Z</time>
      </trkpt>
      <trkpt lat="43.81786" lon="6.80397">
        <ele>1398.7</ele>
        <time>2026-05-15T08:41:50Z</time>
      </trkpt>
      <trkpt lat="43.81787" lon="6.80414">
        <ele>1397.7</ele>
        <time>2026-05-15T08:41:51Z</time>
      </trkpt>
      <trkpt lat="43.81788" lon="6.80431">
        <ele>1396.7</ele>
        <time>2026-05-15T08:41:52Z</time>
      </trkpt>
      <trkpt lat="43.8179" lon="6.80448">
        <ele>1395.1</ele>
        <time>2026-05-15T08:41:53Z</time>
      </trkpt>
      <trkpt lat="43.81791" lon="6.80465">
        <ele>1393.7</ele>
        <time>2026-05-15T08:41:54Z</time>
      </trkpt>
      <trkpt lat="43.81791" lon="6.80481">
        <ele>1392.7</ele>
        <time>2026-05-15T08:41:55Z</time>
      </trkpt>
      <trkpt lat="43.81789" lon="6.80498">
        <ele>1392.3</ele>
        <time>2026-05-15T08:41:56Z</time>
      </trkpt>
      <trkpt lat="43.81787" lon="6.80514">
        <ele>1392</ele>
        <time>2026-05-15T08:41:57Z</time>
      </trkpt>
      <trkpt lat="43.81785" lon="6.8053">
        <ele>1391.8</ele>
        <time>2026-05-15T08:41:58Z</time>
      </trkpt>
      <trkpt lat="43.81783" lon="6.80544">
        <ele>1392.2</ele>
        <time>2026-05-15T08:41:59Z</time>
      </trkpt>
      <trkpt lat="43.81783" lon="6.80558">
        <ele>1391.7</ele>
        <time>2026-05-15T08:42:00Z</time>
      </trkpt>
      <trkpt lat="43.81785" lon="6.8057">
        <ele>1390.5</ele>
        <time>2026-05-15T08:42:01Z</time>
      </trkpt>
      <trkpt lat="43.81785" lon="6.80581">
        <ele>1390.2</ele>
        <time>2026-05-15T08:42:02Z</time>
      </trkpt>
      <trkpt lat="43.81783" lon="6.80591">
        <ele>1391</ele>
        <time>2026-05-15T08:42:03Z</time>
      </trkpt>
      <trkpt lat="43.8178" lon="6.80599">
        <ele>1392.2</ele>
        <time>2026-05-15T08:42:04Z</time>
      </trkpt>
      <trkpt lat="43.81778" lon="6.80607">
        <ele>1392.9</ele>
        <time>2026-05-15T08:42:05Z</time>
      </trkpt>
      <trkpt lat="43.81777" lon="6.80614">
        <ele>1393.6</ele>
        <time>2026-05-15T08:42:06Z</time>
      </trkpt>
      <trkpt lat="43.81784" lon="6.80616">
        <ele>1391.3</ele>
        <time>2026-05-15T08:42:07Z</time>
      </trkpt>
      <trkpt lat="43.81789" lon="6.80614">
        <ele>1389.3</ele>
        <time>2026-05-15T08:42:08Z</time>
      </trkpt>
      <trkpt lat="43.81791" lon="6.80606">
        <ele>1388.2</ele>
        <time>2026-05-15T08:42:09Z</time>
      </trkpt>
      <trkpt lat="43.81793" lon="6.80595">
        <ele>1387.2</ele>
        <time>2026-05-15T08:42:10Z</time>
      </trkpt>
      <trkpt lat="43.81795" lon="6.80582">
        <ele>1386.2</ele>
        <time>2026-05-15T08:42:11Z</time>
      </trkpt>
      <trkpt lat="43.81797" lon="6.80569">
        <ele>1385.5</ele>
        <time>2026-05-15T08:42:12Z</time>
      </trkpt>
      <trkpt lat="43.818" lon="6.80555">
        <ele>1384.4</ele>
        <time>2026-05-15T08:42:13Z</time>
      </trkpt>
      <trkpt lat="43.81803" lon="6.80539">
        <ele>1383.7</ele>
        <time>2026-05-15T08:42:14Z</time>
      </trkpt>
      <trkpt lat="43.81808" lon="6.80523">
        <ele>1382.3</ele>
        <time>2026-05-15T08:42:15Z</time>
      </trkpt>
      <trkpt lat="43.81812" lon="6.80508">
        <ele>1381.5</ele>
        <time>2026-05-15T08:42:16Z</time>
      </trkpt>
      <trkpt lat="43.81817" lon="6.80492">
        <ele>1380.2</ele>
        <time>2026-05-15T08:42:17Z</time>
      </trkpt>
      <trkpt lat="43.8182" lon="6.80474">
        <ele>1380.1</ele>
        <time>2026-05-15T08:42:18Z</time>
      </trkpt>
      <trkpt lat="43.81823" lon="6.80456">
        <ele>1379.4</ele>
        <time>2026-05-15T08:42:19Z</time>
      </trkpt>
      <trkpt lat="43.81826" lon="6.80438">
        <ele>1378.5</ele>
        <time>2026-05-15T08:42:20Z</time>
      </trkpt>
      <trkpt lat="43.81828" lon="6.8042">
        <ele>1377.7</ele>
        <time>2026-05-15T08:42:21Z</time>
      </trkpt>
      <trkpt lat="43.81829" lon="6.80401">
        <ele>1377.2</ele>
        <time>2026-05-15T08:42:22Z</time>
      </trkpt>
      <trkpt lat="43.8183" lon="6.80383">
        <ele>1376.5</ele>
        <time>2026-05-15T08:42:23Z</time>
      </trkpt>
      <trkpt lat="43.81829" lon="6.80364">
        <ele>1376.3</ele>
        <time>2026-05-15T08:42:24Z</time>
      </trkpt>
      <trkpt lat="43.81829" lon="6.80346">
        <ele>1375.6</ele>
        <time>2026-05-15T08:42:25Z</time>
      </trkpt>
      <trkpt lat="43.81828" lon="6.80328">
        <ele>1375.4</ele>
        <time>2026-05-15T08:42:26Z</time>
      </trkpt>
      <trkpt lat="43.81828" lon="6.80309">
        <ele>1374.3</ele>
        <time>2026-05-15T08:42:27Z</time>
      </trkpt>
      <trkpt lat="43.81828" lon="6.80292">
        <ele>1373.6</ele>
        <time>2026-05-15T08:42:28Z</time>
      </trkpt>
      <trkpt lat="43.81829" lon="6.80273">
        <ele>1372.5</ele>
        <time>2026-05-15T08:42:29Z</time>
      </trkpt>
      <trkpt lat="43.8183" lon="6.80257">
        <ele>1371.9</ele>
        <time>2026-05-15T08:42:30Z</time>
      </trkpt>
      <trkpt lat="43.81832" lon="6.8024">
        <ele>1370.8</ele>
        <time>2026-05-15T08:42:31Z</time>
      </trkpt>
      <trkpt lat="43.81834" lon="6.80227">
        <ele>1369.6</ele>
        <time>2026-05-15T08:42:32Z</time>
      </trkpt>
      <trkpt lat="43.81836" lon="6.80216">
        <ele>1368.2</ele>
        <time>2026-05-15T08:42:33Z</time>
      </trkpt>
      <trkpt lat="43.81837" lon="6.80207">
        <ele>1367.3</ele>
        <time>2026-05-15T08:42:34Z</time>
      </trkpt>
      <trkpt lat="43.81837" lon="6.80199">
        <ele>1367</ele>
        <time>2026-05-15T08:42:35Z</time>
      </trkpt>
      <trkpt lat="43.81836" lon="6.80192">
        <ele>1367.5</ele>
        <time>2026-05-15T08:42:36Z</time>
      </trkpt>
      <trkpt lat="43.81835" lon="6.80185">
        <ele>1368</ele>
        <time>2026-05-15T08:42:37Z</time>
      </trkpt>
      <trkpt lat="43.81835" lon="6.80179">
        <ele>1368</ele>
        <time>2026-05-15T08:42:38Z</time>
      </trkpt>
      <trkpt lat="43.81837" lon="6.80175">
        <ele>1366.8</ele>
        <time>2026-05-15T08:42:39Z</time>
      </trkpt>
      <trkpt lat="43.8184" lon="6.80172">
        <ele>1365</ele>
        <time>2026-05-15T08:42:40Z</time>
      </trkpt>
      <trkpt lat="43.81843" lon="6.80174">
        <ele>1363.2</ele>
        <time>2026-05-15T08:42:41Z</time>
      </trkpt>
      <trkpt lat="43.81845" lon="6.80179">
        <ele>1362</ele>
        <time>2026-05-15T08:42:42Z</time>
      </trkpt>
      <trkpt lat="43.81845" lon="6.80184">
        <ele>1362.1</ele>
        <time>2026-05-15T08:42:43Z</time>
      </trkpt>
      <trkpt lat="43.81845" lon="6.80191">
        <ele>1362.2</ele>
        <time>2026-05-15T08:42:44Z</time>
      </trkpt>
      <trkpt lat="43.81844" lon="6.80202">
        <ele>1363</ele>
        <time>2026-05-15T08:42:45Z</time>
      </trkpt>
      <trkpt lat="43.81843" lon="6.80215">
        <ele>1363.9</ele>
        <time>2026-05-15T08:42:46Z</time>
      </trkpt>
      <trkpt lat="43.81843" lon="6.80229">
        <ele>1364.1</ele>
        <time>2026-05-15T08:42:47Z</time>
      </trkpt>
      <trkpt lat="43.81844" lon="6.80243">
        <ele>1363.5</ele>
        <time>2026-05-15T08:42:48Z</time>
      </trkpt>
      <trkpt lat="43.81847" lon="6.80257">
        <ele>1361.8</ele>
        <time>2026-05-15T08:42:49Z</time>
      </trkpt>
      <trkpt lat="43.8185" lon="6.80272">
        <ele>1360.3</ele>
        <time>2026-05-15T08:42:50Z</time>
      </trkpt>
      <trkpt lat="43.81854" lon="6.80288">
        <ele>1358.5</ele>
        <time>2026-05-15T08:42:51Z</time>
      </trkpt>
      <trkpt lat="43.81857" lon="6.80303">
        <ele>1357.3</ele>
        <time>2026-05-15T08:42:52Z</time>
      </trkpt>
      <trkpt lat="43.81861" lon="6.80319">
        <ele>1356</ele>
        <time>2026-05-15T08:42:53Z</time>
      </trkpt>
      <trkpt lat="43.81864" lon="6.80336">
        <ele>1355.4</ele>
        <time>2026-05-15T08:42:54Z</time>
      </trkpt>
      <trkpt lat="43.81869" lon="6.80352">
        <ele>1353.5</ele>
        <time>2026-05-15T08:42:55Z</time>
      </trkpt>
      <trkpt lat="43.81873" lon="6.80367">
        <ele>1351.9</ele>
        <time>2026-05-15T08:42:56Z</time>
      </trkpt>
      <trkpt lat="43.81878" lon="6.80383">
        <ele>1349.5</ele>
        <time>2026-05-15T08:42:57Z</time>
      </trkpt>
      <trkpt lat="43.81883" lon="6.80398">
        <ele>1346.6</ele>
        <time>2026-05-15T08:42:58Z</time>
      </trkpt>
      <trkpt lat="43.81888" lon="6.80413">
        <ele>1343.5</ele>
        <time>2026-05-15T08:42:59Z</time>
      </trkpt>
      <trkpt lat="43.8189" lon="6.80428">
        <ele>1342.2</ele>
        <time>2026-05-15T08:43:00Z</time>
      </trkpt>
      <trkpt lat="43.81893" lon="6.80445">
        <ele>1340.2</ele>
        <time>2026-05-15T08:43:01Z</time>
      </trkpt>
      <trkpt lat="43.81889" lon="6.80461">
        <ele>1342.3</ele>
        <time>2026-05-15T08:43:02Z</time>
      </trkpt>
      <trkpt lat="43.81888" lon="6.80477">
        <ele>1342.4</ele>
        <time>2026-05-15T08:43:03Z</time>
      </trkpt>
      <trkpt lat="43.81888" lon="6.80494">
        <ele>1341.8</ele>
        <time>2026-05-15T08:43:04Z</time>
      </trkpt>
      <trkpt lat="43.81888" lon="6.80511">
        <ele>1341.5</ele>
        <time>2026-05-15T08:43:05Z</time>
      </trkpt>
      <trkpt lat="43.81888" lon="6.80529">
        <ele>1341.5</ele>
        <time>2026-05-15T08:43:06Z</time>
      </trkpt>
      <trkpt lat="43.81886" lon="6.80546">
        <ele>1342</ele>
        <time>2026-05-15T08:43:07Z</time>
      </trkpt>
      <trkpt lat="43.81884" lon="6.80563">
        <ele>1343</ele>
        <time>2026-05-15T08:43:08Z</time>
      </trkpt>
      <trkpt lat="43.81883" lon="6.80579">
        <ele>1344.1</ele>
        <time>2026-05-15T08:43:09Z</time>
      </trkpt>
      <trkpt lat="43.81883" lon="6.80593">
        <ele>1344.9</ele>
        <time>2026-05-15T08:43:10Z</time>
      </trkpt>
      <trkpt lat="43.81886" lon="6.80607">
        <ele>1344.3</ele>
        <time>2026-05-15T08:43:11Z</time>
      </trkpt>
      <trkpt lat="43.81889" lon="6.8062">
        <ele>1344.2</ele>
        <time>2026-05-15T08:43:12Z</time>
      </trkpt>
      <trkpt lat="43.81894" lon="6.80634">
        <ele>1343.2</ele>
        <time>2026-05-15T08:43:13Z</time>
      </trkpt>
      <trkpt lat="43.81899" lon="6.80648">
        <ele>1342.5</ele>
        <time>2026-05-15T08:43:14Z</time>
      </trkpt>
      <trkpt lat="43.81905" lon="6.80662">
        <ele>1341.3</ele>
        <time>2026-05-15T08:43:15Z</time>
      </trkpt>
      <trkpt lat="43.81911" lon="6.80676">
        <ele>1339.8</ele>
        <time>2026-05-15T08:43:16Z</time>
      </trkpt>
      <trkpt lat="43.81916" lon="6.80689">
        <ele>1338.6</ele>
        <time>2026-05-15T08:43:17Z</time>
      </trkpt>
      <trkpt lat="43.81921" lon="6.80702">
        <ele>1336.6</ele>
        <time>2026-05-15T08:43:18Z</time>
      </trkpt>
      <trkpt lat="43.81925" lon="6.80715">
        <ele>1334.8</ele>
        <time>2026-05-15T08:43:19Z</time>
      </trkpt>
      <trkpt lat="43.81929" lon="6.80729">
        <ele>1332.7</ele>
        <time>2026-05-15T08:43:20Z</time>
      </trkpt>
      <trkpt lat="43.81931" lon="6.80741">
        <ele>1331.5</ele>
        <time>2026-05-15T08:43:21Z</time>
      </trkpt>
      <trkpt lat="43.81932" lon="6.80751">
        <ele>1330.9</ele>
        <time>2026-05-15T08:43:22Z</time>
      </trkpt>
      <trkpt lat="43.81932" lon="6.80758">
        <ele>1330.4</ele>
        <time>2026-05-15T08:43:23Z</time>
      </trkpt>
      <trkpt lat="43.8193" lon="6.80766">
        <ele>1331.2</ele>
        <time>2026-05-15T08:43:24Z</time>
      </trkpt>
      <trkpt lat="43.81929" lon="6.80773">
        <ele>1331.5</ele>
        <time>2026-05-15T08:43:25Z</time>
      </trkpt>
      <trkpt lat="43.81928" lon="6.80779">
        <ele>1331.7</ele>
        <time>2026-05-15T08:43:26Z</time>
      </trkpt>
      <trkpt lat="43.8193" lon="6.80785">
        <ele>1329.7</ele>
        <time>2026-05-15T08:43:27Z</time>
      </trkpt>
      <trkpt lat="43.81935" lon="6.80785">
        <ele>1326.2</ele>
        <time>2026-05-15T08:43:28Z</time>
      </trkpt>
      <trkpt lat="43.81938" lon="6.80782">
        <ele>1324.3</ele>
        <time>2026-05-15T08:43:29Z</time>
      </trkpt>
      <trkpt lat="43.8194" lon="6.80773">
        <ele>1323.5</ele>
        <time>2026-05-15T08:43:30Z</time>
      </trkpt>
      <trkpt lat="43.8194" lon="6.80762">
        <ele>1324.3</ele>
        <time>2026-05-15T08:43:31Z</time>
      </trkpt>
      <trkpt lat="43.8194" lon="6.80749">
        <ele>1325.2</ele>
        <time>2026-05-15T08:43:32Z</time>
      </trkpt>
      <trkpt lat="43.8194" lon="6.80735">
        <ele>1325.1</ele>
        <time>2026-05-15T08:43:33Z</time>
      </trkpt>
      <trkpt lat="43.81939" lon="6.80721">
        <ele>1325.6</ele>
        <time>2026-05-15T08:43:34Z</time>
      </trkpt>
      <trkpt lat="43.81937" lon="6.80705">
        <ele>1325.9</ele>
        <time>2026-05-15T08:43:35Z</time>
      </trkpt>
      <trkpt lat="43.81935" lon="6.80689">
        <ele>1325.7</ele>
        <time>2026-05-15T08:43:36Z</time>
      </trkpt>
      <trkpt lat="43.81931" lon="6.80673">
        <ele>1326.1</ele>
        <time>2026-05-15T08:43:37Z</time>
      </trkpt>
      <trkpt lat="43.81927" lon="6.80657">
        <ele>1326.3</ele>
        <time>2026-05-15T08:43:38Z</time>
      </trkpt>
      <trkpt lat="43.81924" lon="6.80641">
        <ele>1325.6</ele>
        <time>2026-05-15T08:43:39Z</time>
      </trkpt>
      <trkpt lat="43.81921" lon="6.80624">
        <ele>1325</ele>
        <time>2026-05-15T08:43:40Z</time>
      </trkpt>
      <trkpt lat="43.81919" lon="6.80607">
        <ele>1324.1</ele>
        <time>2026-05-15T08:43:41Z</time>
      </trkpt>
      <trkpt lat="43.81918" lon="6.8059">
        <ele>1323.5</ele>
        <time>2026-05-15T08:43:42Z</time>
      </trkpt>
      <trkpt lat="43.8192" lon="6.80574">
        <ele>1321.3</ele>
        <time>2026-05-15T08:43:43Z</time>
      </trkpt>
      <trkpt lat="43.81923" lon="6.80557">
        <ele>1318.5</ele>
        <time>2026-05-15T08:43:44Z</time>
      </trkpt>
      <trkpt lat="43.81926" lon="6.80541">
        <ele>1315.9</ele>
        <time>2026-05-15T08:43:45Z</time>
      </trkpt>
      <trkpt lat="43.81928" lon="6.80524">
        <ele>1314.3</ele>
        <time>2026-05-15T08:43:46Z</time>
      </trkpt>
      <trkpt lat="43.81931" lon="6.80508">
        <ele>1312.5</ele>
        <time>2026-05-15T08:43:47Z</time>
      </trkpt>
      <trkpt lat="43.81932" lon="6.80491">
        <ele>1312.1</ele>
        <time>2026-05-15T08:43:48Z</time>
      </trkpt>
      <trkpt lat="43.81932" lon="6.80473">
        <ele>1312.5</ele>
        <time>2026-05-15T08:43:49Z</time>
      </trkpt>
      <trkpt lat="43.81932" lon="6.80456">
        <ele>1312.8</ele>
        <time>2026-05-15T08:43:50Z</time>
      </trkpt>
      <trkpt lat="43.81934" lon="6.80439">
        <ele>1311.5</ele>
        <time>2026-05-15T08:43:51Z</time>
      </trkpt>
      <trkpt lat="43.81936" lon="6.80421">
        <ele>1310.1</ele>
        <time>2026-05-15T08:43:52Z</time>
      </trkpt>
      <trkpt lat="43.81938" lon="6.80402">
        <ele>1308.5</ele>
        <time>2026-05-15T08:43:53Z</time>
      </trkpt>
      <trkpt lat="43.81939" lon="6.80383">
        <ele>1307.7</ele>
        <time>2026-05-15T08:43:54Z</time>
      </trkpt>
      <trkpt lat="43.81938" lon="6.80364">
        <ele>1308.4</ele>
        <time>2026-05-15T08:43:55Z</time>
      </trkpt>
      <trkpt lat="43.81938" lon="6.80346">
        <ele>1307.9</ele>
        <time>2026-05-15T08:43:56Z</time>
      </trkpt>
      <trkpt lat="43.81939" lon="6.80328">
        <ele>1306.6</ele>
        <time>2026-05-15T08:43:57Z</time>
      </trkpt>
      <trkpt lat="43.8194" lon="6.8031">
        <ele>1305.8</ele>
        <time>2026-05-15T08:43:58Z</time>
      </trkpt>
      <trkpt lat="43.81941" lon="6.80291">
        <ele>1304.6</ele>
        <time>2026-05-15T08:43:59Z</time>
      </trkpt>
      <trkpt lat="43.81942" lon="6.80273">
        <ele>1303.3</ele>
        <time>2026-05-15T08:44:00Z</time>
      </trkpt>
      <trkpt lat="43.81943" lon="6.80254">
        <ele>1302</ele>
        <time>2026-05-15T08:44:01Z</time>
      </trkpt>
      <trkpt lat="43.81945" lon="6.80235">
        <ele>1300.1</ele>
        <time>2026-05-15T08:44:02Z</time>
      </trkpt>
      <trkpt lat="43.81945" lon="6.80215">
        <ele>1299.4</ele>
        <time>2026-05-15T08:44:03Z</time>
      </trkpt>
      <trkpt lat="43.81945" lon="6.80195">
        <ele>1298.7</ele>
        <time>2026-05-15T08:44:04Z</time>
      </trkpt>
      <trkpt lat="43.81944" lon="6.80175">
        <ele>1298.6</ele>
        <time>2026-05-15T08:44:05Z</time>
      </trkpt>
      <trkpt lat="43.81944" lon="6.80156">
        <ele>1297.9</ele>
        <time>2026-05-15T08:44:06Z</time>
      </trkpt>
      <trkpt lat="43.81944" lon="6.80137">
        <ele>1297.3</ele>
        <time>2026-05-15T08:44:07Z</time>
      </trkpt>
      <trkpt lat="43.81945" lon="6.80119">
        <ele>1296.7</ele>
        <time>2026-05-15T08:44:08Z</time>
      </trkpt>
      <trkpt lat="43.81946" lon="6.801">
        <ele>1295.3</ele>
        <time>2026-05-15T08:44:09Z</time>
      </trkpt>
      <trkpt lat="43.81946" lon="6.8008">
        <ele>1294</ele>
        <time>2026-05-15T08:44:10Z</time>
      </trkpt>
      <trkpt lat="43.81945" lon="6.8006">
        <ele>1293.9</ele>
        <time>2026-05-15T08:44:11Z</time>
      </trkpt>
      <trkpt lat="43.81944" lon="6.80039">
        <ele>1293.7</ele>
        <time>2026-05-15T08:44:12Z</time>
      </trkpt>
      <trkpt lat="43.81943" lon="6.80019">
        <ele>1293.5</ele>
        <time>2026-05-15T08:44:13Z</time>
      </trkpt>
      <trkpt lat="43.81943" lon="6.8">
        <ele>1292.8</ele>
        <time>2026-05-15T08:44:14Z</time>
      </trkpt>
      <trkpt lat="43.81943" lon="6.79981">
        <ele>1291.4</ele>
        <time>2026-05-15T08:44:15Z</time>
      </trkpt>
      <trkpt lat="43.81943" lon="6.79963">
        <ele>1290.2</ele>
        <time>2026-05-15T08:44:16Z</time>
      </trkpt>
      <trkpt lat="43.81941" lon="6.79945">
        <ele>1290</ele>
        <time>2026-05-15T08:44:17Z</time>
      </trkpt>
      <trkpt lat="43.8194" lon="6.79927">
        <ele>1289.8</ele>
        <time>2026-05-15T08:44:18Z</time>
      </trkpt>
      <trkpt lat="43.81939" lon="6.7991">
        <ele>1289.5</ele>
        <time>2026-05-15T08:44:19Z</time>
      </trkpt>
      <trkpt lat="43.81938" lon="6.79892">
        <ele>1288.7</ele>
        <time>2026-05-15T08:44:20Z</time>
      </trkpt>
      <trkpt lat="43.81937" lon="6.79874">
        <ele>1288.3</ele>
        <time>2026-05-15T08:44:21Z</time>
      </trkpt>
      <trkpt lat="43.81937" lon="6.79855">
        <ele>1287.5</ele>
        <time>2026-05-15T08:44:22Z</time>
      </trkpt>
      <trkpt lat="43.81937" lon="6.79837">
        <ele>1286.9</ele>
        <time>2026-05-15T08:44:23Z</time>
      </trkpt>
      <trkpt lat="43.81938" lon="6.79818">
        <ele>1285.6</ele>
        <time>2026-05-15T08:44:24Z</time>
      </trkpt>
      <trkpt lat="43.8194" lon="6.79799">
        <ele>1283.9</ele>
        <time>2026-05-15T08:44:25Z</time>
      </trkpt>
      <trkpt lat="43.81942" lon="6.79781">
        <ele>1282.3</ele>
        <time>2026-05-15T08:44:26Z</time>
      </trkpt>
      <trkpt lat="43.81944" lon="6.79761">
        <ele>1280.6</ele>
        <time>2026-05-15T08:44:27Z</time>
      </trkpt>
      <trkpt lat="43.81946" lon="6.79742">
        <ele>1279</ele>
        <time>2026-05-15T08:44:28Z</time>
      </trkpt>
      <trkpt lat="43.81948" lon="6.79722">
        <ele>1277.4</ele>
        <time>2026-05-15T08:44:29Z</time>
      </trkpt>
      <trkpt lat="43.81949" lon="6.79703">
        <ele>1275.8</ele>
        <time>2026-05-15T08:44:30Z</time>
      </trkpt>
      <trkpt lat="43.8195" lon="6.79684">
        <ele>1274.5</ele>
        <time>2026-05-15T08:44:31Z</time>
      </trkpt>
      <trkpt lat="43.8195" lon="6.79665">
        <ele>1274</ele>
        <time>2026-05-15T08:44:32Z</time>
      </trkpt>
      <trkpt lat="43.8195" lon="6.79647">
        <ele>1273.4</ele>
        <time>2026-05-15T08:44:33Z</time>
      </trkpt>
      <trkpt lat="43.81951" lon="6.7963">
        <ele>1272.9</ele>
        <time>2026-05-15T08:44:34Z</time>
      </trkpt>
      <trkpt lat="43.81951" lon="6.79615">
        <ele>1272.9</ele>
        <time>2026-05-15T08:44:35Z</time>
      </trkpt>
      <trkpt lat="43.81951" lon="6.79602">
        <ele>1272.6</ele>
        <time>2026-05-15T08:44:36Z</time>
      </trkpt>
      <trkpt lat="43.8195" lon="6.79591">
        <ele>1272.6</ele>
        <time>2026-05-15T08:44:37Z</time>
      </trkpt>
      <trkpt lat="43.8195" lon="6.79582">
        <ele>1272.3</ele>
        <time>2026-05-15T08:44:38Z</time>
      </trkpt>
      <trkpt lat="43.81948" lon="6.79574">
        <ele>1272.3</ele>
        <time>2026-05-15T08:44:39Z</time>
      </trkpt>
      <trkpt lat="43.81947" lon="6.79568">
        <ele>1272.2</ele>
        <time>2026-05-15T08:44:40Z</time>
      </trkpt>
      <trkpt lat="43.81945" lon="6.79562">
        <ele>1272.3</ele>
        <time>2026-05-15T08:44:41Z</time>
      </trkpt>
      <trkpt lat="43.81944" lon="6.79556">
        <ele>1272.2</ele>
        <time>2026-05-15T08:44:42Z</time>
      </trkpt>
      <trkpt lat="43.81946" lon="6.79552">
        <ele>1271.5</ele>
        <time>2026-05-15T08:44:43Z</time>
      </trkpt>
      <trkpt lat="43.81949" lon="6.7955">
        <ele>1270.7</ele>
        <time>2026-05-15T08:44:44Z</time>
      </trkpt>
      <trkpt lat="43.81953" lon="6.79552">
        <ele>1269.7</ele>
        <time>2026-05-15T08:44:45Z</time>
      </trkpt>
      <trkpt lat="43.81955" lon="6.79557">
        <ele>1269.4</ele>
        <time>2026-05-15T08:44:46Z</time>
      </trkpt>
      <trkpt lat="43.81957" lon="6.79565">
        <ele>1269.4</ele>
        <time>2026-05-15T08:44:47Z</time>
      </trkpt>
      <trkpt lat="43.81958" lon="6.79576">
        <ele>1269.7</ele>
        <time>2026-05-15T08:44:48Z</time>
      </trkpt>
      <trkpt lat="43.81961" lon="6.79591">
        <ele>1269.3</ele>
        <time>2026-05-15T08:44:49Z</time>
      </trkpt>
      <trkpt lat="43.81965" lon="6.79607">
        <ele>1268.3</ele>
        <time>2026-05-15T08:44:50Z</time>
      </trkpt>
      <trkpt lat="43.81969" lon="6.79622">
        <ele>1267</ele>
        <time>2026-05-15T08:44:51Z</time>
      </trkpt>
      <trkpt lat="43.81973" lon="6.79639">
        <ele>1265.8</ele>
        <time>2026-05-15T08:44:52Z</time>
      </trkpt>
      <trkpt lat="43.81976" lon="6.79657">
        <ele>1264.8</ele>
        <time>2026-05-15T08:44:53Z</time>
      </trkpt>
      <trkpt lat="43.8198" lon="6.79676">
        <ele>1263.4</ele>
        <time>2026-05-15T08:44:54Z</time>
      </trkpt>
      <trkpt lat="43.81983" lon="6.79694">
        <ele>1262.1</ele>
        <time>2026-05-15T08:44:55Z</time>
      </trkpt>
      <trkpt lat="43.81986" lon="6.79712">
        <ele>1261.4</ele>
        <time>2026-05-15T08:44:56Z</time>
      </trkpt>
      <trkpt lat="43.81987" lon="6.79731">
        <ele>1261.3</ele>
        <time>2026-05-15T08:44:57Z</time>
      </trkpt>
      <trkpt lat="43.81988" lon="6.79749">
        <ele>1261.2</ele>
        <time>2026-05-15T08:44:58Z</time>
      </trkpt>
      <trkpt lat="43.81988" lon="6.79766">
        <ele>1261.2</ele>
        <time>2026-05-15T08:44:59Z</time>
      </trkpt>
      <trkpt lat="43.81988" lon="6.79784">
        <ele>1261.4</ele>
        <time>2026-05-15T08:45:00Z</time>
      </trkpt>
      <trkpt lat="43.81989" lon="6.79801">
        <ele>1261.6</ele>
        <time>2026-05-15T08:45:01Z</time>
      </trkpt>
      <trkpt lat="43.81993" lon="6.79817">
        <ele>1260.3</ele>
        <time>2026-05-15T08:45:02Z</time>
      </trkpt>
      <trkpt lat="43.81999" lon="6.79832">
        <ele>1258.3</ele>
        <time>2026-05-15T08:45:03Z</time>
      </trkpt>
      <trkpt lat="43.82007" lon="6.79845">
        <ele>1255.3</ele>
        <time>2026-05-15T08:45:04Z</time>
      </trkpt>
      <trkpt lat="43.82016" lon="6.79858">
        <ele>1252.2</ele>
        <time>2026-05-15T08:45:05Z</time>
      </trkpt>
      <trkpt lat="43.82025" lon="6.7987">
        <ele>1249</ele>
        <time>2026-05-15T08:45:06Z</time>
      </trkpt>
      <trkpt lat="43.82031" lon="6.79885">
        <ele>1246.8</ele>
        <time>2026-05-15T08:45:07Z</time>
      </trkpt>
      <trkpt lat="43.82036" lon="6.79901">
        <ele>1245.5</ele>
        <time>2026-05-15T08:45:08Z</time>
      </trkpt>
      <trkpt lat="43.8204" lon="6.79919">
        <ele>1244.6</ele>
        <time>2026-05-15T08:45:09Z</time>
      </trkpt>
      <trkpt lat="43.82043" lon="6.79938">
        <ele>1243.9</ele>
        <time>2026-05-15T08:45:10Z</time>
      </trkpt>
      <trkpt lat="43.82046" lon="6.79958">
        <ele>1243.1</ele>
        <time>2026-05-15T08:45:11Z</time>
      </trkpt>
      <trkpt lat="43.8205" lon="6.79977">
        <ele>1242</ele>
        <time>2026-05-15T08:45:12Z</time>
      </trkpt>
      <trkpt lat="43.82054" lon="6.79997">
        <ele>1240.6</ele>
        <time>2026-05-15T08:45:13Z</time>
      </trkpt>
      <trkpt lat="43.82058" lon="6.80017">
        <ele>1239.1</ele>
        <time>2026-05-15T08:45:14Z</time>
      </trkpt>
      <trkpt lat="43.82062" lon="6.80037">
        <ele>1237.7</ele>
        <time>2026-05-15T08:45:15Z</time>
      </trkpt>
      <trkpt lat="43.82066" lon="6.80058">
        <ele>1236.2</ele>
        <time>2026-05-15T08:45:16Z</time>
      </trkpt>
      <trkpt lat="43.82069" lon="6.8008">
        <ele>1235.2</ele>
        <time>2026-05-15T08:45:17Z</time>
      </trkpt>
      <trkpt lat="43.82072" lon="6.80102">
        <ele>1234.1</ele>
        <time>2026-05-15T08:45:18Z</time>
      </trkpt>
      <trkpt lat="43.82075" lon="6.80125">
        <ele>1233</ele>
        <time>2026-05-15T08:45:19Z</time>
      </trkpt>
      <trkpt lat="43.82078" lon="6.80147">
        <ele>1231.7</ele>
        <time>2026-05-15T08:45:20Z</time>
      </trkpt>
      <trkpt lat="43.82081" lon="6.80169">
        <ele>1229.9</ele>
        <time>2026-05-15T08:45:21Z</time>
      </trkpt>
      <trkpt lat="43.82085" lon="6.8019">
        <ele>1228.4</ele>
        <time>2026-05-15T08:45:22Z</time>
      </trkpt>
      <trkpt lat="43.82088" lon="6.80211">
        <ele>1227.2</ele>
        <time>2026-05-15T08:45:23Z</time>
      </trkpt>
      <trkpt lat="43.8209" lon="6.80233">
        <ele>1226.3</ele>
        <time>2026-05-15T08:45:24Z</time>
      </trkpt>
      <trkpt lat="43.82092" lon="6.80255">
        <ele>1225.2</ele>
        <time>2026-05-15T08:45:25Z</time>
      </trkpt>
      <trkpt lat="43.82094" lon="6.80277">
        <ele>1224</ele>
        <time>2026-05-15T08:45:26Z</time>
      </trkpt>
      <trkpt lat="43.82096" lon="6.80299">
        <ele>1222.7</ele>
        <time>2026-05-15T08:45:27Z</time>
      </trkpt>
      <trkpt lat="43.82101" lon="6.80319">
        <ele>1219.9</ele>
        <time>2026-05-15T08:45:28Z</time>
      </trkpt>
      <trkpt lat="43.82103" lon="6.8034">
        <ele>1218.6</ele>
        <time>2026-05-15T08:45:29Z</time>
      </trkpt>
      <trkpt lat="43.82105" lon="6.80361">
        <ele>1217.1</ele>
        <time>2026-05-15T08:45:30Z</time>
      </trkpt>
      <trkpt lat="43.82106" lon="6.80382">
        <ele>1215.8</ele>
        <time>2026-05-15T08:45:31Z</time>
      </trkpt>
      <trkpt lat="43.82107" lon="6.80404">
        <ele>1215.1</ele>
        <time>2026-05-15T08:45:32Z</time>
      </trkpt>
      <trkpt lat="43.82108" lon="6.80425">
        <ele>1214.3</ele>
        <time>2026-05-15T08:45:33Z</time>
      </trkpt>
      <trkpt lat="43.82109" lon="6.80442">
        <ele>1213.2</ele>
        <time>2026-05-15T08:45:34Z</time>
      </trkpt>
      <trkpt lat="43.82109" lon="6.80456">
        <ele>1212.6</ele>
        <time>2026-05-15T08:45:35Z</time>
      </trkpt>
      <trkpt lat="43.8211" lon="6.80467">
        <ele>1211.7</ele>
        <time>2026-05-15T08:45:36Z</time>
      </trkpt>
      <trkpt lat="43.8211" lon="6.80479">
        <ele>1211.1</ele>
        <time>2026-05-15T08:45:37Z</time>
      </trkpt>
      <trkpt lat="43.82109" lon="6.8049">
        <ele>1210.8</ele>
        <time>2026-05-15T08:45:38Z</time>
      </trkpt>
      <trkpt lat="43.82107" lon="6.805">
        <ele>1211.2</ele>
        <time>2026-05-15T08:45:39Z</time>
      </trkpt>
      <trkpt lat="43.82106" lon="6.80508">
        <ele>1211.2</ele>
        <time>2026-05-15T08:45:40Z</time>
      </trkpt>
      <trkpt lat="43.82106" lon="6.80514">
        <ele>1210.8</ele>
        <time>2026-05-15T08:45:41Z</time>
      </trkpt>
      <trkpt lat="43.82109" lon="6.80519">
        <ele>1208.8</ele>
        <time>2026-05-15T08:45:42Z</time>
      </trkpt>
      <trkpt lat="43.82113" lon="6.8052">
        <ele>1206.6</ele>
        <time>2026-05-15T08:45:43Z</time>
      </trkpt>
      <trkpt lat="43.82117" lon="6.80518">
        <ele>1204.7</ele>
        <time>2026-05-15T08:45:44Z</time>
      </trkpt>
      <trkpt lat="43.82118" lon="6.80511">
        <ele>1204.7</ele>
        <time>2026-05-15T08:45:45Z</time>
      </trkpt>
      <trkpt lat="43.82119" lon="6.80502">
        <ele>1204.9</ele>
        <time>2026-05-15T08:45:46Z</time>
      </trkpt>
      <trkpt lat="43.82119" lon="6.8049">
        <ele>1205.6</ele>
        <time>2026-05-15T08:45:47Z</time>
      </trkpt>
      <trkpt lat="43.82119" lon="6.80477">
        <ele>1206.4</ele>
        <time>2026-05-15T08:45:48Z</time>
      </trkpt>
      <trkpt lat="43.8212" lon="6.80464">
        <ele>1206.6</ele>
        <time>2026-05-15T08:45:49Z</time>
      </trkpt>
      <trkpt lat="43.82122" lon="6.8045">
        <ele>1206.2</ele>
        <time>2026-05-15T08:45:50Z</time>
      </trkpt>
      <trkpt lat="43.82124" lon="6.80435">
        <ele>1205.8</ele>
        <time>2026-05-15T08:45:51Z</time>
      </trkpt>
      <trkpt lat="43.82127" lon="6.80418">
        <ele>1204.9</ele>
        <time>2026-05-15T08:45:52Z</time>
      </trkpt>
      <trkpt lat="43.8213" lon="6.80401">
        <ele>1203.9</ele>
        <time>2026-05-15T08:45:53Z</time>
      </trkpt>
      <trkpt lat="43.82132" lon="6.80383">
        <ele>1203.4</ele>
        <time>2026-05-15T08:45:54Z</time>
      </trkpt>
      <trkpt lat="43.82135" lon="6.80366">
        <ele>1202.6</ele>
        <time>2026-05-15T08:45:55Z</time>
      </trkpt>
      <trkpt lat="43.82137" lon="6.8035">
        <ele>1202.3</ele>
        <time>2026-05-15T08:45:56Z</time>
      </trkpt>
      <trkpt lat="43.8214" lon="6.80332">
        <ele>1201.7</ele>
        <time>2026-05-15T08:45:57Z</time>
      </trkpt>
      <trkpt lat="43.82143" lon="6.80315">
        <ele>1201.3</ele>
        <time>2026-05-15T08:45:58Z</time>
      </trkpt>
      <trkpt lat="43.82146" lon="6.80298">
        <ele>1201</ele>
        <time>2026-05-15T08:45:59Z</time>
      </trkpt>
      <trkpt lat="43.8215" lon="6.80281">
        <ele>1200.6</ele>
        <time>2026-05-15T08:46:00Z</time>
      </trkpt>
      <trkpt lat="43.82155" lon="6.80265">
        <ele>1200.3</ele>
        <time>2026-05-15T08:46:01Z</time>
      </trkpt>
      <trkpt lat="43.82161" lon="6.80249">
        <ele>1199.7</ele>
        <time>2026-05-15T08:46:02Z</time>
      </trkpt>
      <trkpt lat="43.82167" lon="6.80234">
        <ele>1199.1</ele>
        <time>2026-05-15T08:46:03Z</time>
      </trkpt>
      <trkpt lat="43.82172" lon="6.80223">
        <ele>1199.4</ele>
        <time>2026-05-15T08:46:04Z</time>
      </trkpt>
      <trkpt lat="43.82177" lon="6.80215">
        <ele>1199.8</ele>
        <time>2026-05-15T08:46:05Z</time>
      </trkpt>
      <trkpt lat="43.82185" lon="6.80212">
        <ele>1199.2</ele>
        <time>2026-05-15T08:46:06Z</time>
      </trkpt>
      <trkpt lat="43.82193" lon="6.80214">
        <ele>1198.1</ele>
        <time>2026-05-15T08:46:07Z</time>
      </trkpt>
      <trkpt lat="43.822" lon="6.80223">
        <ele>1197.1</ele>
        <time>2026-05-15T08:46:08Z</time>
      </trkpt>
      <trkpt lat="43.82207" lon="6.80234">
        <ele>1196.4</ele>
        <time>2026-05-15T08:46:09Z</time>
      </trkpt>
      <trkpt lat="43.82213" lon="6.80248">
        <ele>1195.5</ele>
        <time>2026-05-15T08:46:10Z</time>
      </trkpt>
      <trkpt lat="43.82222" lon="6.80262">
        <ele>1194.7</ele>
        <time>2026-05-15T08:46:11Z</time>
      </trkpt>
      <trkpt lat="43.82231" lon="6.80275">
        <ele>1194.2</ele>
        <time>2026-05-15T08:46:12Z</time>
      </trkpt>
      <trkpt lat="43.8224" lon="6.80289">
        <ele>1193.6</ele>
        <time>2026-05-15T08:46:13Z</time>
      </trkpt>
      <trkpt lat="43.82248" lon="6.80305">
        <ele>1192.8</ele>
        <time>2026-05-15T08:46:14Z</time>
      </trkpt>
      <trkpt lat="43.82254" lon="6.80323">
        <ele>1192.1</ele>
        <time>2026-05-15T08:46:15Z</time>
      </trkpt>
      <trkpt lat="43.82258" lon="6.80342">
        <ele>1191.2</ele>
        <time>2026-05-15T08:46:16Z</time>
      </trkpt>
      <trkpt lat="43.82259" lon="6.80361">
        <ele>1189.6</ele>
        <time>2026-05-15T08:46:17Z</time>
      </trkpt>
      <trkpt lat="43.8226" lon="6.80381">
        <ele>1187.7</ele>
        <time>2026-05-15T08:46:18Z</time>
      </trkpt>
      <trkpt lat="43.82259" lon="6.80401">
        <ele>1185.3</ele>
        <time>2026-05-15T08:46:19Z</time>
      </trkpt>
      <trkpt lat="43.8226" lon="6.80421">
        <ele>1183.2</ele>
        <time>2026-05-15T08:46:20Z</time>
      </trkpt>
      <trkpt lat="43.82262" lon="6.80439">
        <ele>1180.8</ele>
        <time>2026-05-15T08:46:21Z</time>
      </trkpt>
      <trkpt lat="43.82267" lon="6.80457">
        <ele>1179.1</ele>
        <time>2026-05-15T08:46:22Z</time>
      </trkpt>
      <trkpt lat="43.82274" lon="6.80473">
        <ele>1177.9</ele>
        <time>2026-05-15T08:46:23Z</time>
      </trkpt>
      <trkpt lat="43.82282" lon="6.80488">
        <ele>1175.4</ele>
        <time>2026-05-15T08:46:24Z</time>
      </trkpt>
      <trkpt lat="43.82289" lon="6.80502">
        <ele>1172.3</ele>
        <time>2026-05-15T08:46:25Z</time>
      </trkpt>
      <trkpt lat="43.82295" lon="6.80513">
        <ele>1170.1</ele>
        <time>2026-05-15T08:46:26Z</time>
      </trkpt>
      <trkpt lat="43.823" lon="6.80521">
        <ele>1168.5</ele>
        <time>2026-05-15T08:46:27Z</time>
      </trkpt>
      <trkpt lat="43.82305" lon="6.80526">
        <ele>1167.4</ele>
        <time>2026-05-15T08:46:28Z</time>
      </trkpt>
      <trkpt lat="43.82313" lon="6.80527">
        <ele>1165.6</ele>
        <time>2026-05-15T08:46:29Z</time>
      </trkpt>
      <trkpt lat="43.8232" lon="6.80523">
        <ele>1165.2</ele>
        <time>2026-05-15T08:46:30Z</time>
      </trkpt>
      <trkpt lat="43.82325" lon="6.80516">
        <ele>1166.1</ele>
        <time>2026-05-15T08:46:31Z</time>
      </trkpt>
      <trkpt lat="43.8233" lon="6.80507">
        <ele>1167.6</ele>
        <time>2026-05-15T08:46:32Z</time>
      </trkpt>
      <trkpt lat="43.82335" lon="6.80497">
        <ele>1169.7</ele>
        <time>2026-05-15T08:46:33Z</time>
      </trkpt>
      <trkpt lat="43.82342" lon="6.80488">
        <ele>1171.7</ele>
        <time>2026-05-15T08:46:34Z</time>
      </trkpt>
      <trkpt lat="43.82351" lon="6.80482">
        <ele>1172.5</ele>
        <time>2026-05-15T08:46:35Z</time>
      </trkpt>
      <trkpt lat="43.82361" lon="6.8048">
        <ele>1171.7</ele>
        <time>2026-05-15T08:46:36Z</time>
      </trkpt>
      <trkpt lat="43.82371" lon="6.80477">
        <ele>1172.6</ele>
        <time>2026-05-15T08:46:37Z</time>
      </trkpt>
      <trkpt lat="43.82381" lon="6.80475">
        <ele>1173.1</ele>
        <time>2026-05-15T08:46:38Z</time>
      </trkpt>
      <trkpt lat="43.82392" lon="6.80476">
        <ele>1172.5</ele>
        <time>2026-05-15T08:46:39Z</time>
      </trkpt>
      <trkpt lat="43.82403" lon="6.8048">
        <ele>1171.4</ele>
        <time>2026-05-15T08:46:40Z</time>
      </trkpt>
      <trkpt lat="43.82413" lon="6.80487">
        <ele>1169.4</ele>
        <time>2026-05-15T08:46:41Z</time>
      </trkpt>
      <trkpt lat="43.82421" lon="6.80496">
        <ele>1166.3</ele>
        <time>2026-05-15T08:46:42Z</time>
      </trkpt>
      <trkpt lat="43.82429" lon="6.80506">
        <ele>1162.7</ele>
        <time>2026-05-15T08:46:43Z</time>
      </trkpt>
      <trkpt lat="43.82437" lon="6.80515">
        <ele>1159.5</ele>
        <time>2026-05-15T08:46:44Z</time>
      </trkpt>
      <trkpt lat="43.82445" lon="6.8052">
        <ele>1157.7</ele>
        <time>2026-05-15T08:46:45Z</time>
      </trkpt>
      <trkpt lat="43.82452" lon="6.8052">
        <ele>1155.8</ele>
        <time>2026-05-15T08:46:46Z</time>
      </trkpt>
      <trkpt lat="43.82457" lon="6.80514">
        <ele>1156.1</ele>
        <time>2026-05-15T08:46:47Z</time>
      </trkpt>
      <trkpt lat="43.82461" lon="6.80504">
        <ele>1157.4</ele>
        <time>2026-05-15T08:46:48Z</time>
      </trkpt>
      <trkpt lat="43.82462" lon="6.80491">
        <ele>1158.8</ele>
        <time>2026-05-15T08:46:49Z</time>
      </trkpt>
      <trkpt lat="43.82464" lon="6.80476">
        <ele>1159.1</ele>
        <time>2026-05-15T08:46:50Z</time>
      </trkpt>
      <trkpt lat="43.82466" lon="6.8046">
        <ele>1158.8</ele>
        <time>2026-05-15T08:46:51Z</time>
      </trkpt>
      <trkpt lat="43.82468" lon="6.80443">
        <ele>1157.9</ele>
        <time>2026-05-15T08:46:52Z</time>
      </trkpt>
      <trkpt lat="43.82469" lon="6.80424">
        <ele>1157.9</ele>
        <time>2026-05-15T08:46:53Z</time>
      </trkpt>
      <trkpt lat="43.82471" lon="6.80404">
        <ele>1156.8</ele>
        <time>2026-05-15T08:46:54Z</time>
      </trkpt>
      <trkpt lat="43.82472" lon="6.80383">
        <ele>1156.2</ele>
        <time>2026-05-15T08:46:55Z</time>
      </trkpt>
      <trkpt lat="43.82473" lon="6.80361">
        <ele>1155.5</ele>
        <time>2026-05-15T08:46:56Z</time>
      </trkpt>
      <trkpt lat="43.82474" lon="6.80338">
        <ele>1154.8</ele>
        <time>2026-05-15T08:46:57Z</time>
      </trkpt>
      <trkpt lat="43.82474" lon="6.80315">
        <ele>1154.2</ele>
        <time>2026-05-15T08:46:58Z</time>
      </trkpt>
      <trkpt lat="43.82475" lon="6.80293">
        <ele>1153.2</ele>
        <time>2026-05-15T08:46:59Z</time>
      </trkpt>
      <trkpt lat="43.82476" lon="6.8027">
        <ele>1151.9</ele>
        <time>2026-05-15T08:47:00Z</time>
      </trkpt>
      <trkpt lat="43.82477" lon="6.80248">
        <ele>1150</ele>
        <time>2026-05-15T08:47:01Z</time>
      </trkpt>
      <trkpt lat="43.82478" lon="6.80226">
        <ele>1148.6</ele>
        <time>2026-05-15T08:47:02Z</time>
      </trkpt>
      <trkpt lat="43.82479" lon="6.80203">
        <ele>1147.3</ele>
        <time>2026-05-15T08:47:03Z</time>
      </trkpt>
      <trkpt lat="43.82481" lon="6.80182">
        <ele>1146.4</ele>
        <time>2026-05-15T08:47:04Z</time>
      </trkpt>
      <trkpt lat="43.82484" lon="6.8016">
        <ele>1145.5</ele>
        <time>2026-05-15T08:47:05Z</time>
      </trkpt>
      <trkpt lat="43.82489" lon="6.8014">
        <ele>1143.3</ele>
        <time>2026-05-15T08:47:06Z</time>
      </trkpt>
      <trkpt lat="43.82496" lon="6.8012">
        <ele>1141.3</ele>
        <time>2026-05-15T08:47:07Z</time>
      </trkpt>
      <trkpt lat="43.82504" lon="6.80102">
        <ele>1139.9</ele>
        <time>2026-05-15T08:47:08Z</time>
      </trkpt>
      <trkpt lat="43.82512" lon="6.80083">
        <ele>1139.4</ele>
        <time>2026-05-15T08:47:09Z</time>
      </trkpt>
      <trkpt lat="43.82517" lon="6.80063">
        <ele>1139</ele>
        <time>2026-05-15T08:47:10Z</time>
      </trkpt>
      <trkpt lat="43.82521" lon="6.80043">
        <ele>1138</ele>
        <time>2026-05-15T08:47:11Z</time>
      </trkpt>
      <trkpt lat="43.82525" lon="6.80024">
        <ele>1136.2</ele>
        <time>2026-05-15T08:47:12Z</time>
      </trkpt>
      <trkpt lat="43.82528" lon="6.8001">
        <ele>1134.3</ele>
        <time>2026-05-15T08:47:13Z</time>
      </trkpt>
      <trkpt lat="43.82531" lon="6.79996">
        <ele>1132.9</ele>
        <time>2026-05-15T08:47:14Z</time>
      </trkpt>
      <trkpt lat="43.82534" lon="6.79982">
        <ele>1131.3</ele>
        <time>2026-05-15T08:47:15Z</time>
      </trkpt>
      <trkpt lat="43.8254" lon="6.7997">
        <ele>1129.2</ele>
        <time>2026-05-15T08:47:16Z</time>
      </trkpt>
      <trkpt lat="43.82547" lon="6.7996">
        <ele>1127.3</ele>
        <time>2026-05-15T08:47:17Z</time>
      </trkpt>
      <trkpt lat="43.82554" lon="6.79954">
        <ele>1125.6</ele>
        <time>2026-05-15T08:47:18Z</time>
      </trkpt>
      <trkpt lat="43.82561" lon="6.79951">
        <ele>1125.5</ele>
        <time>2026-05-15T08:47:19Z</time>
      </trkpt>
      <trkpt lat="43.82567" lon="6.79947">
        <ele>1125.8</ele>
        <time>2026-05-15T08:47:20Z</time>
      </trkpt>
      <trkpt lat="43.82572" lon="6.79944">
        <ele>1126.2</ele>
        <time>2026-05-15T08:47:21Z</time>
      </trkpt>
      <trkpt lat="43.82575" lon="6.79942">
        <ele>1126.4</ele>
        <time>2026-05-15T08:47:22Z</time>
      </trkpt>
      <trkpt lat="43.82578" lon="6.79941">
        <ele>1126.6</ele>
        <time>2026-05-15T08:47:23Z</time>
      </trkpt>
      <trkpt lat="43.82581" lon="6.79938">
        <ele>1126.9</ele>
        <time>2026-05-15T08:47:24Z</time>
      </trkpt>
      <trkpt lat="43.82585" lon="6.79936">
        <ele>1127.2</ele>
        <time>2026-05-15T08:47:25Z</time>
      </trkpt>
      <trkpt lat="43.82589" lon="6.79934">
        <ele>1127.6</ele>
        <time>2026-05-15T08:47:26Z</time>
      </trkpt>
      <trkpt lat="43.82594" lon="6.79931">
        <ele>1128.2</ele>
        <time>2026-05-15T08:47:27Z</time>
      </trkpt>
      <trkpt lat="43.82598" lon="6.79926">
        <ele>1128.6</ele>
        <time>2026-05-15T08:47:28Z</time>
      </trkpt>
      <trkpt lat="43.826" lon="6.79919">
        <ele>1128.8</ele>
        <time>2026-05-15T08:47:29Z</time>
      </trkpt>
      <trkpt lat="43.82601" lon="6.79908">
        <ele>1128.9</ele>
        <time>2026-05-15T08:47:30Z</time>
      </trkpt>
      <trkpt lat="43.82601" lon="6.79895">
        <ele>1128.9</ele>
        <time>2026-05-15T08:47:31Z</time>
      </trkpt>
      <trkpt lat="43.82601" lon="6.79879">
        <ele>1128.7</ele>
        <time>2026-05-15T08:47:32Z</time>
      </trkpt>
      <trkpt lat="43.826" lon="6.79863">
        <ele>1128.2</ele>
        <time>2026-05-15T08:47:33Z</time>
      </trkpt>
      <trkpt lat="43.82599" lon="6.79846">
        <ele>1127.6</ele>
        <time>2026-05-15T08:47:34Z</time>
      </trkpt>
      <trkpt lat="43.82599" lon="6.79827">
        <ele>1127</ele>
        <time>2026-05-15T08:47:35Z</time>
      </trkpt>
      <trkpt lat="43.82598" lon="6.79807">
        <ele>1126.6</ele>
        <time>2026-05-15T08:47:36Z</time>
      </trkpt>
      <trkpt lat="43.82598" lon="6.79786">
        <ele>1126.2</ele>
        <time>2026-05-15T08:47:37Z</time>
      </trkpt>
      <trkpt lat="43.82598" lon="6.79764">
        <ele>1126.1</ele>
        <time>2026-05-15T08:47:38Z</time>
      </trkpt>
      <trkpt lat="43.82597" lon="6.79741">
        <ele>1125.8</ele>
        <time>2026-05-15T08:47:39Z</time>
      </trkpt>
      <trkpt lat="43.82597" lon="6.79717">
        <ele>1125.4</ele>
        <time>2026-05-15T08:47:40Z</time>
      </trkpt>
      <trkpt lat="43.82595" lon="6.79693">
        <ele>1124.8</ele>
        <time>2026-05-15T08:47:41Z</time>
      </trkpt>
      <trkpt lat="43.82594" lon="6.79669">
        <ele>1124.2</ele>
        <time>2026-05-15T08:47:42Z</time>
      </trkpt>
      <trkpt lat="43.82593" lon="6.79643">
        <ele>1124</ele>
        <time>2026-05-15T08:47:43Z</time>
      </trkpt>
      <trkpt lat="43.82592" lon="6.79618">
        <ele>1123.2</ele>
        <time>2026-05-15T08:47:44Z</time>
      </trkpt>
      <trkpt lat="43.82591" lon="6.79592">
        <ele>1122.3</ele>
        <time>2026-05-15T08:47:45Z</time>
      </trkpt>
      <trkpt lat="43.8259" lon="6.79567">
        <ele>1121.4</ele>
        <time>2026-05-15T08:47:46Z</time>
      </trkpt>
      <trkpt lat="43.82589" lon="6.7954">
        <ele>1120.4</ele>
        <time>2026-05-15T08:47:47Z</time>
      </trkpt>
      <trkpt lat="43.82587" lon="6.79513">
        <ele>1119.1</ele>
        <time>2026-05-15T08:47:48Z</time>
      </trkpt>
      <trkpt lat="43.82584" lon="6.79486">
        <ele>1118.1</ele>
        <time>2026-05-15T08:47:49Z</time>
      </trkpt>
      <trkpt lat="43.82581" lon="6.79458">
        <ele>1117.6</ele>
        <time>2026-05-15T08:47:50Z</time>
      </trkpt>
      <trkpt lat="43.82576" lon="6.79431">
        <ele>1116.3</ele>
        <time>2026-05-15T08:47:51Z</time>
      </trkpt>
      <trkpt lat="43.8257" lon="6.79404">
        <ele>1115.1</ele>
        <time>2026-05-15T08:47:52Z</time>
      </trkpt>
      <trkpt lat="43.82564" lon="6.79378">
        <ele>1114.2</ele>
        <time>2026-05-15T08:47:53Z</time>
      </trkpt>
      <trkpt lat="43.82558" lon="6.79354">
        <ele>1113.4</ele>
        <time>2026-05-15T08:47:54Z</time>
      </trkpt>
      <trkpt lat="43.82551" lon="6.79329">
        <ele>1112.6</ele>
        <time>2026-05-15T08:47:55Z</time>
      </trkpt>
      <trkpt lat="43.82546" lon="6.79305">
        <ele>1112.6</ele>
        <time>2026-05-15T08:47:56Z</time>
      </trkpt>
      <trkpt lat="43.8254" lon="6.79282">
        <ele>1111.4</ele>
        <time>2026-05-15T08:47:57Z</time>
      </trkpt>
      <trkpt lat="43.82536" lon="6.79257">
        <ele>1110.1</ele>
        <time>2026-05-15T08:47:58Z</time>
      </trkpt>
      <trkpt lat="43.82531" lon="6.79233">
        <ele>1109.3</ele>
        <time>2026-05-15T08:47:59Z</time>
      </trkpt>
      <trkpt lat="43.82527" lon="6.7921">
        <ele>1108.5</ele>
        <time>2026-05-15T08:48:00Z</time>
      </trkpt>
      <trkpt lat="43.82522" lon="6.79187">
        <ele>1107.3</ele>
        <time>2026-05-15T08:48:01Z</time>
      </trkpt>
      <trkpt lat="43.82518" lon="6.79166">
        <ele>1106.3</ele>
        <time>2026-05-15T08:48:02Z</time>
      </trkpt>
      <trkpt lat="43.82513" lon="6.79147">
        <ele>1105.6</ele>
        <time>2026-05-15T08:48:03Z</time>
      </trkpt>
      <trkpt lat="43.82508" lon="6.79129">
        <ele>1104.9</ele>
        <time>2026-05-15T08:48:04Z</time>
      </trkpt>
      <trkpt lat="43.82502" lon="6.79111">
        <ele>1104.1</ele>
        <time>2026-05-15T08:48:05Z</time>
      </trkpt>
      <trkpt lat="43.82497" lon="6.79094">
        <ele>1103.4</ele>
        <time>2026-05-15T08:48:06Z</time>
      </trkpt>
      <trkpt lat="43.82491" lon="6.79075">
        <ele>1103</ele>
        <time>2026-05-15T08:48:07Z</time>
      </trkpt>
      <trkpt lat="43.82486" lon="6.79055">
        <ele>1103</ele>
        <time>2026-05-15T08:48:08Z</time>
      </trkpt>
      <trkpt lat="43.82482" lon="6.79033">
        <ele>1102.7</ele>
        <time>2026-05-15T08:48:09Z</time>
      </trkpt>
      <trkpt lat="43.8248" lon="6.79011">
        <ele>1102.9</ele>
        <time>2026-05-15T08:48:10Z</time>
      </trkpt>
      <trkpt lat="43.82479" lon="6.78987">
        <ele>1102.9</ele>
        <time>2026-05-15T08:48:11Z</time>
      </trkpt>
      <trkpt lat="43.82481" lon="6.78964">
        <ele>1102.7</ele>
        <time>2026-05-15T08:48:12Z</time>
      </trkpt>
      <trkpt lat="43.82484" lon="6.78942">
        <ele>1102.5</ele>
        <time>2026-05-15T08:48:13Z</time>
      </trkpt>
      <trkpt lat="43.82488" lon="6.7892">
        <ele>1102.1</ele>
        <time>2026-05-15T08:48:14Z</time>
      </trkpt>
      <trkpt lat="43.82492" lon="6.78896">
        <ele>1101.3</ele>
        <time>2026-05-15T08:48:15Z</time>
      </trkpt>
      <trkpt lat="43.82496" lon="6.78874">
        <ele>1100.5</ele>
        <time>2026-05-15T08:48:16Z</time>
      </trkpt>
      <trkpt lat="43.82501" lon="6.78851">
        <ele>1099.7</ele>
        <time>2026-05-15T08:48:17Z</time>
      </trkpt>
      <trkpt lat="43.82505" lon="6.7883">
        <ele>1099.3</ele>
        <time>2026-05-15T08:48:18Z</time>
      </trkpt>
      <trkpt lat="43.82509" lon="6.78808">
        <ele>1099</ele>
        <time>2026-05-15T08:48:19Z</time>
      </trkpt>
      <trkpt lat="43.82514" lon="6.78787">
        <ele>1098.8</ele>
        <time>2026-05-15T08:48:20Z</time>
      </trkpt>
      <trkpt lat="43.82519" lon="6.78767">
        <ele>1098.8</ele>
        <time>2026-05-15T08:48:21Z</time>
      </trkpt>
      <trkpt lat="43.82525" lon="6.78747">
        <ele>1098.6</ele>
        <time>2026-05-15T08:48:22Z</time>
      </trkpt>
      <trkpt lat="43.82531" lon="6.78728">
        <ele>1097.7</ele>
        <time>2026-05-15T08:48:23Z</time>
      </trkpt>
      <trkpt lat="43.82537" lon="6.78709">
        <ele>1097.5</ele>
        <time>2026-05-15T08:48:24Z</time>
      </trkpt>
      <trkpt lat="43.82541" lon="6.78688">
        <ele>1097.3</ele>
        <time>2026-05-15T08:48:25Z</time>
      </trkpt>
      <trkpt lat="43.82543" lon="6.78667">
        <ele>1097.1</ele>
        <time>2026-05-15T08:48:26Z</time>
      </trkpt>
      <trkpt lat="43.82544" lon="6.78645">
        <ele>1096.4</ele>
        <time>2026-05-15T08:48:27Z</time>
      </trkpt>
      <trkpt lat="43.82545" lon="6.78622">
        <ele>1096</ele>
        <time>2026-05-15T08:48:28Z</time>
      </trkpt>
      <trkpt lat="43.82546" lon="6.786">
        <ele>1095.7</ele>
        <time>2026-05-15T08:48:29Z</time>
      </trkpt>
      <trkpt lat="43.82546" lon="6.78578">
        <ele>1095.3</ele>
        <time>2026-05-15T08:48:30Z</time>
      </trkpt>
      <trkpt lat="43.82546" lon="6.78557">
        <ele>1095.3</ele>
        <time>2026-05-15T08:48:31Z</time>
      </trkpt>
      <trkpt lat="43.82546" lon="6.78535">
        <ele>1095.1</ele>
        <time>2026-05-15T08:48:32Z</time>
      </trkpt>
      <trkpt lat="43.82546" lon="6.78513">
        <ele>1095</ele>
        <time>2026-05-15T08:48:33Z</time>
      </trkpt>
      <trkpt lat="43.82545" lon="6.78491">
        <ele>1094.5</ele>
        <time>2026-05-15T08:48:34Z</time>
      </trkpt>
      <trkpt lat="43.82544" lon="6.78469">
        <ele>1093.8</ele>
        <time>2026-05-15T08:48:35Z</time>
      </trkpt>
      <trkpt lat="43.82543" lon="6.78446">
        <ele>1093.6</ele>
        <time>2026-05-15T08:48:36Z</time>
      </trkpt>
      <trkpt lat="43.82542" lon="6.78424">
        <ele>1094.3</ele>
        <time>2026-05-15T08:48:37Z</time>
      </trkpt>
      <trkpt lat="43.82541" lon="6.784">
        <ele>1094.4</ele>
        <time>2026-05-15T08:48:38Z</time>
      </trkpt>
      <trkpt lat="43.8254" lon="6.78378">
        <ele>1094.5</ele>
        <time>2026-05-15T08:48:39Z</time>
      </trkpt>
      <trkpt lat="43.82539" lon="6.78354">
        <ele>1094.8</ele>
        <time>2026-05-15T08:48:40Z</time>
      </trkpt>
      <trkpt lat="43.82537" lon="6.78331">
        <ele>1094.7</ele>
        <time>2026-05-15T08:48:41Z</time>
      </trkpt>
      <trkpt lat="43.82535" lon="6.78307">
        <ele>1095.5</ele>
        <time>2026-05-15T08:48:42Z</time>
      </trkpt>
      <trkpt lat="43.82533" lon="6.78284">
        <ele>1095.4</ele>
        <time>2026-05-15T08:48:43Z</time>
      </trkpt>
      <trkpt lat="43.82531" lon="6.7826">
        <ele>1095.2</ele>
        <time>2026-05-15T08:48:44Z</time>
      </trkpt>
      <trkpt lat="43.82529" lon="6.78237">
        <ele>1095.1</ele>
        <time>2026-05-15T08:48:45Z</time>
      </trkpt>
      <trkpt lat="43.82527" lon="6.78214">
        <ele>1094.6</ele>
        <time>2026-05-15T08:48:46Z</time>
      </trkpt>
      <trkpt lat="43.82527" lon="6.78191">
        <ele>1093.8</ele>
        <time>2026-05-15T08:48:47Z</time>
      </trkpt>
      <trkpt lat="43.8253" lon="6.78169">
        <ele>1093.2</ele>
        <time>2026-05-15T08:48:48Z</time>
      </trkpt>
      <trkpt lat="43.82536" lon="6.7815">
        <ele>1093</ele>
        <time>2026-05-15T08:48:49Z</time>
      </trkpt>
      <trkpt lat="43.82544" lon="6.78132">
        <ele>1093.2</ele>
        <time>2026-05-15T08:48:50Z</time>
      </trkpt>
      <trkpt lat="43.82552" lon="6.78114">
        <ele>1093.7</ele>
        <time>2026-05-15T08:48:51Z</time>
      </trkpt>
      <trkpt lat="43.82558" lon="6.78095">
        <ele>1093.6</ele>
        <time>2026-05-15T08:48:52Z</time>
      </trkpt>
      <trkpt lat="43.8256" lon="6.78075">
        <ele>1093.3</ele>
        <time>2026-05-15T08:48:53Z</time>
      </trkpt>
      <trkpt lat="43.8256" lon="6.78053">
        <ele>1093.3</ele>
        <time>2026-05-15T08:48:54Z</time>
      </trkpt>
      <trkpt lat="43.82558" lon="6.78032">
        <ele>1093.2</ele>
        <time>2026-05-15T08:48:55Z</time>
      </trkpt>
      <trkpt lat="43.82556" lon="6.7801">
        <ele>1093.7</ele>
        <time>2026-05-15T08:48:56Z</time>
      </trkpt>
      <trkpt lat="43.82552" lon="6.77988">
        <ele>1093.6</ele>
        <time>2026-05-15T08:48:57Z</time>
      </trkpt>
      <trkpt lat="43.82548" lon="6.77965">
        <ele>1093.2</ele>
        <time>2026-05-15T08:48:58Z</time>
      </trkpt>
      <trkpt lat="43.82544" lon="6.77943">
        <ele>1092.7</ele>
        <time>2026-05-15T08:48:59Z</time>
      </trkpt>
      <trkpt lat="43.82543" lon="6.7792">
        <ele>1092.2</ele>
        <time>2026-05-15T08:49:00Z</time>
      </trkpt>
      <trkpt lat="43.82544" lon="6.77897">
        <ele>1092.2</ele>
        <time>2026-05-15T08:49:01Z</time>
      </trkpt>
      <trkpt lat="43.82546" lon="6.77874">
        <ele>1092</ele>
        <time>2026-05-15T08:49:02Z</time>
      </trkpt>
      <trkpt lat="43.82548" lon="6.7785">
        <ele>1091.6</ele>
        <time>2026-05-15T08:49:03Z</time>
      </trkpt>
      <trkpt lat="43.8255" lon="6.77827">
        <ele>1091.6</ele>
        <time>2026-05-15T08:49:04Z</time>
      </trkpt>
      <trkpt lat="43.82552" lon="6.77804">
        <ele>1091.7</ele>
        <time>2026-05-15T08:49:05Z</time>
      </trkpt>
      <trkpt lat="43.82553" lon="6.77782">
        <ele>1091.8</ele>
        <time>2026-05-15T08:49:06Z</time>
      </trkpt>
      <trkpt lat="43.82555" lon="6.77761">
        <ele>1091.4</ele>
        <time>2026-05-15T08:49:07Z</time>
      </trkpt>
      <trkpt lat="43.82556" lon="6.77739">
        <ele>1091</ele>
        <time>2026-05-15T08:49:08Z</time>
      </trkpt>
      <trkpt lat="43.82557" lon="6.77717">
        <ele>1091.1</ele>
        <time>2026-05-15T08:49:09Z</time>
      </trkpt>
      <trkpt lat="43.82557" lon="6.77695">
        <ele>1091.1</ele>
        <time>2026-05-15T08:49:10Z</time>
      </trkpt>
      <trkpt lat="43.82557" lon="6.77673">
        <ele>1091.1</ele>
        <time>2026-05-15T08:49:11Z</time>
      </trkpt>
      <trkpt lat="43.82555" lon="6.77649">
        <ele>1090.3</ele>
        <time>2026-05-15T08:49:12Z</time>
      </trkpt>
      <trkpt lat="43.82554" lon="6.77626">
        <ele>1089.4</ele>
        <time>2026-05-15T08:49:13Z</time>
      </trkpt>
      <trkpt lat="43.82552" lon="6.77602">
        <ele>1088.9</ele>
        <time>2026-05-15T08:49:14Z</time>
      </trkpt>
      <trkpt lat="43.8255" lon="6.7758">
        <ele>1088.8</ele>
        <time>2026-05-15T08:49:15Z</time>
      </trkpt>
      <trkpt lat="43.82548" lon="6.77557">
        <ele>1088.7</ele>
        <time>2026-05-15T08:49:16Z</time>
      </trkpt>
      <trkpt lat="43.82546" lon="6.77534">
        <ele>1088.4</ele>
        <time>2026-05-15T08:49:17Z</time>
      </trkpt>
      <trkpt lat="43.82545" lon="6.77511">
        <ele>1088.2</ele>
        <time>2026-05-15T08:49:18Z</time>
      </trkpt>
      <trkpt lat="43.82544" lon="6.77488">
        <ele>1088.2</ele>
        <time>2026-05-15T08:49:19Z</time>
      </trkpt>
      <trkpt lat="43.82544" lon="6.77465">
        <ele>1088.1</ele>
        <time>2026-05-15T08:49:20Z</time>
      </trkpt>
      <trkpt lat="43.82544" lon="6.77443">
        <ele>1087.7</ele>
        <time>2026-05-15T08:49:21Z</time>
      </trkpt>
      <trkpt lat="43.82545" lon="6.77421">
        <ele>1087.3</ele>
        <time>2026-05-15T08:49:22Z</time>
      </trkpt>
      <trkpt lat="43.82547" lon="6.774">
        <ele>1087</ele>
        <time>2026-05-15T08:49:23Z</time>
      </trkpt>
      <trkpt lat="43.8255" lon="6.77378">
        <ele>1086.4</ele>
        <time>2026-05-15T08:49:24Z</time>
      </trkpt>
      <trkpt lat="43.82551" lon="6.77357">
        <ele>1085.7</ele>
        <time>2026-05-15T08:49:25Z</time>
      </trkpt>
      <trkpt lat="43.82552" lon="6.77336">
        <ele>1085</ele>
        <time>2026-05-15T08:49:26Z</time>
      </trkpt>
      <trkpt lat="43.82552" lon="6.77315">
        <ele>1084.2</ele>
        <time>2026-05-15T08:49:27Z</time>
      </trkpt>
      <trkpt lat="43.82553" lon="6.77294">
        <ele>1083.5</ele>
        <time>2026-05-15T08:49:28Z</time>
      </trkpt>
      <trkpt lat="43.82553" lon="6.77272">
        <ele>1082.6</ele>
        <time>2026-05-15T08:49:29Z</time>
      </trkpt>
      <trkpt lat="43.82553" lon="6.77249">
        <ele>1081.8</ele>
        <time>2026-05-15T08:49:30Z</time>
      </trkpt>
      <trkpt lat="43.82554" lon="6.77226">
        <ele>1081.1</ele>
        <time>2026-05-15T08:49:31Z</time>
      </trkpt>
      <trkpt lat="43.82555" lon="6.77203">
        <ele>1080.3</ele>
        <time>2026-05-15T08:49:32Z</time>
      </trkpt>
      <trkpt lat="43.82556" lon="6.77178">
        <ele>1079.4</ele>
        <time>2026-05-15T08:49:33Z</time>
      </trkpt>
      <trkpt lat="43.82559" lon="6.77152">
        <ele>1078.7</ele>
        <time>2026-05-15T08:49:34Z</time>
      </trkpt>
      <trkpt lat="43.82561" lon="6.77127">
        <ele>1078</ele>
        <time>2026-05-15T08:49:35Z</time>
      </trkpt>
      <trkpt lat="43.82564" lon="6.77102">
        <ele>1077.4</ele>
        <time>2026-05-15T08:49:36Z</time>
      </trkpt>
      <trkpt lat="43.82567" lon="6.77077">
        <ele>1077.1</ele>
        <time>2026-05-15T08:49:37Z</time>
      </trkpt>
      <trkpt lat="43.82569" lon="6.77052">
        <ele>1076.8</ele>
        <time>2026-05-15T08:49:38Z</time>
      </trkpt>
      <trkpt lat="43.82572" lon="6.77026">
        <ele>1076.2</ele>
        <time>2026-05-15T08:49:39Z</time>
      </trkpt>
      <trkpt lat="43.82575" lon="6.77001">
        <ele>1076.1</ele>
        <time>2026-05-15T08:49:40Z</time>
      </trkpt>
      <trkpt lat="43.82576" lon="6.76976">
        <ele>1075.6</ele>
        <time>2026-05-15T08:49:41Z</time>
      </trkpt>
      <trkpt lat="43.82578" lon="6.7695">
        <ele>1075.5</ele>
        <time>2026-05-15T08:49:42Z</time>
      </trkpt>
      <trkpt lat="43.8258" lon="6.76924">
        <ele>1075.6</ele>
        <time>2026-05-15T08:49:43Z</time>
      </trkpt>
      <trkpt lat="43.82584" lon="6.76899">
        <ele>1076.1</ele>
        <time>2026-05-15T08:49:44Z</time>
      </trkpt>
      <trkpt lat="43.8259" lon="6.76875">
        <ele>1076.8</ele>
        <time>2026-05-15T08:49:45Z</time>
      </trkpt>
      <trkpt lat="43.826" lon="6.76852">
        <ele>1077.5</ele>
        <time>2026-05-15T08:49:46Z</time>
      </trkpt>
      <trkpt lat="43.8261" lon="6.76831">
        <ele>1077.7</ele>
        <time>2026-05-15T08:49:47Z</time>
      </trkpt>
      <trkpt lat="43.82621" lon="6.7681">
        <ele>1076.4</ele>
        <time>2026-05-15T08:49:48Z</time>
      </trkpt>
      <trkpt lat="43.82632" lon="6.7679">
        <ele>1074.7</ele>
        <time>2026-05-15T08:49:49Z</time>
      </trkpt>
      <trkpt lat="43.82643" lon="6.76771">
        <ele>1073.7</ele>
        <time>2026-05-15T08:49:50Z</time>
      </trkpt>
      <trkpt lat="43.82656" lon="6.76754">
        <ele>1073.4</ele>
        <time>2026-05-15T08:49:51Z</time>
      </trkpt>
      <trkpt lat="43.82669" lon="6.76736">
        <ele>1073.7</ele>
        <time>2026-05-15T08:49:52Z</time>
      </trkpt>
      <trkpt lat="43.8268" lon="6.76718">
        <ele>1074.4</ele>
        <time>2026-05-15T08:49:53Z</time>
      </trkpt>
      <trkpt lat="43.82691" lon="6.76702">
        <ele>1075.6</ele>
        <time>2026-05-15T08:49:54Z</time>
      </trkpt>
      <trkpt lat="43.82702" lon="6.76686">
        <ele>1076.8</ele>
        <time>2026-05-15T08:49:55Z</time>
      </trkpt>
      <trkpt lat="43.82713" lon="6.7667">
        <ele>1078.2</ele>
        <time>2026-05-15T08:49:56Z</time>
      </trkpt>
      <trkpt lat="43.82722" lon="6.76654">
        <ele>1079</ele>
        <time>2026-05-15T08:49:57Z</time>
      </trkpt>
      <trkpt lat="43.8273" lon="6.76635">
        <ele>1080.1</ele>
        <time>2026-05-15T08:49:58Z</time>
      </trkpt>
      <trkpt lat="43.82736" lon="6.76615">
        <ele>1080.7</ele>
        <time>2026-05-15T08:49:59Z</time>
      </trkpt>
      <trkpt lat="43.82742" lon="6.76595">
        <ele>1079.8</ele>
        <time>2026-05-15T08:50:00Z</time>
      </trkpt>
      <trkpt lat="43.82749" lon="6.76577">
        <ele>1078.7</ele>
        <time>2026-05-15T08:50:01Z</time>
      </trkpt>
      <trkpt lat="43.82758" lon="6.7656">
        <ele>1078.2</ele>
        <time>2026-05-15T08:50:02Z</time>
      </trkpt>
      <trkpt lat="43.82768" lon="6.76545">
        <ele>1077.9</ele>
        <time>2026-05-15T08:50:03Z</time>
      </trkpt>
      <trkpt lat="43.8278" lon="6.76532">
        <ele>1077.6</ele>
        <time>2026-05-15T08:50:04Z</time>
      </trkpt>
      <trkpt lat="43.82793" lon="6.76519">
        <ele>1077.9</ele>
        <time>2026-05-15T08:50:05Z</time>
      </trkpt>
      <trkpt lat="43.82805" lon="6.76505">
        <ele>1077.2</ele>
        <time>2026-05-15T08:50:06Z</time>
      </trkpt>
      <trkpt lat="43.82817" lon="6.76495">
        <ele>1078.1</ele>
        <time>2026-05-15T08:50:07Z</time>
      </trkpt>
      <trkpt lat="43.8283" lon="6.76485">
        <ele>1078.8</ele>
        <time>2026-05-15T08:50:08Z</time>
      </trkpt>
      <trkpt lat="43.82842" lon="6.76474">
        <ele>1079.4</ele>
        <time>2026-05-15T08:50:09Z</time>
      </trkpt>
      <trkpt lat="43.82854" lon="6.76462">
        <ele>1079</ele>
        <time>2026-05-15T08:50:10Z</time>
      </trkpt>
      <trkpt lat="43.82867" lon="6.7645">
        <ele>1078.4</ele>
        <time>2026-05-15T08:50:11Z</time>
      </trkpt>
      <trkpt lat="43.82879" lon="6.76438">
        <ele>1078.5</ele>
        <time>2026-05-15T08:50:12Z</time>
      </trkpt>
      <trkpt lat="43.82892" lon="6.76425">
        <ele>1078.5</ele>
        <time>2026-05-15T08:50:13Z</time>
      </trkpt>
      <trkpt lat="43.82904" lon="6.76411">
        <ele>1079.2</ele>
        <time>2026-05-15T08:50:14Z</time>
      </trkpt>
      <trkpt lat="43.82916" lon="6.76397">
        <ele>1079</ele>
        <time>2026-05-15T08:50:15Z</time>
      </trkpt>
      <trkpt lat="43.82929" lon="6.76382">
        <ele>1079</ele>
        <time>2026-05-15T08:50:16Z</time>
      </trkpt>
      <trkpt lat="43.82941" lon="6.76368">
        <ele>1077.9</ele>
        <time>2026-05-15T08:50:17Z</time>
      </trkpt>
      <trkpt lat="43.82954" lon="6.76354">
        <ele>1076.1</ele>
        <time>2026-05-15T08:50:18Z</time>
      </trkpt>
      <trkpt lat="43.82967" lon="6.7634">
        <ele>1073.7</ele>
        <time>2026-05-15T08:50:19Z</time>
      </trkpt>
      <trkpt lat="43.82982" lon="6.76327">
        <ele>1073.2</ele>
        <time>2026-05-15T08:50:20Z</time>
      </trkpt>
      <trkpt lat="43.82997" lon="6.76315">
        <ele>1072.1</ele>
        <time>2026-05-15T08:50:21Z</time>
      </trkpt>
      <trkpt lat="43.83013" lon="6.76305">
        <ele>1068.8</ele>
        <time>2026-05-15T08:50:22Z</time>
      </trkpt>
      <trkpt lat="43.83029" lon="6.76298">
        <ele>1068.2</ele>
        <time>2026-05-15T08:50:23Z</time>
      </trkpt>
      <trkpt lat="43.83045" lon="6.76291">
        <ele>1065</ele>
        <time>2026-05-15T08:50:24Z</time>
      </trkpt>
      <trkpt lat="43.8306" lon="6.76279">
        <ele>1062.6</ele>
        <time>2026-05-15T08:50:25Z</time>
      </trkpt>
      <trkpt lat="43.83072" lon="6.76264">
        <ele>1062.9</ele>
        <time>2026-05-15T08:50:26Z</time>
      </trkpt>
      <trkpt lat="43.83085" lon="6.76251">
        <ele>1062.4</ele>
        <time>2026-05-15T08:50:27Z</time>
      </trkpt>
      <trkpt lat="43.83098" lon="6.7624">
        <ele>1063</ele>
        <time>2026-05-15T08:50:28Z</time>
      </trkpt>
      <trkpt lat="43.83111" lon="6.76233">
        <ele>1062.9</ele>
        <time>2026-05-15T08:50:29Z</time>
      </trkpt>
      <trkpt lat="43.83125" lon="6.76228">
        <ele>1063.6</ele>
        <time>2026-05-15T08:50:30Z</time>
      </trkpt>
      <trkpt lat="43.83139" lon="6.76226">
        <ele>1064.8</ele>
        <time>2026-05-15T08:50:31Z</time>
      </trkpt>
      <trkpt lat="43.83154" lon="6.76225">
        <ele>1066.2</ele>
        <time>2026-05-15T08:50:32Z</time>
      </trkpt>
      <trkpt lat="43.83168" lon="6.76223">
        <ele>1067.3</ele>
        <time>2026-05-15T08:50:33Z</time>
      </trkpt>
      <trkpt lat="43.83183" lon="6.76218">
        <ele>1067.9</ele>
        <time>2026-05-15T08:50:34Z</time>
      </trkpt>
      <trkpt lat="43.83198" lon="6.7621">
        <ele>1067.9</ele>
        <time>2026-05-15T08:50:35Z</time>
      </trkpt>
      <trkpt lat="43.83212" lon="6.76199">
        <ele>1067.5</ele>
        <time>2026-05-15T08:50:36Z</time>
      </trkpt>
      <trkpt lat="43.83226" lon="6.76186">
        <ele>1066.9</ele>
        <time>2026-05-15T08:50:37Z</time>
      </trkpt>
      <trkpt lat="43.8324" lon="6.76171">
        <ele>1065.7</ele>
        <time>2026-05-15T08:50:38Z</time>
      </trkpt>
      <trkpt lat="43.83254" lon="6.76157">
        <ele>1065</ele>
        <time>2026-05-15T08:50:39Z</time>
      </trkpt>
      <trkpt lat="43.83268" lon="6.76141">
        <ele>1063.6</ele>
        <time>2026-05-15T08:50:40Z</time>
      </trkpt>
      <trkpt lat="43.83281" lon="6.76124">
        <ele>1062.6</ele>
        <time>2026-05-15T08:50:41Z</time>
      </trkpt>
      <trkpt lat="43.83294" lon="6.76107">
        <ele>1061.3</ele>
        <time>2026-05-15T08:50:42Z</time>
      </trkpt>
      <trkpt lat="43.83307" lon="6.7609">
        <ele>1060.6</ele>
        <time>2026-05-15T08:50:43Z</time>
      </trkpt>
      <trkpt lat="43.83321" lon="6.76072">
        <ele>1060.7</ele>
        <time>2026-05-15T08:50:44Z</time>
      </trkpt>
      <trkpt lat="43.83333" lon="6.76054">
        <ele>1060.9</ele>
        <time>2026-05-15T08:50:45Z</time>
      </trkpt>
      <trkpt lat="43.83345" lon="6.76035">
        <ele>1061.9</ele>
        <time>2026-05-15T08:50:46Z</time>
      </trkpt>
      <trkpt lat="43.83357" lon="6.76015">
        <ele>1062.6</ele>
        <time>2026-05-15T08:50:47Z</time>
      </trkpt>
      <trkpt lat="43.83368" lon="6.75994">
        <ele>1062.8</ele>
        <time>2026-05-15T08:50:48Z</time>
      </trkpt>
      <trkpt lat="43.83378" lon="6.75972">
        <ele>1062.6</ele>
        <time>2026-05-15T08:50:49Z</time>
      </trkpt>
      <trkpt lat="43.83388" lon="6.75949">
        <ele>1061.5</ele>
        <time>2026-05-15T08:50:50Z</time>
      </trkpt>
      <trkpt lat="43.83397" lon="6.75926">
        <ele>1061.3</ele>
        <time>2026-05-15T08:50:51Z</time>
      </trkpt>
      <trkpt lat="43.83405" lon="6.75902">
        <ele>1061.3</ele>
        <time>2026-05-15T08:50:52Z</time>
      </trkpt>
      <trkpt lat="43.83413" lon="6.75878">
        <ele>1061</ele>
        <time>2026-05-15T08:50:53Z</time>
      </trkpt>
      <trkpt lat="43.8342" lon="6.75854">
        <ele>1060.7</ele>
        <time>2026-05-15T08:50:54Z</time>
      </trkpt>
      <trkpt lat="43.83426" lon="6.7583">
        <ele>1060.7</ele>
        <time>2026-05-15T08:50:55Z</time>
      </trkpt>
      <trkpt lat="43.83431" lon="6.75805">
        <ele>1059.6</ele>
        <time>2026-05-15T08:50:56Z</time>
      </trkpt>
      <trkpt lat="43.83436" lon="6.7578">
        <ele>1058.8</ele>
        <time>2026-05-15T08:50:57Z</time>
      </trkpt>
      <trkpt lat="43.83441" lon="6.75755">
        <ele>1057.8</ele>
        <time>2026-05-15T08:50:58Z</time>
      </trkpt>
      <trkpt lat="43.83444" lon="6.75728">
        <ele>1057.1</ele>
        <time>2026-05-15T08:50:59Z</time>
      </trkpt>
      <trkpt lat="43.83448" lon="6.75702">
        <ele>1057.8</ele>
        <time>2026-05-15T08:51:00Z</time>
      </trkpt>
      <trkpt lat="43.83451" lon="6.75675">
        <ele>1058.7</ele>
        <time>2026-05-15T08:51:01Z</time>
      </trkpt>
      <trkpt lat="43.83454" lon="6.75649">
        <ele>1058.9</ele>
        <time>2026-05-15T08:51:02Z</time>
      </trkpt>
      <trkpt lat="43.83459" lon="6.75623">
        <ele>1059.1</ele>
        <time>2026-05-15T08:51:03Z</time>
      </trkpt>
      <trkpt lat="43.83466" lon="6.75598">
        <ele>1059.4</ele>
        <time>2026-05-15T08:51:04Z</time>
      </trkpt>
      <trkpt lat="43.83473" lon="6.75573">
        <ele>1059.2</ele>
        <time>2026-05-15T08:51:05Z</time>
      </trkpt>
      <trkpt lat="43.83478" lon="6.75548">
        <ele>1058.8</ele>
        <time>2026-05-15T08:51:06Z</time>
      </trkpt>
      <trkpt lat="43.8348" lon="6.75523">
        <ele>1057.6</ele>
        <time>2026-05-15T08:51:07Z</time>
      </trkpt>
      <trkpt lat="43.83483" lon="6.75497">
        <ele>1057.3</ele>
        <time>2026-05-15T08:51:08Z</time>
      </trkpt>
      <trkpt lat="43.83487" lon="6.75472">
        <ele>1056.8</ele>
        <time>2026-05-15T08:51:09Z</time>
      </trkpt>
      <trkpt lat="43.83493" lon="6.75449">
        <ele>1056.6</ele>
        <time>2026-05-15T08:51:10Z</time>
      </trkpt>
      <trkpt lat="43.835" lon="6.75426">
        <ele>1056</ele>
        <time>2026-05-15T08:51:11Z</time>
      </trkpt>
      <trkpt lat="43.83506" lon="6.75404">
        <ele>1055.7</ele>
        <time>2026-05-15T08:51:12Z</time>
      </trkpt>
      <trkpt lat="43.83513" lon="6.75383">
        <ele>1055.5</ele>
        <time>2026-05-15T08:51:13Z</time>
      </trkpt>
      <trkpt lat="43.83519" lon="6.75361">
        <ele>1054.5</ele>
        <time>2026-05-15T08:51:14Z</time>
      </trkpt>
      <trkpt lat="43.83525" lon="6.75339">
        <ele>1053.2</ele>
        <time>2026-05-15T08:51:15Z</time>
      </trkpt>
      <trkpt lat="43.83531" lon="6.75317">
        <ele>1053.1</ele>
        <time>2026-05-15T08:51:16Z</time>
      </trkpt>
      <trkpt lat="43.83536" lon="6.75295">
        <ele>1053</ele>
        <time>2026-05-15T08:51:17Z</time>
      </trkpt>
      <trkpt lat="43.83542" lon="6.75272">
        <ele>1052.6</ele>
        <time>2026-05-15T08:51:18Z</time>
      </trkpt>
      <trkpt lat="43.83547" lon="6.7525">
        <ele>1052.2</ele>
        <time>2026-05-15T08:51:19Z</time>
      </trkpt>
      <trkpt lat="43.83552" lon="6.75228">
        <ele>1051.7</ele>
        <time>2026-05-15T08:51:20Z</time>
      </trkpt>
      <trkpt lat="43.83557" lon="6.75206">
        <ele>1050.7</ele>
        <time>2026-05-15T08:51:21Z</time>
      </trkpt>
      <trkpt lat="43.83561" lon="6.75184">
        <ele>1049.9</ele>
        <time>2026-05-15T08:51:22Z</time>
      </trkpt>
      <trkpt lat="43.83565" lon="6.75163">
        <ele>1049.1</ele>
        <time>2026-05-15T08:51:23Z</time>
      </trkpt>
      <trkpt lat="43.83569" lon="6.75141">
        <ele>1048.1</ele>
        <time>2026-05-15T08:51:24Z</time>
      </trkpt>
      <trkpt lat="43.83573" lon="6.7512">
        <ele>1047.5</ele>
        <time>2026-05-15T08:51:25Z</time>
      </trkpt>
      <trkpt lat="43.83576" lon="6.751">
        <ele>1046.6</ele>
        <time>2026-05-15T08:51:26Z</time>
      </trkpt>
      <trkpt lat="43.8358" lon="6.75079">
        <ele>1045.7</ele>
        <time>2026-05-15T08:51:27Z</time>
      </trkpt>
      <trkpt lat="43.83584" lon="6.75057">
        <ele>1045.1</ele>
        <time>2026-05-15T08:51:28Z</time>
      </trkpt>
      <trkpt lat="43.83588" lon="6.75035">
        <ele>1044.6</ele>
        <time>2026-05-15T08:51:29Z</time>
      </trkpt>
      <trkpt lat="43.83592" lon="6.75013">
        <ele>1044.5</ele>
        <time>2026-05-15T08:51:30Z</time>
      </trkpt>
      <trkpt lat="43.83595" lon="6.74991">
        <ele>1044.1</ele>
        <time>2026-05-15T08:51:31Z</time>
      </trkpt>
      <trkpt lat="43.83599" lon="6.74969">
        <ele>1043.4</ele>
        <time>2026-05-15T08:51:32Z</time>
      </trkpt>
      <trkpt lat="43.83603" lon="6.74947">
        <ele>1042.8</ele>
        <time>2026-05-15T08:51:33Z</time>
      </trkpt>
      <trkpt lat="43.83607" lon="6.74926">
        <ele>1042.3</ele>
        <time>2026-05-15T08:51:34Z</time>
      </trkpt>
      <trkpt lat="43.8361" lon="6.74904">
        <ele>1041.5</ele>
        <time>2026-05-15T08:51:35Z</time>
      </trkpt>
      <trkpt lat="43.83614" lon="6.74883">
        <ele>1041.2</ele>
        <time>2026-05-15T08:51:36Z</time>
      </trkpt>
      <trkpt lat="43.83618" lon="6.74861">
        <ele>1041.2</ele>
        <time>2026-05-15T08:51:37Z</time>
      </trkpt>
      <trkpt lat="43.83622" lon="6.7484">
        <ele>1040.6</ele>
        <time>2026-05-15T08:51:38Z</time>
      </trkpt>
      <trkpt lat="43.83627" lon="6.74818">
        <ele>1040.3</ele>
        <time>2026-05-15T08:51:39Z</time>
      </trkpt>
      <trkpt lat="43.83632" lon="6.74797">
        <ele>1039.9</ele>
        <time>2026-05-15T08:51:40Z</time>
      </trkpt>
      <trkpt lat="43.83637" lon="6.74776">
        <ele>1039.9</ele>
        <time>2026-05-15T08:51:41Z</time>
      </trkpt>
      <trkpt lat="43.83642" lon="6.74755">
        <ele>1040.1</ele>
        <time>2026-05-15T08:51:42Z</time>
      </trkpt>
      <trkpt lat="43.8365" lon="6.74735">
        <ele>1039.1</ele>
        <time>2026-05-15T08:51:43Z</time>
      </trkpt>
      <trkpt lat="43.8366" lon="6.74716">
        <ele>1037.8</ele>
        <time>2026-05-15T08:51:44Z</time>
      </trkpt>
      <trkpt lat="43.83672" lon="6.74699">
        <ele>1038.2</ele>
        <time>2026-05-15T08:51:45Z</time>
      </trkpt>
      <trkpt lat="43.83684" lon="6.74683">
        <ele>1039.2</ele>
        <time>2026-05-15T08:51:46Z</time>
      </trkpt>
      <trkpt lat="43.83697" lon="6.74666">
        <ele>1040.2</ele>
        <time>2026-05-15T08:51:47Z</time>
      </trkpt>
      <trkpt lat="43.83706" lon="6.74645">
        <ele>1042.3</ele>
        <time>2026-05-15T08:51:48Z</time>
      </trkpt>
      <trkpt lat="43.83713" lon="6.74624">
        <ele>1042.7</ele>
        <time>2026-05-15T08:51:49Z</time>
      </trkpt>
      <trkpt lat="43.83718" lon="6.74601">
        <ele>1041.9</ele>
        <time>2026-05-15T08:51:50Z</time>
      </trkpt>
      <trkpt lat="43.83722" lon="6.74578">
        <ele>1040.6</ele>
        <time>2026-05-15T08:51:51Z</time>
      </trkpt>
      <trkpt lat="43.83727" lon="6.74557">
        <ele>1040.9</ele>
        <time>2026-05-15T08:51:52Z</time>
      </trkpt>
      <trkpt lat="43.83733" lon="6.74537">
        <ele>1040.8</ele>
        <time>2026-05-15T08:51:53Z</time>
      </trkpt>
      <trkpt lat="43.8374" lon="6.7452">
        <ele>1040.5</ele>
        <time>2026-05-15T08:51:54Z</time>
      </trkpt>
      <trkpt lat="43.8375" lon="6.74507">
        <ele>1040.3</ele>
        <time>2026-05-15T08:51:55Z</time>
      </trkpt>
      <trkpt lat="43.8376" lon="6.74498">
        <ele>1040.2</ele>
        <time>2026-05-15T08:51:56Z</time>
      </trkpt>
      <trkpt lat="43.8377" lon="6.7449">
        <ele>1040.3</ele>
        <time>2026-05-15T08:51:57Z</time>
      </trkpt>
      <trkpt lat="43.83785" lon="6.74492">
        <ele>1042.3</ele>
        <time>2026-05-15T08:51:58Z</time>
      </trkpt>
      <trkpt lat="43.83797" lon="6.74491">
        <ele>1043.2</ele>
        <time>2026-05-15T08:51:59Z</time>
      </trkpt>
      <trkpt lat="43.8381" lon="6.74491">
        <ele>1043.9</ele>
        <time>2026-05-15T08:52:00Z</time>
      </trkpt>
      <trkpt lat="43.83821" lon="6.74492">
        <ele>1043.9</ele>
        <time>2026-05-15T08:52:01Z</time>
      </trkpt>
      <trkpt lat="43.83834" lon="6.74495">
        <ele>1044.1</ele>
        <time>2026-05-15T08:52:02Z</time>
      </trkpt>
      <trkpt lat="43.83847" lon="6.74497">
        <ele>1043.6</ele>
        <time>2026-05-15T08:52:03Z</time>
      </trkpt>
      <trkpt lat="43.8386" lon="6.745">
        <ele>1043.1</ele>
        <time>2026-05-15T08:52:04Z</time>
      </trkpt>
      <trkpt lat="43.83874" lon="6.74502">
        <ele>1042.7</ele>
        <time>2026-05-15T08:52:05Z</time>
      </trkpt>
      <trkpt lat="43.83889" lon="6.74507">
        <ele>1042.8</ele>
        <time>2026-05-15T08:52:06Z</time>
      </trkpt>
      <trkpt lat="43.83904" lon="6.74512">
        <ele>1042.8</ele>
        <time>2026-05-15T08:52:07Z</time>
      </trkpt>
      <trkpt lat="43.83919" lon="6.74517">
        <ele>1042.3</ele>
        <time>2026-05-15T08:52:08Z</time>
      </trkpt>
      <trkpt lat="43.83933" lon="6.74521">
        <ele>1041.5</ele>
        <time>2026-05-15T08:52:09Z</time>
      </trkpt>
      <trkpt lat="43.83948" lon="6.74522">
        <ele>1040.4</ele>
        <time>2026-05-15T08:52:10Z</time>
      </trkpt>
      <trkpt lat="43.83963" lon="6.74521">
        <ele>1039.3</ele>
        <time>2026-05-15T08:52:11Z</time>
      </trkpt>
      <trkpt lat="43.8398" lon="6.74515">
        <ele>1038.3</ele>
        <time>2026-05-15T08:52:12Z</time>
      </trkpt>
      <trkpt lat="43.83997" lon="6.74508">
        <ele>1037.4</ele>
        <time>2026-05-15T08:52:13Z</time>
      </trkpt>
      <trkpt lat="43.84013" lon="6.74501">
        <ele>1037</ele>
        <time>2026-05-15T08:52:14Z</time>
      </trkpt>
      <trkpt lat="43.84029" lon="6.74493">
        <ele>1036.7</ele>
        <time>2026-05-15T08:52:15Z</time>
      </trkpt>
      <trkpt lat="43.84044" lon="6.74485">
        <ele>1036.5</ele>
        <time>2026-05-15T08:52:16Z</time>
      </trkpt>
      <trkpt lat="43.84059" lon="6.74478">
        <ele>1036.2</ele>
        <time>2026-05-15T08:52:17Z</time>
      </trkpt>
      <trkpt lat="43.84074" lon="6.74471">
        <ele>1036</ele>
        <time>2026-05-15T08:52:18Z</time>
      </trkpt>
      <trkpt lat="43.84087" lon="6.74464">
        <ele>1035.7</ele>
        <time>2026-05-15T08:52:19Z</time>
      </trkpt>
      <trkpt lat="43.841" lon="6.74456">
        <ele>1035.4</ele>
        <time>2026-05-15T08:52:20Z</time>
      </trkpt>
      <trkpt lat="43.84113" lon="6.74448">
        <ele>1035.1</ele>
        <time>2026-05-15T08:52:21Z</time>
      </trkpt>
      <trkpt lat="43.84126" lon="6.74439">
        <ele>1035</ele>
        <time>2026-05-15T08:52:22Z</time>
      </trkpt>
      <trkpt lat="43.8414" lon="6.7443">
        <ele>1035</ele>
        <time>2026-05-15T08:52:23Z</time>
      </trkpt>
      <trkpt lat="43.84155" lon="6.74423">
        <ele>1034.6</ele>
        <time>2026-05-15T08:52:24Z</time>
      </trkpt>
      <trkpt lat="43.84171" lon="6.74416">
        <ele>1034</ele>
        <time>2026-05-15T08:52:25Z</time>
      </trkpt>
      <trkpt lat="43.84186" lon="6.7441">
        <ele>1033.8</ele>
        <time>2026-05-15T08:52:26Z</time>
      </trkpt>
      <trkpt lat="43.84202" lon="6.74404">
        <ele>1033.5</ele>
        <time>2026-05-15T08:52:27Z</time>
      </trkpt>
      <trkpt lat="43.84217" lon="6.74398">
        <ele>1033.3</ele>
        <time>2026-05-15T08:52:28Z</time>
      </trkpt>
      <trkpt lat="43.84232" lon="6.74393">
        <ele>1033.1</ele>
        <time>2026-05-15T08:52:29Z</time>
      </trkpt>
      <trkpt lat="43.84246" lon="6.74388">
        <ele>1033</ele>
        <time>2026-05-15T08:52:30Z</time>
      </trkpt>
      <trkpt lat="43.84259" lon="6.7438">
        <ele>1033.3</ele>
        <time>2026-05-15T08:52:31Z</time>
      </trkpt>
      <trkpt lat="43.8427" lon="6.74368">
        <ele>1033.7</ele>
        <time>2026-05-15T08:52:32Z</time>
      </trkpt>
      <trkpt lat="43.8428" lon="6.74352">
        <ele>1033.8</ele>
        <time>2026-05-15T08:52:33Z</time>
      </trkpt>
      <trkpt lat="43.84288" lon="6.74335">
        <ele>1033.5</ele>
        <time>2026-05-15T08:52:34Z</time>
      </trkpt>
      <trkpt lat="43.84298" lon="6.7432">
        <ele>1033.1</ele>
        <time>2026-05-15T08:52:35Z</time>
      </trkpt>
      <trkpt lat="43.84309" lon="6.74307">
        <ele>1033.2</ele>
        <time>2026-05-15T08:52:36Z</time>
      </trkpt>
      <trkpt lat="43.84321" lon="6.74294">
        <ele>1032.5</ele>
        <time>2026-05-15T08:52:37Z</time>
      </trkpt>
      <trkpt lat="43.84333" lon="6.74281">
        <ele>1032.2</ele>
        <time>2026-05-15T08:52:38Z</time>
      </trkpt>
      <trkpt lat="43.84344" lon="6.74267">
        <ele>1032</ele>
        <time>2026-05-15T08:52:39Z</time>
      </trkpt>
      <trkpt lat="43.84354" lon="6.74252">
        <ele>1031.6</ele>
        <time>2026-05-15T08:52:40Z</time>
      </trkpt>
      <trkpt lat="43.84364" lon="6.74237">
        <ele>1031.5</ele>
        <time>2026-05-15T08:52:41Z</time>
      </trkpt>
      <trkpt lat="43.84375" lon="6.74224">
        <ele>1032.1</ele>
        <time>2026-05-15T08:52:42Z</time>
      </trkpt>
      <trkpt lat="43.84384" lon="6.7421">
        <ele>1032.9</ele>
        <time>2026-05-15T08:52:43Z</time>
      </trkpt>
      <trkpt lat="43.84391" lon="6.74195">
        <ele>1033.5</ele>
        <time>2026-05-15T08:52:44Z</time>
      </trkpt>
      <trkpt lat="43.84396" lon="6.74178">
        <ele>1033.8</ele>
        <time>2026-05-15T08:52:45Z</time>
      </trkpt>
      <trkpt lat="43.84401" lon="6.7416">
        <ele>1033.7</ele>
        <time>2026-05-15T08:52:46Z</time>
      </trkpt>
      <trkpt lat="43.84403" lon="6.7414">
        <ele>1032.6</ele>
        <time>2026-05-15T08:52:47Z</time>
      </trkpt>
      <trkpt lat="43.84406" lon="6.7412">
        <ele>1031.9</ele>
        <time>2026-05-15T08:52:48Z</time>
      </trkpt>
      <trkpt lat="43.84408" lon="6.74099">
        <ele>1031.2</ele>
        <time>2026-05-15T08:52:49Z</time>
      </trkpt>
      <trkpt lat="43.84412" lon="6.74077">
        <ele>1030.6</ele>
        <time>2026-05-15T08:52:50Z</time>
      </trkpt>
      <trkpt lat="43.84416" lon="6.74056">
        <ele>1030.9</ele>
        <time>2026-05-15T08:52:51Z</time>
      </trkpt>
      <trkpt lat="43.84421" lon="6.74033">
        <ele>1030.3</ele>
        <time>2026-05-15T08:52:52Z</time>
      </trkpt>
      <trkpt lat="43.84426" lon="6.7401">
        <ele>1030.2</ele>
        <time>2026-05-15T08:52:53Z</time>
      </trkpt>
      <trkpt lat="43.84431" lon="6.73987">
        <ele>1029.6</ele>
        <time>2026-05-15T08:52:54Z</time>
      </trkpt>
      <trkpt lat="43.84437" lon="6.73964">
        <ele>1028.7</ele>
        <time>2026-05-15T08:52:55Z</time>
      </trkpt>
      <trkpt lat="43.84445" lon="6.73942">
        <ele>1028</ele>
        <time>2026-05-15T08:52:56Z</time>
      </trkpt>
      <trkpt lat="43.84454" lon="6.73922">
        <ele>1027.9</ele>
        <time>2026-05-15T08:52:57Z</time>
      </trkpt>
      <trkpt lat="43.84462" lon="6.73903">
        <ele>1027.5</ele>
        <time>2026-05-15T08:52:58Z</time>
      </trkpt>
      <trkpt lat="43.84468" lon="6.73884">
        <ele>1026.7</ele>
        <time>2026-05-15T08:52:59Z</time>
      </trkpt>
      <trkpt lat="43.84473" lon="6.73863">
        <ele>1026.1</ele>
        <time>2026-05-15T08:53:00Z</time>
      </trkpt>
      <trkpt lat="43.84475" lon="6.73842">
        <ele>1026.1</ele>
        <time>2026-05-15T08:53:01Z</time>
      </trkpt>
      <trkpt lat="43.84474" lon="6.73821">
        <ele>1026</ele>
        <time>2026-05-15T08:53:02Z</time>
      </trkpt>
      <trkpt lat="43.84473" lon="6.73799">
        <ele>1026</ele>
        <time>2026-05-15T08:53:03Z</time>
      </trkpt>
      <trkpt lat="43.84471" lon="6.73776">
        <ele>1026.2</ele>
        <time>2026-05-15T08:53:04Z</time>
      </trkpt>
      <trkpt lat="43.8447" lon="6.73753">
        <ele>1027.3</ele>
        <time>2026-05-15T08:53:05Z</time>
      </trkpt>
      <trkpt lat="43.8447" lon="6.73731">
        <ele>1028.1</ele>
        <time>2026-05-15T08:53:06Z</time>
      </trkpt>
      <trkpt lat="43.84471" lon="6.73709">
        <ele>1029.2</ele>
        <time>2026-05-15T08:53:07Z</time>
      </trkpt>
      <trkpt lat="43.84471" lon="6.73687">
        <ele>1030.6</ele>
        <time>2026-05-15T08:53:08Z</time>
      </trkpt>
      <trkpt lat="43.84472" lon="6.73665">
        <ele>1031.2</ele>
        <time>2026-05-15T08:53:09Z</time>
      </trkpt>
      <trkpt lat="43.84472" lon="6.73643">
        <ele>1032.8</ele>
        <time>2026-05-15T08:53:10Z</time>
      </trkpt>
      <trkpt lat="43.84473" lon="6.73621">
        <ele>1033.5</ele>
        <time>2026-05-15T08:53:11Z</time>
      </trkpt>
      <trkpt lat="43.84475" lon="6.73598">
        <ele>1033.8</ele>
        <time>2026-05-15T08:53:12Z</time>
      </trkpt>
      <trkpt lat="43.84476" lon="6.73576">
        <ele>1034.3</ele>
        <time>2026-05-15T08:53:13Z</time>
      </trkpt>
      <trkpt lat="43.84477" lon="6.73553">
        <ele>1034.9</ele>
        <time>2026-05-15T08:53:14Z</time>
      </trkpt>
      <trkpt lat="43.84478" lon="6.7353">
        <ele>1035.3</ele>
        <time>2026-05-15T08:53:15Z</time>
      </trkpt>
      <trkpt lat="43.8448" lon="6.73508">
        <ele>1035</ele>
        <time>2026-05-15T08:53:16Z</time>
      </trkpt>
      <trkpt lat="43.84481" lon="6.73487">
        <ele>1034.8</ele>
        <time>2026-05-15T08:53:17Z</time>
      </trkpt>
      <trkpt lat="43.84482" lon="6.73466">
        <ele>1034.5</ele>
        <time>2026-05-15T08:53:18Z</time>
      </trkpt>
      <trkpt lat="43.84482" lon="6.73448">
        <ele>1034.5</ele>
        <time>2026-05-15T08:53:19Z</time>
      </trkpt>
      <trkpt lat="43.84483" lon="6.73434">
        <ele>1034.3</ele>
        <time>2026-05-15T08:53:20Z</time>
      </trkpt>
      <trkpt lat="43.84484" lon="6.73421">
        <ele>1034</ele>
        <time>2026-05-15T08:53:21Z</time>
      </trkpt>
      <trkpt lat="43.84484" lon="6.73408">
        <ele>1034</ele>
        <time>2026-05-15T08:53:22Z</time>
      </trkpt>
      <trkpt lat="43.84485" lon="6.73396">
        <ele>1033.8</ele>
        <time>2026-05-15T08:53:23Z</time>
      </trkpt>
      <trkpt lat="43.84487" lon="6.73384">
        <ele>1033.3</ele>
        <time>2026-05-15T08:53:24Z</time>
      </trkpt>
      <trkpt lat="43.84488" lon="6.73373">
        <ele>1033</ele>
        <time>2026-05-15T08:53:25Z</time>
      </trkpt>
      <trkpt lat="43.84489" lon="6.73364">
        <ele>1032.8</ele>
        <time>2026-05-15T08:53:26Z</time>
      </trkpt>
      <trkpt lat="43.84488" lon="6.73355">
        <ele>1033</ele>
        <time>2026-05-15T08:53:27Z</time>
      </trkpt>
      <trkpt lat="43.84485" lon="6.73344">
        <ele>1033.8</ele>
        <time>2026-05-15T08:53:28Z</time>
      </trkpt>
      <trkpt lat="43.84483" lon="6.73332">
        <ele>1034.3</ele>
        <time>2026-05-15T08:53:29Z</time>
      </trkpt>
      <trkpt lat="43.84482" lon="6.73318">
        <ele>1034.2</ele>
        <time>2026-05-15T08:53:30Z</time>
      </trkpt>
      <trkpt lat="43.84481" lon="6.73303">
        <ele>1034</ele>
        <time>2026-05-15T08:53:31Z</time>
      </trkpt>
      <trkpt lat="43.8448" lon="6.73288">
        <ele>1033.9</ele>
        <time>2026-05-15T08:53:32Z</time>
      </trkpt>
      <trkpt lat="43.84479" lon="6.73271">
        <ele>1033.3</ele>
        <time>2026-05-15T08:53:33Z</time>
      </trkpt>
      <trkpt lat="43.84478" lon="6.73253">
        <ele>1032.2</ele>
        <time>2026-05-15T08:53:34Z</time>
      </trkpt>
      <trkpt lat="43.84476" lon="6.73236">
        <ele>1030.9</ele>
        <time>2026-05-15T08:53:35Z</time>
      </trkpt>
      <trkpt lat="43.84475" lon="6.73218">
        <ele>1029.3</ele>
        <time>2026-05-15T08:53:36Z</time>
      </trkpt>
      <trkpt lat="43.84474" lon="6.732">
        <ele>1028.2</ele>
        <time>2026-05-15T08:53:37Z</time>
      </trkpt>
      <trkpt lat="43.84473" lon="6.7318">
        <ele>1027.4</ele>
        <time>2026-05-15T08:53:38Z</time>
      </trkpt>
      <trkpt lat="43.84472" lon="6.73161">
        <ele>1026.8</ele>
        <time>2026-05-15T08:53:39Z</time>
      </trkpt>
      <trkpt lat="43.84471" lon="6.73143">
        <ele>1026.4</ele>
        <time>2026-05-15T08:53:40Z</time>
      </trkpt>
      <trkpt lat="43.84468" lon="6.73125">
        <ele>1026.8</ele>
        <time>2026-05-15T08:53:41Z</time>
      </trkpt>
      <trkpt lat="43.84463" lon="6.73108">
        <ele>1026.9</ele>
        <time>2026-05-15T08:53:42Z</time>
      </trkpt>
      <trkpt lat="43.84458" lon="6.73092">
        <ele>1025.7</ele>
        <time>2026-05-15T08:53:43Z</time>
      </trkpt>
      <trkpt lat="43.84453" lon="6.73077">
        <ele>1025.4</ele>
        <time>2026-05-15T08:53:44Z</time>
      </trkpt>
      <trkpt lat="43.84448" lon="6.73061">
        <ele>1025.5</ele>
        <time>2026-05-15T08:53:45Z</time>
      </trkpt>
      <trkpt lat="43.84445" lon="6.73046">
        <ele>1025.2</ele>
        <time>2026-05-15T08:53:46Z</time>
      </trkpt>
      <trkpt lat="43.84444" lon="6.73031">
        <ele>1024.3</ele>
        <time>2026-05-15T08:53:47Z</time>
      </trkpt>
      <trkpt lat="43.84445" lon="6.73016">
        <ele>1023.1</ele>
        <time>2026-05-15T08:53:48Z</time>
      </trkpt>
      <trkpt lat="43.84448" lon="6.73003">
        <ele>1022.2</ele>
        <time>2026-05-15T08:53:49Z</time>
      </trkpt>
      <trkpt lat="43.84453" lon="6.72991">
        <ele>1021.8</ele>
        <time>2026-05-15T08:53:50Z</time>
      </trkpt>
      <trkpt lat="43.84459" lon="6.72979">
        <ele>1021.6</ele>
        <time>2026-05-15T08:53:51Z</time>
      </trkpt>
      <trkpt lat="43.84466" lon="6.72966">
        <ele>1021.8</ele>
        <time>2026-05-15T08:53:52Z</time>
      </trkpt>
      <trkpt lat="43.84472" lon="6.72953">
        <ele>1022</ele>
        <time>2026-05-15T08:53:53Z</time>
      </trkpt>
      <trkpt lat="43.8448" lon="6.72939">
        <ele>1022</ele>
        <time>2026-05-15T08:53:54Z</time>
      </trkpt>
      <trkpt lat="43.84488" lon="6.72926">
        <ele>1022</ele>
        <time>2026-05-15T08:53:55Z</time>
      </trkpt>
      <trkpt lat="43.84496" lon="6.72914">
        <ele>1022</ele>
        <time>2026-05-15T08:53:56Z</time>
      </trkpt>
      <trkpt lat="43.84506" lon="6.72903">
        <ele>1022.1</ele>
        <time>2026-05-15T08:53:57Z</time>
      </trkpt>
      <trkpt lat="43.84516" lon="6.72891">
        <ele>1022.5</ele>
        <time>2026-05-15T08:53:58Z</time>
      </trkpt>
      <trkpt lat="43.84527" lon="6.72881">
        <ele>1023.3</ele>
        <time>2026-05-15T08:53:59Z</time>
      </trkpt>
      <trkpt lat="43.84537" lon="6.7287">
        <ele>1023.7</ele>
        <time>2026-05-15T08:54:00Z</time>
      </trkpt>
      <trkpt lat="43.84548" lon="6.72859">
        <ele>1024</ele>
        <time>2026-05-15T08:54:01Z</time>
      </trkpt>
      <trkpt lat="43.84559" lon="6.72847">
        <ele>1024.2</ele>
        <time>2026-05-15T08:54:02Z</time>
      </trkpt>
      <trkpt lat="43.84569" lon="6.72837">
        <ele>1024.9</ele>
        <time>2026-05-15T08:54:03Z</time>
      </trkpt>
      <trkpt lat="43.84579" lon="6.72826">
        <ele>1025.7</ele>
        <time>2026-05-15T08:54:04Z</time>
      </trkpt>
      <trkpt lat="43.84589" lon="6.72815">
        <ele>1026.3</ele>
        <time>2026-05-15T08:54:05Z</time>
      </trkpt>
      <trkpt lat="43.84599" lon="6.72805">
        <ele>1027.2</ele>
        <time>2026-05-15T08:54:06Z</time>
      </trkpt>
      <trkpt lat="43.84609" lon="6.72796">
        <ele>1028.5</ele>
        <time>2026-05-15T08:54:07Z</time>
      </trkpt>
      <trkpt lat="43.84618" lon="6.72789">
        <ele>1029.6</ele>
        <time>2026-05-15T08:54:08Z</time>
      </trkpt>
      <trkpt lat="43.84629" lon="6.72785">
        <ele>1030.6</ele>
        <time>2026-05-15T08:54:09Z</time>
      </trkpt>
      <trkpt lat="43.8464" lon="6.72784">
        <ele>1031.4</ele>
        <time>2026-05-15T08:54:10Z</time>
      </trkpt>
      <trkpt lat="43.84651" lon="6.72785">
        <ele>1031.8</ele>
        <time>2026-05-15T08:54:11Z</time>
      </trkpt>
      <trkpt lat="43.84662" lon="6.72788">
        <ele>1032</ele>
        <time>2026-05-15T08:54:12Z</time>
      </trkpt>
      <trkpt lat="43.84671" lon="6.72794">
        <ele>1032.5</ele>
        <time>2026-05-15T08:54:13Z</time>
      </trkpt>
      <trkpt lat="43.84679" lon="6.72803">
        <ele>1033</ele>
        <time>2026-05-15T08:54:14Z</time>
      </trkpt>
      <trkpt lat="43.84685" lon="6.72812">
        <ele>1033.2</ele>
        <time>2026-05-15T08:54:15Z</time>
      </trkpt>
      <trkpt lat="43.8469" lon="6.72822">
        <ele>1033.2</ele>
        <time>2026-05-15T08:54:16Z</time>
      </trkpt>
      <trkpt lat="43.84694" lon="6.72831">
        <ele>1033.1</ele>
        <time>2026-05-15T08:54:17Z</time>
      </trkpt>
      <trkpt lat="43.84698" lon="6.72838">
        <ele>1033.2</ele>
        <time>2026-05-15T08:54:18Z</time>
      </trkpt>
      <trkpt lat="43.84701" lon="6.72843">
        <ele>1033.2</ele>
        <time>2026-05-15T08:54:19Z</time>
      </trkpt>
      <trkpt lat="43.84704" lon="6.72847">
        <ele>1033.2</ele>
        <time>2026-05-15T08:54:20Z</time>
      </trkpt>
      <trkpt lat="43.84708" lon="6.72849">
        <ele>1033.5</ele>
        <time>2026-05-15T08:54:21Z</time>
      </trkpt>
      <trkpt lat="43.84712" lon="6.72849">
        <ele>1034</ele>
        <time>2026-05-15T08:54:22Z</time>
      </trkpt>
      <trkpt lat="43.84714" lon="6.72847">
        <ele>1034.5</ele>
        <time>2026-05-15T08:54:23Z</time>
      </trkpt>
      <trkpt lat="43.84715" lon="6.72844">
        <ele>1034.9</ele>
        <time>2026-05-15T08:54:24Z</time>
      </trkpt>
      <trkpt lat="43.84715" lon="6.72839">
        <ele>1035.4</ele>
        <time>2026-05-15T08:54:25Z</time>
      </trkpt>
      <trkpt lat="43.84713" lon="6.72832">
        <ele>1035.8</ele>
        <time>2026-05-15T08:54:26Z</time>
      </trkpt>
      <trkpt lat="43.84711" lon="6.72823">
        <ele>1036.1</ele>
        <time>2026-05-15T08:54:27Z</time>
      </trkpt>
      <trkpt lat="43.84709" lon="6.72813">
        <ele>1036.6</ele>
        <time>2026-05-15T08:54:28Z</time>
      </trkpt>
      <trkpt lat="43.84706" lon="6.72803">
        <ele>1036.9</ele>
        <time>2026-05-15T08:54:29Z</time>
      </trkpt>
      <trkpt lat="43.84704" lon="6.72791">
        <ele>1037.6</ele>
        <time>2026-05-15T08:54:30Z</time>
      </trkpt>
      <trkpt lat="43.847" lon="6.72778">
        <ele>1038</ele>
        <time>2026-05-15T08:54:31Z</time>
      </trkpt>
      <trkpt lat="43.84697" lon="6.72764">
        <ele>1038.9</ele>
        <time>2026-05-15T08:54:32Z</time>
      </trkpt>
      <trkpt lat="43.84694" lon="6.72749">
        <ele>1040</ele>
        <time>2026-05-15T08:54:33Z</time>
      </trkpt>
      <trkpt lat="43.84691" lon="6.72733">
        <ele>1040.1</ele>
        <time>2026-05-15T08:54:34Z</time>
      </trkpt>
      <trkpt lat="43.84689" lon="6.72717">
        <ele>1040.6</ele>
        <time>2026-05-15T08:54:35Z</time>
      </trkpt>
      <trkpt lat="43.84687" lon="6.72701">
        <ele>1041.3</ele>
        <time>2026-05-15T08:54:36Z</time>
      </trkpt>
      <trkpt lat="43.84686" lon="6.72684">
        <ele>1042.2</ele>
        <time>2026-05-15T08:54:37Z</time>
      </trkpt>
      <trkpt lat="43.84686" lon="6.72667">
        <ele>1043.5</ele>
        <time>2026-05-15T08:54:38Z</time>
      </trkpt>
      <trkpt lat="43.84685" lon="6.7265">
        <ele>1044.9</ele>
        <time>2026-05-15T08:54:39Z</time>
      </trkpt>
      <trkpt lat="43.84684" lon="6.72632">
        <ele>1046.5</ele>
        <time>2026-05-15T08:54:40Z</time>
      </trkpt>
      <trkpt lat="43.84682" lon="6.72614">
        <ele>1048</ele>
        <time>2026-05-15T08:54:41Z</time>
      </trkpt>
      <trkpt lat="43.84679" lon="6.72596">
        <ele>1049</ele>
        <time>2026-05-15T08:54:42Z</time>
      </trkpt>
      <trkpt lat="43.84675" lon="6.72578">
        <ele>1049.9</ele>
        <time>2026-05-15T08:54:43Z</time>
      </trkpt>
      <trkpt lat="43.8467" lon="6.72561">
        <ele>1051.1</ele>
        <time>2026-05-15T08:54:44Z</time>
      </trkpt>
      <trkpt lat="43.84665" lon="6.72544">
        <ele>1051.8</ele>
        <time>2026-05-15T08:54:45Z</time>
      </trkpt>
      <trkpt lat="43.84659" lon="6.72528">
        <ele>1052</ele>
        <time>2026-05-15T08:54:46Z</time>
      </trkpt>
      <trkpt lat="43.84653" lon="6.72513">
        <ele>1051.6</ele>
        <time>2026-05-15T08:54:47Z</time>
      </trkpt>
      <trkpt lat="43.84649" lon="6.72499">
        <ele>1051.7</ele>
        <time>2026-05-15T08:54:48Z</time>
      </trkpt>
      <trkpt lat="43.84645" lon="6.72486">
        <ele>1052.1</ele>
        <time>2026-05-15T08:54:49Z</time>
      </trkpt>
      <trkpt lat="43.84642" lon="6.72474">
        <ele>1052.6</ele>
        <time>2026-05-15T08:54:50Z</time>
      </trkpt>
      <trkpt lat="43.8464" lon="6.72461">
        <ele>1053.1</ele>
        <time>2026-05-15T08:54:51Z</time>
      </trkpt>
      <trkpt lat="43.84637" lon="6.72448">
        <ele>1053.3</ele>
        <time>2026-05-15T08:54:52Z</time>
      </trkpt>
      <trkpt lat="43.84634" lon="6.72434">
        <ele>1053.5</ele>
        <time>2026-05-15T08:54:53Z</time>
      </trkpt>
      <trkpt lat="43.84631" lon="6.7242">
        <ele>1053.8</ele>
        <time>2026-05-15T08:54:54Z</time>
      </trkpt>
      <trkpt lat="43.84628" lon="6.72407">
        <ele>1054.3</ele>
        <time>2026-05-15T08:54:55Z</time>
      </trkpt>
      <trkpt lat="43.84626" lon="6.72392">
        <ele>1055.4</ele>
        <time>2026-05-15T08:54:56Z</time>
      </trkpt>
      <trkpt lat="43.84623" lon="6.72378">
        <ele>1055.6</ele>
        <time>2026-05-15T08:54:57Z</time>
      </trkpt>
      <trkpt lat="43.8462" lon="6.72362">
        <ele>1055.9</ele>
        <time>2026-05-15T08:54:58Z</time>
      </trkpt>
      <trkpt lat="43.84618" lon="6.72346">
        <ele>1055.6</ele>
        <time>2026-05-15T08:54:59Z</time>
      </trkpt>
      <trkpt lat="43.84617" lon="6.72328">
        <ele>1055.5</ele>
        <time>2026-05-15T08:55:00Z</time>
      </trkpt>
      <trkpt lat="43.84617" lon="6.7231">
        <ele>1055.7</ele>
        <time>2026-05-15T08:55:01Z</time>
      </trkpt>
      <trkpt lat="43.84618" lon="6.72292">
        <ele>1056.4</ele>
        <time>2026-05-15T08:55:02Z</time>
      </trkpt>
      <trkpt lat="43.84617" lon="6.72273">
        <ele>1056.7</ele>
        <time>2026-05-15T08:55:03Z</time>
      </trkpt>
      <trkpt lat="43.84615" lon="6.72254">
        <ele>1056.8</ele>
        <time>2026-05-15T08:55:04Z</time>
      </trkpt>
      <trkpt lat="43.84612" lon="6.72234">
        <ele>1056.8</ele>
        <time>2026-05-15T08:55:05Z</time>
      </trkpt>
      <trkpt lat="43.84608" lon="6.72213">
        <ele>1057</ele>
        <time>2026-05-15T08:55:06Z</time>
      </trkpt>
      <trkpt lat="43.84604" lon="6.72193">
        <ele>1057.5</ele>
        <time>2026-05-15T08:55:07Z</time>
      </trkpt>
      <trkpt lat="43.84598" lon="6.72171">
        <ele>1057</ele>
        <time>2026-05-15T08:55:08Z</time>
      </trkpt>
      <trkpt lat="43.84593" lon="6.72149">
        <ele>1057.4</ele>
        <time>2026-05-15T08:55:09Z</time>
      </trkpt>
      <trkpt lat="43.84587" lon="6.72128">
        <ele>1057.6</ele>
        <time>2026-05-15T08:55:10Z</time>
      </trkpt>
      <trkpt lat="43.84579" lon="6.72108">
        <ele>1057.4</ele>
        <time>2026-05-15T08:55:11Z</time>
      </trkpt>
      <trkpt lat="43.84571" lon="6.72087">
        <ele>1057.5</ele>
        <time>2026-05-15T08:55:12Z</time>
      </trkpt>
      <trkpt lat="43.84563" lon="6.72066">
        <ele>1057.6</ele>
        <time>2026-05-15T08:55:13Z</time>
      </trkpt>
      <trkpt lat="43.84554" lon="6.72045">
        <ele>1057.5</ele>
        <time>2026-05-15T08:55:14Z</time>
      </trkpt>
      <trkpt lat="43.84545" lon="6.72024">
        <ele>1057.8</ele>
        <time>2026-05-15T08:55:15Z</time>
      </trkpt>
      <trkpt lat="43.84536" lon="6.72004">
        <ele>1057.9</ele>
        <time>2026-05-15T08:55:16Z</time>
      </trkpt>
      <trkpt lat="43.84528" lon="6.71985">
        <ele>1057.6</ele>
        <time>2026-05-15T08:55:17Z</time>
      </trkpt>
      <trkpt lat="43.84519" lon="6.71967">
        <ele>1057.2</ele>
        <time>2026-05-15T08:55:18Z</time>
      </trkpt>
      <trkpt lat="43.8451" lon="6.71949">
        <ele>1057.6</ele>
        <time>2026-05-15T08:55:19Z</time>
      </trkpt>
      <trkpt lat="43.84502" lon="6.71931">
        <ele>1057.7</ele>
        <time>2026-05-15T08:55:20Z</time>
      </trkpt>
      <trkpt lat="43.84492" lon="6.71913">
        <ele>1057.2</ele>
        <time>2026-05-15T08:55:21Z</time>
      </trkpt>
      <trkpt lat="43.84484" lon="6.71894">
        <ele>1058.1</ele>
        <time>2026-05-15T08:55:22Z</time>
      </trkpt>
      <trkpt lat="43.84475" lon="6.71876">
        <ele>1058.3</ele>
        <time>2026-05-15T08:55:23Z</time>
      </trkpt>
      <trkpt lat="43.84467" lon="6.71859">
        <ele>1058.4</ele>
        <time>2026-05-15T08:55:24Z</time>
      </trkpt>
      <trkpt lat="43.84458" lon="6.71843">
        <ele>1058.6</ele>
        <time>2026-05-15T08:55:25Z</time>
      </trkpt>
      <trkpt lat="43.8445" lon="6.71828">
        <ele>1059</ele>
        <time>2026-05-15T08:55:26Z</time>
      </trkpt>
      <trkpt lat="43.84442" lon="6.71813">
        <ele>1059.1</ele>
        <time>2026-05-15T08:55:27Z</time>
      </trkpt>
      <trkpt lat="43.84435" lon="6.71798">
        <ele>1059.2</ele>
        <time>2026-05-15T08:55:28Z</time>
      </trkpt>
      <trkpt lat="43.84426" lon="6.71783">
        <ele>1059</ele>
        <time>2026-05-15T08:55:29Z</time>
      </trkpt>
      <trkpt lat="43.84418" lon="6.71769">
        <ele>1059.1</ele>
        <time>2026-05-15T08:55:30Z</time>
      </trkpt>
      <trkpt lat="43.84409" lon="6.71754">
        <ele>1059.5</ele>
        <time>2026-05-15T08:55:31Z</time>
      </trkpt>
      <trkpt lat="43.844" lon="6.71741">
        <ele>1059.2</ele>
        <time>2026-05-15T08:55:32Z</time>
      </trkpt>
      <trkpt lat="43.84392" lon="6.71727">
        <ele>1059.1</ele>
        <time>2026-05-15T08:55:33Z</time>
      </trkpt>
      <trkpt lat="43.84384" lon="6.71712">
        <ele>1059.3</ele>
        <time>2026-05-15T08:55:34Z</time>
      </trkpt>
      <trkpt lat="43.84375" lon="6.71698">
        <ele>1059.2</ele>
        <time>2026-05-15T08:55:35Z</time>
      </trkpt>
      <trkpt lat="43.84367" lon="6.71682">
        <ele>1059.3</ele>
        <time>2026-05-15T08:55:36Z</time>
      </trkpt>
      <trkpt lat="43.84359" lon="6.71666">
        <ele>1059.7</ele>
        <time>2026-05-15T08:55:37Z</time>
      </trkpt>
      <trkpt lat="43.8435" lon="6.71651">
        <ele>1059.5</ele>
        <time>2026-05-15T08:55:38Z</time>
      </trkpt>
      <trkpt lat="43.8434" lon="6.71635">
        <ele>1059.4</ele>
        <time>2026-05-15T08:55:39Z</time>
      </trkpt>
      <trkpt lat="43.8433" lon="6.7162">
        <ele>1059.6</ele>
        <time>2026-05-15T08:55:40Z</time>
      </trkpt>
      <trkpt lat="43.84321" lon="6.71603">
        <ele>1060</ele>
        <time>2026-05-15T08:55:41Z</time>
      </trkpt>
      <trkpt lat="43.84312" lon="6.71585">
        <ele>1060</ele>
        <time>2026-05-15T08:55:42Z</time>
      </trkpt>
      <trkpt lat="43.84305" lon="6.71566">
        <ele>1060.2</ele>
        <time>2026-05-15T08:55:43Z</time>
      </trkpt>
      <trkpt lat="43.84297" lon="6.71547">
        <ele>1060.4</ele>
        <time>2026-05-15T08:55:44Z</time>
      </trkpt>
      <trkpt lat="43.8429" lon="6.71528">
        <ele>1060.7</ele>
        <time>2026-05-15T08:55:45Z</time>
      </trkpt>
      <trkpt lat="43.84282" lon="6.71511">
        <ele>1060.8</ele>
        <time>2026-05-15T08:55:46Z</time>
      </trkpt>
      <trkpt lat="43.84274" lon="6.71494">
        <ele>1060.8</ele>
        <time>2026-05-15T08:55:47Z</time>
      </trkpt>
      <trkpt lat="43.84264" lon="6.71477">
        <ele>1060.6</ele>
        <time>2026-05-15T08:55:48Z</time>
      </trkpt>
      <trkpt lat="43.84256" lon="6.7146">
        <ele>1060.8</ele>
        <time>2026-05-15T08:55:49Z</time>
      </trkpt>
      <trkpt lat="43.84248" lon="6.71441">
        <ele>1060.8</ele>
        <time>2026-05-15T08:55:50Z</time>
      </trkpt>
      <trkpt lat="43.84242" lon="6.71421">
        <ele>1061</ele>
        <time>2026-05-15T08:55:51Z</time>
      </trkpt>
      <trkpt lat="43.84236" lon="6.714">
        <ele>1061.2</ele>
        <time>2026-05-15T08:55:52Z</time>
      </trkpt>
      <trkpt lat="43.84231" lon="6.71379">
        <ele>1061.6</ele>
        <time>2026-05-15T08:55:53Z</time>
      </trkpt>
      <trkpt lat="43.84224" lon="6.71359">
        <ele>1061.5</ele>
        <time>2026-05-15T08:55:54Z</time>
      </trkpt>
      <trkpt lat="43.84216" lon="6.71339">
        <ele>1061</ele>
        <time>2026-05-15T08:55:55Z</time>
      </trkpt>
      <trkpt lat="43.84207" lon="6.7132">
        <ele>1060.6</ele>
        <time>2026-05-15T08:55:56Z</time>
      </trkpt>
      <trkpt lat="43.84197" lon="6.71301">
        <ele>1060.1</ele>
        <time>2026-05-15T08:55:57Z</time>
      </trkpt>
      <trkpt lat="43.84187" lon="6.71282">
        <ele>1059.9</ele>
        <time>2026-05-15T08:55:58Z</time>
      </trkpt>
      <trkpt lat="43.84178" lon="6.71262">
        <ele>1060.2</ele>
        <time>2026-05-15T08:55:59Z</time>
      </trkpt>
      <trkpt lat="43.84168" lon="6.71243">
        <ele>1060</ele>
        <time>2026-05-15T08:56:00Z</time>
      </trkpt>
      <trkpt lat="43.84158" lon="6.71223">
        <ele>1060.3</ele>
        <time>2026-05-15T08:56:01Z</time>
      </trkpt>
      <trkpt lat="43.84149" lon="6.71203">
        <ele>1060.9</ele>
        <time>2026-05-15T08:56:02Z</time>
      </trkpt>
      <trkpt lat="43.8414" lon="6.71184">
        <ele>1061.7</ele>
        <time>2026-05-15T08:56:03Z</time>
      </trkpt>
      <trkpt lat="43.8413" lon="6.71167">
        <ele>1062.7</ele>
        <time>2026-05-15T08:56:04Z</time>
      </trkpt>
      <trkpt lat="43.84119" lon="6.71153">
        <ele>1063</ele>
        <time>2026-05-15T08:56:05Z</time>
      </trkpt>
      <trkpt lat="43.84108" lon="6.7114">
        <ele>1063.5</ele>
        <time>2026-05-15T08:56:06Z</time>
      </trkpt>
      <trkpt lat="43.84097" lon="6.71129">
        <ele>1063.7</ele>
        <time>2026-05-15T08:56:07Z</time>
      </trkpt>
      <trkpt lat="43.84086" lon="6.71118">
        <ele>1064.2</ele>
        <time>2026-05-15T08:56:08Z</time>
      </trkpt>
      <trkpt lat="43.84075" lon="6.71108">
        <ele>1064.4</ele>
        <time>2026-05-15T08:56:09Z</time>
      </trkpt>
      <trkpt lat="43.84066" lon="6.71097">
        <ele>1064.7</ele>
        <time>2026-05-15T08:56:10Z</time>
      </trkpt>
      <trkpt lat="43.84058" lon="6.71084">
        <ele>1065.2</ele>
        <time>2026-05-15T08:56:11Z</time>
      </trkpt>
      <trkpt lat="43.84052" lon="6.71069">
        <ele>1066.3</ele>
        <time>2026-05-15T08:56:12Z</time>
      </trkpt>
      <trkpt lat="43.84047" lon="6.71052">
        <ele>1067.5</ele>
        <time>2026-05-15T08:56:13Z</time>
      </trkpt>
      <trkpt lat="43.84044" lon="6.71034">
        <ele>1067.9</ele>
        <time>2026-05-15T08:56:14Z</time>
      </trkpt>
      <trkpt lat="43.84041" lon="6.71016">
        <ele>1067.5</ele>
        <time>2026-05-15T08:56:15Z</time>
      </trkpt>
      <trkpt lat="43.8404" lon="6.70997">
        <ele>1066.7</ele>
        <time>2026-05-15T08:56:16Z</time>
      </trkpt>
      <trkpt lat="43.84041" lon="6.70979">
        <ele>1066.5</ele>
        <time>2026-05-15T08:56:17Z</time>
      </trkpt>
      <trkpt lat="43.84043" lon="6.70961">
        <ele>1067.1</ele>
        <time>2026-05-15T08:56:18Z</time>
      </trkpt>
      <trkpt lat="43.84042" lon="6.70944">
        <ele>1067.6</ele>
        <time>2026-05-15T08:56:19Z</time>
      </trkpt>
      <trkpt lat="43.84037" lon="6.70928">
        <ele>1067.8</ele>
        <time>2026-05-15T08:56:20Z</time>
      </trkpt>
      <trkpt lat="43.84029" lon="6.70914">
        <ele>1067.4</ele>
        <time>2026-05-15T08:56:21Z</time>
      </trkpt>
      <trkpt lat="43.84022" lon="6.70899">
        <ele>1067.2</ele>
        <time>2026-05-15T08:56:22Z</time>
      </trkpt>
      <trkpt lat="43.84016" lon="6.70882">
        <ele>1067.5</ele>
        <time>2026-05-15T08:56:23Z</time>
      </trkpt>
      <trkpt lat="43.8401" lon="6.70864">
        <ele>1067.9</ele>
        <time>2026-05-15T08:56:24Z</time>
      </trkpt>
      <trkpt lat="43.84004" lon="6.70847">
        <ele>1068.4</ele>
        <time>2026-05-15T08:56:25Z</time>
      </trkpt>
      <trkpt lat="43.83998" lon="6.70829">
        <ele>1069</ele>
        <time>2026-05-15T08:56:26Z</time>
      </trkpt>
      <trkpt lat="43.83992" lon="6.70811">
        <ele>1069.7</ele>
        <time>2026-05-15T08:56:27Z</time>
      </trkpt>
      <trkpt lat="43.83987" lon="6.70792">
        <ele>1070.4</ele>
        <time>2026-05-15T08:56:28Z</time>
      </trkpt>
      <trkpt lat="43.83983" lon="6.70773">
        <ele>1071.2</ele>
        <time>2026-05-15T08:56:29Z</time>
      </trkpt>
      <trkpt lat="43.83979" lon="6.70753">
        <ele>1072.4</ele>
        <time>2026-05-15T08:56:30Z</time>
      </trkpt>
      <trkpt lat="43.83975" lon="6.70734">
        <ele>1073.4</ele>
        <time>2026-05-15T08:56:31Z</time>
      </trkpt>
      <trkpt lat="43.83972" lon="6.70714">
        <ele>1074.8</ele>
        <time>2026-05-15T08:56:32Z</time>
      </trkpt>
      <trkpt lat="43.83969" lon="6.70693">
        <ele>1076.2</ele>
        <time>2026-05-15T08:56:33Z</time>
      </trkpt>
      <trkpt lat="43.83965" lon="6.70674">
        <ele>1076.6</ele>
        <time>2026-05-15T08:56:34Z</time>
      </trkpt>
      <trkpt lat="43.8396" lon="6.70655">
        <ele>1077.5</ele>
        <time>2026-05-15T08:56:35Z</time>
      </trkpt>
      <trkpt lat="43.83952" lon="6.70639">
        <ele>1078.3</ele>
        <time>2026-05-15T08:56:36Z</time>
      </trkpt>
      <trkpt lat="43.83943" lon="6.70624">
        <ele>1078.8</ele>
        <time>2026-05-15T08:56:37Z</time>
      </trkpt>
      <trkpt lat="43.83936" lon="6.70607">
        <ele>1079.3</ele>
        <time>2026-05-15T08:56:38Z</time>
      </trkpt>
      <trkpt lat="43.8393" lon="6.70587">
        <ele>1080</ele>
        <time>2026-05-15T08:56:39Z</time>
      </trkpt>
      <trkpt lat="43.83924" lon="6.70567">
        <ele>1080</ele>
        <time>2026-05-15T08:56:40Z</time>
      </trkpt>
      <trkpt lat="43.8392" lon="6.70546">
        <ele>1080.5</ele>
        <time>2026-05-15T08:56:41Z</time>
      </trkpt>
      <trkpt lat="43.83917" lon="6.70525">
        <ele>1081.3</ele>
        <time>2026-05-15T08:56:42Z</time>
      </trkpt>
      <trkpt lat="43.83914" lon="6.70505">
        <ele>1081.9</ele>
        <time>2026-05-15T08:56:43Z</time>
      </trkpt>
      <trkpt lat="43.83911" lon="6.70485">
        <ele>1083.1</ele>
        <time>2026-05-15T08:56:44Z</time>
      </trkpt>
      <trkpt lat="43.83905" lon="6.70468">
        <ele>1083.6</ele>
        <time>2026-05-15T08:56:45Z</time>
      </trkpt>
      <trkpt lat="43.83897" lon="6.70452">
        <ele>1083.7</ele>
        <time>2026-05-15T08:56:46Z</time>
      </trkpt>
      <trkpt lat="43.83889" lon="6.70438">
        <ele>1083.7</ele>
        <time>2026-05-15T08:56:47Z</time>
      </trkpt>
      <trkpt lat="43.83882" lon="6.70421">
        <ele>1083.3</ele>
        <time>2026-05-15T08:56:48Z</time>
      </trkpt>
      <trkpt lat="43.83878" lon="6.70403">
        <ele>1083.3</ele>
        <time>2026-05-15T08:56:49Z</time>
      </trkpt>
      <trkpt lat="43.83876" lon="6.70383">
        <ele>1084</ele>
        <time>2026-05-15T08:56:50Z</time>
      </trkpt>
      <trkpt lat="43.83875" lon="6.70362">
        <ele>1084.5</ele>
        <time>2026-05-15T08:56:51Z</time>
      </trkpt>
      <trkpt lat="43.83874" lon="6.70341">
        <ele>1084.2</ele>
        <time>2026-05-15T08:56:52Z</time>
      </trkpt>
      <trkpt lat="43.83874" lon="6.70321">
        <ele>1083.8</ele>
        <time>2026-05-15T08:56:53Z</time>
      </trkpt>
      <trkpt lat="43.83875" lon="6.703">
        <ele>1083.3</ele>
        <time>2026-05-15T08:56:54Z</time>
      </trkpt>
      <trkpt lat="43.83876" lon="6.7028">
        <ele>1082.8</ele>
        <time>2026-05-15T08:56:55Z</time>
      </trkpt>
      <trkpt lat="43.83875" lon="6.7026">
        <ele>1082.8</ele>
        <time>2026-05-15T08:56:56Z</time>
      </trkpt>
      <trkpt lat="43.83871" lon="6.70239">
        <ele>1082.7</ele>
        <time>2026-05-15T08:56:57Z</time>
      </trkpt>
      <trkpt lat="43.83865" lon="6.70219">
        <ele>1082.1</ele>
        <time>2026-05-15T08:56:58Z</time>
      </trkpt>
      <trkpt lat="43.8386" lon="6.70199">
        <ele>1081.6</ele>
        <time>2026-05-15T08:56:59Z</time>
      </trkpt>
      <trkpt lat="43.83855" lon="6.70178">
        <ele>1081.2</ele>
        <time>2026-05-15T08:57:00Z</time>
      </trkpt>
      <trkpt lat="43.8385" lon="6.70158">
        <ele>1080.9</ele>
        <time>2026-05-15T08:57:01Z</time>
      </trkpt>
      <trkpt lat="43.83847" lon="6.70139">
        <ele>1080.9</ele>
        <time>2026-05-15T08:57:02Z</time>
      </trkpt>
      <trkpt lat="43.83845" lon="6.70119">
        <ele>1080.5</ele>
        <time>2026-05-15T08:57:03Z</time>
      </trkpt>
      <trkpt lat="43.83846" lon="6.70099">
        <ele>1080.1</ele>
        <time>2026-05-15T08:57:04Z</time>
      </trkpt>
      <trkpt lat="43.8385" lon="6.7008">
        <ele>1079.8</ele>
        <time>2026-05-15T08:57:05Z</time>
      </trkpt>
      <trkpt lat="43.83855" lon="6.70062">
        <ele>1080</ele>
        <time>2026-05-15T08:57:06Z</time>
      </trkpt>
      <trkpt lat="43.8386" lon="6.70044">
        <ele>1079.9</ele>
        <time>2026-05-15T08:57:07Z</time>
      </trkpt>
      <trkpt lat="43.83865" lon="6.70026">
        <ele>1079.6</ele>
        <time>2026-05-15T08:57:08Z</time>
      </trkpt>
      <trkpt lat="43.83867" lon="6.70007">
        <ele>1078.7</ele>
        <time>2026-05-15T08:57:09Z</time>
      </trkpt>
      <trkpt lat="43.83865" lon="6.69987">
        <ele>1077.8</ele>
        <time>2026-05-15T08:57:10Z</time>
      </trkpt>
      <trkpt lat="43.8386" lon="6.6997">
        <ele>1076.9</ele>
        <time>2026-05-15T08:57:11Z</time>
      </trkpt>
      <trkpt lat="43.83854" lon="6.69952">
        <ele>1076.7</ele>
        <time>2026-05-15T08:57:12Z</time>
      </trkpt>
      <trkpt lat="43.83847" lon="6.69934">
        <ele>1075.8</ele>
        <time>2026-05-15T08:57:13Z</time>
      </trkpt>
      <trkpt lat="43.83841" lon="6.69916">
        <ele>1074.9</ele>
        <time>2026-05-15T08:57:14Z</time>
      </trkpt>
      <trkpt lat="43.83837" lon="6.69898">
        <ele>1074</ele>
        <time>2026-05-15T08:57:15Z</time>
      </trkpt>
      <trkpt lat="43.83835" lon="6.69878">
        <ele>1073.5</ele>
        <time>2026-05-15T08:57:16Z</time>
      </trkpt>
      <trkpt lat="43.83837" lon="6.69859">
        <ele>1073.8</ele>
        <time>2026-05-15T08:57:17Z</time>
      </trkpt>
      <trkpt lat="43.83842" lon="6.6984">
        <ele>1074.4</ele>
        <time>2026-05-15T08:57:18Z</time>
      </trkpt>
      <trkpt lat="43.83847" lon="6.69821">
        <ele>1075.2</ele>
        <time>2026-05-15T08:57:19Z</time>
      </trkpt>
      <trkpt lat="43.83853" lon="6.69802">
        <ele>1076.1</ele>
        <time>2026-05-15T08:57:20Z</time>
      </trkpt>
      <trkpt lat="43.83857" lon="6.69781">
        <ele>1076.1</ele>
        <time>2026-05-15T08:57:21Z</time>
      </trkpt>
      <trkpt lat="43.83859" lon="6.6976">
        <ele>1075.8</ele>
        <time>2026-05-15T08:57:22Z</time>
      </trkpt>
      <trkpt lat="43.83859" lon="6.69738">
        <ele>1075</ele>
        <time>2026-05-15T08:57:23Z</time>
      </trkpt>
      <trkpt lat="43.83857" lon="6.69717">
        <ele>1073.8</ele>
        <time>2026-05-15T08:57:24Z</time>
      </trkpt>
      <trkpt lat="43.83854" lon="6.69696">
        <ele>1072.3</ele>
        <time>2026-05-15T08:57:25Z</time>
      </trkpt>
      <trkpt lat="43.83849" lon="6.69675">
        <ele>1071.6</ele>
        <time>2026-05-15T08:57:26Z</time>
      </trkpt>
      <trkpt lat="43.83845" lon="6.69654">
        <ele>1071.2</ele>
        <time>2026-05-15T08:57:27Z</time>
      </trkpt>
      <trkpt lat="43.83844" lon="6.69632">
        <ele>1071.3</ele>
        <time>2026-05-15T08:57:28Z</time>
      </trkpt>
      <trkpt lat="43.83843" lon="6.6961">
        <ele>1071</ele>
        <time>2026-05-15T08:57:29Z</time>
      </trkpt>
      <trkpt lat="43.8384" lon="6.69589">
        <ele>1069.6</ele>
        <time>2026-05-15T08:57:30Z</time>
      </trkpt>
      <trkpt lat="43.83837" lon="6.69568">
        <ele>1068.2</ele>
        <time>2026-05-15T08:57:31Z</time>
      </trkpt>
      <trkpt lat="43.83835" lon="6.69546">
        <ele>1067</ele>
        <time>2026-05-15T08:57:32Z</time>
      </trkpt>
      <trkpt lat="43.83836" lon="6.69524">
        <ele>1066.6</ele>
        <time>2026-05-15T08:57:33Z</time>
      </trkpt>
      <trkpt lat="43.8384" lon="6.69502">
        <ele>1067.2</ele>
        <time>2026-05-15T08:57:34Z</time>
      </trkpt>
      <trkpt lat="43.83845" lon="6.69479">
        <ele>1067.3</ele>
        <time>2026-05-15T08:57:35Z</time>
      </trkpt>
      <trkpt lat="43.8385" lon="6.69456">
        <ele>1067.4</ele>
        <time>2026-05-15T08:57:36Z</time>
      </trkpt>
      <trkpt lat="43.83855" lon="6.69434">
        <ele>1067.5</ele>
        <time>2026-05-15T08:57:37Z</time>
      </trkpt>
      <trkpt lat="43.83863" lon="6.69413">
        <ele>1068.4</ele>
        <time>2026-05-15T08:57:38Z</time>
      </trkpt>
      <trkpt lat="43.8387" lon="6.69393">
        <ele>1069.6</ele>
        <time>2026-05-15T08:57:39Z</time>
      </trkpt>
      <trkpt lat="43.83875" lon="6.69372">
        <ele>1069.9</ele>
        <time>2026-05-15T08:57:40Z</time>
      </trkpt>
      <trkpt lat="43.83878" lon="6.69349">
        <ele>1070</ele>
        <time>2026-05-15T08:57:41Z</time>
      </trkpt>
      <trkpt lat="43.83878" lon="6.69326">
        <ele>1069.8</ele>
        <time>2026-05-15T08:57:42Z</time>
      </trkpt>
      <trkpt lat="43.83879" lon="6.69302">
        <ele>1069.2</ele>
        <time>2026-05-15T08:57:43Z</time>
      </trkpt>
      <trkpt lat="43.8388" lon="6.69277">
        <ele>1069.4</ele>
        <time>2026-05-15T08:57:44Z</time>
      </trkpt>
      <trkpt lat="43.8388" lon="6.69253">
        <ele>1069.4</ele>
        <time>2026-05-15T08:57:45Z</time>
      </trkpt>
      <trkpt lat="43.8388" lon="6.6923">
        <ele>1068.7</ele>
        <time>2026-05-15T08:57:46Z</time>
      </trkpt>
      <trkpt lat="43.83881" lon="6.69208">
        <ele>1068.4</ele>
        <time>2026-05-15T08:57:47Z</time>
      </trkpt>
      <trkpt lat="43.83885" lon="6.69187">
        <ele>1068.3</ele>
        <time>2026-05-15T08:57:48Z</time>
      </trkpt>
      <trkpt lat="43.83892" lon="6.69166">
        <ele>1068.2</ele>
        <time>2026-05-15T08:57:49Z</time>
      </trkpt>
      <trkpt lat="43.839" lon="6.69145">
        <ele>1068</ele>
        <time>2026-05-15T08:57:50Z</time>
      </trkpt>
      <trkpt lat="43.83906" lon="6.69124">
        <ele>1068</ele>
        <time>2026-05-15T08:57:51Z</time>
      </trkpt>
      <trkpt lat="43.83911" lon="6.69101">
        <ele>1068.1</ele>
        <time>2026-05-15T08:57:52Z</time>
      </trkpt>
      <trkpt lat="43.83914" lon="6.69077">
        <ele>1068</ele>
        <time>2026-05-15T08:57:53Z</time>
      </trkpt>
      <trkpt lat="43.83917" lon="6.69053">
        <ele>1069</ele>
        <time>2026-05-15T08:57:54Z</time>
      </trkpt>
      <trkpt lat="43.83921" lon="6.69029">
        <ele>1069.3</ele>
        <time>2026-05-15T08:57:55Z</time>
      </trkpt>
      <trkpt lat="43.83927" lon="6.69006">
        <ele>1069.7</ele>
        <time>2026-05-15T08:57:56Z</time>
      </trkpt>
      <trkpt lat="43.83934" lon="6.68983">
        <ele>1070</ele>
        <time>2026-05-15T08:57:57Z</time>
      </trkpt>
      <trkpt lat="43.83943" lon="6.68961">
        <ele>1070.5</ele>
        <time>2026-05-15T08:57:58Z</time>
      </trkpt>
      <trkpt lat="43.83953" lon="6.68938">
        <ele>1070.8</ele>
        <time>2026-05-15T08:57:59Z</time>
      </trkpt>
      <trkpt lat="43.83961" lon="6.68915">
        <ele>1071.3</ele>
        <time>2026-05-15T08:58:00Z</time>
      </trkpt>
      <trkpt lat="43.83968" lon="6.6889">
        <ele>1071.6</ele>
        <time>2026-05-15T08:58:01Z</time>
      </trkpt>
      <trkpt lat="43.83974" lon="6.68864">
        <ele>1072.3</ele>
        <time>2026-05-15T08:58:02Z</time>
      </trkpt>
      <trkpt lat="43.8398" lon="6.68838">
        <ele>1072.5</ele>
        <time>2026-05-15T08:58:03Z</time>
      </trkpt>
      <trkpt lat="43.83986" lon="6.68813">
        <ele>1072.7</ele>
        <time>2026-05-15T08:58:04Z</time>
      </trkpt>
      <trkpt lat="43.83991" lon="6.68787">
        <ele>1072.9</ele>
        <time>2026-05-15T08:58:05Z</time>
      </trkpt>
      <trkpt lat="43.83998" lon="6.68761">
        <ele>1073.1</ele>
        <time>2026-05-15T08:58:06Z</time>
      </trkpt>
      <trkpt lat="43.84004" lon="6.68734">
        <ele>1072.9</ele>
        <time>2026-05-15T08:58:07Z</time>
      </trkpt>
      <trkpt lat="43.84008" lon="6.68708">
        <ele>1072.5</ele>
        <time>2026-05-15T08:58:08Z</time>
      </trkpt>
      <trkpt lat="43.84012" lon="6.6868">
        <ele>1072.7</ele>
        <time>2026-05-15T08:58:09Z</time>
      </trkpt>
      <trkpt lat="43.84016" lon="6.68653">
        <ele>1072.8</ele>
        <time>2026-05-15T08:58:10Z</time>
      </trkpt>
      <trkpt lat="43.84021" lon="6.68625">
        <ele>1072.6</ele>
        <time>2026-05-15T08:58:11Z</time>
      </trkpt>
      <trkpt lat="43.84027" lon="6.68598">
        <ele>1072.9</ele>
        <time>2026-05-15T08:58:12Z</time>
      </trkpt>
      <trkpt lat="43.84033" lon="6.6857">
        <ele>1073.2</ele>
        <time>2026-05-15T08:58:13Z</time>
      </trkpt>
      <trkpt lat="43.84038" lon="6.68542">
        <ele>1073.2</ele>
        <time>2026-05-15T08:58:14Z</time>
      </trkpt>
      <trkpt lat="43.84044" lon="6.68516">
        <ele>1073.7</ele>
        <time>2026-05-15T08:58:15Z</time>
      </trkpt>
      <trkpt lat="43.84053" lon="6.6849">
        <ele>1073.9</ele>
        <time>2026-05-15T08:58:16Z</time>
      </trkpt>
      <trkpt lat="43.84063" lon="6.68465">
        <ele>1074</ele>
        <time>2026-05-15T08:58:17Z</time>
      </trkpt>
      <trkpt lat="43.84073" lon="6.68441">
        <ele>1074.8</ele>
        <time>2026-05-15T08:58:18Z</time>
      </trkpt>
      <trkpt lat="43.84085" lon="6.68417">
        <ele>1075.2</ele>
        <time>2026-05-15T08:58:19Z</time>
      </trkpt>
      <trkpt lat="43.84096" lon="6.68393">
        <ele>1075.5</ele>
        <time>2026-05-15T08:58:20Z</time>
      </trkpt>
      <trkpt lat="43.84109" lon="6.6837">
        <ele>1076.1</ele>
        <time>2026-05-15T08:58:21Z</time>
      </trkpt>
      <trkpt lat="43.84121" lon="6.68347">
        <ele>1076.6</ele>
        <time>2026-05-15T08:58:22Z</time>
      </trkpt>
      <trkpt lat="43.84134" lon="6.68324">
        <ele>1076.8</ele>
        <time>2026-05-15T08:58:23Z</time>
      </trkpt>
      <trkpt lat="43.84147" lon="6.683">
        <ele>1076.8</ele>
        <time>2026-05-15T08:58:24Z</time>
      </trkpt>
      <trkpt lat="43.8416" lon="6.68277">
        <ele>1077</ele>
        <time>2026-05-15T08:58:25Z</time>
      </trkpt>
      <trkpt lat="43.84173" lon="6.68253">
        <ele>1076.9</ele>
        <time>2026-05-15T08:58:26Z</time>
      </trkpt>
      <trkpt lat="43.84188" lon="6.6823">
        <ele>1076.9</ele>
        <time>2026-05-15T08:58:27Z</time>
      </trkpt>
      <trkpt lat="43.84203" lon="6.68207">
        <ele>1077.4</ele>
        <time>2026-05-15T08:58:28Z</time>
      </trkpt>
      <trkpt lat="43.8422" lon="6.68186">
        <ele>1078.2</ele>
        <time>2026-05-15T08:58:29Z</time>
      </trkpt>
      <trkpt lat="43.84237" lon="6.68166">
        <ele>1078.6</ele>
        <time>2026-05-15T08:58:30Z</time>
      </trkpt>
      <trkpt lat="43.84255" lon="6.68146">
        <ele>1079.8</ele>
        <time>2026-05-15T08:58:31Z</time>
      </trkpt>
      <trkpt lat="43.84272" lon="6.68127">
        <ele>1080.9</ele>
        <time>2026-05-15T08:58:32Z</time>
      </trkpt>
      <trkpt lat="43.84289" lon="6.68107">
        <ele>1082.3</ele>
        <time>2026-05-15T08:58:33Z</time>
      </trkpt>
      <trkpt lat="43.84305" lon="6.68088">
        <ele>1083.3</ele>
        <time>2026-05-15T08:58:34Z</time>
      </trkpt>
      <trkpt lat="43.8432" lon="6.68068">
        <ele>1084</ele>
        <time>2026-05-15T08:58:35Z</time>
      </trkpt>
      <trkpt lat="43.84333" lon="6.68049">
        <ele>1084.7</ele>
        <time>2026-05-15T08:58:36Z</time>
      </trkpt>
      <trkpt lat="43.84345" lon="6.68029">
        <ele>1086.1</ele>
        <time>2026-05-15T08:58:37Z</time>
      </trkpt>
      <trkpt lat="43.84356" lon="6.6801">
        <ele>1086.4</ele>
        <time>2026-05-15T08:58:38Z</time>
      </trkpt>
      <trkpt lat="43.84368" lon="6.67995">
        <ele>1086.8</ele>
        <time>2026-05-15T08:58:39Z</time>
      </trkpt>
      <trkpt lat="43.84379" lon="6.6798">
        <ele>1087.9</ele>
        <time>2026-05-15T08:58:40Z</time>
      </trkpt>
      <trkpt lat="43.84389" lon="6.67965">
        <ele>1088.8</ele>
        <time>2026-05-15T08:58:41Z</time>
      </trkpt>
      <trkpt lat="43.84397" lon="6.67948">
        <ele>1089.3</ele>
        <time>2026-05-15T08:58:42Z</time>
      </trkpt>
      <trkpt lat="43.84403" lon="6.67929">
        <ele>1089.5</ele>
        <time>2026-05-15T08:58:43Z</time>
      </trkpt>
      <trkpt lat="43.84409" lon="6.6791">
        <ele>1089.7</ele>
        <time>2026-05-15T08:58:44Z</time>
      </trkpt>
      <trkpt lat="43.84414" lon="6.6789">
        <ele>1089.7</ele>
        <time>2026-05-15T08:58:45Z</time>
      </trkpt>
      <trkpt lat="43.84421" lon="6.6787">
        <ele>1089.9</ele>
        <time>2026-05-15T08:58:46Z</time>
      </trkpt>
      <trkpt lat="43.84425" lon="6.67848">
        <ele>1089.9</ele>
        <time>2026-05-15T08:58:47Z</time>
      </trkpt>
      <trkpt lat="43.84429" lon="6.67826">
        <ele>1090.1</ele>
        <time>2026-05-15T08:58:48Z</time>
      </trkpt>
      <trkpt lat="43.84432" lon="6.67802">
        <ele>1090.3</ele>
        <time>2026-05-15T08:58:49Z</time>
      </trkpt>
      <trkpt lat="43.84435" lon="6.67779">
        <ele>1090.6</ele>
        <time>2026-05-15T08:58:50Z</time>
      </trkpt>
      <trkpt lat="43.84439" lon="6.67754">
        <ele>1091.6</ele>
        <time>2026-05-15T08:58:51Z</time>
      </trkpt>
      <trkpt lat="43.84441" lon="6.67729">
        <ele>1091.4</ele>
        <time>2026-05-15T08:58:52Z</time>
      </trkpt>
      <trkpt lat="43.84443" lon="6.67704">
        <ele>1091</ele>
        <time>2026-05-15T08:58:53Z</time>
      </trkpt>
      <trkpt lat="43.84445" lon="6.67678">
        <ele>1091.2</ele>
        <time>2026-05-15T08:58:54Z</time>
      </trkpt>
      <trkpt lat="43.84446" lon="6.67652">
        <ele>1091.1</ele>
        <time>2026-05-15T08:58:55Z</time>
      </trkpt>
      <trkpt lat="43.84447" lon="6.67627">
        <ele>1091</ele>
        <time>2026-05-15T08:58:56Z</time>
      </trkpt>
      <trkpt lat="43.84451" lon="6.67603">
        <ele>1092</ele>
        <time>2026-05-15T08:58:57Z</time>
      </trkpt>
      <trkpt lat="43.84458" lon="6.67579">
        <ele>1092.9</ele>
        <time>2026-05-15T08:58:58Z</time>
      </trkpt>
      <trkpt lat="43.84466" lon="6.67555">
        <ele>1092.9</ele>
        <time>2026-05-15T08:58:59Z</time>
      </trkpt>
      <trkpt lat="43.84473" lon="6.67532">
        <ele>1092.7</ele>
        <time>2026-05-15T08:59:00Z</time>
      </trkpt>
      <trkpt lat="43.84481" lon="6.67508">
        <ele>1094.2</ele>
        <time>2026-05-15T08:59:01Z</time>
      </trkpt>
      <trkpt lat="43.84488" lon="6.67485">
        <ele>1094.2</ele>
        <time>2026-05-15T08:59:02Z</time>
      </trkpt>
      <trkpt lat="43.84495" lon="6.67463">
        <ele>1093.5</ele>
        <time>2026-05-15T08:59:03Z</time>
      </trkpt>
      <trkpt lat="43.84504" lon="6.67441">
        <ele>1093.8</ele>
        <time>2026-05-15T08:59:04Z</time>
      </trkpt>
      <trkpt lat="43.84514" lon="6.6742">
        <ele>1093.9</ele>
        <time>2026-05-15T08:59:05Z</time>
      </trkpt>
      <trkpt lat="43.84525" lon="6.674">
        <ele>1094</ele>
        <time>2026-05-15T08:59:06Z</time>
      </trkpt>
      <trkpt lat="43.84537" lon="6.67381">
        <ele>1094.4</ele>
        <time>2026-05-15T08:59:07Z</time>
      </trkpt>
      <trkpt lat="43.84548" lon="6.67362">
        <ele>1094.5</ele>
        <time>2026-05-15T08:59:08Z</time>
      </trkpt>
      <trkpt lat="43.84559" lon="6.67342">
        <ele>1094.8</ele>
        <time>2026-05-15T08:59:09Z</time>
      </trkpt>
      <trkpt lat="43.8457" lon="6.67322">
        <ele>1095.6</ele>
        <time>2026-05-15T08:59:10Z</time>
      </trkpt>
      <trkpt lat="43.8458" lon="6.67301">
        <ele>1096</ele>
        <time>2026-05-15T08:59:11Z</time>
      </trkpt>
      <trkpt lat="43.8459" lon="6.67279">
        <ele>1096.8</ele>
        <time>2026-05-15T08:59:12Z</time>
      </trkpt>
      <trkpt lat="43.84598" lon="6.67257">
        <ele>1096.8</ele>
        <time>2026-05-15T08:59:13Z</time>
      </trkpt>
      <trkpt lat="43.84607" lon="6.67235">
        <ele>1097</ele>
        <time>2026-05-15T08:59:14Z</time>
      </trkpt>
      <trkpt lat="43.84616" lon="6.67213">
        <ele>1097.5</ele>
        <time>2026-05-15T08:59:15Z</time>
      </trkpt>
      <trkpt lat="43.84624" lon="6.6719">
        <ele>1097.4</ele>
        <time>2026-05-15T08:59:16Z</time>
      </trkpt>
      <trkpt lat="43.84633" lon="6.67167">
        <ele>1097</ele>
        <time>2026-05-15T08:59:17Z</time>
      </trkpt>
      <trkpt lat="43.84642" lon="6.67144">
        <ele>1097.2</ele>
        <time>2026-05-15T08:59:18Z</time>
      </trkpt>
      <trkpt lat="43.84651" lon="6.67121">
        <ele>1097.1</ele>
        <time>2026-05-15T08:59:19Z</time>
      </trkpt>
      <trkpt lat="43.84661" lon="6.67097">
        <ele>1097.7</ele>
        <time>2026-05-15T08:59:20Z</time>
      </trkpt>
      <trkpt lat="43.8467" lon="6.67073">
        <ele>1098.7</ele>
        <time>2026-05-15T08:59:21Z</time>
      </trkpt>
      <trkpt lat="43.84679" lon="6.67048">
        <ele>1100</ele>
        <time>2026-05-15T08:59:22Z</time>
      </trkpt>
      <trkpt lat="43.84687" lon="6.67023">
        <ele>1100.6</ele>
        <time>2026-05-15T08:59:23Z</time>
      </trkpt>
      <trkpt lat="43.84696" lon="6.66998">
        <ele>1101.3</ele>
        <time>2026-05-15T08:59:24Z</time>
      </trkpt>
      <trkpt lat="43.84703" lon="6.66972">
        <ele>1101.5</ele>
        <time>2026-05-15T08:59:25Z</time>
      </trkpt>
      <trkpt lat="43.84711" lon="6.66947">
        <ele>1102.3</ele>
        <time>2026-05-15T08:59:26Z</time>
      </trkpt>
      <trkpt lat="43.8472" lon="6.66923">
        <ele>1102.2</ele>
        <time>2026-05-15T08:59:27Z</time>
      </trkpt>
      <trkpt lat="43.84731" lon="6.66899">
        <ele>1102.6</ele>
        <time>2026-05-15T08:59:28Z</time>
      </trkpt>
      <trkpt lat="43.84741" lon="6.66876">
        <ele>1103.2</ele>
        <time>2026-05-15T08:59:29Z</time>
      </trkpt>
      <trkpt lat="43.8475" lon="6.66852">
        <ele>1103.3</ele>
        <time>2026-05-15T08:59:30Z</time>
      </trkpt>
      <trkpt lat="43.84758" lon="6.66827">
        <ele>1103.6</ele>
        <time>2026-05-15T08:59:31Z</time>
      </trkpt>
      <trkpt lat="43.84766" lon="6.66802">
        <ele>1103.3</ele>
        <time>2026-05-15T08:59:32Z</time>
      </trkpt>
      <trkpt lat="43.84772" lon="6.66776">
        <ele>1102.4</ele>
        <time>2026-05-15T08:59:33Z</time>
      </trkpt>
      <trkpt lat="43.84779" lon="6.66751">
        <ele>1102.5</ele>
        <time>2026-05-15T08:59:34Z</time>
      </trkpt>
      <trkpt lat="43.84787" lon="6.66729">
        <ele>1104</ele>
        <time>2026-05-15T08:59:35Z</time>
      </trkpt>
      <trkpt lat="43.84794" lon="6.66707">
        <ele>1104.6</ele>
        <time>2026-05-15T08:59:36Z</time>
      </trkpt>
      <trkpt lat="43.84801" lon="6.66684">
        <ele>1105</ele>
        <time>2026-05-15T08:59:37Z</time>
      </trkpt>
      <trkpt lat="43.8481" lon="6.66663">
        <ele>1106.5</ele>
        <time>2026-05-15T08:59:38Z</time>
      </trkpt>
      <trkpt lat="43.84816" lon="6.6664">
        <ele>1107.8</ele>
        <time>2026-05-15T08:59:39Z</time>
      </trkpt>
      <trkpt lat="43.84819" lon="6.66616">
        <ele>1108</ele>
        <time>2026-05-15T08:59:40Z</time>
      </trkpt>
      <trkpt lat="43.84822" lon="6.66592">
        <ele>1108.7</ele>
        <time>2026-05-15T08:59:41Z</time>
      </trkpt>
      <trkpt lat="43.84824" lon="6.66568">
        <ele>1108.8</ele>
        <time>2026-05-15T08:59:42Z</time>
      </trkpt>
      <trkpt lat="43.84826" lon="6.66543">
        <ele>1108.4</ele>
        <time>2026-05-15T08:59:43Z</time>
      </trkpt>
      <trkpt lat="43.84828" lon="6.66519">
        <ele>1108.2</ele>
        <time>2026-05-15T08:59:44Z</time>
      </trkpt>
      <trkpt lat="43.8483" lon="6.66494">
        <ele>1108.2</ele>
        <time>2026-05-15T08:59:45Z</time>
      </trkpt>
      <trkpt lat="43.84832" lon="6.66469">
        <ele>1108.7</ele>
        <time>2026-05-15T08:59:46Z</time>
      </trkpt>
      <trkpt lat="43.84833" lon="6.66445">
        <ele>1108.9</ele>
        <time>2026-05-15T08:59:47Z</time>
      </trkpt>
      <trkpt lat="43.84834" lon="6.66421">
        <ele>1109.2</ele>
        <time>2026-05-15T08:59:48Z</time>
      </trkpt>
      <trkpt lat="43.84835" lon="6.66398">
        <ele>1109.5</ele>
        <time>2026-05-15T08:59:49Z</time>
      </trkpt>
      <trkpt lat="43.84837" lon="6.66376">
        <ele>1109.7</ele>
        <time>2026-05-15T08:59:50Z</time>
      </trkpt>
      <trkpt lat="43.84839" lon="6.66353">
        <ele>1109.8</ele>
        <time>2026-05-15T08:59:51Z</time>
      </trkpt>
      <trkpt lat="43.84842" lon="6.66331">
        <ele>1110.4</ele>
        <time>2026-05-15T08:59:52Z</time>
      </trkpt>
      <trkpt lat="43.84844" lon="6.6631">
        <ele>1110.6</ele>
        <time>2026-05-15T08:59:53Z</time>
      </trkpt>
      <trkpt lat="43.84846" lon="6.66288">
        <ele>1110.8</ele>
        <time>2026-05-15T08:59:54Z</time>
      </trkpt>
      <trkpt lat="43.84849" lon="6.66267">
        <ele>1110.9</ele>
        <time>2026-05-15T08:59:55Z</time>
      </trkpt>
      <trkpt lat="43.84853" lon="6.66245">
        <ele>1111</ele>
        <time>2026-05-15T08:59:56Z</time>
      </trkpt>
      <trkpt lat="43.84857" lon="6.66224">
        <ele>1112.1</ele>
        <time>2026-05-15T08:59:57Z</time>
      </trkpt>
      <trkpt lat="43.84863" lon="6.66203">
        <ele>1112.7</ele>
        <time>2026-05-15T08:59:58Z</time>
      </trkpt>
      <trkpt lat="43.84868" lon="6.66182">
        <ele>1113</ele>
        <time>2026-05-15T08:59:59Z</time>
      </trkpt>
      <trkpt lat="43.84874" lon="6.66161">
        <ele>1113.6</ele>
        <time>2026-05-15T09:00:00Z</time>
      </trkpt>
      <trkpt lat="43.84879" lon="6.6614">
        <ele>1113.9</ele>
        <time>2026-05-15T09:00:01Z</time>
      </trkpt>
      <trkpt lat="43.84885" lon="6.66118">
        <ele>1113.7</ele>
        <time>2026-05-15T09:00:02Z</time>
      </trkpt>
      <trkpt lat="43.84891" lon="6.66097">
        <ele>1113.5</ele>
        <time>2026-05-15T09:00:03Z</time>
      </trkpt>
      <trkpt lat="43.84899" lon="6.66076">
        <ele>1113.6</ele>
        <time>2026-05-15T09:00:04Z</time>
      </trkpt>
      <trkpt lat="43.84907" lon="6.66056">
        <ele>1113.3</ele>
        <time>2026-05-15T09:00:05Z</time>
      </trkpt>
      <trkpt lat="43.84915" lon="6.66034">
        <ele>1113.1</ele>
        <time>2026-05-15T09:00:06Z</time>
      </trkpt>
      <trkpt lat="43.84923" lon="6.66013">
        <ele>1113.4</ele>
        <time>2026-05-15T09:00:07Z</time>
      </trkpt>
      <trkpt lat="43.84932" lon="6.65991">
        <ele>1113.6</ele>
        <time>2026-05-15T09:00:08Z</time>
      </trkpt>
      <trkpt lat="43.84939" lon="6.65969">
        <ele>1113</ele>
        <time>2026-05-15T09:00:09Z</time>
      </trkpt>
      <trkpt lat="43.84947" lon="6.65948">
        <ele>1112.7</ele>
        <time>2026-05-15T09:00:10Z</time>
      </trkpt>
      <trkpt lat="43.84954" lon="6.65926">
        <ele>1113.1</ele>
        <time>2026-05-15T09:00:11Z</time>
      </trkpt>
      <trkpt lat="43.84961" lon="6.65904">
        <ele>1113.4</ele>
        <time>2026-05-15T09:00:12Z</time>
      </trkpt>
      <trkpt lat="43.84967" lon="6.65881">
        <ele>1113.4</ele>
        <time>2026-05-15T09:00:13Z</time>
      </trkpt>
      <trkpt lat="43.84974" lon="6.65859">
        <ele>1114.2</ele>
        <time>2026-05-15T09:00:14Z</time>
      </trkpt>
      <trkpt lat="43.8498" lon="6.65836">
        <ele>1114.5</ele>
        <time>2026-05-15T09:00:15Z</time>
      </trkpt>
      <trkpt lat="43.84987" lon="6.65814">
        <ele>1114.9</ele>
        <time>2026-05-15T09:00:16Z</time>
      </trkpt>
      <trkpt lat="43.84994" lon="6.65792">
        <ele>1114.5</ele>
        <time>2026-05-15T09:00:17Z</time>
      </trkpt>
      <trkpt lat="43.85003" lon="6.65772">
        <ele>1114.2</ele>
        <time>2026-05-15T09:00:18Z</time>
      </trkpt>
      <trkpt lat="43.85014" lon="6.65754">
        <ele>1114.3</ele>
        <time>2026-05-15T09:00:19Z</time>
      </trkpt>
      <trkpt lat="43.85025" lon="6.65736">
        <ele>1114.3</ele>
        <time>2026-05-15T09:00:20Z</time>
      </trkpt>
      <trkpt lat="43.85035" lon="6.65718">
        <ele>1114.7</ele>
        <time>2026-05-15T09:00:21Z</time>
      </trkpt>
      <trkpt lat="43.85045" lon="6.65699">
        <ele>1115.3</ele>
        <time>2026-05-15T09:00:22Z</time>
      </trkpt>
      <trkpt lat="43.85053" lon="6.65681">
        <ele>1115.3</ele>
        <time>2026-05-15T09:00:23Z</time>
      </trkpt>
      <trkpt lat="43.8506" lon="6.65663">
        <ele>1115.2</ele>
        <time>2026-05-15T09:00:24Z</time>
      </trkpt>
      <trkpt lat="43.85065" lon="6.65645">
        <ele>1114.6</ele>
        <time>2026-05-15T09:00:25Z</time>
      </trkpt>
      <trkpt lat="43.85069" lon="6.65626">
        <ele>1114.2</ele>
        <time>2026-05-15T09:00:26Z</time>
      </trkpt>
      <trkpt lat="43.85074" lon="6.65609">
        <ele>1114.3</ele>
        <time>2026-05-15T09:00:27Z</time>
      </trkpt>
      <trkpt lat="43.85082" lon="6.65592">
        <ele>1114.2</ele>
        <time>2026-05-15T09:00:28Z</time>
      </trkpt>
      <trkpt lat="43.85091" lon="6.65577">
        <ele>1114.5</ele>
        <time>2026-05-15T09:00:29Z</time>
      </trkpt>
      <trkpt lat="43.85101" lon="6.65561">
        <ele>1114.8</ele>
        <time>2026-05-15T09:00:30Z</time>
      </trkpt>
      <trkpt lat="43.8511" lon="6.65545">
        <ele>1115</ele>
        <time>2026-05-15T09:00:31Z</time>
      </trkpt>
      <trkpt lat="43.8512" lon="6.65529">
        <ele>1115.3</ele>
        <time>2026-05-15T09:00:32Z</time>
      </trkpt>
      <trkpt lat="43.85129" lon="6.65515">
        <ele>1115.6</ele>
        <time>2026-05-15T09:00:33Z</time>
      </trkpt>
      <trkpt lat="43.85138" lon="6.65501">
        <ele>1116</ele>
        <time>2026-05-15T09:00:34Z</time>
      </trkpt>
      <trkpt lat="43.85148" lon="6.65489">
        <ele>1116.3</ele>
        <time>2026-05-15T09:00:35Z</time>
      </trkpt>
      <trkpt lat="43.85159" lon="6.6548">
        <ele>1116.7</ele>
        <time>2026-05-15T09:00:36Z</time>
      </trkpt>
      <trkpt lat="43.85171" lon="6.65474">
        <ele>1117</ele>
        <time>2026-05-15T09:00:37Z</time>
      </trkpt>
      <trkpt lat="43.85183" lon="6.65467">
        <ele>1116.9</ele>
        <time>2026-05-15T09:00:38Z</time>
      </trkpt>
      <trkpt lat="43.85194" lon="6.65459">
        <ele>1117</ele>
        <time>2026-05-15T09:00:39Z</time>
      </trkpt>
      <trkpt lat="43.85205" lon="6.65448">
        <ele>1117.4</ele>
        <time>2026-05-15T09:00:40Z</time>
      </trkpt>
      <trkpt lat="43.85214" lon="6.65434">
        <ele>1117.8</ele>
        <time>2026-05-15T09:00:41Z</time>
      </trkpt>
      <trkpt lat="43.85224" lon="6.6542">
        <ele>1118.1</ele>
        <time>2026-05-15T09:00:42Z</time>
      </trkpt>
      <trkpt lat="43.85234" lon="6.65404">
        <ele>1118.2</ele>
        <time>2026-05-15T09:00:43Z</time>
      </trkpt>
      <trkpt lat="43.85245" lon="6.65388">
        <ele>1117.9</ele>
        <time>2026-05-15T09:00:44Z</time>
      </trkpt>
      <trkpt lat="43.85255" lon="6.65373">
        <ele>1117.2</ele>
        <time>2026-05-15T09:00:45Z</time>
      </trkpt>
      <trkpt lat="43.85266" lon="6.65359">
        <ele>1117</ele>
        <time>2026-05-15T09:00:46Z</time>
      </trkpt>
      <trkpt lat="43.85278" lon="6.65343">
        <ele>1116.7</ele>
        <time>2026-05-15T09:00:47Z</time>
      </trkpt>
      <trkpt lat="43.85289" lon="6.65328">
        <ele>1118</ele>
        <time>2026-05-15T09:00:48Z</time>
      </trkpt>
      <trkpt lat="43.85301" lon="6.65314">
        <ele>1118.6</ele>
        <time>2026-05-15T09:00:49Z</time>
      </trkpt>
      <trkpt lat="43.85313" lon="6.653">
        <ele>1119.5</ele>
        <time>2026-05-15T09:00:50Z</time>
      </trkpt>
      <trkpt lat="43.85325" lon="6.65286">
        <ele>1120.2</ele>
        <time>2026-05-15T09:00:51Z</time>
      </trkpt>
      <trkpt lat="43.85337" lon="6.65273">
        <ele>1120.2</ele>
        <time>2026-05-15T09:00:52Z</time>
      </trkpt>
      <trkpt lat="43.85347" lon="6.6526">
        <ele>1120.1</ele>
        <time>2026-05-15T09:00:53Z</time>
      </trkpt>
      <trkpt lat="43.85358" lon="6.65247">
        <ele>1119.4</ele>
        <time>2026-05-15T09:00:54Z</time>
      </trkpt>
      <trkpt lat="43.85368" lon="6.65234">
        <ele>1119.5</ele>
        <time>2026-05-15T09:00:55Z</time>
      </trkpt>
      <trkpt lat="43.85378" lon="6.6522">
        <ele>1119.3</ele>
        <time>2026-05-15T09:00:56Z</time>
      </trkpt>
      <trkpt lat="43.85389" lon="6.65206">
        <ele>1119.3</ele>
        <time>2026-05-15T09:00:57Z</time>
      </trkpt>
      <trkpt lat="43.85398" lon="6.65193">
        <ele>1119.2</ele>
        <time>2026-05-15T09:00:58Z</time>
      </trkpt>
      <trkpt lat="43.85408" lon="6.65182">
        <ele>1120</ele>
        <time>2026-05-15T09:00:59Z</time>
      </trkpt>
      <trkpt lat="43.85416" lon="6.6517">
        <ele>1120.2</ele>
        <time>2026-05-15T09:01:00Z</time>
      </trkpt>
      <trkpt lat="43.85422" lon="6.65158">
        <ele>1119.6</ele>
        <time>2026-05-15T09:01:01Z</time>
      </trkpt>
      <trkpt lat="43.85425" lon="6.65145">
        <ele>1119</ele>
        <time>2026-05-15T09:01:02Z</time>
      </trkpt>
      <trkpt lat="43.85426" lon="6.65133">
        <ele>1118.6</ele>
        <time>2026-05-15T09:01:03Z</time>
      </trkpt>
      <trkpt lat="43.85428" lon="6.65124">
        <ele>1118.6</ele>
        <time>2026-05-15T09:01:04Z</time>
      </trkpt>
      <trkpt lat="43.85429" lon="6.65115">
        <ele>1118.5</ele>
        <time>2026-05-15T09:01:05Z</time>
      </trkpt>
      <trkpt lat="43.85432" lon="6.65106">
        <ele>1118.6</ele>
        <time>2026-05-15T09:01:06Z</time>
      </trkpt>
      <trkpt lat="43.85436" lon="6.65098">
        <ele>1118.7</ele>
        <time>2026-05-15T09:01:07Z</time>
      </trkpt>
      <trkpt lat="43.85442" lon="6.65091">
        <ele>1118.9</ele>
        <time>2026-05-15T09:01:08Z</time>
      </trkpt>
      <trkpt lat="43.8545" lon="6.65086">
        <ele>1119.4</ele>
        <time>2026-05-15T09:01:09Z</time>
      </trkpt>
      <trkpt lat="43.85458" lon="6.65081">
        <ele>1120</ele>
        <time>2026-05-15T09:01:10Z</time>
      </trkpt>
      <trkpt lat="43.85467" lon="6.65076">
        <ele>1120.6</ele>
        <time>2026-05-15T09:01:11Z</time>
      </trkpt>
      <trkpt lat="43.85477" lon="6.65073">
        <ele>1121.2</ele>
        <time>2026-05-15T09:01:12Z</time>
      </trkpt>
      <trkpt lat="43.85487" lon="6.6507">
        <ele>1121.5</ele>
        <time>2026-05-15T09:01:13Z</time>
      </trkpt>
      <trkpt lat="43.85496" lon="6.65067">
        <ele>1121.9</ele>
        <time>2026-05-15T09:01:14Z</time>
      </trkpt>
      <trkpt lat="43.85505" lon="6.65065">
        <ele>1122.2</ele>
        <time>2026-05-15T09:01:15Z</time>
      </trkpt>
      <trkpt lat="43.85513" lon="6.65061">
        <ele>1122.5</ele>
        <time>2026-05-15T09:01:16Z</time>
      </trkpt>
      <trkpt lat="43.8552" lon="6.65058">
        <ele>1122.7</ele>
        <time>2026-05-15T09:01:17Z</time>
      </trkpt>
      <trkpt lat="43.85527" lon="6.65054">
        <ele>1123</ele>
        <time>2026-05-15T09:01:18Z</time>
      </trkpt>
      <trkpt lat="43.85532" lon="6.6505">
        <ele>1123.2</ele>
        <time>2026-05-15T09:01:19Z</time>
      </trkpt>
      <trkpt lat="43.85538" lon="6.65047">
        <ele>1123.4</ele>
        <time>2026-05-15T09:01:20Z</time>
      </trkpt>
      <trkpt lat="43.85542" lon="6.65044">
        <ele>1123.5</ele>
        <time>2026-05-15T09:01:21Z</time>
      </trkpt>
      <trkpt lat="43.85547" lon="6.6504">
        <ele>1123.7</ele>
        <time>2026-05-15T09:01:22Z</time>
      </trkpt>
      <trkpt lat="43.85552" lon="6.65036">
        <ele>1123.9</ele>
        <time>2026-05-15T09:01:23Z</time>
      </trkpt>
      <trkpt lat="43.85556" lon="6.65033">
        <ele>1124</ele>
        <time>2026-05-15T09:01:24Z</time>
      </trkpt>
      <trkpt lat="43.8556" lon="6.6503">
        <ele>1124</ele>
        <time>2026-05-15T09:01:25Z</time>
      </trkpt>
      <trkpt lat="43.85564" lon="6.65026">
        <ele>1124</ele>
        <time>2026-05-15T09:01:26Z</time>
      </trkpt>
      <trkpt lat="43.85568" lon="6.65022">
        <ele>1124</ele>
        <time>2026-05-15T09:01:27Z</time>
      </trkpt>
      <trkpt lat="43.85574" lon="6.65018">
        <ele>1124</ele>
        <time>2026-05-15T09:01:28Z</time>
      </trkpt>
      <trkpt lat="43.85579" lon="6.65015">
        <ele>1124</ele>
        <time>2026-05-15T09:01:29Z</time>
      </trkpt>
      <trkpt lat="43.85584" lon="6.65012">
        <ele>1124</ele>
        <time>2026-05-15T09:01:30Z</time>
      </trkpt>
      <trkpt lat="43.8559" lon="6.65009">
        <ele>1124.4</ele>
        <time>2026-05-15T09:01:31Z</time>
      </trkpt>
      <trkpt lat="43.85596" lon="6.65005">
        <ele>1124.8</ele>
        <time>2026-05-15T09:01:32Z</time>
      </trkpt>
      <trkpt lat="43.85602" lon="6.65001">
        <ele>1125.3</ele>
        <time>2026-05-15T09:01:33Z</time>
      </trkpt>
      <trkpt lat="43.85608" lon="6.64997">
        <ele>1125.9</ele>
        <time>2026-05-15T09:01:34Z</time>
      </trkpt>
      <trkpt lat="43.85614" lon="6.64994">
        <ele>1126.4</ele>
        <time>2026-05-15T09:01:35Z</time>
      </trkpt>
      <trkpt lat="43.85619" lon="6.6499">
        <ele>1127</ele>
        <time>2026-05-15T09:01:36Z</time>
      </trkpt>
      <trkpt lat="43.85624" lon="6.64987">
        <ele>1127.6</ele>
        <time>2026-05-15T09:01:37Z</time>
      </trkpt>
      <trkpt lat="43.85629" lon="6.64985">
        <ele>1128.2</ele>
        <time>2026-05-15T09:01:38Z</time>
      </trkpt>
      <trkpt lat="43.85632" lon="6.64983">
        <ele>1128.6</ele>
        <time>2026-05-15T09:01:39Z</time>
      </trkpt>
      <trkpt lat="43.85636" lon="6.64981">
        <ele>1129.1</ele>
        <time>2026-05-15T09:01:40Z</time>
      </trkpt>
      <trkpt lat="43.85639" lon="6.6498">
        <ele>1129.4</ele>
        <time>2026-05-15T09:01:41Z</time>
      </trkpt>
      <trkpt lat="43.85643" lon="6.64978">
        <ele>1129.9</ele>
        <time>2026-05-15T09:01:42Z</time>
      </trkpt>
      <trkpt lat="43.85646" lon="6.64977">
        <ele>1130.2</ele>
        <time>2026-05-15T09:01:43Z</time>
      </trkpt>
      <trkpt lat="43.8565" lon="6.64977">
        <ele>1130.5</ele>
        <time>2026-05-15T09:01:44Z</time>
      </trkpt>
      <trkpt lat="43.85655" lon="6.64978">
        <ele>1130.7</ele>
        <time>2026-05-15T09:01:45Z</time>
      </trkpt>
      <trkpt lat="43.8566" lon="6.64979">
        <ele>1131</ele>
        <time>2026-05-15T09:01:46Z</time>
      </trkpt>
      <trkpt lat="43.85665" lon="6.6498">
        <ele>1131.3</ele>
        <time>2026-05-15T09:01:47Z</time>
      </trkpt>
      <trkpt lat="43.8567" lon="6.64986">
        <ele>1131.2</ele>
        <time>2026-05-15T09:01:48Z</time>
      </trkpt>
      <trkpt lat="43.85674" lon="6.6499">
        <ele>1131.1</ele>
        <time>2026-05-15T09:01:49Z</time>
      </trkpt>
      <trkpt lat="43.8568" lon="6.64993">
        <ele>1131.1</ele>
        <time>2026-05-15T09:01:50Z</time>
      </trkpt>
      <trkpt lat="43.85685" lon="6.64996">
        <ele>1131</ele>
        <time>2026-05-15T09:01:51Z</time>
      </trkpt>
      <trkpt lat="43.8569" lon="6.64998">
        <ele>1131</ele>
        <time>2026-05-15T09:01:52Z</time>
      </trkpt>
      <trkpt lat="43.85696" lon="6.65">
        <ele>1131.1</ele>
        <time>2026-05-15T09:01:53Z</time>
      </trkpt>
      <trkpt lat="43.857" lon="6.65002">
        <ele>1131.1</ele>
        <time>2026-05-15T09:01:54Z</time>
      </trkpt>
      <trkpt lat="43.85705" lon="6.65004">
        <ele>1131.1</ele>
        <time>2026-05-15T09:01:55Z</time>
      </trkpt>
      <trkpt lat="43.8571" lon="6.65008">
        <ele>1131</ele>
        <time>2026-05-15T09:01:56Z</time>
      </trkpt>
      <trkpt lat="43.85714" lon="6.65009">
        <ele>1131.1</ele>
        <time>2026-05-15T09:01:57Z</time>
      </trkpt>
      <trkpt lat="43.85719" lon="6.65009">
        <ele>1131.2</ele>
        <time>2026-05-15T09:01:58Z</time>
      </trkpt>
      <trkpt lat="43.85723" lon="6.65009">
        <ele>1131.4</ele>
        <time>2026-05-15T09:01:59Z</time>
      </trkpt>
      <trkpt lat="43.85728" lon="6.65008">
        <ele>1131.6</ele>
        <time>2026-05-15T09:02:00Z</time>
      </trkpt>
      <trkpt lat="43.85733" lon="6.65007">
        <ele>1131.9</ele>
        <time>2026-05-15T09:02:01Z</time>
      </trkpt>
      <trkpt lat="43.85739" lon="6.65005">
        <ele>1132.2</ele>
        <time>2026-05-15T09:02:02Z</time>
      </trkpt>
      <trkpt lat="43.85744" lon="6.65002">
        <ele>1132.6</ele>
        <time>2026-05-15T09:02:03Z</time>
      </trkpt>
      <trkpt lat="43.8575" lon="6.64998">
        <ele>1133.1</ele>
        <time>2026-05-15T09:02:04Z</time>
      </trkpt>
      <trkpt lat="43.85755" lon="6.64994">
        <ele>1133.4</ele>
        <time>2026-05-15T09:02:05Z</time>
      </trkpt>
      <trkpt lat="43.85761" lon="6.64991">
        <ele>1133.6</ele>
        <time>2026-05-15T09:02:06Z</time>
      </trkpt>
      <trkpt lat="43.85767" lon="6.64989">
        <ele>1133.8</ele>
        <time>2026-05-15T09:02:07Z</time>
      </trkpt>
      <trkpt lat="43.85773" lon="6.64985">
        <ele>1134.1</ele>
        <time>2026-05-15T09:02:08Z</time>
      </trkpt>
      <trkpt lat="43.85779" lon="6.64981">
        <ele>1134.4</ele>
        <time>2026-05-15T09:02:09Z</time>
      </trkpt>
      <trkpt lat="43.85786" lon="6.64978">
        <ele>1134.6</ele>
        <time>2026-05-15T09:02:10Z</time>
      </trkpt>
      <trkpt lat="43.85793" lon="6.64975">
        <ele>1134.8</ele>
        <time>2026-05-15T09:02:11Z</time>
      </trkpt>
      <trkpt lat="43.858" lon="6.64971">
        <ele>1135.1</ele>
        <time>2026-05-15T09:02:12Z</time>
      </trkpt>
      <trkpt lat="43.8581" lon="6.64967">
        <ele>1135.6</ele>
        <time>2026-05-15T09:02:13Z</time>
      </trkpt>
      <trkpt lat="43.85818" lon="6.64962">
        <ele>1136.1</ele>
        <time>2026-05-15T09:02:14Z</time>
      </trkpt>
      <trkpt lat="43.85826" lon="6.64958">
        <ele>1136.5</ele>
        <time>2026-05-15T09:02:15Z</time>
      </trkpt>
      <trkpt lat="43.85833" lon="6.64955">
        <ele>1136.9</ele>
        <time>2026-05-15T09:02:16Z</time>
      </trkpt>
      <trkpt lat="43.8584" lon="6.64952">
        <ele>1137</ele>
        <time>2026-05-15T09:02:17Z</time>
      </trkpt>
      <trkpt lat="43.85847" lon="6.64949">
        <ele>1137.1</ele>
        <time>2026-05-15T09:02:18Z</time>
      </trkpt>
      <trkpt lat="43.85855" lon="6.64944">
        <ele>1137.3</ele>
        <time>2026-05-15T09:02:19Z</time>
      </trkpt>
      <trkpt lat="43.85862" lon="6.64938">
        <ele>1137.7</ele>
        <time>2026-05-15T09:02:20Z</time>
      </trkpt>
      <trkpt lat="43.85869" lon="6.64932">
        <ele>1137.9</ele>
        <time>2026-05-15T09:02:21Z</time>
      </trkpt>
      <trkpt lat="43.85876" lon="6.64924">
        <ele>1138.3</ele>
        <time>2026-05-15T09:02:22Z</time>
      </trkpt>
      <trkpt lat="43.85884" lon="6.64916">
        <ele>1138.4</ele>
        <time>2026-05-15T09:02:23Z</time>
      </trkpt>
      <trkpt lat="43.85892" lon="6.64907">
        <ele>1138.8</ele>
        <time>2026-05-15T09:02:24Z</time>
      </trkpt>
      <trkpt lat="43.85901" lon="6.64898">
        <ele>1139.1</ele>
        <time>2026-05-15T09:02:25Z</time>
      </trkpt>
      <trkpt lat="43.8591" lon="6.64889">
        <ele>1139.5</ele>
        <time>2026-05-15T09:02:26Z</time>
      </trkpt>
      <trkpt lat="43.85919" lon="6.6488">
        <ele>1139.8</ele>
        <time>2026-05-15T09:02:27Z</time>
      </trkpt>
      <trkpt lat="43.8593" lon="6.64872">
        <ele>1140.1</ele>
        <time>2026-05-15T09:02:28Z</time>
      </trkpt>
      <trkpt lat="43.85941" lon="6.64865">
        <ele>1140</ele>
        <time>2026-05-15T09:02:29Z</time>
      </trkpt>
      <trkpt lat="43.85954" lon="6.64857">
        <ele>1140</ele>
        <time>2026-05-15T09:02:30Z</time>
      </trkpt>
      <trkpt lat="43.85966" lon="6.64851">
        <ele>1140</ele>
        <time>2026-05-15T09:02:31Z</time>
      </trkpt>
      <trkpt lat="43.8598" lon="6.64845">
        <ele>1140.3</ele>
        <time>2026-05-15T09:02:32Z</time>
      </trkpt>
      <trkpt lat="43.85993" lon="6.6484">
        <ele>1140.7</ele>
        <time>2026-05-15T09:02:33Z</time>
      </trkpt>
      <trkpt lat="43.86005" lon="6.64834">
        <ele>1141</ele>
        <time>2026-05-15T09:02:34Z</time>
      </trkpt>
      <trkpt lat="43.86017" lon="6.64829">
        <ele>1141.2</ele>
        <time>2026-05-15T09:02:35Z</time>
      </trkpt>
      <trkpt lat="43.86029" lon="6.64822">
        <ele>1141.5</ele>
        <time>2026-05-15T09:02:36Z</time>
      </trkpt>
      <trkpt lat="43.86042" lon="6.64815">
        <ele>1142.2</ele>
        <time>2026-05-15T09:02:37Z</time>
      </trkpt>
      <trkpt lat="43.86054" lon="6.64807">
        <ele>1142.9</ele>
        <time>2026-05-15T09:02:38Z</time>
      </trkpt>
      <trkpt lat="43.86066" lon="6.64798">
        <ele>1144.2</ele>
        <time>2026-05-15T09:02:39Z</time>
      </trkpt>
      <trkpt lat="43.86078" lon="6.64789">
        <ele>1145.3</ele>
        <time>2026-05-15T09:02:40Z</time>
      </trkpt>
      <trkpt lat="43.8609" lon="6.64781">
        <ele>1146.3</ele>
        <time>2026-05-15T09:02:41Z</time>
      </trkpt>
      <trkpt lat="43.86103" lon="6.64773">
        <ele>1147.9</ele>
        <time>2026-05-15T09:02:42Z</time>
      </trkpt>
      <trkpt lat="43.86116" lon="6.64766">
        <ele>1149.6</ele>
        <time>2026-05-15T09:02:43Z</time>
      </trkpt>
      <trkpt lat="43.86128" lon="6.64758">
        <ele>1151.4</ele>
        <time>2026-05-15T09:02:44Z</time>
      </trkpt>
      <trkpt lat="43.86139" lon="6.6475">
        <ele>1153</ele>
        <time>2026-05-15T09:02:45Z</time>
      </trkpt>
      <trkpt lat="43.86148" lon="6.64741">
        <ele>1154.7</ele>
        <time>2026-05-15T09:02:46Z</time>
      </trkpt>
      <trkpt lat="43.86156" lon="6.64729">
        <ele>1156.8</ele>
        <time>2026-05-15T09:02:47Z</time>
      </trkpt>
      <trkpt lat="43.86162" lon="6.64716">
        <ele>1158.7</ele>
        <time>2026-05-15T09:02:48Z</time>
      </trkpt>
      <trkpt lat="43.86166" lon="6.64702">
        <ele>1160.3</ele>
        <time>2026-05-15T09:02:49Z</time>
      </trkpt>
      <trkpt lat="43.86169" lon="6.64687">
        <ele>1161.9</ele>
        <time>2026-05-15T09:02:50Z</time>
      </trkpt>
      <trkpt lat="43.86173" lon="6.64671">
        <ele>1163.7</ele>
        <time>2026-05-15T09:02:51Z</time>
      </trkpt>
      <trkpt lat="43.86177" lon="6.64655">
        <ele>1164.6</ele>
        <time>2026-05-15T09:02:52Z</time>
      </trkpt>
      <trkpt lat="43.86181" lon="6.64638">
        <ele>1165.1</ele>
        <time>2026-05-15T09:02:53Z</time>
      </trkpt>
      <trkpt lat="43.86184" lon="6.64619">
        <ele>1165.5</ele>
        <time>2026-05-15T09:02:54Z</time>
      </trkpt>
      <trkpt lat="43.86188" lon="6.646">
        <ele>1166.8</ele>
        <time>2026-05-15T09:02:55Z</time>
      </trkpt>
      <trkpt lat="43.86192" lon="6.6458">
        <ele>1168.4</ele>
        <time>2026-05-15T09:02:56Z</time>
      </trkpt>
      <trkpt lat="43.86196" lon="6.64559">
        <ele>1169.6</ele>
        <time>2026-05-15T09:02:57Z</time>
      </trkpt>
      <trkpt lat="43.86201" lon="6.64537">
        <ele>1172.1</ele>
        <time>2026-05-15T09:02:58Z</time>
      </trkpt>
      <trkpt lat="43.86205" lon="6.64516">
        <ele>1173.6</ele>
        <time>2026-05-15T09:02:59Z</time>
      </trkpt>
      <trkpt lat="43.86209" lon="6.64495">
        <ele>1174.7</ele>
        <time>2026-05-15T09:03:00Z</time>
      </trkpt>
      <trkpt lat="43.86213" lon="6.64474">
        <ele>1176.3</ele>
        <time>2026-05-15T09:03:01Z</time>
      </trkpt>
      <trkpt lat="43.86218" lon="6.64452">
        <ele>1178.2</ele>
        <time>2026-05-15T09:03:02Z</time>
      </trkpt>
      <trkpt lat="43.86222" lon="6.6443">
        <ele>1179.9</ele>
        <time>2026-05-15T09:03:03Z</time>
      </trkpt>
      <trkpt lat="43.86225" lon="6.64407">
        <ele>1181.5</ele>
        <time>2026-05-15T09:03:04Z</time>
      </trkpt>
      <trkpt lat="43.86227" lon="6.64385">
        <ele>1182.5</ele>
        <time>2026-05-15T09:03:05Z</time>
      </trkpt>
      <trkpt lat="43.86227" lon="6.64364">
        <ele>1183.1</ele>
        <time>2026-05-15T09:03:06Z</time>
      </trkpt>
      <trkpt lat="43.86227" lon="6.64345">
        <ele>1183.9</ele>
        <time>2026-05-15T09:03:07Z</time>
      </trkpt>
      <trkpt lat="43.86227" lon="6.64329">
        <ele>1184.6</ele>
        <time>2026-05-15T09:03:08Z</time>
      </trkpt>
      <trkpt lat="43.86226" lon="6.64315">
        <ele>1184.7</ele>
        <time>2026-05-15T09:03:09Z</time>
      </trkpt>
      <trkpt lat="43.86225" lon="6.64302">
        <ele>1184.5</ele>
        <time>2026-05-15T09:03:10Z</time>
      </trkpt>
      <trkpt lat="43.86223" lon="6.64293">
        <ele>1183.4</ele>
        <time>2026-05-15T09:03:11Z</time>
      </trkpt>
      <trkpt lat="43.86222" lon="6.64286">
        <ele>1182.9</ele>
        <time>2026-05-15T09:03:12Z</time>
      </trkpt>
      <trkpt lat="43.86221" lon="6.6428">
        <ele>1182.7</ele>
        <time>2026-05-15T09:03:13Z</time>
      </trkpt>
      <trkpt lat="43.86221" lon="6.64274">
        <ele>1182.4</ele>
        <time>2026-05-15T09:03:14Z</time>
      </trkpt>
      <trkpt lat="43.86222" lon="6.64269">
        <ele>1182.3</ele>
        <time>2026-05-15T09:03:15Z</time>
      </trkpt>
      <trkpt lat="43.86225" lon="6.64264">
        <ele>1183.3</ele>
        <time>2026-05-15T09:03:16Z</time>
      </trkpt>
      <trkpt lat="43.86229" lon="6.64262">
        <ele>1185</ele>
        <time>2026-05-15T09:03:17Z</time>
      </trkpt>
      <trkpt lat="43.86232" lon="6.64265">
        <ele>1186.7</ele>
        <time>2026-05-15T09:03:18Z</time>
      </trkpt>
      <trkpt lat="43.86235" lon="6.6427">
        <ele>1188.6</ele>
        <time>2026-05-15T09:03:19Z</time>
      </trkpt>
      <trkpt lat="43.86237" lon="6.6428">
        <ele>1190.5</ele>
        <time>2026-05-15T09:03:20Z</time>
      </trkpt>
      <trkpt lat="43.86239" lon="6.64292">
        <ele>1191.8</ele>
        <time>2026-05-15T09:03:21Z</time>
      </trkpt>
      <trkpt lat="43.8624" lon="6.64304">
        <ele>1192.6</ele>
        <time>2026-05-15T09:03:22Z</time>
      </trkpt>
      <trkpt lat="43.86242" lon="6.64318">
        <ele>1192.9</ele>
        <time>2026-05-15T09:03:23Z</time>
      </trkpt>
      <trkpt lat="43.86245" lon="6.64334">
        <ele>1193.4</ele>
        <time>2026-05-15T09:03:24Z</time>
      </trkpt>
      <trkpt lat="43.86248" lon="6.64349">
        <ele>1193.9</ele>
        <time>2026-05-15T09:03:25Z</time>
      </trkpt>
      <trkpt lat="43.8625" lon="6.64364">
        <ele>1194</ele>
        <time>2026-05-15T09:03:26Z</time>
      </trkpt>
      <trkpt lat="43.86252" lon="6.6438">
        <ele>1195.2</ele>
        <time>2026-05-15T09:03:27Z</time>
      </trkpt>
      <trkpt lat="43.86254" lon="6.64397">
        <ele>1196.7</ele>
        <time>2026-05-15T09:03:28Z</time>
      </trkpt>
      <trkpt lat="43.86254" lon="6.64415">
        <ele>1197.4</ele>
        <time>2026-05-15T09:03:29Z</time>
      </trkpt>
      <trkpt lat="43.86255" lon="6.64433">
        <ele>1198.4</ele>
        <time>2026-05-15T09:03:30Z</time>
      </trkpt>
      <trkpt lat="43.86257" lon="6.64451">
        <ele>1199.3</ele>
        <time>2026-05-15T09:03:31Z</time>
      </trkpt>
      <trkpt lat="43.86261" lon="6.64469">
        <ele>1200.2</ele>
        <time>2026-05-15T09:03:32Z</time>
      </trkpt>
      <trkpt lat="43.86265" lon="6.64486">
        <ele>1201.3</ele>
        <time>2026-05-15T09:03:33Z</time>
      </trkpt>
      <trkpt lat="43.86267" lon="6.64503">
        <ele>1201.7</ele>
        <time>2026-05-15T09:03:34Z</time>
      </trkpt>
      <trkpt lat="43.86268" lon="6.6452">
        <ele>1202.8</ele>
        <time>2026-05-15T09:03:35Z</time>
      </trkpt>
      <trkpt lat="43.86272" lon="6.64537">
        <ele>1204.5</ele>
        <time>2026-05-15T09:03:36Z</time>
      </trkpt>
      <trkpt lat="43.86277" lon="6.64552">
        <ele>1205.9</ele>
        <time>2026-05-15T09:03:37Z</time>
      </trkpt>
      <trkpt lat="43.86282" lon="6.64567">
        <ele>1206.7</ele>
        <time>2026-05-15T09:03:38Z</time>
      </trkpt>
      <trkpt lat="43.86288" lon="6.64582">
        <ele>1207.9</ele>
        <time>2026-05-15T09:03:39Z</time>
      </trkpt>
      <trkpt lat="43.86294" lon="6.64598">
        <ele>1209.8</ele>
        <time>2026-05-15T09:03:40Z</time>
      </trkpt>
      <trkpt lat="43.86299" lon="6.64613">
        <ele>1211</ele>
        <time>2026-05-15T09:03:41Z</time>
      </trkpt>
      <trkpt lat="43.86305" lon="6.64627">
        <ele>1212.6</ele>
        <time>2026-05-15T09:03:42Z</time>
      </trkpt>
      <trkpt lat="43.86311" lon="6.64639">
        <ele>1213.9</ele>
        <time>2026-05-15T09:03:43Z</time>
      </trkpt>
      <trkpt lat="43.86317" lon="6.64648">
        <ele>1214.8</ele>
        <time>2026-05-15T09:03:44Z</time>
      </trkpt>
      <trkpt lat="43.86324" lon="6.64657">
        <ele>1216</ele>
        <time>2026-05-15T09:03:45Z</time>
      </trkpt>
      <trkpt lat="43.8633" lon="6.64665">
        <ele>1217</ele>
        <time>2026-05-15T09:03:46Z</time>
      </trkpt>
      <trkpt lat="43.86336" lon="6.64673">
        <ele>1217.8</ele>
        <time>2026-05-15T09:03:47Z</time>
      </trkpt>
      <trkpt lat="43.8634" lon="6.64681">
        <ele>1217.8</ele>
        <time>2026-05-15T09:03:48Z</time>
      </trkpt>
      <trkpt lat="43.86344" lon="6.64688">
        <ele>1218</ele>
        <time>2026-05-15T09:03:49Z</time>
      </trkpt>
      <trkpt lat="43.86347" lon="6.64694">
        <ele>1218</ele>
        <time>2026-05-15T09:03:50Z</time>
      </trkpt>
      <trkpt lat="43.8635" lon="6.64701">
        <ele>1218</ele>
        <time>2026-05-15T09:03:51Z</time>
      </trkpt>
      <trkpt lat="43.86353" lon="6.64707">
        <ele>1218</ele>
        <time>2026-05-15T09:03:52Z</time>
      </trkpt>
      <trkpt lat="43.86355" lon="6.64713">
        <ele>1217.6</ele>
        <time>2026-05-15T09:03:53Z</time>
      </trkpt>
      <trkpt lat="43.86358" lon="6.64718">
        <ele>1217.8</ele>
        <time>2026-05-15T09:03:54Z</time>
      </trkpt>
      <trkpt lat="43.86362" lon="6.64723">
        <ele>1218.2</ele>
        <time>2026-05-15T09:03:55Z</time>
      </trkpt>
      <trkpt lat="43.86367" lon="6.64724">
        <ele>1220.3</ele>
        <time>2026-05-15T09:03:56Z</time>
      </trkpt>
      <trkpt lat="43.86371" lon="6.64722">
        <ele>1223</ele>
        <time>2026-05-15T09:03:57Z</time>
      </trkpt>
      <trkpt lat="43.86373" lon="6.64716">
        <ele>1225.7</ele>
        <time>2026-05-15T09:03:58Z</time>
      </trkpt>
      <trkpt lat="43.86372" lon="6.64709">
        <ele>1227.1</ele>
        <time>2026-05-15T09:03:59Z</time>
      </trkpt>
      <trkpt lat="43.86369" lon="6.64701">
        <ele>1227.4</ele>
        <time>2026-05-15T09:04:00Z</time>
      </trkpt>
      <trkpt lat="43.86363" lon="6.64692">
        <ele>1225.8</ele>
        <time>2026-05-15T09:04:01Z</time>
      </trkpt>
      <trkpt lat="43.86357" lon="6.6468">
        <ele>1225.3</ele>
        <time>2026-05-15T09:04:02Z</time>
      </trkpt>
      <trkpt lat="43.86351" lon="6.64666">
        <ele>1225.8</ele>
        <time>2026-05-15T09:04:03Z</time>
      </trkpt>
      <trkpt lat="43.86345" lon="6.6465">
        <ele>1225.9</ele>
        <time>2026-05-15T09:04:04Z</time>
      </trkpt>
      <trkpt lat="43.8634" lon="6.64636">
        <ele>1225.8</ele>
        <time>2026-05-15T09:04:05Z</time>
      </trkpt>
      <trkpt lat="43.86335" lon="6.64621">
        <ele>1225.4</ele>
        <time>2026-05-15T09:04:06Z</time>
      </trkpt>
      <trkpt lat="43.86333" lon="6.64605">
        <ele>1226.5</ele>
        <time>2026-05-15T09:04:07Z</time>
      </trkpt>
      <trkpt lat="43.86331" lon="6.64588">
        <ele>1227.4</ele>
        <time>2026-05-15T09:04:08Z</time>
      </trkpt>
      <trkpt lat="43.86329" lon="6.6457">
        <ele>1228</ele>
        <time>2026-05-15T09:04:09Z</time>
      </trkpt>
      <trkpt lat="43.86328" lon="6.64552">
        <ele>1229.1</ele>
        <time>2026-05-15T09:04:10Z</time>
      </trkpt>
      <trkpt lat="43.86328" lon="6.64532">
        <ele>1231.1</ele>
        <time>2026-05-15T09:04:11Z</time>
      </trkpt>
      <trkpt lat="43.86328" lon="6.64511">
        <ele>1232.1</ele>
        <time>2026-05-15T09:04:12Z</time>
      </trkpt>
      <trkpt lat="43.8633" lon="6.64489">
        <ele>1234.2</ele>
        <time>2026-05-15T09:04:13Z</time>
      </trkpt>
      <trkpt lat="43.86331" lon="6.64466">
        <ele>1235.9</ele>
        <time>2026-05-15T09:04:14Z</time>
      </trkpt>
      <trkpt lat="43.86333" lon="6.64444">
        <ele>1236.9</ele>
        <time>2026-05-15T09:04:15Z</time>
      </trkpt>
      <trkpt lat="43.86335" lon="6.64422">
        <ele>1237.9</ele>
        <time>2026-05-15T09:04:16Z</time>
      </trkpt>
      <trkpt lat="43.86338" lon="6.644">
        <ele>1239.5</ele>
        <time>2026-05-15T09:04:17Z</time>
      </trkpt>
      <trkpt lat="43.8634" lon="6.6438">
        <ele>1240.3</ele>
        <time>2026-05-15T09:04:18Z</time>
      </trkpt>
      <trkpt lat="43.86343" lon="6.64361">
        <ele>1241.2</ele>
        <time>2026-05-15T09:04:19Z</time>
      </trkpt>
      <trkpt lat="43.86345" lon="6.64343">
        <ele>1242.1</ele>
        <time>2026-05-15T09:04:20Z</time>
      </trkpt>
      <trkpt lat="43.86349" lon="6.64327">
        <ele>1243.2</ele>
        <time>2026-05-15T09:04:21Z</time>
      </trkpt>
      <trkpt lat="43.86353" lon="6.64315">
        <ele>1243.4</ele>
        <time>2026-05-15T09:04:22Z</time>
      </trkpt>
      <trkpt lat="43.86361" lon="6.64305">
        <ele>1244.8</ele>
        <time>2026-05-15T09:04:23Z</time>
      </trkpt>
      <trkpt lat="43.8637" lon="6.64298">
        <ele>1246.3</ele>
        <time>2026-05-15T09:04:24Z</time>
      </trkpt>
      <trkpt lat="43.86378" lon="6.64294">
        <ele>1248.2</ele>
        <time>2026-05-15T09:04:25Z</time>
      </trkpt>
      <trkpt lat="43.86386" lon="6.64286">
        <ele>1249.5</ele>
        <time>2026-05-15T09:04:26Z</time>
      </trkpt>
      <trkpt lat="43.86389" lon="6.64275">
        <ele>1249.3</ele>
        <time>2026-05-15T09:04:27Z</time>
      </trkpt>
      <trkpt lat="43.8639" lon="6.64261">
        <ele>1250.8</ele>
        <time>2026-05-15T09:04:28Z</time>
      </trkpt>
      <trkpt lat="43.86389" lon="6.64247">
        <ele>1251.4</ele>
        <time>2026-05-15T09:04:29Z</time>
      </trkpt>
      <trkpt lat="43.86386" lon="6.64232">
        <ele>1251.5</ele>
        <time>2026-05-15T09:04:30Z</time>
      </trkpt>
      <trkpt lat="43.86382" lon="6.64217">
        <ele>1251.7</ele>
        <time>2026-05-15T09:04:31Z</time>
      </trkpt>
      <trkpt lat="43.86377" lon="6.64202">
        <ele>1252.3</ele>
        <time>2026-05-15T09:04:32Z</time>
      </trkpt>
      <trkpt lat="43.86371" lon="6.64187">
        <ele>1252.5</ele>
        <time>2026-05-15T09:04:33Z</time>
      </trkpt>
      <trkpt lat="43.86367" lon="6.6417">
        <ele>1252.9</ele>
        <time>2026-05-15T09:04:34Z</time>
      </trkpt>
      <trkpt lat="43.86365" lon="6.64155">
        <ele>1253.4</ele>
        <time>2026-05-15T09:04:35Z</time>
      </trkpt>
      <trkpt lat="43.86365" lon="6.64142">
        <ele>1254.3</ele>
        <time>2026-05-15T09:04:36Z</time>
      </trkpt>
      <trkpt lat="43.86365" lon="6.64131">
        <ele>1254.8</ele>
        <time>2026-05-15T09:04:37Z</time>
      </trkpt>
      <trkpt lat="43.86365" lon="6.64123">
        <ele>1255</ele>
        <time>2026-05-15T09:04:38Z</time>
      </trkpt>
      <trkpt lat="43.86365" lon="6.64116">
        <ele>1255.2</ele>
        <time>2026-05-15T09:04:39Z</time>
      </trkpt>
      <trkpt lat="43.86365" lon="6.64109">
        <ele>1255.2</ele>
        <time>2026-05-15T09:04:40Z</time>
      </trkpt>
      <trkpt lat="43.86366" lon="6.64102">
        <ele>1254.8</ele>
        <time>2026-05-15T09:04:41Z</time>
      </trkpt>
      <trkpt lat="43.86367" lon="6.64097">
        <ele>1254.7</ele>
        <time>2026-05-15T09:04:42Z</time>
      </trkpt>
      <trkpt lat="43.86369" lon="6.64092">
        <ele>1255</ele>
        <time>2026-05-15T09:04:43Z</time>
      </trkpt>
      <trkpt lat="43.86374" lon="6.64089">
        <ele>1256.6</ele>
        <time>2026-05-15T09:04:44Z</time>
      </trkpt>
      <trkpt lat="43.86378" lon="6.64092">
        <ele>1258.4</ele>
        <time>2026-05-15T09:04:45Z</time>
      </trkpt>
      <trkpt lat="43.8638" lon="6.64098">
        <ele>1259.7</ele>
        <time>2026-05-15T09:04:46Z</time>
      </trkpt>
      <trkpt lat="43.8638" lon="6.64107">
        <ele>1260.5</ele>
        <time>2026-05-15T09:04:47Z</time>
      </trkpt>
      <trkpt lat="43.86378" lon="6.64118">
        <ele>1260</ele>
        <time>2026-05-15T09:04:48Z</time>
      </trkpt>
      <trkpt lat="43.86377" lon="6.6413">
        <ele>1259.4</ele>
        <time>2026-05-15T09:04:49Z</time>
      </trkpt>
      <trkpt lat="43.86378" lon="6.64144">
        <ele>1259.3</ele>
        <time>2026-05-15T09:04:50Z</time>
      </trkpt>
      <trkpt lat="43.8638" lon="6.64159">
        <ele>1259</ele>
        <time>2026-05-15T09:04:51Z</time>
      </trkpt>
      <trkpt lat="43.86384" lon="6.64173">
        <ele>1259.2</ele>
        <time>2026-05-15T09:04:52Z</time>
      </trkpt>
      <trkpt lat="43.86388" lon="6.64185">
        <ele>1259</ele>
        <time>2026-05-15T09:04:53Z</time>
      </trkpt>
      <trkpt lat="43.86395" lon="6.64197">
        <ele>1260.9</ele>
        <time>2026-05-15T09:04:54Z</time>
      </trkpt>
      <trkpt lat="43.86401" lon="6.64209">
        <ele>1262.4</ele>
        <time>2026-05-15T09:04:55Z</time>
      </trkpt>
      <trkpt lat="43.86406" lon="6.64223">
        <ele>1263.2</ele>
        <time>2026-05-15T09:04:56Z</time>
      </trkpt>
      <trkpt lat="43.8641" lon="6.64238">
        <ele>1263.7</ele>
        <time>2026-05-15T09:04:57Z</time>
      </trkpt>
      <trkpt lat="43.86413" lon="6.64252">
        <ele>1264</ele>
        <time>2026-05-15T09:04:58Z</time>
      </trkpt>
      <trkpt lat="43.86416" lon="6.64265">
        <ele>1265.6</ele>
        <time>2026-05-15T09:04:59Z</time>
      </trkpt>
      <trkpt lat="43.86417" lon="6.64279">
        <ele>1266.4</ele>
        <time>2026-05-15T09:05:00Z</time>
      </trkpt>
      <trkpt lat="43.86418" lon="6.64291">
        <ele>1268.3</ele>
        <time>2026-05-15T09:05:01Z</time>
      </trkpt>
      <trkpt lat="43.86417" lon="6.64302">
        <ele>1268.8</ele>
        <time>2026-05-15T09:05:02Z</time>
      </trkpt>
      <trkpt lat="43.86414" lon="6.64312">
        <ele>1269.2</ele>
        <time>2026-05-15T09:05:03Z</time>
      </trkpt>
      <trkpt lat="43.8641" lon="6.64321">
        <ele>1269.4</ele>
        <time>2026-05-15T09:05:04Z</time>
      </trkpt>
      <trkpt lat="43.86405" lon="6.6433">
        <ele>1269.2</ele>
        <time>2026-05-15T09:05:05Z</time>
      </trkpt>
      <trkpt lat="43.86402" lon="6.64343">
        <ele>1270.1</ele>
        <time>2026-05-15T09:05:06Z</time>
      </trkpt>
      <trkpt lat="43.864" lon="6.64357">
        <ele>1271.2</ele>
        <time>2026-05-15T09:05:07Z</time>
      </trkpt>
      <trkpt lat="43.86398" lon="6.64372">
        <ele>1271.7</ele>
        <time>2026-05-15T09:05:08Z</time>
      </trkpt>
      <trkpt lat="43.86398" lon="6.64387">
        <ele>1273.4</ele>
        <time>2026-05-15T09:05:09Z</time>
      </trkpt>
      <trkpt lat="43.86397" lon="6.64403">
        <ele>1273.6</ele>
        <time>2026-05-15T09:05:10Z</time>
      </trkpt>
      <trkpt lat="43.86398" lon="6.64418">
        <ele>1274.8</ele>
        <time>2026-05-15T09:05:11Z</time>
      </trkpt>
      <trkpt lat="43.864" lon="6.64433">
        <ele>1275.4</ele>
        <time>2026-05-15T09:05:12Z</time>
      </trkpt>
      <trkpt lat="43.86402" lon="6.64449">
        <ele>1275.5</ele>
        <time>2026-05-15T09:05:13Z</time>
      </trkpt>
      <trkpt lat="43.86405" lon="6.64463">
        <ele>1275.9</ele>
        <time>2026-05-15T09:05:14Z</time>
      </trkpt>
      <trkpt lat="43.86408" lon="6.64478">
        <ele>1276.3</ele>
        <time>2026-05-15T09:05:15Z</time>
      </trkpt>
      <trkpt lat="43.86411" lon="6.64492">
        <ele>1277.3</ele>
        <time>2026-05-15T09:05:16Z</time>
      </trkpt>
      <trkpt lat="43.86414" lon="6.64506">
        <ele>1278</ele>
        <time>2026-05-15T09:05:17Z</time>
      </trkpt>
      <trkpt lat="43.86416" lon="6.64521">
        <ele>1278.1</ele>
        <time>2026-05-15T09:05:18Z</time>
      </trkpt>
      <trkpt lat="43.86419" lon="6.64535">
        <ele>1279</ele>
        <time>2026-05-15T09:05:19Z</time>
      </trkpt>
      <trkpt lat="43.8642" lon="6.64548">
        <ele>1279</ele>
        <time>2026-05-15T09:05:20Z</time>
      </trkpt>
      <trkpt lat="43.86422" lon="6.6456">
        <ele>1279.4</ele>
        <time>2026-05-15T09:05:21Z</time>
      </trkpt>
      <trkpt lat="43.86422" lon="6.6457">
        <ele>1278.8</ele>
        <time>2026-05-15T09:05:22Z</time>
      </trkpt>
      <trkpt lat="43.86423" lon="6.6458">
        <ele>1278.5</ele>
        <time>2026-05-15T09:05:23Z</time>
      </trkpt>
      <trkpt lat="43.86424" lon="6.64588">
        <ele>1278.1</ele>
        <time>2026-05-15T09:05:24Z</time>
      </trkpt>
      <trkpt lat="43.86427" lon="6.64593">
        <ele>1278.5</ele>
        <time>2026-05-15T09:05:25Z</time>
      </trkpt>
      <trkpt lat="43.8643" lon="6.64596">
        <ele>1279</ele>
        <time>2026-05-15T09:05:26Z</time>
      </trkpt>
      <trkpt lat="43.86435" lon="6.64595">
        <ele>1280.7</ele>
        <time>2026-05-15T09:05:27Z</time>
      </trkpt>
      <trkpt lat="43.86439" lon="6.6459">
        <ele>1282.8</ele>
        <time>2026-05-15T09:05:28Z</time>
      </trkpt>
      <trkpt lat="43.8644" lon="6.64583">
        <ele>1284.5</ele>
        <time>2026-05-15T09:05:29Z</time>
      </trkpt>
      <trkpt lat="43.86438" lon="6.64573">
        <ele>1285.2</ele>
        <time>2026-05-15T09:05:30Z</time>
      </trkpt>
      <trkpt lat="43.86436" lon="6.64561">
        <ele>1286</ele>
        <time>2026-05-15T09:05:31Z</time>
      </trkpt>
      <trkpt lat="43.86435" lon="6.64548">
        <ele>1286.9</ele>
        <time>2026-05-15T09:05:32Z</time>
      </trkpt>
      <trkpt lat="43.86433" lon="6.64536">
        <ele>1286.8</ele>
        <time>2026-05-15T09:05:33Z</time>
      </trkpt>
      <trkpt lat="43.86431" lon="6.64522">
        <ele>1286.8</ele>
        <time>2026-05-15T09:05:34Z</time>
      </trkpt>
      <trkpt lat="43.8643" lon="6.64508">
        <ele>1287.4</ele>
        <time>2026-05-15T09:05:35Z</time>
      </trkpt>
      <trkpt lat="43.86428" lon="6.64493">
        <ele>1287.5</ele>
        <time>2026-05-15T09:05:36Z</time>
      </trkpt>
      <trkpt lat="43.86427" lon="6.64477">
        <ele>1288.3</ele>
        <time>2026-05-15T09:05:37Z</time>
      </trkpt>
      <trkpt lat="43.86426" lon="6.64461">
        <ele>1289.3</ele>
        <time>2026-05-15T09:05:38Z</time>
      </trkpt>
      <trkpt lat="43.86425" lon="6.64445">
        <ele>1290.3</ele>
        <time>2026-05-15T09:05:39Z</time>
      </trkpt>
      <trkpt lat="43.86424" lon="6.64429">
        <ele>1290.9</ele>
        <time>2026-05-15T09:05:40Z</time>
      </trkpt>
      <trkpt lat="43.86424" lon="6.64415">
        <ele>1291.7</ele>
        <time>2026-05-15T09:05:41Z</time>
      </trkpt>
      <trkpt lat="43.86425" lon="6.64401">
        <ele>1292.2</ele>
        <time>2026-05-15T09:05:42Z</time>
      </trkpt>
      <trkpt lat="43.86429" lon="6.64388">
        <ele>1294.4</ele>
        <time>2026-05-15T09:05:43Z</time>
      </trkpt>
      <trkpt lat="43.86435" lon="6.64375">
        <ele>1295.7</ele>
        <time>2026-05-15T09:05:44Z</time>
      </trkpt>
      <trkpt lat="43.86443" lon="6.64362">
        <ele>1298.3</ele>
        <time>2026-05-15T09:05:45Z</time>
      </trkpt>
      <trkpt lat="43.86451" lon="6.64349">
        <ele>1300.4</ele>
        <time>2026-05-15T09:05:46Z</time>
      </trkpt>
      <trkpt lat="43.8646" lon="6.64336">
        <ele>1302.4</ele>
        <time>2026-05-15T09:05:47Z</time>
      </trkpt>
      <trkpt lat="43.86468" lon="6.64322">
        <ele>1304.1</ele>
        <time>2026-05-15T09:05:48Z</time>
      </trkpt>
      <trkpt lat="43.86474" lon="6.64305">
        <ele>1305.3</ele>
        <time>2026-05-15T09:05:49Z</time>
      </trkpt>
      <trkpt lat="43.86477" lon="6.64288">
        <ele>1307.7</ele>
        <time>2026-05-15T09:05:50Z</time>
      </trkpt>
      <trkpt lat="43.86479" lon="6.6427">
        <ele>1309.3</ele>
        <time>2026-05-15T09:05:51Z</time>
      </trkpt>
      <trkpt lat="43.86479" lon="6.64254">
        <ele>1309.1</ele>
        <time>2026-05-15T09:05:52Z</time>
      </trkpt>
      <trkpt lat="43.86476" lon="6.6424">
        <ele>1308.2</ele>
        <time>2026-05-15T09:05:53Z</time>
      </trkpt>
      <trkpt lat="43.86473" lon="6.64225">
        <ele>1308.2</ele>
        <time>2026-05-15T09:05:54Z</time>
      </trkpt>
      <trkpt lat="43.86469" lon="6.6421">
        <ele>1307.8</ele>
        <time>2026-05-15T09:05:55Z</time>
      </trkpt>
      <trkpt lat="43.86467" lon="6.64194">
        <ele>1309.1</ele>
        <time>2026-05-15T09:05:56Z</time>
      </trkpt>
      <trkpt lat="43.86467" lon="6.64179">
        <ele>1309.8</ele>
        <time>2026-05-15T09:05:57Z</time>
      </trkpt>
      <trkpt lat="43.86469" lon="6.64162">
        <ele>1311.5</ele>
        <time>2026-05-15T09:05:58Z</time>
      </trkpt>
      <trkpt lat="43.86473" lon="6.64146">
        <ele>1313</ele>
        <time>2026-05-15T09:05:59Z</time>
      </trkpt>
      <trkpt lat="43.86478" lon="6.6413">
        <ele>1314.4</ele>
        <time>2026-05-15T09:06:00Z</time>
      </trkpt>
      <trkpt lat="43.86485" lon="6.64115">
        <ele>1316.4</ele>
        <time>2026-05-15T09:06:01Z</time>
      </trkpt>
      <trkpt lat="43.86492" lon="6.64102">
        <ele>1318</ele>
        <time>2026-05-15T09:06:02Z</time>
      </trkpt>
      <trkpt lat="43.86498" lon="6.64087">
        <ele>1318.5</ele>
        <time>2026-05-15T09:06:03Z</time>
      </trkpt>
      <trkpt lat="43.86503" lon="6.64073">
        <ele>1320.2</ele>
        <time>2026-05-15T09:06:04Z</time>
      </trkpt>
      <trkpt lat="43.86505" lon="6.64057">
        <ele>1320.3</ele>
        <time>2026-05-15T09:06:05Z</time>
      </trkpt>
      <trkpt lat="43.86505" lon="6.64041">
        <ele>1320.6</ele>
        <time>2026-05-15T09:06:06Z</time>
      </trkpt>
      <trkpt lat="43.86507" lon="6.64023">
        <ele>1321.9</ele>
        <time>2026-05-15T09:06:07Z</time>
      </trkpt>
      <trkpt lat="43.86509" lon="6.64005">
        <ele>1322.6</ele>
        <time>2026-05-15T09:06:08Z</time>
      </trkpt>
      <trkpt lat="43.8651" lon="6.63986">
        <ele>1323.3</ele>
        <time>2026-05-15T09:06:09Z</time>
      </trkpt>
      <trkpt lat="43.8651" lon="6.63966">
        <ele>1324.1</ele>
        <time>2026-05-15T09:06:10Z</time>
      </trkpt>
      <trkpt lat="43.86508" lon="6.63946">
        <ele>1324.7</ele>
        <time>2026-05-15T09:06:11Z</time>
      </trkpt>
      <trkpt lat="43.86507" lon="6.63926">
        <ele>1325.9</ele>
        <time>2026-05-15T09:06:12Z</time>
      </trkpt>
      <trkpt lat="43.86506" lon="6.63906">
        <ele>1326.7</ele>
        <time>2026-05-15T09:06:13Z</time>
      </trkpt>
      <trkpt lat="43.86507" lon="6.63887">
        <ele>1328.1</ele>
        <time>2026-05-15T09:06:14Z</time>
      </trkpt>
      <trkpt lat="43.86509" lon="6.63868">
        <ele>1329.4</ele>
        <time>2026-05-15T09:06:15Z</time>
      </trkpt>
      <trkpt lat="43.86512" lon="6.63849">
        <ele>1330.6</ele>
        <time>2026-05-15T09:06:16Z</time>
      </trkpt>
      <trkpt lat="43.86516" lon="6.6383">
        <ele>1331.8</ele>
        <time>2026-05-15T09:06:17Z</time>
      </trkpt>
      <trkpt lat="43.86521" lon="6.6381">
        <ele>1332.9</ele>
        <time>2026-05-15T09:06:18Z</time>
      </trkpt>
      <trkpt lat="43.86528" lon="6.63792">
        <ele>1335.1</ele>
        <time>2026-05-15T09:06:19Z</time>
      </trkpt>
      <trkpt lat="43.86535" lon="6.63774">
        <ele>1336.8</ele>
        <time>2026-05-15T09:06:20Z</time>
      </trkpt>
      <trkpt lat="43.86541" lon="6.63757">
        <ele>1338.2</ele>
        <time>2026-05-15T09:06:21Z</time>
      </trkpt>
      <trkpt lat="43.86549" lon="6.6374">
        <ele>1339.8</ele>
        <time>2026-05-15T09:06:22Z</time>
      </trkpt>
      <trkpt lat="43.86557" lon="6.63723">
        <ele>1340.8</ele>
        <time>2026-05-15T09:06:23Z</time>
      </trkpt>
      <trkpt lat="43.86565" lon="6.63708">
        <ele>1342.9</ele>
        <time>2026-05-15T09:06:24Z</time>
      </trkpt>
      <trkpt lat="43.86572" lon="6.63693">
        <ele>1344.6</ele>
        <time>2026-05-15T09:06:25Z</time>
      </trkpt>
      <trkpt lat="43.86577" lon="6.63676">
        <ele>1346.2</ele>
        <time>2026-05-15T09:06:26Z</time>
      </trkpt>
      <trkpt lat="43.86579" lon="6.63657">
        <ele>1347.2</ele>
        <time>2026-05-15T09:06:27Z</time>
      </trkpt>
      <trkpt lat="43.8658" lon="6.63638">
        <ele>1348.4</ele>
        <time>2026-05-15T09:06:28Z</time>
      </trkpt>
      <trkpt lat="43.86579" lon="6.63618">
        <ele>1348.7</ele>
        <time>2026-05-15T09:06:29Z</time>
      </trkpt>
      <trkpt lat="43.86578" lon="6.63598">
        <ele>1349.4</ele>
        <time>2026-05-15T09:06:30Z</time>
      </trkpt>
      <trkpt lat="43.86577" lon="6.63577">
        <ele>1350.4</ele>
        <time>2026-05-15T09:06:31Z</time>
      </trkpt>
      <trkpt lat="43.86577" lon="6.63555">
        <ele>1351.8</ele>
        <time>2026-05-15T09:06:32Z</time>
      </trkpt>
      <trkpt lat="43.86578" lon="6.63534">
        <ele>1353.1</ele>
        <time>2026-05-15T09:06:33Z</time>
      </trkpt>
      <trkpt lat="43.86578" lon="6.63512">
        <ele>1354.3</ele>
        <time>2026-05-15T09:06:34Z</time>
      </trkpt>
      <trkpt lat="43.86577" lon="6.6349">
        <ele>1355</ele>
        <time>2026-05-15T09:06:35Z</time>
      </trkpt>
      <trkpt lat="43.86576" lon="6.63467">
        <ele>1355.7</ele>
        <time>2026-05-15T09:06:36Z</time>
      </trkpt>
      <trkpt lat="43.86572" lon="6.63445">
        <ele>1355.2</ele>
        <time>2026-05-15T09:06:37Z</time>
      </trkpt>
      <trkpt lat="43.86568" lon="6.63422">
        <ele>1355.7</ele>
        <time>2026-05-15T09:06:38Z</time>
      </trkpt>
      <trkpt lat="43.86563" lon="6.63399">
        <ele>1356</ele>
        <time>2026-05-15T09:06:39Z</time>
      </trkpt>
      <trkpt lat="43.86556" lon="6.63377">
        <ele>1355.9</ele>
        <time>2026-05-15T09:06:40Z</time>
      </trkpt>
      <trkpt lat="43.86549" lon="6.63354">
        <ele>1356.5</ele>
        <time>2026-05-15T09:06:41Z</time>
      </trkpt>
      <trkpt lat="43.8654" lon="6.63334">
        <ele>1356.8</ele>
        <time>2026-05-15T09:06:42Z</time>
      </trkpt>
      <trkpt lat="43.86532" lon="6.63314">
        <ele>1357</ele>
        <time>2026-05-15T09:06:43Z</time>
      </trkpt>
      <trkpt lat="43.86525" lon="6.63294">
        <ele>1357.7</ele>
        <time>2026-05-15T09:06:44Z</time>
      </trkpt>
      <trkpt lat="43.8652" lon="6.63272">
        <ele>1359.1</ele>
        <time>2026-05-15T09:06:45Z</time>
      </trkpt>
      <trkpt lat="43.86517" lon="6.63251">
        <ele>1360.4</ele>
        <time>2026-05-15T09:06:46Z</time>
      </trkpt>
      <trkpt lat="43.86516" lon="6.63232">
        <ele>1362.1</ele>
        <time>2026-05-15T09:06:47Z</time>
      </trkpt>
      <trkpt lat="43.86515" lon="6.63214">
        <ele>1363.9</ele>
        <time>2026-05-15T09:06:48Z</time>
      </trkpt>
      <trkpt lat="43.86514" lon="6.63201">
        <ele>1365.3</ele>
        <time>2026-05-15T09:06:49Z</time>
      </trkpt>
      <trkpt lat="43.86514" lon="6.6319">
        <ele>1366.2</ele>
        <time>2026-05-15T09:06:50Z</time>
      </trkpt>
      <trkpt lat="43.86514" lon="6.6318">
        <ele>1366.5</ele>
        <time>2026-05-15T09:06:51Z</time>
      </trkpt>
      <trkpt lat="43.86514" lon="6.6317">
        <ele>1366.9</ele>
        <time>2026-05-15T09:06:52Z</time>
      </trkpt>
      <trkpt lat="43.86515" lon="6.63158">
        <ele>1366.8</ele>
        <time>2026-05-15T09:06:53Z</time>
      </trkpt>
      <trkpt lat="43.86515" lon="6.63144">
        <ele>1366.6</ele>
        <time>2026-05-15T09:06:54Z</time>
      </trkpt>
      <trkpt lat="43.86517" lon="6.63128">
        <ele>1366.2</ele>
        <time>2026-05-15T09:06:55Z</time>
      </trkpt>
      <trkpt lat="43.86519" lon="6.6311">
        <ele>1366</ele>
        <time>2026-05-15T09:06:56Z</time>
      </trkpt>
      <trkpt lat="43.86523" lon="6.63092">
        <ele>1365.3</ele>
        <time>2026-05-15T09:06:57Z</time>
      </trkpt>
      <trkpt lat="43.86526" lon="6.63073">
        <ele>1364.3</ele>
        <time>2026-05-15T09:06:58Z</time>
      </trkpt>
      <trkpt lat="43.8653" lon="6.63053">
        <ele>1362.9</ele>
        <time>2026-05-15T09:06:59Z</time>
      </trkpt>
      <trkpt lat="43.86534" lon="6.63031">
        <ele>1361</ele>
        <time>2026-05-15T09:07:00Z</time>
      </trkpt>
      <trkpt lat="43.86538" lon="6.63009">
        <ele>1359.8</ele>
        <time>2026-05-15T09:07:01Z</time>
      </trkpt>
      <trkpt lat="43.86542" lon="6.62986">
        <ele>1358.5</ele>
        <time>2026-05-15T09:07:02Z</time>
      </trkpt>
      <trkpt lat="43.86546" lon="6.62962">
        <ele>1357.2</ele>
        <time>2026-05-15T09:07:03Z</time>
      </trkpt>
      <trkpt lat="43.8655" lon="6.62937">
        <ele>1355.9</ele>
        <time>2026-05-15T09:07:04Z</time>
      </trkpt>
      <trkpt lat="43.86555" lon="6.62912">
        <ele>1354.6</ele>
        <time>2026-05-15T09:07:05Z</time>
      </trkpt>
      <trkpt lat="43.86559" lon="6.62885">
        <ele>1353.2</ele>
        <time>2026-05-15T09:07:06Z</time>
      </trkpt>
      <trkpt lat="43.86564" lon="6.62858">
        <ele>1351.7</ele>
        <time>2026-05-15T09:07:07Z</time>
      </trkpt>
      <trkpt lat="43.86568" lon="6.6283">
        <ele>1350.1</ele>
        <time>2026-05-15T09:07:08Z</time>
      </trkpt>
      <trkpt lat="43.86573" lon="6.62802">
        <ele>1348.8</ele>
        <time>2026-05-15T09:07:09Z</time>
      </trkpt>
      <trkpt lat="43.86577" lon="6.62775">
        <ele>1348.2</ele>
        <time>2026-05-15T09:07:10Z</time>
      </trkpt>
      <trkpt lat="43.86581" lon="6.62748">
        <ele>1347.6</ele>
        <time>2026-05-15T09:07:11Z</time>
      </trkpt>
      <trkpt lat="43.86585" lon="6.62722">
        <ele>1346.2</ele>
        <time>2026-05-15T09:07:12Z</time>
      </trkpt>
      <trkpt lat="43.86589" lon="6.62696">
        <ele>1345.7</ele>
        <time>2026-05-15T09:07:13Z</time>
      </trkpt>
      <trkpt lat="43.86594" lon="6.6267">
        <ele>1344.4</ele>
        <time>2026-05-15T09:07:14Z</time>
      </trkpt>
      <trkpt lat="43.86599" lon="6.62645">
        <ele>1343.8</ele>
        <time>2026-05-15T09:07:15Z</time>
      </trkpt>
      <trkpt lat="43.86605" lon="6.62618">
        <ele>1343.2</ele>
        <time>2026-05-15T09:07:16Z</time>
      </trkpt>
      <trkpt lat="43.86611" lon="6.62593">
        <ele>1342.4</ele>
        <time>2026-05-15T09:07:17Z</time>
      </trkpt>
      <trkpt lat="43.86618" lon="6.62568">
        <ele>1341.6</ele>
        <time>2026-05-15T09:07:18Z</time>
      </trkpt>
      <trkpt lat="43.86625" lon="6.62544">
        <ele>1340.8</ele>
        <time>2026-05-15T09:07:19Z</time>
      </trkpt>
      <trkpt lat="43.86632" lon="6.6252">
        <ele>1339.8</ele>
        <time>2026-05-15T09:07:20Z</time>
      </trkpt>
      <trkpt lat="43.86638" lon="6.62497">
        <ele>1338.1</ele>
        <time>2026-05-15T09:07:21Z</time>
      </trkpt>
      <trkpt lat="43.86644" lon="6.62474">
        <ele>1338</ele>
        <time>2026-05-15T09:07:22Z</time>
      </trkpt>
      <trkpt lat="43.86651" lon="6.62451">
        <ele>1337.7</ele>
        <time>2026-05-15T09:07:23Z</time>
      </trkpt>
      <trkpt lat="43.86657" lon="6.62429">
        <ele>1337.5</ele>
        <time>2026-05-15T09:07:24Z</time>
      </trkpt>
      <trkpt lat="43.86663" lon="6.62408">
        <ele>1337.1</ele>
        <time>2026-05-15T09:07:25Z</time>
      </trkpt>
      <trkpt lat="43.86668" lon="6.62386">
        <ele>1336.2</ele>
        <time>2026-05-15T09:07:26Z</time>
      </trkpt>
      <trkpt lat="43.86674" lon="6.62365">
        <ele>1337</ele>
        <time>2026-05-15T09:07:27Z</time>
      </trkpt>
      <trkpt lat="43.86679" lon="6.62345">
        <ele>1337</ele>
        <time>2026-05-15T09:07:28Z</time>
      </trkpt>
      <trkpt lat="43.86684" lon="6.62325">
        <ele>1336.5</ele>
        <time>2026-05-15T09:07:29Z</time>
      </trkpt>
      <trkpt lat="43.86689" lon="6.62306">
        <ele>1335.8</ele>
        <time>2026-05-15T09:07:30Z</time>
      </trkpt>
      <trkpt lat="43.86694" lon="6.62287">
        <ele>1334.4</ele>
        <time>2026-05-15T09:07:31Z</time>
      </trkpt>
      <trkpt lat="43.86699" lon="6.62268">
        <ele>1334.3</ele>
        <time>2026-05-15T09:07:32Z</time>
      </trkpt>
      <trkpt lat="43.86704" lon="6.62249">
        <ele>1334.3</ele>
        <time>2026-05-15T09:07:33Z</time>
      </trkpt>
      <trkpt lat="43.86709" lon="6.62231">
        <ele>1333.8</ele>
        <time>2026-05-15T09:07:34Z</time>
      </trkpt>
      <trkpt lat="43.86714" lon="6.62212">
        <ele>1333.7</ele>
        <time>2026-05-15T09:07:35Z</time>
      </trkpt>
      <trkpt lat="43.86718" lon="6.62194">
        <ele>1333.8</ele>
        <time>2026-05-15T09:07:36Z</time>
      </trkpt>
      <trkpt lat="43.86723" lon="6.62175">
        <ele>1332.7</ele>
        <time>2026-05-15T09:07:37Z</time>
      </trkpt>
      <trkpt lat="43.86728" lon="6.62156">
        <ele>1332.2</ele>
        <time>2026-05-15T09:07:38Z</time>
      </trkpt>
      <trkpt lat="43.86733" lon="6.62137">
        <ele>1331.7</ele>
        <time>2026-05-15T09:07:39Z</time>
      </trkpt>
      <trkpt lat="43.86738" lon="6.62118">
        <ele>1331.4</ele>
        <time>2026-05-15T09:07:40Z</time>
      </trkpt>
      <trkpt lat="43.86743" lon="6.62098">
        <ele>1331</ele>
        <time>2026-05-15T09:07:41Z</time>
      </trkpt>
      <trkpt lat="43.86749" lon="6.62078">
        <ele>1330.5</ele>
        <time>2026-05-15T09:07:42Z</time>
      </trkpt>
      <trkpt lat="43.86756" lon="6.6206">
        <ele>1329.8</ele>
        <time>2026-05-15T09:07:43Z</time>
      </trkpt>
      <trkpt lat="43.86763" lon="6.62041">
        <ele>1328.6</ele>
        <time>2026-05-15T09:07:44Z</time>
      </trkpt>
      <trkpt lat="43.8677" lon="6.62023">
        <ele>1327.8</ele>
        <time>2026-05-15T09:07:45Z</time>
      </trkpt>
      <trkpt lat="43.86777" lon="6.62004">
        <ele>1327.2</ele>
        <time>2026-05-15T09:07:46Z</time>
      </trkpt>
      <trkpt lat="43.86783" lon="6.61985">
        <ele>1326.8</ele>
        <time>2026-05-15T09:07:47Z</time>
      </trkpt>
      <trkpt lat="43.86789" lon="6.61966">
        <ele>1326.9</ele>
        <time>2026-05-15T09:07:48Z</time>
      </trkpt>
      <trkpt lat="43.86792" lon="6.61945">
        <ele>1327.1</ele>
        <time>2026-05-15T09:07:49Z</time>
      </trkpt>
      <trkpt lat="43.86792" lon="6.61923">
        <ele>1327.1</ele>
        <time>2026-05-15T09:07:50Z</time>
      </trkpt>
      <trkpt lat="43.8679" lon="6.61902">
        <ele>1326.6</ele>
        <time>2026-05-15T09:07:51Z</time>
      </trkpt>
      <trkpt lat="43.86788" lon="6.61881">
        <ele>1326.1</ele>
        <time>2026-05-15T09:07:52Z</time>
      </trkpt>
      <trkpt lat="43.86785" lon="6.6186">
        <ele>1325.8</ele>
        <time>2026-05-15T09:07:53Z</time>
      </trkpt>
      <trkpt lat="43.86782" lon="6.61839">
        <ele>1325.2</ele>
        <time>2026-05-15T09:07:54Z</time>
      </trkpt>
      <trkpt lat="43.86778" lon="6.61818">
        <ele>1324.6</ele>
        <time>2026-05-15T09:07:55Z</time>
      </trkpt>
      <trkpt lat="43.86773" lon="6.61797">
        <ele>1324.3</ele>
        <time>2026-05-15T09:07:56Z</time>
      </trkpt>
      <trkpt lat="43.86766" lon="6.61776">
        <ele>1323.3</ele>
        <time>2026-05-15T09:07:57Z</time>
      </trkpt>
      <trkpt lat="43.86759" lon="6.61755">
        <ele>1322.6</ele>
        <time>2026-05-15T09:07:58Z</time>
      </trkpt>
      <trkpt lat="43.86753" lon="6.61735">
        <ele>1322.1</ele>
        <time>2026-05-15T09:07:59Z</time>
      </trkpt>
      <trkpt lat="43.86749" lon="6.61715">
        <ele>1322</ele>
        <time>2026-05-15T09:08:00Z</time>
      </trkpt>
      <trkpt lat="43.86745" lon="6.61694">
        <ele>1321.6</ele>
        <time>2026-05-15T09:08:01Z</time>
      </trkpt>
      <trkpt lat="43.86742" lon="6.61674">
        <ele>1321.2</ele>
        <time>2026-05-15T09:08:02Z</time>
      </trkpt>
      <trkpt lat="43.8674" lon="6.61654">
        <ele>1320.9</ele>
        <time>2026-05-15T09:08:03Z</time>
      </trkpt>
      <trkpt lat="43.86738" lon="6.61634">
        <ele>1320.5</ele>
        <time>2026-05-15T09:08:04Z</time>
      </trkpt>
      <trkpt lat="43.86737" lon="6.61614">
        <ele>1320.3</ele>
        <time>2026-05-15T09:08:05Z</time>
      </trkpt>
      <trkpt lat="43.86735" lon="6.61595">
        <ele>1319.7</ele>
        <time>2026-05-15T09:08:06Z</time>
      </trkpt>
      <trkpt lat="43.86735" lon="6.61576">
        <ele>1319.7</ele>
        <time>2026-05-15T09:08:07Z</time>
      </trkpt>
      <trkpt lat="43.86736" lon="6.61557">
        <ele>1320</ele>
        <time>2026-05-15T09:08:08Z</time>
      </trkpt>
      <trkpt lat="43.86736" lon="6.61537">
        <ele>1320</ele>
        <time>2026-05-15T09:08:09Z</time>
      </trkpt>
      <trkpt lat="43.86737" lon="6.61518">
        <ele>1319.7</ele>
        <time>2026-05-15T09:08:10Z</time>
      </trkpt>
      <trkpt lat="43.86738" lon="6.61498">
        <ele>1319</ele>
        <time>2026-05-15T09:08:11Z</time>
      </trkpt>
      <trkpt lat="43.86739" lon="6.61478">
        <ele>1318.2</ele>
        <time>2026-05-15T09:08:12Z</time>
      </trkpt>
      <trkpt lat="43.86741" lon="6.61458">
        <ele>1317.4</ele>
        <time>2026-05-15T09:08:13Z</time>
      </trkpt>
      <trkpt lat="43.86744" lon="6.61438">
        <ele>1317</ele>
        <time>2026-05-15T09:08:14Z</time>
      </trkpt>
      <trkpt lat="43.86744" lon="6.61419">
        <ele>1316.2</ele>
        <time>2026-05-15T09:08:15Z</time>
      </trkpt>
      <trkpt lat="43.86744" lon="6.61399">
        <ele>1315.3</ele>
        <time>2026-05-15T09:08:16Z</time>
      </trkpt>
      <trkpt lat="43.86743" lon="6.61378">
        <ele>1313.8</ele>
        <time>2026-05-15T09:08:17Z</time>
      </trkpt>
      <trkpt lat="43.86742" lon="6.61358">
        <ele>1312.3</ele>
        <time>2026-05-15T09:08:18Z</time>
      </trkpt>
      <trkpt lat="43.86742" lon="6.61338">
        <ele>1311.3</ele>
        <time>2026-05-15T09:08:19Z</time>
      </trkpt>
      <trkpt lat="43.86742" lon="6.61317">
        <ele>1309.5</ele>
        <time>2026-05-15T09:08:20Z</time>
      </trkpt>
      <trkpt lat="43.86744" lon="6.61297">
        <ele>1308.4</ele>
        <time>2026-05-15T09:08:21Z</time>
      </trkpt>
      <trkpt lat="43.86746" lon="6.61278">
        <ele>1307.7</ele>
        <time>2026-05-15T09:08:22Z</time>
      </trkpt>
      <trkpt lat="43.86749" lon="6.61258">
        <ele>1307.3</ele>
        <time>2026-05-15T09:08:23Z</time>
      </trkpt>
      <trkpt lat="43.86752" lon="6.61238">
        <ele>1307.2</ele>
        <time>2026-05-15T09:08:24Z</time>
      </trkpt>
      <trkpt lat="43.86754" lon="6.61218">
        <ele>1306.9</ele>
        <time>2026-05-15T09:08:25Z</time>
      </trkpt>
      <trkpt lat="43.86757" lon="6.61198">
        <ele>1306.5</ele>
        <time>2026-05-15T09:08:26Z</time>
      </trkpt>
      <trkpt lat="43.86759" lon="6.61178">
        <ele>1305.7</ele>
        <time>2026-05-15T09:08:27Z</time>
      </trkpt>
      <trkpt lat="43.8676" lon="6.61158">
        <ele>1304.6</ele>
        <time>2026-05-15T09:08:28Z</time>
      </trkpt>
      <trkpt lat="43.86761" lon="6.61138">
        <ele>1303.5</ele>
        <time>2026-05-15T09:08:29Z</time>
      </trkpt>
      <trkpt lat="43.86761" lon="6.61118">
        <ele>1302.8</ele>
        <time>2026-05-15T09:08:30Z</time>
      </trkpt>
      <trkpt lat="43.86762" lon="6.61098">
        <ele>1302.5</ele>
        <time>2026-05-15T09:08:31Z</time>
      </trkpt>
      <trkpt lat="43.86763" lon="6.61079">
        <ele>1301.9</ele>
        <time>2026-05-15T09:08:32Z</time>
      </trkpt>
      <trkpt lat="43.86765" lon="6.6106">
        <ele>1300.7</ele>
        <time>2026-05-15T09:08:33Z</time>
      </trkpt>
      <trkpt lat="43.86768" lon="6.6104">
        <ele>1299.7</ele>
        <time>2026-05-15T09:08:34Z</time>
      </trkpt>
      <trkpt lat="43.86772" lon="6.6102">
        <ele>1298.8</ele>
        <time>2026-05-15T09:08:35Z</time>
      </trkpt>
      <trkpt lat="43.86776" lon="6.60999">
        <ele>1297.5</ele>
        <time>2026-05-15T09:08:36Z</time>
      </trkpt>
      <trkpt lat="43.86779" lon="6.60978">
        <ele>1296.7</ele>
        <time>2026-05-15T09:08:37Z</time>
      </trkpt>
      <trkpt lat="43.86783" lon="6.60957">
        <ele>1295.7</ele>
        <time>2026-05-15T09:08:38Z</time>
      </trkpt>
      <trkpt lat="43.86785" lon="6.60936">
        <ele>1294.2</ele>
        <time>2026-05-15T09:08:39Z</time>
      </trkpt>
      <trkpt lat="43.86787" lon="6.60914">
        <ele>1293.1</ele>
        <time>2026-05-15T09:08:40Z</time>
      </trkpt>
      <trkpt lat="43.86788" lon="6.60892">
        <ele>1291.5</ele>
        <time>2026-05-15T09:08:41Z</time>
      </trkpt>
      <trkpt lat="43.8679" lon="6.60869">
        <ele>1290.2</ele>
        <time>2026-05-15T09:08:42Z</time>
      </trkpt>
      <trkpt lat="43.86791" lon="6.60845">
        <ele>1288.7</ele>
        <time>2026-05-15T09:08:43Z</time>
      </trkpt>
      <trkpt lat="43.86791" lon="6.60821">
        <ele>1287</ele>
        <time>2026-05-15T09:08:44Z</time>
      </trkpt>
      <trkpt lat="43.86792" lon="6.60797">
        <ele>1285.5</ele>
        <time>2026-05-15T09:08:45Z</time>
      </trkpt>
      <trkpt lat="43.86792" lon="6.60774">
        <ele>1283.8</ele>
        <time>2026-05-15T09:08:46Z</time>
      </trkpt>
      <trkpt lat="43.86793" lon="6.6075">
        <ele>1282.3</ele>
        <time>2026-05-15T09:08:47Z</time>
      </trkpt>
      <trkpt lat="43.86794" lon="6.60727">
        <ele>1281.2</ele>
        <time>2026-05-15T09:08:48Z</time>
      </trkpt>
      <trkpt lat="43.86795" lon="6.60703">
        <ele>1279.7</ele>
        <time>2026-05-15T09:08:49Z</time>
      </trkpt>
      <trkpt lat="43.86795" lon="6.60679">
        <ele>1278.5</ele>
        <time>2026-05-15T09:08:50Z</time>
      </trkpt>
      <trkpt lat="43.86795" lon="6.60656">
        <ele>1277.7</ele>
        <time>2026-05-15T09:08:51Z</time>
      </trkpt>
      <trkpt lat="43.86796" lon="6.60633">
        <ele>1276.9</ele>
        <time>2026-05-15T09:08:52Z</time>
      </trkpt>
      <trkpt lat="43.86799" lon="6.6061">
        <ele>1276</ele>
        <time>2026-05-15T09:08:53Z</time>
      </trkpt>
      <trkpt lat="43.86803" lon="6.60589">
        <ele>1275.8</ele>
        <time>2026-05-15T09:08:54Z</time>
      </trkpt>
      <trkpt lat="43.86809" lon="6.60568">
        <ele>1275.4</ele>
        <time>2026-05-15T09:08:55Z</time>
      </trkpt>
      <trkpt lat="43.86816" lon="6.60549">
        <ele>1275.9</ele>
        <time>2026-05-15T09:08:56Z</time>
      </trkpt>
      <trkpt lat="43.86824" lon="6.6053">
        <ele>1277.3</ele>
        <time>2026-05-15T09:08:57Z</time>
      </trkpt>
      <trkpt lat="43.8683" lon="6.60511">
        <ele>1277.8</ele>
        <time>2026-05-15T09:08:58Z</time>
      </trkpt>
      <trkpt lat="43.86837" lon="6.60492">
        <ele>1277.7</ele>
        <time>2026-05-15T09:08:59Z</time>
      </trkpt>
      <trkpt lat="43.86844" lon="6.60473">
        <ele>1276.8</ele>
        <time>2026-05-15T09:09:00Z</time>
      </trkpt>
      <trkpt lat="43.86851" lon="6.60453">
        <ele>1275.2</ele>
        <time>2026-05-15T09:09:01Z</time>
      </trkpt>
      <trkpt lat="43.86858" lon="6.60433">
        <ele>1273.2</ele>
        <time>2026-05-15T09:09:02Z</time>
      </trkpt>
      <trkpt lat="43.86865" lon="6.60414">
        <ele>1271.1</ele>
        <time>2026-05-15T09:09:03Z</time>
      </trkpt>
      <trkpt lat="43.86872" lon="6.60394">
        <ele>1270</ele>
        <time>2026-05-15T09:09:04Z</time>
      </trkpt>
      <trkpt lat="43.86877" lon="6.60373">
        <ele>1270</ele>
        <time>2026-05-15T09:09:05Z</time>
      </trkpt>
      <trkpt lat="43.86879" lon="6.60351">
        <ele>1270.5</ele>
        <time>2026-05-15T09:09:06Z</time>
      </trkpt>
      <trkpt lat="43.86877" lon="6.6033">
        <ele>1270.6</ele>
        <time>2026-05-15T09:09:07Z</time>
      </trkpt>
      <trkpt lat="43.86873" lon="6.60309">
        <ele>1270.3</ele>
        <time>2026-05-15T09:09:08Z</time>
      </trkpt>
      <trkpt lat="43.86868" lon="6.60288">
        <ele>1269.1</ele>
        <time>2026-05-15T09:09:09Z</time>
      </trkpt>
      <trkpt lat="43.86864" lon="6.60267">
        <ele>1268.3</ele>
        <time>2026-05-15T09:09:10Z</time>
      </trkpt>
      <trkpt lat="43.86861" lon="6.60245">
        <ele>1268</ele>
        <time>2026-05-15T09:09:11Z</time>
      </trkpt>
      <trkpt lat="43.86858" lon="6.60223">
        <ele>1267.1</ele>
        <time>2026-05-15T09:09:12Z</time>
      </trkpt>
      <trkpt lat="43.86856" lon="6.60202">
        <ele>1265.9</ele>
        <time>2026-05-15T09:09:13Z</time>
      </trkpt>
      <trkpt lat="43.86853" lon="6.6018">
        <ele>1265.1</ele>
        <time>2026-05-15T09:09:14Z</time>
      </trkpt>
      <trkpt lat="43.86848" lon="6.60161">
        <ele>1264.4</ele>
        <time>2026-05-15T09:09:15Z</time>
      </trkpt>
      <trkpt lat="43.8684" lon="6.60146">
        <ele>1263.6</ele>
        <time>2026-05-15T09:09:16Z</time>
      </trkpt>
      <trkpt lat="43.86832" lon="6.60133">
        <ele>1263.1</ele>
        <time>2026-05-15T09:09:17Z</time>
      </trkpt>
      <trkpt lat="43.86824" lon="6.60122">
        <ele>1262.4</ele>
        <time>2026-05-15T09:09:18Z</time>
      </trkpt>
      <trkpt lat="43.86819" lon="6.60111">
        <ele>1262.4</ele>
        <time>2026-05-15T09:09:19Z</time>
      </trkpt>
      <trkpt lat="43.86818" lon="6.60098">
        <ele>1262</ele>
        <time>2026-05-15T09:09:20Z</time>
      </trkpt>
      <trkpt lat="43.8682" lon="6.60086">
        <ele>1262.1</ele>
        <time>2026-05-15T09:09:21Z</time>
      </trkpt>
      <trkpt lat="43.86825" lon="6.60074">
        <ele>1262.1</ele>
        <time>2026-05-15T09:09:22Z</time>
      </trkpt>
      <trkpt lat="43.8683" lon="6.60064">
        <ele>1262.1</ele>
        <time>2026-05-15T09:09:23Z</time>
      </trkpt>
      <trkpt lat="43.86834" lon="6.60054">
        <ele>1262.1</ele>
        <time>2026-05-15T09:09:24Z</time>
      </trkpt>
      <trkpt lat="43.86835" lon="6.60042">
        <ele>1262.3</ele>
        <time>2026-05-15T09:09:25Z</time>
      </trkpt>
      <trkpt lat="43.86833" lon="6.6003">
        <ele>1262</ele>
        <time>2026-05-15T09:09:26Z</time>
      </trkpt>
      <trkpt lat="43.86828" lon="6.60017">
        <ele>1261.3</ele>
        <time>2026-05-15T09:09:27Z</time>
      </trkpt>
      <trkpt lat="43.8682" lon="6.60007">
        <ele>1260.4</ele>
        <time>2026-05-15T09:09:28Z</time>
      </trkpt>
      <trkpt lat="43.86812" lon="6.59998">
        <ele>1259.8</ele>
        <time>2026-05-15T09:09:29Z</time>
      </trkpt>
      <trkpt lat="43.86803" lon="6.59989">
        <ele>1259.1</ele>
        <time>2026-05-15T09:09:30Z</time>
      </trkpt>
      <trkpt lat="43.86795" lon="6.5998">
        <ele>1258.6</ele>
        <time>2026-05-15T09:09:31Z</time>
      </trkpt>
      <trkpt lat="43.8679" lon="6.59968">
        <ele>1258.3</ele>
        <time>2026-05-15T09:09:32Z</time>
      </trkpt>
      <trkpt lat="43.86789" lon="6.59954">
        <ele>1258.3</ele>
        <time>2026-05-15T09:09:33Z</time>
      </trkpt>
      <trkpt lat="43.8679" lon="6.5994">
        <ele>1258.4</ele>
        <time>2026-05-15T09:09:34Z</time>
      </trkpt>
      <trkpt lat="43.86792" lon="6.59925">
        <ele>1258.5</ele>
        <time>2026-05-15T09:09:35Z</time>
      </trkpt>
      <trkpt lat="43.86795" lon="6.59908">
        <ele>1258.3</ele>
        <time>2026-05-15T09:09:36Z</time>
      </trkpt>
      <trkpt lat="43.86797" lon="6.59891">
        <ele>1257.8</ele>
        <time>2026-05-15T09:09:37Z</time>
      </trkpt>
      <trkpt lat="43.868" lon="6.59874">
        <ele>1257.3</ele>
        <time>2026-05-15T09:09:38Z</time>
      </trkpt>
      <trkpt lat="43.86803" lon="6.59859">
        <ele>1256.8</ele>
        <time>2026-05-15T09:09:39Z</time>
      </trkpt>
      <trkpt lat="43.86807" lon="6.59842">
        <ele>1256.4</ele>
        <time>2026-05-15T09:09:40Z</time>
      </trkpt>
      <trkpt lat="43.86811" lon="6.59825">
        <ele>1255.8</ele>
        <time>2026-05-15T09:09:41Z</time>
      </trkpt>
      <trkpt lat="43.86816" lon="6.59808">
        <ele>1254.9</ele>
        <time>2026-05-15T09:09:42Z</time>
      </trkpt>
      <trkpt lat="43.86822" lon="6.5979">
        <ele>1253.8</ele>
        <time>2026-05-15T09:09:43Z</time>
      </trkpt>
      <trkpt lat="43.86827" lon="6.5977">
        <ele>1252.6</ele>
        <time>2026-05-15T09:09:44Z</time>
      </trkpt>
      <trkpt lat="43.86832" lon="6.59751">
        <ele>1251.8</ele>
        <time>2026-05-15T09:09:45Z</time>
      </trkpt>
      <trkpt lat="43.86836" lon="6.59731">
        <ele>1250.3</ele>
        <time>2026-05-15T09:09:46Z</time>
      </trkpt>
      <trkpt lat="43.8684" lon="6.59711">
        <ele>1249.2</ele>
        <time>2026-05-15T09:09:47Z</time>
      </trkpt>
      <trkpt lat="43.86843" lon="6.59691">
        <ele>1248.1</ele>
        <time>2026-05-15T09:09:48Z</time>
      </trkpt>
      <trkpt lat="43.86845" lon="6.59672">
        <ele>1247.1</ele>
        <time>2026-05-15T09:09:49Z</time>
      </trkpt>
      <trkpt lat="43.86848" lon="6.59653">
        <ele>1246.4</ele>
        <time>2026-05-15T09:09:50Z</time>
      </trkpt>
      <trkpt lat="43.86853" lon="6.59636">
        <ele>1245.8</ele>
        <time>2026-05-15T09:09:51Z</time>
      </trkpt>
      <trkpt lat="43.86861" lon="6.59623">
        <ele>1245.3</ele>
        <time>2026-05-15T09:09:52Z</time>
      </trkpt>
      <trkpt lat="43.86869" lon="6.59611">
        <ele>1245.1</ele>
        <time>2026-05-15T09:09:53Z</time>
      </trkpt>
      <trkpt lat="43.86875" lon="6.59598">
        <ele>1245.3</ele>
        <time>2026-05-15T09:09:54Z</time>
      </trkpt>
      <trkpt lat="43.86877" lon="6.59583">
        <ele>1244.9</ele>
        <time>2026-05-15T09:09:55Z</time>
      </trkpt>
      <trkpt lat="43.86874" lon="6.59569">
        <ele>1244</ele>
        <time>2026-05-15T09:09:56Z</time>
      </trkpt>
      <trkpt lat="43.86869" lon="6.59554">
        <ele>1242.7</ele>
        <time>2026-05-15T09:09:57Z</time>
      </trkpt>
      <trkpt lat="43.86863" lon="6.59539">
        <ele>1242</ele>
        <time>2026-05-15T09:09:58Z</time>
      </trkpt>
      <trkpt lat="43.86857" lon="6.59524">
        <ele>1241.4</ele>
        <time>2026-05-15T09:09:59Z</time>
      </trkpt>
      <trkpt lat="43.86851" lon="6.5951">
        <ele>1241.1</ele>
        <time>2026-05-15T09:10:00Z</time>
      </trkpt>
      <trkpt lat="43.86845" lon="6.59496">
        <ele>1240.7</ele>
        <time>2026-05-15T09:10:01Z</time>
      </trkpt>
      <trkpt lat="43.86839" lon="6.59482">
        <ele>1239.9</ele>
        <time>2026-05-15T09:10:02Z</time>
      </trkpt>
      <trkpt lat="43.86833" lon="6.59467">
        <ele>1239.1</ele>
        <time>2026-05-15T09:10:03Z</time>
      </trkpt>
      <trkpt lat="43.86828" lon="6.59453">
        <ele>1238.7</ele>
        <time>2026-05-15T09:10:04Z</time>
      </trkpt>
      <trkpt lat="43.86823" lon="6.59438">
        <ele>1237.9</ele>
        <time>2026-05-15T09:10:05Z</time>
      </trkpt>
      <trkpt lat="43.8682" lon="6.59425">
        <ele>1236.9</ele>
        <time>2026-05-15T09:10:06Z</time>
      </trkpt>
      <trkpt lat="43.86819" lon="6.59411">
        <ele>1236</ele>
        <time>2026-05-15T09:10:07Z</time>
      </trkpt>
      <trkpt lat="43.86821" lon="6.59396">
        <ele>1235.3</ele>
        <time>2026-05-15T09:10:08Z</time>
      </trkpt>
      <trkpt lat="43.86825" lon="6.59381">
        <ele>1234.9</ele>
        <time>2026-05-15T09:10:09Z</time>
      </trkpt>
      <trkpt lat="43.8683" lon="6.59366">
        <ele>1234.8</ele>
        <time>2026-05-15T09:10:10Z</time>
      </trkpt>
      <trkpt lat="43.86835" lon="6.59349">
        <ele>1234.5</ele>
        <time>2026-05-15T09:10:11Z</time>
      </trkpt>
      <trkpt lat="43.8684" lon="6.59333">
        <ele>1234.2</ele>
        <time>2026-05-15T09:10:12Z</time>
      </trkpt>
      <trkpt lat="43.86846" lon="6.59319">
        <ele>1233.8</ele>
        <time>2026-05-15T09:10:13Z</time>
      </trkpt>
      <trkpt lat="43.86853" lon="6.59306">
        <ele>1233.2</ele>
        <time>2026-05-15T09:10:14Z</time>
      </trkpt>
      <trkpt lat="43.86861" lon="6.59293">
        <ele>1232.6</ele>
        <time>2026-05-15T09:10:15Z</time>
      </trkpt>
      <trkpt lat="43.86869" lon="6.59281">
        <ele>1232.5</ele>
        <time>2026-05-15T09:10:16Z</time>
      </trkpt>
      <trkpt lat="43.86874" lon="6.59268">
        <ele>1232.5</ele>
        <time>2026-05-15T09:10:17Z</time>
      </trkpt>
      <trkpt lat="43.86876" lon="6.59254">
        <ele>1232.3</ele>
        <time>2026-05-15T09:10:18Z</time>
      </trkpt>
      <trkpt lat="43.86872" lon="6.59242">
        <ele>1231.6</ele>
        <time>2026-05-15T09:10:19Z</time>
      </trkpt>
      <trkpt lat="43.86865" lon="6.59231">
        <ele>1230.6</ele>
        <time>2026-05-15T09:10:20Z</time>
      </trkpt>
      <trkpt lat="43.86856" lon="6.59221">
        <ele>1229.3</ele>
        <time>2026-05-15T09:10:21Z</time>
      </trkpt>
      <trkpt lat="43.86846" lon="6.59212">
        <ele>1228.4</ele>
        <time>2026-05-15T09:10:22Z</time>
      </trkpt>
      <trkpt lat="43.86837" lon="6.59203">
        <ele>1227.8</ele>
        <time>2026-05-15T09:10:23Z</time>
      </trkpt>
      <trkpt lat="43.8683" lon="6.59195">
        <ele>1227.1</ele>
        <time>2026-05-15T09:10:24Z</time>
      </trkpt>
      <trkpt lat="43.86825" lon="6.59186">
        <ele>1226</ele>
        <time>2026-05-15T09:10:25Z</time>
      </trkpt>
      <trkpt lat="43.86821" lon="6.59175">
        <ele>1225.2</ele>
        <time>2026-05-15T09:10:26Z</time>
      </trkpt>
      <trkpt lat="43.8682" lon="6.59162">
        <ele>1225.2</ele>
        <time>2026-05-15T09:10:27Z</time>
      </trkpt>
      <trkpt lat="43.86818" lon="6.59147">
        <ele>1225.1</ele>
        <time>2026-05-15T09:10:28Z</time>
      </trkpt>
      <trkpt lat="43.86817" lon="6.59132">
        <ele>1225.1</ele>
        <time>2026-05-15T09:10:29Z</time>
      </trkpt>
      <trkpt lat="43.86816" lon="6.59117">
        <ele>1224.9</ele>
        <time>2026-05-15T09:10:30Z</time>
      </trkpt>
      <trkpt lat="43.86816" lon="6.591">
        <ele>1224.2</ele>
        <time>2026-05-15T09:10:31Z</time>
      </trkpt>
      <trkpt lat="43.86818" lon="6.59083">
        <ele>1223.7</ele>
        <time>2026-05-15T09:10:32Z</time>
      </trkpt>
      <trkpt lat="43.86821" lon="6.59066">
        <ele>1222.5</ele>
        <time>2026-05-15T09:10:33Z</time>
      </trkpt>
      <trkpt lat="43.86824" lon="6.59049">
        <ele>1221.3</ele>
        <time>2026-05-15T09:10:34Z</time>
      </trkpt>
      <trkpt lat="43.86827" lon="6.59031">
        <ele>1220</ele>
        <time>2026-05-15T09:10:35Z</time>
      </trkpt>
      <trkpt lat="43.8683" lon="6.59013">
        <ele>1218.6</ele>
        <time>2026-05-15T09:10:36Z</time>
      </trkpt>
      <trkpt lat="43.86832" lon="6.58994">
        <ele>1217.4</ele>
        <time>2026-05-15T09:10:37Z</time>
      </trkpt>
      <trkpt lat="43.86834" lon="6.58976">
        <ele>1217.3</ele>
        <time>2026-05-15T09:10:38Z</time>
      </trkpt>
      <trkpt lat="43.86837" lon="6.58958">
        <ele>1216.5</ele>
        <time>2026-05-15T09:10:39Z</time>
      </trkpt>
      <trkpt lat="43.8684" lon="6.5894">
        <ele>1215.3</ele>
        <time>2026-05-15T09:10:40Z</time>
      </trkpt>
      <trkpt lat="43.86843" lon="6.58921">
        <ele>1213.7</ele>
        <time>2026-05-15T09:10:41Z</time>
      </trkpt>
      <trkpt lat="43.86844" lon="6.58903">
        <ele>1213</ele>
        <time>2026-05-15T09:10:42Z</time>
      </trkpt>
      <trkpt lat="43.86843" lon="6.58883">
        <ele>1211.9</ele>
        <time>2026-05-15T09:10:43Z</time>
      </trkpt>
      <trkpt lat="43.86841" lon="6.58864">
        <ele>1210.6</ele>
        <time>2026-05-15T09:10:44Z</time>
      </trkpt>
      <trkpt lat="43.86842" lon="6.58844">
        <ele>1209.8</ele>
        <time>2026-05-15T09:10:45Z</time>
      </trkpt>
      <trkpt lat="43.86845" lon="6.58826">
        <ele>1208.9</ele>
        <time>2026-05-15T09:10:46Z</time>
      </trkpt>
      <trkpt lat="43.8685" lon="6.58811">
        <ele>1207.8</ele>
        <time>2026-05-15T09:10:47Z</time>
      </trkpt>
      <trkpt lat="43.86859" lon="6.58797">
        <ele>1206.8</ele>
        <time>2026-05-15T09:10:48Z</time>
      </trkpt>
      <trkpt lat="43.86869" lon="6.58784">
        <ele>1206</ele>
        <time>2026-05-15T09:10:49Z</time>
      </trkpt>
      <trkpt lat="43.86879" lon="6.5877">
        <ele>1205.6</ele>
        <time>2026-05-15T09:10:50Z</time>
      </trkpt>
      <trkpt lat="43.86888" lon="6.58753">
        <ele>1205.2</ele>
        <time>2026-05-15T09:10:51Z</time>
      </trkpt>
      <trkpt lat="43.86896" lon="6.58735">
        <ele>1204.3</ele>
        <time>2026-05-15T09:10:52Z</time>
      </trkpt>
      <trkpt lat="43.86903" lon="6.58716">
        <ele>1203.2</ele>
        <time>2026-05-15T09:10:53Z</time>
      </trkpt>
      <trkpt lat="43.86909" lon="6.58698">
        <ele>1202.3</ele>
        <time>2026-05-15T09:10:54Z</time>
      </trkpt>
      <trkpt lat="43.86913" lon="6.58679">
        <ele>1201.3</ele>
        <time>2026-05-15T09:10:55Z</time>
      </trkpt>
      <trkpt lat="43.86916" lon="6.58662">
        <ele>1200.8</ele>
        <time>2026-05-15T09:10:56Z</time>
      </trkpt>
      <trkpt lat="43.86917" lon="6.58649">
        <ele>1201.1</ele>
        <time>2026-05-15T09:10:57Z</time>
      </trkpt>
      <trkpt lat="43.86914" lon="6.58638">
        <ele>1200.3</ele>
        <time>2026-05-15T09:10:58Z</time>
      </trkpt>
      <trkpt lat="43.86907" lon="6.58629">
        <ele>1199.2</ele>
        <time>2026-05-15T09:10:59Z</time>
      </trkpt>
      <trkpt lat="43.869" lon="6.5862">
        <ele>1197.8</ele>
        <time>2026-05-15T09:11:00Z</time>
      </trkpt>
      <trkpt lat="43.86893" lon="6.5861">
        <ele>1196.3</ele>
        <time>2026-05-15T09:11:01Z</time>
      </trkpt>
      <trkpt lat="43.8689" lon="6.58596">
        <ele>1195.3</ele>
        <time>2026-05-15T09:11:02Z</time>
      </trkpt>
      <trkpt lat="43.86888" lon="6.5858">
        <ele>1194.6</ele>
        <time>2026-05-15T09:11:03Z</time>
      </trkpt>
      <trkpt lat="43.86887" lon="6.58562">
        <ele>1193.7</ele>
        <time>2026-05-15T09:11:04Z</time>
      </trkpt>
      <trkpt lat="43.86885" lon="6.58543">
        <ele>1192.9</ele>
        <time>2026-05-15T09:11:05Z</time>
      </trkpt>
      <trkpt lat="43.86884" lon="6.58526">
        <ele>1192.6</ele>
        <time>2026-05-15T09:11:06Z</time>
      </trkpt>
      <trkpt lat="43.86882" lon="6.58508">
        <ele>1192</ele>
        <time>2026-05-15T09:11:07Z</time>
      </trkpt>
      <trkpt lat="43.8688" lon="6.5849">
        <ele>1191.1</ele>
        <time>2026-05-15T09:11:08Z</time>
      </trkpt>
      <trkpt lat="43.86878" lon="6.58471">
        <ele>1189.8</ele>
        <time>2026-05-15T09:11:09Z</time>
      </trkpt>
      <trkpt lat="43.86876" lon="6.58452">
        <ele>1189</ele>
        <time>2026-05-15T09:11:10Z</time>
      </trkpt>
      <trkpt lat="43.86873" lon="6.58433">
        <ele>1187.6</ele>
        <time>2026-05-15T09:11:11Z</time>
      </trkpt>
      <trkpt lat="43.8687" lon="6.58413">
        <ele>1186.2</ele>
        <time>2026-05-15T09:11:12Z</time>
      </trkpt>
      <trkpt lat="43.86867" lon="6.58394">
        <ele>1185.3</ele>
        <time>2026-05-15T09:11:13Z</time>
      </trkpt>
      <trkpt lat="43.86864" lon="6.58374">
        <ele>1184.7</ele>
        <time>2026-05-15T09:11:14Z</time>
      </trkpt>
      <trkpt lat="43.8686" lon="6.58353">
        <ele>1183.8</ele>
        <time>2026-05-15T09:11:15Z</time>
      </trkpt>
      <trkpt lat="43.86857" lon="6.58332">
        <ele>1183.2</ele>
        <time>2026-05-15T09:11:16Z</time>
      </trkpt>
      <trkpt lat="43.86854" lon="6.58311">
        <ele>1181.5</ele>
        <time>2026-05-15T09:11:17Z</time>
      </trkpt>
      <trkpt lat="43.86853" lon="6.58291">
        <ele>1180.2</ele>
        <time>2026-05-15T09:11:18Z</time>
      </trkpt>
      <trkpt lat="43.86854" lon="6.58271">
        <ele>1179</ele>
        <time>2026-05-15T09:11:19Z</time>
      </trkpt>
      <trkpt lat="43.86857" lon="6.58251">
        <ele>1177.8</ele>
        <time>2026-05-15T09:11:20Z</time>
      </trkpt>
      <trkpt lat="43.86862" lon="6.58232">
        <ele>1176.6</ele>
        <time>2026-05-15T09:11:21Z</time>
      </trkpt>
      <trkpt lat="43.86869" lon="6.58215">
        <ele>1175.9</ele>
        <time>2026-05-15T09:11:22Z</time>
      </trkpt>
      <trkpt lat="43.86877" lon="6.58199">
        <ele>1175.2</ele>
        <time>2026-05-15T09:11:23Z</time>
      </trkpt>
      <trkpt lat="43.86887" lon="6.58184">
        <ele>1174.7</ele>
        <time>2026-05-15T09:11:24Z</time>
      </trkpt>
      <trkpt lat="43.86898" lon="6.58171">
        <ele>1174.7</ele>
        <time>2026-05-15T09:11:25Z</time>
      </trkpt>
      <trkpt lat="43.86909" lon="6.5816">
        <ele>1175</ele>
        <time>2026-05-15T09:11:26Z</time>
      </trkpt>
      <trkpt lat="43.86919" lon="6.58148">
        <ele>1174.5</ele>
        <time>2026-05-15T09:11:27Z</time>
      </trkpt>
      <trkpt lat="43.86927" lon="6.58136">
        <ele>1174.1</ele>
        <time>2026-05-15T09:11:28Z</time>
      </trkpt>
      <trkpt lat="43.86933" lon="6.58123">
        <ele>1173.3</ele>
        <time>2026-05-15T09:11:29Z</time>
      </trkpt>
      <trkpt lat="43.86937" lon="6.58108">
        <ele>1171.6</ele>
        <time>2026-05-15T09:11:30Z</time>
      </trkpt>
      <trkpt lat="43.86939" lon="6.58093">
        <ele>1169.4</ele>
        <time>2026-05-15T09:11:31Z</time>
      </trkpt>
      <trkpt lat="43.86939" lon="6.58078">
        <ele>1167.4</ele>
        <time>2026-05-15T09:11:32Z</time>
      </trkpt>
      <trkpt lat="43.86939" lon="6.58066">
        <ele>1166.9</ele>
        <time>2026-05-15T09:11:33Z</time>
      </trkpt>
      <trkpt lat="43.86939" lon="6.58056">
        <ele>1166.5</ele>
        <time>2026-05-15T09:11:34Z</time>
      </trkpt>
      <trkpt lat="43.86938" lon="6.58045">
        <ele>1165.8</ele>
        <time>2026-05-15T09:11:35Z</time>
      </trkpt>
      <trkpt lat="43.86938" lon="6.58033">
        <ele>1165.3</ele>
        <time>2026-05-15T09:11:36Z</time>
      </trkpt>
      <trkpt lat="43.86938" lon="6.58023">
        <ele>1165</ele>
        <time>2026-05-15T09:11:37Z</time>
      </trkpt>
      <trkpt lat="43.86939" lon="6.58012">
        <ele>1164.9</ele>
        <time>2026-05-15T09:11:38Z</time>
      </trkpt>
      <trkpt lat="43.8694" lon="6.58003">
        <ele>1164.8</ele>
        <time>2026-05-15T09:11:39Z</time>
      </trkpt>
      <trkpt lat="43.86943" lon="6.57995">
        <ele>1165.6</ele>
        <time>2026-05-15T09:11:40Z</time>
      </trkpt>
      <trkpt lat="43.86946" lon="6.57988">
        <ele>1166.4</ele>
        <time>2026-05-15T09:11:41Z</time>
      </trkpt>
      <trkpt lat="43.8695" lon="6.57981">
        <ele>1167.3</ele>
        <time>2026-05-15T09:11:42Z</time>
      </trkpt>
      <trkpt lat="43.86952" lon="6.57974">
        <ele>1167.7</ele>
        <time>2026-05-15T09:11:43Z</time>
      </trkpt>
      <trkpt lat="43.86954" lon="6.57967">
        <ele>1167.8</ele>
        <time>2026-05-15T09:11:44Z</time>
      </trkpt>
      <trkpt lat="43.86955" lon="6.5796">
        <ele>1167.6</ele>
        <time>2026-05-15T09:11:45Z</time>
      </trkpt>
      <trkpt lat="43.86956" lon="6.57953">
        <ele>1167.4</ele>
        <time>2026-05-15T09:11:46Z</time>
      </trkpt>
      <trkpt lat="43.86957" lon="6.57943">
        <ele>1167.1</ele>
        <time>2026-05-15T09:11:47Z</time>
      </trkpt>
      <trkpt lat="43.86958" lon="6.57933">
        <ele>1167.2</ele>
        <time>2026-05-15T09:11:48Z</time>
      </trkpt>
      <trkpt lat="43.86959" lon="6.57922">
        <ele>1167.3</ele>
        <time>2026-05-15T09:11:49Z</time>
      </trkpt>
      <trkpt lat="43.86959" lon="6.57911">
        <ele>1167</ele>
        <time>2026-05-15T09:11:50Z</time>
      </trkpt>
      <trkpt lat="43.8696" lon="6.57899">
        <ele>1167</ele>
        <time>2026-05-15T09:11:51Z</time>
      </trkpt>
      <trkpt lat="43.86961" lon="6.57887">
        <ele>1166.8</ele>
        <time>2026-05-15T09:11:52Z</time>
      </trkpt>
      <trkpt lat="43.86962" lon="6.57875">
        <ele>1166.3</ele>
        <time>2026-05-15T09:11:53Z</time>
      </trkpt>
      <trkpt lat="43.86965" lon="6.57864">
        <ele>1166.6</ele>
        <time>2026-05-15T09:11:54Z</time>
      </trkpt>
      <trkpt lat="43.8697" lon="6.57853">
        <ele>1166.8</ele>
        <time>2026-05-15T09:11:55Z</time>
      </trkpt>
      <trkpt lat="43.86976" lon="6.57843">
        <ele>1167</ele>
        <time>2026-05-15T09:11:56Z</time>
      </trkpt>
      <trkpt lat="43.86984" lon="6.57834">
        <ele>1167.9</ele>
        <time>2026-05-15T09:11:57Z</time>
      </trkpt>
      <trkpt lat="43.8699" lon="6.57825">
        <ele>1167.6</ele>
        <time>2026-05-15T09:11:58Z</time>
      </trkpt>
      <trkpt lat="43.86997" lon="6.57815">
        <ele>1166.9</ele>
        <time>2026-05-15T09:11:59Z</time>
      </trkpt>
      <trkpt lat="43.87003" lon="6.57805">
        <ele>1165.8</ele>
        <time>2026-05-15T09:12:00Z</time>
      </trkpt>
      <trkpt lat="43.87009" lon="6.57793">
        <ele>1164.6</ele>
        <time>2026-05-15T09:12:01Z</time>
      </trkpt>
      <trkpt lat="43.87015" lon="6.57782">
        <ele>1163.5</ele>
        <time>2026-05-15T09:12:02Z</time>
      </trkpt>
      <trkpt lat="43.8702" lon="6.5777">
        <ele>1162.4</ele>
        <time>2026-05-15T09:12:03Z</time>
      </trkpt>
      <trkpt lat="43.87025" lon="6.57759">
        <ele>1161.9</ele>
        <time>2026-05-15T09:12:04Z</time>
      </trkpt>
      <trkpt lat="43.87029" lon="6.57747">
        <ele>1161</ele>
        <time>2026-05-15T09:12:05Z</time>
      </trkpt>
      <trkpt lat="43.87033" lon="6.57735">
        <ele>1160.7</ele>
        <time>2026-05-15T09:12:06Z</time>
      </trkpt>
      <trkpt lat="43.87036" lon="6.57723">
        <ele>1160.2</ele>
        <time>2026-05-15T09:12:07Z</time>
      </trkpt>
      <trkpt lat="43.87038" lon="6.57711">
        <ele>1160.4</ele>
        <time>2026-05-15T09:12:08Z</time>
      </trkpt>
      <trkpt lat="43.87037" lon="6.57699">
        <ele>1160</ele>
        <time>2026-05-15T09:12:09Z</time>
      </trkpt>
      <trkpt lat="43.87037" lon="6.57686">
        <ele>1160.1</ele>
        <time>2026-05-15T09:12:10Z</time>
      </trkpt>
      <trkpt lat="43.87036" lon="6.57672">
        <ele>1160</ele>
        <time>2026-05-15T09:12:11Z</time>
      </trkpt>
      <trkpt lat="43.87036" lon="6.57658">
        <ele>1159.7</ele>
        <time>2026-05-15T09:12:12Z</time>
      </trkpt>
      <trkpt lat="43.87039" lon="6.57644">
        <ele>1159.7</ele>
        <time>2026-05-15T09:12:13Z</time>
      </trkpt>
      <trkpt lat="43.87043" lon="6.57631">
        <ele>1159.3</ele>
        <time>2026-05-15T09:12:14Z</time>
      </trkpt>
      <trkpt lat="43.87047" lon="6.57618">
        <ele>1159</ele>
        <time>2026-05-15T09:12:15Z</time>
      </trkpt>
      <trkpt lat="43.8705" lon="6.57602">
        <ele>1158.6</ele>
        <time>2026-05-15T09:12:16Z</time>
      </trkpt>
      <trkpt lat="43.87051" lon="6.57585">
        <ele>1158</ele>
        <time>2026-05-15T09:12:17Z</time>
      </trkpt>
      <trkpt lat="43.87051" lon="6.57568">
        <ele>1158.8</ele>
        <time>2026-05-15T09:12:18Z</time>
      </trkpt>
      <trkpt lat="43.87048" lon="6.57551">
        <ele>1158.6</ele>
        <time>2026-05-15T09:12:19Z</time>
      </trkpt>
      <trkpt lat="43.87044" lon="6.57535">
        <ele>1158.5</ele>
        <time>2026-05-15T09:12:20Z</time>
      </trkpt>
      <trkpt lat="43.87037" lon="6.57521">
        <ele>1156</ele>
        <time>2026-05-15T09:12:21Z</time>
      </trkpt>
      <trkpt lat="43.87029" lon="6.57508">
        <ele>1152.7</ele>
        <time>2026-05-15T09:12:22Z</time>
      </trkpt>
      <trkpt lat="43.87023" lon="6.57495">
        <ele>1151.6</ele>
        <time>2026-05-15T09:12:23Z</time>
      </trkpt>
      <trkpt lat="43.87019" lon="6.57482">
        <ele>1152.1</ele>
        <time>2026-05-15T09:12:24Z</time>
      </trkpt>
      <trkpt lat="43.87015" lon="6.57466">
        <ele>1152.2</ele>
        <time>2026-05-15T09:12:25Z</time>
      </trkpt>
      <trkpt lat="43.87012" lon="6.57449">
        <ele>1151.9</ele>
        <time>2026-05-15T09:12:26Z</time>
      </trkpt>
      <trkpt lat="43.8701" lon="6.57431">
        <ele>1152.3</ele>
        <time>2026-05-15T09:12:27Z</time>
      </trkpt>
      <trkpt lat="43.87007" lon="6.57414">
        <ele>1151.7</ele>
        <time>2026-05-15T09:12:28Z</time>
      </trkpt>
      <trkpt lat="43.87003" lon="6.57397">
        <ele>1150.4</ele>
        <time>2026-05-15T09:12:29Z</time>
      </trkpt>
      <trkpt lat="43.86997" lon="6.57381">
        <ele>1148.1</ele>
        <time>2026-05-15T09:12:30Z</time>
      </trkpt>
      <trkpt lat="43.86991" lon="6.57365">
        <ele>1146.6</ele>
        <time>2026-05-15T09:12:31Z</time>
      </trkpt>
      <trkpt lat="43.86984" lon="6.5735">
        <ele>1144.4</ele>
        <time>2026-05-15T09:12:32Z</time>
      </trkpt>
      <trkpt lat="43.86977" lon="6.57334">
        <ele>1142.3</ele>
        <time>2026-05-15T09:12:33Z</time>
      </trkpt>
      <trkpt lat="43.86971" lon="6.57317">
        <ele>1140.5</ele>
        <time>2026-05-15T09:12:34Z</time>
      </trkpt>
      <trkpt lat="43.86966" lon="6.573">
        <ele>1139</ele>
        <time>2026-05-15T09:12:35Z</time>
      </trkpt>
      <trkpt lat="43.86962" lon="6.57281">
        <ele>1137.9</ele>
        <time>2026-05-15T09:12:36Z</time>
      </trkpt>
      <trkpt lat="43.86961" lon="6.5726">
        <ele>1137.8</ele>
        <time>2026-05-15T09:12:37Z</time>
      </trkpt>
      <trkpt lat="43.8696" lon="6.5724">
        <ele>1137.2</ele>
        <time>2026-05-15T09:12:38Z</time>
      </trkpt>
      <trkpt lat="43.8696" lon="6.57219">
        <ele>1136.4</ele>
        <time>2026-05-15T09:12:39Z</time>
      </trkpt>
      <trkpt lat="43.8696" lon="6.57199">
        <ele>1133.9</ele>
        <time>2026-05-15T09:12:40Z</time>
      </trkpt>
      <trkpt lat="43.86961" lon="6.57179">
        <ele>1131.7</ele>
        <time>2026-05-15T09:12:41Z</time>
      </trkpt>
      <trkpt lat="43.86964" lon="6.57161">
        <ele>1130.5</ele>
        <time>2026-05-15T09:12:42Z</time>
      </trkpt>
      <trkpt lat="43.86967" lon="6.57148">
        <ele>1129.6</ele>
        <time>2026-05-15T09:12:43Z</time>
      </trkpt>
      <trkpt lat="43.86971" lon="6.57139">
        <ele>1129.6</ele>
        <time>2026-05-15T09:12:44Z</time>
      </trkpt>
      <trkpt lat="43.86974" lon="6.57132">
        <ele>1129.4</ele>
        <time>2026-05-15T09:12:45Z</time>
      </trkpt>
      <trkpt lat="43.86977" lon="6.57126">
        <ele>1129.2</ele>
        <time>2026-05-15T09:12:46Z</time>
      </trkpt>
      <trkpt lat="43.8698" lon="6.57121">
        <ele>1129.2</ele>
        <time>2026-05-15T09:12:47Z</time>
      </trkpt>
      <trkpt lat="43.86983" lon="6.57115">
        <ele>1128.9</ele>
        <time>2026-05-15T09:12:48Z</time>
      </trkpt>
      <trkpt lat="43.86986" lon="6.57109">
        <ele>1128.6</ele>
        <time>2026-05-15T09:12:49Z</time>
      </trkpt>
      <trkpt lat="43.8699" lon="6.57103">
        <ele>1128.5</ele>
        <time>2026-05-15T09:12:50Z</time>
      </trkpt>
      <trkpt lat="43.86993" lon="6.57098">
        <ele>1128.3</ele>
        <time>2026-05-15T09:12:51Z</time>
      </trkpt>
      <trkpt lat="43.86995" lon="6.57094">
        <ele>1128</ele>
        <time>2026-05-15T09:12:52Z</time>
      </trkpt>
      <trkpt lat="43.86997" lon="6.57091">
        <ele>1127.9</ele>
        <time>2026-05-15T09:12:53Z</time>
      </trkpt>
      <trkpt lat="43.86998" lon="6.57088">
        <ele>1127.5</ele>
        <time>2026-05-15T09:12:54Z</time>
      </trkpt>
      <trkpt lat="43.87" lon="6.57086">
        <ele>1127.6</ele>
        <time>2026-05-15T09:12:55Z</time>
      </trkpt>
      <trkpt lat="43.87002" lon="6.57082">
        <ele>1127.5</ele>
        <time>2026-05-15T09:12:56Z</time>
      </trkpt>
      <trkpt lat="43.87004" lon="6.57079">
        <ele>1127.7</ele>
        <time>2026-05-15T09:12:57Z</time>
      </trkpt>
      <trkpt lat="43.87005" lon="6.57076">
        <ele>1127.6</ele>
        <time>2026-05-15T09:12:58Z</time>
      </trkpt>
      <trkpt lat="43.87007" lon="6.57072">
        <ele>1127.6</ele>
        <time>2026-05-15T09:12:59Z</time>
      </trkpt>
      <trkpt lat="43.87009" lon="6.57069">
        <ele>1127.9</ele>
        <time>2026-05-15T09:13:00Z</time>
      </trkpt>
      <trkpt lat="43.87011" lon="6.57065">
        <ele>1127.9</ele>
        <time>2026-05-15T09:13:01Z</time>
      </trkpt>
      <trkpt lat="43.87013" lon="6.57062">
        <ele>1128.1</ele>
        <time>2026-05-15T09:13:02Z</time>
      </trkpt>
      <trkpt lat="43.87015" lon="6.5706">
        <ele>1128.5</ele>
        <time>2026-05-15T09:13:03Z</time>
      </trkpt>
      <trkpt lat="43.87017" lon="6.57057">
        <ele>1128.7</ele>
        <time>2026-05-15T09:13:04Z</time>
      </trkpt>
      <trkpt lat="43.87019" lon="6.57055">
        <ele>1129.1</ele>
        <time>2026-05-15T09:13:05Z</time>
      </trkpt>
      <trkpt lat="43.87021" lon="6.57053">
        <ele>1129.5</ele>
        <time>2026-05-15T09:13:06Z</time>
      </trkpt>
      <trkpt lat="43.87023" lon="6.57051">
        <ele>1129.9</ele>
        <time>2026-05-15T09:13:07Z</time>
      </trkpt>
      <trkpt lat="43.87025" lon="6.57049">
        <ele>1130.4</ele>
        <time>2026-05-15T09:13:08Z</time>
      </trkpt>
      <trkpt lat="43.87027" lon="6.57047">
        <ele>1130.8</ele>
        <time>2026-05-15T09:13:09Z</time>
      </trkpt>
      <trkpt lat="43.87028" lon="6.57045">
        <ele>1131</ele>
        <time>2026-05-15T09:13:10Z</time>
      </trkpt>
      <trkpt lat="43.87029" lon="6.57044">
        <ele>1131.3</ele>
        <time>2026-05-15T09:13:11Z</time>
      </trkpt>
      <trkpt lat="43.87029" lon="6.57044">
        <ele>1131.3</ele>
        <time>2026-05-15T09:13:12Z</time>
      </trkpt>
      <trkpt lat="43.87028" lon="6.57044">
        <ele>1130.9</ele>
        <time>2026-05-15T09:13:13Z</time>
      </trkpt>
      <trkpt lat="43.87028" lon="6.57044">
        <ele>1130.9</ele>
        <time>2026-05-15T09:13:14Z</time>
      </trkpt>
      <trkpt lat="43.87028" lon="6.57044">
        <ele>1130.9</ele>
        <time>2026-05-15T09:13:15Z</time>
      </trkpt>
      <trkpt lat="43.87028" lon="6.57044">
        <ele>1130.9</ele>
        <time>2026-05-15T09:13:16Z</time>
      </trkpt>
      <trkpt lat="43.87028" lon="6.57044">
        <ele>1130.9</ele>
        <time>2026-05-15T09:13:17Z</time>
      </trkpt>
      <trkpt lat="43.87028" lon="6.57044">
        <ele>1130.9</ele>
        <time>2026-05-15T09:13:18Z</time>
      </trkpt>
      <trkpt lat="43.87028" lon="6.57044">
        <ele>1130.9</ele>
        <time>2026-05-15T09:13:19Z</time>
      </trkpt>
      <trkpt lat="43.87028" lon="6.57044">
        <ele>1130.9</ele>
        <time>2026-05-15T09:13:20Z</time>
      </trkpt>
      <trkpt lat="43.87028" lon="6.57044">
        <ele>1130.9</ele>
        <time>2026-05-15T09:13:21Z</time>
      </trkpt>
      <trkpt lat="43.87028" lon="6.57044">
        <ele>1130.9</ele>
        <time>2026-05-15T09:13:22Z</time>
      </trkpt>
      <trkpt lat="43.87028" lon="6.57043">
        <ele>1130.7</ele>
        <time>2026-05-15T09:13:23Z</time>
      </trkpt>
      <trkpt lat="43.87028" lon="6.57043">
        <ele>1130.7</ele>
        <time>2026-05-15T09:13:24Z</time>
      </trkpt>
      <trkpt lat="43.87028" lon="6.57044">
        <ele>1130.9</ele>
        <time>2026-05-15T09:13:25Z</time>
      </trkpt>
      <trkpt lat="43.87028" lon="6.57044">
        <ele>1130.9</ele>
        <time>2026-05-15T09:13:26Z</time>
      </trkpt>
      <trkpt lat="43.87028" lon="6.57044">
        <ele>1130.9</ele>
        <time>2026-05-15T09:13:27Z</time>
      </trkpt>
      <trkpt lat="43.87028" lon="6.57044">
        <ele>1130.9</ele>
        <time>2026-05-15T09:13:28Z</time>
      </trkpt>
      <trkpt lat="43.87028" lon="6.57044">
        <ele>1130.9</ele>
        <time>2026-05-15T09:13:29Z</time>
      </trkpt>
      <trkpt lat="43.87028" lon="6.57044">
        <ele>1130.9</ele>
        <time>2026-05-15T09:13:30Z</time>
      </trkpt>
      <trkpt lat="43.87028" lon="6.57044">
        <ele>1130.9</ele>
        <time>2026-05-15T09:13:31Z</time>
      </trkpt>
      <trkpt lat="43.87028" lon="6.57044">
        <ele>1130.9</ele>
        <time>2026-05-15T09:13:32Z</time>
      </trkpt>
      <trkpt lat="43.87028" lon="6.57044">
        <ele>1130.9</ele>
        <time>2026-05-15T09:13:33Z</time>
      </trkpt>
      <trkpt lat="43.87031" lon="6.57045">
        <ele>1132.3</ele>
        <time>2026-05-15T09:37:19Z</time>
      </trkpt>
      <trkpt lat="43.87029" lon="6.57046">
        <ele>1131.5</ele>
        <time>2026-05-15T09:37:20Z</time>
      </trkpt>
      <trkpt lat="43.87028" lon="6.57045">
        <ele>1131</ele>
        <time>2026-05-15T09:37:21Z</time>
      </trkpt>
      <trkpt lat="43.87028" lon="6.57046">
        <ele>1131.1</ele>
        <time>2026-05-15T09:37:22Z</time>
      </trkpt>
      <trkpt lat="43.87027" lon="6.57046">
        <ele>1130.7</ele>
        <time>2026-05-15T09:37:23Z</time>
      </trkpt>
      <trkpt lat="43.87027" lon="6.57044">
        <ele>1130.5</ele>
        <time>2026-05-15T09:37:24Z</time>
      </trkpt>
      <trkpt lat="43.87029" lon="6.57045">
        <ele>1131.4</ele>
        <time>2026-05-15T09:37:25Z</time>
      </trkpt>
      <trkpt lat="43.87027" lon="6.57044">
        <ele>1130.5</ele>
        <time>2026-05-15T09:37:26Z</time>
      </trkpt>
      <trkpt lat="43.87027" lon="6.57045">
        <ele>1130.6</ele>
        <time>2026-05-15T09:37:27Z</time>
      </trkpt>
      <trkpt lat="43.87027" lon="6.57045">
        <ele>1130.6</ele>
        <time>2026-05-15T09:37:28Z</time>
      </trkpt>
      <trkpt lat="43.87027" lon="6.57045">
        <ele>1130.6</ele>
        <time>2026-05-15T09:37:29Z</time>
      </trkpt>
      <trkpt lat="43.87027" lon="6.57045">
        <ele>1130.6</ele>
        <time>2026-05-15T09:37:30Z</time>
      </trkpt>
      <trkpt lat="43.87027" lon="6.57045">
        <ele>1130.6</ele>
        <time>2026-05-15T09:37:31Z</time>
      </trkpt>
      <trkpt lat="43.87028" lon="6.57044">
        <ele>1130.9</ele>
        <time>2026-05-15T09:37:32Z</time>
      </trkpt>
      <trkpt lat="43.87028" lon="6.57044">
        <ele>1130.9</ele>
        <time>2026-05-15T09:37:33Z</time>
      </trkpt>
      <trkpt lat="43.87028" lon="6.57044">
        <ele>1130.9</ele>
        <time>2026-05-15T09:37:34Z</time>
      </trkpt>
      <trkpt lat="43.87028" lon="6.57043">
        <ele>1130.7</ele>
        <time>2026-05-15T09:37:35Z</time>
      </trkpt>
      <trkpt lat="43.87028" lon="6.57043">
        <ele>1130.7</ele>
        <time>2026-05-15T09:37:36Z</time>
      </trkpt>
      <trkpt lat="43.87028" lon="6.57043">
        <ele>1130.7</ele>
        <time>2026-05-15T09:37:37Z</time>
      </trkpt>
      <trkpt lat="43.87028" lon="6.57043">
        <ele>1130.7</ele>
        <time>2026-05-15T09:37:38Z</time>
      </trkpt>
      <trkpt lat="43.87028" lon="6.57043">
        <ele>1130.7</ele>
        <time>2026-05-15T09:37:39Z</time>
      </trkpt>
      <trkpt lat="43.87028" lon="6.57043">
        <ele>1130.7</ele>
        <time>2026-05-15T09:37:40Z</time>
      </trkpt>
      <trkpt lat="43.87028" lon="6.57042">
        <ele>1130.6</ele>
        <time>2026-05-15T09:37:41Z</time>
      </trkpt>
      <trkpt lat="43.87028" lon="6.57042">
        <ele>1130.6</ele>
        <time>2026-05-15T09:37:42Z</time>
      </trkpt>
      <trkpt lat="43.87029" lon="6.57041">
        <ele>1131</ele>
        <time>2026-05-15T09:37:43Z</time>
      </trkpt>
      <trkpt lat="43.87029" lon="6.57039">
        <ele>1130.8</ele>
        <time>2026-05-15T09:37:44Z</time>
      </trkpt>
      <trkpt lat="43.8703" lon="6.57034">
        <ele>1130.7</ele>
        <time>2026-05-15T09:37:45Z</time>
      </trkpt>
      <trkpt lat="43.87031" lon="6.57028">
        <ele>1130.5</ele>
        <time>2026-05-15T09:37:46Z</time>
      </trkpt>
      <trkpt lat="43.87032" lon="6.57022">
        <ele>1130.6</ele>
        <time>2026-05-15T09:37:47Z</time>
      </trkpt>
      <trkpt lat="43.87036" lon="6.57016">
        <ele>1132</ele>
        <time>2026-05-15T09:37:48Z</time>
      </trkpt>
      <trkpt lat="43.8704" lon="6.57007">
        <ele>1133.2</ele>
        <time>2026-05-15T09:37:49Z</time>
      </trkpt>
      <trkpt lat="43.87044" lon="6.56999">
        <ele>1134.5</ele>
        <time>2026-05-15T09:37:50Z</time>
      </trkpt>
      <trkpt lat="43.87049" lon="6.56991">
        <ele>1136</ele>
        <time>2026-05-15T09:37:51Z</time>
      </trkpt>
      <trkpt lat="43.87054" lon="6.56981">
        <ele>1137.3</ele>
        <time>2026-05-15T09:37:52Z</time>
      </trkpt>
      <trkpt lat="43.87059" lon="6.5697">
        <ele>1138.3</ele>
        <time>2026-05-15T09:37:53Z</time>
      </trkpt>
      <trkpt lat="43.87065" lon="6.56959">
        <ele>1139.5</ele>
        <time>2026-05-15T09:37:54Z</time>
      </trkpt>
      <trkpt lat="43.87072" lon="6.56947">
        <ele>1141.1</ele>
        <time>2026-05-15T09:37:55Z</time>
      </trkpt>
      <trkpt lat="43.8708" lon="6.56933">
        <ele>1142.8</ele>
        <time>2026-05-15T09:37:56Z</time>
      </trkpt>
      <trkpt lat="43.87087" lon="6.56918">
        <ele>1144</ele>
        <time>2026-05-15T09:37:57Z</time>
      </trkpt>
      <trkpt lat="43.87095" lon="6.56904">
        <ele>1145.2</ele>
        <time>2026-05-15T09:37:58Z</time>
      </trkpt>
      <trkpt lat="43.87103" lon="6.5689">
        <ele>1145.8</ele>
        <time>2026-05-15T09:37:59Z</time>
      </trkpt>
      <trkpt lat="43.87111" lon="6.56875">
        <ele>1146.5</ele>
        <time>2026-05-15T09:38:00Z</time>
      </trkpt>
      <trkpt lat="43.8712" lon="6.56863">
        <ele>1148.2</ele>
        <time>2026-05-15T09:38:01Z</time>
      </trkpt>
      <trkpt lat="43.8713" lon="6.56853">
        <ele>1149.5</ele>
        <time>2026-05-15T09:38:02Z</time>
      </trkpt>
      <trkpt lat="43.87142" lon="6.56844">
        <ele>1151</ele>
        <time>2026-05-15T09:38:03Z</time>
      </trkpt>
      <trkpt lat="43.87155" lon="6.56835">
        <ele>1151.9</ele>
        <time>2026-05-15T09:38:04Z</time>
      </trkpt>
      <trkpt lat="43.8717" lon="6.56828">
        <ele>1153.8</ele>
        <time>2026-05-15T09:38:05Z</time>
      </trkpt>
      <trkpt lat="43.87185" lon="6.56822">
        <ele>1155.9</ele>
        <time>2026-05-15T09:38:06Z</time>
      </trkpt>
      <trkpt lat="43.87198" lon="6.56817">
        <ele>1156.7</ele>
        <time>2026-05-15T09:38:07Z</time>
      </trkpt>
      <trkpt lat="43.87212" lon="6.56814">
        <ele>1157.1</ele>
        <time>2026-05-15T09:38:08Z</time>
      </trkpt>
      <trkpt lat="43.87223" lon="6.56809">
        <ele>1155.9</ele>
        <time>2026-05-15T09:38:09Z</time>
      </trkpt>
      <trkpt lat="43.87235" lon="6.56803">
        <ele>1153.4</ele>
        <time>2026-05-15T09:38:10Z</time>
      </trkpt>
      <trkpt lat="43.87246" lon="6.56796">
        <ele>1149.9</ele>
        <time>2026-05-15T09:38:11Z</time>
      </trkpt>
      <trkpt lat="43.87258" lon="6.56789">
        <ele>1145.9</ele>
        <time>2026-05-15T09:38:12Z</time>
      </trkpt>
      <trkpt lat="43.87268" lon="6.56779">
        <ele>1140.3</ele>
        <time>2026-05-15T09:38:13Z</time>
      </trkpt>
      <trkpt lat="43.87279" lon="6.56769">
        <ele>1135</ele>
        <time>2026-05-15T09:38:14Z</time>
      </trkpt>
      <trkpt lat="43.8729" lon="6.56757">
        <ele>1129</ele>
        <time>2026-05-15T09:38:15Z</time>
      </trkpt>
      <trkpt lat="43.87299" lon="6.56745">
        <ele>1124.3</ele>
        <time>2026-05-15T09:38:16Z</time>
      </trkpt>
      <trkpt lat="43.87308" lon="6.56732">
        <ele>1121.3</ele>
        <time>2026-05-15T09:38:17Z</time>
      </trkpt>
      <trkpt lat="43.87316" lon="6.56717">
        <ele>1121.7</ele>
        <time>2026-05-15T09:38:18Z</time>
      </trkpt>
      <trkpt lat="43.87324" lon="6.56702">
        <ele>1127.2</ele>
        <time>2026-05-15T09:38:19Z</time>
      </trkpt>
      <trkpt lat="43.8733" lon="6.56686">
        <ele>1134.9</ele>
        <time>2026-05-15T09:38:20Z</time>
      </trkpt>
      <trkpt lat="43.87336" lon="6.56671">
        <ele>1143.7</ele>
        <time>2026-05-15T09:38:21Z</time>
      </trkpt>
      <trkpt lat="43.87339" lon="6.5666">
        <ele>1148.8</ele>
        <time>2026-05-15T09:38:22Z</time>
      </trkpt>
      <trkpt lat="43.87341" lon="6.5665">
        <ele>1153.1</ele>
        <time>2026-05-15T09:38:23Z</time>
      </trkpt>
      <trkpt lat="43.87341" lon="6.5664">
        <ele>1157</ele>
        <time>2026-05-15T09:38:24Z</time>
      </trkpt>
      <trkpt lat="43.8734" lon="6.5663">
        <ele>1158.9</ele>
        <time>2026-05-15T09:38:25Z</time>
      </trkpt>
      <trkpt lat="43.87337" lon="6.5662">
        <ele>1159.9</ele>
        <time>2026-05-15T09:38:26Z</time>
      </trkpt>
      <trkpt lat="43.87332" lon="6.56608">
        <ele>1160</ele>
        <time>2026-05-15T09:38:27Z</time>
      </trkpt>
      <trkpt lat="43.87328" lon="6.56594">
        <ele>1160.7</ele>
        <time>2026-05-15T09:38:28Z</time>
      </trkpt>
      <trkpt lat="43.87323" lon="6.56578">
        <ele>1160.6</ele>
        <time>2026-05-15T09:38:29Z</time>
      </trkpt>
      <trkpt lat="43.87321" lon="6.56561">
        <ele>1161.2</ele>
        <time>2026-05-15T09:38:30Z</time>
      </trkpt>
      <trkpt lat="43.87321" lon="6.56543">
        <ele>1161.4</ele>
        <time>2026-05-15T09:38:31Z</time>
      </trkpt>
      <trkpt lat="43.87322" lon="6.56525">
        <ele>1161.4</ele>
        <time>2026-05-15T09:38:32Z</time>
      </trkpt>
      <trkpt lat="43.87323" lon="6.56507">
        <ele>1161</ele>
        <time>2026-05-15T09:38:33Z</time>
      </trkpt>
      <trkpt lat="43.87324" lon="6.56489">
        <ele>1160.3</ele>
        <time>2026-05-15T09:38:34Z</time>
      </trkpt>
      <trkpt lat="43.87326" lon="6.56471">
        <ele>1160</ele>
        <time>2026-05-15T09:38:35Z</time>
      </trkpt>
      <trkpt lat="43.87328" lon="6.56454">
        <ele>1158.9</ele>
        <time>2026-05-15T09:38:36Z</time>
      </trkpt>
      <trkpt lat="43.87332" lon="6.56439">
        <ele>1158.9</ele>
        <time>2026-05-15T09:38:37Z</time>
      </trkpt>
      <trkpt lat="43.87337" lon="6.56424">
        <ele>1159.5</ele>
        <time>2026-05-15T09:38:38Z</time>
      </trkpt>
      <trkpt lat="43.87345" lon="6.56411">
        <ele>1160.5</ele>
        <time>2026-05-15T09:38:39Z</time>
      </trkpt>
      <trkpt lat="43.87355" lon="6.564">
        <ele>1161</ele>
        <time>2026-05-15T09:38:40Z</time>
      </trkpt>
      <trkpt lat="43.87366" lon="6.5639">
        <ele>1160.4</ele>
        <time>2026-05-15T09:38:41Z</time>
      </trkpt>
      <trkpt lat="43.87377" lon="6.56382">
        <ele>1160.8</ele>
        <time>2026-05-15T09:38:42Z</time>
      </trkpt>
      <trkpt lat="43.87388" lon="6.56374">
        <ele>1161.1</ele>
        <time>2026-05-15T09:38:43Z</time>
      </trkpt>
      <trkpt lat="43.87399" lon="6.56365">
        <ele>1161.5</ele>
        <time>2026-05-15T09:38:44Z</time>
      </trkpt>
      <trkpt lat="43.87411" lon="6.56357">
        <ele>1161.6</ele>
        <time>2026-05-15T09:38:45Z</time>
      </trkpt>
      <trkpt lat="43.87423" lon="6.56349">
        <ele>1162.6</ele>
        <time>2026-05-15T09:38:46Z</time>
      </trkpt>
      <trkpt lat="43.87435" lon="6.56339">
        <ele>1161.9</ele>
        <time>2026-05-15T09:38:47Z</time>
      </trkpt>
      <trkpt lat="43.87447" lon="6.56327">
        <ele>1161.4</ele>
        <time>2026-05-15T09:38:48Z</time>
      </trkpt>
      <trkpt lat="43.87456" lon="6.56312">
        <ele>1162.6</ele>
        <time>2026-05-15T09:38:49Z</time>
      </trkpt>
      <trkpt lat="43.87462" lon="6.56293">
        <ele>1161.6</ele>
        <time>2026-05-15T09:38:50Z</time>
      </trkpt>
      <trkpt lat="43.87467" lon="6.56273">
        <ele>1161.2</ele>
        <time>2026-05-15T09:38:51Z</time>
      </trkpt>
      <trkpt lat="43.87472" lon="6.56252">
        <ele>1161.1</ele>
        <time>2026-05-15T09:38:52Z</time>
      </trkpt>
      <trkpt lat="43.87477" lon="6.56232">
        <ele>1161.9</ele>
        <time>2026-05-15T09:38:53Z</time>
      </trkpt>
      <trkpt lat="43.87482" lon="6.56211">
        <ele>1162.5</ele>
        <time>2026-05-15T09:38:54Z</time>
      </trkpt>
      <trkpt lat="43.87488" lon="6.56191">
        <ele>1163.2</ele>
        <time>2026-05-15T09:38:55Z</time>
      </trkpt>
      <trkpt lat="43.87496" lon="6.56173">
        <ele>1162.5</ele>
        <time>2026-05-15T09:38:56Z</time>
      </trkpt>
      <trkpt lat="43.87507" lon="6.56157">
        <ele>1163.7</ele>
        <time>2026-05-15T09:38:57Z</time>
      </trkpt>
      <trkpt lat="43.8752" lon="6.56144">
        <ele>1164.9</ele>
        <time>2026-05-15T09:38:58Z</time>
      </trkpt>
      <trkpt lat="43.87533" lon="6.56131">
        <ele>1164.7</ele>
        <time>2026-05-15T09:38:59Z</time>
      </trkpt>
      <trkpt lat="43.87546" lon="6.5612">
        <ele>1164.6</ele>
        <time>2026-05-15T09:39:00Z</time>
      </trkpt>
      <trkpt lat="43.87558" lon="6.56107">
        <ele>1163.8</ele>
        <time>2026-05-15T09:39:01Z</time>
      </trkpt>
      <trkpt lat="43.87568" lon="6.56091">
        <ele>1166.1</ele>
        <time>2026-05-15T09:39:02Z</time>
      </trkpt>
      <trkpt lat="43.87576" lon="6.56072">
        <ele>1164.7</ele>
        <time>2026-05-15T09:39:03Z</time>
      </trkpt>
      <trkpt lat="43.87582" lon="6.56051">
        <ele>1161.9</ele>
        <time>2026-05-15T09:39:04Z</time>
      </trkpt>
      <trkpt lat="43.87588" lon="6.56031">
        <ele>1160.1</ele>
        <time>2026-05-15T09:39:05Z</time>
      </trkpt>
      <trkpt lat="43.87593" lon="6.5601">
        <ele>1158.5</ele>
        <time>2026-05-15T09:39:06Z</time>
      </trkpt>
      <trkpt lat="43.87598" lon="6.5599">
        <ele>1156.4</ele>
        <time>2026-05-15T09:39:07Z</time>
      </trkpt>
      <trkpt lat="43.87604" lon="6.5597">
        <ele>1154.7</ele>
        <time>2026-05-15T09:39:08Z</time>
      </trkpt>
      <trkpt lat="43.87609" lon="6.5595">
        <ele>1153</ele>
        <time>2026-05-15T09:39:09Z</time>
      </trkpt>
      <trkpt lat="43.87615" lon="6.55931">
        <ele>1152.5</ele>
        <time>2026-05-15T09:39:10Z</time>
      </trkpt>
      <trkpt lat="43.8762" lon="6.55912">
        <ele>1151.2</ele>
        <time>2026-05-15T09:39:11Z</time>
      </trkpt>
      <trkpt lat="43.87626" lon="6.55895">
        <ele>1149.8</ele>
        <time>2026-05-15T09:39:12Z</time>
      </trkpt>
      <trkpt lat="43.87634" lon="6.55882">
        <ele>1148.9</ele>
        <time>2026-05-15T09:39:13Z</time>
      </trkpt>
      <trkpt lat="43.87645" lon="6.55871">
        <ele>1148</ele>
        <time>2026-05-15T09:39:14Z</time>
      </trkpt>
      <trkpt lat="43.87659" lon="6.55862">
        <ele>1146.7</ele>
        <time>2026-05-15T09:39:15Z</time>
      </trkpt>
      <trkpt lat="43.87673" lon="6.55855">
        <ele>1145.7</ele>
        <time>2026-05-15T09:39:16Z</time>
      </trkpt>
      <trkpt lat="43.87688" lon="6.55848">
        <ele>1144.5</ele>
        <time>2026-05-15T09:39:17Z</time>
      </trkpt>
      <trkpt lat="43.87703" lon="6.55841">
        <ele>1143.7</ele>
        <time>2026-05-15T09:39:18Z</time>
      </trkpt>
      <trkpt lat="43.87719" lon="6.55834">
        <ele>1143</ele>
        <time>2026-05-15T09:39:19Z</time>
      </trkpt>
      <trkpt lat="43.87735" lon="6.55827">
        <ele>1142.4</ele>
        <time>2026-05-15T09:39:20Z</time>
      </trkpt>
      <trkpt lat="43.8775" lon="6.55819">
        <ele>1141.9</ele>
        <time>2026-05-15T09:39:21Z</time>
      </trkpt>
      <trkpt lat="43.87765" lon="6.55811">
        <ele>1142.3</ele>
        <time>2026-05-15T09:39:22Z</time>
      </trkpt>
      <trkpt lat="43.87779" lon="6.558">
        <ele>1141.9</ele>
        <time>2026-05-15T09:39:23Z</time>
      </trkpt>
      <trkpt lat="43.87791" lon="6.55787">
        <ele>1141.2</ele>
        <time>2026-05-15T09:39:24Z</time>
      </trkpt>
      <trkpt lat="43.87802" lon="6.55773">
        <ele>1139.8</ele>
        <time>2026-05-15T09:39:25Z</time>
      </trkpt>
      <trkpt lat="43.87812" lon="6.55759">
        <ele>1137.8</ele>
        <time>2026-05-15T09:39:26Z</time>
      </trkpt>
      <trkpt lat="43.87823" lon="6.55747">
        <ele>1136.2</ele>
        <time>2026-05-15T09:39:27Z</time>
      </trkpt>
      <trkpt lat="43.87836" lon="6.55738">
        <ele>1135.9</ele>
        <time>2026-05-15T09:39:28Z</time>
      </trkpt>
      <trkpt lat="43.87849" lon="6.55733">
        <ele>1136.4</ele>
        <time>2026-05-15T09:39:29Z</time>
      </trkpt>
      <trkpt lat="43.87863" lon="6.55727">
        <ele>1136.6</ele>
        <time>2026-05-15T09:39:30Z</time>
      </trkpt>
      <trkpt lat="43.87876" lon="6.55719">
        <ele>1135.7</ele>
        <time>2026-05-15T09:39:31Z</time>
      </trkpt>
      <trkpt lat="43.87888" lon="6.5571">
        <ele>1134.8</ele>
        <time>2026-05-15T09:39:32Z</time>
      </trkpt>
      <trkpt lat="43.87899" lon="6.557">
        <ele>1134.2</ele>
        <time>2026-05-15T09:39:33Z</time>
      </trkpt>
      <trkpt lat="43.8791" lon="6.5569">
        <ele>1133.5</ele>
        <time>2026-05-15T09:39:34Z</time>
      </trkpt>
      <trkpt lat="43.87921" lon="6.55679">
        <ele>1132.3</ele>
        <time>2026-05-15T09:39:35Z</time>
      </trkpt>
      <trkpt lat="43.87931" lon="6.55669">
        <ele>1131.2</ele>
        <time>2026-05-15T09:39:36Z</time>
      </trkpt>
      <trkpt lat="43.8794" lon="6.5566">
        <ele>1130.5</ele>
        <time>2026-05-15T09:39:37Z</time>
      </trkpt>
      <trkpt lat="43.87947" lon="6.55652">
        <ele>1129.7</ele>
        <time>2026-05-15T09:39:38Z</time>
      </trkpt>
      <trkpt lat="43.87955" lon="6.55645">
        <ele>1128.8</ele>
        <time>2026-05-15T09:39:39Z</time>
      </trkpt>
      <trkpt lat="43.87962" lon="6.55638">
        <ele>1127.7</ele>
        <time>2026-05-15T09:39:40Z</time>
      </trkpt>
      <trkpt lat="43.87969" lon="6.55631">
        <ele>1126.9</ele>
        <time>2026-05-15T09:39:41Z</time>
      </trkpt>
      <trkpt lat="43.87976" lon="6.55624">
        <ele>1126.5</ele>
        <time>2026-05-15T09:39:42Z</time>
      </trkpt>
      <trkpt lat="43.87982" lon="6.55616">
        <ele>1125.9</ele>
        <time>2026-05-15T09:39:43Z</time>
      </trkpt>
      <trkpt lat="43.87986" lon="6.55607">
        <ele>1124.8</ele>
        <time>2026-05-15T09:39:44Z</time>
      </trkpt>
      <trkpt lat="43.87986" lon="6.55597">
        <ele>1123.2</ele>
        <time>2026-05-15T09:39:45Z</time>
      </trkpt>
      <trkpt lat="43.87983" lon="6.55587">
        <ele>1121.1</ele>
        <time>2026-05-15T09:39:46Z</time>
      </trkpt>
      <trkpt lat="43.87978" lon="6.55581">
        <ele>1119.3</ele>
        <time>2026-05-15T09:39:47Z</time>
      </trkpt>
      <trkpt lat="43.87971" lon="6.55578">
        <ele>1117.6</ele>
        <time>2026-05-15T09:39:48Z</time>
      </trkpt>
      <trkpt lat="43.87962" lon="6.55579">
        <ele>1116.2</ele>
        <time>2026-05-15T09:39:49Z</time>
      </trkpt>
      <trkpt lat="43.87954" lon="6.55585">
        <ele>1116</ele>
        <time>2026-05-15T09:39:50Z</time>
      </trkpt>
      <trkpt lat="43.87946" lon="6.55595">
        <ele>1116.8</ele>
        <time>2026-05-15T09:39:51Z</time>
      </trkpt>
      <trkpt lat="43.87937" lon="6.55607">
        <ele>1117.5</ele>
        <time>2026-05-15T09:39:52Z</time>
      </trkpt>
      <trkpt lat="43.87928" lon="6.55619">
        <ele>1118.3</ele>
        <time>2026-05-15T09:39:53Z</time>
      </trkpt>
      <trkpt lat="43.87917" lon="6.55631">
        <ele>1119.1</ele>
        <time>2026-05-15T09:39:54Z</time>
      </trkpt>
      <trkpt lat="43.87905" lon="6.5564">
        <ele>1119.2</ele>
        <time>2026-05-15T09:39:55Z</time>
      </trkpt>
      <trkpt lat="43.87893" lon="6.55646">
        <ele>1118.5</ele>
        <time>2026-05-15T09:39:56Z</time>
      </trkpt>
      <trkpt lat="43.8788" lon="6.5565">
        <ele>1117.3</ele>
        <time>2026-05-15T09:39:57Z</time>
      </trkpt>
      <trkpt lat="43.87867" lon="6.55654">
        <ele>1116.3</ele>
        <time>2026-05-15T09:39:58Z</time>
      </trkpt>
      <trkpt lat="43.87855" lon="6.55656">
        <ele>1115</ele>
        <time>2026-05-15T09:39:59Z</time>
      </trkpt>
      <trkpt lat="43.87842" lon="6.55657">
        <ele>1113.5</ele>
        <time>2026-05-15T09:40:00Z</time>
      </trkpt>
      <trkpt lat="43.87829" lon="6.55658">
        <ele>1111.7</ele>
        <time>2026-05-15T09:40:01Z</time>
      </trkpt>
      <trkpt lat="43.87816" lon="6.55661">
        <ele>1110.2</ele>
        <time>2026-05-15T09:40:02Z</time>
      </trkpt>
      <trkpt lat="43.87804" lon="6.55666">
        <ele>1109.4</ele>
        <time>2026-05-15T09:40:03Z</time>
      </trkpt>
      <trkpt lat="43.87793" lon="6.55673">
        <ele>1108.3</ele>
        <time>2026-05-15T09:40:04Z</time>
      </trkpt>
      <trkpt lat="43.87782" lon="6.55682">
        <ele>1107.5</ele>
        <time>2026-05-15T09:40:05Z</time>
      </trkpt>
      <trkpt lat="43.87771" lon="6.5569">
        <ele>1106.3</ele>
        <time>2026-05-15T09:40:06Z</time>
      </trkpt>
      <trkpt lat="43.87759" lon="6.55697">
        <ele>1105</ele>
        <time>2026-05-15T09:40:07Z</time>
      </trkpt>
      <trkpt lat="43.87747" lon="6.55704">
        <ele>1104.5</ele>
        <time>2026-05-15T09:40:08Z</time>
      </trkpt>
      <trkpt lat="43.87735" lon="6.55708">
        <ele>1104.8</ele>
        <time>2026-05-15T09:40:09Z</time>
      </trkpt>
      <trkpt lat="43.87723" lon="6.55708">
        <ele>1104</ele>
        <time>2026-05-15T09:40:10Z</time>
      </trkpt>
      <trkpt lat="43.87711" lon="6.55704">
        <ele>1102.9</ele>
        <time>2026-05-15T09:40:11Z</time>
      </trkpt>
      <trkpt lat="43.87699" lon="6.55699">
        <ele>1101.4</ele>
        <time>2026-05-15T09:40:12Z</time>
      </trkpt>
      <trkpt lat="43.87688" lon="6.55693">
        <ele>1100.3</ele>
        <time>2026-05-15T09:40:13Z</time>
      </trkpt>
      <trkpt lat="43.87676" lon="6.55688">
        <ele>1100</ele>
        <time>2026-05-15T09:40:14Z</time>
      </trkpt>
      <trkpt lat="43.87665" lon="6.55682">
        <ele>1099.1</ele>
        <time>2026-05-15T09:40:15Z</time>
      </trkpt>
      <trkpt lat="43.87653" lon="6.55676">
        <ele>1098</ele>
        <time>2026-05-15T09:40:16Z</time>
      </trkpt>
      <trkpt lat="43.87641" lon="6.5567">
        <ele>1096.9</ele>
        <time>2026-05-15T09:40:17Z</time>
      </trkpt>
      <trkpt lat="43.8763" lon="6.55665">
        <ele>1095.9</ele>
        <time>2026-05-15T09:40:18Z</time>
      </trkpt>
      <trkpt lat="43.87618" lon="6.55659">
        <ele>1094.8</ele>
        <time>2026-05-15T09:40:19Z</time>
      </trkpt>
      <trkpt lat="43.87607" lon="6.55654">
        <ele>1093.6</ele>
        <time>2026-05-15T09:40:20Z</time>
      </trkpt>
      <trkpt lat="43.87595" lon="6.55648">
        <ele>1091.5</ele>
        <time>2026-05-15T09:40:21Z</time>
      </trkpt>
      <trkpt lat="43.87585" lon="6.55643">
        <ele>1090</ele>
        <time>2026-05-15T09:40:22Z</time>
      </trkpt>
      <trkpt lat="43.87577" lon="6.5564">
        <ele>1088.5</ele>
        <time>2026-05-15T09:40:23Z</time>
      </trkpt>
      <trkpt lat="43.8757" lon="6.55636">
        <ele>1087.4</ele>
        <time>2026-05-15T09:40:24Z</time>
      </trkpt>
      <trkpt lat="43.87562" lon="6.55633">
        <ele>1086.4</ele>
        <time>2026-05-15T09:40:25Z</time>
      </trkpt>
      <trkpt lat="43.87555" lon="6.55629">
        <ele>1085.5</ele>
        <time>2026-05-15T09:40:26Z</time>
      </trkpt>
      <trkpt lat="43.87549" lon="6.55623">
        <ele>1083.6</ele>
        <time>2026-05-15T09:40:27Z</time>
      </trkpt>
      <trkpt lat="43.87546" lon="6.55614">
        <ele>1082.9</ele>
        <time>2026-05-15T09:40:28Z</time>
      </trkpt>
      <trkpt lat="43.87547" lon="6.55604">
        <ele>1083.1</ele>
        <time>2026-05-15T09:40:29Z</time>
      </trkpt>
      <trkpt lat="43.8755" lon="6.55595">
        <ele>1083.7</ele>
        <time>2026-05-15T09:40:30Z</time>
      </trkpt>
      <trkpt lat="43.87558" lon="6.55589">
        <ele>1085</ele>
        <time>2026-05-15T09:40:31Z</time>
      </trkpt>
      <trkpt lat="43.87567" lon="6.55588">
        <ele>1084.8</ele>
        <time>2026-05-15T09:40:32Z</time>
      </trkpt>
      <trkpt lat="43.87578" lon="6.55589">
        <ele>1084.7</ele>
        <time>2026-05-15T09:40:33Z</time>
      </trkpt>
      <trkpt lat="43.8759" lon="6.55591">
        <ele>1084.2</ele>
        <time>2026-05-15T09:40:34Z</time>
      </trkpt>
      <trkpt lat="43.87603" lon="6.55593">
        <ele>1083.2</ele>
        <time>2026-05-15T09:40:35Z</time>
      </trkpt>
      <trkpt lat="43.87615" lon="6.55595">
        <ele>1082.4</ele>
        <time>2026-05-15T09:40:36Z</time>
      </trkpt>
      <trkpt lat="43.87627" lon="6.55596">
        <ele>1081.7</ele>
        <time>2026-05-15T09:40:37Z</time>
      </trkpt>
      <trkpt lat="43.87637" lon="6.55597">
        <ele>1081.1</ele>
        <time>2026-05-15T09:40:38Z</time>
      </trkpt>
      <trkpt lat="43.87646" lon="6.55594">
        <ele>1080</ele>
        <time>2026-05-15T09:40:39Z</time>
      </trkpt>
      <trkpt lat="43.87652" lon="6.55588">
        <ele>1078.7</ele>
        <time>2026-05-15T09:40:40Z</time>
      </trkpt>
      <trkpt lat="43.87656" lon="6.55578">
        <ele>1077</ele>
        <time>2026-05-15T09:40:41Z</time>
      </trkpt>
      <trkpt lat="43.87656" lon="6.55568">
        <ele>1075.4</ele>
        <time>2026-05-15T09:40:42Z</time>
      </trkpt>
      <trkpt lat="43.87652" lon="6.55558">
        <ele>1074.5</ele>
        <time>2026-05-15T09:40:43Z</time>
      </trkpt>
      <trkpt lat="43.87645" lon="6.55551">
        <ele>1074.2</ele>
        <time>2026-05-15T09:40:44Z</time>
      </trkpt>
      <trkpt lat="43.87636" lon="6.55547">
        <ele>1074.3</ele>
        <time>2026-05-15T09:40:45Z</time>
      </trkpt>
      <trkpt lat="43.87625" lon="6.55546">
        <ele>1074.6</ele>
        <time>2026-05-15T09:40:46Z</time>
      </trkpt>
      <trkpt lat="43.87613" lon="6.55545">
        <ele>1075</ele>
        <time>2026-05-15T09:40:47Z</time>
      </trkpt>
      <trkpt lat="43.876" lon="6.55543">
        <ele>1075.6</ele>
        <time>2026-05-15T09:40:48Z</time>
      </trkpt>
      <trkpt lat="43.87587" lon="6.55541">
        <ele>1076.1</ele>
        <time>2026-05-15T09:40:49Z</time>
      </trkpt>
      <trkpt lat="43.87575" lon="6.55539">
        <ele>1075.6</ele>
        <time>2026-05-15T09:40:50Z</time>
      </trkpt>
      <trkpt lat="43.87563" lon="6.55536">
        <ele>1074.3</ele>
        <time>2026-05-15T09:40:51Z</time>
      </trkpt>
      <trkpt lat="43.87552" lon="6.55533">
        <ele>1072.7</ele>
        <time>2026-05-15T09:40:52Z</time>
      </trkpt>
      <trkpt lat="43.87542" lon="6.5553">
        <ele>1071.2</ele>
        <time>2026-05-15T09:40:53Z</time>
      </trkpt>
      <trkpt lat="43.87534" lon="6.55527">
        <ele>1070.2</ele>
        <time>2026-05-15T09:40:54Z</time>
      </trkpt>
      <trkpt lat="43.87527" lon="6.55523">
        <ele>1069.5</ele>
        <time>2026-05-15T09:40:55Z</time>
      </trkpt>
      <trkpt lat="43.87521" lon="6.55517">
        <ele>1067.6</ele>
        <time>2026-05-15T09:40:56Z</time>
      </trkpt>
      <trkpt lat="43.87517" lon="6.55509">
        <ele>1066.2</ele>
        <time>2026-05-15T09:40:57Z</time>
      </trkpt>
      <trkpt lat="43.87517" lon="6.55499">
        <ele>1065.6</ele>
        <time>2026-05-15T09:40:58Z</time>
      </trkpt>
      <trkpt lat="43.8752" lon="6.5549">
        <ele>1065.7</ele>
        <time>2026-05-15T09:40:59Z</time>
      </trkpt>
      <trkpt lat="43.87527" lon="6.55485">
        <ele>1066.8</ele>
        <time>2026-05-15T09:41:00Z</time>
      </trkpt>
      <trkpt lat="43.87536" lon="6.55483">
        <ele>1066.8</ele>
        <time>2026-05-15T09:41:01Z</time>
      </trkpt>
      <trkpt lat="43.87546" lon="6.55484">
        <ele>1067</ele>
        <time>2026-05-15T09:41:02Z</time>
      </trkpt>
      <trkpt lat="43.87556" lon="6.55485">
        <ele>1067.3</ele>
        <time>2026-05-15T09:41:03Z</time>
      </trkpt>
      <trkpt lat="43.87567" lon="6.55487">
        <ele>1067.2</ele>
        <time>2026-05-15T09:41:04Z</time>
      </trkpt>
      <trkpt lat="43.87578" lon="6.55488">
        <ele>1067</ele>
        <time>2026-05-15T09:41:05Z</time>
      </trkpt>
      <trkpt lat="43.87588" lon="6.5549">
        <ele>1066.9</ele>
        <time>2026-05-15T09:41:06Z</time>
      </trkpt>
      <trkpt lat="43.87598" lon="6.55492">
        <ele>1066.7</ele>
        <time>2026-05-15T09:41:07Z</time>
      </trkpt>
      <trkpt lat="43.87607" lon="6.5549">
        <ele>1065.8</ele>
        <time>2026-05-15T09:41:08Z</time>
      </trkpt>
      <trkpt lat="43.87614" lon="6.55484">
        <ele>1064.5</ele>
        <time>2026-05-15T09:41:09Z</time>
      </trkpt>
      <trkpt lat="43.87619" lon="6.55476">
        <ele>1063</ele>
        <time>2026-05-15T09:41:10Z</time>
      </trkpt>
      <trkpt lat="43.8762" lon="6.55465">
        <ele>1061.1</ele>
        <time>2026-05-15T09:41:11Z</time>
      </trkpt>
      <trkpt lat="43.87617" lon="6.55455">
        <ele>1059.5</ele>
        <time>2026-05-15T09:41:12Z</time>
      </trkpt>
      <trkpt lat="43.87611" lon="6.55447">
        <ele>1058.5</ele>
        <time>2026-05-15T09:41:13Z</time>
      </trkpt>
      <trkpt lat="43.87602" lon="6.55442">
        <ele>1057.9</ele>
        <time>2026-05-15T09:41:14Z</time>
      </trkpt>
      <trkpt lat="43.87591" lon="6.5544">
        <ele>1057.9</ele>
        <time>2026-05-15T09:41:15Z</time>
      </trkpt>
      <trkpt lat="43.8758" lon="6.5544">
        <ele>1058.1</ele>
        <time>2026-05-15T09:41:16Z</time>
      </trkpt>
      <trkpt lat="43.87568" lon="6.55441">
        <ele>1057.9</ele>
        <time>2026-05-15T09:41:17Z</time>
      </trkpt>
      <trkpt lat="43.87557" lon="6.55441">
        <ele>1057.5</ele>
        <time>2026-05-15T09:41:18Z</time>
      </trkpt>
      <trkpt lat="43.87546" lon="6.55442">
        <ele>1057.3</ele>
        <time>2026-05-15T09:41:19Z</time>
      </trkpt>
      <trkpt lat="43.87534" lon="6.55443">
        <ele>1057.1</ele>
        <time>2026-05-15T09:41:20Z</time>
      </trkpt>
      <trkpt lat="43.87524" lon="6.55444">
        <ele>1056.5</ele>
        <time>2026-05-15T09:41:21Z</time>
      </trkpt>
      <trkpt lat="43.87515" lon="6.55442">
        <ele>1055.4</ele>
        <time>2026-05-15T09:41:22Z</time>
      </trkpt>
      <trkpt lat="43.87507" lon="6.55436">
        <ele>1054.1</ele>
        <time>2026-05-15T09:41:23Z</time>
      </trkpt>
      <trkpt lat="43.87503" lon="6.55426">
        <ele>1052.9</ele>
        <time>2026-05-15T09:41:24Z</time>
      </trkpt>
      <trkpt lat="43.87503" lon="6.55415">
        <ele>1052</ele>
        <time>2026-05-15T09:41:25Z</time>
      </trkpt>
      <trkpt lat="43.87507" lon="6.55407">
        <ele>1051.4</ele>
        <time>2026-05-15T09:41:26Z</time>
      </trkpt>
      <trkpt lat="43.87515" lon="6.55402">
        <ele>1051.2</ele>
        <time>2026-05-15T09:41:27Z</time>
      </trkpt>
      <trkpt lat="43.87525" lon="6.554">
        <ele>1051.5</ele>
        <time>2026-05-15T09:41:28Z</time>
      </trkpt>
      <trkpt lat="43.87536" lon="6.55398">
        <ele>1051.3</ele>
        <time>2026-05-15T09:41:29Z</time>
      </trkpt>
      <trkpt lat="43.87549" lon="6.55395">
        <ele>1050.9</ele>
        <time>2026-05-15T09:41:30Z</time>
      </trkpt>
      <trkpt lat="43.87563" lon="6.55391">
        <ele>1050.1</ele>
        <time>2026-05-15T09:41:31Z</time>
      </trkpt>
      <trkpt lat="43.87576" lon="6.55388">
        <ele>1049.1</ele>
        <time>2026-05-15T09:41:32Z</time>
      </trkpt>
      <trkpt lat="43.8759" lon="6.55386">
        <ele>1048.3</ele>
        <time>2026-05-15T09:41:33Z</time>
      </trkpt>
      <trkpt lat="43.87603" lon="6.55383">
        <ele>1047.4</ele>
        <time>2026-05-15T09:41:34Z</time>
      </trkpt>
      <trkpt lat="43.87616" lon="6.5538">
        <ele>1046.5</ele>
        <time>2026-05-15T09:41:35Z</time>
      </trkpt>
      <trkpt lat="43.87629" lon="6.55377">
        <ele>1045.6</ele>
        <time>2026-05-15T09:41:36Z</time>
      </trkpt>
      <trkpt lat="43.87642" lon="6.55374">
        <ele>1044.6</ele>
        <time>2026-05-15T09:41:37Z</time>
      </trkpt>
      <trkpt lat="43.87653" lon="6.55372">
        <ele>1043.4</ele>
        <time>2026-05-15T09:41:38Z</time>
      </trkpt>
      <trkpt lat="43.87663" lon="6.55369">
        <ele>1042.2</ele>
        <time>2026-05-15T09:41:39Z</time>
      </trkpt>
      <trkpt lat="43.8767" lon="6.55362">
        <ele>1040.6</ele>
        <time>2026-05-15T09:41:40Z</time>
      </trkpt>
      <trkpt lat="43.87674" lon="6.55352">
        <ele>1039</ele>
        <time>2026-05-15T09:41:41Z</time>
      </trkpt>
      <trkpt lat="43.87674" lon="6.55341">
        <ele>1037.8</ele>
        <time>2026-05-15T09:41:42Z</time>
      </trkpt>
      <trkpt lat="43.8767" lon="6.55331">
        <ele>1037.2</ele>
        <time>2026-05-15T09:41:43Z</time>
      </trkpt>
      <trkpt lat="43.87662" lon="6.55323">
        <ele>1036.7</ele>
        <time>2026-05-15T09:41:44Z</time>
      </trkpt>
      <trkpt lat="43.87652" lon="6.55319">
        <ele>1036.5</ele>
        <time>2026-05-15T09:41:45Z</time>
      </trkpt>
      <trkpt lat="43.87641" lon="6.55316">
        <ele>1036.4</ele>
        <time>2026-05-15T09:41:46Z</time>
      </trkpt>
      <trkpt lat="43.87628" lon="6.55314">
        <ele>1036.2</ele>
        <time>2026-05-15T09:41:47Z</time>
      </trkpt>
      <trkpt lat="43.87613" lon="6.55311">
        <ele>1035.8</ele>
        <time>2026-05-15T09:41:48Z</time>
      </trkpt>
      <trkpt lat="43.87599" lon="6.55308">
        <ele>1035</ele>
        <time>2026-05-15T09:41:49Z</time>
      </trkpt>
      <trkpt lat="43.87584" lon="6.55306">
        <ele>1034.1</ele>
        <time>2026-05-15T09:41:50Z</time>
      </trkpt>
      <trkpt lat="43.8757" lon="6.55305">
        <ele>1032.9</ele>
        <time>2026-05-15T09:41:51Z</time>
      </trkpt>
      <trkpt lat="43.87554" lon="6.55307">
        <ele>1032.1</ele>
        <time>2026-05-15T09:41:52Z</time>
      </trkpt>
      <trkpt lat="43.87539" lon="6.55312">
        <ele>1031</ele>
        <time>2026-05-15T09:41:53Z</time>
      </trkpt>
      <trkpt lat="43.87525" lon="6.55318">
        <ele>1030.3</ele>
        <time>2026-05-15T09:41:54Z</time>
      </trkpt>
      <trkpt lat="43.8751" lon="6.55324">
        <ele>1028.8</ele>
        <time>2026-05-15T09:41:55Z</time>
      </trkpt>
      <trkpt lat="43.87497" lon="6.55331">
        <ele>1027.4</ele>
        <time>2026-05-15T09:41:56Z</time>
      </trkpt>
      <trkpt lat="43.87486" lon="6.55337">
        <ele>1027.9</ele>
        <time>2026-05-15T09:41:57Z</time>
      </trkpt>
      <trkpt lat="43.87477" lon="6.5534">
        <ele>1027.5</ele>
        <time>2026-05-15T09:41:58Z</time>
      </trkpt>
      <trkpt lat="43.87469" lon="6.55339">
        <ele>1025.9</ele>
        <time>2026-05-15T09:41:59Z</time>
      </trkpt>
      <trkpt lat="43.87462" lon="6.55332">
        <ele>1023.8</ele>
        <time>2026-05-15T09:42:00Z</time>
      </trkpt>
      <trkpt lat="43.87459" lon="6.55322">
        <ele>1023.2</ele>
        <time>2026-05-15T09:42:01Z</time>
      </trkpt>
      <trkpt lat="43.8746" lon="6.55312">
        <ele>1022.9</ele>
        <time>2026-05-15T09:42:02Z</time>
      </trkpt>
      <trkpt lat="43.87465" lon="6.55303">
        <ele>1022.9</ele>
        <time>2026-05-15T09:42:03Z</time>
      </trkpt>
      <trkpt lat="43.87474" lon="6.55298">
        <ele>1023</ele>
        <time>2026-05-15T09:42:04Z</time>
      </trkpt>
      <trkpt lat="43.87484" lon="6.55297">
        <ele>1023.1</ele>
        <time>2026-05-15T09:42:05Z</time>
      </trkpt>
      <trkpt lat="43.87496" lon="6.55296">
        <ele>1023.2</ele>
        <time>2026-05-15T09:42:06Z</time>
      </trkpt>
      <trkpt lat="43.87509" lon="6.55292">
        <ele>1023.2</ele>
        <time>2026-05-15T09:42:07Z</time>
      </trkpt>
      <trkpt lat="43.87523" lon="6.55285">
        <ele>1022.6</ele>
        <time>2026-05-15T09:42:08Z</time>
      </trkpt>
      <trkpt lat="43.87535" lon="6.55273">
        <ele>1020.7</ele>
        <time>2026-05-15T09:42:09Z</time>
      </trkpt>
      <trkpt lat="43.87546" lon="6.5526">
        <ele>1018.7</ele>
        <time>2026-05-15T09:42:10Z</time>
      </trkpt>
      <trkpt lat="43.87559" lon="6.55248">
        <ele>1016.9</ele>
        <time>2026-05-15T09:42:11Z</time>
      </trkpt>
      <trkpt lat="43.87571" lon="6.55235">
        <ele>1015.2</ele>
        <time>2026-05-15T09:42:12Z</time>
      </trkpt>
      <trkpt lat="43.87583" lon="6.55219">
        <ele>1013.2</ele>
        <time>2026-05-15T09:42:13Z</time>
      </trkpt>
      <trkpt lat="43.87592" lon="6.552">
        <ele>1010.7</ele>
        <time>2026-05-15T09:42:14Z</time>
      </trkpt>
      <trkpt lat="43.876" lon="6.5518">
        <ele>1008.5</ele>
        <time>2026-05-15T09:42:15Z</time>
      </trkpt>
      <trkpt lat="43.87608" lon="6.55159">
        <ele>1007.1</ele>
        <time>2026-05-15T09:42:16Z</time>
      </trkpt>
      <trkpt lat="43.87617" lon="6.55141">
        <ele>1005.8</ele>
        <time>2026-05-15T09:42:17Z</time>
      </trkpt>
      <trkpt lat="43.87628" lon="6.55125">
        <ele>1004.2</ele>
        <time>2026-05-15T09:42:18Z</time>
      </trkpt>
      <trkpt lat="43.87642" lon="6.55112">
        <ele>1003</ele>
        <time>2026-05-15T09:42:19Z</time>
      </trkpt>
      <trkpt lat="43.87656" lon="6.55101">
        <ele>1000.9</ele>
        <time>2026-05-15T09:42:20Z</time>
      </trkpt>
      <trkpt lat="43.87671" lon="6.55091">
        <ele>998.9</ele>
        <time>2026-05-15T09:42:21Z</time>
      </trkpt>
      <trkpt lat="43.87686" lon="6.55081">
        <ele>997.1</ele>
        <time>2026-05-15T09:42:22Z</time>
      </trkpt>
      <trkpt lat="43.877" lon="6.5507">
        <ele>995.8</ele>
        <time>2026-05-15T09:42:23Z</time>
      </trkpt>
      <trkpt lat="43.87713" lon="6.55057">
        <ele>994.8</ele>
        <time>2026-05-15T09:42:24Z</time>
      </trkpt>
      <trkpt lat="43.87722" lon="6.55039">
        <ele>993.8</ele>
        <time>2026-05-15T09:42:25Z</time>
      </trkpt>
      <trkpt lat="43.87727" lon="6.55019">
        <ele>992.7</ele>
        <time>2026-05-15T09:42:26Z</time>
      </trkpt>
      <trkpt lat="43.8773" lon="6.54999">
        <ele>990.5</ele>
        <time>2026-05-15T09:42:27Z</time>
      </trkpt>
      <trkpt lat="43.87732" lon="6.54978">
        <ele>987.9</ele>
        <time>2026-05-15T09:42:28Z</time>
      </trkpt>
      <trkpt lat="43.87737" lon="6.54957">
        <ele>985.7</ele>
        <time>2026-05-15T09:42:29Z</time>
      </trkpt>
      <trkpt lat="43.87743" lon="6.54939">
        <ele>984.3</ele>
        <time>2026-05-15T09:42:30Z</time>
      </trkpt>
      <trkpt lat="43.87752" lon="6.54921">
        <ele>983.1</ele>
        <time>2026-05-15T09:42:31Z</time>
      </trkpt>
      <trkpt lat="43.87761" lon="6.54904">
        <ele>981.9</ele>
        <time>2026-05-15T09:42:32Z</time>
      </trkpt>
      <trkpt lat="43.8777" lon="6.54888">
        <ele>981.2</ele>
        <time>2026-05-15T09:42:33Z</time>
      </trkpt>
      <trkpt lat="43.87779" lon="6.54871">
        <ele>980</ele>
        <time>2026-05-15T09:42:34Z</time>
      </trkpt>
      <trkpt lat="43.87788" lon="6.54854">
        <ele>978.4</ele>
        <time>2026-05-15T09:42:35Z</time>
      </trkpt>
      <trkpt lat="43.87797" lon="6.54838">
        <ele>977.4</ele>
        <time>2026-05-15T09:42:36Z</time>
      </trkpt>
      <trkpt lat="43.87804" lon="6.54825">
        <ele>976.9</ele>
        <time>2026-05-15T09:42:37Z</time>
      </trkpt>
      <trkpt lat="43.87811" lon="6.54814">
        <ele>976</ele>
        <time>2026-05-15T09:42:38Z</time>
      </trkpt>
      <trkpt lat="43.87819" lon="6.54805">
        <ele>974.9</ele>
        <time>2026-05-15T09:42:39Z</time>
      </trkpt>
      <trkpt lat="43.87828" lon="6.54797">
        <ele>973.3</ele>
        <time>2026-05-15T09:42:40Z</time>
      </trkpt>
      <trkpt lat="43.87839" lon="6.54794">
        <ele>972</ele>
        <time>2026-05-15T09:42:41Z</time>
      </trkpt>
      <trkpt lat="43.87851" lon="6.54794">
        <ele>971</ele>
        <time>2026-05-15T09:42:42Z</time>
      </trkpt>
      <trkpt lat="43.87864" lon="6.54795">
        <ele>969.9</ele>
        <time>2026-05-15T09:42:43Z</time>
      </trkpt>
      <trkpt lat="43.87877" lon="6.54798">
        <ele>969.1</ele>
        <time>2026-05-15T09:42:44Z</time>
      </trkpt>
      <trkpt lat="43.8789" lon="6.54801">
        <ele>968.4</ele>
        <time>2026-05-15T09:42:45Z</time>
      </trkpt>
      <trkpt lat="43.87903" lon="6.54803">
        <ele>967.6</ele>
        <time>2026-05-15T09:42:46Z</time>
      </trkpt>
      <trkpt lat="43.87916" lon="6.54806">
        <ele>967.2</ele>
        <time>2026-05-15T09:42:47Z</time>
      </trkpt>
      <trkpt lat="43.8793" lon="6.54809">
        <ele>966.1</ele>
        <time>2026-05-15T09:42:48Z</time>
      </trkpt>
      <trkpt lat="43.87944" lon="6.54812">
        <ele>964.9</ele>
        <time>2026-05-15T09:42:49Z</time>
      </trkpt>
      <trkpt lat="43.87957" lon="6.54815">
        <ele>964.5</ele>
        <time>2026-05-15T09:42:50Z</time>
      </trkpt>
      <trkpt lat="43.87968" lon="6.54816">
        <ele>963.6</ele>
        <time>2026-05-15T09:42:51Z</time>
      </trkpt>
      <trkpt lat="43.87978" lon="6.54813">
        <ele>962.8</ele>
        <time>2026-05-15T09:42:52Z</time>
      </trkpt>
      <trkpt lat="43.87987" lon="6.54805">
        <ele>962.5</ele>
        <time>2026-05-15T09:42:53Z</time>
      </trkpt>
      <trkpt lat="43.87993" lon="6.54793">
        <ele>961.6</ele>
        <time>2026-05-15T09:42:54Z</time>
      </trkpt>
      <trkpt lat="43.87994" lon="6.5478">
        <ele>960.7</ele>
        <time>2026-05-15T09:42:55Z</time>
      </trkpt>
      <trkpt lat="43.87992" lon="6.54765">
        <ele>960.6</ele>
        <time>2026-05-15T09:42:56Z</time>
      </trkpt>
      <trkpt lat="43.87987" lon="6.54749">
        <ele>959.8</ele>
        <time>2026-05-15T09:42:57Z</time>
      </trkpt>
      <trkpt lat="43.87981" lon="6.54733">
        <ele>958.3</ele>
        <time>2026-05-15T09:42:58Z</time>
      </trkpt>
      <trkpt lat="43.87974" lon="6.54716">
        <ele>957.4</ele>
        <time>2026-05-15T09:42:59Z</time>
      </trkpt>
      <trkpt lat="43.87966" lon="6.547">
        <ele>957</ele>
        <time>2026-05-15T09:43:00Z</time>
      </trkpt>
      <trkpt lat="43.87957" lon="6.54685">
        <ele>956.1</ele>
        <time>2026-05-15T09:43:01Z</time>
      </trkpt>
      <trkpt lat="43.87948" lon="6.54671">
        <ele>955.4</ele>
        <time>2026-05-15T09:43:02Z</time>
      </trkpt>
      <trkpt lat="43.87938" lon="6.54657">
        <ele>953.6</ele>
        <time>2026-05-15T09:43:03Z</time>
      </trkpt>
      <trkpt lat="43.8793" lon="6.54644">
        <ele>952.2</ele>
        <time>2026-05-15T09:43:04Z</time>
      </trkpt>
      <trkpt lat="43.87922" lon="6.5463">
        <ele>950.5</ele>
        <time>2026-05-15T09:43:05Z</time>
      </trkpt>
      <trkpt lat="43.87917" lon="6.54617">
        <ele>949.7</ele>
        <time>2026-05-15T09:43:06Z</time>
      </trkpt>
      <trkpt lat="43.87916" lon="6.54602">
        <ele>949.4</ele>
        <time>2026-05-15T09:43:07Z</time>
      </trkpt>
      <trkpt lat="43.87918" lon="6.54589">
        <ele>949.6</ele>
        <time>2026-05-15T09:43:08Z</time>
      </trkpt>
      <trkpt lat="43.87922" lon="6.54576">
        <ele>950</ele>
        <time>2026-05-15T09:43:09Z</time>
      </trkpt>
      <trkpt lat="43.87927" lon="6.54564">
        <ele>950.3</ele>
        <time>2026-05-15T09:43:10Z</time>
      </trkpt>
      <trkpt lat="43.87934" lon="6.54553">
        <ele>951</ele>
        <time>2026-05-15T09:43:11Z</time>
      </trkpt>
      <trkpt lat="43.8794" lon="6.54542">
        <ele>950.6</ele>
        <time>2026-05-15T09:43:12Z</time>
      </trkpt>
      <trkpt lat="43.87947" lon="6.54531">
        <ele>950.1</ele>
        <time>2026-05-15T09:43:13Z</time>
      </trkpt>
      <trkpt lat="43.87953" lon="6.5452">
        <ele>949.1</ele>
        <time>2026-05-15T09:43:14Z</time>
      </trkpt>
      <trkpt lat="43.8796" lon="6.5451">
        <ele>948.2</ele>
        <time>2026-05-15T09:43:15Z</time>
      </trkpt>
      <trkpt lat="43.87967" lon="6.545">
        <ele>947.2</ele>
        <time>2026-05-15T09:43:16Z</time>
      </trkpt>
      <trkpt lat="43.87974" lon="6.5449">
        <ele>945.9</ele>
        <time>2026-05-15T09:43:17Z</time>
      </trkpt>
      <trkpt lat="43.87981" lon="6.54482">
        <ele>944</ele>
        <time>2026-05-15T09:43:18Z</time>
      </trkpt>
      <trkpt lat="43.87989" lon="6.54478">
        <ele>942.9</ele>
        <time>2026-05-15T09:43:19Z</time>
      </trkpt>
      <trkpt lat="43.87998" lon="6.54477">
        <ele>942.4</ele>
        <time>2026-05-15T09:43:20Z</time>
      </trkpt>
      <trkpt lat="43.88007" lon="6.5448">
        <ele>942.2</ele>
        <time>2026-05-15T09:43:21Z</time>
      </trkpt>
      <trkpt lat="43.88016" lon="6.54486">
        <ele>942.4</ele>
        <time>2026-05-15T09:43:22Z</time>
      </trkpt>
      <trkpt lat="43.88025" lon="6.5449">
        <ele>941.9</ele>
        <time>2026-05-15T09:43:23Z</time>
      </trkpt>
      <trkpt lat="43.88035" lon="6.54491">
        <ele>941.4</ele>
        <time>2026-05-15T09:43:24Z</time>
      </trkpt>
      <trkpt lat="43.88046" lon="6.54488">
        <ele>940</ele>
        <time>2026-05-15T09:43:25Z</time>
      </trkpt>
      <trkpt lat="43.88056" lon="6.5448">
        <ele>937.4</ele>
        <time>2026-05-15T09:43:26Z</time>
      </trkpt>
      <trkpt lat="43.88066" lon="6.54468">
        <ele>936.9</ele>
        <time>2026-05-15T09:43:27Z</time>
      </trkpt>
      <trkpt lat="43.88075" lon="6.54454">
        <ele>935.9</ele>
        <time>2026-05-15T09:43:28Z</time>
      </trkpt>
      <trkpt lat="43.88083" lon="6.54439">
        <ele>933.6</ele>
        <time>2026-05-15T09:43:29Z</time>
      </trkpt>
      <trkpt lat="43.88092" lon="6.54424">
        <ele>932.1</ele>
        <time>2026-05-15T09:43:30Z</time>
      </trkpt>
      <trkpt lat="43.88101" lon="6.54408">
        <ele>930</ele>
        <time>2026-05-15T09:43:31Z</time>
      </trkpt>
      <trkpt lat="43.8811" lon="6.54393">
        <ele>927.9</ele>
        <time>2026-05-15T09:43:32Z</time>
      </trkpt>
      <trkpt lat="43.8812" lon="6.54377">
        <ele>926.6</ele>
        <time>2026-05-15T09:43:33Z</time>
      </trkpt>
      <trkpt lat="43.88128" lon="6.5436">
        <ele>924.6</ele>
        <time>2026-05-15T09:43:34Z</time>
      </trkpt>
      <trkpt lat="43.88134" lon="6.54341">
        <ele>922.7</ele>
        <time>2026-05-15T09:43:35Z</time>
      </trkpt>
      <trkpt lat="43.8814" lon="6.54322">
        <ele>921.5</ele>
        <time>2026-05-15T09:43:36Z</time>
      </trkpt>
      <trkpt lat="43.88144" lon="6.54302">
        <ele>920</ele>
        <time>2026-05-15T09:43:37Z</time>
      </trkpt>
      <trkpt lat="43.88149" lon="6.54282">
        <ele>919.1</ele>
        <time>2026-05-15T09:43:38Z</time>
      </trkpt>
      <trkpt lat="43.88153" lon="6.54262">
        <ele>916.4</ele>
        <time>2026-05-15T09:43:39Z</time>
      </trkpt>
      <trkpt lat="43.88157" lon="6.54242">
        <ele>913.4</ele>
        <time>2026-05-15T09:43:40Z</time>
      </trkpt>
      <trkpt lat="43.88162" lon="6.54222">
        <ele>911.1</ele>
        <time>2026-05-15T09:43:41Z</time>
      </trkpt>
      <trkpt lat="43.88168" lon="6.54202">
        <ele>909.1</ele>
        <time>2026-05-15T09:43:42Z</time>
      </trkpt>
      <trkpt lat="43.88175" lon="6.54183">
        <ele>907.2</ele>
        <time>2026-05-15T09:43:43Z</time>
      </trkpt>
      <trkpt lat="43.88182" lon="6.54165">
        <ele>905.6</ele>
        <time>2026-05-15T09:43:44Z</time>
      </trkpt>
      <trkpt lat="43.88191" lon="6.54148">
        <ele>905.4</ele>
        <time>2026-05-15T09:43:45Z</time>
      </trkpt>
      <trkpt lat="43.88199" lon="6.54133">
        <ele>904.7</ele>
        <time>2026-05-15T09:43:46Z</time>
      </trkpt>
      <trkpt lat="43.88205" lon="6.54121">
        <ele>903.2</ele>
        <time>2026-05-15T09:43:47Z</time>
      </trkpt>
      <trkpt lat="43.88212" lon="6.54111">
        <ele>902.4</ele>
        <time>2026-05-15T09:43:48Z</time>
      </trkpt>
      <trkpt lat="43.88218" lon="6.54101">
        <ele>901.1</ele>
        <time>2026-05-15T09:43:49Z</time>
      </trkpt>
      <trkpt lat="43.88226" lon="6.54091">
        <ele>899.9</ele>
        <time>2026-05-15T09:43:50Z</time>
      </trkpt>
      <trkpt lat="43.88234" lon="6.54083">
        <ele>899</ele>
        <time>2026-05-15T09:43:51Z</time>
      </trkpt>
      <trkpt lat="43.88242" lon="6.54076">
        <ele>898.7</ele>
        <time>2026-05-15T09:43:52Z</time>
      </trkpt>
      <trkpt lat="43.88249" lon="6.54071">
        <ele>898.7</ele>
        <time>2026-05-15T09:43:53Z</time>
      </trkpt>
      <trkpt lat="43.88256" lon="6.54067">
        <ele>897.8</ele>
        <time>2026-05-15T09:43:54Z</time>
      </trkpt>
      <trkpt lat="43.88264" lon="6.54064">
        <ele>897</ele>
        <time>2026-05-15T09:43:55Z</time>
      </trkpt>
      <trkpt lat="43.88272" lon="6.54063">
        <ele>896.7</ele>
        <time>2026-05-15T09:43:56Z</time>
      </trkpt>
      <trkpt lat="43.88279" lon="6.54062">
        <ele>896.3</ele>
        <time>2026-05-15T09:43:57Z</time>
      </trkpt>
      <trkpt lat="43.88284" lon="6.54063">
        <ele>895.9</ele>
        <time>2026-05-15T09:43:58Z</time>
      </trkpt>
      <trkpt lat="43.88289" lon="6.54065">
        <ele>895.8</ele>
        <time>2026-05-15T09:43:59Z</time>
      </trkpt>
      <trkpt lat="43.88294" lon="6.54067">
        <ele>895.7</ele>
        <time>2026-05-15T09:44:00Z</time>
      </trkpt>
      <trkpt lat="43.88299" lon="6.54069">
        <ele>895.6</ele>
        <time>2026-05-15T09:44:01Z</time>
      </trkpt>
      <trkpt lat="43.88303" lon="6.5407">
        <ele>895.4</ele>
        <time>2026-05-15T09:44:02Z</time>
      </trkpt>
      <trkpt lat="43.88308" lon="6.54072">
        <ele>895.4</ele>
        <time>2026-05-15T09:44:03Z</time>
      </trkpt>
      <trkpt lat="43.88312" lon="6.54074">
        <ele>895.5</ele>
        <time>2026-05-15T09:44:04Z</time>
      </trkpt>
      <trkpt lat="43.88315" lon="6.54075">
        <ele>895.5</ele>
        <time>2026-05-15T09:44:05Z</time>
      </trkpt>
      <trkpt lat="43.88318" lon="6.54075">
        <ele>895.3</ele>
        <time>2026-05-15T09:44:06Z</time>
      </trkpt>
      <trkpt lat="43.8832" lon="6.54074">
        <ele>894.9</ele>
        <time>2026-05-15T09:44:07Z</time>
      </trkpt>
      <trkpt lat="43.88323" lon="6.54074">
        <ele>894.7</ele>
        <time>2026-05-15T09:44:08Z</time>
      </trkpt>
      <trkpt lat="43.88326" lon="6.54072">
        <ele>894.1</ele>
        <time>2026-05-15T09:44:09Z</time>
      </trkpt>
      <trkpt lat="43.88328" lon="6.5407">
        <ele>893.5</ele>
        <time>2026-05-15T09:44:10Z</time>
      </trkpt>
      <trkpt lat="43.88329" lon="6.54065">
        <ele>892.4</ele>
        <time>2026-05-15T09:44:11Z</time>
      </trkpt>
      <trkpt lat="43.88328" lon="6.54062">
        <ele>891.8</ele>
        <time>2026-05-15T09:44:12Z</time>
      </trkpt>
      <trkpt lat="43.88326" lon="6.54058">
        <ele>891.1</ele>
        <time>2026-05-15T09:44:13Z</time>
      </trkpt>
      <trkpt lat="43.88322" lon="6.54054">
        <ele>890.5</ele>
        <time>2026-05-15T09:44:14Z</time>
      </trkpt>
      <trkpt lat="43.88315" lon="6.54051">
        <ele>890.3</ele>
        <time>2026-05-15T09:44:15Z</time>
      </trkpt>
      <trkpt lat="43.88309" lon="6.54047">
        <ele>889.9</ele>
        <time>2026-05-15T09:44:16Z</time>
      </trkpt>
      <trkpt lat="43.88301" lon="6.54043">
        <ele>889.9</ele>
        <time>2026-05-15T09:44:17Z</time>
      </trkpt>
      <trkpt lat="43.88292" lon="6.54038">
        <ele>890</ele>
        <time>2026-05-15T09:44:18Z</time>
      </trkpt>
      <trkpt lat="43.88282" lon="6.54033">
        <ele>890.4</ele>
        <time>2026-05-15T09:44:19Z</time>
      </trkpt>
      <trkpt lat="43.8827" lon="6.54029">
        <ele>890.2</ele>
        <time>2026-05-15T09:44:20Z</time>
      </trkpt>
      <trkpt lat="43.88258" lon="6.54029">
        <ele>890.2</ele>
        <time>2026-05-15T09:44:21Z</time>
      </trkpt>
      <trkpt lat="43.88247" lon="6.54033">
        <ele>890.5</ele>
        <time>2026-05-15T09:44:22Z</time>
      </trkpt>
      <trkpt lat="43.88236" lon="6.54041">
        <ele>890.1</ele>
        <time>2026-05-15T09:44:23Z</time>
      </trkpt>
      <trkpt lat="43.88225" lon="6.54053">
        <ele>890.1</ele>
        <time>2026-05-15T09:44:24Z</time>
      </trkpt>
      <trkpt lat="43.88213" lon="6.54067">
        <ele>890.3</ele>
        <time>2026-05-15T09:44:25Z</time>
      </trkpt>
      <trkpt lat="43.88199" lon="6.54079">
        <ele>890.5</ele>
        <time>2026-05-15T09:44:26Z</time>
      </trkpt>
      <trkpt lat="43.88185" lon="6.54089">
        <ele>890.5</ele>
        <time>2026-05-15T09:44:27Z</time>
      </trkpt>
      <trkpt lat="43.88171" lon="6.54102">
        <ele>889.8</ele>
        <time>2026-05-15T09:44:28Z</time>
      </trkpt>
      <trkpt lat="43.88159" lon="6.54117">
        <ele>888</ele>
        <time>2026-05-15T09:44:29Z</time>
      </trkpt>
      <trkpt lat="43.88148" lon="6.54135">
        <ele>886.3</ele>
        <time>2026-05-15T09:44:30Z</time>
      </trkpt>
      <trkpt lat="43.88137" lon="6.54153">
        <ele>886</ele>
        <time>2026-05-15T09:44:31Z</time>
      </trkpt>
      <trkpt lat="43.88128" lon="6.5417">
        <ele>886.5</ele>
        <time>2026-05-15T09:44:32Z</time>
      </trkpt>
      <trkpt lat="43.88119" lon="6.54186">
        <ele>886.8</ele>
        <time>2026-05-15T09:44:33Z</time>
      </trkpt>
      <trkpt lat="43.88111" lon="6.54201">
        <ele>887.6</ele>
        <time>2026-05-15T09:44:34Z</time>
      </trkpt>
      <trkpt lat="43.88103" lon="6.54213">
        <ele>889</ele>
        <time>2026-05-15T09:44:35Z</time>
      </trkpt>
      <trkpt lat="43.88095" lon="6.54223">
        <ele>890.3</ele>
        <time>2026-05-15T09:44:36Z</time>
      </trkpt>
      <trkpt lat="43.88085" lon="6.54228">
        <ele>889.5</ele>
        <time>2026-05-15T09:44:37Z</time>
      </trkpt>
      <trkpt lat="43.88076" lon="6.54226">
        <ele>890.6</ele>
        <time>2026-05-15T09:44:38Z</time>
      </trkpt>
      <trkpt lat="43.88068" lon="6.5422">
        <ele>891.3</ele>
        <time>2026-05-15T09:44:39Z</time>
      </trkpt>
      <trkpt lat="43.88063" lon="6.54209">
        <ele>890.2</ele>
        <time>2026-05-15T09:44:40Z</time>
      </trkpt>
      <trkpt lat="43.88059" lon="6.54196">
        <ele>888.9</ele>
        <time>2026-05-15T09:44:41Z</time>
      </trkpt>
      <trkpt lat="43.88057" lon="6.5418">
        <ele>887.4</ele>
        <time>2026-05-15T09:44:42Z</time>
      </trkpt>
      <trkpt lat="43.88056" lon="6.54164">
        <ele>885.6</ele>
        <time>2026-05-15T09:44:43Z</time>
      </trkpt>
      <trkpt lat="43.88055" lon="6.54146">
        <ele>884</ele>
        <time>2026-05-15T09:44:44Z</time>
      </trkpt>
      <trkpt lat="43.88052" lon="6.54127">
        <ele>883.1</ele>
        <time>2026-05-15T09:44:45Z</time>
      </trkpt>
      <trkpt lat="43.88046" lon="6.5411">
        <ele>883.7</ele>
        <time>2026-05-15T09:44:46Z</time>
      </trkpt>
      <trkpt lat="43.88037" lon="6.54094">
        <ele>884.9</ele>
        <time>2026-05-15T09:44:47Z</time>
      </trkpt>
      <trkpt lat="43.88026" lon="6.54082">
        <ele>885</ele>
        <time>2026-05-15T09:44:48Z</time>
      </trkpt>
      <trkpt lat="43.88014" lon="6.54074">
        <ele>885.6</ele>
        <time>2026-05-15T09:44:49Z</time>
      </trkpt>
      <trkpt lat="43.88001" lon="6.5407">
        <ele>887.4</ele>
        <time>2026-05-15T09:44:50Z</time>
      </trkpt>
      <trkpt lat="43.87989" lon="6.5407">
        <ele>887.2</ele>
        <time>2026-05-15T09:44:51Z</time>
      </trkpt>
      <trkpt lat="43.87975" lon="6.54073">
        <ele>887.3</ele>
        <time>2026-05-15T09:44:52Z</time>
      </trkpt>
      <trkpt lat="43.87963" lon="6.54082">
        <ele>886.8</ele>
        <time>2026-05-15T09:44:53Z</time>
      </trkpt>
      <trkpt lat="43.87951" lon="6.54095">
        <ele>886.4</ele>
        <time>2026-05-15T09:44:54Z</time>
      </trkpt>
      <trkpt lat="43.8794" lon="6.54108">
        <ele>886.4</ele>
        <time>2026-05-15T09:44:55Z</time>
      </trkpt>
      <trkpt lat="43.87928" lon="6.54122">
        <ele>886</ele>
        <time>2026-05-15T09:44:56Z</time>
      </trkpt>
      <trkpt lat="43.87916" lon="6.54135">
        <ele>886</ele>
        <time>2026-05-15T09:44:57Z</time>
      </trkpt>
      <trkpt lat="43.87905" lon="6.54149">
        <ele>885.4</ele>
        <time>2026-05-15T09:44:58Z</time>
      </trkpt>
      <trkpt lat="43.87894" lon="6.54164">
        <ele>885.1</ele>
        <time>2026-05-15T09:44:59Z</time>
      </trkpt>
      <trkpt lat="43.87884" lon="6.54178">
        <ele>885.7</ele>
        <time>2026-05-15T09:45:00Z</time>
      </trkpt>
      <trkpt lat="43.87875" lon="6.54191">
        <ele>886.3</ele>
        <time>2026-05-15T09:45:01Z</time>
      </trkpt>
      <trkpt lat="43.87865" lon="6.54203">
        <ele>886.3</ele>
        <time>2026-05-15T09:45:02Z</time>
      </trkpt>
      <trkpt lat="43.87856" lon="6.54211">
        <ele>887.2</ele>
        <time>2026-05-15T09:45:03Z</time>
      </trkpt>
      <trkpt lat="43.87847" lon="6.54214">
        <ele>887.7</ele>
        <time>2026-05-15T09:45:04Z</time>
      </trkpt>
      <trkpt lat="43.87838" lon="6.54211">
        <ele>887.2</ele>
        <time>2026-05-15T09:45:05Z</time>
      </trkpt>
      <trkpt lat="43.87831" lon="6.54203">
        <ele>887.7</ele>
        <time>2026-05-15T09:45:06Z</time>
      </trkpt>
      <trkpt lat="43.87829" lon="6.54191">
        <ele>888.1</ele>
        <time>2026-05-15T09:45:07Z</time>
      </trkpt>
      <trkpt lat="43.8783" lon="6.54178">
        <ele>887.2</ele>
        <time>2026-05-15T09:45:08Z</time>
      </trkpt>
      <trkpt lat="43.87833" lon="6.54165">
        <ele>885.3</ele>
        <time>2026-05-15T09:45:09Z</time>
      </trkpt>
      <trkpt lat="43.87837" lon="6.5415">
        <ele>885.1</ele>
        <time>2026-05-15T09:45:10Z</time>
      </trkpt>
      <trkpt lat="43.87841" lon="6.54135">
        <ele>884.8</ele>
        <time>2026-05-15T09:45:11Z</time>
      </trkpt>
      <trkpt lat="43.87845" lon="6.54121">
        <ele>884.2</ele>
        <time>2026-05-15T09:45:12Z</time>
      </trkpt>
      <trkpt lat="43.87848" lon="6.54107">
        <ele>884</ele>
        <time>2026-05-15T09:45:13Z</time>
      </trkpt>
      <trkpt lat="43.87851" lon="6.54094">
        <ele>883.9</ele>
        <time>2026-05-15T09:45:14Z</time>
      </trkpt>
      <trkpt lat="43.87853" lon="6.54083">
        <ele>883.9</ele>
        <time>2026-05-15T09:45:15Z</time>
      </trkpt>
      <trkpt lat="43.87854" lon="6.54076">
        <ele>883.9</ele>
        <time>2026-05-15T09:45:16Z</time>
      </trkpt>
      <trkpt lat="43.87854" lon="6.54069">
        <ele>884.2</ele>
        <time>2026-05-15T09:45:17Z</time>
      </trkpt>
      <trkpt lat="43.87855" lon="6.54063">
        <ele>884.1</ele>
        <time>2026-05-15T09:45:18Z</time>
      </trkpt>
      <trkpt lat="43.87855" lon="6.54058">
        <ele>884.3</ele>
        <time>2026-05-15T09:45:19Z</time>
      </trkpt>
      <trkpt lat="43.87855" lon="6.54054">
        <ele>884.5</ele>
        <time>2026-05-15T09:45:20Z</time>
      </trkpt>
      <trkpt lat="43.87855" lon="6.5405">
        <ele>884.6</ele>
        <time>2026-05-15T09:45:21Z</time>
      </trkpt>
      <trkpt lat="43.87855" lon="6.54046">
        <ele>884.7</ele>
        <time>2026-05-15T09:45:22Z</time>
      </trkpt>
      <trkpt lat="43.87856" lon="6.54042">
        <ele>884.4</ele>
        <time>2026-05-15T09:45:23Z</time>
      </trkpt>
      <trkpt lat="43.87857" lon="6.54038">
        <ele>884.2</ele>
        <time>2026-05-15T09:45:24Z</time>
      </trkpt>
      <trkpt lat="43.87858" lon="6.54035">
        <ele>883.9</ele>
        <time>2026-05-15T09:45:25Z</time>
      </trkpt>
      <trkpt lat="43.87859" lon="6.54032">
        <ele>883.6</ele>
        <time>2026-05-15T09:45:26Z</time>
      </trkpt>
      <trkpt lat="43.8786" lon="6.54029">
        <ele>883.4</ele>
        <time>2026-05-15T09:45:27Z</time>
      </trkpt>
      <trkpt lat="43.87861" lon="6.54026">
        <ele>883.1</ele>
        <time>2026-05-15T09:45:28Z</time>
      </trkpt>
      <trkpt lat="43.87862" lon="6.54023">
        <ele>883</ele>
        <time>2026-05-15T09:45:29Z</time>
      </trkpt>
      <trkpt lat="43.87862" lon="6.54019">
        <ele>883.1</ele>
        <time>2026-05-15T09:45:30Z</time>
      </trkpt>
      <trkpt lat="43.87863" lon="6.54017">
        <ele>883</ele>
        <time>2026-05-15T09:45:31Z</time>
      </trkpt>
      <trkpt lat="43.87862" lon="6.54015">
        <ele>883.3</ele>
        <time>2026-05-15T09:45:32Z</time>
      </trkpt>
      <trkpt lat="43.87862" lon="6.54013">
        <ele>883.4</ele>
        <time>2026-05-15T09:45:33Z</time>
      </trkpt>
      <trkpt lat="43.87861" lon="6.54012">
        <ele>883.6</ele>
        <time>2026-05-15T09:45:34Z</time>
      </trkpt>
      <trkpt lat="43.87861" lon="6.54012">
        <ele>883.6</ele>
        <time>2026-05-15T09:45:35Z</time>
      </trkpt>
      <trkpt lat="43.87861" lon="6.54012">
        <ele>883.6</ele>
        <time>2026-05-15T09:45:36Z</time>
      </trkpt>
      <trkpt lat="43.87861" lon="6.54011">
        <ele>883.6</ele>
        <time>2026-05-15T09:45:37Z</time>
      </trkpt>
      <trkpt lat="43.8786" lon="6.54009">
        <ele>884</ele>
        <time>2026-05-15T09:45:38Z</time>
      </trkpt>
      <trkpt lat="43.8786" lon="6.54008">
        <ele>884</ele>
        <time>2026-05-15T09:45:39Z</time>
      </trkpt>
      <trkpt lat="43.8786" lon="6.54009">
        <ele>884</ele>
        <time>2026-05-15T09:45:40Z</time>
      </trkpt>
      <trkpt lat="43.8786" lon="6.54009">
        <ele>884</ele>
        <time>2026-05-15T09:45:41Z</time>
      </trkpt>
      <trkpt lat="43.8786" lon="6.54009">
        <ele>884</ele>
        <time>2026-05-15T09:45:42Z</time>
      </trkpt>
      <trkpt lat="43.8786" lon="6.5401">
        <ele>884</ele>
        <time>2026-05-15T09:45:43Z</time>
      </trkpt>
      <trkpt lat="43.8786" lon="6.54009">
        <ele>884</ele>
        <time>2026-05-15T09:45:44Z</time>
      </trkpt>
      <trkpt lat="43.8786" lon="6.54009">
        <ele>884</ele>
        <time>2026-05-15T09:45:45Z</time>
      </trkpt>
      <trkpt lat="43.8786" lon="6.54009">
        <ele>884</ele>
        <time>2026-05-15T09:45:46Z</time>
      </trkpt>
      <trkpt lat="43.8786" lon="6.5401">
        <ele>884</ele>
        <time>2026-05-15T09:45:47Z</time>
      </trkpt>
      <trkpt lat="43.87859" lon="6.54009">
        <ele>884.3</ele>
        <time>2026-05-15T09:45:48Z</time>
      </trkpt>
      <trkpt lat="43.87859" lon="6.5401">
        <ele>884.3</ele>
        <time>2026-05-15T09:45:49Z</time>
      </trkpt>
      <trkpt lat="43.87859" lon="6.5401">
        <ele>884.3</ele>
        <time>2026-05-15T09:45:50Z</time>
      </trkpt>
      <trkpt lat="43.87859" lon="6.5401">
        <ele>884.3</ele>
        <time>2026-05-15T09:45:51Z</time>
      </trkpt>
      <trkpt lat="43.87859" lon="6.5401">
        <ele>884.3</ele>
        <time>2026-05-15T09:45:52Z</time>
      </trkpt>
      <trkpt lat="43.87859" lon="6.5401">
        <ele>884.3</ele>
        <time>2026-05-15T09:45:53Z</time>
      </trkpt>
      <trkpt lat="43.87859" lon="6.5401">
        <ele>884.3</ele>
        <time>2026-05-15T09:45:54Z</time>
      </trkpt>
      <trkpt lat="43.8786" lon="6.5401">
        <ele>884</ele>
        <time>2026-05-15T09:45:55Z</time>
      </trkpt>
      <trkpt lat="43.8786" lon="6.5401">
        <ele>884</ele>
        <time>2026-05-15T09:45:56Z</time>
      </trkpt>
      <trkpt lat="43.8786" lon="6.5401">
        <ele>884</ele>
        <time>2026-05-15T09:45:57Z</time>
      </trkpt>
      <trkpt lat="43.8786" lon="6.5401">
        <ele>884</ele>
        <time>2026-05-15T09:45:58Z</time>
      </trkpt>
      <trkpt lat="43.87859" lon="6.5401">
        <ele>884.3</ele>
        <time>2026-05-15T09:45:59Z</time>
      </trkpt>
      <trkpt lat="43.87859" lon="6.5401">
        <ele>884.3</ele>
        <time>2026-05-15T09:46:00Z</time>
      </trkpt>
      <trkpt lat="43.87859" lon="6.5401">
        <ele>884.3</ele>
        <time>2026-05-15T09:46:01Z</time>
      </trkpt>
      <trkpt lat="43.87865" lon="6.54007">
        <ele>882.9</ele>
        <time>2026-05-15T09:52:56Z</time>
      </trkpt>
      <trkpt lat="43.87862" lon="6.54008">
        <ele>883.5</ele>
        <time>2026-05-15T09:52:57Z</time>
      </trkpt>
      <trkpt lat="43.87864" lon="6.54007">
        <ele>883.2</ele>
        <time>2026-05-15T09:52:58Z</time>
      </trkpt>
      <trkpt lat="43.87863" lon="6.54009">
        <ele>883.3</ele>
        <time>2026-05-15T09:52:59Z</time>
      </trkpt>
      <trkpt lat="43.87865" lon="6.54007">
        <ele>882.9</ele>
        <time>2026-05-15T09:53:00Z</time>
      </trkpt>
      <trkpt lat="43.87864" lon="6.54006">
        <ele>883.2</ele>
        <time>2026-05-15T09:53:01Z</time>
      </trkpt>
      <trkpt lat="43.87859" lon="6.5401">
        <ele>884.3</ele>
        <time>2026-05-15T09:53:02Z</time>
      </trkpt>
      <trkpt lat="43.87859" lon="6.5401">
        <ele>884.3</ele>
        <time>2026-05-15T09:53:03Z</time>
      </trkpt>
      <trkpt lat="43.87859" lon="6.5401">
        <ele>884.3</ele>
        <time>2026-05-15T09:53:04Z</time>
      </trkpt>
      <trkpt lat="43.87861" lon="6.54008">
        <ele>883.7</ele>
        <time>2026-05-15T09:53:05Z</time>
      </trkpt>
      <trkpt lat="43.87862" lon="6.54007">
        <ele>883.6</ele>
        <time>2026-05-15T09:53:06Z</time>
      </trkpt>
      <trkpt lat="43.87863" lon="6.54006">
        <ele>883.4</ele>
        <time>2026-05-15T09:53:07Z</time>
      </trkpt>
      <trkpt lat="43.87864" lon="6.54006">
        <ele>883.2</ele>
        <time>2026-05-15T09:53:08Z</time>
      </trkpt>
      <trkpt lat="43.87865" lon="6.54005">
        <ele>883</ele>
        <time>2026-05-15T09:53:09Z</time>
      </trkpt>
      <trkpt lat="43.87867" lon="6.54003">
        <ele>882.6</ele>
        <time>2026-05-15T09:53:10Z</time>
      </trkpt>
      <trkpt lat="43.87868" lon="6.54001">
        <ele>882.5</ele>
        <time>2026-05-15T09:53:11Z</time>
      </trkpt>
      <trkpt lat="43.87869" lon="6.53999">
        <ele>882.2</ele>
        <time>2026-05-15T09:53:12Z</time>
      </trkpt>
      <trkpt lat="43.87869" lon="6.53996">
        <ele>882.1</ele>
        <time>2026-05-15T09:53:13Z</time>
      </trkpt>
      <trkpt lat="43.87869" lon="6.53992">
        <ele>881.9</ele>
        <time>2026-05-15T09:53:14Z</time>
      </trkpt>
      <trkpt lat="43.87868" lon="6.5399">
        <ele>882</ele>
        <time>2026-05-15T09:53:15Z</time>
      </trkpt>
      <trkpt lat="43.87868" lon="6.53988">
        <ele>881.9</ele>
        <time>2026-05-15T09:53:16Z</time>
      </trkpt>
      <trkpt lat="43.87867" lon="6.53988">
        <ele>882</ele>
        <time>2026-05-15T09:53:17Z</time>
      </trkpt>
      <trkpt lat="43.87867" lon="6.53987">
        <ele>882</ele>
        <time>2026-05-15T09:53:18Z</time>
      </trkpt>
      <trkpt lat="43.87867" lon="6.53984">
        <ele>881.8</ele>
        <time>2026-05-15T09:53:19Z</time>
      </trkpt>
      <trkpt lat="43.87866" lon="6.53981">
        <ele>881.8</ele>
        <time>2026-05-15T09:53:20Z</time>
      </trkpt>
      <trkpt lat="43.87864" lon="6.53978">
        <ele>882</ele>
        <time>2026-05-15T09:53:21Z</time>
      </trkpt>
      <trkpt lat="43.87863" lon="6.53975">
        <ele>881.9</ele>
        <time>2026-05-15T09:53:22Z</time>
      </trkpt>
      <trkpt lat="43.87861" lon="6.53974">
        <ele>882.1</ele>
        <time>2026-05-15T09:53:23Z</time>
      </trkpt>
      <trkpt lat="43.8786" lon="6.53974">
        <ele>882.3</ele>
        <time>2026-05-15T09:53:24Z</time>
      </trkpt>
      <trkpt lat="43.87858" lon="6.53974">
        <ele>882.7</ele>
        <time>2026-05-15T09:53:25Z</time>
      </trkpt>
      <trkpt lat="43.87856" lon="6.53975">
        <ele>883.2</ele>
        <time>2026-05-15T09:53:26Z</time>
      </trkpt>
      <trkpt lat="43.87854" lon="6.53977">
        <ele>883.7</ele>
        <time>2026-05-15T09:53:27Z</time>
      </trkpt>
      <trkpt lat="43.87853" lon="6.53982">
        <ele>884.4</ele>
        <time>2026-05-15T09:53:28Z</time>
      </trkpt>
      <trkpt lat="43.87855" lon="6.53993">
        <ele>884.9</ele>
        <time>2026-05-15T09:53:29Z</time>
      </trkpt>
      <trkpt lat="43.87854" lon="6.54001">
        <ele>885.8</ele>
        <time>2026-05-15T09:53:30Z</time>
      </trkpt>
      <trkpt lat="43.87854" lon="6.5401">
        <ele>885.7</ele>
        <time>2026-05-15T09:53:31Z</time>
      </trkpt>
      <trkpt lat="43.87854" lon="6.54017">
        <ele>885.7</ele>
        <time>2026-05-15T09:53:32Z</time>
      </trkpt>
      <trkpt lat="43.87853" lon="6.54023">
        <ele>885.9</ele>
        <time>2026-05-15T09:53:33Z</time>
      </trkpt>
      <trkpt lat="43.87853" lon="6.54028">
        <ele>885.9</ele>
        <time>2026-05-15T09:53:34Z</time>
      </trkpt>
      <trkpt lat="43.87853" lon="6.54031">
        <ele>885.8</ele>
        <time>2026-05-15T09:53:35Z</time>
      </trkpt>
      <trkpt lat="43.87854" lon="6.54035">
        <ele>885.4</ele>
        <time>2026-05-15T09:53:36Z</time>
      </trkpt>
      <trkpt lat="43.87856" lon="6.54037">
        <ele>884.6</ele>
        <time>2026-05-15T09:53:37Z</time>
      </trkpt>
      <trkpt lat="43.87859" lon="6.54038">
        <ele>883.4</ele>
        <time>2026-05-15T09:53:38Z</time>
      </trkpt>
      <trkpt lat="43.87861" lon="6.54038">
        <ele>882.7</ele>
        <time>2026-05-15T09:53:39Z</time>
      </trkpt>
      <trkpt lat="43.87864" lon="6.54037">
        <ele>882.2</ele>
        <time>2026-05-15T09:53:40Z</time>
      </trkpt>
      <trkpt lat="43.87866" lon="6.54035">
        <ele>881.9</ele>
        <time>2026-05-15T09:53:41Z</time>
      </trkpt>
      <trkpt lat="43.87868" lon="6.54032">
        <ele>881.6</ele>
        <time>2026-05-15T09:53:42Z</time>
      </trkpt>
      <trkpt lat="43.87869" lon="6.54031">
        <ele>881.5</ele>
        <time>2026-05-15T09:53:43Z</time>
      </trkpt>
      <trkpt lat="43.87869" lon="6.5403">
        <ele>881.5</ele>
        <time>2026-05-15T09:53:44Z</time>
      </trkpt>
      <trkpt lat="43.8787" lon="6.5403">
        <ele>881.3</ele>
        <time>2026-05-15T09:53:45Z</time>
      </trkpt>
      <trkpt lat="43.8787" lon="6.5403">
        <ele>881.3</ele>
        <time>2026-05-15T09:53:46Z</time>
      </trkpt>
      <trkpt lat="43.87869" lon="6.5403">
        <ele>881.5</ele>
        <time>2026-05-15T09:53:47Z</time>
      </trkpt>
      <trkpt lat="43.87869" lon="6.5403">
        <ele>881.5</ele>
        <time>2026-05-15T09:53:48Z</time>
      </trkpt>
      <trkpt lat="43.8787" lon="6.5403">
        <ele>881.3</ele>
        <time>2026-05-15T09:53:49Z</time>
      </trkpt>
      <trkpt lat="43.8787" lon="6.5403">
        <ele>881.3</ele>
        <time>2026-05-15T09:53:50Z</time>
      </trkpt>
      <trkpt lat="43.8787" lon="6.5403">
        <ele>881.3</ele>
        <time>2026-05-15T09:53:51Z</time>
      </trkpt>
      <trkpt lat="43.8787" lon="6.54031">
        <ele>881.3</ele>
        <time>2026-05-15T09:53:52Z</time>
      </trkpt>
      <trkpt lat="43.8787" lon="6.54031">
        <ele>881.3</ele>
        <time>2026-05-15T09:53:53Z</time>
      </trkpt>
      <trkpt lat="43.8787" lon="6.54031">
        <ele>881.3</ele>
        <time>2026-05-15T09:53:54Z</time>
      </trkpt>
      <trkpt lat="43.8787" lon="6.54031">
        <ele>881.3</ele>
        <time>2026-05-15T09:53:55Z</time>
      </trkpt>
      <trkpt lat="43.8787" lon="6.54031">
        <ele>881.3</ele>
        <time>2026-05-15T09:53:56Z</time>
      </trkpt>
      <trkpt lat="43.8787" lon="6.54031">
        <ele>881.3</ele>
        <time>2026-05-15T09:53:57Z</time>
      </trkpt>
      <trkpt lat="43.8787" lon="6.54031">
        <ele>881.3</ele>
        <time>2026-05-15T09:53:58Z</time>
      </trkpt>
      <trkpt lat="43.8787" lon="6.54031">
        <ele>881.3</ele>
        <time>2026-05-15T09:53:59Z</time>
      </trkpt>
      <trkpt lat="43.8787" lon="6.54031">
        <ele>881.3</ele>
        <time>2026-05-15T09:54:00Z</time>
      </trkpt>
      <trkpt lat="43.8787" lon="6.54031">
        <ele>881.3</ele>
        <time>2026-05-15T09:54:01Z</time>
      </trkpt>
      <trkpt lat="43.8787" lon="6.54031">
        <ele>881.3</ele>
        <time>2026-05-15T09:54:02Z</time>
      </trkpt>
      <trkpt lat="43.8787" lon="6.54031">
        <ele>881.3</ele>
        <time>2026-05-15T09:54:03Z</time>
      </trkpt>
      <trkpt lat="43.8787" lon="6.54031">
        <ele>881.3</ele>
        <time>2026-05-15T09:54:04Z</time>
      </trkpt>
      <trkpt lat="43.8787" lon="6.54031">
        <ele>881.3</ele>
        <time>2026-05-15T09:54:05Z</time>
      </trkpt>
      <trkpt lat="43.8787" lon="6.54031">
        <ele>881.3</ele>
        <time>2026-05-15T09:54:06Z</time>
      </trkpt>
      <trkpt lat="43.8787" lon="6.54031">
        <ele>881.3</ele>
        <time>2026-05-15T09:54:07Z</time>
      </trkpt>
      <trkpt lat="43.8787" lon="6.54031">
        <ele>881.3</ele>
        <time>2026-05-15T09:54:08Z</time>
      </trkpt>
      <trkpt lat="43.8787" lon="6.54031">
        <ele>881.3</ele>
        <time>2026-05-15T09:54:09Z</time>
      </trkpt>
      <trkpt lat="43.8787" lon="6.54031">
        <ele>881.3</ele>
        <time>2026-05-15T09:54:10Z</time>
      </trkpt>
      <trkpt lat="43.8787" lon="6.54031">
        <ele>881.3</ele>
        <time>2026-05-15T09:54:11Z</time>
      </trkpt>
      <trkpt lat="43.8787" lon="6.54031">
        <ele>881.3</ele>
        <time>2026-05-15T09:54:12Z</time>
      </trkpt>
      <trkpt lat="43.8787" lon="6.54031">
        <ele>881.3</ele>
        <time>2026-05-15T09:54:13Z</time>
      </trkpt>
      <trkpt lat="43.8787" lon="6.54031">
        <ele>881.3</ele>
        <time>2026-05-15T09:54:14Z</time>
      </trkpt>
      <trkpt lat="43.8787" lon="6.54031">
        <ele>881.3</ele>
        <time>2026-05-15T09:54:15Z</time>
      </trkpt>
      <trkpt lat="43.8787" lon="6.54031">
        <ele>881.3</ele>
        <time>2026-05-15T09:54:16Z</time>
      </trkpt>
      <trkpt lat="43.8787" lon="6.54031">
        <ele>881.3</ele>
        <time>2026-05-15T09:54:17Z</time>
      </trkpt>
      <trkpt lat="43.8787" lon="6.54031">
        <ele>881.3</ele>
        <time>2026-05-15T09:54:18Z</time>
      </trkpt>
      <trkpt lat="43.8787" lon="6.54031">
        <ele>881.3</ele>
        <time>2026-05-15T09:54:19Z</time>
      </trkpt>
      <trkpt lat="43.8787" lon="6.54031">
        <ele>881.3</ele>
        <time>2026-05-15T09:54:20Z</time>
      </trkpt>
      <trkpt lat="43.8787" lon="6.54031">
        <ele>881.3</ele>
        <time>2026-05-15T09:54:21Z</time>
      </trkpt>
      <trkpt lat="43.8787" lon="6.54031">
        <ele>881.3</ele>
        <time>2026-05-15T09:54:22Z</time>
      </trkpt>
      <trkpt lat="43.8787" lon="6.54031">
        <ele>881.3</ele>
        <time>2026-05-15T09:54:23Z</time>
      </trkpt>
      <trkpt lat="43.8787" lon="6.54031">
        <ele>881.3</ele>
        <time>2026-05-15T09:54:24Z</time>
      </trkpt>
      <trkpt lat="43.8787" lon="6.54031">
        <ele>881.3</ele>
        <time>2026-05-15T09:54:25Z</time>
      </trkpt>
      <trkpt lat="43.8787" lon="6.54031">
        <ele>881.3</ele>
        <time>2026-05-15T09:54:26Z</time>
      </trkpt>
      <trkpt lat="43.8787" lon="6.5403">
        <ele>881.3</ele>
        <time>2026-05-15T09:54:27Z</time>
      </trkpt>
      <trkpt lat="43.87871" lon="6.5403">
        <ele>881.2</ele>
        <time>2026-05-15T09:54:28Z</time>
      </trkpt>
      <trkpt lat="43.87871" lon="6.5403">
        <ele>881.2</ele>
        <time>2026-05-15T09:54:29Z</time>
      </trkpt>
      <trkpt lat="43.87872" lon="6.5403">
        <ele>881</ele>
        <time>2026-05-15T09:54:30Z</time>
      </trkpt>
      <trkpt lat="43.87872" lon="6.54029">
        <ele>881</ele>
        <time>2026-05-15T09:54:31Z</time>
      </trkpt>
      <trkpt lat="43.87872" lon="6.54029">
        <ele>881</ele>
        <time>2026-05-15T09:54:32Z</time>
      </trkpt>
      <trkpt lat="43.87873" lon="6.54029">
        <ele>880.8</ele>
        <time>2026-05-15T09:54:33Z</time>
      </trkpt>
      <trkpt lat="43.87873" lon="6.54028">
        <ele>880.9</ele>
        <time>2026-05-15T09:54:34Z</time>
      </trkpt>
      <trkpt lat="43.87873" lon="6.54028">
        <ele>880.9</ele>
        <time>2026-05-15T09:54:35Z</time>
      </trkpt>
      <trkpt lat="43.87873" lon="6.54028">
        <ele>880.9</ele>
        <time>2026-05-15T09:54:36Z</time>
      </trkpt>
      <trkpt lat="43.87873" lon="6.54028">
        <ele>880.9</ele>
        <time>2026-05-15T09:54:37Z</time>
      </trkpt>
      <trkpt lat="43.87873" lon="6.54028">
        <ele>880.9</ele>
        <time>2026-05-15T09:54:38Z</time>
      </trkpt>
      <trkpt lat="43.87873" lon="6.54028">
        <ele>880.9</ele>
        <time>2026-05-15T09:54:39Z</time>
      </trkpt>
      <trkpt lat="43.87873" lon="6.54028">
        <ele>880.9</ele>
        <time>2026-05-15T09:54:40Z</time>
      </trkpt>
      <trkpt lat="43.87873" lon="6.54028">
        <ele>880.9</ele>
        <time>2026-05-15T09:54:41Z</time>
      </trkpt>
      <trkpt lat="43.87873" lon="6.54028">
        <ele>880.9</ele>
        <time>2026-05-15T09:54:42Z</time>
      </trkpt>
      <trkpt lat="43.87873" lon="6.54028">
        <ele>880.9</ele>
        <time>2026-05-15T09:54:43Z</time>
      </trkpt>
      <trkpt lat="43.87873" lon="6.54027">
        <ele>880.9</ele>
        <time>2026-05-15T09:54:44Z</time>
      </trkpt>
      <trkpt lat="43.87873" lon="6.54027">
        <ele>880.9</ele>
        <time>2026-05-15T09:54:45Z</time>
      </trkpt>
      <trkpt lat="43.87873" lon="6.54027">
        <ele>880.9</ele>
        <time>2026-05-15T09:54:46Z</time>
      </trkpt>
      <trkpt lat="43.87873" lon="6.54027">
        <ele>880.9</ele>
        <time>2026-05-15T09:54:47Z</time>
      </trkpt>
      <trkpt lat="43.87873" lon="6.54027">
        <ele>880.9</ele>
        <time>2026-05-15T09:54:48Z</time>
      </trkpt>
      <trkpt lat="43.87873" lon="6.54027">
        <ele>880.9</ele>
        <time>2026-05-15T09:54:49Z</time>
      </trkpt>
      <trkpt lat="43.87874" lon="6.54027">
        <ele>880.7</ele>
        <time>2026-05-15T09:54:50Z</time>
      </trkpt>
      <trkpt lat="43.87874" lon="6.54027">
        <ele>880.7</ele>
        <time>2026-05-15T09:54:51Z</time>
      </trkpt>
      <trkpt lat="43.87874" lon="6.54026">
        <ele>880.7</ele>
        <time>2026-05-15T09:54:52Z</time>
      </trkpt>
      <trkpt lat="43.87874" lon="6.54026">
        <ele>880.7</ele>
        <time>2026-05-15T09:54:53Z</time>
      </trkpt>
      <trkpt lat="43.87874" lon="6.54026">
        <ele>880.7</ele>
        <time>2026-05-15T09:54:54Z</time>
      </trkpt>
      <trkpt lat="43.87874" lon="6.54026">
        <ele>880.7</ele>
        <time>2026-05-15T09:54:55Z</time>
      </trkpt>
      <trkpt lat="43.87873" lon="6.54018">
        <ele>881.1</ele>
        <time>2026-05-15T09:55:48Z</time>
      </trkpt>
      <trkpt lat="43.87873" lon="6.54018">
        <ele>881.1</ele>
        <time>2026-05-15T09:55:49Z</time>
      </trkpt>
      <trkpt lat="43.87876" lon="6.54018">
        <ele>880.5</ele>
        <time>2026-05-15T09:55:50Z</time>
      </trkpt>
      <trkpt lat="43.87883" lon="6.54001">
        <ele>879.3</ele>
        <time>2026-05-15T09:55:52Z</time>
      </trkpt>
      <trkpt lat="43.87878" lon="6.54009">
        <ele>880.2</ele>
        <time>2026-05-15T09:55:53Z</time>
      </trkpt>
      <trkpt lat="43.87877" lon="6.5401">
        <ele>880.4</ele>
        <time>2026-05-15T09:55:54Z</time>
      </trkpt>
      <trkpt lat="43.87876" lon="6.54008">
        <ele>880.7</ele>
        <time>2026-05-15T09:55:55Z</time>
      </trkpt>
      <trkpt lat="43.87876" lon="6.54007">
        <ele>880.7</ele>
        <time>2026-05-15T09:55:56Z</time>
      </trkpt>
      <trkpt lat="43.87875" lon="6.54005">
        <ele>880.9</ele>
        <time>2026-05-15T09:55:57Z</time>
      </trkpt>
      <trkpt lat="43.87875" lon="6.54003">
        <ele>880.9</ele>
        <time>2026-05-15T09:55:58Z</time>
      </trkpt>
      <trkpt lat="43.87875" lon="6.54002">
        <ele>881</ele>
        <time>2026-05-15T09:55:59Z</time>
      </trkpt>
      <trkpt lat="43.87874" lon="6.54001">
        <ele>881.2</ele>
        <time>2026-05-15T09:56:00Z</time>
      </trkpt>
      <trkpt lat="43.87874" lon="6.54001">
        <ele>881.2</ele>
        <time>2026-05-15T09:56:01Z</time>
      </trkpt>
      <trkpt lat="43.87873" lon="6.54002">
        <ele>881.4</ele>
        <time>2026-05-15T09:56:02Z</time>
      </trkpt>
      <trkpt lat="43.87873" lon="6.54002">
        <ele>881.4</ele>
        <time>2026-05-15T09:56:03Z</time>
      </trkpt>
      <trkpt lat="43.87873" lon="6.54002">
        <ele>881.4</ele>
        <time>2026-05-15T09:56:04Z</time>
      </trkpt>
      <trkpt lat="43.87873" lon="6.54002">
        <ele>881.4</ele>
        <time>2026-05-15T09:56:05Z</time>
      </trkpt>
      <trkpt lat="43.87873" lon="6.54002">
        <ele>881.4</ele>
        <time>2026-05-15T09:56:06Z</time>
      </trkpt>
      <trkpt lat="43.87873" lon="6.54002">
        <ele>881.4</ele>
        <time>2026-05-15T09:56:07Z</time>
      </trkpt>
      <trkpt lat="43.87872" lon="6.54002">
        <ele>881.6</ele>
        <time>2026-05-15T09:56:08Z</time>
      </trkpt>
      <trkpt lat="43.87872" lon="6.54002">
        <ele>881.6</ele>
        <time>2026-05-15T09:56:09Z</time>
      </trkpt>
      <trkpt lat="43.87872" lon="6.54002">
        <ele>881.6</ele>
        <time>2026-05-15T09:56:10Z</time>
      </trkpt>
      <trkpt lat="43.87872" lon="6.54002">
        <ele>881.6</ele>
        <time>2026-05-15T09:56:11Z</time>
      </trkpt>
      <trkpt lat="43.87872" lon="6.54002">
        <ele>881.6</ele>
        <time>2026-05-15T09:56:12Z</time>
      </trkpt>
      <trkpt lat="43.87872" lon="6.54002">
        <ele>881.6</ele>
        <time>2026-05-15T09:56:13Z</time>
      </trkpt>
      <trkpt lat="43.87872" lon="6.54002">
        <ele>881.6</ele>
        <time>2026-05-15T09:56:14Z</time>
      </trkpt>
      <trkpt lat="43.87872" lon="6.54002">
        <ele>881.6</ele>
        <time>2026-05-15T09:56:15Z</time>
      </trkpt>
      <trkpt lat="43.87872" lon="6.54002">
        <ele>881.6</ele>
        <time>2026-05-15T09:56:16Z</time>
      </trkpt>
      <trkpt lat="43.87872" lon="6.54002">
        <ele>881.6</ele>
        <time>2026-05-15T09:56:17Z</time>
      </trkpt>
      <trkpt lat="43.87872" lon="6.54002">
        <ele>881.6</ele>
        <time>2026-05-15T09:56:18Z</time>
      </trkpt>
      <trkpt lat="43.87872" lon="6.54002">
        <ele>881.6</ele>
        <time>2026-05-15T09:56:19Z</time>
      </trkpt>
      <trkpt lat="43.87872" lon="6.54002">
        <ele>881.6</ele>
        <time>2026-05-15T09:56:20Z</time>
      </trkpt>
      <trkpt lat="43.87872" lon="6.54002">
        <ele>881.6</ele>
        <time>2026-05-15T09:56:21Z</time>
      </trkpt>
      <trkpt lat="43.87872" lon="6.54002">
        <ele>881.6</ele>
        <time>2026-05-15T09:56:22Z</time>
      </trkpt>
      <trkpt lat="43.87872" lon="6.54002">
        <ele>881.6</ele>
        <time>2026-05-15T09:56:23Z</time>
      </trkpt>
      <trkpt lat="43.87872" lon="6.54002">
        <ele>881.6</ele>
        <time>2026-05-15T09:56:24Z</time>
      </trkpt>
      <trkpt lat="43.87872" lon="6.54002">
        <ele>881.6</ele>
        <time>2026-05-15T09:56:25Z</time>
      </trkpt>
      <trkpt lat="43.87872" lon="6.54002">
        <ele>881.6</ele>
        <time>2026-05-15T09:56:26Z</time>
      </trkpt>
      <trkpt lat="43.87872" lon="6.54002">
        <ele>881.6</ele>
        <time>2026-05-15T09:56:27Z</time>
      </trkpt>
      <trkpt lat="43.87872" lon="6.54002">
        <ele>881.6</ele>
        <time>2026-05-15T09:56:28Z</time>
      </trkpt>
      <trkpt lat="43.87879" lon="6.53997">
        <ele>880.1</ele>
        <time>2026-05-15T10:22:56Z</time>
      </trkpt>
      <trkpt lat="43.87878" lon="6.53999">
        <ele>880.3</ele>
        <time>2026-05-15T10:22:57Z</time>
      </trkpt>
      <trkpt lat="43.87875" lon="6.54003">
        <ele>880.9</ele>
        <time>2026-05-15T10:22:58Z</time>
      </trkpt>
      <trkpt lat="43.87873" lon="6.54001">
        <ele>881.4</ele>
        <time>2026-05-15T10:22:59Z</time>
      </trkpt>
      <trkpt lat="43.87872" lon="6.53999">
        <ele>881.6</ele>
        <time>2026-05-15T10:23:00Z</time>
      </trkpt>
      <trkpt lat="43.87871" lon="6.53999">
        <ele>881.8</ele>
        <time>2026-05-15T10:23:01Z</time>
      </trkpt>
      <trkpt lat="43.8787" lon="6.53998">
        <ele>882</ele>
        <time>2026-05-15T10:23:02Z</time>
      </trkpt>
      <trkpt lat="43.8787" lon="6.53997">
        <ele>881.9</ele>
        <time>2026-05-15T10:23:03Z</time>
      </trkpt>
      <trkpt lat="43.8787" lon="6.53997">
        <ele>881.9</ele>
        <time>2026-05-15T10:23:04Z</time>
      </trkpt>
      <trkpt lat="43.8787" lon="6.53997">
        <ele>881.9</ele>
        <time>2026-05-15T10:23:05Z</time>
      </trkpt>
      <trkpt lat="43.8787" lon="6.53997">
        <ele>881.9</ele>
        <time>2026-05-15T10:23:06Z</time>
      </trkpt>
      <trkpt lat="43.87869" lon="6.53997">
        <ele>882.1</ele>
        <time>2026-05-15T10:23:07Z</time>
      </trkpt>
      <trkpt lat="43.87869" lon="6.53998">
        <ele>882.2</ele>
        <time>2026-05-15T10:23:08Z</time>
      </trkpt>
      <trkpt lat="43.87869" lon="6.53998">
        <ele>882.2</ele>
        <time>2026-05-15T10:23:09Z</time>
      </trkpt>
      <trkpt lat="43.87869" lon="6.53998">
        <ele>882.2</ele>
        <time>2026-05-15T10:23:10Z</time>
      </trkpt>
      <trkpt lat="43.87869" lon="6.53998">
        <ele>882.2</ele>
        <time>2026-05-15T10:23:11Z</time>
      </trkpt>
      <trkpt lat="43.87869" lon="6.53998">
        <ele>882.2</ele>
        <time>2026-05-15T10:23:12Z</time>
      </trkpt>
      <trkpt lat="43.87869" lon="6.53998">
        <ele>882.2</ele>
        <time>2026-05-15T10:23:13Z</time>
      </trkpt>
      <trkpt lat="43.87868" lon="6.53998">
        <ele>882.4</ele>
        <time>2026-05-15T10:23:14Z</time>
      </trkpt>
      <trkpt lat="43.87868" lon="6.53997">
        <ele>882.3</ele>
        <time>2026-05-15T10:23:15Z</time>
      </trkpt>
      <trkpt lat="43.87868" lon="6.53996">
        <ele>882.3</ele>
        <time>2026-05-15T10:23:16Z</time>
      </trkpt>
      <trkpt lat="43.87868" lon="6.53994">
        <ele>882.2</ele>
        <time>2026-05-15T10:23:17Z</time>
      </trkpt>
      <trkpt lat="43.87868" lon="6.53993">
        <ele>882.1</ele>
        <time>2026-05-15T10:23:18Z</time>
      </trkpt>
      <trkpt lat="43.87868" lon="6.53992">
        <ele>882.1</ele>
        <time>2026-05-15T10:23:19Z</time>
      </trkpt>
      <trkpt lat="43.87868" lon="6.53992">
        <ele>882.1</ele>
        <time>2026-05-15T10:23:20Z</time>
      </trkpt>
      <trkpt lat="43.87868" lon="6.53992">
        <ele>882.1</ele>
        <time>2026-05-15T10:23:21Z</time>
      </trkpt>
      <trkpt lat="43.87868" lon="6.53992">
        <ele>882.1</ele>
        <time>2026-05-15T10:23:22Z</time>
      </trkpt>
      <trkpt lat="43.87869" lon="6.53992">
        <ele>881.9</ele>
        <time>2026-05-15T10:23:23Z</time>
      </trkpt>
      <trkpt lat="43.87869" lon="6.53992">
        <ele>881.9</ele>
        <time>2026-05-15T10:23:24Z</time>
      </trkpt>
      <trkpt lat="43.87869" lon="6.53992">
        <ele>881.9</ele>
        <time>2026-05-15T10:23:25Z</time>
      </trkpt>
      <trkpt lat="43.87869" lon="6.53992">
        <ele>881.9</ele>
        <time>2026-05-15T10:23:26Z</time>
      </trkpt>
      <trkpt lat="43.8787" lon="6.53993">
        <ele>881.7</ele>
        <time>2026-05-15T10:23:27Z</time>
      </trkpt>
      <trkpt lat="43.8787" lon="6.53993">
        <ele>881.7</ele>
        <time>2026-05-15T10:23:28Z</time>
      </trkpt>
      <trkpt lat="43.8787" lon="6.53993">
        <ele>881.7</ele>
        <time>2026-05-15T10:23:29Z</time>
      </trkpt>
      <trkpt lat="43.8787" lon="6.53993">
        <ele>881.7</ele>
        <time>2026-05-15T10:23:30Z</time>
      </trkpt>
      <trkpt lat="43.8787" lon="6.53993">
        <ele>881.7</ele>
        <time>2026-05-15T10:23:31Z</time>
      </trkpt>
      <trkpt lat="43.8787" lon="6.53993">
        <ele>881.7</ele>
        <time>2026-05-15T10:23:32Z</time>
      </trkpt>
      <trkpt lat="43.8787" lon="6.53993">
        <ele>881.7</ele>
        <time>2026-05-15T10:23:33Z</time>
      </trkpt>
      <trkpt lat="43.8787" lon="6.53993">
        <ele>881.7</ele>
        <time>2026-05-15T10:23:34Z</time>
      </trkpt>
      <trkpt lat="43.8787" lon="6.53993">
        <ele>881.7</ele>
        <time>2026-05-15T10:23:35Z</time>
      </trkpt>
      <trkpt lat="43.8787" lon="6.53993">
        <ele>881.7</ele>
        <time>2026-05-15T10:23:36Z</time>
      </trkpt>
      <trkpt lat="43.8787" lon="6.53993">
        <ele>881.7</ele>
        <time>2026-05-15T10:23:37Z</time>
      </trkpt>
      <trkpt lat="43.8787" lon="6.53993">
        <ele>881.7</ele>
        <time>2026-05-15T10:23:38Z</time>
      </trkpt>
      <trkpt lat="43.8787" lon="6.53993">
        <ele>881.7</ele>
        <time>2026-05-15T10:23:39Z</time>
      </trkpt>
      <trkpt lat="43.8787" lon="6.53993">
        <ele>881.7</ele>
        <time>2026-05-15T10:23:40Z</time>
      </trkpt>
      <trkpt lat="43.8787" lon="6.53993">
        <ele>881.7</ele>
        <time>2026-05-15T10:23:41Z</time>
      </trkpt>
      <trkpt lat="43.8787" lon="6.53993">
        <ele>881.7</ele>
        <time>2026-05-15T10:23:42Z</time>
      </trkpt>
      <trkpt lat="43.8787" lon="6.53993">
        <ele>881.7</ele>
        <time>2026-05-15T10:23:43Z</time>
      </trkpt>
      <trkpt lat="43.8787" lon="6.53993">
        <ele>881.7</ele>
        <time>2026-05-15T10:23:44Z</time>
      </trkpt>
      <trkpt lat="43.8787" lon="6.53993">
        <ele>881.7</ele>
        <time>2026-05-15T10:23:45Z</time>
      </trkpt>
      <trkpt lat="43.8787" lon="6.53993">
        <ele>881.7</ele>
        <time>2026-05-15T10:23:46Z</time>
      </trkpt>
      <trkpt lat="43.87867" lon="6.53993">
        <ele>882.3</ele>
        <time>2026-05-15T10:24:03Z</time>
      </trkpt>
      <trkpt lat="43.87867" lon="6.53994">
        <ele>882.4</ele>
        <time>2026-05-15T10:24:04Z</time>
      </trkpt>
      <trkpt lat="43.87867" lon="6.53996">
        <ele>882.5</ele>
        <time>2026-05-15T10:24:05Z</time>
      </trkpt>
      <trkpt lat="43.8787" lon="6.53993">
        <ele>881.7</ele>
        <time>2026-05-15T10:24:07Z</time>
      </trkpt>
      <trkpt lat="43.8787" lon="6.53993">
        <ele>881.7</ele>
        <time>2026-05-15T10:24:08Z</time>
      </trkpt>
      <trkpt lat="43.8787" lon="6.53993">
        <ele>881.7</ele>
        <time>2026-05-15T10:24:09Z</time>
      </trkpt>
      <trkpt lat="43.8787" lon="6.53993">
        <ele>881.7</ele>
        <time>2026-05-15T10:24:10Z</time>
      </trkpt>
      <trkpt lat="43.8787" lon="6.53993">
        <ele>881.7</ele>
        <time>2026-05-15T10:24:11Z</time>
      </trkpt>
      <trkpt lat="43.8787" lon="6.53993">
        <ele>881.7</ele>
        <time>2026-05-15T10:24:12Z</time>
      </trkpt>
      <trkpt lat="43.8787" lon="6.53993">
        <ele>881.7</ele>
        <time>2026-05-15T10:24:13Z</time>
      </trkpt>
      <trkpt lat="43.8787" lon="6.53993">
        <ele>881.7</ele>
        <time>2026-05-15T10:24:14Z</time>
      </trkpt>
      <trkpt lat="43.8787" lon="6.53993">
        <ele>881.7</ele>
        <time>2026-05-15T10:24:15Z</time>
      </trkpt>
      <trkpt lat="43.8787" lon="6.53993">
        <ele>881.7</ele>
        <time>2026-05-15T10:24:16Z</time>
      </trkpt>
      <trkpt lat="43.8787" lon="6.53993">
        <ele>881.7</ele>
        <time>2026-05-15T10:24:17Z</time>
      </trkpt>
      <trkpt lat="43.8787" lon="6.53993">
        <ele>881.7</ele>
        <time>2026-05-15T10:24:18Z</time>
      </trkpt>
      <trkpt lat="43.8787" lon="6.53993">
        <ele>881.7</ele>
        <time>2026-05-15T10:24:19Z</time>
      </trkpt>
      <trkpt lat="43.8787" lon="6.53993">
        <ele>881.7</ele>
        <time>2026-05-15T10:24:20Z</time>
      </trkpt>
      <trkpt lat="43.8787" lon="6.53993">
        <ele>881.7</ele>
        <time>2026-05-15T10:24:21Z</time>
      </trkpt>
      <trkpt lat="43.8787" lon="6.53993">
        <ele>881.7</ele>
        <time>2026-05-15T10:24:22Z</time>
      </trkpt>
      <trkpt lat="43.8787" lon="6.53993">
        <ele>881.7</ele>
        <time>2026-05-15T10:24:23Z</time>
      </trkpt>
      <trkpt lat="43.8787" lon="6.53993">
        <ele>881.7</ele>
        <time>2026-05-15T10:24:24Z</time>
      </trkpt>
      <trkpt lat="43.8787" lon="6.53993">
        <ele>881.7</ele>
        <time>2026-05-15T10:24:25Z</time>
      </trkpt>
      <trkpt lat="43.8787" lon="6.53993">
        <ele>881.7</ele>
        <time>2026-05-15T10:24:26Z</time>
      </trkpt>
      <trkpt lat="43.8787" lon="6.53993">
        <ele>881.7</ele>
        <time>2026-05-15T10:24:27Z</time>
      </trkpt>
      <trkpt lat="43.8787" lon="6.53992">
        <ele>881.7</ele>
        <time>2026-05-15T10:24:28Z</time>
      </trkpt>
      <trkpt lat="43.87869" lon="6.53991">
        <ele>881.8</ele>
        <time>2026-05-15T10:24:29Z</time>
      </trkpt>
      <trkpt lat="43.87868" lon="6.53989">
        <ele>881.9</ele>
        <time>2026-05-15T10:24:30Z</time>
      </trkpt>
      <trkpt lat="43.87867" lon="6.53986">
        <ele>881.9</ele>
        <time>2026-05-15T10:24:31Z</time>
      </trkpt>
      <trkpt lat="43.87866" lon="6.53984">
        <ele>882</ele>
        <time>2026-05-15T10:24:32Z</time>
      </trkpt>
      <trkpt lat="43.87865" lon="6.53982">
        <ele>882</ele>
        <time>2026-05-15T10:24:33Z</time>
      </trkpt>
      <trkpt lat="43.87864" lon="6.5398">
        <ele>882.1</ele>
        <time>2026-05-15T10:24:34Z</time>
      </trkpt>
      <trkpt lat="43.87862" lon="6.53978">
        <ele>882.3</ele>
        <time>2026-05-15T10:24:35Z</time>
      </trkpt>
      <trkpt lat="43.87861" lon="6.53976">
        <ele>882.3</ele>
        <time>2026-05-15T10:24:36Z</time>
      </trkpt>
      <trkpt lat="43.87859" lon="6.53973">
        <ele>882.4</ele>
        <time>2026-05-15T10:24:37Z</time>
      </trkpt>
      <trkpt lat="43.87857" lon="6.5397">
        <ele>882.4</ele>
        <time>2026-05-15T10:24:38Z</time>
      </trkpt>
      <trkpt lat="43.87854" lon="6.53966">
        <ele>882.5</ele>
        <time>2026-05-15T10:24:39Z</time>
      </trkpt>
      <trkpt lat="43.87849" lon="6.53958">
        <ele>882.6</ele>
        <time>2026-05-15T10:24:40Z</time>
      </trkpt>
      <trkpt lat="43.87845" lon="6.5395">
        <ele>882.6</ele>
        <time>2026-05-15T10:24:41Z</time>
      </trkpt>
      <trkpt lat="43.8784" lon="6.53941">
        <ele>883.2</ele>
        <time>2026-05-15T10:24:42Z</time>
      </trkpt>
      <trkpt lat="43.87834" lon="6.53931">
        <ele>884.4</ele>
        <time>2026-05-15T10:24:43Z</time>
      </trkpt>
      <trkpt lat="43.87828" lon="6.53921">
        <ele>885.4</ele>
        <time>2026-05-15T10:24:44Z</time>
      </trkpt>
      <trkpt lat="43.87822" lon="6.53912">
        <ele>886</ele>
        <time>2026-05-15T10:24:45Z</time>
      </trkpt>
      <trkpt lat="43.87816" lon="6.53903">
        <ele>886.1</ele>
        <time>2026-05-15T10:24:46Z</time>
      </trkpt>
      <trkpt lat="43.87811" lon="6.53894">
        <ele>885.9</ele>
        <time>2026-05-15T10:24:47Z</time>
      </trkpt>
      <trkpt lat="43.87808" lon="6.53885">
        <ele>885</ele>
        <time>2026-05-15T10:24:48Z</time>
      </trkpt>
      <trkpt lat="43.87806" lon="6.53875">
        <ele>883.4</ele>
        <time>2026-05-15T10:24:49Z</time>
      </trkpt>
      <trkpt lat="43.87807" lon="6.53863">
        <ele>881.2</ele>
        <time>2026-05-15T10:24:50Z</time>
      </trkpt>
      <trkpt lat="43.87811" lon="6.53853">
        <ele>878.4</ele>
        <time>2026-05-15T10:24:51Z</time>
      </trkpt>
      <trkpt lat="43.87816" lon="6.53843">
        <ele>876.5</ele>
        <time>2026-05-15T10:24:52Z</time>
      </trkpt>
      <trkpt lat="43.87823" lon="6.53834">
        <ele>876.5</ele>
        <time>2026-05-15T10:24:53Z</time>
      </trkpt>
      <trkpt lat="43.87831" lon="6.53824">
        <ele>876.1</ele>
        <time>2026-05-15T10:24:54Z</time>
      </trkpt>
      <trkpt lat="43.87839" lon="6.53813">
        <ele>875.3</ele>
        <time>2026-05-15T10:24:55Z</time>
      </trkpt>
      <trkpt lat="43.87846" lon="6.53801">
        <ele>874.1</ele>
        <time>2026-05-15T10:24:56Z</time>
      </trkpt>
      <trkpt lat="43.87851" lon="6.53788">
        <ele>873.4</ele>
        <time>2026-05-15T10:24:57Z</time>
      </trkpt>
      <trkpt lat="43.87855" lon="6.53773">
        <ele>874</ele>
        <time>2026-05-15T10:24:58Z</time>
      </trkpt>
      <trkpt lat="43.87857" lon="6.53758">
        <ele>874.2</ele>
        <time>2026-05-15T10:24:59Z</time>
      </trkpt>
      <trkpt lat="43.87856" lon="6.53743">
        <ele>872.9</ele>
        <time>2026-05-15T10:25:00Z</time>
      </trkpt>
      <trkpt lat="43.87854" lon="6.53729">
        <ele>872.4</ele>
        <time>2026-05-15T10:25:01Z</time>
      </trkpt>
      <trkpt lat="43.87851" lon="6.53717">
        <ele>872.2</ele>
        <time>2026-05-15T10:25:02Z</time>
      </trkpt>
      <trkpt lat="43.87846" lon="6.53705">
        <ele>873.4</ele>
        <time>2026-05-15T10:25:03Z</time>
      </trkpt>
      <trkpt lat="43.8784" lon="6.53695">
        <ele>876.2</ele>
        <time>2026-05-15T10:25:04Z</time>
      </trkpt>
      <trkpt lat="43.87834" lon="6.53687">
        <ele>876.6</ele>
        <time>2026-05-15T10:25:05Z</time>
      </trkpt>
      <trkpt lat="43.87827" lon="6.5368">
        <ele>875.7</ele>
        <time>2026-05-15T10:25:06Z</time>
      </trkpt>
      <trkpt lat="43.87818" lon="6.53674">
        <ele>875.7</ele>
        <time>2026-05-15T10:25:07Z</time>
      </trkpt>
      <trkpt lat="43.8781" lon="6.5367">
        <ele>876.6</ele>
        <time>2026-05-15T10:25:08Z</time>
      </trkpt>
      <trkpt lat="43.878" lon="6.53668">
        <ele>877.1</ele>
        <time>2026-05-15T10:25:09Z</time>
      </trkpt>
      <trkpt lat="43.87791" lon="6.53667">
        <ele>877.3</ele>
        <time>2026-05-15T10:25:10Z</time>
      </trkpt>
      <trkpt lat="43.87783" lon="6.53666">
        <ele>877.2</ele>
        <time>2026-05-15T10:25:11Z</time>
      </trkpt>
      <trkpt lat="43.87774" lon="6.53661">
        <ele>878.5</ele>
        <time>2026-05-15T10:25:12Z</time>
      </trkpt>
      <trkpt lat="43.87766" lon="6.53653">
        <ele>881.3</ele>
        <time>2026-05-15T10:25:13Z</time>
      </trkpt>
      <trkpt lat="43.87759" lon="6.53643">
        <ele>883.5</ele>
        <time>2026-05-15T10:25:14Z</time>
      </trkpt>
      <trkpt lat="43.87752" lon="6.5363">
        <ele>884.2</ele>
        <time>2026-05-15T10:25:15Z</time>
      </trkpt>
      <trkpt lat="43.87744" lon="6.53616">
        <ele>885.5</ele>
        <time>2026-05-15T10:25:16Z</time>
      </trkpt>
      <trkpt lat="43.87735" lon="6.53602">
        <ele>886.8</ele>
        <time>2026-05-15T10:25:17Z</time>
      </trkpt>
      <trkpt lat="43.87726" lon="6.53586">
        <ele>885.7</ele>
        <time>2026-05-15T10:25:18Z</time>
      </trkpt>
      <trkpt lat="43.87716" lon="6.53569">
        <ele>886</ele>
        <time>2026-05-15T10:25:19Z</time>
      </trkpt>
      <trkpt lat="43.87707" lon="6.53553">
        <ele>886.6</ele>
        <time>2026-05-15T10:25:20Z</time>
      </trkpt>
      <trkpt lat="43.877" lon="6.53535">
        <ele>885.8</ele>
        <time>2026-05-15T10:25:21Z</time>
      </trkpt>
      <trkpt lat="43.87695" lon="6.53516">
        <ele>883.3</ele>
        <time>2026-05-15T10:25:22Z</time>
      </trkpt>
      <trkpt lat="43.87692" lon="6.53497">
        <ele>881.7</ele>
        <time>2026-05-15T10:25:23Z</time>
      </trkpt>
      <trkpt lat="43.87691" lon="6.53476">
        <ele>883.4</ele>
        <time>2026-05-15T10:25:24Z</time>
      </trkpt>
      <trkpt lat="43.87689" lon="6.53453">
        <ele>884.1</ele>
        <time>2026-05-15T10:25:25Z</time>
      </trkpt>
      <trkpt lat="43.87686" lon="6.53431">
        <ele>883.4</ele>
        <time>2026-05-15T10:25:26Z</time>
      </trkpt>
      <trkpt lat="43.8768" lon="6.53409">
        <ele>883.1</ele>
        <time>2026-05-15T10:25:27Z</time>
      </trkpt>
      <trkpt lat="43.87674" lon="6.53386">
        <ele>882.9</ele>
        <time>2026-05-15T10:25:28Z</time>
      </trkpt>
      <trkpt lat="43.87669" lon="6.53365">
        <ele>882</ele>
        <time>2026-05-15T10:25:29Z</time>
      </trkpt>
      <trkpt lat="43.87663" lon="6.53344">
        <ele>882.7</ele>
        <time>2026-05-15T10:25:30Z</time>
      </trkpt>
      <trkpt lat="43.87656" lon="6.53322">
        <ele>883.1</ele>
        <time>2026-05-15T10:25:31Z</time>
      </trkpt>
      <trkpt lat="43.87649" lon="6.53302">
        <ele>882.8</ele>
        <time>2026-05-15T10:25:32Z</time>
      </trkpt>
      <trkpt lat="43.87638" lon="6.53286">
        <ele>883.3</ele>
        <time>2026-05-15T10:25:33Z</time>
      </trkpt>
      <trkpt lat="43.87625" lon="6.53276">
        <ele>883.1</ele>
        <time>2026-05-15T10:25:34Z</time>
      </trkpt>
      <trkpt lat="43.87611" lon="6.53269">
        <ele>882.8</ele>
        <time>2026-05-15T10:25:35Z</time>
      </trkpt>
      <trkpt lat="43.87598" lon="6.53262">
        <ele>884.4</ele>
        <time>2026-05-15T10:25:36Z</time>
      </trkpt>
      <trkpt lat="43.87587" lon="6.53254">
        <ele>884</ele>
        <time>2026-05-15T10:25:37Z</time>
      </trkpt>
      <trkpt lat="43.8758" lon="6.53242">
        <ele>884.7</ele>
        <time>2026-05-15T10:25:38Z</time>
      </trkpt>
      <trkpt lat="43.87574" lon="6.53231">
        <ele>887.7</ele>
        <time>2026-05-15T10:25:39Z</time>
      </trkpt>
      <trkpt lat="43.87571" lon="6.53217">
        <ele>890.3</ele>
        <time>2026-05-15T10:25:40Z</time>
      </trkpt>
      <trkpt lat="43.87574" lon="6.53205">
        <ele>891.2</ele>
        <time>2026-05-15T10:25:41Z</time>
      </trkpt>
      <trkpt lat="43.87584" lon="6.53189">
        <ele>887.8</ele>
        <time>2026-05-15T10:25:42Z</time>
      </trkpt>
      <trkpt lat="43.87589" lon="6.53174">
        <ele>886.7</ele>
        <time>2026-05-15T10:25:43Z</time>
      </trkpt>
      <trkpt lat="43.87587" lon="6.53155">
        <ele>886.7</ele>
        <time>2026-05-15T10:25:44Z</time>
      </trkpt>
      <trkpt lat="43.87587" lon="6.53138">
        <ele>885.8</ele>
        <time>2026-05-15T10:25:45Z</time>
      </trkpt>
      <trkpt lat="43.8758" lon="6.53121">
        <ele>886.7</ele>
        <time>2026-05-15T10:25:46Z</time>
      </trkpt>
      <trkpt lat="43.87572" lon="6.53103">
        <ele>888.8</ele>
        <time>2026-05-15T10:25:47Z</time>
      </trkpt>
      <trkpt lat="43.87565" lon="6.53085">
        <ele>888.4</ele>
        <time>2026-05-15T10:25:48Z</time>
      </trkpt>
      <trkpt lat="43.87557" lon="6.53067">
        <ele>887.2</ele>
        <time>2026-05-15T10:25:49Z</time>
      </trkpt>
      <trkpt lat="43.87547" lon="6.5305">
        <ele>887.6</ele>
        <time>2026-05-15T10:25:50Z</time>
      </trkpt>
      <trkpt lat="43.87538" lon="6.53034">
        <ele>887.3</ele>
        <time>2026-05-15T10:25:51Z</time>
      </trkpt>
      <trkpt lat="43.87531" lon="6.53016">
        <ele>886.3</ele>
        <time>2026-05-15T10:25:52Z</time>
      </trkpt>
      <trkpt lat="43.87529" lon="6.52997">
        <ele>884.9</ele>
        <time>2026-05-15T10:25:53Z</time>
      </trkpt>
      <trkpt lat="43.87531" lon="6.52979">
        <ele>885.5</ele>
        <time>2026-05-15T10:25:54Z</time>
      </trkpt>
      <trkpt lat="43.87534" lon="6.52959">
        <ele>886.1</ele>
        <time>2026-05-15T10:25:55Z</time>
      </trkpt>
      <trkpt lat="43.87536" lon="6.52939">
        <ele>886.3</ele>
        <time>2026-05-15T10:25:56Z</time>
      </trkpt>
      <trkpt lat="43.87534" lon="6.52918">
        <ele>886.6</ele>
        <time>2026-05-15T10:25:57Z</time>
      </trkpt>
      <trkpt lat="43.87529" lon="6.52898">
        <ele>885.3</ele>
        <time>2026-05-15T10:25:58Z</time>
      </trkpt>
      <trkpt lat="43.87523" lon="6.52876">
        <ele>885.4</ele>
        <time>2026-05-15T10:25:59Z</time>
      </trkpt>
      <trkpt lat="43.87516" lon="6.52855">
        <ele>886.7</ele>
        <time>2026-05-15T10:26:00Z</time>
      </trkpt>
      <trkpt lat="43.87509" lon="6.52833">
        <ele>887.4</ele>
        <time>2026-05-15T10:26:01Z</time>
      </trkpt>
      <trkpt lat="43.87502" lon="6.52812">
        <ele>886</ele>
        <time>2026-05-15T10:26:02Z</time>
      </trkpt>
      <trkpt lat="43.87495" lon="6.52791">
        <ele>886.3</ele>
        <time>2026-05-15T10:26:03Z</time>
      </trkpt>
      <trkpt lat="43.8749" lon="6.52768">
        <ele>886.7</ele>
        <time>2026-05-15T10:26:04Z</time>
      </trkpt>
      <trkpt lat="43.87488" lon="6.52744">
        <ele>886.1</ele>
        <time>2026-05-15T10:26:05Z</time>
      </trkpt>
      <trkpt lat="43.87487" lon="6.52719">
        <ele>885</ele>
        <time>2026-05-15T10:26:06Z</time>
      </trkpt>
      <trkpt lat="43.87486" lon="6.52695">
        <ele>884.6</ele>
        <time>2026-05-15T10:26:07Z</time>
      </trkpt>
      <trkpt lat="43.87485" lon="6.52672">
        <ele>883.7</ele>
        <time>2026-05-15T10:26:08Z</time>
      </trkpt>
      <trkpt lat="43.87481" lon="6.5265">
        <ele>883.6</ele>
        <time>2026-05-15T10:26:09Z</time>
      </trkpt>
      <trkpt lat="43.87476" lon="6.52629">
        <ele>882.8</ele>
        <time>2026-05-15T10:26:10Z</time>
      </trkpt>
      <trkpt lat="43.87469" lon="6.52607">
        <ele>882.2</ele>
        <time>2026-05-15T10:26:11Z</time>
      </trkpt>
      <trkpt lat="43.87462" lon="6.52585">
        <ele>882.9</ele>
        <time>2026-05-15T10:26:12Z</time>
      </trkpt>
      <trkpt lat="43.87455" lon="6.52563">
        <ele>883.1</ele>
        <time>2026-05-15T10:26:13Z</time>
      </trkpt>
      <trkpt lat="43.87448" lon="6.5254">
        <ele>882.6</ele>
        <time>2026-05-15T10:26:14Z</time>
      </trkpt>
      <trkpt lat="43.8744" lon="6.52517">
        <ele>882.7</ele>
        <time>2026-05-15T10:26:15Z</time>
      </trkpt>
      <trkpt lat="43.87434" lon="6.52493">
        <ele>882.8</ele>
        <time>2026-05-15T10:26:16Z</time>
      </trkpt>
      <trkpt lat="43.87425" lon="6.5247">
        <ele>883.7</ele>
        <time>2026-05-15T10:26:17Z</time>
      </trkpt>
      <trkpt lat="43.87417" lon="6.52447">
        <ele>883.2</ele>
        <time>2026-05-15T10:26:18Z</time>
      </trkpt>
      <trkpt lat="43.8741" lon="6.52422">
        <ele>883.9</ele>
        <time>2026-05-15T10:26:19Z</time>
      </trkpt>
      <trkpt lat="43.87405" lon="6.52398">
        <ele>885</ele>
        <time>2026-05-15T10:26:20Z</time>
      </trkpt>
      <trkpt lat="43.87401" lon="6.52372">
        <ele>885.3</ele>
        <time>2026-05-15T10:26:21Z</time>
      </trkpt>
      <trkpt lat="43.87398" lon="6.52346">
        <ele>885.2</ele>
        <time>2026-05-15T10:26:22Z</time>
      </trkpt>
      <trkpt lat="43.87396" lon="6.5232">
        <ele>885.1</ele>
        <time>2026-05-15T10:26:23Z</time>
      </trkpt>
      <trkpt lat="43.87393" lon="6.52295">
        <ele>885</ele>
        <time>2026-05-15T10:26:24Z</time>
      </trkpt>
      <trkpt lat="43.87389" lon="6.52269">
        <ele>884.3</ele>
        <time>2026-05-15T10:26:25Z</time>
      </trkpt>
      <trkpt lat="43.87385" lon="6.52243">
        <ele>884.3</ele>
        <time>2026-05-15T10:26:26Z</time>
      </trkpt>
      <trkpt lat="43.87382" lon="6.52217">
        <ele>883.7</ele>
        <time>2026-05-15T10:26:27Z</time>
      </trkpt>
      <trkpt lat="43.87381" lon="6.52191">
        <ele>883</ele>
        <time>2026-05-15T10:26:28Z</time>
      </trkpt>
      <trkpt lat="43.8738" lon="6.52164">
        <ele>882.8</ele>
        <time>2026-05-15T10:26:29Z</time>
      </trkpt>
      <trkpt lat="43.87381" lon="6.52137">
        <ele>882.4</ele>
        <time>2026-05-15T10:26:30Z</time>
      </trkpt>
      <trkpt lat="43.87383" lon="6.5211">
        <ele>881.8</ele>
        <time>2026-05-15T10:26:31Z</time>
      </trkpt>
      <trkpt lat="43.87386" lon="6.52082">
        <ele>881.4</ele>
        <time>2026-05-15T10:26:32Z</time>
      </trkpt>
      <trkpt lat="43.87389" lon="6.52054">
        <ele>881</ele>
        <time>2026-05-15T10:26:33Z</time>
      </trkpt>
      <trkpt lat="43.87391" lon="6.52025">
        <ele>881.7</ele>
        <time>2026-05-15T10:26:34Z</time>
      </trkpt>
      <trkpt lat="43.87393" lon="6.51995">
        <ele>881.4</ele>
        <time>2026-05-15T10:26:35Z</time>
      </trkpt>
      <trkpt lat="43.87393" lon="6.51962">
        <ele>881.4</ele>
        <time>2026-05-15T10:26:36Z</time>
      </trkpt>
      <trkpt lat="43.87391" lon="6.51928">
        <ele>881.1</ele>
        <time>2026-05-15T10:26:37Z</time>
      </trkpt>
      <trkpt lat="43.8739" lon="6.51894">
        <ele>880.9</ele>
        <time>2026-05-15T10:26:38Z</time>
      </trkpt>
      <trkpt lat="43.87389" lon="6.51861">
        <ele>882</ele>
        <time>2026-05-15T10:26:39Z</time>
      </trkpt>
      <trkpt lat="43.87387" lon="6.51828">
        <ele>883.9</ele>
        <time>2026-05-15T10:26:40Z</time>
      </trkpt>
      <trkpt lat="43.87385" lon="6.51796">
        <ele>885.5</ele>
        <time>2026-05-15T10:26:41Z</time>
      </trkpt>
      <trkpt lat="43.87384" lon="6.51764">
        <ele>885.9</ele>
        <time>2026-05-15T10:26:42Z</time>
      </trkpt>
      <trkpt lat="43.87382" lon="6.51732">
        <ele>886.7</ele>
        <time>2026-05-15T10:26:43Z</time>
      </trkpt>
      <trkpt lat="43.8738" lon="6.517">
        <ele>887.3</ele>
        <time>2026-05-15T10:26:44Z</time>
      </trkpt>
      <trkpt lat="43.87378" lon="6.51669">
        <ele>887.6</ele>
        <time>2026-05-15T10:26:45Z</time>
      </trkpt>
      <trkpt lat="43.87376" lon="6.51638">
        <ele>888.2</ele>
        <time>2026-05-15T10:26:46Z</time>
      </trkpt>
      <trkpt lat="43.87374" lon="6.51606">
        <ele>888.3</ele>
        <time>2026-05-15T10:26:47Z</time>
      </trkpt>
      <trkpt lat="43.87374" lon="6.51574">
        <ele>888</ele>
        <time>2026-05-15T10:26:48Z</time>
      </trkpt>
      <trkpt lat="43.87372" lon="6.51543">
        <ele>887.9</ele>
        <time>2026-05-15T10:26:49Z</time>
      </trkpt>
      <trkpt lat="43.8737" lon="6.51513">
        <ele>888</ele>
        <time>2026-05-15T10:26:50Z</time>
      </trkpt>
      <trkpt lat="43.87367" lon="6.51484">
        <ele>888</ele>
        <time>2026-05-15T10:26:51Z</time>
      </trkpt>
      <trkpt lat="43.87363" lon="6.51458">
        <ele>888.4</ele>
        <time>2026-05-15T10:26:52Z</time>
      </trkpt>
      <trkpt lat="43.87355" lon="6.51435">
        <ele>889.3</ele>
        <time>2026-05-15T10:26:53Z</time>
      </trkpt>
      <trkpt lat="43.87344" lon="6.51414">
        <ele>889.6</ele>
        <time>2026-05-15T10:26:54Z</time>
      </trkpt>
      <trkpt lat="43.8733" lon="6.51396">
        <ele>890.4</ele>
        <time>2026-05-15T10:26:55Z</time>
      </trkpt>
      <trkpt lat="43.87314" lon="6.51381">
        <ele>892.2</ele>
        <time>2026-05-15T10:26:56Z</time>
      </trkpt>
      <trkpt lat="43.87297" lon="6.51365">
        <ele>893.8</ele>
        <time>2026-05-15T10:26:57Z</time>
      </trkpt>
      <trkpt lat="43.8728" lon="6.51349">
        <ele>894.9</ele>
        <time>2026-05-15T10:26:58Z</time>
      </trkpt>
      <trkpt lat="43.87264" lon="6.51333">
        <ele>895.6</ele>
        <time>2026-05-15T10:26:59Z</time>
      </trkpt>
      <trkpt lat="43.87248" lon="6.51317">
        <ele>895.6</ele>
        <time>2026-05-15T10:27:00Z</time>
      </trkpt>
      <trkpt lat="43.87232" lon="6.51301">
        <ele>893.7</ele>
        <time>2026-05-15T10:27:01Z</time>
      </trkpt>
      <trkpt lat="43.87217" lon="6.51286">
        <ele>892.2</ele>
        <time>2026-05-15T10:27:02Z</time>
      </trkpt>
      <trkpt lat="43.872" lon="6.51273">
        <ele>891</ele>
        <time>2026-05-15T10:27:03Z</time>
      </trkpt>
      <trkpt lat="43.87182" lon="6.51262">
        <ele>890.3</ele>
        <time>2026-05-15T10:27:04Z</time>
      </trkpt>
      <trkpt lat="43.87163" lon="6.51253">
        <ele>890.1</ele>
        <time>2026-05-15T10:27:05Z</time>
      </trkpt>
      <trkpt lat="43.87144" lon="6.51245">
        <ele>890.8</ele>
        <time>2026-05-15T10:27:06Z</time>
      </trkpt>
      <trkpt lat="43.87126" lon="6.51236">
        <ele>891.7</ele>
        <time>2026-05-15T10:27:07Z</time>
      </trkpt>
      <trkpt lat="43.87109" lon="6.51223">
        <ele>891.2</ele>
        <time>2026-05-15T10:27:08Z</time>
      </trkpt>
      <trkpt lat="43.87092" lon="6.51207">
        <ele>890.9</ele>
        <time>2026-05-15T10:27:09Z</time>
      </trkpt>
      <trkpt lat="43.87076" lon="6.51192">
        <ele>890</ele>
        <time>2026-05-15T10:27:10Z</time>
      </trkpt>
      <trkpt lat="43.8706" lon="6.51176">
        <ele>889.5</ele>
        <time>2026-05-15T10:27:11Z</time>
      </trkpt>
      <trkpt lat="43.87043" lon="6.51161">
        <ele>888.9</ele>
        <time>2026-05-15T10:27:12Z</time>
      </trkpt>
      <trkpt lat="43.87026" lon="6.51144">
        <ele>888.8</ele>
        <time>2026-05-15T10:27:13Z</time>
      </trkpt>
      <trkpt lat="43.87009" lon="6.51128">
        <ele>889</ele>
        <time>2026-05-15T10:27:14Z</time>
      </trkpt>
      <trkpt lat="43.86992" lon="6.51112">
        <ele>888.1</ele>
        <time>2026-05-15T10:27:15Z</time>
      </trkpt>
      <trkpt lat="43.86976" lon="6.51095">
        <ele>886.6</ele>
        <time>2026-05-15T10:27:16Z</time>
      </trkpt>
      <trkpt lat="43.86962" lon="6.51075">
        <ele>885.8</ele>
        <time>2026-05-15T10:27:17Z</time>
      </trkpt>
      <trkpt lat="43.86952" lon="6.51053">
        <ele>884.4</ele>
        <time>2026-05-15T10:27:18Z</time>
      </trkpt>
      <trkpt lat="43.86946" lon="6.51029">
        <ele>883.4</ele>
        <time>2026-05-15T10:27:19Z</time>
      </trkpt>
      <trkpt lat="43.86942" lon="6.51002">
        <ele>882.1</ele>
        <time>2026-05-15T10:27:20Z</time>
      </trkpt>
      <trkpt lat="43.8694" lon="6.50975">
        <ele>882.2</ele>
        <time>2026-05-15T10:27:21Z</time>
      </trkpt>
      <trkpt lat="43.86937" lon="6.50947">
        <ele>881.3</ele>
        <time>2026-05-15T10:27:22Z</time>
      </trkpt>
      <trkpt lat="43.86934" lon="6.5092">
        <ele>880.2</ele>
        <time>2026-05-15T10:27:23Z</time>
      </trkpt>
      <trkpt lat="43.86931" lon="6.50892">
        <ele>880</ele>
        <time>2026-05-15T10:27:24Z</time>
      </trkpt>
      <trkpt lat="43.86926" lon="6.50863">
        <ele>879</ele>
        <time>2026-05-15T10:27:25Z</time>
      </trkpt>
      <trkpt lat="43.86921" lon="6.50835">
        <ele>878</ele>
        <time>2026-05-15T10:27:26Z</time>
      </trkpt>
      <trkpt lat="43.86914" lon="6.50808">
        <ele>876.2</ele>
        <time>2026-05-15T10:27:27Z</time>
      </trkpt>
      <trkpt lat="43.86905" lon="6.50781">
        <ele>875.8</ele>
        <time>2026-05-15T10:27:28Z</time>
      </trkpt>
      <trkpt lat="43.86895" lon="6.50756">
        <ele>874.3</ele>
        <time>2026-05-15T10:27:29Z</time>
      </trkpt>
      <trkpt lat="43.86883" lon="6.50733">
        <ele>873</ele>
        <time>2026-05-15T10:27:30Z</time>
      </trkpt>
      <trkpt lat="43.86871" lon="6.50711">
        <ele>871.9</ele>
        <time>2026-05-15T10:27:31Z</time>
      </trkpt>
      <trkpt lat="43.86858" lon="6.50691">
        <ele>870.2</ele>
        <time>2026-05-15T10:27:32Z</time>
      </trkpt>
      <trkpt lat="43.86844" lon="6.50673">
        <ele>868</ele>
        <time>2026-05-15T10:27:33Z</time>
      </trkpt>
      <trkpt lat="43.86831" lon="6.50655">
        <ele>867.5</ele>
        <time>2026-05-15T10:27:34Z</time>
      </trkpt>
      <trkpt lat="43.86819" lon="6.50637">
        <ele>867</ele>
        <time>2026-05-15T10:27:35Z</time>
      </trkpt>
      <trkpt lat="43.86811" lon="6.50616">
        <ele>866.8</ele>
        <time>2026-05-15T10:27:36Z</time>
      </trkpt>
      <trkpt lat="43.86805" lon="6.50594">
        <ele>866.4</ele>
        <time>2026-05-15T10:27:37Z</time>
      </trkpt>
      <trkpt lat="43.86804" lon="6.5057">
        <ele>866</ele>
        <time>2026-05-15T10:27:38Z</time>
      </trkpt>
      <trkpt lat="43.86807" lon="6.50548">
        <ele>865.9</ele>
        <time>2026-05-15T10:27:39Z</time>
      </trkpt>
      <trkpt lat="43.8681" lon="6.50527">
        <ele>865.6</ele>
        <time>2026-05-15T10:27:40Z</time>
      </trkpt>
      <trkpt lat="43.86811" lon="6.50508">
        <ele>866</ele>
        <time>2026-05-15T10:27:41Z</time>
      </trkpt>
      <trkpt lat="43.86808" lon="6.50492">
        <ele>864.9</ele>
        <time>2026-05-15T10:27:42Z</time>
      </trkpt>
      <trkpt lat="43.86804" lon="6.50477">
        <ele>863.6</ele>
        <time>2026-05-15T10:27:43Z</time>
      </trkpt>
      <trkpt lat="43.868" lon="6.50462">
        <ele>862.6</ele>
        <time>2026-05-15T10:27:44Z</time>
      </trkpt>
      <trkpt lat="43.86796" lon="6.50446">
        <ele>861.6</ele>
        <time>2026-05-15T10:27:45Z</time>
      </trkpt>
      <trkpt lat="43.86794" lon="6.5043">
        <ele>861.3</ele>
        <time>2026-05-15T10:27:46Z</time>
      </trkpt>
      <trkpt lat="43.86793" lon="6.50414">
        <ele>861.2</ele>
        <time>2026-05-15T10:27:47Z</time>
      </trkpt>
      <trkpt lat="43.86794" lon="6.50399">
        <ele>860.8</ele>
        <time>2026-05-15T10:27:48Z</time>
      </trkpt>
      <trkpt lat="43.86797" lon="6.50384">
        <ele>860.6</ele>
        <time>2026-05-15T10:27:49Z</time>
      </trkpt>
      <trkpt lat="43.868" lon="6.5037">
        <ele>860.2</ele>
        <time>2026-05-15T10:27:50Z</time>
      </trkpt>
      <trkpt lat="43.86802" lon="6.50355">
        <ele>859.8</ele>
        <time>2026-05-15T10:27:51Z</time>
      </trkpt>
      <trkpt lat="43.86802" lon="6.50342">
        <ele>859.7</ele>
        <time>2026-05-15T10:27:52Z</time>
      </trkpt>
      <trkpt lat="43.868" lon="6.50329">
        <ele>859.6</ele>
        <time>2026-05-15T10:27:53Z</time>
      </trkpt>
      <trkpt lat="43.86795" lon="6.50318">
        <ele>859.3</ele>
        <time>2026-05-15T10:27:54Z</time>
      </trkpt>
      <trkpt lat="43.86788" lon="6.5031">
        <ele>858.2</ele>
        <time>2026-05-15T10:27:55Z</time>
      </trkpt>
      <trkpt lat="43.8678" lon="6.50306">
        <ele>856.5</ele>
        <time>2026-05-15T10:27:56Z</time>
      </trkpt>
      <trkpt lat="43.86772" lon="6.50305">
        <ele>855.2</ele>
        <time>2026-05-15T10:27:57Z</time>
      </trkpt>
      <trkpt lat="43.86764" lon="6.50308">
        <ele>854.1</ele>
        <time>2026-05-15T10:27:58Z</time>
      </trkpt>
      <trkpt lat="43.86756" lon="6.50313">
        <ele>853.3</ele>
        <time>2026-05-15T10:27:59Z</time>
      </trkpt>
      <trkpt lat="43.8675" lon="6.50322">
        <ele>853.2</ele>
        <time>2026-05-15T10:28:00Z</time>
      </trkpt>
      <trkpt lat="43.86746" lon="6.50333">
        <ele>852.7</ele>
        <time>2026-05-15T10:28:01Z</time>
      </trkpt>
      <trkpt lat="43.86745" lon="6.50346">
        <ele>852.8</ele>
        <time>2026-05-15T10:28:02Z</time>
      </trkpt>
      <trkpt lat="43.86746" lon="6.50361">
        <ele>853.7</ele>
        <time>2026-05-15T10:28:03Z</time>
      </trkpt>
      <trkpt lat="43.86748" lon="6.50377">
        <ele>853.2</ele>
        <time>2026-05-15T10:28:04Z</time>
      </trkpt>
      <trkpt lat="43.8675" lon="6.50394">
        <ele>852.6</ele>
        <time>2026-05-15T10:28:05Z</time>
      </trkpt>
      <trkpt lat="43.86753" lon="6.5041">
        <ele>852.2</ele>
        <time>2026-05-15T10:28:06Z</time>
      </trkpt>
      <trkpt lat="43.86756" lon="6.50427">
        <ele>852.1</ele>
        <time>2026-05-15T10:28:07Z</time>
      </trkpt>
      <trkpt lat="43.86758" lon="6.50446">
        <ele>851.9</ele>
        <time>2026-05-15T10:28:08Z</time>
      </trkpt>
      <trkpt lat="43.8676" lon="6.50465">
        <ele>851.6</ele>
        <time>2026-05-15T10:28:09Z</time>
      </trkpt>
      <trkpt lat="43.8676" lon="6.50485">
        <ele>850.8</ele>
        <time>2026-05-15T10:28:10Z</time>
      </trkpt>
      <trkpt lat="43.86758" lon="6.50506">
        <ele>849.8</ele>
        <time>2026-05-15T10:28:11Z</time>
      </trkpt>
      <trkpt lat="43.86754" lon="6.50527">
        <ele>849.3</ele>
        <time>2026-05-15T10:28:12Z</time>
      </trkpt>
      <trkpt lat="43.86749" lon="6.50548">
        <ele>847.7</ele>
        <time>2026-05-15T10:28:13Z</time>
      </trkpt>
      <trkpt lat="43.86745" lon="6.50569">
        <ele>846.5</ele>
        <time>2026-05-15T10:28:14Z</time>
      </trkpt>
      <trkpt lat="43.8674" lon="6.50589">
        <ele>845.2</ele>
        <time>2026-05-15T10:28:15Z</time>
      </trkpt>
      <trkpt lat="43.86735" lon="6.50609">
        <ele>844.2</ele>
        <time>2026-05-15T10:28:16Z</time>
      </trkpt>
      <trkpt lat="43.8673" lon="6.50628">
        <ele>843.2</ele>
        <time>2026-05-15T10:28:17Z</time>
      </trkpt>
      <trkpt lat="43.86725" lon="6.50648">
        <ele>842.5</ele>
        <time>2026-05-15T10:28:18Z</time>
      </trkpt>
      <trkpt lat="43.8672" lon="6.50668">
        <ele>841.7</ele>
        <time>2026-05-15T10:28:19Z</time>
      </trkpt>
      <trkpt lat="43.86715" lon="6.50688">
        <ele>841.2</ele>
        <time>2026-05-15T10:28:20Z</time>
      </trkpt>
      <trkpt lat="43.8671" lon="6.50709">
        <ele>841</ele>
        <time>2026-05-15T10:28:21Z</time>
      </trkpt>
      <trkpt lat="43.86705" lon="6.50731">
        <ele>840.3</ele>
        <time>2026-05-15T10:28:22Z</time>
      </trkpt>
      <trkpt lat="43.867" lon="6.50753">
        <ele>839</ele>
        <time>2026-05-15T10:28:23Z</time>
      </trkpt>
      <trkpt lat="43.86693" lon="6.50774">
        <ele>837.7</ele>
        <time>2026-05-15T10:28:24Z</time>
      </trkpt>
      <trkpt lat="43.86684" lon="6.50794">
        <ele>836.7</ele>
        <time>2026-05-15T10:28:25Z</time>
      </trkpt>
      <trkpt lat="43.86673" lon="6.50811">
        <ele>835.5</ele>
        <time>2026-05-15T10:28:26Z</time>
      </trkpt>
      <trkpt lat="43.86659" lon="6.50824">
        <ele>834.3</ele>
        <time>2026-05-15T10:28:27Z</time>
      </trkpt>
      <trkpt lat="43.86644" lon="6.50834">
        <ele>832.8</ele>
        <time>2026-05-15T10:28:28Z</time>
      </trkpt>
      <trkpt lat="43.86627" lon="6.50843">
        <ele>831.8</ele>
        <time>2026-05-15T10:28:29Z</time>
      </trkpt>
      <trkpt lat="43.86611" lon="6.50851">
        <ele>831</ele>
        <time>2026-05-15T10:28:30Z</time>
      </trkpt>
      <trkpt lat="43.86594" lon="6.5086">
        <ele>829.7</ele>
        <time>2026-05-15T10:28:31Z</time>
      </trkpt>
      <trkpt lat="43.86578" lon="6.50869">
        <ele>828.7</ele>
        <time>2026-05-15T10:28:32Z</time>
      </trkpt>
      <trkpt lat="43.86563" lon="6.5088">
        <ele>827.7</ele>
        <time>2026-05-15T10:28:33Z</time>
      </trkpt>
      <trkpt lat="43.86549" lon="6.50894">
        <ele>827.2</ele>
        <time>2026-05-15T10:28:34Z</time>
      </trkpt>
      <trkpt lat="43.86537" lon="6.50909">
        <ele>826.6</ele>
        <time>2026-05-15T10:28:35Z</time>
      </trkpt>
      <trkpt lat="43.86526" lon="6.50926">
        <ele>826.5</ele>
        <time>2026-05-15T10:28:36Z</time>
      </trkpt>
      <trkpt lat="43.86518" lon="6.50944">
        <ele>826.1</ele>
        <time>2026-05-15T10:28:37Z</time>
      </trkpt>
      <trkpt lat="43.86511" lon="6.50963">
        <ele>826.4</ele>
        <time>2026-05-15T10:28:38Z</time>
      </trkpt>
      <trkpt lat="43.86503" lon="6.50981">
        <ele>825.6</ele>
        <time>2026-05-15T10:28:39Z</time>
      </trkpt>
      <trkpt lat="43.86494" lon="6.50997">
        <ele>824</ele>
        <time>2026-05-15T10:28:40Z</time>
      </trkpt>
      <trkpt lat="43.86482" lon="6.5101">
        <ele>823.1</ele>
        <time>2026-05-15T10:28:41Z</time>
      </trkpt>
      <trkpt lat="43.86468" lon="6.51018">
        <ele>821.6</ele>
        <time>2026-05-15T10:28:42Z</time>
      </trkpt>
      <trkpt lat="43.86453" lon="6.51026">
        <ele>820.4</ele>
        <time>2026-05-15T10:28:43Z</time>
      </trkpt>
      <trkpt lat="43.86438" lon="6.51036">
        <ele>819.8</ele>
        <time>2026-05-15T10:28:44Z</time>
      </trkpt>
      <trkpt lat="43.86425" lon="6.51049">
        <ele>820.3</ele>
        <time>2026-05-15T10:28:45Z</time>
      </trkpt>
      <trkpt lat="43.86412" lon="6.51064">
        <ele>821.3</ele>
        <time>2026-05-15T10:28:46Z</time>
      </trkpt>
      <trkpt lat="43.86399" lon="6.51081">
        <ele>822</ele>
        <time>2026-05-15T10:28:47Z</time>
      </trkpt>
      <trkpt lat="43.86386" lon="6.51097">
        <ele>821.5</ele>
        <time>2026-05-15T10:28:48Z</time>
      </trkpt>
      <trkpt lat="43.86372" lon="6.51113">
        <ele>820.4</ele>
        <time>2026-05-15T10:28:49Z</time>
      </trkpt>
      <trkpt lat="43.86357" lon="6.51128">
        <ele>818.9</ele>
        <time>2026-05-15T10:28:50Z</time>
      </trkpt>
      <trkpt lat="43.86342" lon="6.51143">
        <ele>817.7</ele>
        <time>2026-05-15T10:28:51Z</time>
      </trkpt>
      <trkpt lat="43.86328" lon="6.51158">
        <ele>816.5</ele>
        <time>2026-05-15T10:28:52Z</time>
      </trkpt>
      <trkpt lat="43.86314" lon="6.51172">
        <ele>815.8</ele>
        <time>2026-05-15T10:28:53Z</time>
      </trkpt>
      <trkpt lat="43.86301" lon="6.51185">
        <ele>815.1</ele>
        <time>2026-05-15T10:28:54Z</time>
      </trkpt>
      <trkpt lat="43.86288" lon="6.51198">
        <ele>814.3</ele>
        <time>2026-05-15T10:28:55Z</time>
      </trkpt>
      <trkpt lat="43.86274" lon="6.51211">
        <ele>813.8</ele>
        <time>2026-05-15T10:28:56Z</time>
      </trkpt>
      <trkpt lat="43.86259" lon="6.51222">
        <ele>813.2</ele>
        <time>2026-05-15T10:28:57Z</time>
      </trkpt>
      <trkpt lat="43.86243" lon="6.51228">
        <ele>811.9</ele>
        <time>2026-05-15T10:28:58Z</time>
      </trkpt>
      <trkpt lat="43.86227" lon="6.5123">
        <ele>810.8</ele>
        <time>2026-05-15T10:28:59Z</time>
      </trkpt>
      <trkpt lat="43.86211" lon="6.51231">
        <ele>809.7</ele>
        <time>2026-05-15T10:29:00Z</time>
      </trkpt>
      <trkpt lat="43.86194" lon="6.5123">
        <ele>808.2</ele>
        <time>2026-05-15T10:29:01Z</time>
      </trkpt>
      <trkpt lat="43.86177" lon="6.5123">
        <ele>807.4</ele>
        <time>2026-05-15T10:29:02Z</time>
      </trkpt>
      <trkpt lat="43.86162" lon="6.5123">
        <ele>806.6</ele>
        <time>2026-05-15T10:29:03Z</time>
      </trkpt>
      <trkpt lat="43.86147" lon="6.51234">
        <ele>806.6</ele>
        <time>2026-05-15T10:29:04Z</time>
      </trkpt>
      <trkpt lat="43.86132" lon="6.5124">
        <ele>806.6</ele>
        <time>2026-05-15T10:29:05Z</time>
      </trkpt>
      <trkpt lat="43.86118" lon="6.51249">
        <ele>806.8</ele>
        <time>2026-05-15T10:29:06Z</time>
      </trkpt>
      <trkpt lat="43.86104" lon="6.51258">
        <ele>806.2</ele>
        <time>2026-05-15T10:29:07Z</time>
      </trkpt>
      <trkpt lat="43.8609" lon="6.51265">
        <ele>804.9</ele>
        <time>2026-05-15T10:29:08Z</time>
      </trkpt>
      <trkpt lat="43.86076" lon="6.51269">
        <ele>804.1</ele>
        <time>2026-05-15T10:29:09Z</time>
      </trkpt>
      <trkpt lat="43.86062" lon="6.51264">
        <ele>802.4</ele>
        <time>2026-05-15T10:29:10Z</time>
      </trkpt>
      <trkpt lat="43.8605" lon="6.51253">
        <ele>800.6</ele>
        <time>2026-05-15T10:29:11Z</time>
      </trkpt>
      <trkpt lat="43.8604" lon="6.51239">
        <ele>800.4</ele>
        <time>2026-05-15T10:29:12Z</time>
      </trkpt>
      <trkpt lat="43.86031" lon="6.51221">
        <ele>799.4</ele>
        <time>2026-05-15T10:29:13Z</time>
      </trkpt>
      <trkpt lat="43.86022" lon="6.51202">
        <ele>799</ele>
        <time>2026-05-15T10:29:14Z</time>
      </trkpt>
      <trkpt lat="43.86011" lon="6.51185">
        <ele>798.5</ele>
        <time>2026-05-15T10:29:15Z</time>
      </trkpt>
      <trkpt lat="43.85999" lon="6.51168">
        <ele>797.4</ele>
        <time>2026-05-15T10:29:16Z</time>
      </trkpt>
      <trkpt lat="43.85987" lon="6.51153">
        <ele>796.2</ele>
        <time>2026-05-15T10:29:17Z</time>
      </trkpt>
      <trkpt lat="43.85976" lon="6.51137">
        <ele>794.3</ele>
        <time>2026-05-15T10:29:18Z</time>
      </trkpt>
      <trkpt lat="43.85964" lon="6.51123">
        <ele>793.2</ele>
        <time>2026-05-15T10:29:19Z</time>
      </trkpt>
      <trkpt lat="43.85952" lon="6.5111">
        <ele>792</ele>
        <time>2026-05-15T10:29:20Z</time>
      </trkpt>
      <trkpt lat="43.8594" lon="6.51099">
        <ele>790.5</ele>
        <time>2026-05-15T10:29:21Z</time>
      </trkpt>
      <trkpt lat="43.85926" lon="6.51093">
        <ele>789.8</ele>
        <time>2026-05-15T10:29:22Z</time>
      </trkpt>
      <trkpt lat="43.8591" lon="6.51091">
        <ele>789.5</ele>
        <time>2026-05-15T10:29:23Z</time>
      </trkpt>
      <trkpt lat="43.85894" lon="6.51092">
        <ele>789.3</ele>
        <time>2026-05-15T10:29:24Z</time>
      </trkpt>
      <trkpt lat="43.85878" lon="6.51094">
        <ele>789.3</ele>
        <time>2026-05-15T10:29:25Z</time>
      </trkpt>
      <trkpt lat="43.85863" lon="6.51096">
        <ele>789.3</ele>
        <time>2026-05-15T10:29:26Z</time>
      </trkpt>
      <trkpt lat="43.85848" lon="6.51097">
        <ele>789.7</ele>
        <time>2026-05-15T10:29:27Z</time>
      </trkpt>
      <trkpt lat="43.85834" lon="6.51095">
        <ele>789.5</ele>
        <time>2026-05-15T10:29:28Z</time>
      </trkpt>
      <trkpt lat="43.85821" lon="6.51088">
        <ele>789.3</ele>
        <time>2026-05-15T10:29:29Z</time>
      </trkpt>
      <trkpt lat="43.85811" lon="6.51075">
        <ele>788.1</ele>
        <time>2026-05-15T10:29:30Z</time>
      </trkpt>
      <trkpt lat="43.85801" lon="6.51061">
        <ele>788.1</ele>
        <time>2026-05-15T10:29:31Z</time>
      </trkpt>
      <trkpt lat="43.85795" lon="6.51045">
        <ele>788</ele>
        <time>2026-05-15T10:29:32Z</time>
      </trkpt>
      <trkpt lat="43.85794" lon="6.51028">
        <ele>786.8</ele>
        <time>2026-05-15T10:29:33Z</time>
      </trkpt>
      <trkpt lat="43.85804" lon="6.51009">
        <ele>782.7</ele>
        <time>2026-05-15T10:29:34Z</time>
      </trkpt>
      <trkpt lat="43.85806" lon="6.50993">
        <ele>781.7</ele>
        <time>2026-05-15T10:29:35Z</time>
      </trkpt>
      <trkpt lat="43.85804" lon="6.50978">
        <ele>781.4</ele>
        <time>2026-05-15T10:29:36Z</time>
      </trkpt>
      <trkpt lat="43.85799" lon="6.50966">
        <ele>781.4</ele>
        <time>2026-05-15T10:29:37Z</time>
      </trkpt>
      <trkpt lat="43.85791" lon="6.50956">
        <ele>781</ele>
        <time>2026-05-15T10:29:38Z</time>
      </trkpt>
      <trkpt lat="43.85781" lon="6.5095">
        <ele>780.1</ele>
        <time>2026-05-15T10:29:39Z</time>
      </trkpt>
      <trkpt lat="43.8577" lon="6.50945">
        <ele>778.8</ele>
        <time>2026-05-15T10:29:40Z</time>
      </trkpt>
      <trkpt lat="43.85758" lon="6.50941">
        <ele>777.2</ele>
        <time>2026-05-15T10:29:41Z</time>
      </trkpt>
      <trkpt lat="43.85745" lon="6.50939">
        <ele>775.6</ele>
        <time>2026-05-15T10:29:42Z</time>
      </trkpt>
      <trkpt lat="43.85731" lon="6.50939">
        <ele>773.6</ele>
        <time>2026-05-15T10:29:43Z</time>
      </trkpt>
      <trkpt lat="43.85719" lon="6.50942">
        <ele>772.7</ele>
        <time>2026-05-15T10:29:44Z</time>
      </trkpt>
      <trkpt lat="43.85706" lon="6.50949">
        <ele>772.5</ele>
        <time>2026-05-15T10:29:45Z</time>
      </trkpt>
      <trkpt lat="43.85695" lon="6.50957">
        <ele>772.7</ele>
        <time>2026-05-15T10:29:46Z</time>
      </trkpt>
      <trkpt lat="43.85683" lon="6.50965">
        <ele>773.5</ele>
        <time>2026-05-15T10:29:47Z</time>
      </trkpt>
      <trkpt lat="43.85671" lon="6.5097">
        <ele>773.1</ele>
        <time>2026-05-15T10:29:48Z</time>
      </trkpt>
      <trkpt lat="43.85659" lon="6.5097">
        <ele>772.5</ele>
        <time>2026-05-15T10:29:49Z</time>
      </trkpt>
      <trkpt lat="43.85647" lon="6.50964">
        <ele>771.4</ele>
        <time>2026-05-15T10:29:50Z</time>
      </trkpt>
      <trkpt lat="43.85639" lon="6.50953">
        <ele>769.5</ele>
        <time>2026-05-15T10:29:51Z</time>
      </trkpt>
      <trkpt lat="43.85633" lon="6.50939">
        <ele>768.3</ele>
        <time>2026-05-15T10:29:52Z</time>
      </trkpt>
      <trkpt lat="43.85628" lon="6.50923">
        <ele>767.2</ele>
        <time>2026-05-15T10:29:53Z</time>
      </trkpt>
      <trkpt lat="43.85623" lon="6.50907">
        <ele>766</ele>
        <time>2026-05-15T10:29:54Z</time>
      </trkpt>
      <trkpt lat="43.85617" lon="6.50893">
        <ele>765.3</ele>
        <time>2026-05-15T10:29:55Z</time>
      </trkpt>
      <trkpt lat="43.85608" lon="6.50882">
        <ele>765.1</ele>
        <time>2026-05-15T10:29:56Z</time>
      </trkpt>
      <trkpt lat="43.85597" lon="6.50873">
        <ele>764.4</ele>
        <time>2026-05-15T10:29:57Z</time>
      </trkpt>
      <trkpt lat="43.85585" lon="6.50864">
        <ele>763.5</ele>
        <time>2026-05-15T10:29:58Z</time>
      </trkpt>
      <trkpt lat="43.85573" lon="6.50855">
        <ele>762.2</ele>
        <time>2026-05-15T10:29:59Z</time>
      </trkpt>
      <trkpt lat="43.8556" lon="6.50846">
        <ele>761.5</ele>
        <time>2026-05-15T10:30:00Z</time>
      </trkpt>
      <trkpt lat="43.85547" lon="6.50837">
        <ele>761.2</ele>
        <time>2026-05-15T10:30:01Z</time>
      </trkpt>
      <trkpt lat="43.85534" lon="6.50828">
        <ele>760.5</ele>
        <time>2026-05-15T10:30:02Z</time>
      </trkpt>
      <trkpt lat="43.85521" lon="6.50819">
        <ele>760.2</ele>
        <time>2026-05-15T10:30:03Z</time>
      </trkpt>
      <trkpt lat="43.85509" lon="6.5081">
        <ele>759.8</ele>
        <time>2026-05-15T10:30:04Z</time>
      </trkpt>
      <trkpt lat="43.85497" lon="6.50802">
        <ele>759</ele>
        <time>2026-05-15T10:30:05Z</time>
      </trkpt>
      <trkpt lat="43.85484" lon="6.50797">
        <ele>757.4</ele>
        <time>2026-05-15T10:30:06Z</time>
      </trkpt>
      <trkpt lat="43.85471" lon="6.50797">
        <ele>757.1</ele>
        <time>2026-05-15T10:30:07Z</time>
      </trkpt>
      <trkpt lat="43.85459" lon="6.50801">
        <ele>757.1</ele>
        <time>2026-05-15T10:30:08Z</time>
      </trkpt>
      <trkpt lat="43.85446" lon="6.50807">
        <ele>757.4</ele>
        <time>2026-05-15T10:30:09Z</time>
      </trkpt>
      <trkpt lat="43.85433" lon="6.50813">
        <ele>757.3</ele>
        <time>2026-05-15T10:30:10Z</time>
      </trkpt>
      <trkpt lat="43.85419" lon="6.50819">
        <ele>756.7</ele>
        <time>2026-05-15T10:30:11Z</time>
      </trkpt>
      <trkpt lat="43.85406" lon="6.50825">
        <ele>755.8</ele>
        <time>2026-05-15T10:30:12Z</time>
      </trkpt>
      <trkpt lat="43.85392" lon="6.50831">
        <ele>754.3</ele>
        <time>2026-05-15T10:30:13Z</time>
      </trkpt>
      <trkpt lat="43.85379" lon="6.50837">
        <ele>753.1</ele>
        <time>2026-05-15T10:30:14Z</time>
      </trkpt>
      <trkpt lat="43.85366" lon="6.50843">
        <ele>751.9</ele>
        <time>2026-05-15T10:30:15Z</time>
      </trkpt>
      <trkpt lat="43.85354" lon="6.50847">
        <ele>750.8</ele>
        <time>2026-05-15T10:30:16Z</time>
      </trkpt>
      <trkpt lat="43.85341" lon="6.50852">
        <ele>750</ele>
        <time>2026-05-15T10:30:17Z</time>
      </trkpt>
      <trkpt lat="43.85328" lon="6.50855">
        <ele>749.4</ele>
        <time>2026-05-15T10:30:18Z</time>
      </trkpt>
      <trkpt lat="43.85316" lon="6.50857">
        <ele>749.1</ele>
        <time>2026-05-15T10:30:19Z</time>
      </trkpt>
      <trkpt lat="43.85304" lon="6.50858">
        <ele>748.7</ele>
        <time>2026-05-15T10:30:20Z</time>
      </trkpt>
      <trkpt lat="43.85291" lon="6.50858">
        <ele>747.8</ele>
        <time>2026-05-15T10:30:21Z</time>
      </trkpt>
      <trkpt lat="43.8528" lon="6.50856">
        <ele>747</ele>
        <time>2026-05-15T10:30:22Z</time>
      </trkpt>
      <trkpt lat="43.8527" lon="6.50854">
        <ele>746.5</ele>
        <time>2026-05-15T10:30:23Z</time>
      </trkpt>
      <trkpt lat="43.85261" lon="6.50851">
        <ele>746</ele>
        <time>2026-05-15T10:30:24Z</time>
      </trkpt>
      <trkpt lat="43.85252" lon="6.50849">
        <ele>745.6</ele>
        <time>2026-05-15T10:30:25Z</time>
      </trkpt>
      <trkpt lat="43.85244" lon="6.50846">
        <ele>745.5</ele>
        <time>2026-05-15T10:30:26Z</time>
      </trkpt>
      <trkpt lat="43.85235" lon="6.50842">
        <ele>745.3</ele>
        <time>2026-05-15T10:30:27Z</time>
      </trkpt>
      <trkpt lat="43.85226" lon="6.50837">
        <ele>745.1</ele>
        <time>2026-05-15T10:30:28Z</time>
      </trkpt>
      <trkpt lat="43.85218" lon="6.50833">
        <ele>744.8</ele>
        <time>2026-05-15T10:30:29Z</time>
      </trkpt>
      <trkpt lat="43.8521" lon="6.50828">
        <ele>744.5</ele>
        <time>2026-05-15T10:30:30Z</time>
      </trkpt>
      <trkpt lat="43.85203" lon="6.50824">
        <ele>744.2</ele>
        <time>2026-05-15T10:30:31Z</time>
      </trkpt>
      <trkpt lat="43.85197" lon="6.5082">
        <ele>744</ele>
        <time>2026-05-15T10:30:32Z</time>
      </trkpt>
      <trkpt lat="43.85191" lon="6.50817">
        <ele>743.9</ele>
        <time>2026-05-15T10:30:33Z</time>
      </trkpt>
      <trkpt lat="43.85186" lon="6.50813">
        <ele>743.8</ele>
        <time>2026-05-15T10:30:34Z</time>
      </trkpt>
      <trkpt lat="43.85181" lon="6.50808">
        <ele>743.6</ele>
        <time>2026-05-15T10:30:35Z</time>
      </trkpt>
      <trkpt lat="43.85176" lon="6.50801">
        <ele>743.2</ele>
        <time>2026-05-15T10:30:36Z</time>
      </trkpt>
      <trkpt lat="43.85172" lon="6.50793">
        <ele>742.7</ele>
        <time>2026-05-15T10:30:37Z</time>
      </trkpt>
      <trkpt lat="43.8517" lon="6.50785">
        <ele>742.4</ele>
        <time>2026-05-15T10:30:38Z</time>
      </trkpt>
      <trkpt lat="43.85165" lon="6.50777">
        <ele>741.9</ele>
        <time>2026-05-15T10:30:39Z</time>
      </trkpt>
      <trkpt lat="43.85159" lon="6.50774">
        <ele>741.5</ele>
        <time>2026-05-15T10:30:40Z</time>
      </trkpt>
      <trkpt lat="43.85152" lon="6.50774">
        <ele>741</ele>
        <time>2026-05-15T10:30:41Z</time>
      </trkpt>
      <trkpt lat="43.85145" lon="6.50779">
        <ele>740.5</ele>
        <time>2026-05-15T10:30:42Z</time>
      </trkpt>
      <trkpt lat="43.85138" lon="6.50786">
        <ele>740.6</ele>
        <time>2026-05-15T10:30:43Z</time>
      </trkpt>
      <trkpt lat="43.8513" lon="6.50792">
        <ele>740.7</ele>
        <time>2026-05-15T10:30:44Z</time>
      </trkpt>
      <trkpt lat="43.8512" lon="6.50797">
        <ele>740.7</ele>
        <time>2026-05-15T10:30:45Z</time>
      </trkpt>
      <trkpt lat="43.8511" lon="6.50803">
        <ele>740.7</ele>
        <time>2026-05-15T10:30:46Z</time>
      </trkpt>
      <trkpt lat="43.85098" lon="6.50809">
        <ele>740.6</ele>
        <time>2026-05-15T10:30:47Z</time>
      </trkpt>
      <trkpt lat="43.85086" lon="6.50815">
        <ele>740.9</ele>
        <time>2026-05-15T10:30:48Z</time>
      </trkpt>
      <trkpt lat="43.85075" lon="6.50821">
        <ele>740.7</ele>
        <time>2026-05-15T10:30:49Z</time>
      </trkpt>
      <trkpt lat="43.85063" lon="6.50827">
        <ele>740.1</ele>
        <time>2026-05-15T10:30:50Z</time>
      </trkpt>
      <trkpt lat="43.8505" lon="6.50834">
        <ele>739.4</ele>
        <time>2026-05-15T10:30:51Z</time>
      </trkpt>
      <trkpt lat="43.85038" lon="6.50841">
        <ele>739.6</ele>
        <time>2026-05-15T10:30:52Z</time>
      </trkpt>
      <trkpt lat="43.85026" lon="6.50847">
        <ele>739.2</ele>
        <time>2026-05-15T10:30:53Z</time>
      </trkpt>
      <trkpt lat="43.85015" lon="6.50853">
        <ele>738.9</ele>
        <time>2026-05-15T10:30:54Z</time>
      </trkpt>
      <trkpt lat="43.85003" lon="6.50858">
        <ele>738</ele>
        <time>2026-05-15T10:30:55Z</time>
      </trkpt>
      <trkpt lat="43.84991" lon="6.50864">
        <ele>737.4</ele>
        <time>2026-05-15T10:30:56Z</time>
      </trkpt>
      <trkpt lat="43.8498" lon="6.5087">
        <ele>736.9</ele>
        <time>2026-05-15T10:30:57Z</time>
      </trkpt>
      <trkpt lat="43.84968" lon="6.50876">
        <ele>736.1</ele>
        <time>2026-05-15T10:30:58Z</time>
      </trkpt>
      <trkpt lat="43.84957" lon="6.50883">
        <ele>735.9</ele>
        <time>2026-05-15T10:30:59Z</time>
      </trkpt>
      <trkpt lat="43.84946" lon="6.50889">
        <ele>735.2</ele>
        <time>2026-05-15T10:31:00Z</time>
      </trkpt>
      <trkpt lat="43.84934" lon="6.50895">
        <ele>734.8</ele>
        <time>2026-05-15T10:31:01Z</time>
      </trkpt>
      <trkpt lat="43.84923" lon="6.50901">
        <ele>734.2</ele>
        <time>2026-05-15T10:31:02Z</time>
      </trkpt>
      <trkpt lat="43.84912" lon="6.50906">
        <ele>733.4</ele>
        <time>2026-05-15T10:31:03Z</time>
      </trkpt>
      <trkpt lat="43.84903" lon="6.50914">
        <ele>733.3</ele>
        <time>2026-05-15T10:31:04Z</time>
      </trkpt>
      <trkpt lat="43.84894" lon="6.50923">
        <ele>733.4</ele>
        <time>2026-05-15T10:31:05Z</time>
      </trkpt>
      <trkpt lat="43.84886" lon="6.50933">
        <ele>733.3</ele>
        <time>2026-05-15T10:31:06Z</time>
      </trkpt>
      <trkpt lat="43.84879" lon="6.50943">
        <ele>733.1</ele>
        <time>2026-05-15T10:31:07Z</time>
      </trkpt>
      <trkpt lat="43.84873" lon="6.50954">
        <ele>732.8</ele>
        <time>2026-05-15T10:31:08Z</time>
      </trkpt>
      <trkpt lat="43.84868" lon="6.50965">
        <ele>732.3</ele>
        <time>2026-05-15T10:31:09Z</time>
      </trkpt>
      <trkpt lat="43.84862" lon="6.50976">
        <ele>731.5</ele>
        <time>2026-05-15T10:31:10Z</time>
      </trkpt>
      <trkpt lat="43.84858" lon="6.50987">
        <ele>731.6</ele>
        <time>2026-05-15T10:31:11Z</time>
      </trkpt>
      <trkpt lat="43.84852" lon="6.50997">
        <ele>731.2</ele>
        <time>2026-05-15T10:31:12Z</time>
      </trkpt>
      <trkpt lat="43.84848" lon="6.51006">
        <ele>730.8</ele>
        <time>2026-05-15T10:31:13Z</time>
      </trkpt>
      <trkpt lat="43.84843" lon="6.51015">
        <ele>729.9</ele>
        <time>2026-05-15T10:31:14Z</time>
      </trkpt>
      <trkpt lat="43.8484" lon="6.51021">
        <ele>729.4</ele>
        <time>2026-05-15T10:31:15Z</time>
      </trkpt>
      <trkpt lat="43.84838" lon="6.51026">
        <ele>729</ele>
        <time>2026-05-15T10:31:16Z</time>
      </trkpt>
      <trkpt lat="43.84835" lon="6.5103">
        <ele>728.4</ele>
        <time>2026-05-15T10:31:17Z</time>
      </trkpt>
      <trkpt lat="43.84833" lon="6.51035">
        <ele>728.2</ele>
        <time>2026-05-15T10:31:18Z</time>
      </trkpt>
      <trkpt lat="43.84831" lon="6.5104">
        <ele>728.2</ele>
        <time>2026-05-15T10:31:19Z</time>
      </trkpt>
      <trkpt lat="43.84828" lon="6.51044">
        <ele>727.9</ele>
        <time>2026-05-15T10:31:20Z</time>
      </trkpt>
      <trkpt lat="43.84826" lon="6.51049">
        <ele>727.8</ele>
        <time>2026-05-15T10:31:21Z</time>
      </trkpt>
      <trkpt lat="43.84823" lon="6.51054">
        <ele>727.5</ele>
        <time>2026-05-15T10:31:22Z</time>
      </trkpt>
      <trkpt lat="43.84821" lon="6.51059">
        <ele>727.4</ele>
        <time>2026-05-15T10:31:23Z</time>
      </trkpt>
      <trkpt lat="43.84819" lon="6.51062">
        <ele>727.3</ele>
        <time>2026-05-15T10:31:24Z</time>
      </trkpt>
      <trkpt lat="43.84817" lon="6.51066">
        <ele>727.2</ele>
        <time>2026-05-15T10:31:25Z</time>
      </trkpt>
      <trkpt lat="43.84816" lon="6.51069">
        <ele>727.2</ele>
        <time>2026-05-15T10:31:26Z</time>
      </trkpt>
      <trkpt lat="43.84814" lon="6.51072">
        <ele>727</ele>
        <time>2026-05-15T10:31:27Z</time>
      </trkpt>
      <trkpt lat="43.84813" lon="6.51075">
        <ele>727</ele>
        <time>2026-05-15T10:31:28Z</time>
      </trkpt>
      <trkpt lat="43.84811" lon="6.51078">
        <ele>726.8</ele>
        <time>2026-05-15T10:31:29Z</time>
      </trkpt>
      <trkpt lat="43.8481" lon="6.5108">
        <ele>726.7</ele>
        <time>2026-05-15T10:31:30Z</time>
      </trkpt>
      <trkpt lat="43.84809" lon="6.51083">
        <ele>726.6</ele>
        <time>2026-05-15T10:31:31Z</time>
      </trkpt>
      <trkpt lat="43.84808" lon="6.51086">
        <ele>726.6</ele>
        <time>2026-05-15T10:31:32Z</time>
      </trkpt>
      <trkpt lat="43.84806" lon="6.51088">
        <ele>726.4</ele>
        <time>2026-05-15T10:31:33Z</time>
      </trkpt>
      <trkpt lat="43.84805" lon="6.51091">
        <ele>726.5</ele>
        <time>2026-05-15T10:31:34Z</time>
      </trkpt>
      <trkpt lat="43.84803" lon="6.51092">
        <ele>726.3</ele>
        <time>2026-05-15T10:31:35Z</time>
      </trkpt>
      <trkpt lat="43.84801" lon="6.51093">
        <ele>726.2</ele>
        <time>2026-05-15T10:31:36Z</time>
      </trkpt>
      <trkpt lat="43.84799" lon="6.51092">
        <ele>725.9</ele>
        <time>2026-05-15T10:31:37Z</time>
      </trkpt>
      <trkpt lat="43.84796" lon="6.51091">
        <ele>725.5</ele>
        <time>2026-05-15T10:31:38Z</time>
      </trkpt>
      <trkpt lat="43.84795" lon="6.51089">
        <ele>725.3</ele>
        <time>2026-05-15T10:31:39Z</time>
      </trkpt>
      <trkpt lat="43.84794" lon="6.51088">
        <ele>725.1</ele>
        <time>2026-05-15T10:31:40Z</time>
      </trkpt>
      <trkpt lat="43.84793" lon="6.51087">
        <ele>724.9</ele>
        <time>2026-05-15T10:31:41Z</time>
      </trkpt>
      <trkpt lat="43.84793" lon="6.51086">
        <ele>724.8</ele>
        <time>2026-05-15T10:31:42Z</time>
      </trkpt>
      <trkpt lat="43.84793" lon="6.51086">
        <ele>724.8</ele>
        <time>2026-05-15T10:31:43Z</time>
      </trkpt>
      <trkpt lat="43.84793" lon="6.51085">
        <ele>724.8</ele>
        <time>2026-05-15T10:31:44Z</time>
      </trkpt>
      <trkpt lat="43.84793" lon="6.51085">
        <ele>724.8</ele>
        <time>2026-05-15T10:31:45Z</time>
      </trkpt>
      <trkpt lat="43.84793" lon="6.51085">
        <ele>724.8</ele>
        <time>2026-05-15T10:31:46Z</time>
      </trkpt>
      <trkpt lat="43.84793" lon="6.51085">
        <ele>724.8</ele>
        <time>2026-05-15T10:31:47Z</time>
      </trkpt>
      <trkpt lat="43.84793" lon="6.51085">
        <ele>724.8</ele>
        <time>2026-05-15T10:31:48Z</time>
      </trkpt>
      <trkpt lat="43.84793" lon="6.51085">
        <ele>724.8</ele>
        <time>2026-05-15T10:31:49Z</time>
      </trkpt>
      <trkpt lat="43.84793" lon="6.51085">
        <ele>724.8</ele>
        <time>2026-05-15T10:31:50Z</time>
      </trkpt>
      <trkpt lat="43.84793" lon="6.51085">
        <ele>724.8</ele>
        <time>2026-05-15T10:31:51Z</time>
      </trkpt>
      <trkpt lat="43.84793" lon="6.51085">
        <ele>724.8</ele>
        <time>2026-05-15T10:31:52Z</time>
      </trkpt>
      <trkpt lat="43.84793" lon="6.51085">
        <ele>724.8</ele>
        <time>2026-05-15T10:31:53Z</time>
      </trkpt>
      <trkpt lat="43.84793" lon="6.51085">
        <ele>724.8</ele>
        <time>2026-05-15T10:31:54Z</time>
      </trkpt>
      <trkpt lat="43.84793" lon="6.51085">
        <ele>724.8</ele>
        <time>2026-05-15T10:31:55Z</time>
      </trkpt>
      <trkpt lat="43.84793" lon="6.51085">
        <ele>724.8</ele>
        <time>2026-05-15T10:31:56Z</time>
      </trkpt>
      <trkpt lat="43.84792" lon="6.51085">
        <ele>724.7</ele>
        <time>2026-05-15T10:31:57Z</time>
      </trkpt>
      <trkpt lat="43.84791" lon="6.51083">
        <ele>724.4</ele>
        <time>2026-05-15T10:31:58Z</time>
      </trkpt>
      <trkpt lat="43.8479" lon="6.51081">
        <ele>724.3</ele>
        <time>2026-05-15T10:31:59Z</time>
      </trkpt>
      <trkpt lat="43.84788" lon="6.51079">
        <ele>724</ele>
        <time>2026-05-15T10:32:00Z</time>
      </trkpt>
      <trkpt lat="43.84786" lon="6.51077">
        <ele>723.8</ele>
        <time>2026-05-15T10:32:01Z</time>
      </trkpt>
      <trkpt lat="43.84784" lon="6.51074">
        <ele>723.6</ele>
        <time>2026-05-15T10:32:02Z</time>
      </trkpt>
      <trkpt lat="43.84783" lon="6.51071">
        <ele>723.5</ele>
        <time>2026-05-15T10:32:03Z</time>
      </trkpt>
      <trkpt lat="43.84782" lon="6.51067">
        <ele>723.4</ele>
        <time>2026-05-15T10:32:04Z</time>
      </trkpt>
      <trkpt lat="43.84782" lon="6.51064">
        <ele>723.4</ele>
        <time>2026-05-15T10:32:05Z</time>
      </trkpt>
      <trkpt lat="43.84783" lon="6.5106">
        <ele>723.4</ele>
        <time>2026-05-15T10:32:06Z</time>
      </trkpt>
      <trkpt lat="43.84784" lon="6.51058">
        <ele>723.5</ele>
        <time>2026-05-15T10:32:07Z</time>
      </trkpt>
      <trkpt lat="43.84784" lon="6.51055">
        <ele>723.5</ele>
        <time>2026-05-15T10:32:08Z</time>
      </trkpt>
      <trkpt lat="43.84784" lon="6.51053">
        <ele>723.5</ele>
        <time>2026-05-15T10:32:09Z</time>
      </trkpt>
      <trkpt lat="43.84783" lon="6.51052">
        <ele>723.5</ele>
        <time>2026-05-15T10:32:10Z</time>
      </trkpt>
      <trkpt lat="43.84782" lon="6.5105">
        <ele>723.5</ele>
        <time>2026-05-15T10:32:11Z</time>
      </trkpt>
      <trkpt lat="43.84781" lon="6.51049">
        <ele>723.4</ele>
        <time>2026-05-15T10:32:12Z</time>
      </trkpt>
      <trkpt lat="43.8478" lon="6.51048">
        <ele>723.4</ele>
        <time>2026-05-15T10:32:13Z</time>
      </trkpt>
      <trkpt lat="43.84779" lon="6.51047">
        <ele>723.4</ele>
        <time>2026-05-15T10:32:14Z</time>
      </trkpt>
      <trkpt lat="43.84778" lon="6.51047">
        <ele>723.3</ele>
        <time>2026-05-15T10:32:15Z</time>
      </trkpt>
      <trkpt lat="43.84777" lon="6.51047">
        <ele>723.3</ele>
        <time>2026-05-15T10:32:16Z</time>
      </trkpt>
      <trkpt lat="43.84776" lon="6.51047">
        <ele>723.2</ele>
        <time>2026-05-15T10:32:17Z</time>
      </trkpt>
      <trkpt lat="43.84775" lon="6.51048">
        <ele>723.2</ele>
        <time>2026-05-15T10:32:18Z</time>
      </trkpt>
      <trkpt lat="43.84775" lon="6.51048">
        <ele>723.2</ele>
        <time>2026-05-15T10:32:19Z</time>
      </trkpt>
      <trkpt lat="43.84776" lon="6.51049">
        <ele>723.2</ele>
        <time>2026-05-15T10:32:20Z</time>
      </trkpt>
      <trkpt lat="43.84776" lon="6.51049">
        <ele>723.2</ele>
        <time>2026-05-15T10:32:21Z</time>
      </trkpt>
      <trkpt lat="43.84776" lon="6.51049">
        <ele>723.2</ele>
        <time>2026-05-15T10:32:22Z</time>
      </trkpt>
      <trkpt lat="43.84776" lon="6.51049">
        <ele>723.2</ele>
        <time>2026-05-15T10:32:23Z</time>
      </trkpt>
      <trkpt lat="43.84776" lon="6.51049">
        <ele>723.2</ele>
        <time>2026-05-15T10:32:24Z</time>
      </trkpt>
      <trkpt lat="43.84775" lon="6.51049">
        <ele>723.1</ele>
        <time>2026-05-15T10:32:25Z</time>
      </trkpt>
      <trkpt lat="43.84774" lon="6.5105">
        <ele>723.1</ele>
        <time>2026-05-15T10:32:26Z</time>
      </trkpt>
      <trkpt lat="43.84773" lon="6.5105">
        <ele>723</ele>
        <time>2026-05-15T10:32:27Z</time>
      </trkpt>
      <trkpt lat="43.8477" lon="6.51049">
        <ele>723</ele>
        <time>2026-05-15T10:32:28Z</time>
      </trkpt>
      <trkpt lat="43.84768" lon="6.51049">
        <ele>722.9</ele>
        <time>2026-05-15T10:32:29Z</time>
      </trkpt>
      <trkpt lat="43.84766" lon="6.51048">
        <ele>722.8</ele>
        <time>2026-05-15T10:32:30Z</time>
      </trkpt>
      <trkpt lat="43.84764" lon="6.51047">
        <ele>722.8</ele>
        <time>2026-05-15T10:32:31Z</time>
      </trkpt>
      <trkpt lat="43.84763" lon="6.51046">
        <ele>722.8</ele>
        <time>2026-05-15T10:32:32Z</time>
      </trkpt>
      <trkpt lat="43.84761" lon="6.51045">
        <ele>722.8</ele>
        <time>2026-05-15T10:32:33Z</time>
      </trkpt>
      <trkpt lat="43.84759" lon="6.51045">
        <ele>722.7</ele>
        <time>2026-05-15T10:32:34Z</time>
      </trkpt>
      <trkpt lat="43.84757" lon="6.51044">
        <ele>722.7</ele>
        <time>2026-05-15T10:32:35Z</time>
      </trkpt>
      <trkpt lat="43.84756" lon="6.51043">
        <ele>722.7</ele>
        <time>2026-05-15T10:32:36Z</time>
      </trkpt>
      <trkpt lat="43.84754" lon="6.51043">
        <ele>722.6</ele>
        <time>2026-05-15T10:32:37Z</time>
      </trkpt>
      <trkpt lat="43.84753" lon="6.51043">
        <ele>722.6</ele>
        <time>2026-05-15T10:32:38Z</time>
      </trkpt>
      <trkpt lat="43.84751" lon="6.51044">
        <ele>722.5</ele>
        <time>2026-05-15T10:32:39Z</time>
      </trkpt>
      <trkpt lat="43.84751" lon="6.51044">
        <ele>722.5</ele>
        <time>2026-05-15T10:32:40Z</time>
      </trkpt>
      <trkpt lat="43.8475" lon="6.51044">
        <ele>722.4</ele>
        <time>2026-05-15T10:32:41Z</time>
      </trkpt>
      <trkpt lat="43.8475" lon="6.51044">
        <ele>722.4</ele>
        <time>2026-05-15T10:32:42Z</time>
      </trkpt>
      <trkpt lat="43.8475" lon="6.51045">
        <ele>722.4</ele>
        <time>2026-05-15T10:32:43Z</time>
      </trkpt>
      <trkpt lat="43.8475" lon="6.51045">
        <ele>722.4</ele>
        <time>2026-05-15T10:32:44Z</time>
      </trkpt>
      <trkpt lat="43.8475" lon="6.51045">
        <ele>722.4</ele>
        <time>2026-05-15T10:32:45Z</time>
      </trkpt>
      <trkpt lat="43.8475" lon="6.51046">
        <ele>722.3</ele>
        <time>2026-05-15T10:32:46Z</time>
      </trkpt>
      <trkpt lat="43.84749" lon="6.51046">
        <ele>722.3</ele>
        <time>2026-05-15T10:32:47Z</time>
      </trkpt>
      <trkpt lat="43.84748" lon="6.51046">
        <ele>722.3</ele>
        <time>2026-05-15T10:32:48Z</time>
      </trkpt>
      <trkpt lat="43.84748" lon="6.51046">
        <ele>722.3</ele>
        <time>2026-05-15T10:32:49Z</time>
      </trkpt>
      <trkpt lat="43.84749" lon="6.51046">
        <ele>722.3</ele>
        <time>2026-05-15T10:32:50Z</time>
      </trkpt>
      <trkpt lat="43.84749" lon="6.51046">
        <ele>722.3</ele>
        <time>2026-05-15T10:32:51Z</time>
      </trkpt>
      <trkpt lat="43.84749" lon="6.51046">
        <ele>722.3</ele>
        <time>2026-05-15T10:32:52Z</time>
      </trkpt>
      <trkpt lat="43.84749" lon="6.51047">
        <ele>722.3</ele>
        <time>2026-05-15T10:32:53Z</time>
      </trkpt>
      <trkpt lat="43.84749" lon="6.51047">
        <ele>722.3</ele>
        <time>2026-05-15T10:32:54Z</time>
      </trkpt>
      <trkpt lat="43.84749" lon="6.51047">
        <ele>722.3</ele>
        <time>2026-05-15T10:32:55Z</time>
      </trkpt>
      <trkpt lat="43.84749" lon="6.51047">
        <ele>722.3</ele>
        <time>2026-05-15T10:32:56Z</time>
      </trkpt>
      <trkpt lat="43.84749" lon="6.51047">
        <ele>722.3</ele>
        <time>2026-05-15T10:32:57Z</time>
      </trkpt>
      <trkpt lat="43.84749" lon="6.51047">
        <ele>722.3</ele>
        <time>2026-05-15T10:32:58Z</time>
      </trkpt>
      <trkpt lat="43.84749" lon="6.51047">
        <ele>722.3</ele>
        <time>2026-05-15T10:32:59Z</time>
      </trkpt>
      <trkpt lat="43.84749" lon="6.51047">
        <ele>722.3</ele>
        <time>2026-05-15T10:33:00Z</time>
      </trkpt>
      <trkpt lat="43.84749" lon="6.51047">
        <ele>722.3</ele>
        <time>2026-05-15T10:33:01Z</time>
      </trkpt>
      <trkpt lat="43.84749" lon="6.51047">
        <ele>722.3</ele>
        <time>2026-05-15T10:33:02Z</time>
      </trkpt>
      <trkpt lat="43.84749" lon="6.51047">
        <ele>722.3</ele>
        <time>2026-05-15T10:33:03Z</time>
      </trkpt>
      <trkpt lat="43.84749" lon="6.51047">
        <ele>722.3</ele>
        <time>2026-05-15T10:33:04Z</time>
      </trkpt>
      <trkpt lat="43.84749" lon="6.51047">
        <ele>722.3</ele>
        <time>2026-05-15T10:33:05Z</time>
      </trkpt>
      <trkpt lat="43.84749" lon="6.51047">
        <ele>722.3</ele>
        <time>2026-05-15T10:33:06Z</time>
      </trkpt>
      <trkpt lat="43.84749" lon="6.51047">
        <ele>722.3</ele>
        <time>2026-05-15T10:33:07Z</time>
      </trkpt>
      <trkpt lat="43.84749" lon="6.51047">
        <ele>722.3</ele>
        <time>2026-05-15T10:33:08Z</time>
      </trkpt>
      <trkpt lat="43.84749" lon="6.51047">
        <ele>722.3</ele>
        <time>2026-05-15T10:33:09Z</time>
      </trkpt>
      <trkpt lat="43.84749" lon="6.51047">
        <ele>722.3</ele>
        <time>2026-05-15T10:33:10Z</time>
      </trkpt>
      <trkpt lat="43.84726" lon="6.51037">
        <ele>721.8</ele>
        <time>2026-05-15T12:58:17Z</time>
      </trkpt>
      <trkpt lat="43.84726" lon="6.51028">
        <ele>722.1</ele>
        <time>2026-05-15T12:58:18Z</time>
      </trkpt>
      <trkpt lat="43.84723" lon="6.5103">
        <ele>721.9</ele>
        <time>2026-05-15T12:58:19Z</time>
      </trkpt>
      <trkpt lat="43.84723" lon="6.51031">
        <ele>721.9</ele>
        <time>2026-05-15T12:58:20Z</time>
      </trkpt>
      <trkpt lat="43.84731" lon="6.51035">
        <ele>722.1</ele>
        <time>2026-05-15T12:58:21Z</time>
      </trkpt>
      <trkpt lat="43.84733" lon="6.51036">
        <ele>722.1</ele>
        <time>2026-05-15T12:58:22Z</time>
      </trkpt>
      <trkpt lat="43.84731" lon="6.51037">
        <ele>722</ele>
        <time>2026-05-15T12:58:23Z</time>
      </trkpt>
      <trkpt lat="43.84729" lon="6.51036">
        <ele>721.9</ele>
        <time>2026-05-15T12:58:24Z</time>
      </trkpt>
      <trkpt lat="43.84728" lon="6.51037">
        <ele>721.9</ele>
        <time>2026-05-15T12:58:25Z</time>
      </trkpt>
      <trkpt lat="43.84726" lon="6.51035">
        <ele>721.9</ele>
        <time>2026-05-15T12:58:26Z</time>
      </trkpt>
      <trkpt lat="43.84725" lon="6.51036">
        <ele>721.8</ele>
        <time>2026-05-15T12:58:27Z</time>
      </trkpt>
      <trkpt lat="43.84724" lon="6.51036">
        <ele>721.8</ele>
        <time>2026-05-15T12:58:28Z</time>
      </trkpt>
      <trkpt lat="43.84725" lon="6.51038">
        <ele>721.7</ele>
        <time>2026-05-15T12:58:29Z</time>
      </trkpt>
      <trkpt lat="43.84724" lon="6.51041">
        <ele>721.6</ele>
        <time>2026-05-15T12:58:30Z</time>
      </trkpt>
      <trkpt lat="43.84726" lon="6.51046">
        <ele>721.5</ele>
        <time>2026-05-15T12:58:31Z</time>
      </trkpt>
      <trkpt lat="43.84727" lon="6.51048">
        <ele>721.4</ele>
        <time>2026-05-15T12:58:32Z</time>
      </trkpt>
      <trkpt lat="43.8473" lon="6.5105">
        <ele>721.5</ele>
        <time>2026-05-15T12:58:33Z</time>
      </trkpt>
      <trkpt lat="43.84732" lon="6.51052">
        <ele>721.5</ele>
        <time>2026-05-15T12:58:34Z</time>
      </trkpt>
      <trkpt lat="43.84735" lon="6.51053">
        <ele>721.6</ele>
        <time>2026-05-15T12:58:35Z</time>
      </trkpt>
      <trkpt lat="43.84738" lon="6.51055">
        <ele>721.6</ele>
        <time>2026-05-15T12:58:36Z</time>
      </trkpt>
      <trkpt lat="43.84742" lon="6.51058">
        <ele>721.7</ele>
        <time>2026-05-15T12:58:37Z</time>
      </trkpt>
      <trkpt lat="43.84745" lon="6.51059">
        <ele>721.8</ele>
        <time>2026-05-15T12:58:38Z</time>
      </trkpt>
      <trkpt lat="43.84747" lon="6.5106">
        <ele>721.9</ele>
        <time>2026-05-15T12:58:39Z</time>
      </trkpt>
      <trkpt lat="43.8475" lon="6.51062">
        <ele>722</ele>
        <time>2026-05-15T12:58:40Z</time>
      </trkpt>
      <trkpt lat="43.84753" lon="6.51063">
        <ele>722.1</ele>
        <time>2026-05-15T12:58:41Z</time>
      </trkpt>
      <trkpt lat="43.84756" lon="6.51065">
        <ele>722.2</ele>
        <time>2026-05-15T12:58:42Z</time>
      </trkpt>
      <trkpt lat="43.84759" lon="6.51066">
        <ele>722.3</ele>
        <time>2026-05-15T12:58:43Z</time>
      </trkpt>
      <trkpt lat="43.84762" lon="6.51068">
        <ele>722.4</ele>
        <time>2026-05-15T12:58:44Z</time>
      </trkpt>
      <trkpt lat="43.84765" lon="6.51069">
        <ele>722.5</ele>
        <time>2026-05-15T12:58:45Z</time>
      </trkpt>
      <trkpt lat="43.84767" lon="6.5107">
        <ele>722.6</ele>
        <time>2026-05-15T12:58:46Z</time>
      </trkpt>
      <trkpt lat="43.8477" lon="6.51071">
        <ele>722.7</ele>
        <time>2026-05-15T12:58:47Z</time>
      </trkpt>
      <trkpt lat="43.84772" lon="6.51073">
        <ele>722.8</ele>
        <time>2026-05-15T12:58:48Z</time>
      </trkpt>
      <trkpt lat="43.84774" lon="6.51073">
        <ele>722.9</ele>
        <time>2026-05-15T12:58:49Z</time>
      </trkpt>
      <trkpt lat="43.84775" lon="6.51074">
        <ele>722.9</ele>
        <time>2026-05-15T12:58:50Z</time>
      </trkpt>
      <trkpt lat="43.84775" lon="6.51073">
        <ele>722.9</ele>
        <time>2026-05-15T12:58:51Z</time>
      </trkpt>
      <trkpt lat="43.84775" lon="6.51073">
        <ele>722.9</ele>
        <time>2026-05-15T12:58:52Z</time>
      </trkpt>
      <trkpt lat="43.84774" lon="6.51072">
        <ele>722.9</ele>
        <time>2026-05-15T12:58:53Z</time>
      </trkpt>
      <trkpt lat="43.84773" lon="6.51072">
        <ele>722.8</ele>
        <time>2026-05-15T12:58:54Z</time>
      </trkpt>
      <trkpt lat="43.84773" lon="6.51072">
        <ele>722.8</ele>
        <time>2026-05-15T12:58:55Z</time>
      </trkpt>
      <trkpt lat="43.84773" lon="6.51072">
        <ele>722.8</ele>
        <time>2026-05-15T12:58:56Z</time>
      </trkpt>
      <trkpt lat="43.84772" lon="6.51072">
        <ele>722.8</ele>
        <time>2026-05-15T12:58:57Z</time>
      </trkpt>
      <trkpt lat="43.84772" lon="6.51072">
        <ele>722.8</ele>
        <time>2026-05-15T12:58:58Z</time>
      </trkpt>
      <trkpt lat="43.84772" lon="6.51071">
        <ele>722.8</ele>
        <time>2026-05-15T12:58:59Z</time>
      </trkpt>
      <trkpt lat="43.84772" lon="6.51071">
        <ele>722.8</ele>
        <time>2026-05-15T12:59:00Z</time>
      </trkpt>
      <trkpt lat="43.84772" lon="6.51071">
        <ele>722.8</ele>
        <time>2026-05-15T12:59:01Z</time>
      </trkpt>
      <trkpt lat="43.84772" lon="6.51071">
        <ele>722.8</ele>
        <time>2026-05-15T12:59:02Z</time>
      </trkpt>
      <trkpt lat="43.84772" lon="6.51071">
        <ele>722.8</ele>
        <time>2026-05-15T12:59:03Z</time>
      </trkpt>
      <trkpt lat="43.84772" lon="6.51071">
        <ele>722.8</ele>
        <time>2026-05-15T12:59:04Z</time>
      </trkpt>
      <trkpt lat="43.84772" lon="6.51071">
        <ele>722.8</ele>
        <time>2026-05-15T12:59:05Z</time>
      </trkpt>
      <trkpt lat="43.84772" lon="6.51071">
        <ele>722.8</ele>
        <time>2026-05-15T12:59:06Z</time>
      </trkpt>
      <trkpt lat="43.84772" lon="6.51071">
        <ele>722.8</ele>
        <time>2026-05-15T12:59:07Z</time>
      </trkpt>
      <trkpt lat="43.84772" lon="6.51071">
        <ele>722.8</ele>
        <time>2026-05-15T12:59:08Z</time>
      </trkpt>
      <trkpt lat="43.84772" lon="6.51071">
        <ele>722.8</ele>
        <time>2026-05-15T12:59:09Z</time>
      </trkpt>
      <trkpt lat="43.84772" lon="6.51071">
        <ele>722.8</ele>
        <time>2026-05-15T12:59:10Z</time>
      </trkpt>
      <trkpt lat="43.84772" lon="6.51071">
        <ele>722.8</ele>
        <time>2026-05-15T12:59:11Z</time>
      </trkpt>
      <trkpt lat="43.84772" lon="6.51071">
        <ele>722.8</ele>
        <time>2026-05-15T12:59:12Z</time>
      </trkpt>
      <trkpt lat="43.84772" lon="6.51072">
        <ele>722.8</ele>
        <time>2026-05-15T12:59:13Z</time>
      </trkpt>
      <trkpt lat="43.84772" lon="6.51072">
        <ele>722.8</ele>
        <time>2026-05-15T12:59:14Z</time>
      </trkpt>
      <trkpt lat="43.84772" lon="6.51072">
        <ele>722.8</ele>
        <time>2026-05-15T12:59:15Z</time>
      </trkpt>
      <trkpt lat="43.84772" lon="6.51072">
        <ele>722.8</ele>
        <time>2026-05-15T12:59:16Z</time>
      </trkpt>
      <trkpt lat="43.84772" lon="6.51072">
        <ele>722.8</ele>
        <time>2026-05-15T12:59:17Z</time>
      </trkpt>
      <trkpt lat="43.84772" lon="6.51072">
        <ele>722.8</ele>
        <time>2026-05-15T12:59:18Z</time>
      </trkpt>
      <trkpt lat="43.84773" lon="6.51072">
        <ele>722.8</ele>
        <time>2026-05-15T12:59:19Z</time>
      </trkpt>
      <trkpt lat="43.84773" lon="6.51072">
        <ele>722.8</ele>
        <time>2026-05-15T12:59:20Z</time>
      </trkpt>
      <trkpt lat="43.84773" lon="6.51072">
        <ele>722.8</ele>
        <time>2026-05-15T12:59:21Z</time>
      </trkpt>
      <trkpt lat="43.84773" lon="6.51072">
        <ele>722.8</ele>
        <time>2026-05-15T12:59:22Z</time>
      </trkpt>
      <trkpt lat="43.84773" lon="6.51071">
        <ele>722.8</ele>
        <time>2026-05-15T12:59:23Z</time>
      </trkpt>
      <trkpt lat="43.84773" lon="6.51071">
        <ele>722.8</ele>
        <time>2026-05-15T12:59:24Z</time>
      </trkpt>
      <trkpt lat="43.84773" lon="6.51071">
        <ele>722.8</ele>
        <time>2026-05-15T12:59:25Z</time>
      </trkpt>
      <trkpt lat="43.84773" lon="6.51071">
        <ele>722.8</ele>
        <time>2026-05-15T12:59:26Z</time>
      </trkpt>
      <trkpt lat="43.84773" lon="6.51071">
        <ele>722.8</ele>
        <time>2026-05-15T12:59:27Z</time>
      </trkpt>
      <trkpt lat="43.84773" lon="6.51071">
        <ele>722.8</ele>
        <time>2026-05-15T12:59:28Z</time>
      </trkpt>
      <trkpt lat="43.84773" lon="6.51071">
        <ele>722.8</ele>
        <time>2026-05-15T12:59:29Z</time>
      </trkpt>
      <trkpt lat="43.84773" lon="6.51071">
        <ele>722.8</ele>
        <time>2026-05-15T12:59:30Z</time>
      </trkpt>
      <trkpt lat="43.84773" lon="6.51071">
        <ele>722.8</ele>
        <time>2026-05-15T12:59:31Z</time>
      </trkpt>
      <trkpt lat="43.84773" lon="6.51071">
        <ele>722.8</ele>
        <time>2026-05-15T12:59:32Z</time>
      </trkpt>
      <trkpt lat="43.84773" lon="6.51072">
        <ele>722.8</ele>
        <time>2026-05-15T12:59:33Z</time>
      </trkpt>
      <trkpt lat="43.84774" lon="6.51072">
        <ele>722.9</ele>
        <time>2026-05-15T12:59:34Z</time>
      </trkpt>
      <trkpt lat="43.84775" lon="6.51072">
        <ele>722.9</ele>
        <time>2026-05-15T12:59:35Z</time>
      </trkpt>
      <trkpt lat="43.84776" lon="6.51073">
        <ele>722.9</ele>
        <time>2026-05-15T12:59:36Z</time>
      </trkpt>
      <trkpt lat="43.84778" lon="6.51074">
        <ele>723</ele>
        <time>2026-05-15T12:59:37Z</time>
      </trkpt>
      <trkpt lat="43.8478" lon="6.51075">
        <ele>723.2</ele>
        <time>2026-05-15T12:59:38Z</time>
      </trkpt>
      <trkpt lat="43.84782" lon="6.51077">
        <ele>723.4</ele>
        <time>2026-05-15T12:59:39Z</time>
      </trkpt>
      <trkpt lat="43.84785" lon="6.51079">
        <ele>723.7</ele>
        <time>2026-05-15T12:59:40Z</time>
      </trkpt>
      <trkpt lat="43.84787" lon="6.51081">
        <ele>724</ele>
        <time>2026-05-15T12:59:41Z</time>
      </trkpt>
      <trkpt lat="43.8479" lon="6.51084">
        <ele>724.4</ele>
        <time>2026-05-15T12:59:42Z</time>
      </trkpt>
      <trkpt lat="43.84793" lon="6.51088">
        <ele>725</ele>
        <time>2026-05-15T12:59:43Z</time>
      </trkpt>
      <trkpt lat="43.84796" lon="6.51093">
        <ele>725.7</ele>
        <time>2026-05-15T12:59:44Z</time>
      </trkpt>
      <trkpt lat="43.84797" lon="6.51099">
        <ele>726.2</ele>
        <time>2026-05-15T12:59:45Z</time>
      </trkpt>
      <trkpt lat="43.84793" lon="6.51108">
        <ele>726.4</ele>
        <time>2026-05-15T12:59:46Z</time>
      </trkpt>
      <trkpt lat="43.84791" lon="6.51117">
        <ele>726.6</ele>
        <time>2026-05-15T12:59:47Z</time>
      </trkpt>
      <trkpt lat="43.84789" lon="6.51125">
        <ele>726.7</ele>
        <time>2026-05-15T12:59:48Z</time>
      </trkpt>
      <trkpt lat="43.84787" lon="6.51134">
        <ele>726.8</ele>
        <time>2026-05-15T12:59:49Z</time>
      </trkpt>
      <trkpt lat="43.84784" lon="6.51143">
        <ele>726.9</ele>
        <time>2026-05-15T12:59:50Z</time>
      </trkpt>
      <trkpt lat="43.84782" lon="6.51151">
        <ele>727</ele>
        <time>2026-05-15T12:59:51Z</time>
      </trkpt>
      <trkpt lat="43.8478" lon="6.51159">
        <ele>727</ele>
        <time>2026-05-15T12:59:52Z</time>
      </trkpt>
      <trkpt lat="43.84778" lon="6.51167">
        <ele>727.1</ele>
        <time>2026-05-15T12:59:53Z</time>
      </trkpt>
      <trkpt lat="43.84777" lon="6.51174">
        <ele>727.5</ele>
        <time>2026-05-15T12:59:54Z</time>
      </trkpt>
      <trkpt lat="43.84776" lon="6.51179">
        <ele>727.7</ele>
        <time>2026-05-15T12:59:55Z</time>
      </trkpt>
      <trkpt lat="43.84776" lon="6.51184">
        <ele>728.1</ele>
        <time>2026-05-15T12:59:56Z</time>
      </trkpt>
      <trkpt lat="43.84775" lon="6.51189">
        <ele>728.3</ele>
        <time>2026-05-15T12:59:57Z</time>
      </trkpt>
      <trkpt lat="43.84773" lon="6.51193">
        <ele>728.4</ele>
        <time>2026-05-15T12:59:58Z</time>
      </trkpt>
      <trkpt lat="43.84767" lon="6.51194">
        <ele>727.8</ele>
        <time>2026-05-15T12:59:59Z</time>
      </trkpt>
      <trkpt lat="43.84763" lon="6.51196">
        <ele>727.5</ele>
        <time>2026-05-15T13:00:00Z</time>
      </trkpt>
      <trkpt lat="43.84759" lon="6.51198">
        <ele>727.1</ele>
        <time>2026-05-15T13:00:01Z</time>
      </trkpt>
      <trkpt lat="43.84755" lon="6.51198">
        <ele>726.7</ele>
        <time>2026-05-15T13:00:02Z</time>
      </trkpt>
      <trkpt lat="43.84751" lon="6.51198">
        <ele>726.2</ele>
        <time>2026-05-15T13:00:03Z</time>
      </trkpt>
      <trkpt lat="43.84748" lon="6.51199">
        <ele>726.1</ele>
        <time>2026-05-15T13:00:04Z</time>
      </trkpt>
      <trkpt lat="43.84745" lon="6.51201">
        <ele>726</ele>
        <time>2026-05-15T13:00:05Z</time>
      </trkpt>
      <trkpt lat="43.84742" lon="6.51203">
        <ele>725.8</ele>
        <time>2026-05-15T13:00:06Z</time>
      </trkpt>
      <trkpt lat="43.8474" lon="6.51204">
        <ele>725.7</ele>
        <time>2026-05-15T13:00:07Z</time>
      </trkpt>
      <trkpt lat="43.84737" lon="6.51205">
        <ele>725.6</ele>
        <time>2026-05-15T13:00:08Z</time>
      </trkpt>
      <trkpt lat="43.84736" lon="6.51206">
        <ele>725.5</ele>
        <time>2026-05-15T13:00:09Z</time>
      </trkpt>
      <trkpt lat="43.84734" lon="6.51206">
        <ele>725.4</ele>
        <time>2026-05-15T13:00:10Z</time>
      </trkpt>
      <trkpt lat="43.84734" lon="6.51206">
        <ele>725.4</ele>
        <time>2026-05-15T13:00:11Z</time>
      </trkpt>
      <trkpt lat="43.84734" lon="6.51206">
        <ele>725.4</ele>
        <time>2026-05-15T13:00:12Z</time>
      </trkpt>
      <trkpt lat="43.84734" lon="6.51206">
        <ele>725.4</ele>
        <time>2026-05-15T13:00:13Z</time>
      </trkpt>
      <trkpt lat="43.84734" lon="6.51205">
        <ele>725.4</ele>
        <time>2026-05-15T13:00:14Z</time>
      </trkpt>
      <trkpt lat="43.84734" lon="6.51205">
        <ele>725.4</ele>
        <time>2026-05-15T13:00:15Z</time>
      </trkpt>
      <trkpt lat="43.84734" lon="6.51205">
        <ele>725.4</ele>
        <time>2026-05-15T13:00:16Z</time>
      </trkpt>
      <trkpt lat="43.84733" lon="6.51205">
        <ele>725.3</ele>
        <time>2026-05-15T13:00:17Z</time>
      </trkpt>
      <trkpt lat="43.84732" lon="6.51206">
        <ele>725.2</ele>
        <time>2026-05-15T13:00:18Z</time>
      </trkpt>
      <trkpt lat="43.84731" lon="6.51207">
        <ele>725.1</ele>
        <time>2026-05-15T13:00:19Z</time>
      </trkpt>
      <trkpt lat="43.8473" lon="6.51208">
        <ele>725.1</ele>
        <time>2026-05-15T13:00:20Z</time>
      </trkpt>
      <trkpt lat="43.8473" lon="6.51208">
        <ele>725.1</ele>
        <time>2026-05-15T13:00:21Z</time>
      </trkpt>
      <trkpt lat="43.8473" lon="6.51209">
        <ele>725</ele>
        <time>2026-05-15T13:00:22Z</time>
      </trkpt>
      <trkpt lat="43.8473" lon="6.51209">
        <ele>725</ele>
        <time>2026-05-15T13:00:23Z</time>
      </trkpt>
      <trkpt lat="43.8473" lon="6.51209">
        <ele>725</ele>
        <time>2026-05-15T13:00:24Z</time>
      </trkpt>
      <trkpt lat="43.8473" lon="6.51209">
        <ele>725</ele>
        <time>2026-05-15T13:00:25Z</time>
      </trkpt>
      <trkpt lat="43.8473" lon="6.5121">
        <ele>725</ele>
        <time>2026-05-15T13:00:26Z</time>
      </trkpt>
      <trkpt lat="43.8473" lon="6.5121">
        <ele>725</ele>
        <time>2026-05-15T13:00:27Z</time>
      </trkpt>
      <trkpt lat="43.8473" lon="6.5121">
        <ele>725</ele>
        <time>2026-05-15T13:00:28Z</time>
      </trkpt>
      <trkpt lat="43.8473" lon="6.5121">
        <ele>725</ele>
        <time>2026-05-15T13:00:29Z</time>
      </trkpt>
      <trkpt lat="43.8473" lon="6.5121">
        <ele>725</ele>
        <time>2026-05-15T13:00:30Z</time>
      </trkpt>
      <trkpt lat="43.84729" lon="6.5121">
        <ele>725</ele>
        <time>2026-05-15T13:00:31Z</time>
      </trkpt>
      <trkpt lat="43.84729" lon="6.5121">
        <ele>725</ele>
        <time>2026-05-15T13:00:32Z</time>
      </trkpt>
      <trkpt lat="43.84729" lon="6.5121">
        <ele>725</ele>
        <time>2026-05-15T13:00:33Z</time>
      </trkpt>
      <trkpt lat="43.84729" lon="6.5121">
        <ele>725</ele>
        <time>2026-05-15T13:00:34Z</time>
      </trkpt>
      <trkpt lat="43.84729" lon="6.5121">
        <ele>725</ele>
        <time>2026-05-15T13:00:35Z</time>
      </trkpt>
      <trkpt lat="43.84729" lon="6.5121">
        <ele>725</ele>
        <time>2026-05-15T13:00:36Z</time>
      </trkpt>
      <trkpt lat="43.84729" lon="6.5121">
        <ele>725</ele>
        <time>2026-05-15T13:00:37Z</time>
      </trkpt>
      <trkpt lat="43.84729" lon="6.5121">
        <ele>725</ele>
        <time>2026-05-15T13:00:38Z</time>
      </trkpt>
      <trkpt lat="43.84729" lon="6.5121">
        <ele>725</ele>
        <time>2026-05-15T13:00:39Z</time>
      </trkpt>
      <trkpt lat="43.84729" lon="6.5121">
        <ele>725</ele>
        <time>2026-05-15T13:00:40Z</time>
      </trkpt>
      <trkpt lat="43.84729" lon="6.5121">
        <ele>725</ele>
        <time>2026-05-15T13:00:41Z</time>
      </trkpt>
      <trkpt lat="43.84729" lon="6.5121">
        <ele>725</ele>
        <time>2026-05-15T13:00:42Z</time>
      </trkpt>
      <trkpt lat="43.84729" lon="6.5121">
        <ele>725</ele>
        <time>2026-05-15T13:00:43Z</time>
      </trkpt>
      <trkpt lat="43.84729" lon="6.5121">
        <ele>725</ele>
        <time>2026-05-15T13:00:44Z</time>
      </trkpt>
      <trkpt lat="43.84729" lon="6.5121">
        <ele>725</ele>
        <time>2026-05-15T13:00:45Z</time>
      </trkpt>
      <trkpt lat="43.84729" lon="6.5121">
        <ele>725</ele>
        <time>2026-05-15T13:00:46Z</time>
      </trkpt>
      <trkpt lat="43.84729" lon="6.5121">
        <ele>725</ele>
        <time>2026-05-15T13:00:47Z</time>
      </trkpt>
      <trkpt lat="43.84729" lon="6.5121">
        <ele>725</ele>
        <time>2026-05-15T13:00:48Z</time>
      </trkpt>
      <trkpt lat="43.84729" lon="6.5121">
        <ele>725</ele>
        <time>2026-05-15T13:00:49Z</time>
      </trkpt>
      <trkpt lat="43.84729" lon="6.5121">
        <ele>725</ele>
        <time>2026-05-15T13:00:50Z</time>
      </trkpt>
      <trkpt lat="43.84729" lon="6.5121">
        <ele>725</ele>
        <time>2026-05-15T13:00:51Z</time>
      </trkpt>
      <trkpt lat="43.84729" lon="6.5121">
        <ele>725</ele>
        <time>2026-05-15T13:00:52Z</time>
      </trkpt>
      <trkpt lat="43.84728" lon="6.5121">
        <ele>724.9</ele>
        <time>2026-05-15T13:00:53Z</time>
      </trkpt>
      <trkpt lat="43.84725" lon="6.5121">
        <ele>724.7</ele>
        <time>2026-05-15T13:00:54Z</time>
      </trkpt>
      <trkpt lat="43.84723" lon="6.5121">
        <ele>724.5</ele>
        <time>2026-05-15T13:00:55Z</time>
      </trkpt>
      <trkpt lat="43.84719" lon="6.5121">
        <ele>724.3</ele>
        <time>2026-05-15T13:00:56Z</time>
      </trkpt>
      <trkpt lat="43.84713" lon="6.51213">
        <ele>724</ele>
        <time>2026-05-15T13:00:57Z</time>
      </trkpt>
      <trkpt lat="43.84707" lon="6.51216">
        <ele>723.7</ele>
        <time>2026-05-15T13:00:58Z</time>
      </trkpt>
      <trkpt lat="43.84702" lon="6.51219">
        <ele>723.4</ele>
        <time>2026-05-15T13:00:59Z</time>
      </trkpt>
      <trkpt lat="43.84697" lon="6.51223">
        <ele>723.1</ele>
        <time>2026-05-15T13:01:00Z</time>
      </trkpt>
      <trkpt lat="43.84694" lon="6.51228">
        <ele>723</ele>
        <time>2026-05-15T13:01:01Z</time>
      </trkpt>
      <trkpt lat="43.8469" lon="6.51232">
        <ele>723</ele>
        <time>2026-05-15T13:01:02Z</time>
      </trkpt>
      <trkpt lat="43.84685" lon="6.51237">
        <ele>723</ele>
        <time>2026-05-15T13:01:03Z</time>
      </trkpt>
      <trkpt lat="43.84681" lon="6.51242">
        <ele>723</ele>
        <time>2026-05-15T13:01:04Z</time>
      </trkpt>
      <trkpt lat="43.84678" lon="6.51246">
        <ele>723</ele>
        <time>2026-05-15T13:01:05Z</time>
      </trkpt>
      <trkpt lat="43.84673" lon="6.5125">
        <ele>723</ele>
        <time>2026-05-15T13:01:06Z</time>
      </trkpt>
      <trkpt lat="43.84669" lon="6.51256">
        <ele>722.8</ele>
        <time>2026-05-15T13:01:07Z</time>
      </trkpt>
      <trkpt lat="43.84663" lon="6.51258">
        <ele>722.6</ele>
        <time>2026-05-15T13:01:08Z</time>
      </trkpt>
      <trkpt lat="43.84657" lon="6.51259">
        <ele>722.4</ele>
        <time>2026-05-15T13:01:09Z</time>
      </trkpt>
      <trkpt lat="43.84652" lon="6.51258">
        <ele>722.3</ele>
        <time>2026-05-15T13:01:10Z</time>
      </trkpt>
      <trkpt lat="43.84647" lon="6.51256">
        <ele>722.2</ele>
        <time>2026-05-15T13:01:11Z</time>
      </trkpt>
      <trkpt lat="43.84643" lon="6.51255">
        <ele>722.1</ele>
        <time>2026-05-15T13:01:12Z</time>
      </trkpt>
      <trkpt lat="43.8464" lon="6.51255">
        <ele>722</ele>
        <time>2026-05-15T13:01:13Z</time>
      </trkpt>
      <trkpt lat="43.84635" lon="6.51253">
        <ele>721.9</ele>
        <time>2026-05-15T13:01:14Z</time>
      </trkpt>
      <trkpt lat="43.84629" lon="6.51251">
        <ele>721.6</ele>
        <time>2026-05-15T13:01:15Z</time>
      </trkpt>
      <trkpt lat="43.84623" lon="6.51247">
        <ele>721.4</ele>
        <time>2026-05-15T13:01:16Z</time>
      </trkpt>
      <trkpt lat="43.84617" lon="6.51243">
        <ele>721.2</ele>
        <time>2026-05-15T13:01:17Z</time>
      </trkpt>
      <trkpt lat="43.84612" lon="6.51242">
        <ele>721</ele>
        <time>2026-05-15T13:01:18Z</time>
      </trkpt>
      <trkpt lat="43.84607" lon="6.51244">
        <ele>720.9</ele>
        <time>2026-05-15T13:01:19Z</time>
      </trkpt>
      <trkpt lat="43.84605" lon="6.51249">
        <ele>720.8</ele>
        <time>2026-05-15T13:01:20Z</time>
      </trkpt>
      <trkpt lat="43.84602" lon="6.51256">
        <ele>720.7</ele>
        <time>2026-05-15T13:01:21Z</time>
      </trkpt>
      <trkpt lat="43.846" lon="6.51265">
        <ele>720.6</ele>
        <time>2026-05-15T13:01:22Z</time>
      </trkpt>
      <trkpt lat="43.84598" lon="6.51274">
        <ele>720.5</ele>
        <time>2026-05-15T13:01:23Z</time>
      </trkpt>
      <trkpt lat="43.84596" lon="6.51285">
        <ele>720.2</ele>
        <time>2026-05-15T13:01:24Z</time>
      </trkpt>
      <trkpt lat="43.84594" lon="6.51296">
        <ele>719.7</ele>
        <time>2026-05-15T13:01:25Z</time>
      </trkpt>
      <trkpt lat="43.84593" lon="6.51306">
        <ele>719.3</ele>
        <time>2026-05-15T13:01:26Z</time>
      </trkpt>
      <trkpt lat="43.84591" lon="6.51315">
        <ele>718.9</ele>
        <time>2026-05-15T13:01:27Z</time>
      </trkpt>
      <trkpt lat="43.8459" lon="6.51321">
        <ele>718.7</ele>
        <time>2026-05-15T13:01:28Z</time>
      </trkpt>
      <trkpt lat="43.84589" lon="6.51325">
        <ele>718.5</ele>
        <time>2026-05-15T13:01:29Z</time>
      </trkpt>
      <trkpt lat="43.84589" lon="6.51328">
        <ele>718.4</ele>
        <time>2026-05-15T13:01:30Z</time>
      </trkpt>
      <trkpt lat="43.84588" lon="6.5133">
        <ele>718.3</ele>
        <time>2026-05-15T13:01:31Z</time>
      </trkpt>
      <trkpt lat="43.84587" lon="6.51333">
        <ele>718.1</ele>
        <time>2026-05-15T13:01:32Z</time>
      </trkpt>
      <trkpt lat="43.84588" lon="6.51334">
        <ele>718.1</ele>
        <time>2026-05-15T13:01:33Z</time>
      </trkpt>
      <trkpt lat="43.84587" lon="6.51335">
        <ele>718.1</ele>
        <time>2026-05-15T13:01:34Z</time>
      </trkpt>
      <trkpt lat="43.84587" lon="6.51335">
        <ele>718.1</ele>
        <time>2026-05-15T13:01:35Z</time>
      </trkpt>
      <trkpt lat="43.84587" lon="6.51335">
        <ele>718.1</ele>
        <time>2026-05-15T13:01:36Z</time>
      </trkpt>
      <trkpt lat="43.84586" lon="6.51335">
        <ele>718</ele>
        <time>2026-05-15T13:01:37Z</time>
      </trkpt>
      <trkpt lat="43.84586" lon="6.51335">
        <ele>718</ele>
        <time>2026-05-15T13:01:38Z</time>
      </trkpt>
      <trkpt lat="43.84586" lon="6.51336">
        <ele>718</ele>
        <time>2026-05-15T13:01:39Z</time>
      </trkpt>
      <trkpt lat="43.84586" lon="6.51336">
        <ele>718</ele>
        <time>2026-05-15T13:01:40Z</time>
      </trkpt>
      <trkpt lat="43.84586" lon="6.51335">
        <ele>718</ele>
        <time>2026-05-15T13:01:41Z</time>
      </trkpt>
      <trkpt lat="43.84586" lon="6.51335">
        <ele>718</ele>
        <time>2026-05-15T13:01:42Z</time>
      </trkpt>
      <trkpt lat="43.84586" lon="6.51335">
        <ele>718</ele>
        <time>2026-05-15T13:01:43Z</time>
      </trkpt>
      <trkpt lat="43.84586" lon="6.51335">
        <ele>718</ele>
        <time>2026-05-15T13:01:44Z</time>
      </trkpt>
      <trkpt lat="43.84585" lon="6.51335">
        <ele>718</ele>
        <time>2026-05-15T13:01:45Z</time>
      </trkpt>
      <trkpt lat="43.84585" lon="6.51335">
        <ele>718</ele>
        <time>2026-05-15T13:01:46Z</time>
      </trkpt>
      <trkpt lat="43.84585" lon="6.51335">
        <ele>718</ele>
        <time>2026-05-15T13:01:47Z</time>
      </trkpt>
      <trkpt lat="43.84585" lon="6.51335">
        <ele>718</ele>
        <time>2026-05-15T13:01:48Z</time>
      </trkpt>
      <trkpt lat="43.84585" lon="6.51335">
        <ele>718</ele>
        <time>2026-05-15T13:01:49Z</time>
      </trkpt>
      <trkpt lat="43.84585" lon="6.51335">
        <ele>718</ele>
        <time>2026-05-15T13:01:50Z</time>
      </trkpt>
      <trkpt lat="43.84585" lon="6.51335">
        <ele>718</ele>
        <time>2026-05-15T13:01:51Z</time>
      </trkpt>
      <trkpt lat="43.84585" lon="6.51335">
        <ele>718</ele>
        <time>2026-05-15T13:01:52Z</time>
      </trkpt>
      <trkpt lat="43.84585" lon="6.51335">
        <ele>718</ele>
        <time>2026-05-15T13:01:53Z</time>
      </trkpt>
      <trkpt lat="43.84585" lon="6.51335">
        <ele>718</ele>
        <time>2026-05-15T13:01:54Z</time>
      </trkpt>
      <trkpt lat="43.84585" lon="6.51335">
        <ele>718</ele>
        <time>2026-05-15T13:01:55Z</time>
      </trkpt>
      <trkpt lat="43.84585" lon="6.51335">
        <ele>718</ele>
        <time>2026-05-15T13:01:56Z</time>
      </trkpt>
      <trkpt lat="43.84585" lon="6.51335">
        <ele>718</ele>
        <time>2026-05-15T13:01:57Z</time>
      </trkpt>
      <trkpt lat="43.84585" lon="6.51335">
        <ele>718</ele>
        <time>2026-05-15T13:01:58Z</time>
      </trkpt>
      <trkpt lat="43.84585" lon="6.51335">
        <ele>718</ele>
        <time>2026-05-15T13:01:59Z</time>
      </trkpt>
      <trkpt lat="43.84585" lon="6.51335">
        <ele>718</ele>
        <time>2026-05-15T13:02:00Z</time>
      </trkpt>
      <trkpt lat="43.84585" lon="6.51335">
        <ele>718</ele>
        <time>2026-05-15T13:02:01Z</time>
      </trkpt>
      <trkpt lat="43.84585" lon="6.51335">
        <ele>718</ele>
        <time>2026-05-15T13:02:02Z</time>
      </trkpt>
      <trkpt lat="43.84585" lon="6.51335">
        <ele>718</ele>
        <time>2026-05-15T13:02:03Z</time>
      </trkpt>
      <trkpt lat="43.84585" lon="6.51335">
        <ele>718</ele>
        <time>2026-05-15T13:02:04Z</time>
      </trkpt>
      <trkpt lat="43.84585" lon="6.51335">
        <ele>718</ele>
        <time>2026-05-15T13:02:05Z</time>
      </trkpt>
      <trkpt lat="43.84585" lon="6.51335">
        <ele>718</ele>
        <time>2026-05-15T13:02:06Z</time>
      </trkpt>
      <trkpt lat="43.84585" lon="6.51335">
        <ele>718</ele>
        <time>2026-05-15T13:02:07Z</time>
      </trkpt>
      <trkpt lat="43.84585" lon="6.51335">
        <ele>718</ele>
        <time>2026-05-15T13:02:08Z</time>
      </trkpt>
      <trkpt lat="43.84585" lon="6.51335">
        <ele>718</ele>
        <time>2026-05-15T13:02:09Z</time>
      </trkpt>
      <trkpt lat="43.84585" lon="6.51335">
        <ele>718</ele>
        <time>2026-05-15T13:02:10Z</time>
      </trkpt>
      <trkpt lat="43.84585" lon="6.51335">
        <ele>718</ele>
        <time>2026-05-15T13:02:11Z</time>
      </trkpt>
      <trkpt lat="43.84585" lon="6.51335">
        <ele>718</ele>
        <time>2026-05-15T13:02:12Z</time>
      </trkpt>
      <trkpt lat="43.84585" lon="6.51335">
        <ele>718</ele>
        <time>2026-05-15T13:02:13Z</time>
      </trkpt>
      <trkpt lat="43.84585" lon="6.51335">
        <ele>718</ele>
        <time>2026-05-15T13:02:14Z</time>
      </trkpt>
      <trkpt lat="43.84585" lon="6.51335">
        <ele>718</ele>
        <time>2026-05-15T13:02:15Z</time>
      </trkpt>
      <trkpt lat="43.84585" lon="6.51335">
        <ele>718</ele>
        <time>2026-05-15T13:02:16Z</time>
      </trkpt>
      <trkpt lat="43.84585" lon="6.51335">
        <ele>718</ele>
        <time>2026-05-15T13:02:17Z</time>
      </trkpt>
      <trkpt lat="43.84585" lon="6.51335">
        <ele>718</ele>
        <time>2026-05-15T13:02:18Z</time>
      </trkpt>
      <trkpt lat="43.84585" lon="6.51335">
        <ele>718</ele>
        <time>2026-05-15T13:02:19Z</time>
      </trkpt>
      <trkpt lat="43.84585" lon="6.51335">
        <ele>718</ele>
        <time>2026-05-15T13:02:20Z</time>
      </trkpt>
      <trkpt lat="43.84585" lon="6.51335">
        <ele>718</ele>
        <time>2026-05-15T13:02:21Z</time>
      </trkpt>
      <trkpt lat="43.84585" lon="6.51335">
        <ele>718</ele>
        <time>2026-05-15T13:02:22Z</time>
      </trkpt>
      <trkpt lat="43.84585" lon="6.51335">
        <ele>718</ele>
        <time>2026-05-15T13:02:23Z</time>
      </trkpt>
      <trkpt lat="43.84585" lon="6.51335">
        <ele>718</ele>
        <time>2026-05-15T13:02:24Z</time>
      </trkpt>
      <trkpt lat="43.84585" lon="6.51335">
        <ele>718</ele>
        <time>2026-05-15T13:02:25Z</time>
      </trkpt>
      <trkpt lat="43.84585" lon="6.51335">
        <ele>718</ele>
        <time>2026-05-15T13:02:26Z</time>
      </trkpt>
      <trkpt lat="43.84585" lon="6.51335">
        <ele>718</ele>
        <time>2026-05-15T13:02:27Z</time>
      </trkpt>
      <trkpt lat="43.84585" lon="6.51335">
        <ele>718</ele>
        <time>2026-05-15T13:02:28Z</time>
      </trkpt>
      <trkpt lat="43.84585" lon="6.51335">
        <ele>718</ele>
        <time>2026-05-15T13:02:29Z</time>
      </trkpt>
      <trkpt lat="43.84585" lon="6.51335">
        <ele>718</ele>
        <time>2026-05-15T13:02:30Z</time>
      </trkpt>
      <trkpt lat="43.84585" lon="6.51335">
        <ele>718</ele>
        <time>2026-05-15T13:02:31Z</time>
      </trkpt>
      <trkpt lat="43.84585" lon="6.51335">
        <ele>718</ele>
        <time>2026-05-15T13:02:32Z</time>
      </trkpt>
      <trkpt lat="43.84585" lon="6.51335">
        <ele>718</ele>
        <time>2026-05-15T13:02:33Z</time>
      </trkpt>
      <trkpt lat="43.84585" lon="6.51335">
        <ele>718</ele>
        <time>2026-05-15T13:02:34Z</time>
      </trkpt>
      <trkpt lat="43.84585" lon="6.51335">
        <ele>718</ele>
        <time>2026-05-15T13:02:35Z</time>
      </trkpt>
      <trkpt lat="43.84585" lon="6.51335">
        <ele>718</ele>
        <time>2026-05-15T13:02:36Z</time>
      </trkpt>
      <trkpt lat="43.84585" lon="6.51335">
        <ele>718</ele>
        <time>2026-05-15T13:02:37Z</time>
      </trkpt>
      <trkpt lat="43.84585" lon="6.51335">
        <ele>718</ele>
        <time>2026-05-15T13:02:38Z</time>
      </trkpt>
      <trkpt lat="43.84585" lon="6.51335">
        <ele>718</ele>
        <time>2026-05-15T13:02:39Z</time>
      </trkpt>
      <trkpt lat="43.84585" lon="6.51335">
        <ele>718</ele>
        <time>2026-05-15T13:02:40Z</time>
      </trkpt>
      <trkpt lat="43.84585" lon="6.51335">
        <ele>718</ele>
        <time>2026-05-15T13:02:41Z</time>
      </trkpt>
      <trkpt lat="43.84585" lon="6.51335">
        <ele>718</ele>
        <time>2026-05-15T13:02:42Z</time>
      </trkpt>
      <trkpt lat="43.84585" lon="6.51335">
        <ele>718</ele>
        <time>2026-05-15T13:02:43Z</time>
      </trkpt>
      <trkpt lat="43.84585" lon="6.51335">
        <ele>718</ele>
        <time>2026-05-15T13:02:44Z</time>
      </trkpt>
      <trkpt lat="43.84585" lon="6.51335">
        <ele>718</ele>
        <time>2026-05-15T13:02:45Z</time>
      </trkpt>
      <trkpt lat="43.84585" lon="6.51335">
        <ele>718</ele>
        <time>2026-05-15T13:02:46Z</time>
      </trkpt>
      <trkpt lat="43.84585" lon="6.51335">
        <ele>718</ele>
        <time>2026-05-15T13:02:47Z</time>
      </trkpt>
      <trkpt lat="43.84585" lon="6.51335">
        <ele>718</ele>
        <time>2026-05-15T13:02:48Z</time>
      </trkpt>
      <trkpt lat="43.84585" lon="6.51335">
        <ele>718</ele>
        <time>2026-05-15T13:02:49Z</time>
      </trkpt>
      <trkpt lat="43.84585" lon="6.51335">
        <ele>718</ele>
        <time>2026-05-15T13:02:50Z</time>
      </trkpt>
      <trkpt lat="43.84585" lon="6.51335">
        <ele>718</ele>
        <time>2026-05-15T13:02:51Z</time>
      </trkpt>
      <trkpt lat="43.84585" lon="6.51335">
        <ele>718</ele>
        <time>2026-05-15T13:02:52Z</time>
      </trkpt>
      <trkpt lat="43.84585" lon="6.51335">
        <ele>718</ele>
        <time>2026-05-15T13:02:53Z</time>
      </trkpt>
      <trkpt lat="43.84585" lon="6.51335">
        <ele>718</ele>
        <time>2026-05-15T13:02:54Z</time>
      </trkpt>
      <trkpt lat="43.84585" lon="6.51335">
        <ele>718</ele>
        <time>2026-05-15T13:02:55Z</time>
      </trkpt>
      <trkpt lat="43.84585" lon="6.51335">
        <ele>718</ele>
        <time>2026-05-15T13:02:56Z</time>
      </trkpt>
      <trkpt lat="43.84585" lon="6.51335">
        <ele>718</ele>
        <time>2026-05-15T13:02:57Z</time>
      </trkpt>
      <trkpt lat="43.84585" lon="6.51335">
        <ele>718</ele>
        <time>2026-05-15T13:02:58Z</time>
      </trkpt>
      <trkpt lat="43.84585" lon="6.51335">
        <ele>718</ele>
        <time>2026-05-15T13:02:59Z</time>
      </trkpt>
      <trkpt lat="43.84585" lon="6.51335">
        <ele>718</ele>
        <time>2026-05-15T13:03:00Z</time>
      </trkpt>
      <trkpt lat="43.84585" lon="6.51335">
        <ele>718</ele>
        <time>2026-05-15T13:03:01Z</time>
      </trkpt>
      <trkpt lat="43.84585" lon="6.51335">
        <ele>718</ele>
        <time>2026-05-15T13:03:02Z</time>
      </trkpt>
      <trkpt lat="43.84585" lon="6.51335">
        <ele>718</ele>
        <time>2026-05-15T13:03:03Z</time>
      </trkpt>
      <trkpt lat="43.84585" lon="6.51335">
        <ele>718</ele>
        <time>2026-05-15T13:03:04Z</time>
      </trkpt>
      <trkpt lat="43.84585" lon="6.51335">
        <ele>718</ele>
        <time>2026-05-15T13:03:05Z</time>
      </trkpt>
      <trkpt lat="43.84585" lon="6.51335">
        <ele>718</ele>
        <time>2026-05-15T13:03:06Z</time>
      </trkpt>
      <trkpt lat="43.84585" lon="6.51335">
        <ele>718</ele>
        <time>2026-05-15T13:03:07Z</time>
      </trkpt>
      <trkpt lat="43.84585" lon="6.51335">
        <ele>718</ele>
        <time>2026-05-15T13:03:08Z</time>
      </trkpt>
      <trkpt lat="43.84585" lon="6.51335">
        <ele>718</ele>
        <time>2026-05-15T13:03:09Z</time>
      </trkpt>
      <trkpt lat="43.84585" lon="6.51335">
        <ele>718</ele>
        <time>2026-05-15T13:03:10Z</time>
      </trkpt>
      <trkpt lat="43.84585" lon="6.51335">
        <ele>718</ele>
        <time>2026-05-15T13:03:11Z</time>
      </trkpt>
      <trkpt lat="43.84585" lon="6.51335">
        <ele>718</ele>
        <time>2026-05-15T13:03:12Z</time>
      </trkpt>
      <trkpt lat="43.84585" lon="6.51335">
        <ele>718</ele>
        <time>2026-05-15T13:03:13Z</time>
      </trkpt>
      <trkpt lat="43.84585" lon="6.51335">
        <ele>718</ele>
        <time>2026-05-15T13:03:14Z</time>
      </trkpt>
      <trkpt lat="43.84585" lon="6.51335">
        <ele>718</ele>
        <time>2026-05-15T13:03:15Z</time>
      </trkpt>
      <trkpt lat="43.84585" lon="6.51335">
        <ele>718</ele>
        <time>2026-05-15T13:03:16Z</time>
      </trkpt>
      <trkpt lat="43.84585" lon="6.51335">
        <ele>718</ele>
        <time>2026-05-15T13:03:17Z</time>
      </trkpt>
      <trkpt lat="43.84585" lon="6.51335">
        <ele>718</ele>
        <time>2026-05-15T13:03:18Z</time>
      </trkpt>
      <trkpt lat="43.84585" lon="6.51335">
        <ele>718</ele>
        <time>2026-05-15T13:03:19Z</time>
      </trkpt>
      <trkpt lat="43.84585" lon="6.51335">
        <ele>718</ele>
        <time>2026-05-15T13:03:20Z</time>
      </trkpt>
      <trkpt lat="43.84585" lon="6.51335">
        <ele>718</ele>
        <time>2026-05-15T13:03:21Z</time>
      </trkpt>
      <trkpt lat="43.84585" lon="6.51335">
        <ele>718</ele>
        <time>2026-05-15T13:03:22Z</time>
      </trkpt>
      <trkpt lat="43.84585" lon="6.51335">
        <ele>718</ele>
        <time>2026-05-15T13:03:23Z</time>
      </trkpt>
      <trkpt lat="43.84585" lon="6.51335">
        <ele>718</ele>
        <time>2026-05-15T13:03:24Z</time>
      </trkpt>
      <trkpt lat="43.84585" lon="6.51335">
        <ele>718</ele>
        <time>2026-05-15T13:03:25Z</time>
      </trkpt>
      <trkpt lat="43.84585" lon="6.51335">
        <ele>718</ele>
        <time>2026-05-15T13:03:26Z</time>
      </trkpt>
      <trkpt lat="43.84585" lon="6.51335">
        <ele>718</ele>
        <time>2026-05-15T13:03:27Z</time>
      </trkpt>
      <trkpt lat="43.84585" lon="6.51335">
        <ele>718</ele>
        <time>2026-05-15T13:03:28Z</time>
      </trkpt>
      <trkpt lat="43.84585" lon="6.51335">
        <ele>718</ele>
        <time>2026-05-15T13:03:29Z</time>
      </trkpt>
      <trkpt lat="43.84585" lon="6.51335">
        <ele>718</ele>
        <time>2026-05-15T13:03:30Z</time>
      </trkpt>
      <trkpt lat="43.84585" lon="6.51335">
        <ele>718</ele>
        <time>2026-05-15T13:03:31Z</time>
      </trkpt>
      <trkpt lat="43.84585" lon="6.51335">
        <ele>718</ele>
        <time>2026-05-15T13:03:32Z</time>
      </trkpt>
      <trkpt lat="43.84585" lon="6.51335">
        <ele>718</ele>
        <time>2026-05-15T13:03:33Z</time>
      </trkpt>
      <trkpt lat="43.84585" lon="6.51335">
        <ele>718</ele>
        <time>2026-05-15T13:03:34Z</time>
      </trkpt>
      <trkpt lat="43.84585" lon="6.51335">
        <ele>718</ele>
        <time>2026-05-15T13:03:35Z</time>
      </trkpt>
      <trkpt lat="43.84585" lon="6.51335">
        <ele>718</ele>
        <time>2026-05-15T13:03:36Z</time>
      </trkpt>
      <trkpt lat="43.84585" lon="6.51335">
        <ele>718</ele>
        <time>2026-05-15T13:03:37Z</time>
      </trkpt>
      <trkpt lat="43.84585" lon="6.51335">
        <ele>718</ele>
        <time>2026-05-15T13:03:38Z</time>
      </trkpt>
      <trkpt lat="43.84585" lon="6.51335">
        <ele>718</ele>
        <time>2026-05-15T13:03:39Z</time>
      </trkpt>
      <trkpt lat="43.84585" lon="6.51335">
        <ele>718</ele>
        <time>2026-05-15T13:03:40Z</time>
      </trkpt>
      <trkpt lat="43.84585" lon="6.51335">
        <ele>718</ele>
        <time>2026-05-15T13:03:41Z</time>
      </trkpt>
      <trkpt lat="43.84585" lon="6.51335">
        <ele>718</ele>
        <time>2026-05-15T13:03:42Z</time>
      </trkpt>
      <trkpt lat="43.84585" lon="6.51335">
        <ele>718</ele>
        <time>2026-05-15T13:03:43Z</time>
      </trkpt>
      <trkpt lat="43.84585" lon="6.51335">
        <ele>718</ele>
        <time>2026-05-15T13:03:44Z</time>
      </trkpt>
      <trkpt lat="43.84585" lon="6.51335">
        <ele>718</ele>
        <time>2026-05-15T13:03:45Z</time>
      </trkpt>
      <trkpt lat="43.84585" lon="6.51335">
        <ele>718</ele>
        <time>2026-05-15T13:03:46Z</time>
      </trkpt>
      <trkpt lat="43.84585" lon="6.51335">
        <ele>718</ele>
        <time>2026-05-15T13:03:47Z</time>
      </trkpt>
      <trkpt lat="43.84585" lon="6.51335">
        <ele>718</ele>
        <time>2026-05-15T13:03:48Z</time>
      </trkpt>
      <trkpt lat="43.84585" lon="6.51335">
        <ele>718</ele>
        <time>2026-05-15T13:03:49Z</time>
      </trkpt>
      <trkpt lat="43.84585" lon="6.51335">
        <ele>718</ele>
        <time>2026-05-15T13:03:50Z</time>
      </trkpt>
      <trkpt lat="43.84585" lon="6.51335">
        <ele>718</ele>
        <time>2026-05-15T13:03:51Z</time>
      </trkpt>
      <trkpt lat="43.84585" lon="6.51335">
        <ele>718</ele>
        <time>2026-05-15T13:03:52Z</time>
      </trkpt>
      <trkpt lat="43.84585" lon="6.51335">
        <ele>718</ele>
        <time>2026-05-15T13:03:53Z</time>
      </trkpt>
      <trkpt lat="43.84585" lon="6.51335">
        <ele>718</ele>
        <time>2026-05-15T13:03:54Z</time>
      </trkpt>
      <trkpt lat="43.84585" lon="6.51335">
        <ele>718</ele>
        <time>2026-05-15T13:03:55Z</time>
      </trkpt>
      <trkpt lat="43.84585" lon="6.51335">
        <ele>718</ele>
        <time>2026-05-15T13:03:56Z</time>
      </trkpt>
      <trkpt lat="43.84585" lon="6.51335">
        <ele>718</ele>
        <time>2026-05-15T13:03:57Z</time>
      </trkpt>
      <trkpt lat="43.84585" lon="6.51335">
        <ele>718</ele>
        <time>2026-05-15T13:03:58Z</time>
      </trkpt>
      <trkpt lat="43.84585" lon="6.51335">
        <ele>718</ele>
        <time>2026-05-15T13:03:59Z</time>
      </trkpt>
      <trkpt lat="43.84585" lon="6.51335">
        <ele>718</ele>
        <time>2026-05-15T13:04:00Z</time>
      </trkpt>
      <trkpt lat="43.84585" lon="6.51335">
        <ele>718</ele>
        <time>2026-05-15T13:04:01Z</time>
      </trkpt>
      <trkpt lat="43.84585" lon="6.51335">
        <ele>718</ele>
        <time>2026-05-15T13:04:02Z</time>
      </trkpt>
      <trkpt lat="43.84585" lon="6.51335">
        <ele>718</ele>
        <time>2026-05-15T13:04:03Z</time>
      </trkpt>
      <trkpt lat="43.84585" lon="6.51335">
        <ele>718</ele>
        <time>2026-05-15T13:04:04Z</time>
      </trkpt>
      <trkpt lat="43.84585" lon="6.51335">
        <ele>718</ele>
        <time>2026-05-15T13:04:05Z</time>
      </trkpt>
      <trkpt lat="43.84585" lon="6.51335">
        <ele>718</ele>
        <time>2026-05-15T13:04:06Z</time>
      </trkpt>
      <trkpt lat="43.84585" lon="6.51335">
        <ele>718</ele>
        <time>2026-05-15T13:04:07Z</time>
      </trkpt>
      <trkpt lat="43.84585" lon="6.51335">
        <ele>718</ele>
        <time>2026-05-15T13:04:08Z</time>
      </trkpt>
      <trkpt lat="43.84585" lon="6.51335">
        <ele>718</ele>
        <time>2026-05-15T13:04:09Z</time>
      </trkpt>
      <trkpt lat="43.84585" lon="6.51335">
        <ele>718</ele>
        <time>2026-05-15T13:04:10Z</time>
      </trkpt>
      <trkpt lat="43.84585" lon="6.51335">
        <ele>718</ele>
        <time>2026-05-15T13:04:11Z</time>
      </trkpt>
      <trkpt lat="43.84585" lon="6.51335">
        <ele>718</ele>
        <time>2026-05-15T13:04:12Z</time>
      </trkpt>
      <trkpt lat="43.84585" lon="6.51335">
        <ele>718</ele>
        <time>2026-05-15T13:04:13Z</time>
      </trkpt>
      <trkpt lat="43.84585" lon="6.51335">
        <ele>718</ele>
        <time>2026-05-15T13:04:14Z</time>
      </trkpt>
      <trkpt lat="43.84585" lon="6.51335">
        <ele>718</ele>
        <time>2026-05-15T13:04:15Z</time>
      </trkpt>
      <trkpt lat="43.84585" lon="6.51335">
        <ele>718</ele>
        <time>2026-05-15T13:04:16Z</time>
      </trkpt>
      <trkpt lat="43.84585" lon="6.51335">
        <ele>718</ele>
        <time>2026-05-15T13:04:17Z</time>
      </trkpt>
      <trkpt lat="43.84585" lon="6.51335">
        <ele>718</ele>
        <time>2026-05-15T13:04:18Z</time>
      </trkpt>
      <trkpt lat="43.84585" lon="6.51335">
        <ele>718</ele>
        <time>2026-05-15T13:04:19Z</time>
      </trkpt>
      <trkpt lat="43.84585" lon="6.51335">
        <ele>718</ele>
        <time>2026-05-15T13:04:20Z</time>
      </trkpt>
      <trkpt lat="43.84585" lon="6.51335">
        <ele>718</ele>
        <time>2026-05-15T13:04:21Z</time>
      </trkpt>
      <trkpt lat="43.84585" lon="6.51335">
        <ele>718</ele>
        <time>2026-05-15T13:04:22Z</time>
      </trkpt>
      <trkpt lat="43.84585" lon="6.51335">
        <ele>718</ele>
        <time>2026-05-15T13:04:23Z</time>
      </trkpt>
      <trkpt lat="43.84585" lon="6.51335">
        <ele>718</ele>
        <time>2026-05-15T13:04:24Z</time>
      </trkpt>
      <trkpt lat="43.84585" lon="6.51335">
        <ele>718</ele>
        <time>2026-05-15T13:04:25Z</time>
      </trkpt>
      <trkpt lat="43.84585" lon="6.51335">
        <ele>718</ele>
        <time>2026-05-15T13:04:26Z</time>
      </trkpt>
      <trkpt lat="43.84585" lon="6.51335">
        <ele>718</ele>
        <time>2026-05-15T13:04:27Z</time>
      </trkpt>
      <trkpt lat="43.84585" lon="6.51335">
        <ele>718</ele>
        <time>2026-05-15T13:04:28Z</time>
      </trkpt>
      <trkpt lat="43.84585" lon="6.51335">
        <ele>718</ele>
        <time>2026-05-15T13:04:29Z</time>
      </trkpt>
      <trkpt lat="43.84585" lon="6.51335">
        <ele>718</ele>
        <time>2026-05-15T13:04:30Z</time>
      </trkpt>
      <trkpt lat="43.84585" lon="6.51335">
        <ele>718</ele>
        <time>2026-05-15T13:04:31Z</time>
      </trkpt>
      <trkpt lat="43.84585" lon="6.51335">
        <ele>718</ele>
        <time>2026-05-15T13:04:32Z</time>
      </trkpt>
      <trkpt lat="43.84585" lon="6.51335">
        <ele>718</ele>
        <time>2026-05-15T13:04:33Z</time>
      </trkpt>
      <trkpt lat="43.84585" lon="6.51335">
        <ele>718</ele>
        <time>2026-05-15T13:04:34Z</time>
      </trkpt>
      <trkpt lat="43.84585" lon="6.51335">
        <ele>718</ele>
        <time>2026-05-15T13:04:35Z</time>
      </trkpt>
      <trkpt lat="43.84585" lon="6.51335">
        <ele>718</ele>
        <time>2026-05-15T13:04:36Z</time>
      </trkpt>
      <trkpt lat="43.84585" lon="6.51335">
        <ele>718</ele>
        <time>2026-05-15T13:04:37Z</time>
      </trkpt>
      <trkpt lat="43.84585" lon="6.51335">
        <ele>718</ele>
        <time>2026-05-15T13:04:38Z</time>
      </trkpt>
      <trkpt lat="43.84585" lon="6.51335">
        <ele>718</ele>
        <time>2026-05-15T13:04:39Z</time>
      </trkpt>
      <trkpt lat="43.84585" lon="6.51335">
        <ele>718</ele>
        <time>2026-05-15T13:04:40Z</time>
      </trkpt>
      <trkpt lat="43.84585" lon="6.51335">
        <ele>718</ele>
        <time>2026-05-15T13:04:41Z</time>
      </trkpt>
      <trkpt lat="43.84585" lon="6.51335">
        <ele>718</ele>
        <time>2026-05-15T13:04:42Z</time>
      </trkpt>
      <trkpt lat="43.84585" lon="6.51335">
        <ele>718</ele>
        <time>2026-05-15T13:04:43Z</time>
      </trkpt>
      <trkpt lat="43.84585" lon="6.51335">
        <ele>718</ele>
        <time>2026-05-15T13:04:44Z</time>
      </trkpt>
      <trkpt lat="43.84585" lon="6.51335">
        <ele>718</ele>
        <time>2026-05-15T13:04:45Z</time>
      </trkpt>
      <trkpt lat="43.84585" lon="6.51335">
        <ele>718</ele>
        <time>2026-05-15T13:04:46Z</time>
      </trkpt>
      <trkpt lat="43.84585" lon="6.51335">
        <ele>718</ele>
        <time>2026-05-15T13:04:47Z</time>
      </trkpt>
      <trkpt lat="43.84585" lon="6.51335">
        <ele>718</ele>
        <time>2026-05-15T13:04:48Z</time>
      </trkpt>
      <trkpt lat="43.84585" lon="6.51335">
        <ele>718</ele>
        <time>2026-05-15T13:04:49Z</time>
      </trkpt>
      <trkpt lat="43.84585" lon="6.51335">
        <ele>718</ele>
        <time>2026-05-15T13:04:50Z</time>
      </trkpt>
      <trkpt lat="43.84585" lon="6.51335">
        <ele>718</ele>
        <time>2026-05-15T13:04:51Z</time>
      </trkpt>
      <trkpt lat="43.84585" lon="6.51335">
        <ele>718</ele>
        <time>2026-05-15T13:04:52Z</time>
      </trkpt>
      <trkpt lat="43.84585" lon="6.51335">
        <ele>718</ele>
        <time>2026-05-15T13:04:53Z</time>
      </trkpt>
      <trkpt lat="43.84585" lon="6.51335">
        <ele>718</ele>
        <time>2026-05-15T13:04:54Z</time>
      </trkpt>
      <trkpt lat="43.84585" lon="6.51335">
        <ele>718</ele>
        <time>2026-05-15T13:04:55Z</time>
      </trkpt>
      <trkpt lat="43.84585" lon="6.51335">
        <ele>718</ele>
        <time>2026-05-15T13:04:56Z</time>
      </trkpt>
      <trkpt lat="43.84585" lon="6.51335">
        <ele>718</ele>
        <time>2026-05-15T13:04:57Z</time>
      </trkpt>
      <trkpt lat="43.84585" lon="6.51335">
        <ele>718</ele>
        <time>2026-05-15T13:04:58Z</time>
      </trkpt>
      <trkpt lat="43.84585" lon="6.51335">
        <ele>718</ele>
        <time>2026-05-15T13:04:59Z</time>
      </trkpt>
      <trkpt lat="43.84585" lon="6.51335">
        <ele>718</ele>
        <time>2026-05-15T13:05:00Z</time>
      </trkpt>
      <trkpt lat="43.84585" lon="6.51335">
        <ele>718</ele>
        <time>2026-05-15T13:05:01Z</time>
      </trkpt>
      <trkpt lat="43.84585" lon="6.51335">
        <ele>718</ele>
        <time>2026-05-15T13:05:02Z</time>
      </trkpt>
      <trkpt lat="43.84585" lon="6.51335">
        <ele>718</ele>
        <time>2026-05-15T13:05:03Z</time>
      </trkpt>
      <trkpt lat="43.84585" lon="6.51335">
        <ele>718</ele>
        <time>2026-05-15T13:05:04Z</time>
      </trkpt>
      <trkpt lat="43.84585" lon="6.51335">
        <ele>718</ele>
        <time>2026-05-15T13:05:05Z</time>
      </trkpt>
      <trkpt lat="43.84585" lon="6.51335">
        <ele>718</ele>
        <time>2026-05-15T13:05:06Z</time>
      </trkpt>
      <trkpt lat="43.84585" lon="6.51335">
        <ele>718</ele>
        <time>2026-05-15T13:05:07Z</time>
      </trkpt>
      <trkpt lat="43.84585" lon="6.51335">
        <ele>718</ele>
        <time>2026-05-15T13:05:08Z</time>
      </trkpt>
      <trkpt lat="43.84585" lon="6.51335">
        <ele>718</ele>
        <time>2026-05-15T13:05:09Z</time>
      </trkpt>
      <trkpt lat="43.84585" lon="6.51335">
        <ele>718</ele>
        <time>2026-05-15T13:05:10Z</time>
      </trkpt>
      <trkpt lat="43.84585" lon="6.51335">
        <ele>718</ele>
        <time>2026-05-15T13:05:11Z</time>
      </trkpt>
      <trkpt lat="43.84585" lon="6.51335">
        <ele>718</ele>
        <time>2026-05-15T13:05:12Z</time>
      </trkpt>
      <trkpt lat="43.84585" lon="6.51335">
        <ele>718</ele>
        <time>2026-05-15T13:05:13Z</time>
      </trkpt>
      <trkpt lat="43.84585" lon="6.51335">
        <ele>718</ele>
        <time>2026-05-15T13:05:14Z</time>
      </trkpt>
      <trkpt lat="43.84585" lon="6.51335">
        <ele>718</ele>
        <time>2026-05-15T13:05:15Z</time>
      </trkpt>
      <trkpt lat="43.84585" lon="6.51335">
        <ele>718</ele>
        <time>2026-05-15T13:05:16Z</time>
      </trkpt>
      <trkpt lat="43.84585" lon="6.51335">
        <ele>718</ele>
        <time>2026-05-15T13:05:17Z</time>
      </trkpt>
      <trkpt lat="43.84585" lon="6.51335">
        <ele>718</ele>
        <time>2026-05-15T13:05:18Z</time>
      </trkpt>
      <trkpt lat="43.84585" lon="6.51335">
        <ele>718</ele>
        <time>2026-05-15T13:05:19Z</time>
      </trkpt>
      <trkpt lat="43.84585" lon="6.51335">
        <ele>718</ele>
        <time>2026-05-15T13:05:20Z</time>
      </trkpt>
      <trkpt lat="43.84585" lon="6.51335">
        <ele>718</ele>
        <time>2026-05-15T13:05:21Z</time>
      </trkpt>
      <trkpt lat="43.84585" lon="6.51335">
        <ele>718</ele>
        <time>2026-05-15T13:05:22Z</time>
      </trkpt>
      <trkpt lat="43.84585" lon="6.51335">
        <ele>718</ele>
        <time>2026-05-15T13:05:23Z</time>
      </trkpt>
      <trkpt lat="43.84585" lon="6.51335">
        <ele>718</ele>
        <time>2026-05-15T13:05:24Z</time>
      </trkpt>
      <trkpt lat="43.84585" lon="6.51335">
        <ele>718</ele>
        <time>2026-05-15T13:05:25Z</time>
      </trkpt>
      <trkpt lat="43.84585" lon="6.51335">
        <ele>718</ele>
        <time>2026-05-15T13:05:26Z</time>
      </trkpt>
      <trkpt lat="43.84585" lon="6.51335">
        <ele>718</ele>
        <time>2026-05-15T13:05:27Z</time>
      </trkpt>
      <trkpt lat="43.84585" lon="6.51335">
        <ele>718</ele>
        <time>2026-05-15T13:05:28Z</time>
      </trkpt>
      <trkpt lat="43.84585" lon="6.51335">
        <ele>718</ele>
        <time>2026-05-15T13:05:29Z</time>
      </trkpt>
      <trkpt lat="43.84585" lon="6.51335">
        <ele>718</ele>
        <time>2026-05-15T13:05:30Z</time>
      </trkpt>
      <trkpt lat="43.84585" lon="6.51335">
        <ele>718</ele>
        <time>2026-05-15T13:05:31Z</time>
      </trkpt>
      <trkpt lat="43.84585" lon="6.51335">
        <ele>718</ele>
        <time>2026-05-15T13:05:32Z</time>
      </trkpt>
      <trkpt lat="43.84585" lon="6.51335">
        <ele>718</ele>
        <time>2026-05-15T13:05:33Z</time>
      </trkpt>
      <trkpt lat="43.84585" lon="6.51335">
        <ele>718</ele>
        <time>2026-05-15T13:05:34Z</time>
      </trkpt>
      <trkpt lat="43.84585" lon="6.51335">
        <ele>718</ele>
        <time>2026-05-15T13:05:35Z</time>
      </trkpt>
      <trkpt lat="43.84585" lon="6.51335">
        <ele>718</ele>
        <time>2026-05-15T13:05:36Z</time>
      </trkpt>
      <trkpt lat="43.84585" lon="6.51335">
        <ele>718</ele>
        <time>2026-05-15T13:05:37Z</time>
      </trkpt>
      <trkpt lat="43.84585" lon="6.51335">
        <ele>718</ele>
        <time>2026-05-15T13:05:38Z</time>
      </trkpt>
      <trkpt lat="43.84585" lon="6.51335">
        <ele>718</ele>
        <time>2026-05-15T13:05:39Z</time>
      </trkpt>
      <trkpt lat="43.84585" lon="6.51335">
        <ele>718</ele>
        <time>2026-05-15T13:05:40Z</time>
      </trkpt>
      <trkpt lat="43.84585" lon="6.51335">
        <ele>718</ele>
        <time>2026-05-15T13:05:41Z</time>
      </trkpt>
      <trkpt lat="43.84585" lon="6.51335">
        <ele>718</ele>
        <time>2026-05-15T13:05:42Z</time>
      </trkpt>
      <trkpt lat="43.84585" lon="6.51335">
        <ele>718</ele>
        <time>2026-05-15T13:05:43Z</time>
      </trkpt>
      <trkpt lat="43.84585" lon="6.51335">
        <ele>718</ele>
        <time>2026-05-15T13:05:44Z</time>
      </trkpt>
      <trkpt lat="43.84585" lon="6.51335">
        <ele>718</ele>
        <time>2026-05-15T13:05:45Z</time>
      </trkpt>
      <trkpt lat="43.84585" lon="6.51335">
        <ele>718</ele>
        <time>2026-05-15T13:05:46Z</time>
      </trkpt>
      <trkpt lat="43.84585" lon="6.51335">
        <ele>718</ele>
        <time>2026-05-15T13:05:47Z</time>
      </trkpt>
      <trkpt lat="43.84585" lon="6.51335">
        <ele>718</ele>
        <time>2026-05-15T13:05:48Z</time>
      </trkpt>
      <trkpt lat="43.84585" lon="6.51335">
        <ele>718</ele>
        <time>2026-05-15T13:05:49Z</time>
      </trkpt>
      <trkpt lat="43.84585" lon="6.51335">
        <ele>718</ele>
        <time>2026-05-15T13:05:50Z</time>
      </trkpt>
      <trkpt lat="43.84585" lon="6.51335">
        <ele>718</ele>
        <time>2026-05-15T13:05:51Z</time>
      </trkpt>
      <trkpt lat="43.84585" lon="6.51335">
        <ele>718</ele>
        <time>2026-05-15T13:05:52Z</time>
      </trkpt>
      <trkpt lat="43.84585" lon="6.51335">
        <ele>718</ele>
        <time>2026-05-15T13:05:53Z</time>
      </trkpt>
      <trkpt lat="43.84585" lon="6.51335">
        <ele>718</ele>
        <time>2026-05-15T13:05:54Z</time>
      </trkpt>
      <trkpt lat="43.84585" lon="6.51335">
        <ele>718</ele>
        <time>2026-05-15T13:05:55Z</time>
      </trkpt>
      <trkpt lat="43.84585" lon="6.51335">
        <ele>718</ele>
        <time>2026-05-15T13:05:56Z</time>
      </trkpt>
      <trkpt lat="43.84585" lon="6.51335">
        <ele>718</ele>
        <time>2026-05-15T13:05:57Z</time>
      </trkpt>
      <trkpt lat="43.84585" lon="6.51335">
        <ele>718</ele>
        <time>2026-05-15T13:05:58Z</time>
      </trkpt>
      <trkpt lat="43.84585" lon="6.51335">
        <ele>718</ele>
        <time>2026-05-15T13:05:59Z</time>
      </trkpt>
      <trkpt lat="43.84585" lon="6.51335">
        <ele>718</ele>
        <time>2026-05-15T13:06:00Z</time>
      </trkpt>
      <trkpt lat="43.84585" lon="6.51335">
        <ele>718</ele>
        <time>2026-05-15T13:06:01Z</time>
      </trkpt>
      <trkpt lat="43.84585" lon="6.51335">
        <ele>718</ele>
        <time>2026-05-15T13:06:02Z</time>
      </trkpt>
      <trkpt lat="43.84585" lon="6.51335">
        <ele>718</ele>
        <time>2026-05-15T13:06:03Z</time>
      </trkpt>
      <trkpt lat="43.84585" lon="6.51335">
        <ele>718</ele>
        <time>2026-05-15T13:06:04Z</time>
      </trkpt>
      <trkpt lat="43.84585" lon="6.51335">
        <ele>718</ele>
        <time>2026-05-15T13:06:05Z</time>
      </trkpt>
      <trkpt lat="43.84585" lon="6.51335">
        <ele>718</ele>
        <time>2026-05-15T13:06:06Z</time>
      </trkpt>
      <trkpt lat="43.84585" lon="6.51335">
        <ele>718</ele>
        <time>2026-05-15T13:06:07Z</time>
      </trkpt>
      <trkpt lat="43.84586" lon="6.51335">
        <ele>718</ele>
        <time>2026-05-15T13:06:08Z</time>
      </trkpt>
      <trkpt lat="43.84586" lon="6.51335">
        <ele>718</ele>
        <time>2026-05-15T13:06:09Z</time>
      </trkpt>
      <trkpt lat="43.84586" lon="6.51335">
        <ele>718</ele>
        <time>2026-05-15T13:06:10Z</time>
      </trkpt>
      <trkpt lat="43.84586" lon="6.51335">
        <ele>718</ele>
        <time>2026-05-15T13:06:11Z</time>
      </trkpt>
      <trkpt lat="43.84586" lon="6.51335">
        <ele>718</ele>
        <time>2026-05-15T13:06:12Z</time>
      </trkpt>
      <trkpt lat="43.84586" lon="6.51335">
        <ele>718</ele>
        <time>2026-05-15T13:06:13Z</time>
      </trkpt>
      <trkpt lat="43.84586" lon="6.51335">
        <ele>718</ele>
        <time>2026-05-15T13:06:14Z</time>
      </trkpt>
      <trkpt lat="43.84586" lon="6.51335">
        <ele>718</ele>
        <time>2026-05-15T13:06:15Z</time>
      </trkpt>
      <trkpt lat="43.84586" lon="6.51335">
        <ele>718</ele>
        <time>2026-05-15T13:06:16Z</time>
      </trkpt>
      <trkpt lat="43.84586" lon="6.51335">
        <ele>718</ele>
        <time>2026-05-15T13:06:17Z</time>
      </trkpt>
      <trkpt lat="43.84586" lon="6.51335">
        <ele>718</ele>
        <time>2026-05-15T13:06:18Z</time>
      </trkpt>
      <trkpt lat="43.84586" lon="6.51335">
        <ele>718</ele>
        <time>2026-05-15T13:06:19Z</time>
      </trkpt>
      <trkpt lat="43.84586" lon="6.51335">
        <ele>718</ele>
        <time>2026-05-15T13:06:20Z</time>
      </trkpt>
      <trkpt lat="43.84586" lon="6.51335">
        <ele>718</ele>
        <time>2026-05-15T13:06:21Z</time>
      </trkpt>
      <trkpt lat="43.84586" lon="6.51335">
        <ele>718</ele>
        <time>2026-05-15T13:06:22Z</time>
      </trkpt>
      <trkpt lat="43.84586" lon="6.51335">
        <ele>718</ele>
        <time>2026-05-15T13:06:23Z</time>
      </trkpt>
      <trkpt lat="43.84586" lon="6.51335">
        <ele>718</ele>
        <time>2026-05-15T13:06:24Z</time>
      </trkpt>
      <trkpt lat="43.84586" lon="6.51335">
        <ele>718</ele>
        <time>2026-05-15T13:06:25Z</time>
      </trkpt>
      <trkpt lat="43.84586" lon="6.51335">
        <ele>718</ele>
        <time>2026-05-15T13:06:26Z</time>
      </trkpt>
      <trkpt lat="43.84586" lon="6.51335">
        <ele>718</ele>
        <time>2026-05-15T13:06:27Z</time>
      </trkpt>
      <trkpt lat="43.84586" lon="6.51335">
        <ele>718</ele>
        <time>2026-05-15T13:06:28Z</time>
      </trkpt>
      <trkpt lat="43.84586" lon="6.51335">
        <ele>718</ele>
        <time>2026-05-15T13:06:29Z</time>
      </trkpt>
      <trkpt lat="43.84586" lon="6.51335">
        <ele>718</ele>
        <time>2026-05-15T13:06:30Z</time>
      </trkpt>
      <trkpt lat="43.84586" lon="6.51335">
        <ele>718</ele>
        <time>2026-05-15T13:06:31Z</time>
      </trkpt>
      <trkpt lat="43.84586" lon="6.51335">
        <ele>718</ele>
        <time>2026-05-15T13:06:32Z</time>
      </trkpt>
      <trkpt lat="43.84586" lon="6.51335">
        <ele>718</ele>
        <time>2026-05-15T13:06:33Z</time>
      </trkpt>
      <trkpt lat="43.84586" lon="6.51335">
        <ele>718</ele>
        <time>2026-05-15T13:06:34Z</time>
      </trkpt>
      <trkpt lat="43.84586" lon="6.51335">
        <ele>718</ele>
        <time>2026-05-15T13:06:35Z</time>
      </trkpt>
      <trkpt lat="43.84586" lon="6.51335">
        <ele>718</ele>
        <time>2026-05-15T13:06:36Z</time>
      </trkpt>
      <trkpt lat="43.84586" lon="6.51335">
        <ele>718</ele>
        <time>2026-05-15T13:06:37Z</time>
      </trkpt>
      <trkpt lat="43.84586" lon="6.51335">
        <ele>718</ele>
        <time>2026-05-15T13:06:38Z</time>
      </trkpt>
      <trkpt lat="43.84586" lon="6.51335">
        <ele>718</ele>
        <time>2026-05-15T13:06:39Z</time>
      </trkpt>
      <trkpt lat="43.84586" lon="6.51335">
        <ele>718</ele>
        <time>2026-05-15T13:06:40Z</time>
      </trkpt>
      <trkpt lat="43.84586" lon="6.51335">
        <ele>718</ele>
        <time>2026-05-15T13:06:41Z</time>
      </trkpt>
      <trkpt lat="43.84586" lon="6.51335">
        <ele>718</ele>
        <time>2026-05-15T13:06:42Z</time>
      </trkpt>
      <trkpt lat="43.84586" lon="6.51335">
        <ele>718</ele>
        <time>2026-05-15T13:06:43Z</time>
      </trkpt>
      <trkpt lat="43.84586" lon="6.51336">
        <ele>718</ele>
        <time>2026-05-15T13:06:44Z</time>
      </trkpt>
      <trkpt lat="43.84586" lon="6.51337">
        <ele>718</ele>
        <time>2026-05-15T13:06:45Z</time>
      </trkpt>
      <trkpt lat="43.84586" lon="6.5134">
        <ele>717.9</ele>
        <time>2026-05-15T13:06:46Z</time>
      </trkpt>
      <trkpt lat="43.84585" lon="6.51345">
        <ele>717.7</ele>
        <time>2026-05-15T13:06:47Z</time>
      </trkpt>
      <trkpt lat="43.84584" lon="6.51353">
        <ele>717.3</ele>
        <time>2026-05-15T13:06:48Z</time>
      </trkpt>
      <trkpt lat="43.84582" lon="6.51361">
        <ele>717</ele>
        <time>2026-05-15T13:06:49Z</time>
      </trkpt>
      <trkpt lat="43.84581" lon="6.51368">
        <ele>717</ele>
        <time>2026-05-15T13:06:50Z</time>
      </trkpt>
      <trkpt lat="43.8458" lon="6.51377">
        <ele>716.9</ele>
        <time>2026-05-15T13:06:51Z</time>
      </trkpt>
      <trkpt lat="43.84578" lon="6.51386">
        <ele>716.8</ele>
        <time>2026-05-15T13:06:52Z</time>
      </trkpt>
      <trkpt lat="43.84575" lon="6.51396">
        <ele>716.8</ele>
        <time>2026-05-15T13:06:53Z</time>
      </trkpt>
      <trkpt lat="43.84571" lon="6.51405">
        <ele>716.8</ele>
        <time>2026-05-15T13:06:54Z</time>
      </trkpt>
      <trkpt lat="43.84566" lon="6.51413">
        <ele>716.9</ele>
        <time>2026-05-15T13:06:55Z</time>
      </trkpt>
      <trkpt lat="43.8456" lon="6.51421">
        <ele>717.1</ele>
        <time>2026-05-15T13:06:56Z</time>
      </trkpt>
      <trkpt lat="43.84553" lon="6.51429">
        <ele>717.9</ele>
        <time>2026-05-15T13:06:57Z</time>
      </trkpt>
      <trkpt lat="43.84545" lon="6.51438">
        <ele>719.9</ele>
        <time>2026-05-15T13:06:58Z</time>
      </trkpt>
      <trkpt lat="43.84538" lon="6.51447">
        <ele>721.9</ele>
        <time>2026-05-15T13:06:59Z</time>
      </trkpt>
      <trkpt lat="43.84531" lon="6.51456">
        <ele>723.7</ele>
        <time>2026-05-15T13:07:00Z</time>
      </trkpt>
      <trkpt lat="43.84524" lon="6.51465">
        <ele>725.1</ele>
        <time>2026-05-15T13:07:01Z</time>
      </trkpt>
      <trkpt lat="43.84518" lon="6.51477">
        <ele>725.8</ele>
        <time>2026-05-15T13:07:02Z</time>
      </trkpt>
      <trkpt lat="43.84514" lon="6.51491">
        <ele>725.8</ele>
        <time>2026-05-15T13:07:03Z</time>
      </trkpt>
      <trkpt lat="43.84511" lon="6.51505">
        <ele>726.1</ele>
        <time>2026-05-15T13:07:04Z</time>
      </trkpt>
      <trkpt lat="43.84511" lon="6.51521">
        <ele>726.5</ele>
        <time>2026-05-15T13:07:05Z</time>
      </trkpt>
      <trkpt lat="43.84511" lon="6.51537">
        <ele>727</ele>
        <time>2026-05-15T13:07:06Z</time>
      </trkpt>
      <trkpt lat="43.84512" lon="6.51554">
        <ele>727.5</ele>
        <time>2026-05-15T13:07:07Z</time>
      </trkpt>
      <trkpt lat="43.84512" lon="6.51573">
        <ele>727.9</ele>
        <time>2026-05-15T13:07:08Z</time>
      </trkpt>
      <trkpt lat="43.84513" lon="6.51593">
        <ele>728</ele>
        <time>2026-05-15T13:07:09Z</time>
      </trkpt>
      <trkpt lat="43.84513" lon="6.51611">
        <ele>728.4</ele>
        <time>2026-05-15T13:07:10Z</time>
      </trkpt>
      <trkpt lat="43.84513" lon="6.51629">
        <ele>728.4</ele>
        <time>2026-05-15T13:07:11Z</time>
      </trkpt>
      <trkpt lat="43.84513" lon="6.51647">
        <ele>728</ele>
        <time>2026-05-15T13:07:12Z</time>
      </trkpt>
      <trkpt lat="43.84512" lon="6.51665">
        <ele>727.6</ele>
        <time>2026-05-15T13:07:13Z</time>
      </trkpt>
      <trkpt lat="43.84511" lon="6.51684">
        <ele>726.3</ele>
        <time>2026-05-15T13:07:14Z</time>
      </trkpt>
      <trkpt lat="43.84509" lon="6.51704">
        <ele>724.8</ele>
        <time>2026-05-15T13:07:15Z</time>
      </trkpt>
      <trkpt lat="43.84507" lon="6.51724">
        <ele>722.8</ele>
        <time>2026-05-15T13:07:16Z</time>
      </trkpt>
      <trkpt lat="43.84503" lon="6.51743">
        <ele>721.6</ele>
        <time>2026-05-15T13:07:17Z</time>
      </trkpt>
      <trkpt lat="43.84498" lon="6.51762">
        <ele>721.7</ele>
        <time>2026-05-15T13:07:18Z</time>
      </trkpt>
      <trkpt lat="43.84493" lon="6.51783">
        <ele>723</ele>
        <time>2026-05-15T13:07:19Z</time>
      </trkpt>
      <trkpt lat="43.84485" lon="6.51805">
        <ele>725</ele>
        <time>2026-05-15T13:07:20Z</time>
      </trkpt>
      <trkpt lat="43.84478" lon="6.5183">
        <ele>726.1</ele>
        <time>2026-05-15T13:07:21Z</time>
      </trkpt>
      <trkpt lat="43.84472" lon="6.51856">
        <ele>727.3</ele>
        <time>2026-05-15T13:07:22Z</time>
      </trkpt>
      <trkpt lat="43.84465" lon="6.51884">
        <ele>730.7</ele>
        <time>2026-05-15T13:07:23Z</time>
      </trkpt>
      <trkpt lat="43.84459" lon="6.51909">
        <ele>731.5</ele>
        <time>2026-05-15T13:07:24Z</time>
      </trkpt>
      <trkpt lat="43.84451" lon="6.51934">
        <ele>732</ele>
        <time>2026-05-15T13:07:25Z</time>
      </trkpt>
      <trkpt lat="43.84444" lon="6.51959">
        <ele>731.1</ele>
        <time>2026-05-15T13:07:26Z</time>
      </trkpt>
      <trkpt lat="43.84436" lon="6.51983">
        <ele>730.9</ele>
        <time>2026-05-15T13:07:27Z</time>
      </trkpt>
      <trkpt lat="43.8443" lon="6.52008">
        <ele>729.5</ele>
        <time>2026-05-15T13:07:28Z</time>
      </trkpt>
      <trkpt lat="43.84422" lon="6.52032">
        <ele>729.9</ele>
        <time>2026-05-15T13:07:29Z</time>
      </trkpt>
      <trkpt lat="43.84415" lon="6.52055">
        <ele>729.8</ele>
        <time>2026-05-15T13:07:30Z</time>
      </trkpt>
      <trkpt lat="43.84405" lon="6.52076">
        <ele>730.6</ele>
        <time>2026-05-15T13:07:31Z</time>
      </trkpt>
      <trkpt lat="43.84395" lon="6.52096">
        <ele>730.1</ele>
        <time>2026-05-15T13:07:32Z</time>
      </trkpt>
      <trkpt lat="43.84384" lon="6.52115">
        <ele>729.7</ele>
        <time>2026-05-15T13:07:33Z</time>
      </trkpt>
      <trkpt lat="43.84372" lon="6.52133">
        <ele>731.1</ele>
        <time>2026-05-15T13:07:34Z</time>
      </trkpt>
      <trkpt lat="43.8436" lon="6.5215">
        <ele>731.6</ele>
        <time>2026-05-15T13:07:35Z</time>
      </trkpt>
      <trkpt lat="43.84348" lon="6.52168">
        <ele>733.5</ele>
        <time>2026-05-15T13:07:36Z</time>
      </trkpt>
      <trkpt lat="43.84339" lon="6.52186">
        <ele>733.8</ele>
        <time>2026-05-15T13:07:37Z</time>
      </trkpt>
      <trkpt lat="43.84331" lon="6.52207">
        <ele>732.8</ele>
        <time>2026-05-15T13:07:38Z</time>
      </trkpt>
      <trkpt lat="43.84324" lon="6.52228">
        <ele>732.3</ele>
        <time>2026-05-15T13:07:39Z</time>
      </trkpt>
      <trkpt lat="43.84316" lon="6.5225">
        <ele>732.2</ele>
        <time>2026-05-15T13:07:40Z</time>
      </trkpt>
      <trkpt lat="43.8431" lon="6.52272">
        <ele>731.5</ele>
        <time>2026-05-15T13:07:41Z</time>
      </trkpt>
      <trkpt lat="43.84303" lon="6.52295">
        <ele>731.5</ele>
        <time>2026-05-15T13:07:42Z</time>
      </trkpt>
      <trkpt lat="43.84296" lon="6.52318">
        <ele>732.5</ele>
        <time>2026-05-15T13:07:43Z</time>
      </trkpt>
      <trkpt lat="43.84291" lon="6.52342">
        <ele>732.4</ele>
        <time>2026-05-15T13:07:44Z</time>
      </trkpt>
      <trkpt lat="43.84286" lon="6.52365">
        <ele>732</ele>
        <time>2026-05-15T13:07:45Z</time>
      </trkpt>
      <trkpt lat="43.84279" lon="6.52386">
        <ele>732</ele>
        <time>2026-05-15T13:07:46Z</time>
      </trkpt>
      <trkpt lat="43.84272" lon="6.52408">
        <ele>732.8</ele>
        <time>2026-05-15T13:07:47Z</time>
      </trkpt>
      <trkpt lat="43.84266" lon="6.52428">
        <ele>733.4</ele>
        <time>2026-05-15T13:07:48Z</time>
      </trkpt>
      <trkpt lat="43.84263" lon="6.52449">
        <ele>732</ele>
        <time>2026-05-15T13:07:49Z</time>
      </trkpt>
      <trkpt lat="43.8426" lon="6.52469">
        <ele>731.1</ele>
        <time>2026-05-15T13:07:50Z</time>
      </trkpt>
      <trkpt lat="43.84254" lon="6.52488">
        <ele>732</ele>
        <time>2026-05-15T13:07:51Z</time>
      </trkpt>
      <trkpt lat="43.84247" lon="6.52507">
        <ele>732.6</ele>
        <time>2026-05-15T13:07:52Z</time>
      </trkpt>
      <trkpt lat="43.84239" lon="6.52526">
        <ele>733.3</ele>
        <time>2026-05-15T13:07:53Z</time>
      </trkpt>
      <trkpt lat="43.8423" lon="6.52546">
        <ele>733.8</ele>
        <time>2026-05-15T13:07:54Z</time>
      </trkpt>
      <trkpt lat="43.84223" lon="6.52566">
        <ele>732.8</ele>
        <time>2026-05-15T13:07:55Z</time>
      </trkpt>
      <trkpt lat="43.84216" lon="6.52586">
        <ele>732.1</ele>
        <time>2026-05-15T13:07:56Z</time>
      </trkpt>
      <trkpt lat="43.84211" lon="6.52608">
        <ele>730.6</ele>
        <time>2026-05-15T13:07:57Z</time>
      </trkpt>
      <trkpt lat="43.84207" lon="6.52631">
        <ele>729.1</ele>
        <time>2026-05-15T13:07:58Z</time>
      </trkpt>
      <trkpt lat="43.84205" lon="6.52654">
        <ele>728.3</ele>
        <time>2026-05-15T13:07:59Z</time>
      </trkpt>
      <trkpt lat="43.84205" lon="6.52677">
        <ele>728.2</ele>
        <time>2026-05-15T13:08:00Z</time>
      </trkpt>
      <trkpt lat="43.84207" lon="6.527">
        <ele>728.6</ele>
        <time>2026-05-15T13:08:01Z</time>
      </trkpt>
      <trkpt lat="43.84211" lon="6.52723">
        <ele>729</ele>
        <time>2026-05-15T13:08:02Z</time>
      </trkpt>
      <trkpt lat="43.84216" lon="6.52746">
        <ele>729</ele>
        <time>2026-05-15T13:08:03Z</time>
      </trkpt>
      <trkpt lat="43.84221" lon="6.5277">
        <ele>729</ele>
        <time>2026-05-15T13:08:04Z</time>
      </trkpt>
      <trkpt lat="43.84227" lon="6.52793">
        <ele>729.5</ele>
        <time>2026-05-15T13:08:05Z</time>
      </trkpt>
      <trkpt lat="43.84233" lon="6.52816">
        <ele>730</ele>
        <time>2026-05-15T13:08:06Z</time>
      </trkpt>
      <trkpt lat="43.84239" lon="6.52839">
        <ele>730</ele>
        <time>2026-05-15T13:08:07Z</time>
      </trkpt>
      <trkpt lat="43.84245" lon="6.52863">
        <ele>730.1</ele>
        <time>2026-05-15T13:08:08Z</time>
      </trkpt>
      <trkpt lat="43.8425" lon="6.52887">
        <ele>730.9</ele>
        <time>2026-05-15T13:08:09Z</time>
      </trkpt>
      <trkpt lat="43.84257" lon="6.52912">
        <ele>730.7</ele>
        <time>2026-05-15T13:08:10Z</time>
      </trkpt>
      <trkpt lat="43.84265" lon="6.52939">
        <ele>730.9</ele>
        <time>2026-05-15T13:08:11Z</time>
      </trkpt>
      <trkpt lat="43.84272" lon="6.52967">
        <ele>731</ele>
        <time>2026-05-15T13:08:12Z</time>
      </trkpt>
      <trkpt lat="43.84279" lon="6.52995">
        <ele>731</ele>
        <time>2026-05-15T13:08:13Z</time>
      </trkpt>
      <trkpt lat="43.84286" lon="6.53024">
        <ele>731.6</ele>
        <time>2026-05-15T13:08:14Z</time>
      </trkpt>
      <trkpt lat="43.84292" lon="6.53053">
        <ele>732</ele>
        <time>2026-05-15T13:08:15Z</time>
      </trkpt>
      <trkpt lat="43.84299" lon="6.5308">
        <ele>732</ele>
        <time>2026-05-15T13:08:16Z</time>
      </trkpt>
      <trkpt lat="43.84304" lon="6.53106">
        <ele>732</ele>
        <time>2026-05-15T13:08:17Z</time>
      </trkpt>
      <trkpt lat="43.8431" lon="6.53131">
        <ele>732.1</ele>
        <time>2026-05-15T13:08:18Z</time>
      </trkpt>
      <trkpt lat="43.84315" lon="6.53154">
        <ele>732.7</ele>
        <time>2026-05-15T13:08:19Z</time>
      </trkpt>
      <trkpt lat="43.84321" lon="6.53177">
        <ele>733.2</ele>
        <time>2026-05-15T13:08:20Z</time>
      </trkpt>
      <trkpt lat="43.84326" lon="6.53196">
        <ele>733.3</ele>
        <time>2026-05-15T13:08:21Z</time>
      </trkpt>
      <trkpt lat="43.84329" lon="6.53212">
        <ele>733.7</ele>
        <time>2026-05-15T13:08:22Z</time>
      </trkpt>
      <trkpt lat="43.84333" lon="6.53227">
        <ele>734</ele>
        <time>2026-05-15T13:08:23Z</time>
      </trkpt>
      <trkpt lat="43.84337" lon="6.53243">
        <ele>734</ele>
        <time>2026-05-15T13:08:24Z</time>
      </trkpt>
      <trkpt lat="43.8434" lon="6.53259">
        <ele>734</ele>
        <time>2026-05-15T13:08:25Z</time>
      </trkpt>
      <trkpt lat="43.84345" lon="6.53277">
        <ele>734</ele>
        <time>2026-05-15T13:08:26Z</time>
      </trkpt>
      <trkpt lat="43.84349" lon="6.53296">
        <ele>734</ele>
        <time>2026-05-15T13:08:27Z</time>
      </trkpt>
      <trkpt lat="43.84354" lon="6.53315">
        <ele>734</ele>
        <time>2026-05-15T13:08:28Z</time>
      </trkpt>
      <trkpt lat="43.8436" lon="6.53335">
        <ele>734</ele>
        <time>2026-05-15T13:08:29Z</time>
      </trkpt>
      <trkpt lat="43.84365" lon="6.53354">
        <ele>734</ele>
        <time>2026-05-15T13:08:30Z</time>
      </trkpt>
      <trkpt lat="43.8437" lon="6.53375">
        <ele>734.5</ele>
        <time>2026-05-15T13:08:31Z</time>
      </trkpt>
      <trkpt lat="43.84374" lon="6.53396">
        <ele>735.4</ele>
        <time>2026-05-15T13:08:32Z</time>
      </trkpt>
      <trkpt lat="43.84377" lon="6.53416">
        <ele>736.4</ele>
        <time>2026-05-15T13:08:33Z</time>
      </trkpt>
      <trkpt lat="43.84369" lon="6.53434">
        <ele>739.2</ele>
        <time>2026-05-15T13:08:34Z</time>
      </trkpt>
      <trkpt lat="43.84362" lon="6.5345">
        <ele>742.3</ele>
        <time>2026-05-15T13:08:35Z</time>
      </trkpt>
      <trkpt lat="43.84352" lon="6.53465">
        <ele>745.3</ele>
        <time>2026-05-15T13:08:36Z</time>
      </trkpt>
      <trkpt lat="43.84341" lon="6.53479">
        <ele>747.3</ele>
        <time>2026-05-15T13:08:37Z</time>
      </trkpt>
      <trkpt lat="43.84331" lon="6.53495">
        <ele>750.3</ele>
        <time>2026-05-15T13:08:38Z</time>
      </trkpt>
      <trkpt lat="43.84319" lon="6.5351">
        <ele>751.4</ele>
        <time>2026-05-15T13:08:39Z</time>
      </trkpt>
      <trkpt lat="43.84307" lon="6.53527">
        <ele>753.1</ele>
        <time>2026-05-15T13:08:40Z</time>
      </trkpt>
      <trkpt lat="43.84295" lon="6.53543">
        <ele>753.6</ele>
        <time>2026-05-15T13:08:41Z</time>
      </trkpt>
      <trkpt lat="43.84282" lon="6.5356">
        <ele>753.2</ele>
        <time>2026-05-15T13:08:42Z</time>
      </trkpt>
      <trkpt lat="43.8427" lon="6.53577">
        <ele>752.4</ele>
        <time>2026-05-15T13:08:43Z</time>
      </trkpt>
      <trkpt lat="43.84259" lon="6.53595">
        <ele>751.6</ele>
        <time>2026-05-15T13:08:44Z</time>
      </trkpt>
      <trkpt lat="43.84251" lon="6.53617">
        <ele>752.2</ele>
        <time>2026-05-15T13:08:45Z</time>
      </trkpt>
      <trkpt lat="43.84244" lon="6.53639">
        <ele>753.5</ele>
        <time>2026-05-15T13:08:46Z</time>
      </trkpt>
      <trkpt lat="43.84237" lon="6.53664">
        <ele>755.3</ele>
        <time>2026-05-15T13:08:47Z</time>
      </trkpt>
      <trkpt lat="43.84231" lon="6.53688">
        <ele>757.8</ele>
        <time>2026-05-15T13:08:48Z</time>
      </trkpt>
      <trkpt lat="43.84225" lon="6.53713">
        <ele>759.6</ele>
        <time>2026-05-15T13:08:49Z</time>
      </trkpt>
      <trkpt lat="43.84218" lon="6.53739">
        <ele>761</ele>
        <time>2026-05-15T13:08:50Z</time>
      </trkpt>
      <trkpt lat="43.84211" lon="6.53765">
        <ele>761.6</ele>
        <time>2026-05-15T13:08:51Z</time>
      </trkpt>
      <trkpt lat="43.84205" lon="6.53791">
        <ele>761.9</ele>
        <time>2026-05-15T13:08:52Z</time>
      </trkpt>
      <trkpt lat="43.84203" lon="6.53818">
        <ele>763.3</ele>
        <time>2026-05-15T13:08:53Z</time>
      </trkpt>
      <trkpt lat="43.84202" lon="6.53846">
        <ele>764.3</ele>
        <time>2026-05-15T13:08:54Z</time>
      </trkpt>
      <trkpt lat="43.84204" lon="6.53873">
        <ele>764.9</ele>
        <time>2026-05-15T13:08:55Z</time>
      </trkpt>
      <trkpt lat="43.84206" lon="6.53898">
        <ele>764.1</ele>
        <time>2026-05-15T13:08:56Z</time>
      </trkpt>
      <trkpt lat="43.84208" lon="6.53919">
        <ele>763.2</ele>
        <time>2026-05-15T13:08:57Z</time>
      </trkpt>
      <trkpt lat="43.84211" lon="6.53936">
        <ele>762</ele>
        <time>2026-05-15T13:08:58Z</time>
      </trkpt>
      <trkpt lat="43.84218" lon="6.53947">
        <ele>762</ele>
        <time>2026-05-15T13:08:59Z</time>
      </trkpt>
      <trkpt lat="43.84224" lon="6.53956">
        <ele>762</ele>
        <time>2026-05-15T13:09:00Z</time>
      </trkpt>
      <trkpt lat="43.84235" lon="6.53949">
        <ele>764.3</ele>
        <time>2026-05-15T13:09:01Z</time>
      </trkpt>
      <trkpt lat="43.84243" lon="6.5394">
        <ele>766.6</ele>
        <time>2026-05-15T13:09:02Z</time>
      </trkpt>
      <trkpt lat="43.84252" lon="6.53929">
        <ele>769.3</ele>
        <time>2026-05-15T13:09:03Z</time>
      </trkpt>
      <trkpt lat="43.84262" lon="6.53917">
        <ele>771.8</ele>
        <time>2026-05-15T13:09:04Z</time>
      </trkpt>
      <trkpt lat="43.84274" lon="6.53909">
        <ele>773.8</ele>
        <time>2026-05-15T13:09:05Z</time>
      </trkpt>
      <trkpt lat="43.84288" lon="6.53905">
        <ele>775.8</ele>
        <time>2026-05-15T13:09:06Z</time>
      </trkpt>
      <trkpt lat="43.84302" lon="6.53904">
        <ele>777.4</ele>
        <time>2026-05-15T13:09:07Z</time>
      </trkpt>
      <trkpt lat="43.84318" lon="6.53912">
        <ele>778.8</ele>
        <time>2026-05-15T13:09:08Z</time>
      </trkpt>
      <trkpt lat="43.84334" lon="6.53923">
        <ele>780</ele>
        <time>2026-05-15T13:09:09Z</time>
      </trkpt>
      <trkpt lat="43.84349" lon="6.53935">
        <ele>781.3</ele>
        <time>2026-05-15T13:09:10Z</time>
      </trkpt>
      <trkpt lat="43.84363" lon="6.53951">
        <ele>782.5</ele>
        <time>2026-05-15T13:09:11Z</time>
      </trkpt>
      <trkpt lat="43.84374" lon="6.53969">
        <ele>782.5</ele>
        <time>2026-05-15T13:09:12Z</time>
      </trkpt>
      <trkpt lat="43.84383" lon="6.5399">
        <ele>784.3</ele>
        <time>2026-05-15T13:09:13Z</time>
      </trkpt>
      <trkpt lat="43.84387" lon="6.54013">
        <ele>786.4</ele>
        <time>2026-05-15T13:09:14Z</time>
      </trkpt>
      <trkpt lat="43.84387" lon="6.54038">
        <ele>787.5</ele>
        <time>2026-05-15T13:09:15Z</time>
      </trkpt>
      <trkpt lat="43.84388" lon="6.54063">
        <ele>788</ele>
        <time>2026-05-15T13:09:16Z</time>
      </trkpt>
      <trkpt lat="43.8439" lon="6.54088">
        <ele>789.1</ele>
        <time>2026-05-15T13:09:17Z</time>
      </trkpt>
      <trkpt lat="43.84394" lon="6.54112">
        <ele>789.5</ele>
        <time>2026-05-15T13:09:18Z</time>
      </trkpt>
      <trkpt lat="43.844" lon="6.54135">
        <ele>792.1</ele>
        <time>2026-05-15T13:09:19Z</time>
      </trkpt>
      <trkpt lat="43.84406" lon="6.54156">
        <ele>794.3</ele>
        <time>2026-05-15T13:09:20Z</time>
      </trkpt>
      <trkpt lat="43.84409" lon="6.54176">
        <ele>795.9</ele>
        <time>2026-05-15T13:09:21Z</time>
      </trkpt>
      <trkpt lat="43.84409" lon="6.54196">
        <ele>796.7</ele>
        <time>2026-05-15T13:09:22Z</time>
      </trkpt>
      <trkpt lat="43.84406" lon="6.54216">
        <ele>797.6</ele>
        <time>2026-05-15T13:09:23Z</time>
      </trkpt>
      <trkpt lat="43.84401" lon="6.54235">
        <ele>798.5</ele>
        <time>2026-05-15T13:09:24Z</time>
      </trkpt>
      <trkpt lat="43.84395" lon="6.54255">
        <ele>799.7</ele>
        <time>2026-05-15T13:09:25Z</time>
      </trkpt>
      <trkpt lat="43.84389" lon="6.54275">
        <ele>800.6</ele>
        <time>2026-05-15T13:09:26Z</time>
      </trkpt>
      <trkpt lat="43.84383" lon="6.54293">
        <ele>801.8</ele>
        <time>2026-05-15T13:09:27Z</time>
      </trkpt>
      <trkpt lat="43.84375" lon="6.5431">
        <ele>802.8</ele>
        <time>2026-05-15T13:09:28Z</time>
      </trkpt>
      <trkpt lat="43.84366" lon="6.54324">
        <ele>803.4</ele>
        <time>2026-05-15T13:09:29Z</time>
      </trkpt>
      <trkpt lat="43.84359" lon="6.54337">
        <ele>804.1</ele>
        <time>2026-05-15T13:09:30Z</time>
      </trkpt>
      <trkpt lat="43.84353" lon="6.5435">
        <ele>804.8</ele>
        <time>2026-05-15T13:09:31Z</time>
      </trkpt>
      <trkpt lat="43.8435" lon="6.54365">
        <ele>805.9</ele>
        <time>2026-05-15T13:09:32Z</time>
      </trkpt>
      <trkpt lat="43.84349" lon="6.54382">
        <ele>807</ele>
        <time>2026-05-15T13:09:33Z</time>
      </trkpt>
      <trkpt lat="43.84349" lon="6.54401">
        <ele>808.9</ele>
        <time>2026-05-15T13:09:34Z</time>
      </trkpt>
      <trkpt lat="43.84348" lon="6.54421">
        <ele>810.9</ele>
        <time>2026-05-15T13:09:35Z</time>
      </trkpt>
      <trkpt lat="43.84346" lon="6.5444">
        <ele>812.9</ele>
        <time>2026-05-15T13:09:36Z</time>
      </trkpt>
      <trkpt lat="43.84345" lon="6.54457">
        <ele>815</ele>
        <time>2026-05-15T13:09:37Z</time>
      </trkpt>
      <trkpt lat="43.84341" lon="6.54475">
        <ele>816.2</ele>
        <time>2026-05-15T13:09:38Z</time>
      </trkpt>
      <trkpt lat="43.84334" lon="6.5449">
        <ele>816.4</ele>
        <time>2026-05-15T13:09:39Z</time>
      </trkpt>
      <trkpt lat="43.84324" lon="6.54502">
        <ele>816</ele>
        <time>2026-05-15T13:09:40Z</time>
      </trkpt>
      <trkpt lat="43.84314" lon="6.54513">
        <ele>815.5</ele>
        <time>2026-05-15T13:09:41Z</time>
      </trkpt>
      <trkpt lat="43.84304" lon="6.54526">
        <ele>815.3</ele>
        <time>2026-05-15T13:09:42Z</time>
      </trkpt>
      <trkpt lat="43.84296" lon="6.54541">
        <ele>816.2</ele>
        <time>2026-05-15T13:09:43Z</time>
      </trkpt>
      <trkpt lat="43.84288" lon="6.54558">
        <ele>817</ele>
        <time>2026-05-15T13:09:44Z</time>
      </trkpt>
      <trkpt lat="43.84281" lon="6.54575">
        <ele>817.8</ele>
        <time>2026-05-15T13:09:45Z</time>
      </trkpt>
      <trkpt lat="43.84275" lon="6.54594">
        <ele>818.5</ele>
        <time>2026-05-15T13:09:46Z</time>
      </trkpt>
      <trkpt lat="43.8427" lon="6.54613">
        <ele>819.3</ele>
        <time>2026-05-15T13:09:47Z</time>
      </trkpt>
      <trkpt lat="43.84268" lon="6.54632">
        <ele>821.1</ele>
        <time>2026-05-15T13:09:48Z</time>
      </trkpt>
      <trkpt lat="43.84267" lon="6.54648">
        <ele>823.2</ele>
        <time>2026-05-15T13:09:49Z</time>
      </trkpt>
      <trkpt lat="43.84265" lon="6.54663">
        <ele>825.5</ele>
        <time>2026-05-15T13:09:50Z</time>
      </trkpt>
      <trkpt lat="43.84262" lon="6.54677">
        <ele>827.4</ele>
        <time>2026-05-15T13:09:51Z</time>
      </trkpt>
      <trkpt lat="43.8426" lon="6.5469">
        <ele>829.3</ele>
        <time>2026-05-15T13:09:52Z</time>
      </trkpt>
      <trkpt lat="43.84258" lon="6.54702">
        <ele>830.8</ele>
        <time>2026-05-15T13:09:53Z</time>
      </trkpt>
      <trkpt lat="43.84255" lon="6.54712">
        <ele>831.8</ele>
        <time>2026-05-15T13:09:54Z</time>
      </trkpt>
      <trkpt lat="43.8425" lon="6.54719">
        <ele>832.5</ele>
        <time>2026-05-15T13:09:55Z</time>
      </trkpt>
      <trkpt lat="43.84243" lon="6.54723">
        <ele>834.1</ele>
        <time>2026-05-15T13:09:56Z</time>
      </trkpt>
      <trkpt lat="43.84235" lon="6.54722">
        <ele>835.1</ele>
        <time>2026-05-15T13:09:57Z</time>
      </trkpt>
      <trkpt lat="43.84228" lon="6.54715">
        <ele>835.1</ele>
        <time>2026-05-15T13:09:58Z</time>
      </trkpt>
      <trkpt lat="43.84224" lon="6.54704">
        <ele>834.1</ele>
        <time>2026-05-15T13:09:59Z</time>
      </trkpt>
      <trkpt lat="43.84219" lon="6.5469">
        <ele>833</ele>
        <time>2026-05-15T13:10:00Z</time>
      </trkpt>
      <trkpt lat="43.84212" lon="6.54676">
        <ele>832.5</ele>
        <time>2026-05-15T13:10:01Z</time>
      </trkpt>
      <trkpt lat="43.84202" lon="6.54662">
        <ele>833.1</ele>
        <time>2026-05-15T13:10:02Z</time>
      </trkpt>
      <trkpt lat="43.84191" lon="6.54644">
        <ele>833.8</ele>
        <time>2026-05-15T13:10:03Z</time>
      </trkpt>
      <trkpt lat="43.84181" lon="6.54626">
        <ele>834.7</ele>
        <time>2026-05-15T13:10:04Z</time>
      </trkpt>
      <trkpt lat="43.84176" lon="6.54606">
        <ele>834.2</ele>
        <time>2026-05-15T13:10:05Z</time>
      </trkpt>
      <trkpt lat="43.84173" lon="6.54586">
        <ele>833.7</ele>
        <time>2026-05-15T13:10:06Z</time>
      </trkpt>
      <trkpt lat="43.84166" lon="6.5457">
        <ele>834.8</ele>
        <time>2026-05-15T13:10:07Z</time>
      </trkpt>
      <trkpt lat="43.84159" lon="6.54554">
        <ele>835</ele>
        <time>2026-05-15T13:10:08Z</time>
      </trkpt>
      <trkpt lat="43.84149" lon="6.54544">
        <ele>835.9</ele>
        <time>2026-05-15T13:10:09Z</time>
      </trkpt>
      <trkpt lat="43.84135" lon="6.54539">
        <ele>838.3</ele>
        <time>2026-05-15T13:10:10Z</time>
      </trkpt>
      <trkpt lat="43.84112" lon="6.5454">
        <ele>843.9</ele>
        <time>2026-05-15T13:10:11Z</time>
      </trkpt>
      <trkpt lat="43.84095" lon="6.54533">
        <ele>846.6</ele>
        <time>2026-05-15T13:10:12Z</time>
      </trkpt>
      <trkpt lat="43.8408" lon="6.54524">
        <ele>847.6</ele>
        <time>2026-05-15T13:10:13Z</time>
      </trkpt>
      <trkpt lat="43.84066" lon="6.54512">
        <ele>847</ele>
        <time>2026-05-15T13:10:14Z</time>
      </trkpt>
      <trkpt lat="43.84052" lon="6.54501">
        <ele>846.3</ele>
        <time>2026-05-15T13:10:15Z</time>
      </trkpt>
      <trkpt lat="43.84037" lon="6.54492">
        <ele>846.8</ele>
        <time>2026-05-15T13:10:16Z</time>
      </trkpt>
      <trkpt lat="43.84023" lon="6.54484">
        <ele>847.1</ele>
        <time>2026-05-15T13:10:17Z</time>
      </trkpt>
      <trkpt lat="43.84008" lon="6.54479">
        <ele>847.6</ele>
        <time>2026-05-15T13:10:18Z</time>
      </trkpt>
      <trkpt lat="43.83993" lon="6.54476">
        <ele>847.9</ele>
        <time>2026-05-15T13:10:19Z</time>
      </trkpt>
      <trkpt lat="43.83979" lon="6.54477">
        <ele>849</ele>
        <time>2026-05-15T13:10:20Z</time>
      </trkpt>
      <trkpt lat="43.83964" lon="6.5448">
        <ele>850.3</ele>
        <time>2026-05-15T13:10:21Z</time>
      </trkpt>
      <trkpt lat="43.8395" lon="6.54485">
        <ele>851.8</ele>
        <time>2026-05-15T13:10:22Z</time>
      </trkpt>
      <trkpt lat="43.83936" lon="6.54494">
        <ele>854.6</ele>
        <time>2026-05-15T13:10:23Z</time>
      </trkpt>
      <trkpt lat="43.83922" lon="6.54506">
        <ele>858.3</ele>
        <time>2026-05-15T13:10:24Z</time>
      </trkpt>
      <trkpt lat="43.83908" lon="6.5452">
        <ele>861.9</ele>
        <time>2026-05-15T13:10:25Z</time>
      </trkpt>
      <trkpt lat="43.83892" lon="6.54533">
        <ele>864</ele>
        <time>2026-05-15T13:10:26Z</time>
      </trkpt>
      <trkpt lat="43.83875" lon="6.54544">
        <ele>864.7</ele>
        <time>2026-05-15T13:10:27Z</time>
      </trkpt>
      <trkpt lat="43.83857" lon="6.54555">
        <ele>864.7</ele>
        <time>2026-05-15T13:10:28Z</time>
      </trkpt>
      <trkpt lat="43.8384" lon="6.54565">
        <ele>863.8</ele>
        <time>2026-05-15T13:10:29Z</time>
      </trkpt>
      <trkpt lat="43.83823" lon="6.54577">
        <ele>863.3</ele>
        <time>2026-05-15T13:10:30Z</time>
      </trkpt>
      <trkpt lat="43.83806" lon="6.54591">
        <ele>863.6</ele>
        <time>2026-05-15T13:10:31Z</time>
      </trkpt>
      <trkpt lat="43.83789" lon="6.54605">
        <ele>865.5</ele>
        <time>2026-05-15T13:10:32Z</time>
      </trkpt>
      <trkpt lat="43.83772" lon="6.54618">
        <ele>868.5</ele>
        <time>2026-05-15T13:10:33Z</time>
      </trkpt>
      <trkpt lat="43.83755" lon="6.54628">
        <ele>871.2</ele>
        <time>2026-05-15T13:10:34Z</time>
      </trkpt>
      <trkpt lat="43.83739" lon="6.54635">
        <ele>872.7</ele>
        <time>2026-05-15T13:10:35Z</time>
      </trkpt>
      <trkpt lat="43.83721" lon="6.54637">
        <ele>872.1</ele>
        <time>2026-05-15T13:10:36Z</time>
      </trkpt>
      <trkpt lat="43.83703" lon="6.54637">
        <ele>870.2</ele>
        <time>2026-05-15T13:10:37Z</time>
      </trkpt>
      <trkpt lat="43.83687" lon="6.54637">
        <ele>868.2</ele>
        <time>2026-05-15T13:10:38Z</time>
      </trkpt>
      <trkpt lat="43.83672" lon="6.54641">
        <ele>867.5</ele>
        <time>2026-05-15T13:10:39Z</time>
      </trkpt>
      <trkpt lat="43.83658" lon="6.54649">
        <ele>867.2</ele>
        <time>2026-05-15T13:10:40Z</time>
      </trkpt>
      <trkpt lat="43.83645" lon="6.54661">
        <ele>867.3</ele>
        <time>2026-05-15T13:10:41Z</time>
      </trkpt>
      <trkpt lat="43.83637" lon="6.54676">
        <ele>869.4</ele>
        <time>2026-05-15T13:10:42Z</time>
      </trkpt>
      <trkpt lat="43.83632" lon="6.54691">
        <ele>872.4</ele>
        <time>2026-05-15T13:10:43Z</time>
      </trkpt>
      <trkpt lat="43.83629" lon="6.54706">
        <ele>875.5</ele>
        <time>2026-05-15T13:10:44Z</time>
      </trkpt>
      <trkpt lat="43.83625" lon="6.54719">
        <ele>877.6</ele>
        <time>2026-05-15T13:10:45Z</time>
      </trkpt>
      <trkpt lat="43.83617" lon="6.54728">
        <ele>877.7</ele>
        <time>2026-05-15T13:10:46Z</time>
      </trkpt>
      <trkpt lat="43.83607" lon="6.54732">
        <ele>876.6</ele>
        <time>2026-05-15T13:10:47Z</time>
      </trkpt>
      <trkpt lat="43.83596" lon="6.54732">
        <ele>875</ele>
        <time>2026-05-15T13:10:48Z</time>
      </trkpt>
      <trkpt lat="43.83584" lon="6.5473">
        <ele>872.5</ele>
        <time>2026-05-15T13:10:49Z</time>
      </trkpt>
      <trkpt lat="43.8357" lon="6.54728">
        <ele>872.1</ele>
        <time>2026-05-15T13:10:50Z</time>
      </trkpt>
      <trkpt lat="43.83556" lon="6.5473">
        <ele>873.6</ele>
        <time>2026-05-15T13:10:51Z</time>
      </trkpt>
      <trkpt lat="43.83542" lon="6.54733">
        <ele>875.3</ele>
        <time>2026-05-15T13:10:52Z</time>
      </trkpt>
      <trkpt lat="43.83529" lon="6.5474">
        <ele>878.7</ele>
        <time>2026-05-15T13:10:53Z</time>
      </trkpt>
      <trkpt lat="43.83516" lon="6.5475">
        <ele>880.9</ele>
        <time>2026-05-15T13:10:54Z</time>
      </trkpt>
      <trkpt lat="43.83503" lon="6.54763">
        <ele>883.8</ele>
        <time>2026-05-15T13:10:55Z</time>
      </trkpt>
      <trkpt lat="43.83491" lon="6.54778">
        <ele>885.8</ele>
        <time>2026-05-15T13:10:56Z</time>
      </trkpt>
      <trkpt lat="43.83481" lon="6.54795">
        <ele>887.7</ele>
        <time>2026-05-15T13:10:57Z</time>
      </trkpt>
      <trkpt lat="43.83471" lon="6.54814">
        <ele>889.6</ele>
        <time>2026-05-15T13:10:58Z</time>
      </trkpt>
      <trkpt lat="43.83462" lon="6.54831">
        <ele>890</ele>
        <time>2026-05-15T13:10:59Z</time>
      </trkpt>
      <trkpt lat="43.83453" lon="6.54849">
        <ele>891.2</ele>
        <time>2026-05-15T13:11:00Z</time>
      </trkpt>
      <trkpt lat="43.83446" lon="6.54865">
        <ele>892.9</ele>
        <time>2026-05-15T13:11:01Z</time>
      </trkpt>
      <trkpt lat="43.83439" lon="6.5488">
        <ele>895.3</ele>
        <time>2026-05-15T13:11:02Z</time>
      </trkpt>
      <trkpt lat="43.8343" lon="6.54892">
        <ele>896.4</ele>
        <time>2026-05-15T13:11:03Z</time>
      </trkpt>
      <trkpt lat="43.83419" lon="6.549">
        <ele>896.1</ele>
        <time>2026-05-15T13:11:04Z</time>
      </trkpt>
      <trkpt lat="43.83406" lon="6.54902">
        <ele>894.8</ele>
        <time>2026-05-15T13:11:05Z</time>
      </trkpt>
      <trkpt lat="43.83392" lon="6.54904">
        <ele>893.9</ele>
        <time>2026-05-15T13:11:06Z</time>
      </trkpt>
      <trkpt lat="43.83377" lon="6.5491">
        <ele>894.5</ele>
        <time>2026-05-15T13:11:07Z</time>
      </trkpt>
      <trkpt lat="43.83362" lon="6.5492">
        <ele>896.4</ele>
        <time>2026-05-15T13:11:08Z</time>
      </trkpt>
      <trkpt lat="43.83348" lon="6.54933">
        <ele>898.8</ele>
        <time>2026-05-15T13:11:09Z</time>
      </trkpt>
      <trkpt lat="43.83333" lon="6.54948">
        <ele>901.1</ele>
        <time>2026-05-15T13:11:10Z</time>
      </trkpt>
      <trkpt lat="43.8332" lon="6.54963">
        <ele>902.3</ele>
        <time>2026-05-15T13:11:11Z</time>
      </trkpt>
      <trkpt lat="43.83307" lon="6.54981">
        <ele>904</ele>
        <time>2026-05-15T13:11:12Z</time>
      </trkpt>
      <trkpt lat="43.83295" lon="6.54999">
        <ele>905.3</ele>
        <time>2026-05-15T13:11:13Z</time>
      </trkpt>
      <trkpt lat="43.83281" lon="6.55014">
        <ele>905.5</ele>
        <time>2026-05-15T13:11:14Z</time>
      </trkpt>
      <trkpt lat="43.83266" lon="6.55027">
        <ele>905.8</ele>
        <time>2026-05-15T13:11:15Z</time>
      </trkpt>
      <trkpt lat="43.8325" lon="6.55038">
        <ele>905.7</ele>
        <time>2026-05-15T13:11:16Z</time>
      </trkpt>
      <trkpt lat="43.83233" lon="6.55049">
        <ele>904.3</ele>
        <time>2026-05-15T13:11:17Z</time>
      </trkpt>
      <trkpt lat="43.83217" lon="6.5506">
        <ele>902.4</ele>
        <time>2026-05-15T13:11:18Z</time>
      </trkpt>
      <trkpt lat="43.83201" lon="6.55072">
        <ele>900.4</ele>
        <time>2026-05-15T13:11:19Z</time>
      </trkpt>
      <trkpt lat="43.83186" lon="6.55083">
        <ele>898.8</ele>
        <time>2026-05-15T13:11:20Z</time>
      </trkpt>
      <trkpt lat="43.83173" lon="6.55096">
        <ele>899.3</ele>
        <time>2026-05-15T13:11:21Z</time>
      </trkpt>
      <trkpt lat="43.83161" lon="6.55111">
        <ele>900.9</ele>
        <time>2026-05-15T13:11:22Z</time>
      </trkpt>
      <trkpt lat="43.83151" lon="6.55127">
        <ele>904</ele>
        <time>2026-05-15T13:11:23Z</time>
      </trkpt>
      <trkpt lat="43.83141" lon="6.55142">
        <ele>906.8</ele>
        <time>2026-05-15T13:11:24Z</time>
      </trkpt>
      <trkpt lat="43.83132" lon="6.55156">
        <ele>909.5</ele>
        <time>2026-05-15T13:11:25Z</time>
      </trkpt>
      <trkpt lat="43.83125" lon="6.55171">
        <ele>913</ele>
        <time>2026-05-15T13:11:26Z</time>
      </trkpt>
      <trkpt lat="43.8312" lon="6.55188">
        <ele>915.8</ele>
        <time>2026-05-15T13:11:27Z</time>
      </trkpt>
      <trkpt lat="43.83119" lon="6.55207">
        <ele>917.6</ele>
        <time>2026-05-15T13:11:28Z</time>
      </trkpt>
      <trkpt lat="43.83121" lon="6.55227">
        <ele>918.7</ele>
        <time>2026-05-15T13:11:29Z</time>
      </trkpt>
      <trkpt lat="43.83123" lon="6.55249">
        <ele>918.9</ele>
        <time>2026-05-15T13:11:30Z</time>
      </trkpt>
      <trkpt lat="43.83126" lon="6.55272">
        <ele>918.7</ele>
        <time>2026-05-15T13:11:31Z</time>
      </trkpt>
      <trkpt lat="43.83128" lon="6.55297">
        <ele>918</ele>
        <time>2026-05-15T13:11:32Z</time>
      </trkpt>
      <trkpt lat="43.83131" lon="6.55322">
        <ele>918</ele>
        <time>2026-05-15T13:11:33Z</time>
      </trkpt>
      <trkpt lat="43.83132" lon="6.55349">
        <ele>918.2</ele>
        <time>2026-05-15T13:11:34Z</time>
      </trkpt>
      <trkpt lat="43.83131" lon="6.55374">
        <ele>918.9</ele>
        <time>2026-05-15T13:11:35Z</time>
      </trkpt>
      <trkpt lat="43.83128" lon="6.55398">
        <ele>919.9</ele>
        <time>2026-05-15T13:11:36Z</time>
      </trkpt>
      <trkpt lat="43.83125" lon="6.55417">
        <ele>920.5</ele>
        <time>2026-05-15T13:11:37Z</time>
      </trkpt>
      <trkpt lat="43.83122" lon="6.55435">
        <ele>920.8</ele>
        <time>2026-05-15T13:11:38Z</time>
      </trkpt>
      <trkpt lat="43.83119" lon="6.55451">
        <ele>921</ele>
        <time>2026-05-15T13:11:39Z</time>
      </trkpt>
      <trkpt lat="43.83115" lon="6.55467">
        <ele>920.8</ele>
        <time>2026-05-15T13:11:40Z</time>
      </trkpt>
      <trkpt lat="43.83111" lon="6.55482">
        <ele>920.7</ele>
        <time>2026-05-15T13:11:41Z</time>
      </trkpt>
      <trkpt lat="43.83106" lon="6.55497">
        <ele>920.7</ele>
        <time>2026-05-15T13:11:42Z</time>
      </trkpt>
      <trkpt lat="43.83102" lon="6.5551">
        <ele>920.8</ele>
        <time>2026-05-15T13:11:43Z</time>
      </trkpt>
      <trkpt lat="43.83098" lon="6.55523">
        <ele>920.8</ele>
        <time>2026-05-15T13:11:44Z</time>
      </trkpt>
      <trkpt lat="43.83095" lon="6.55536">
        <ele>921.3</ele>
        <time>2026-05-15T13:11:45Z</time>
      </trkpt>
      <trkpt lat="43.83091" lon="6.55547">
        <ele>921.5</ele>
        <time>2026-05-15T13:11:46Z</time>
      </trkpt>
      <trkpt lat="43.83089" lon="6.55557">
        <ele>922.2</ele>
        <time>2026-05-15T13:11:47Z</time>
      </trkpt>
      <trkpt lat="43.83086" lon="6.55566">
        <ele>922.6</ele>
        <time>2026-05-15T13:11:48Z</time>
      </trkpt>
      <trkpt lat="43.83083" lon="6.55576">
        <ele>923.2</ele>
        <time>2026-05-15T13:11:49Z</time>
      </trkpt>
      <trkpt lat="43.8308" lon="6.55586">
        <ele>923.8</ele>
        <time>2026-05-15T13:11:50Z</time>
      </trkpt>
      <trkpt lat="43.83077" lon="6.55596">
        <ele>924.4</ele>
        <time>2026-05-15T13:11:51Z</time>
      </trkpt>
      <trkpt lat="43.83074" lon="6.55607">
        <ele>924.9</ele>
        <time>2026-05-15T13:11:52Z</time>
      </trkpt>
      <trkpt lat="43.83071" lon="6.55619">
        <ele>925.5</ele>
        <time>2026-05-15T13:11:53Z</time>
      </trkpt>
      <trkpt lat="43.83068" lon="6.55631">
        <ele>926.1</ele>
        <time>2026-05-15T13:11:54Z</time>
      </trkpt>
      <trkpt lat="43.83064" lon="6.55644">
        <ele>926.6</ele>
        <time>2026-05-15T13:11:55Z</time>
      </trkpt>
      <trkpt lat="43.8306" lon="6.55657">
        <ele>927</ele>
        <time>2026-05-15T13:11:56Z</time>
      </trkpt>
      <trkpt lat="43.83057" lon="6.55672">
        <ele>927.5</ele>
        <time>2026-05-15T13:11:57Z</time>
      </trkpt>
      <trkpt lat="43.83055" lon="6.55688">
        <ele>927.7</ele>
        <time>2026-05-15T13:11:58Z</time>
      </trkpt>
      <trkpt lat="43.83053" lon="6.55703">
        <ele>927.9</ele>
        <time>2026-05-15T13:11:59Z</time>
      </trkpt>
      <trkpt lat="43.83052" lon="6.55718">
        <ele>928.3</ele>
        <time>2026-05-15T13:12:00Z</time>
      </trkpt>
      <trkpt lat="43.8305" lon="6.55734">
        <ele>928.6</ele>
        <time>2026-05-15T13:12:01Z</time>
      </trkpt>
      <trkpt lat="43.83049" lon="6.5575">
        <ele>929.1</ele>
        <time>2026-05-15T13:12:02Z</time>
      </trkpt>
      <trkpt lat="43.83048" lon="6.55766">
        <ele>929.3</ele>
        <time>2026-05-15T13:12:03Z</time>
      </trkpt>
      <trkpt lat="43.83046" lon="6.55782">
        <ele>929.4</ele>
        <time>2026-05-15T13:12:04Z</time>
      </trkpt>
      <trkpt lat="43.83044" lon="6.55799">
        <ele>929.4</ele>
        <time>2026-05-15T13:12:05Z</time>
      </trkpt>
      <trkpt lat="43.83042" lon="6.55816">
        <ele>929.4</ele>
        <time>2026-05-15T13:12:06Z</time>
      </trkpt>
      <trkpt lat="43.83039" lon="6.55833">
        <ele>929.4</ele>
        <time>2026-05-15T13:12:07Z</time>
      </trkpt>
      <trkpt lat="43.83037" lon="6.5585">
        <ele>929.8</ele>
        <time>2026-05-15T13:12:08Z</time>
      </trkpt>
      <trkpt lat="43.83034" lon="6.55866">
        <ele>929.6</ele>
        <time>2026-05-15T13:12:09Z</time>
      </trkpt>
      <trkpt lat="43.83031" lon="6.55883">
        <ele>929</ele>
        <time>2026-05-15T13:12:10Z</time>
      </trkpt>
      <trkpt lat="43.8303" lon="6.55901">
        <ele>929.1</ele>
        <time>2026-05-15T13:12:11Z</time>
      </trkpt>
      <trkpt lat="43.8303" lon="6.55919">
        <ele>929.6</ele>
        <time>2026-05-15T13:12:12Z</time>
      </trkpt>
      <trkpt lat="43.83031" lon="6.55937">
        <ele>929.3</ele>
        <time>2026-05-15T13:12:13Z</time>
      </trkpt>
      <trkpt lat="43.83032" lon="6.55957">
        <ele>928.4</ele>
        <time>2026-05-15T13:12:14Z</time>
      </trkpt>
      <trkpt lat="43.83035" lon="6.55977">
        <ele>927.8</ele>
        <time>2026-05-15T13:12:15Z</time>
      </trkpt>
      <trkpt lat="43.83036" lon="6.55997">
        <ele>926.9</ele>
        <time>2026-05-15T13:12:16Z</time>
      </trkpt>
      <trkpt lat="43.83037" lon="6.56018">
        <ele>924.8</ele>
        <time>2026-05-15T13:12:17Z</time>
      </trkpt>
      <trkpt lat="43.83039" lon="6.56039">
        <ele>923.3</ele>
        <time>2026-05-15T13:12:18Z</time>
      </trkpt>
      <trkpt lat="43.8304" lon="6.56059">
        <ele>922.1</ele>
        <time>2026-05-15T13:12:19Z</time>
      </trkpt>
      <trkpt lat="43.83041" lon="6.56078">
        <ele>921.2</ele>
        <time>2026-05-15T13:12:20Z</time>
      </trkpt>
      <trkpt lat="43.83043" lon="6.56098">
        <ele>920.8</ele>
        <time>2026-05-15T13:12:21Z</time>
      </trkpt>
      <trkpt lat="43.83044" lon="6.56117">
        <ele>920.9</ele>
        <time>2026-05-15T13:12:22Z</time>
      </trkpt>
      <trkpt lat="43.83045" lon="6.56136">
        <ele>921.9</ele>
        <time>2026-05-15T13:12:23Z</time>
      </trkpt>
      <trkpt lat="43.83045" lon="6.56155">
        <ele>923.2</ele>
        <time>2026-05-15T13:12:24Z</time>
      </trkpt>
      <trkpt lat="43.83045" lon="6.56175">
        <ele>924.6</ele>
        <time>2026-05-15T13:12:25Z</time>
      </trkpt>
      <trkpt lat="43.83044" lon="6.56194">
        <ele>926</ele>
        <time>2026-05-15T13:12:26Z</time>
      </trkpt>
      <trkpt lat="43.8304" lon="6.56213">
        <ele>927</ele>
        <time>2026-05-15T13:12:27Z</time>
      </trkpt>
      <trkpt lat="43.83034" lon="6.56231">
        <ele>928.1</ele>
        <time>2026-05-15T13:12:28Z</time>
      </trkpt>
      <trkpt lat="43.83027" lon="6.56247">
        <ele>929.7</ele>
        <time>2026-05-15T13:12:29Z</time>
      </trkpt>
      <trkpt lat="43.83018" lon="6.56262">
        <ele>931</ele>
        <time>2026-05-15T13:12:30Z</time>
      </trkpt>
      <trkpt lat="43.83008" lon="6.56276">
        <ele>932.5</ele>
        <time>2026-05-15T13:12:31Z</time>
      </trkpt>
      <trkpt lat="43.82996" lon="6.56288">
        <ele>933.7</ele>
        <time>2026-05-15T13:12:32Z</time>
      </trkpt>
      <trkpt lat="43.82985" lon="6.56299">
        <ele>934.5</ele>
        <time>2026-05-15T13:12:33Z</time>
      </trkpt>
      <trkpt lat="43.82974" lon="6.5631">
        <ele>935.3</ele>
        <time>2026-05-15T13:12:34Z</time>
      </trkpt>
      <trkpt lat="43.82963" lon="6.56319">
        <ele>936</ele>
        <time>2026-05-15T13:12:35Z</time>
      </trkpt>
      <trkpt lat="43.82952" lon="6.56329">
        <ele>936.7</ele>
        <time>2026-05-15T13:12:36Z</time>
      </trkpt>
      <trkpt lat="43.82942" lon="6.56339">
        <ele>937.9</ele>
        <time>2026-05-15T13:12:37Z</time>
      </trkpt>
      <trkpt lat="43.82932" lon="6.56348">
        <ele>939.3</ele>
        <time>2026-05-15T13:12:38Z</time>
      </trkpt>
      <trkpt lat="43.82921" lon="6.56359">
        <ele>940.8</ele>
        <time>2026-05-15T13:12:39Z</time>
      </trkpt>
      <trkpt lat="43.8291" lon="6.56369">
        <ele>942.1</ele>
        <time>2026-05-15T13:12:40Z</time>
      </trkpt>
      <trkpt lat="43.82898" lon="6.5638">
        <ele>943.7</ele>
        <time>2026-05-15T13:12:41Z</time>
      </trkpt>
      <trkpt lat="43.82886" lon="6.56391">
        <ele>945.3</ele>
        <time>2026-05-15T13:12:42Z</time>
      </trkpt>
      <trkpt lat="43.82874" lon="6.56403">
        <ele>947</ele>
        <time>2026-05-15T13:12:43Z</time>
      </trkpt>
      <trkpt lat="43.82862" lon="6.56414">
        <ele>948.6</ele>
        <time>2026-05-15T13:12:44Z</time>
      </trkpt>
      <trkpt lat="43.8285" lon="6.56425">
        <ele>950.6</ele>
        <time>2026-05-15T13:12:45Z</time>
      </trkpt>
      <trkpt lat="43.82838" lon="6.56437">
        <ele>952.2</ele>
        <time>2026-05-15T13:12:46Z</time>
      </trkpt>
      <trkpt lat="43.82827" lon="6.56448">
        <ele>953.6</ele>
        <time>2026-05-15T13:12:47Z</time>
      </trkpt>
      <trkpt lat="43.82814" lon="6.56459">
        <ele>954.9</ele>
        <time>2026-05-15T13:12:48Z</time>
      </trkpt>
      <trkpt lat="43.82802" lon="6.56471">
        <ele>955.9</ele>
        <time>2026-05-15T13:12:49Z</time>
      </trkpt>
      <trkpt lat="43.8279" lon="6.56483">
        <ele>956.9</ele>
        <time>2026-05-15T13:12:50Z</time>
      </trkpt>
      <trkpt lat="43.82779" lon="6.56497">
        <ele>957</ele>
        <time>2026-05-15T13:12:51Z</time>
      </trkpt>
      <trkpt lat="43.82769" lon="6.56512">
        <ele>956.6</ele>
        <time>2026-05-15T13:12:52Z</time>
      </trkpt>
      <trkpt lat="43.82762" lon="6.5653">
        <ele>956.3</ele>
        <time>2026-05-15T13:12:53Z</time>
      </trkpt>
      <trkpt lat="43.82757" lon="6.5655">
        <ele>956.3</ele>
        <time>2026-05-15T13:12:54Z</time>
      </trkpt>
      <trkpt lat="43.82753" lon="6.5657">
        <ele>956.7</ele>
        <time>2026-05-15T13:12:55Z</time>
      </trkpt>
      <trkpt lat="43.82749" lon="6.56591">
        <ele>957.3</ele>
        <time>2026-05-15T13:12:56Z</time>
      </trkpt>
      <trkpt lat="43.82745" lon="6.56612">
        <ele>958</ele>
        <time>2026-05-15T13:12:57Z</time>
      </trkpt>
      <trkpt lat="43.82742" lon="6.56632">
        <ele>958.7</ele>
        <time>2026-05-15T13:12:58Z</time>
      </trkpt>
      <trkpt lat="43.82738" lon="6.56652">
        <ele>959.6</ele>
        <time>2026-05-15T13:12:59Z</time>
      </trkpt>
      <trkpt lat="43.82734" lon="6.56672">
        <ele>961</ele>
        <time>2026-05-15T13:13:00Z</time>
      </trkpt>
      <trkpt lat="43.82731" lon="6.56692">
        <ele>962.7</ele>
        <time>2026-05-15T13:13:01Z</time>
      </trkpt>
      <trkpt lat="43.82726" lon="6.56711">
        <ele>965.9</ele>
        <time>2026-05-15T13:13:02Z</time>
      </trkpt>
      <trkpt lat="43.82719" lon="6.56728">
        <ele>968.2</ele>
        <time>2026-05-15T13:13:03Z</time>
      </trkpt>
      <trkpt lat="43.82709" lon="6.56743">
        <ele>970.1</ele>
        <time>2026-05-15T13:13:04Z</time>
      </trkpt>
      <trkpt lat="43.82698" lon="6.56752">
        <ele>969.4</ele>
        <time>2026-05-15T13:13:05Z</time>
      </trkpt>
      <trkpt lat="43.82684" lon="6.56756">
        <ele>969.9</ele>
        <time>2026-05-15T13:13:06Z</time>
      </trkpt>
      <trkpt lat="43.82671" lon="6.56755">
        <ele>970.2</ele>
        <time>2026-05-15T13:13:07Z</time>
      </trkpt>
      <trkpt lat="43.82658" lon="6.5675">
        <ele>970.9</ele>
        <time>2026-05-15T13:13:08Z</time>
      </trkpt>
      <trkpt lat="43.82646" lon="6.5674">
        <ele>971.7</ele>
        <time>2026-05-15T13:13:09Z</time>
      </trkpt>
      <trkpt lat="43.82637" lon="6.56726">
        <ele>972.5</ele>
        <time>2026-05-15T13:13:10Z</time>
      </trkpt>
      <trkpt lat="43.8263" lon="6.56709">
        <ele>973.3</ele>
        <time>2026-05-15T13:13:11Z</time>
      </trkpt>
      <trkpt lat="43.82624" lon="6.56691">
        <ele>974.2</ele>
        <time>2026-05-15T13:13:12Z</time>
      </trkpt>
      <trkpt lat="43.82617" lon="6.56672">
        <ele>975.5</ele>
        <time>2026-05-15T13:13:13Z</time>
      </trkpt>
      <trkpt lat="43.82609" lon="6.56654">
        <ele>977.5</ele>
        <time>2026-05-15T13:13:14Z</time>
      </trkpt>
      <trkpt lat="43.826" lon="6.56638">
        <ele>979.4</ele>
        <time>2026-05-15T13:13:15Z</time>
      </trkpt>
      <trkpt lat="43.82588" lon="6.56626">
        <ele>981.5</ele>
        <time>2026-05-15T13:13:16Z</time>
      </trkpt>
      <trkpt lat="43.82575" lon="6.56619">
        <ele>982.8</ele>
        <time>2026-05-15T13:13:17Z</time>
      </trkpt>
      <trkpt lat="43.82561" lon="6.56616">
        <ele>983.3</ele>
        <time>2026-05-15T13:13:18Z</time>
      </trkpt>
      <trkpt lat="43.82547" lon="6.56618">
        <ele>983.2</ele>
        <time>2026-05-15T13:13:19Z</time>
      </trkpt>
      <trkpt lat="43.82535" lon="6.56625">
        <ele>983.4</ele>
        <time>2026-05-15T13:13:20Z</time>
      </trkpt>
      <trkpt lat="43.82524" lon="6.56637">
        <ele>984</ele>
        <time>2026-05-15T13:13:21Z</time>
      </trkpt>
      <trkpt lat="43.82514" lon="6.56651">
        <ele>984.3</ele>
        <time>2026-05-15T13:13:22Z</time>
      </trkpt>
      <trkpt lat="43.82506" lon="6.56668">
        <ele>985.9</ele>
        <time>2026-05-15T13:13:23Z</time>
      </trkpt>
      <trkpt lat="43.82497" lon="6.56686">
        <ele>987.8</ele>
        <time>2026-05-15T13:13:24Z</time>
      </trkpt>
      <trkpt lat="43.82489" lon="6.56704">
        <ele>989.1</ele>
        <time>2026-05-15T13:13:25Z</time>
      </trkpt>
      <trkpt lat="43.82481" lon="6.56724">
        <ele>990.8</ele>
        <time>2026-05-15T13:13:26Z</time>
      </trkpt>
      <trkpt lat="43.82475" lon="6.56744">
        <ele>992.6</ele>
        <time>2026-05-15T13:13:27Z</time>
      </trkpt>
      <trkpt lat="43.82471" lon="6.56767">
        <ele>995.1</ele>
        <time>2026-05-15T13:13:28Z</time>
      </trkpt>
      <trkpt lat="43.82467" lon="6.56791">
        <ele>996.4</ele>
        <time>2026-05-15T13:13:29Z</time>
      </trkpt>
      <trkpt lat="43.82464" lon="6.56815">
        <ele>997.3</ele>
        <time>2026-05-15T13:13:30Z</time>
      </trkpt>
      <trkpt lat="43.82462" lon="6.5684">
        <ele>998.1</ele>
        <time>2026-05-15T13:13:31Z</time>
      </trkpt>
      <trkpt lat="43.8246" lon="6.56867">
        <ele>999</ele>
        <time>2026-05-15T13:13:32Z</time>
      </trkpt>
      <trkpt lat="43.82459" lon="6.56894">
        <ele>1000.1</ele>
        <time>2026-05-15T13:13:33Z</time>
      </trkpt>
      <trkpt lat="43.82457" lon="6.56922">
        <ele>1000.7</ele>
        <time>2026-05-15T13:13:34Z</time>
      </trkpt>
      <trkpt lat="43.82454" lon="6.56952">
        <ele>1002.6</ele>
        <time>2026-05-15T13:13:35Z</time>
      </trkpt>
      <trkpt lat="43.82452" lon="6.56981">
        <ele>1004.3</ele>
        <time>2026-05-15T13:13:36Z</time>
      </trkpt>
      <trkpt lat="43.8245" lon="6.57012">
        <ele>1005.9</ele>
        <time>2026-05-15T13:13:37Z</time>
      </trkpt>
      <trkpt lat="43.82447" lon="6.57041">
        <ele>1007.4</ele>
        <time>2026-05-15T13:13:38Z</time>
      </trkpt>
      <trkpt lat="43.82444" lon="6.5707">
        <ele>1009</ele>
        <time>2026-05-15T13:13:39Z</time>
      </trkpt>
      <trkpt lat="43.8244" lon="6.57098">
        <ele>1009.8</ele>
        <time>2026-05-15T13:13:40Z</time>
      </trkpt>
      <trkpt lat="43.82437" lon="6.57127">
        <ele>1010.9</ele>
        <time>2026-05-15T13:13:41Z</time>
      </trkpt>
      <trkpt lat="43.82433" lon="6.57157">
        <ele>1011.9</ele>
        <time>2026-05-15T13:13:42Z</time>
      </trkpt>
      <trkpt lat="43.82428" lon="6.57186">
        <ele>1012.6</ele>
        <time>2026-05-15T13:13:43Z</time>
      </trkpt>
      <trkpt lat="43.82424" lon="6.57217">
        <ele>1013.1</ele>
        <time>2026-05-15T13:13:44Z</time>
      </trkpt>
      <trkpt lat="43.8242" lon="6.57247">
        <ele>1014.3</ele>
        <time>2026-05-15T13:13:45Z</time>
      </trkpt>
      <trkpt lat="43.82415" lon="6.57278">
        <ele>1015.5</ele>
        <time>2026-05-15T13:13:46Z</time>
      </trkpt>
      <trkpt lat="43.82411" lon="6.5731">
        <ele>1016</ele>
        <time>2026-05-15T13:13:47Z</time>
      </trkpt>
      <trkpt lat="43.82407" lon="6.57341">
        <ele>1016.7</ele>
        <time>2026-05-15T13:13:48Z</time>
      </trkpt>
      <trkpt lat="43.82403" lon="6.57372">
        <ele>1017.8</ele>
        <time>2026-05-15T13:13:49Z</time>
      </trkpt>
      <trkpt lat="43.824" lon="6.57402">
        <ele>1019.5</ele>
        <time>2026-05-15T13:13:50Z</time>
      </trkpt>
      <trkpt lat="43.82396" lon="6.5743">
        <ele>1020.5</ele>
        <time>2026-05-15T13:13:51Z</time>
      </trkpt>
      <trkpt lat="43.82393" lon="6.57456">
        <ele>1021.6</ele>
        <time>2026-05-15T13:13:52Z</time>
      </trkpt>
      <trkpt lat="43.8239" lon="6.57479">
        <ele>1022.9</ele>
        <time>2026-05-15T13:13:53Z</time>
      </trkpt>
      <trkpt lat="43.82389" lon="6.57501">
        <ele>1024</ele>
        <time>2026-05-15T13:13:54Z</time>
      </trkpt>
      <trkpt lat="43.82392" lon="6.57521">
        <ele>1024.5</ele>
        <time>2026-05-15T13:13:55Z</time>
      </trkpt>
      <trkpt lat="43.82398" lon="6.5754">
        <ele>1024.1</ele>
        <time>2026-05-15T13:13:56Z</time>
      </trkpt>
      <trkpt lat="43.82408" lon="6.57557">
        <ele>1023.9</ele>
        <time>2026-05-15T13:13:57Z</time>
      </trkpt>
      <trkpt lat="43.82421" lon="6.57571">
        <ele>1025.3</ele>
        <time>2026-05-15T13:13:58Z</time>
      </trkpt>
      <trkpt lat="43.82436" lon="6.57584">
        <ele>1027.1</ele>
        <time>2026-05-15T13:13:59Z</time>
      </trkpt>
      <trkpt lat="43.82452" lon="6.57597">
        <ele>1029</ele>
        <time>2026-05-15T13:14:00Z</time>
      </trkpt>
      <trkpt lat="43.82468" lon="6.5761">
        <ele>1030.1</ele>
        <time>2026-05-15T13:14:01Z</time>
      </trkpt>
      <trkpt lat="43.82483" lon="6.57623">
        <ele>1032</ele>
        <time>2026-05-15T13:14:02Z</time>
      </trkpt>
      <trkpt lat="43.82496" lon="6.57637">
        <ele>1033.3</ele>
        <time>2026-05-15T13:14:03Z</time>
      </trkpt>
      <trkpt lat="43.82508" lon="6.57653">
        <ele>1035.4</ele>
        <time>2026-05-15T13:14:04Z</time>
      </trkpt>
      <trkpt lat="43.82517" lon="6.57673">
        <ele>1037.6</ele>
        <time>2026-05-15T13:14:05Z</time>
      </trkpt>
      <trkpt lat="43.82522" lon="6.57695">
        <ele>1038.9</ele>
        <time>2026-05-15T13:14:06Z</time>
      </trkpt>
      <trkpt lat="43.82524" lon="6.57718">
        <ele>1040.4</ele>
        <time>2026-05-15T13:14:07Z</time>
      </trkpt>
      <trkpt lat="43.82521" lon="6.57742">
        <ele>1041.3</ele>
        <time>2026-05-15T13:14:08Z</time>
      </trkpt>
      <trkpt lat="43.82514" lon="6.57764">
        <ele>1040.6</ele>
        <time>2026-05-15T13:14:09Z</time>
      </trkpt>
      <trkpt lat="43.82503" lon="6.57784">
        <ele>1038.9</ele>
        <time>2026-05-15T13:14:10Z</time>
      </trkpt>
      <trkpt lat="43.82488" lon="6.57802">
        <ele>1037.5</ele>
        <time>2026-05-15T13:14:11Z</time>
      </trkpt>
      <trkpt lat="43.82474" lon="6.57818">
        <ele>1036.7</ele>
        <time>2026-05-15T13:14:12Z</time>
      </trkpt>
      <trkpt lat="43.82463" lon="6.57838">
        <ele>1036.7</ele>
        <time>2026-05-15T13:14:13Z</time>
      </trkpt>
      <trkpt lat="43.82454" lon="6.57861">
        <ele>1036.4</ele>
        <time>2026-05-15T13:14:14Z</time>
      </trkpt>
      <trkpt lat="43.82447" lon="6.57886">
        <ele>1036.4</ele>
        <time>2026-05-15T13:14:15Z</time>
      </trkpt>
      <trkpt lat="43.8244" lon="6.57914">
        <ele>1035.9</ele>
        <time>2026-05-15T13:14:16Z</time>
      </trkpt>
      <trkpt lat="43.82433" lon="6.57942">
        <ele>1035.4</ele>
        <time>2026-05-15T13:14:17Z</time>
      </trkpt>
      <trkpt lat="43.82425" lon="6.5797">
        <ele>1035</ele>
        <time>2026-05-15T13:14:18Z</time>
      </trkpt>
      <trkpt lat="43.82418" lon="6.57999">
        <ele>1034.3</ele>
        <time>2026-05-15T13:14:19Z</time>
      </trkpt>
      <trkpt lat="43.82411" lon="6.58025">
        <ele>1034.6</ele>
        <time>2026-05-15T13:14:20Z</time>
      </trkpt>
      <trkpt lat="43.82405" lon="6.58052">
        <ele>1034.9</ele>
        <time>2026-05-15T13:14:21Z</time>
      </trkpt>
      <trkpt lat="43.82398" lon="6.58076">
        <ele>1034.3</ele>
        <time>2026-05-15T13:14:22Z</time>
      </trkpt>
      <trkpt lat="43.82392" lon="6.581">
        <ele>1034.1</ele>
        <time>2026-05-15T13:14:23Z</time>
      </trkpt>
      <trkpt lat="43.82385" lon="6.5812">
        <ele>1033.8</ele>
        <time>2026-05-15T13:14:24Z</time>
      </trkpt>
      <trkpt lat="43.82375" lon="6.58138">
        <ele>1033.4</ele>
        <time>2026-05-15T13:14:25Z</time>
      </trkpt>
      <trkpt lat="43.82363" lon="6.58151">
        <ele>1032.6</ele>
        <time>2026-05-15T13:14:26Z</time>
      </trkpt>
      <trkpt lat="43.82349" lon="6.58159">
        <ele>1032.8</ele>
        <time>2026-05-15T13:14:27Z</time>
      </trkpt>
      <trkpt lat="43.82333" lon="6.58162">
        <ele>1033</ele>
        <time>2026-05-15T13:14:28Z</time>
      </trkpt>
      <trkpt lat="43.82317" lon="6.58162">
        <ele>1033.2</ele>
        <time>2026-05-15T13:14:29Z</time>
      </trkpt>
      <trkpt lat="43.82299" lon="6.58162">
        <ele>1033.3</ele>
        <time>2026-05-15T13:14:30Z</time>
      </trkpt>
      <trkpt lat="43.82282" lon="6.58163">
        <ele>1033.6</ele>
        <time>2026-05-15T13:14:31Z</time>
      </trkpt>
      <trkpt lat="43.82266" lon="6.58166">
        <ele>1034.8</ele>
        <time>2026-05-15T13:14:32Z</time>
      </trkpt>
      <trkpt lat="43.82251" lon="6.58172">
        <ele>1037</ele>
        <time>2026-05-15T13:14:33Z</time>
      </trkpt>
      <trkpt lat="43.82238" lon="6.58181">
        <ele>1038</ele>
        <time>2026-05-15T13:14:34Z</time>
      </trkpt>
      <trkpt lat="43.82226" lon="6.58194">
        <ele>1038.8</ele>
        <time>2026-05-15T13:14:35Z</time>
      </trkpt>
      <trkpt lat="43.82215" lon="6.5821">
        <ele>1039.9</ele>
        <time>2026-05-15T13:14:36Z</time>
      </trkpt>
      <trkpt lat="43.82206" lon="6.58227">
        <ele>1040.5</ele>
        <time>2026-05-15T13:14:37Z</time>
      </trkpt>
      <trkpt lat="43.82198" lon="6.58247">
        <ele>1040.2</ele>
        <time>2026-05-15T13:14:38Z</time>
      </trkpt>
      <trkpt lat="43.82194" lon="6.58268">
        <ele>1040.1</ele>
        <time>2026-05-15T13:14:39Z</time>
      </trkpt>
      <trkpt lat="43.82192" lon="6.5829">
        <ele>1040.4</ele>
        <time>2026-05-15T13:14:40Z</time>
      </trkpt>
      <trkpt lat="43.82193" lon="6.58313">
        <ele>1041</ele>
        <time>2026-05-15T13:14:41Z</time>
      </trkpt>
      <trkpt lat="43.82196" lon="6.58335">
        <ele>1042.1</ele>
        <time>2026-05-15T13:14:42Z</time>
      </trkpt>
      <trkpt lat="43.822" lon="6.58357">
        <ele>1045</ele>
        <time>2026-05-15T13:14:43Z</time>
      </trkpt>
      <trkpt lat="43.82202" lon="6.58379">
        <ele>1046</ele>
        <time>2026-05-15T13:14:44Z</time>
      </trkpt>
      <trkpt lat="43.82201" lon="6.58401">
        <ele>1045.5</ele>
        <time>2026-05-15T13:14:45Z</time>
      </trkpt>
      <trkpt lat="43.82199" lon="6.58423">
        <ele>1045.6</ele>
        <time>2026-05-15T13:14:46Z</time>
      </trkpt>
      <trkpt lat="43.82192" lon="6.58444">
        <ele>1045.3</ele>
        <time>2026-05-15T13:14:47Z</time>
      </trkpt>
      <trkpt lat="43.82183" lon="6.58462">
        <ele>1045.9</ele>
        <time>2026-05-15T13:14:48Z</time>
      </trkpt>
      <trkpt lat="43.82171" lon="6.58478">
        <ele>1045.2</ele>
        <time>2026-05-15T13:14:49Z</time>
      </trkpt>
      <trkpt lat="43.82156" lon="6.58488">
        <ele>1044.1</ele>
        <time>2026-05-15T13:14:50Z</time>
      </trkpt>
      <trkpt lat="43.82139" lon="6.58495">
        <ele>1042.5</ele>
        <time>2026-05-15T13:14:51Z</time>
      </trkpt>
      <trkpt lat="43.82122" lon="6.58499">
        <ele>1043.9</ele>
        <time>2026-05-15T13:14:52Z</time>
      </trkpt>
      <trkpt lat="43.82106" lon="6.58502">
        <ele>1045.5</ele>
        <time>2026-05-15T13:14:53Z</time>
      </trkpt>
      <trkpt lat="43.82089" lon="6.58506">
        <ele>1047.2</ele>
        <time>2026-05-15T13:14:54Z</time>
      </trkpt>
      <trkpt lat="43.82071" lon="6.5851">
        <ele>1048.4</ele>
        <time>2026-05-15T13:14:55Z</time>
      </trkpt>
      <trkpt lat="43.82054" lon="6.58514">
        <ele>1049.1</ele>
        <time>2026-05-15T13:14:56Z</time>
      </trkpt>
      <trkpt lat="43.82036" lon="6.58519">
        <ele>1050</ele>
        <time>2026-05-15T13:14:57Z</time>
      </trkpt>
      <trkpt lat="43.82019" lon="6.58526">
        <ele>1050</ele>
        <time>2026-05-15T13:14:58Z</time>
      </trkpt>
      <trkpt lat="43.82003" lon="6.58537">
        <ele>1051.4</ele>
        <time>2026-05-15T13:14:59Z</time>
      </trkpt>
      <trkpt lat="43.81988" lon="6.58552">
        <ele>1052.1</ele>
        <time>2026-05-15T13:15:00Z</time>
      </trkpt>
      <trkpt lat="43.81973" lon="6.58567">
        <ele>1052.8</ele>
        <time>2026-05-15T13:15:01Z</time>
      </trkpt>
      <trkpt lat="43.81957" lon="6.58584">
        <ele>1051.9</ele>
        <time>2026-05-15T13:15:02Z</time>
      </trkpt>
      <trkpt lat="43.81942" lon="6.586">
        <ele>1052.1</ele>
        <time>2026-05-15T13:15:03Z</time>
      </trkpt>
      <trkpt lat="43.81926" lon="6.58616">
        <ele>1052.5</ele>
        <time>2026-05-15T13:15:04Z</time>
      </trkpt>
      <trkpt lat="43.8191" lon="6.58632">
        <ele>1053.5</ele>
        <time>2026-05-15T13:15:05Z</time>
      </trkpt>
      <trkpt lat="43.81895" lon="6.58648">
        <ele>1053.7</ele>
        <time>2026-05-15T13:15:06Z</time>
      </trkpt>
      <trkpt lat="43.81881" lon="6.58666">
        <ele>1054.7</ele>
        <time>2026-05-15T13:15:07Z</time>
      </trkpt>
      <trkpt lat="43.81868" lon="6.58686">
        <ele>1055.2</ele>
        <time>2026-05-15T13:15:08Z</time>
      </trkpt>
      <trkpt lat="43.81858" lon="6.58708">
        <ele>1055.3</ele>
        <time>2026-05-15T13:15:09Z</time>
      </trkpt>
      <trkpt lat="43.81848" lon="6.58731">
        <ele>1055.9</ele>
        <time>2026-05-15T13:15:10Z</time>
      </trkpt>
      <trkpt lat="43.8184" lon="6.58754">
        <ele>1054.8</ele>
        <time>2026-05-15T13:15:11Z</time>
      </trkpt>
      <trkpt lat="43.81832" lon="6.58776">
        <ele>1051.3</ele>
        <time>2026-05-15T13:15:12Z</time>
      </trkpt>
      <trkpt lat="43.81823" lon="6.58798">
        <ele>1048.9</ele>
        <time>2026-05-15T13:15:13Z</time>
      </trkpt>
      <trkpt lat="43.81814" lon="6.58819">
        <ele>1046.3</ele>
        <time>2026-05-15T13:15:14Z</time>
      </trkpt>
      <trkpt lat="43.81805" lon="6.5884">
        <ele>1044.2</ele>
        <time>2026-05-15T13:15:15Z</time>
      </trkpt>
      <trkpt lat="43.81798" lon="6.58858">
        <ele>1043.6</ele>
        <time>2026-05-15T13:15:16Z</time>
      </trkpt>
      <trkpt lat="43.8179" lon="6.58874">
        <ele>1043.6</ele>
        <time>2026-05-15T13:15:17Z</time>
      </trkpt>
      <trkpt lat="43.81779" lon="6.58886">
        <ele>1044.2</ele>
        <time>2026-05-15T13:15:18Z</time>
      </trkpt>
      <trkpt lat="43.81767" lon="6.58897">
        <ele>1045.3</ele>
        <time>2026-05-15T13:15:19Z</time>
      </trkpt>
      <trkpt lat="43.81755" lon="6.5891">
        <ele>1045.9</ele>
        <time>2026-05-15T13:15:20Z</time>
      </trkpt>
      <trkpt lat="43.81745" lon="6.58928">
        <ele>1044.8</ele>
        <time>2026-05-15T13:15:21Z</time>
      </trkpt>
      <trkpt lat="43.81736" lon="6.58947">
        <ele>1043.1</ele>
        <time>2026-05-15T13:15:22Z</time>
      </trkpt>
      <trkpt lat="43.81726" lon="6.58968">
        <ele>1041.9</ele>
        <time>2026-05-15T13:15:23Z</time>
      </trkpt>
      <trkpt lat="43.81717" lon="6.58989">
        <ele>1040.2</ele>
        <time>2026-05-15T13:15:24Z</time>
      </trkpt>
      <trkpt lat="43.81708" lon="6.59009">
        <ele>1038.9</ele>
        <time>2026-05-15T13:15:25Z</time>
      </trkpt>
      <trkpt lat="43.817" lon="6.5903">
        <ele>1038.3</ele>
        <time>2026-05-15T13:15:26Z</time>
      </trkpt>
      <trkpt lat="43.81694" lon="6.59051">
        <ele>1037.6</ele>
        <time>2026-05-15T13:15:27Z</time>
      </trkpt>
      <trkpt lat="43.81689" lon="6.59073">
        <ele>1037</ele>
        <time>2026-05-15T13:15:28Z</time>
      </trkpt>
      <trkpt lat="43.81684" lon="6.59094">
        <ele>1035.6</ele>
        <time>2026-05-15T13:15:29Z</time>
      </trkpt>
      <trkpt lat="43.81677" lon="6.59114">
        <ele>1033.8</ele>
        <time>2026-05-15T13:15:30Z</time>
      </trkpt>
      <trkpt lat="43.81669" lon="6.59133">
        <ele>1031.8</ele>
        <time>2026-05-15T13:15:31Z</time>
      </trkpt>
      <trkpt lat="43.8166" lon="6.59153">
        <ele>1029.8</ele>
        <time>2026-05-15T13:15:32Z</time>
      </trkpt>
      <trkpt lat="43.8165" lon="6.59171">
        <ele>1029</ele>
        <time>2026-05-15T13:15:33Z</time>
      </trkpt>
      <trkpt lat="43.8164" lon="6.59189">
        <ele>1028.6</ele>
        <time>2026-05-15T13:15:34Z</time>
      </trkpt>
      <trkpt lat="43.8163" lon="6.59206">
        <ele>1028.7</ele>
        <time>2026-05-15T13:15:35Z</time>
      </trkpt>
      <trkpt lat="43.8162" lon="6.59222">
        <ele>1029.1</ele>
        <time>2026-05-15T13:15:36Z</time>
      </trkpt>
      <trkpt lat="43.8161" lon="6.59237">
        <ele>1029.7</ele>
        <time>2026-05-15T13:15:37Z</time>
      </trkpt>
      <trkpt lat="43.81601" lon="6.59252">
        <ele>1030.1</ele>
        <time>2026-05-15T13:15:38Z</time>
      </trkpt>
      <trkpt lat="43.81593" lon="6.59263">
        <ele>1029</ele>
        <time>2026-05-15T13:15:39Z</time>
      </trkpt>
      <trkpt lat="43.81584" lon="6.59273">
        <ele>1027.5</ele>
        <time>2026-05-15T13:15:40Z</time>
      </trkpt>
      <trkpt lat="43.81575" lon="6.59281">
        <ele>1025.6</ele>
        <time>2026-05-15T13:15:41Z</time>
      </trkpt>
      <trkpt lat="43.81565" lon="6.59288">
        <ele>1023.6</ele>
        <time>2026-05-15T13:15:42Z</time>
      </trkpt>
      <trkpt lat="43.81553" lon="6.59292">
        <ele>1022.2</ele>
        <time>2026-05-15T13:15:43Z</time>
      </trkpt>
      <trkpt lat="43.81539" lon="6.59294">
        <ele>1020.5</ele>
        <time>2026-05-15T13:15:44Z</time>
      </trkpt>
      <trkpt lat="43.81524" lon="6.59294">
        <ele>1019.4</ele>
        <time>2026-05-15T13:15:45Z</time>
      </trkpt>
      <trkpt lat="43.81509" lon="6.59293">
        <ele>1018.2</ele>
        <time>2026-05-15T13:15:46Z</time>
      </trkpt>
      <trkpt lat="43.81493" lon="6.59293">
        <ele>1016.7</ele>
        <time>2026-05-15T13:15:47Z</time>
      </trkpt>
      <trkpt lat="43.81476" lon="6.59293">
        <ele>1015</ele>
        <time>2026-05-15T13:15:48Z</time>
      </trkpt>
      <trkpt lat="43.81461" lon="6.59292">
        <ele>1014.2</ele>
        <time>2026-05-15T13:15:49Z</time>
      </trkpt>
      <trkpt lat="43.81445" lon="6.59291">
        <ele>1013.4</ele>
        <time>2026-05-15T13:15:50Z</time>
      </trkpt>
      <trkpt lat="43.8143" lon="6.5929">
        <ele>1012.3</ele>
        <time>2026-05-15T13:15:51Z</time>
      </trkpt>
      <trkpt lat="43.81418" lon="6.5929">
        <ele>1011.6</ele>
        <time>2026-05-15T13:15:52Z</time>
      </trkpt>
      <trkpt lat="43.81406" lon="6.59293">
        <ele>1010.1</ele>
        <time>2026-05-15T13:15:53Z</time>
      </trkpt>
      <trkpt lat="43.81395" lon="6.59302">
        <ele>1010.3</ele>
        <time>2026-05-15T13:15:54Z</time>
      </trkpt>
      <trkpt lat="43.81387" lon="6.59315">
        <ele>1010.5</ele>
        <time>2026-05-15T13:15:55Z</time>
      </trkpt>
      <trkpt lat="43.8138" lon="6.5933">
        <ele>1009.7</ele>
        <time>2026-05-15T13:15:56Z</time>
      </trkpt>
      <trkpt lat="43.81373" lon="6.59347">
        <ele>1008.4</ele>
        <time>2026-05-15T13:15:57Z</time>
      </trkpt>
      <trkpt lat="43.81367" lon="6.59363">
        <ele>1007.4</ele>
        <time>2026-05-15T13:15:58Z</time>
      </trkpt>
      <trkpt lat="43.81362" lon="6.59379">
        <ele>1006</ele>
        <time>2026-05-15T13:15:59Z</time>
      </trkpt>
      <trkpt lat="43.81358" lon="6.59395">
        <ele>1004.4</ele>
        <time>2026-05-15T13:16:00Z</time>
      </trkpt>
      <trkpt lat="43.81357" lon="6.59413">
        <ele>1003.4</ele>
        <time>2026-05-15T13:16:01Z</time>
      </trkpt>
      <trkpt lat="43.8136" lon="6.59431">
        <ele>1003</ele>
        <time>2026-05-15T13:16:02Z</time>
      </trkpt>
      <trkpt lat="43.81364" lon="6.59448">
        <ele>1002.1</ele>
        <time>2026-05-15T13:16:03Z</time>
      </trkpt>
      <trkpt lat="43.81371" lon="6.59464">
        <ele>1000.7</ele>
        <time>2026-05-15T13:16:04Z</time>
      </trkpt>
      <trkpt lat="43.81379" lon="6.59477">
        <ele>999.6</ele>
        <time>2026-05-15T13:16:05Z</time>
      </trkpt>
      <trkpt lat="43.8139" lon="6.59486">
        <ele>999.1</ele>
        <time>2026-05-15T13:16:06Z</time>
      </trkpt>
      <trkpt lat="43.81403" lon="6.59492">
        <ele>998.1</ele>
        <time>2026-05-15T13:16:07Z</time>
      </trkpt>
      <trkpt lat="43.81416" lon="6.59497">
        <ele>997.1</ele>
        <time>2026-05-15T13:16:08Z</time>
      </trkpt>
      <trkpt lat="43.8143" lon="6.59501">
        <ele>995.2</ele>
        <time>2026-05-15T13:16:09Z</time>
      </trkpt>
      <trkpt lat="43.81444" lon="6.59505">
        <ele>993.2</ele>
        <time>2026-05-15T13:16:10Z</time>
      </trkpt>
      <trkpt lat="43.81458" lon="6.59509">
        <ele>991.8</ele>
        <time>2026-05-15T13:16:11Z</time>
      </trkpt>
      <trkpt lat="43.81472" lon="6.59511">
        <ele>991</ele>
        <time>2026-05-15T13:16:12Z</time>
      </trkpt>
      <trkpt lat="43.81485" lon="6.59511">
        <ele>990.3</ele>
        <time>2026-05-15T13:16:13Z</time>
      </trkpt>
      <trkpt lat="43.81499" lon="6.5951">
        <ele>989.8</ele>
        <time>2026-05-15T13:16:14Z</time>
      </trkpt>
      <trkpt lat="43.81513" lon="6.59507">
        <ele>988.6</ele>
        <time>2026-05-15T13:16:15Z</time>
      </trkpt>
      <trkpt lat="43.81526" lon="6.59501">
        <ele>988.1</ele>
        <time>2026-05-15T13:16:16Z</time>
      </trkpt>
      <trkpt lat="43.81538" lon="6.59491">
        <ele>988.4</ele>
        <time>2026-05-15T13:16:17Z</time>
      </trkpt>
      <trkpt lat="43.81548" lon="6.59481">
        <ele>988.3</ele>
        <time>2026-05-15T13:16:18Z</time>
      </trkpt>
      <trkpt lat="43.81558" lon="6.59469">
        <ele>988.1</ele>
        <time>2026-05-15T13:16:19Z</time>
      </trkpt>
      <trkpt lat="43.81568" lon="6.59458">
        <ele>987.6</ele>
        <time>2026-05-15T13:16:20Z</time>
      </trkpt>
      <trkpt lat="43.81578" lon="6.59449">
        <ele>986.1</ele>
        <time>2026-05-15T13:16:21Z</time>
      </trkpt>
      <trkpt lat="43.81589" lon="6.59444">
        <ele>984.7</ele>
        <time>2026-05-15T13:16:22Z</time>
      </trkpt>
      <trkpt lat="43.81599" lon="6.59446">
        <ele>983.8</ele>
        <time>2026-05-15T13:16:23Z</time>
      </trkpt>
      <trkpt lat="43.81608" lon="6.59454">
        <ele>982.5</ele>
        <time>2026-05-15T13:16:24Z</time>
      </trkpt>
      <trkpt lat="43.81615" lon="6.59465">
        <ele>981.3</ele>
        <time>2026-05-15T13:16:25Z</time>
      </trkpt>
      <trkpt lat="43.81615" lon="6.5948">
        <ele>979.9</ele>
        <time>2026-05-15T13:16:26Z</time>
      </trkpt>
      <trkpt lat="43.81612" lon="6.59494">
        <ele>978.6</ele>
        <time>2026-05-15T13:16:27Z</time>
      </trkpt>
      <trkpt lat="43.81605" lon="6.59508">
        <ele>977.4</ele>
        <time>2026-05-15T13:16:28Z</time>
      </trkpt>
      <trkpt lat="43.81594" lon="6.59518">
        <ele>977</ele>
        <time>2026-05-15T13:16:29Z</time>
      </trkpt>
      <trkpt lat="43.8158" lon="6.59527">
        <ele>977.3</ele>
        <time>2026-05-15T13:16:30Z</time>
      </trkpt>
      <trkpt lat="43.81566" lon="6.59536">
        <ele>976.9</ele>
        <time>2026-05-15T13:16:31Z</time>
      </trkpt>
      <trkpt lat="43.8155" lon="6.59546">
        <ele>976</ele>
        <time>2026-05-15T13:16:32Z</time>
      </trkpt>
      <trkpt lat="43.81535" lon="6.59558">
        <ele>974.3</ele>
        <time>2026-05-15T13:16:33Z</time>
      </trkpt>
      <trkpt lat="43.8152" lon="6.59571">
        <ele>972.3</ele>
        <time>2026-05-15T13:16:34Z</time>
      </trkpt>
      <trkpt lat="43.81506" lon="6.59585">
        <ele>969.7</ele>
        <time>2026-05-15T13:16:35Z</time>
      </trkpt>
      <trkpt lat="43.81492" lon="6.59598">
        <ele>967.4</ele>
        <time>2026-05-15T13:16:36Z</time>
      </trkpt>
      <trkpt lat="43.81478" lon="6.59612">
        <ele>964.9</ele>
        <time>2026-05-15T13:16:37Z</time>
      </trkpt>
      <trkpt lat="43.81463" lon="6.59627">
        <ele>964.5</ele>
        <time>2026-05-15T13:16:38Z</time>
      </trkpt>
      <trkpt lat="43.81449" lon="6.59641">
        <ele>964.6</ele>
        <time>2026-05-15T13:16:39Z</time>
      </trkpt>
      <trkpt lat="43.81435" lon="6.59654">
        <ele>965</ele>
        <time>2026-05-15T13:16:40Z</time>
      </trkpt>
      <trkpt lat="43.81422" lon="6.59666">
        <ele>964.9</ele>
        <time>2026-05-15T13:16:41Z</time>
      </trkpt>
      <trkpt lat="43.81408" lon="6.59679">
        <ele>964.2</ele>
        <time>2026-05-15T13:16:42Z</time>
      </trkpt>
      <trkpt lat="43.81395" lon="6.59691">
        <ele>963.2</ele>
        <time>2026-05-15T13:16:43Z</time>
      </trkpt>
      <trkpt lat="43.81381" lon="6.59704">
        <ele>961.8</ele>
        <time>2026-05-15T13:16:44Z</time>
      </trkpt>
      <trkpt lat="43.81368" lon="6.59715">
        <ele>960.2</ele>
        <time>2026-05-15T13:16:45Z</time>
      </trkpt>
      <trkpt lat="43.81355" lon="6.59725">
        <ele>958.7</ele>
        <time>2026-05-15T13:16:46Z</time>
      </trkpt>
      <trkpt lat="43.81341" lon="6.59735">
        <ele>957.3</ele>
        <time>2026-05-15T13:16:47Z</time>
      </trkpt>
      <trkpt lat="43.81326" lon="6.59742">
        <ele>956.2</ele>
        <time>2026-05-15T13:16:48Z</time>
      </trkpt>
      <trkpt lat="43.81311" lon="6.59749">
        <ele>955.2</ele>
        <time>2026-05-15T13:16:49Z</time>
      </trkpt>
      <trkpt lat="43.81297" lon="6.59757">
        <ele>954.2</ele>
        <time>2026-05-15T13:16:50Z</time>
      </trkpt>
      <trkpt lat="43.81283" lon="6.59764">
        <ele>953.2</ele>
        <time>2026-05-15T13:16:51Z</time>
      </trkpt>
      <trkpt lat="43.81269" lon="6.59771">
        <ele>952.1</ele>
        <time>2026-05-15T13:16:52Z</time>
      </trkpt>
      <trkpt lat="43.81255" lon="6.59778">
        <ele>951.2</ele>
        <time>2026-05-15T13:16:53Z</time>
      </trkpt>
      <trkpt lat="43.81242" lon="6.59784">
        <ele>950.3</ele>
        <time>2026-05-15T13:16:54Z</time>
      </trkpt>
      <trkpt lat="43.81231" lon="6.5979">
        <ele>949.5</ele>
        <time>2026-05-15T13:16:55Z</time>
      </trkpt>
      <trkpt lat="43.8122" lon="6.59795">
        <ele>948.9</ele>
        <time>2026-05-15T13:16:56Z</time>
      </trkpt>
      <trkpt lat="43.81209" lon="6.59802">
        <ele>948.5</ele>
        <time>2026-05-15T13:16:57Z</time>
      </trkpt>
      <trkpt lat="43.81198" lon="6.59807">
        <ele>948.1</ele>
        <time>2026-05-15T13:16:58Z</time>
      </trkpt>
      <trkpt lat="43.81186" lon="6.59813">
        <ele>947.7</ele>
        <time>2026-05-15T13:16:59Z</time>
      </trkpt>
      <trkpt lat="43.81174" lon="6.59819">
        <ele>947.3</ele>
        <time>2026-05-15T13:17:00Z</time>
      </trkpt>
      <trkpt lat="43.81161" lon="6.59826">
        <ele>946.7</ele>
        <time>2026-05-15T13:17:01Z</time>
      </trkpt>
      <trkpt lat="43.81147" lon="6.59832">
        <ele>946.3</ele>
        <time>2026-05-15T13:17:02Z</time>
      </trkpt>
      <trkpt lat="43.81133" lon="6.59839">
        <ele>946</ele>
        <time>2026-05-15T13:17:03Z</time>
      </trkpt>
      <trkpt lat="43.8112" lon="6.59846">
        <ele>945.8</ele>
        <time>2026-05-15T13:17:04Z</time>
      </trkpt>
      <trkpt lat="43.81106" lon="6.59853">
        <ele>945.6</ele>
        <time>2026-05-15T13:17:05Z</time>
      </trkpt>
      <trkpt lat="43.81092" lon="6.59861">
        <ele>945.3</ele>
        <time>2026-05-15T13:17:06Z</time>
      </trkpt>
      <trkpt lat="43.81077" lon="6.59868">
        <ele>944.8</ele>
        <time>2026-05-15T13:17:07Z</time>
      </trkpt>
      <trkpt lat="43.81064" lon="6.59875">
        <ele>944.7</ele>
        <time>2026-05-15T13:17:08Z</time>
      </trkpt>
      <trkpt lat="43.8105" lon="6.59883">
        <ele>944.6</ele>
        <time>2026-05-15T13:17:09Z</time>
      </trkpt>
      <trkpt lat="43.81037" lon="6.5989">
        <ele>944.2</ele>
        <time>2026-05-15T13:17:10Z</time>
      </trkpt>
      <trkpt lat="43.81025" lon="6.59896">
        <ele>942.9</ele>
        <time>2026-05-15T13:17:11Z</time>
      </trkpt>
      <trkpt lat="43.81014" lon="6.59904">
        <ele>940.9</ele>
        <time>2026-05-15T13:17:12Z</time>
      </trkpt>
      <trkpt lat="43.81001" lon="6.5991">
        <ele>939.3</ele>
        <time>2026-05-15T13:17:13Z</time>
      </trkpt>
      <trkpt lat="43.80989" lon="6.59916">
        <ele>941.3</ele>
        <time>2026-05-15T13:17:14Z</time>
      </trkpt>
      <trkpt lat="43.80977" lon="6.5992">
        <ele>944.1</ele>
        <time>2026-05-15T13:17:15Z</time>
      </trkpt>
      <trkpt lat="43.80965" lon="6.59921">
        <ele>945.9</ele>
        <time>2026-05-15T13:17:16Z</time>
      </trkpt>
      <trkpt lat="43.80952" lon="6.59918">
        <ele>946.2</ele>
        <time>2026-05-15T13:17:17Z</time>
      </trkpt>
      <trkpt lat="43.8094" lon="6.59912">
        <ele>946</ele>
        <time>2026-05-15T13:17:18Z</time>
      </trkpt>
      <trkpt lat="43.80929" lon="6.59903">
        <ele>946.3</ele>
        <time>2026-05-15T13:17:19Z</time>
      </trkpt>
      <trkpt lat="43.80918" lon="6.5989">
        <ele>946</ele>
        <time>2026-05-15T13:17:20Z</time>
      </trkpt>
      <trkpt lat="43.80909" lon="6.59873">
        <ele>948.3</ele>
        <time>2026-05-15T13:17:21Z</time>
      </trkpt>
      <trkpt lat="43.80902" lon="6.59855">
        <ele>948.3</ele>
        <time>2026-05-15T13:17:22Z</time>
      </trkpt>
      <trkpt lat="43.80896" lon="6.59835">
        <ele>947</ele>
        <time>2026-05-15T13:17:23Z</time>
      </trkpt>
      <trkpt lat="43.80888" lon="6.59815">
        <ele>948.3</ele>
        <time>2026-05-15T13:17:24Z</time>
      </trkpt>
      <trkpt lat="43.8088" lon="6.59797">
        <ele>949.9</ele>
        <time>2026-05-15T13:17:25Z</time>
      </trkpt>
      <trkpt lat="43.80871" lon="6.59782">
        <ele>948.8</ele>
        <time>2026-05-15T13:17:26Z</time>
      </trkpt>
      <trkpt lat="43.80861" lon="6.5977">
        <ele>949.3</ele>
        <time>2026-05-15T13:17:27Z</time>
      </trkpt>
      <trkpt lat="43.80851" lon="6.5976">
        <ele>949.8</ele>
        <time>2026-05-15T13:17:28Z</time>
      </trkpt>
      <trkpt lat="43.80843" lon="6.59751">
        <ele>950.4</ele>
        <time>2026-05-15T13:17:29Z</time>
      </trkpt>
      <trkpt lat="43.80838" lon="6.59745">
        <ele>950.9</ele>
        <time>2026-05-15T13:17:30Z</time>
      </trkpt>
      <trkpt lat="43.80833" lon="6.59739">
        <ele>951.5</ele>
        <time>2026-05-15T13:17:31Z</time>
      </trkpt>
      <trkpt lat="43.80829" lon="6.59735">
        <ele>951.9</ele>
        <time>2026-05-15T13:17:32Z</time>
      </trkpt>
      <trkpt lat="43.80826" lon="6.59732">
        <ele>952.2</ele>
        <time>2026-05-15T13:17:33Z</time>
      </trkpt>
      <trkpt lat="43.80823" lon="6.5973">
        <ele>952.6</ele>
        <time>2026-05-15T13:17:34Z</time>
      </trkpt>
      <trkpt lat="43.80822" lon="6.59727">
        <ele>952.5</ele>
        <time>2026-05-15T13:17:35Z</time>
      </trkpt>
      <trkpt lat="43.80821" lon="6.59726">
        <ele>952.6</ele>
        <time>2026-05-15T13:17:36Z</time>
      </trkpt>
      <trkpt lat="43.80821" lon="6.59725">
        <ele>952.5</ele>
        <time>2026-05-15T13:17:37Z</time>
      </trkpt>
      <trkpt lat="43.8082" lon="6.59725">
        <ele>952.7</ele>
        <time>2026-05-15T13:17:38Z</time>
      </trkpt>
      <trkpt lat="43.8082" lon="6.59725">
        <ele>952.7</ele>
        <time>2026-05-15T13:17:39Z</time>
      </trkpt>
      <trkpt lat="43.8082" lon="6.59724">
        <ele>952.6</ele>
        <time>2026-05-15T13:17:40Z</time>
      </trkpt>
      <trkpt lat="43.8082" lon="6.59725">
        <ele>952.7</ele>
        <time>2026-05-15T13:17:41Z</time>
      </trkpt>
      <trkpt lat="43.8082" lon="6.59725">
        <ele>952.7</ele>
        <time>2026-05-15T13:17:42Z</time>
      </trkpt>
      <trkpt lat="43.8082" lon="6.59725">
        <ele>952.7</ele>
        <time>2026-05-15T13:17:43Z</time>
      </trkpt>
      <trkpt lat="43.8082" lon="6.59725">
        <ele>952.7</ele>
        <time>2026-05-15T13:17:44Z</time>
      </trkpt>
      <trkpt lat="43.8082" lon="6.59725">
        <ele>952.7</ele>
        <time>2026-05-15T13:17:45Z</time>
      </trkpt>
      <trkpt lat="43.8082" lon="6.59725">
        <ele>952.7</ele>
        <time>2026-05-15T13:17:46Z</time>
      </trkpt>
      <trkpt lat="43.8082" lon="6.59725">
        <ele>952.7</ele>
        <time>2026-05-15T13:17:47Z</time>
      </trkpt>
      <trkpt lat="43.8082" lon="6.59725">
        <ele>952.7</ele>
        <time>2026-05-15T13:17:48Z</time>
      </trkpt>
      <trkpt lat="43.8082" lon="6.59725">
        <ele>952.7</ele>
        <time>2026-05-15T13:17:49Z</time>
      </trkpt>
      <trkpt lat="43.8082" lon="6.59726">
        <ele>952.8</ele>
        <time>2026-05-15T13:17:50Z</time>
      </trkpt>
      <trkpt lat="43.8082" lon="6.59726">
        <ele>952.8</ele>
        <time>2026-05-15T13:17:51Z</time>
      </trkpt>
      <trkpt lat="43.8082" lon="6.59726">
        <ele>952.8</ele>
        <time>2026-05-15T13:17:52Z</time>
      </trkpt>
      <trkpt lat="43.8082" lon="6.59726">
        <ele>952.8</ele>
        <time>2026-05-15T13:17:53Z</time>
      </trkpt>
      <trkpt lat="43.8082" lon="6.59726">
        <ele>952.8</ele>
        <time>2026-05-15T13:17:54Z</time>
      </trkpt>
      <trkpt lat="43.8082" lon="6.59726">
        <ele>952.8</ele>
        <time>2026-05-15T13:17:55Z</time>
      </trkpt>
      <trkpt lat="43.8082" lon="6.59726">
        <ele>952.8</ele>
        <time>2026-05-15T13:17:56Z</time>
      </trkpt>
      <trkpt lat="43.8082" lon="6.59726">
        <ele>952.8</ele>
        <time>2026-05-15T13:17:57Z</time>
      </trkpt>
      <trkpt lat="43.8082" lon="6.59726">
        <ele>952.8</ele>
        <time>2026-05-15T13:17:58Z</time>
      </trkpt>
      <trkpt lat="43.8082" lon="6.59726">
        <ele>952.8</ele>
        <time>2026-05-15T13:17:59Z</time>
      </trkpt>
      <trkpt lat="43.8082" lon="6.59726">
        <ele>952.8</ele>
        <time>2026-05-15T13:18:00Z</time>
      </trkpt>
      <trkpt lat="43.8082" lon="6.59726">
        <ele>952.8</ele>
        <time>2026-05-15T13:18:01Z</time>
      </trkpt>
      <trkpt lat="43.8082" lon="6.59726">
        <ele>952.8</ele>
        <time>2026-05-15T13:18:02Z</time>
      </trkpt>
      <trkpt lat="43.8082" lon="6.59726">
        <ele>952.8</ele>
        <time>2026-05-15T13:18:03Z</time>
      </trkpt>
      <trkpt lat="43.8082" lon="6.59726">
        <ele>952.8</ele>
        <time>2026-05-15T13:18:04Z</time>
      </trkpt>
      <trkpt lat="43.8082" lon="6.59726">
        <ele>952.8</ele>
        <time>2026-05-15T13:18:05Z</time>
      </trkpt>
      <trkpt lat="43.8082" lon="6.59726">
        <ele>952.8</ele>
        <time>2026-05-15T13:18:06Z</time>
      </trkpt>
      <trkpt lat="43.8082" lon="6.59726">
        <ele>952.8</ele>
        <time>2026-05-15T13:18:07Z</time>
      </trkpt>
      <trkpt lat="43.8082" lon="6.59726">
        <ele>952.8</ele>
        <time>2026-05-15T13:18:08Z</time>
      </trkpt>
      <trkpt lat="43.8082" lon="6.59726">
        <ele>952.8</ele>
        <time>2026-05-15T13:18:09Z</time>
      </trkpt>
      <trkpt lat="43.8082" lon="6.59726">
        <ele>952.8</ele>
        <time>2026-05-15T13:18:10Z</time>
      </trkpt>
      <trkpt lat="43.8082" lon="6.59726">
        <ele>952.8</ele>
        <time>2026-05-15T13:18:11Z</time>
      </trkpt>
      <trkpt lat="43.8082" lon="6.59726">
        <ele>952.8</ele>
        <time>2026-05-15T13:18:12Z</time>
      </trkpt>
      <trkpt lat="43.8082" lon="6.59726">
        <ele>952.8</ele>
        <time>2026-05-15T13:18:13Z</time>
      </trkpt>
      <trkpt lat="43.8082" lon="6.59725">
        <ele>952.7</ele>
        <time>2026-05-15T13:18:14Z</time>
      </trkpt>
      <trkpt lat="43.80819" lon="6.59724">
        <ele>952.8</ele>
        <time>2026-05-15T13:18:15Z</time>
      </trkpt>
      <trkpt lat="43.80819" lon="6.59723">
        <ele>952.7</ele>
        <time>2026-05-15T13:18:16Z</time>
      </trkpt>
      <trkpt lat="43.80818" lon="6.59721">
        <ele>952.7</ele>
        <time>2026-05-15T13:18:17Z</time>
      </trkpt>
      <trkpt lat="43.80816" lon="6.59719">
        <ele>952.9</ele>
        <time>2026-05-15T13:18:18Z</time>
      </trkpt>
      <trkpt lat="43.80814" lon="6.59715">
        <ele>953</ele>
        <time>2026-05-15T13:18:19Z</time>
      </trkpt>
      <trkpt lat="43.8081" lon="6.59707">
        <ele>953.6</ele>
        <time>2026-05-15T13:18:20Z</time>
      </trkpt>
      <trkpt lat="43.80807" lon="6.59701">
        <ele>954.6</ele>
        <time>2026-05-15T13:18:21Z</time>
      </trkpt>
      <trkpt lat="43.80802" lon="6.59694">
        <ele>955</ele>
        <time>2026-05-15T13:18:22Z</time>
      </trkpt>
      <trkpt lat="43.80796" lon="6.5969">
        <ele>954.4</ele>
        <time>2026-05-15T13:18:23Z</time>
      </trkpt>
      <trkpt lat="43.80788" lon="6.59689">
        <ele>954.6</ele>
        <time>2026-05-15T13:18:24Z</time>
      </trkpt>
      <trkpt lat="43.80781" lon="6.59695">
        <ele>956</ele>
        <time>2026-05-15T13:18:25Z</time>
      </trkpt>
      <trkpt lat="43.80773" lon="6.59707">
        <ele>956.3</ele>
        <time>2026-05-15T13:18:26Z</time>
      </trkpt>
      <trkpt lat="43.80767" lon="6.59723">
        <ele>956.7</ele>
        <time>2026-05-15T13:18:27Z</time>
      </trkpt>
      <trkpt lat="43.8076" lon="6.59739">
        <ele>957.8</ele>
        <time>2026-05-15T13:18:28Z</time>
      </trkpt>
      <trkpt lat="43.80753" lon="6.59756">
        <ele>959.7</ele>
        <time>2026-05-15T13:18:29Z</time>
      </trkpt>
      <trkpt lat="43.80745" lon="6.59774">
        <ele>960.6</ele>
        <time>2026-05-15T13:18:30Z</time>
      </trkpt>
      <trkpt lat="43.80736" lon="6.59792">
        <ele>962.1</ele>
        <time>2026-05-15T13:18:31Z</time>
      </trkpt>
      <trkpt lat="43.80725" lon="6.59812">
        <ele>964.4</ele>
        <time>2026-05-15T13:18:32Z</time>
      </trkpt>
      <trkpt lat="43.80714" lon="6.59831">
        <ele>966.3</ele>
        <time>2026-05-15T13:18:33Z</time>
      </trkpt>
      <trkpt lat="43.80701" lon="6.5985">
        <ele>967.1</ele>
        <time>2026-05-15T13:18:34Z</time>
      </trkpt>
      <trkpt lat="43.80686" lon="6.59864">
        <ele>967.3</ele>
        <time>2026-05-15T13:18:35Z</time>
      </trkpt>
      <trkpt lat="43.80669" lon="6.59874">
        <ele>968.5</ele>
        <time>2026-05-15T13:18:36Z</time>
      </trkpt>
      <trkpt lat="43.80651" lon="6.59883">
        <ele>969.4</ele>
        <time>2026-05-15T13:18:37Z</time>
      </trkpt>
      <trkpt lat="43.80635" lon="6.59896">
        <ele>972</ele>
        <time>2026-05-15T13:18:38Z</time>
      </trkpt>
      <trkpt lat="43.80621" lon="6.59912">
        <ele>973.7</ele>
        <time>2026-05-15T13:18:39Z</time>
      </trkpt>
      <trkpt lat="43.80608" lon="6.59929">
        <ele>975.6</ele>
        <time>2026-05-15T13:18:40Z</time>
      </trkpt>
      <trkpt lat="43.80599" lon="6.59944">
        <ele>977.8</ele>
        <time>2026-05-15T13:18:41Z</time>
      </trkpt>
      <trkpt lat="43.80591" lon="6.59956">
        <ele>978.1</ele>
        <time>2026-05-15T13:18:42Z</time>
      </trkpt>
      <trkpt lat="43.80585" lon="6.59965">
        <ele>977.6</ele>
        <time>2026-05-15T13:18:43Z</time>
      </trkpt>
      <trkpt lat="43.80578" lon="6.5997">
        <ele>977.6</ele>
        <time>2026-05-15T13:18:44Z</time>
      </trkpt>
      <trkpt lat="43.80571" lon="6.5997">
        <ele>977.4</ele>
        <time>2026-05-15T13:18:45Z</time>
      </trkpt>
      <trkpt lat="43.80565" lon="6.59965">
        <ele>977.3</ele>
        <time>2026-05-15T13:18:46Z</time>
      </trkpt>
      <trkpt lat="43.80563" lon="6.59954">
        <ele>977.5</ele>
        <time>2026-05-15T13:18:47Z</time>
      </trkpt>
      <trkpt lat="43.80563" lon="6.5994">
        <ele>977.8</ele>
        <time>2026-05-15T13:18:48Z</time>
      </trkpt>
      <trkpt lat="43.80563" lon="6.59925">
        <ele>978.1</ele>
        <time>2026-05-15T13:18:49Z</time>
      </trkpt>
      <trkpt lat="43.80564" lon="6.59907">
        <ele>978.6</ele>
        <time>2026-05-15T13:18:50Z</time>
      </trkpt>
      <trkpt lat="43.80565" lon="6.59888">
        <ele>979.7</ele>
        <time>2026-05-15T13:18:51Z</time>
      </trkpt>
      <trkpt lat="43.80567" lon="6.59871">
        <ele>981.3</ele>
        <time>2026-05-15T13:18:52Z</time>
      </trkpt>
      <trkpt lat="43.80572" lon="6.59854">
        <ele>982.6</ele>
        <time>2026-05-15T13:18:53Z</time>
      </trkpt>
      <trkpt lat="43.80581" lon="6.5984">
        <ele>982.6</ele>
        <time>2026-05-15T13:18:54Z</time>
      </trkpt>
      <trkpt lat="43.8059" lon="6.59827">
        <ele>984</ele>
        <time>2026-05-15T13:18:55Z</time>
      </trkpt>
      <trkpt lat="43.80602" lon="6.5982">
        <ele>984.2</ele>
        <time>2026-05-15T13:18:56Z</time>
      </trkpt>
      <trkpt lat="43.80613" lon="6.59811">
        <ele>984.4</ele>
        <time>2026-05-15T13:18:57Z</time>
      </trkpt>
      <trkpt lat="43.80622" lon="6.59801">
        <ele>984.6</ele>
        <time>2026-05-15T13:18:58Z</time>
      </trkpt>
      <trkpt lat="43.80628" lon="6.59787">
        <ele>985.8</ele>
        <time>2026-05-15T13:18:59Z</time>
      </trkpt>
      <trkpt lat="43.80632" lon="6.59773">
        <ele>986.4</ele>
        <time>2026-05-15T13:19:00Z</time>
      </trkpt>
      <trkpt lat="43.80633" lon="6.5976">
        <ele>986.6</ele>
        <time>2026-05-15T13:19:01Z</time>
      </trkpt>
      <trkpt lat="43.80632" lon="6.59749">
        <ele>987.2</ele>
        <time>2026-05-15T13:19:02Z</time>
      </trkpt>
      <trkpt lat="43.80627" lon="6.59741">
        <ele>987.6</ele>
        <time>2026-05-15T13:19:03Z</time>
      </trkpt>
      <trkpt lat="43.8062" lon="6.59737">
        <ele>988.8</ele>
        <time>2026-05-15T13:19:04Z</time>
      </trkpt>
      <trkpt lat="43.80611" lon="6.59739">
        <ele>990.6</ele>
        <time>2026-05-15T13:19:05Z</time>
      </trkpt>
      <trkpt lat="43.80603" lon="6.59746">
        <ele>991.1</ele>
        <time>2026-05-15T13:19:06Z</time>
      </trkpt>
      <trkpt lat="43.80595" lon="6.59756">
        <ele>991.9</ele>
        <time>2026-05-15T13:19:07Z</time>
      </trkpt>
      <trkpt lat="43.80587" lon="6.59766">
        <ele>992.5</ele>
        <time>2026-05-15T13:19:08Z</time>
      </trkpt>
      <trkpt lat="43.80579" lon="6.59773">
        <ele>993</ele>
        <time>2026-05-15T13:19:09Z</time>
      </trkpt>
      <trkpt lat="43.8057" lon="6.59779">
        <ele>993.4</ele>
        <time>2026-05-15T13:19:10Z</time>
      </trkpt>
      <trkpt lat="43.80559" lon="6.5978">
        <ele>993.9</ele>
        <time>2026-05-15T13:19:11Z</time>
      </trkpt>
      <trkpt lat="43.80549" lon="6.59775">
        <ele>995.3</ele>
        <time>2026-05-15T13:19:12Z</time>
      </trkpt>
      <trkpt lat="43.80541" lon="6.59765">
        <ele>996.4</ele>
        <time>2026-05-15T13:19:13Z</time>
      </trkpt>
      <trkpt lat="43.80534" lon="6.5975">
        <ele>996.3</ele>
        <time>2026-05-15T13:19:14Z</time>
      </trkpt>
      <trkpt lat="43.80527" lon="6.59734">
        <ele>997.8</ele>
        <time>2026-05-15T13:19:15Z</time>
      </trkpt>
      <trkpt lat="43.8052" lon="6.59717">
        <ele>999.6</ele>
        <time>2026-05-15T13:19:16Z</time>
      </trkpt>
      <trkpt lat="43.80515" lon="6.59697">
        <ele>999.9</ele>
        <time>2026-05-15T13:19:17Z</time>
      </trkpt>
      <trkpt lat="43.80512" lon="6.59677">
        <ele>1000.6</ele>
        <time>2026-05-15T13:19:18Z</time>
      </trkpt>
      <trkpt lat="43.80509" lon="6.59657">
        <ele>1001.6</ele>
        <time>2026-05-15T13:19:19Z</time>
      </trkpt>
      <trkpt lat="43.80508" lon="6.59636">
        <ele>1002.4</ele>
        <time>2026-05-15T13:19:20Z</time>
      </trkpt>
      <trkpt lat="43.80509" lon="6.59615">
        <ele>1003.2</ele>
        <time>2026-05-15T13:19:21Z</time>
      </trkpt>
      <trkpt lat="43.8051" lon="6.59595">
        <ele>1004.9</ele>
        <time>2026-05-15T13:19:22Z</time>
      </trkpt>
      <trkpt lat="43.80514" lon="6.59576">
        <ele>1005.8</ele>
        <time>2026-05-15T13:19:23Z</time>
      </trkpt>
      <trkpt lat="43.80517" lon="6.59558">
        <ele>1006.6</ele>
        <time>2026-05-15T13:19:24Z</time>
      </trkpt>
      <trkpt lat="43.80518" lon="6.59541">
        <ele>1007.4</ele>
        <time>2026-05-15T13:19:25Z</time>
      </trkpt>
      <trkpt lat="43.80515" lon="6.59524">
        <ele>1008.7</ele>
        <time>2026-05-15T13:19:26Z</time>
      </trkpt>
      <trkpt lat="43.80511" lon="6.59511">
        <ele>1008.5</ele>
        <time>2026-05-15T13:19:27Z</time>
      </trkpt>
      <trkpt lat="43.80505" lon="6.595">
        <ele>1008.7</ele>
        <time>2026-05-15T13:19:28Z</time>
      </trkpt>
      <trkpt lat="43.805" lon="6.5949">
        <ele>1009.6</ele>
        <time>2026-05-15T13:19:29Z</time>
      </trkpt>
      <trkpt lat="43.80494" lon="6.59481">
        <ele>1010.6</ele>
        <time>2026-05-15T13:19:30Z</time>
      </trkpt>
      <trkpt lat="43.80488" lon="6.59472">
        <ele>1010.7</ele>
        <time>2026-05-15T13:19:31Z</time>
      </trkpt>
      <trkpt lat="43.80481" lon="6.59465">
        <ele>1010.9</ele>
        <time>2026-05-15T13:19:32Z</time>
      </trkpt>
      <trkpt lat="43.80473" lon="6.59463">
        <ele>1012.2</ele>
        <time>2026-05-15T13:19:33Z</time>
      </trkpt>
      <trkpt lat="43.80466" lon="6.59465">
        <ele>1011.8</ele>
        <time>2026-05-15T13:19:34Z</time>
      </trkpt>
      <trkpt lat="43.8046" lon="6.59471">
        <ele>1012</ele>
        <time>2026-05-15T13:19:35Z</time>
      </trkpt>
      <trkpt lat="43.80455" lon="6.59482">
        <ele>1013.6</ele>
        <time>2026-05-15T13:19:36Z</time>
      </trkpt>
      <trkpt lat="43.8045" lon="6.59495">
        <ele>1015.2</ele>
        <time>2026-05-15T13:19:37Z</time>
      </trkpt>
      <trkpt lat="43.80445" lon="6.59511">
        <ele>1015.9</ele>
        <time>2026-05-15T13:19:38Z</time>
      </trkpt>
      <trkpt lat="43.8044" lon="6.59529">
        <ele>1015.8</ele>
        <time>2026-05-15T13:19:39Z</time>
      </trkpt>
      <trkpt lat="43.80434" lon="6.59548">
        <ele>1017.2</ele>
        <time>2026-05-15T13:19:40Z</time>
      </trkpt>
      <trkpt lat="43.80429" lon="6.59568">
        <ele>1018.1</ele>
        <time>2026-05-15T13:19:41Z</time>
      </trkpt>
      <trkpt lat="43.80425" lon="6.5959">
        <ele>1019.2</ele>
        <time>2026-05-15T13:19:42Z</time>
      </trkpt>
      <trkpt lat="43.80422" lon="6.59612">
        <ele>1020</ele>
        <time>2026-05-15T13:19:43Z</time>
      </trkpt>
      <trkpt lat="43.8042" lon="6.59636">
        <ele>1020.8</ele>
        <time>2026-05-15T13:19:44Z</time>
      </trkpt>
      <trkpt lat="43.80417" lon="6.59661">
        <ele>1021.7</ele>
        <time>2026-05-15T13:19:45Z</time>
      </trkpt>
      <trkpt lat="43.80414" lon="6.59687">
        <ele>1023</ele>
        <time>2026-05-15T13:19:46Z</time>
      </trkpt>
      <trkpt lat="43.80409" lon="6.59712">
        <ele>1023.8</ele>
        <time>2026-05-15T13:19:47Z</time>
      </trkpt>
      <trkpt lat="43.80403" lon="6.59736">
        <ele>1024.8</ele>
        <time>2026-05-15T13:19:48Z</time>
      </trkpt>
      <trkpt lat="43.80396" lon="6.59761">
        <ele>1025.7</ele>
        <time>2026-05-15T13:19:49Z</time>
      </trkpt>
      <trkpt lat="43.80389" lon="6.59785">
        <ele>1026.1</ele>
        <time>2026-05-15T13:19:50Z</time>
      </trkpt>
      <trkpt lat="43.80382" lon="6.59811">
        <ele>1027.5</ele>
        <time>2026-05-15T13:19:51Z</time>
      </trkpt>
      <trkpt lat="43.80375" lon="6.59837">
        <ele>1029.2</ele>
        <time>2026-05-15T13:19:52Z</time>
      </trkpt>
      <trkpt lat="43.80369" lon="6.59864">
        <ele>1031.5</ele>
        <time>2026-05-15T13:19:53Z</time>
      </trkpt>
      <trkpt lat="43.80365" lon="6.5989">
        <ele>1032.8</ele>
        <time>2026-05-15T13:19:54Z</time>
      </trkpt>
      <trkpt lat="43.80362" lon="6.59917">
        <ele>1033.4</ele>
        <time>2026-05-15T13:19:55Z</time>
      </trkpt>
      <trkpt lat="43.80359" lon="6.59943">
        <ele>1034.1</ele>
        <time>2026-05-15T13:19:56Z</time>
      </trkpt>
      <trkpt lat="43.80355" lon="6.5997">
        <ele>1034.6</ele>
        <time>2026-05-15T13:19:57Z</time>
      </trkpt>
      <trkpt lat="43.80351" lon="6.59995">
        <ele>1035.8</ele>
        <time>2026-05-15T13:19:58Z</time>
      </trkpt>
      <trkpt lat="43.80347" lon="6.60019">
        <ele>1037</ele>
        <time>2026-05-15T13:19:59Z</time>
      </trkpt>
      <trkpt lat="43.80342" lon="6.60042">
        <ele>1037.5</ele>
        <time>2026-05-15T13:20:00Z</time>
      </trkpt>
      <trkpt lat="43.80338" lon="6.60064">
        <ele>1038.3</ele>
        <time>2026-05-15T13:20:01Z</time>
      </trkpt>
      <trkpt lat="43.80333" lon="6.60085">
        <ele>1039.1</ele>
        <time>2026-05-15T13:20:02Z</time>
      </trkpt>
      <trkpt lat="43.80329" lon="6.60106">
        <ele>1040.4</ele>
        <time>2026-05-15T13:20:03Z</time>
      </trkpt>
      <trkpt lat="43.80325" lon="6.60127">
        <ele>1041.7</ele>
        <time>2026-05-15T13:20:04Z</time>
      </trkpt>
      <trkpt lat="43.8032" lon="6.60147">
        <ele>1042.4</ele>
        <time>2026-05-15T13:20:05Z</time>
      </trkpt>
      <trkpt lat="43.80316" lon="6.60168">
        <ele>1043.9</ele>
        <time>2026-05-15T13:20:06Z</time>
      </trkpt>
      <trkpt lat="43.80311" lon="6.60189">
        <ele>1044.5</ele>
        <time>2026-05-15T13:20:07Z</time>
      </trkpt>
      <trkpt lat="43.80307" lon="6.6021">
        <ele>1045.4</ele>
        <time>2026-05-15T13:20:08Z</time>
      </trkpt>
      <trkpt lat="43.80302" lon="6.60231">
        <ele>1045.1</ele>
        <time>2026-05-15T13:20:09Z</time>
      </trkpt>
      <trkpt lat="43.80298" lon="6.60252">
        <ele>1045.3</ele>
        <time>2026-05-15T13:20:10Z</time>
      </trkpt>
      <trkpt lat="43.80293" lon="6.60274">
        <ele>1046.5</ele>
        <time>2026-05-15T13:20:11Z</time>
      </trkpt>
      <trkpt lat="43.80288" lon="6.60295">
        <ele>1047.5</ele>
        <time>2026-05-15T13:20:12Z</time>
      </trkpt>
      <trkpt lat="43.80283" lon="6.60316">
        <ele>1048.5</ele>
        <time>2026-05-15T13:20:13Z</time>
      </trkpt>
      <trkpt lat="43.80279" lon="6.60337">
        <ele>1050</ele>
        <time>2026-05-15T13:20:14Z</time>
      </trkpt>
      <trkpt lat="43.80274" lon="6.60359">
        <ele>1050.9</ele>
        <time>2026-05-15T13:20:15Z</time>
      </trkpt>
      <trkpt lat="43.8027" lon="6.60381">
        <ele>1051.5</ele>
        <time>2026-05-15T13:20:16Z</time>
      </trkpt>
      <trkpt lat="43.80267" lon="6.60403">
        <ele>1052.8</ele>
        <time>2026-05-15T13:20:17Z</time>
      </trkpt>
      <trkpt lat="43.80264" lon="6.60425">
        <ele>1054</ele>
        <time>2026-05-15T13:20:18Z</time>
      </trkpt>
      <trkpt lat="43.80261" lon="6.60447">
        <ele>1055.1</ele>
        <time>2026-05-15T13:20:19Z</time>
      </trkpt>
      <trkpt lat="43.80259" lon="6.60468">
        <ele>1056.7</ele>
        <time>2026-05-15T13:20:20Z</time>
      </trkpt>
      <trkpt lat="43.80257" lon="6.60488">
        <ele>1057.8</ele>
        <time>2026-05-15T13:20:21Z</time>
      </trkpt>
      <trkpt lat="43.80255" lon="6.60507">
        <ele>1058.7</ele>
        <time>2026-05-15T13:20:22Z</time>
      </trkpt>
      <trkpt lat="43.80252" lon="6.60526">
        <ele>1058.8</ele>
        <time>2026-05-15T13:20:23Z</time>
      </trkpt>
      <trkpt lat="43.8025" lon="6.60543">
        <ele>1058.5</ele>
        <time>2026-05-15T13:20:24Z</time>
      </trkpt>
      <trkpt lat="43.80248" lon="6.6056">
        <ele>1058.3</ele>
        <time>2026-05-15T13:20:25Z</time>
      </trkpt>
      <trkpt lat="43.80246" lon="6.60576">
        <ele>1058.6</ele>
        <time>2026-05-15T13:20:26Z</time>
      </trkpt>
      <trkpt lat="43.80244" lon="6.60592">
        <ele>1058.7</ele>
        <time>2026-05-15T13:20:27Z</time>
      </trkpt>
      <trkpt lat="43.80243" lon="6.60608">
        <ele>1059.3</ele>
        <time>2026-05-15T13:20:28Z</time>
      </trkpt>
      <trkpt lat="43.80243" lon="6.60626">
        <ele>1059.9</ele>
        <time>2026-05-15T13:20:29Z</time>
      </trkpt>
      <trkpt lat="43.80245" lon="6.60643">
        <ele>1060.9</ele>
        <time>2026-05-15T13:20:30Z</time>
      </trkpt>
      <trkpt lat="43.8025" lon="6.6066">
        <ele>1061.7</ele>
        <time>2026-05-15T13:20:31Z</time>
      </trkpt>
      <trkpt lat="43.80258" lon="6.60676">
        <ele>1062.4</ele>
        <time>2026-05-15T13:20:32Z</time>
      </trkpt>
      <trkpt lat="43.80266" lon="6.60693">
        <ele>1062.2</ele>
        <time>2026-05-15T13:20:33Z</time>
      </trkpt>
      <trkpt lat="43.80274" lon="6.6071">
        <ele>1064.7</ele>
        <time>2026-05-15T13:20:34Z</time>
      </trkpt>
      <trkpt lat="43.80279" lon="6.6073">
        <ele>1066.9</ele>
        <time>2026-05-15T13:20:35Z</time>
      </trkpt>
      <trkpt lat="43.80281" lon="6.60752">
        <ele>1068.8</ele>
        <time>2026-05-15T13:20:36Z</time>
      </trkpt>
      <trkpt lat="43.80279" lon="6.60774">
        <ele>1068.6</ele>
        <time>2026-05-15T13:20:37Z</time>
      </trkpt>
      <trkpt lat="43.80275" lon="6.60796">
        <ele>1068.2</ele>
        <time>2026-05-15T13:20:38Z</time>
      </trkpt>
      <trkpt lat="43.80273" lon="6.60817">
        <ele>1068.8</ele>
        <time>2026-05-15T13:20:39Z</time>
      </trkpt>
      <trkpt lat="43.80273" lon="6.60838">
        <ele>1069.6</ele>
        <time>2026-05-15T13:20:40Z</time>
      </trkpt>
      <trkpt lat="43.80277" lon="6.60859">
        <ele>1070.7</ele>
        <time>2026-05-15T13:20:41Z</time>
      </trkpt>
      <trkpt lat="43.80283" lon="6.60879">
        <ele>1072.4</ele>
        <time>2026-05-15T13:20:42Z</time>
      </trkpt>
      <trkpt lat="43.8029" lon="6.609">
        <ele>1073.2</ele>
        <time>2026-05-15T13:20:43Z</time>
      </trkpt>
      <trkpt lat="43.80297" lon="6.60922">
        <ele>1073.7</ele>
        <time>2026-05-15T13:20:44Z</time>
      </trkpt>
      <trkpt lat="43.80304" lon="6.60943">
        <ele>1075.4</ele>
        <time>2026-05-15T13:20:45Z</time>
      </trkpt>
      <trkpt lat="43.80311" lon="6.60963">
        <ele>1077.6</ele>
        <time>2026-05-15T13:20:46Z</time>
      </trkpt>
      <trkpt lat="43.80317" lon="6.60984">
        <ele>1078.4</ele>
        <time>2026-05-15T13:20:47Z</time>
      </trkpt>
      <trkpt lat="43.80324" lon="6.61004">
        <ele>1079.4</ele>
        <time>2026-05-15T13:20:48Z</time>
      </trkpt>
      <trkpt lat="43.8033" lon="6.61024">
        <ele>1078.6</ele>
        <time>2026-05-15T13:20:49Z</time>
      </trkpt>
      <trkpt lat="43.80336" lon="6.61044">
        <ele>1080</ele>
        <time>2026-05-15T13:20:50Z</time>
      </trkpt>
      <trkpt lat="43.80341" lon="6.61063">
        <ele>1081.3</ele>
        <time>2026-05-15T13:20:51Z</time>
      </trkpt>
      <trkpt lat="43.80343" lon="6.61084">
        <ele>1081.6</ele>
        <time>2026-05-15T13:20:52Z</time>
      </trkpt>
      <trkpt lat="43.8034" lon="6.61105">
        <ele>1083.5</ele>
        <time>2026-05-15T13:20:53Z</time>
      </trkpt>
      <trkpt lat="43.80336" lon="6.61127">
        <ele>1083.8</ele>
        <time>2026-05-15T13:20:54Z</time>
      </trkpt>
      <trkpt lat="43.80332" lon="6.61148">
        <ele>1083.6</ele>
        <time>2026-05-15T13:20:55Z</time>
      </trkpt>
      <trkpt lat="43.80328" lon="6.61171">
        <ele>1084.4</ele>
        <time>2026-05-15T13:20:56Z</time>
      </trkpt>
      <trkpt lat="43.80327" lon="6.61194">
        <ele>1084.7</ele>
        <time>2026-05-15T13:20:57Z</time>
      </trkpt>
      <trkpt lat="43.80328" lon="6.61218">
        <ele>1085.3</ele>
        <time>2026-05-15T13:20:58Z</time>
      </trkpt>
      <trkpt lat="43.8033" lon="6.61242">
        <ele>1086.1</ele>
        <time>2026-05-15T13:20:59Z</time>
      </trkpt>
      <trkpt lat="43.80332" lon="6.61266">
        <ele>1087.7</ele>
        <time>2026-05-15T13:21:00Z</time>
      </trkpt>
      <trkpt lat="43.80334" lon="6.61288">
        <ele>1090.1</ele>
        <time>2026-05-15T13:21:01Z</time>
      </trkpt>
      <trkpt lat="43.80334" lon="6.61308">
        <ele>1091.4</ele>
        <time>2026-05-15T13:21:02Z</time>
      </trkpt>
      <trkpt lat="43.80332" lon="6.61327">
        <ele>1091.3</ele>
        <time>2026-05-15T13:21:03Z</time>
      </trkpt>
      <trkpt lat="43.80326" lon="6.61344">
        <ele>1092.2</ele>
        <time>2026-05-15T13:21:04Z</time>
      </trkpt>
      <trkpt lat="43.80318" lon="6.61361">
        <ele>1094.8</ele>
        <time>2026-05-15T13:21:05Z</time>
      </trkpt>
      <trkpt lat="43.80311" lon="6.61378">
        <ele>1095.5</ele>
        <time>2026-05-15T13:21:06Z</time>
      </trkpt>
      <trkpt lat="43.80304" lon="6.61396">
        <ele>1095.4</ele>
        <time>2026-05-15T13:21:07Z</time>
      </trkpt>
      <trkpt lat="43.80299" lon="6.61415">
        <ele>1097</ele>
        <time>2026-05-15T13:21:08Z</time>
      </trkpt>
      <trkpt lat="43.80293" lon="6.61434">
        <ele>1099.2</ele>
        <time>2026-05-15T13:21:09Z</time>
      </trkpt>
      <trkpt lat="43.80285" lon="6.61453">
        <ele>1099.7</ele>
        <time>2026-05-15T13:21:10Z</time>
      </trkpt>
      <trkpt lat="43.80278" lon="6.61472">
        <ele>1099.1</ele>
        <time>2026-05-15T13:21:11Z</time>
      </trkpt>
      <trkpt lat="43.8027" lon="6.6149">
        <ele>1101.1</ele>
        <time>2026-05-15T13:21:12Z</time>
      </trkpt>
      <trkpt lat="43.80263" lon="6.61507">
        <ele>1102.7</ele>
        <time>2026-05-15T13:21:13Z</time>
      </trkpt>
      <trkpt lat="43.80257" lon="6.61524">
        <ele>1103.7</ele>
        <time>2026-05-15T13:21:14Z</time>
      </trkpt>
      <trkpt lat="43.80252" lon="6.6154">
        <ele>1103.9</ele>
        <time>2026-05-15T13:21:15Z</time>
      </trkpt>
      <trkpt lat="43.80248" lon="6.61556">
        <ele>1103.5</ele>
        <time>2026-05-15T13:21:16Z</time>
      </trkpt>
      <trkpt lat="43.80244" lon="6.61572">
        <ele>1104.6</ele>
        <time>2026-05-15T13:21:17Z</time>
      </trkpt>
      <trkpt lat="43.80239" lon="6.61588">
        <ele>1105.8</ele>
        <time>2026-05-15T13:21:18Z</time>
      </trkpt>
      <trkpt lat="43.80235" lon="6.61604">
        <ele>1106.3</ele>
        <time>2026-05-15T13:21:19Z</time>
      </trkpt>
      <trkpt lat="43.80232" lon="6.61621">
        <ele>1106.1</ele>
        <time>2026-05-15T13:21:20Z</time>
      </trkpt>
      <trkpt lat="43.80228" lon="6.6164">
        <ele>1104.9</ele>
        <time>2026-05-15T13:21:21Z</time>
      </trkpt>
      <trkpt lat="43.80227" lon="6.61659">
        <ele>1104.5</ele>
        <time>2026-05-15T13:21:22Z</time>
      </trkpt>
      <trkpt lat="43.80227" lon="6.6168">
        <ele>1104</ele>
        <time>2026-05-15T13:21:23Z</time>
      </trkpt>
      <trkpt lat="43.8023" lon="6.617">
        <ele>1103.8</ele>
        <time>2026-05-15T13:21:24Z</time>
      </trkpt>
      <trkpt lat="43.80235" lon="6.61719">
        <ele>1103.2</ele>
        <time>2026-05-15T13:21:25Z</time>
      </trkpt>
      <trkpt lat="43.80243" lon="6.61736">
        <ele>1103.2</ele>
        <time>2026-05-15T13:21:26Z</time>
      </trkpt>
      <trkpt lat="43.80251" lon="6.61752">
        <ele>1103.3</ele>
        <time>2026-05-15T13:21:27Z</time>
      </trkpt>
      <trkpt lat="43.80259" lon="6.61767">
        <ele>1104.7</ele>
        <time>2026-05-15T13:21:28Z</time>
      </trkpt>
      <trkpt lat="43.80265" lon="6.61784">
        <ele>1104.4</ele>
        <time>2026-05-15T13:21:29Z</time>
      </trkpt>
      <trkpt lat="43.8027" lon="6.618">
        <ele>1104.4</ele>
        <time>2026-05-15T13:21:30Z</time>
      </trkpt>
      <trkpt lat="43.80271" lon="6.61817">
        <ele>1105.5</ele>
        <time>2026-05-15T13:21:31Z</time>
      </trkpt>
      <trkpt lat="43.80267" lon="6.61834">
        <ele>1106.3</ele>
        <time>2026-05-15T13:21:32Z</time>
      </trkpt>
      <trkpt lat="43.80262" lon="6.61851">
        <ele>1105.9</ele>
        <time>2026-05-15T13:21:33Z</time>
      </trkpt>
      <trkpt lat="43.80257" lon="6.61868">
        <ele>1105.4</ele>
        <time>2026-05-15T13:21:34Z</time>
      </trkpt>
      <trkpt lat="43.80251" lon="6.61883">
        <ele>1104.1</ele>
        <time>2026-05-15T13:21:35Z</time>
      </trkpt>
      <trkpt lat="43.80245" lon="6.61897">
        <ele>1104.3</ele>
        <time>2026-05-15T13:21:36Z</time>
      </trkpt>
      <trkpt lat="43.80239" lon="6.6191">
        <ele>1104.6</ele>
        <time>2026-05-15T13:21:37Z</time>
      </trkpt>
      <trkpt lat="43.8023" lon="6.6192">
        <ele>1102.5</ele>
        <time>2026-05-15T13:21:38Z</time>
      </trkpt>
      <trkpt lat="43.8022" lon="6.61924">
        <ele>1101</ele>
        <time>2026-05-15T13:21:39Z</time>
      </trkpt>
      <trkpt lat="43.8021" lon="6.61924">
        <ele>1102.9</ele>
        <time>2026-05-15T13:21:40Z</time>
      </trkpt>
      <trkpt lat="43.80198" lon="6.61919">
        <ele>1103.4</ele>
        <time>2026-05-15T13:21:41Z</time>
      </trkpt>
      <trkpt lat="43.80187" lon="6.6191">
        <ele>1102.9</ele>
        <time>2026-05-15T13:21:42Z</time>
      </trkpt>
      <trkpt lat="43.80176" lon="6.619">
        <ele>1103.1</ele>
        <time>2026-05-15T13:21:43Z</time>
      </trkpt>
      <trkpt lat="43.80164" lon="6.61893">
        <ele>1104.3</ele>
        <time>2026-05-15T13:21:44Z</time>
      </trkpt>
      <trkpt lat="43.80151" lon="6.6189">
        <ele>1104</ele>
        <time>2026-05-15T13:21:45Z</time>
      </trkpt>
      <trkpt lat="43.80138" lon="6.61892">
        <ele>1105.2</ele>
        <time>2026-05-15T13:21:46Z</time>
      </trkpt>
      <trkpt lat="43.80126" lon="6.61899">
        <ele>1105.5</ele>
        <time>2026-05-15T13:21:47Z</time>
      </trkpt>
      <trkpt lat="43.80115" lon="6.6191">
        <ele>1104.7</ele>
        <time>2026-05-15T13:21:48Z</time>
      </trkpt>
      <trkpt lat="43.80107" lon="6.61925">
        <ele>1104.9</ele>
        <time>2026-05-15T13:21:49Z</time>
      </trkpt>
      <trkpt lat="43.80099" lon="6.61941">
        <ele>1105.5</ele>
        <time>2026-05-15T13:21:50Z</time>
      </trkpt>
      <trkpt lat="43.80092" lon="6.61956">
        <ele>1105</ele>
        <time>2026-05-15T13:21:51Z</time>
      </trkpt>
      <trkpt lat="43.80084" lon="6.61971">
        <ele>1103.2</ele>
        <time>2026-05-15T13:21:52Z</time>
      </trkpt>
      <trkpt lat="43.80076" lon="6.61986">
        <ele>1102.7</ele>
        <time>2026-05-15T13:21:53Z</time>
      </trkpt>
      <trkpt lat="43.80069" lon="6.62002">
        <ele>1103.8</ele>
        <time>2026-05-15T13:21:54Z</time>
      </trkpt>
      <trkpt lat="43.80065" lon="6.6202">
        <ele>1106.4</ele>
        <time>2026-05-15T13:21:55Z</time>
      </trkpt>
      <trkpt lat="43.80063" lon="6.62038">
        <ele>1107.1</ele>
        <time>2026-05-15T13:21:56Z</time>
      </trkpt>
      <trkpt lat="43.80064" lon="6.62056">
        <ele>1107.5</ele>
        <time>2026-05-15T13:21:57Z</time>
      </trkpt>
      <trkpt lat="43.80067" lon="6.62072">
        <ele>1107.1</ele>
        <time>2026-05-15T13:21:58Z</time>
      </trkpt>
      <trkpt lat="43.80073" lon="6.62085">
        <ele>1106.2</ele>
        <time>2026-05-15T13:21:59Z</time>
      </trkpt>
      <trkpt lat="43.80081" lon="6.62098">
        <ele>1105.1</ele>
        <time>2026-05-15T13:22:00Z</time>
      </trkpt>
      <trkpt lat="43.80089" lon="6.62108">
        <ele>1104.5</ele>
        <time>2026-05-15T13:22:01Z</time>
      </trkpt>
      <trkpt lat="43.80099" lon="6.62116">
        <ele>1104.1</ele>
        <time>2026-05-15T13:22:02Z</time>
      </trkpt>
      <trkpt lat="43.80108" lon="6.62124">
        <ele>1104</ele>
        <time>2026-05-15T13:22:03Z</time>
      </trkpt>
      <trkpt lat="43.80118" lon="6.62132">
        <ele>1104.3</ele>
        <time>2026-05-15T13:22:04Z</time>
      </trkpt>
      <trkpt lat="43.80127" lon="6.6214">
        <ele>1103.6</ele>
        <time>2026-05-15T13:22:05Z</time>
      </trkpt>
      <trkpt lat="43.80136" lon="6.62149">
        <ele>1103.9</ele>
        <time>2026-05-15T13:22:06Z</time>
      </trkpt>
      <trkpt lat="43.80144" lon="6.62159">
        <ele>1105.3</ele>
        <time>2026-05-15T13:22:07Z</time>
      </trkpt>
      <trkpt lat="43.8015" lon="6.6217">
        <ele>1106.4</ele>
        <time>2026-05-15T13:22:08Z</time>
      </trkpt>
      <trkpt lat="43.80154" lon="6.62181">
        <ele>1106.5</ele>
        <time>2026-05-15T13:22:09Z</time>
      </trkpt>
      <trkpt lat="43.80158" lon="6.62193">
        <ele>1105.9</ele>
        <time>2026-05-15T13:22:10Z</time>
      </trkpt>
      <trkpt lat="43.8016" lon="6.62206">
        <ele>1105.4</ele>
        <time>2026-05-15T13:22:11Z</time>
      </trkpt>
      <trkpt lat="43.80161" lon="6.6222">
        <ele>1104.7</ele>
        <time>2026-05-15T13:22:12Z</time>
      </trkpt>
      <trkpt lat="43.80161" lon="6.62234">
        <ele>1105.5</ele>
        <time>2026-05-15T13:22:13Z</time>
      </trkpt>
      <trkpt lat="43.80158" lon="6.62249">
        <ele>1106.1</ele>
        <time>2026-05-15T13:22:14Z</time>
      </trkpt>
      <trkpt lat="43.80154" lon="6.62264">
        <ele>1107.1</ele>
        <time>2026-05-15T13:22:15Z</time>
      </trkpt>
      <trkpt lat="43.80148" lon="6.62278">
        <ele>1106.6</ele>
        <time>2026-05-15T13:22:16Z</time>
      </trkpt>
      <trkpt lat="43.80141" lon="6.6229">
        <ele>1105.3</ele>
        <time>2026-05-15T13:22:17Z</time>
      </trkpt>
      <trkpt lat="43.80131" lon="6.62301">
        <ele>1103.4</ele>
        <time>2026-05-15T13:22:18Z</time>
      </trkpt>
      <trkpt lat="43.8012" lon="6.62309">
        <ele>1101.9</ele>
        <time>2026-05-15T13:22:19Z</time>
      </trkpt>
      <trkpt lat="43.80108" lon="6.62314">
        <ele>1101</ele>
        <time>2026-05-15T13:22:20Z</time>
      </trkpt>
      <trkpt lat="43.80095" lon="6.62317">
        <ele>1102.7</ele>
        <time>2026-05-15T13:22:21Z</time>
      </trkpt>
      <trkpt lat="43.80081" lon="6.62316">
        <ele>1103.6</ele>
        <time>2026-05-15T13:22:22Z</time>
      </trkpt>
      <trkpt lat="43.80068" lon="6.62311">
        <ele>1103.7</ele>
        <time>2026-05-15T13:22:23Z</time>
      </trkpt>
      <trkpt lat="43.80056" lon="6.62306">
        <ele>1103.2</ele>
        <time>2026-05-15T13:22:24Z</time>
      </trkpt>
      <trkpt lat="43.80044" lon="6.62302">
        <ele>1102.1</ele>
        <time>2026-05-15T13:22:25Z</time>
      </trkpt>
      <trkpt lat="43.80033" lon="6.623">
        <ele>1102.3</ele>
        <time>2026-05-15T13:22:26Z</time>
      </trkpt>
      <trkpt lat="43.80022" lon="6.62303">
        <ele>1103.2</ele>
        <time>2026-05-15T13:22:27Z</time>
      </trkpt>
      <trkpt lat="43.80011" lon="6.62308">
        <ele>1104.1</ele>
        <time>2026-05-15T13:22:28Z</time>
      </trkpt>
      <trkpt lat="43.80002" lon="6.62315">
        <ele>1105.2</ele>
        <time>2026-05-15T13:22:29Z</time>
      </trkpt>
      <trkpt lat="43.79993" lon="6.62323">
        <ele>1105.1</ele>
        <time>2026-05-15T13:22:30Z</time>
      </trkpt>
      <trkpt lat="43.79985" lon="6.62329">
        <ele>1104.7</ele>
        <time>2026-05-15T13:22:31Z</time>
      </trkpt>
      <trkpt lat="43.79977" lon="6.62335">
        <ele>1104.5</ele>
        <time>2026-05-15T13:22:32Z</time>
      </trkpt>
      <trkpt lat="43.79968" lon="6.62338">
        <ele>1104.2</ele>
        <time>2026-05-15T13:22:33Z</time>
      </trkpt>
      <trkpt lat="43.79959" lon="6.62339">
        <ele>1104.4</ele>
        <time>2026-05-15T13:22:34Z</time>
      </trkpt>
      <trkpt lat="43.79949" lon="6.62337">
        <ele>1103.9</ele>
        <time>2026-05-15T13:22:35Z</time>
      </trkpt>
      <trkpt lat="43.79939" lon="6.62331">
        <ele>1103.7</ele>
        <time>2026-05-15T13:22:36Z</time>
      </trkpt>
      <trkpt lat="43.79931" lon="6.62323">
        <ele>1103.6</ele>
        <time>2026-05-15T13:22:37Z</time>
      </trkpt>
      <trkpt lat="43.79923" lon="6.62313">
        <ele>1103.1</ele>
        <time>2026-05-15T13:22:38Z</time>
      </trkpt>
      <trkpt lat="43.79915" lon="6.62304">
        <ele>1103</ele>
        <time>2026-05-15T13:22:39Z</time>
      </trkpt>
      <trkpt lat="43.79907" lon="6.62298">
        <ele>1103.2</ele>
        <time>2026-05-15T13:22:40Z</time>
      </trkpt>
      <trkpt lat="43.79897" lon="6.62295">
        <ele>1104.5</ele>
        <time>2026-05-15T13:22:41Z</time>
      </trkpt>
      <trkpt lat="43.79888" lon="6.62294">
        <ele>1105.6</ele>
        <time>2026-05-15T13:22:42Z</time>
      </trkpt>
      <trkpt lat="43.79877" lon="6.62297">
        <ele>1104</ele>
        <time>2026-05-15T13:22:43Z</time>
      </trkpt>
      <trkpt lat="43.79867" lon="6.62303">
        <ele>1103.4</ele>
        <time>2026-05-15T13:22:44Z</time>
      </trkpt>
      <trkpt lat="43.79857" lon="6.62311">
        <ele>1103.7</ele>
        <time>2026-05-15T13:22:45Z</time>
      </trkpt>
      <trkpt lat="43.79846" lon="6.62321">
        <ele>1103.8</ele>
        <time>2026-05-15T13:22:46Z</time>
      </trkpt>
      <trkpt lat="43.79836" lon="6.62331">
        <ele>1103.3</ele>
        <time>2026-05-15T13:22:47Z</time>
      </trkpt>
      <trkpt lat="43.79826" lon="6.62342">
        <ele>1103.1</ele>
        <time>2026-05-15T13:22:48Z</time>
      </trkpt>
      <trkpt lat="43.79816" lon="6.62353">
        <ele>1103</ele>
        <time>2026-05-15T13:22:49Z</time>
      </trkpt>
      <trkpt lat="43.79805" lon="6.62364">
        <ele>1102.5</ele>
        <time>2026-05-15T13:22:50Z</time>
      </trkpt>
      <trkpt lat="43.79796" lon="6.62374">
        <ele>1102.2</ele>
        <time>2026-05-15T13:22:51Z</time>
      </trkpt>
      <trkpt lat="43.79786" lon="6.62384">
        <ele>1101.9</ele>
        <time>2026-05-15T13:22:52Z</time>
      </trkpt>
      <trkpt lat="43.79775" lon="6.62393">
        <ele>1101.8</ele>
        <time>2026-05-15T13:22:53Z</time>
      </trkpt>
      <trkpt lat="43.79765" lon="6.62402">
        <ele>1102.1</ele>
        <time>2026-05-15T13:22:54Z</time>
      </trkpt>
      <trkpt lat="43.79756" lon="6.62412">
        <ele>1102</ele>
        <time>2026-05-15T13:22:55Z</time>
      </trkpt>
      <trkpt lat="43.79748" lon="6.62425">
        <ele>1101</ele>
        <time>2026-05-15T13:22:56Z</time>
      </trkpt>
      <trkpt lat="43.79743" lon="6.62442">
        <ele>1100.6</ele>
        <time>2026-05-15T13:22:57Z</time>
      </trkpt>
      <trkpt lat="43.7974" lon="6.62462">
        <ele>1099.9</ele>
        <time>2026-05-15T13:22:58Z</time>
      </trkpt>
      <trkpt lat="43.79739" lon="6.62483">
        <ele>1098.6</ele>
        <time>2026-05-15T13:22:59Z</time>
      </trkpt>
      <trkpt lat="43.79738" lon="6.62506">
        <ele>1097.1</ele>
        <time>2026-05-15T13:23:00Z</time>
      </trkpt>
      <trkpt lat="43.79737" lon="6.6253">
        <ele>1098.7</ele>
        <time>2026-05-15T13:23:01Z</time>
      </trkpt>
      <trkpt lat="43.79737" lon="6.62553">
        <ele>1099.6</ele>
        <time>2026-05-15T13:23:02Z</time>
      </trkpt>
      <trkpt lat="43.79736" lon="6.62578">
        <ele>1100.7</ele>
        <time>2026-05-15T13:23:03Z</time>
      </trkpt>
      <trkpt lat="43.79735" lon="6.62605">
        <ele>1097.7</ele>
        <time>2026-05-15T13:23:04Z</time>
      </trkpt>
      <trkpt lat="43.79735" lon="6.62631">
        <ele>1092.2</ele>
        <time>2026-05-15T13:23:05Z</time>
      </trkpt>
      <trkpt lat="43.79734" lon="6.62657">
        <ele>1088.8</ele>
        <time>2026-05-15T13:23:06Z</time>
      </trkpt>
      <trkpt lat="43.79733" lon="6.62684">
        <ele>1089.7</ele>
        <time>2026-05-15T13:23:07Z</time>
      </trkpt>
      <trkpt lat="43.79732" lon="6.62711">
        <ele>1091.3</ele>
        <time>2026-05-15T13:23:08Z</time>
      </trkpt>
      <trkpt lat="43.79732" lon="6.62738">
        <ele>1091</ele>
        <time>2026-05-15T13:23:09Z</time>
      </trkpt>
      <trkpt lat="43.79731" lon="6.62766">
        <ele>1088.9</ele>
        <time>2026-05-15T13:23:10Z</time>
      </trkpt>
      <trkpt lat="43.7973" lon="6.62793">
        <ele>1087.5</ele>
        <time>2026-05-15T13:23:11Z</time>
      </trkpt>
      <trkpt lat="43.79729" lon="6.62819">
        <ele>1086.3</ele>
        <time>2026-05-15T13:23:12Z</time>
      </trkpt>
      <trkpt lat="43.79729" lon="6.62845">
        <ele>1084.8</ele>
        <time>2026-05-15T13:23:13Z</time>
      </trkpt>
      <trkpt lat="43.79728" lon="6.62871">
        <ele>1084.7</ele>
        <time>2026-05-15T13:23:14Z</time>
      </trkpt>
      <trkpt lat="43.79728" lon="6.62897">
        <ele>1084.9</ele>
        <time>2026-05-15T13:23:15Z</time>
      </trkpt>
      <trkpt lat="43.79727" lon="6.62921">
        <ele>1083.9</ele>
        <time>2026-05-15T13:23:16Z</time>
      </trkpt>
      <trkpt lat="43.79727" lon="6.62943">
        <ele>1083.9</ele>
        <time>2026-05-15T13:23:17Z</time>
      </trkpt>
      <trkpt lat="43.79726" lon="6.62964">
        <ele>1083.1</ele>
        <time>2026-05-15T13:23:18Z</time>
      </trkpt>
      <trkpt lat="43.79725" lon="6.62984">
        <ele>1082.6</ele>
        <time>2026-05-15T13:23:19Z</time>
      </trkpt>
      <trkpt lat="43.79724" lon="6.63005">
        <ele>1082.4</ele>
        <time>2026-05-15T13:23:20Z</time>
      </trkpt>
      <trkpt lat="43.79723" lon="6.63025">
        <ele>1082.2</ele>
        <time>2026-05-15T13:23:21Z</time>
      </trkpt>
      <trkpt lat="43.7972" lon="6.63046">
        <ele>1081.5</ele>
        <time>2026-05-15T13:23:22Z</time>
      </trkpt>
      <trkpt lat="43.79716" lon="6.63067">
        <ele>1080.7</ele>
        <time>2026-05-15T13:23:23Z</time>
      </trkpt>
      <trkpt lat="43.79711" lon="6.63088">
        <ele>1080.1</ele>
        <time>2026-05-15T13:23:24Z</time>
      </trkpt>
      <trkpt lat="43.79705" lon="6.63108">
        <ele>1080</ele>
        <time>2026-05-15T13:23:25Z</time>
      </trkpt>
      <trkpt lat="43.79697" lon="6.63127">
        <ele>1079.8</ele>
        <time>2026-05-15T13:23:26Z</time>
      </trkpt>
      <trkpt lat="43.79688" lon="6.63145">
        <ele>1079.8</ele>
        <time>2026-05-15T13:23:27Z</time>
      </trkpt>
      <trkpt lat="43.79679" lon="6.63162">
        <ele>1079.9</ele>
        <time>2026-05-15T13:23:28Z</time>
      </trkpt>
      <trkpt lat="43.79667" lon="6.63179">
        <ele>1080</ele>
        <time>2026-05-15T13:23:29Z</time>
      </trkpt>
      <trkpt lat="43.79656" lon="6.63194">
        <ele>1080.4</ele>
        <time>2026-05-15T13:23:30Z</time>
      </trkpt>
      <trkpt lat="43.79644" lon="6.6321">
        <ele>1080.8</ele>
        <time>2026-05-15T13:23:31Z</time>
      </trkpt>
      <trkpt lat="43.79632" lon="6.63226">
        <ele>1081.1</ele>
        <time>2026-05-15T13:23:32Z</time>
      </trkpt>
      <trkpt lat="43.79621" lon="6.63242">
        <ele>1081.4</ele>
        <time>2026-05-15T13:23:33Z</time>
      </trkpt>
      <trkpt lat="43.79609" lon="6.63257">
        <ele>1082.1</ele>
        <time>2026-05-15T13:23:34Z</time>
      </trkpt>
      <trkpt lat="43.79598" lon="6.63273">
        <ele>1082.6</ele>
        <time>2026-05-15T13:23:35Z</time>
      </trkpt>
      <trkpt lat="43.79586" lon="6.63289">
        <ele>1082.5</ele>
        <time>2026-05-15T13:23:36Z</time>
      </trkpt>
      <trkpt lat="43.79574" lon="6.63305">
        <ele>1082</ele>
        <time>2026-05-15T13:23:37Z</time>
      </trkpt>
      <trkpt lat="43.79562" lon="6.63322">
        <ele>1081.9</ele>
        <time>2026-05-15T13:23:38Z</time>
      </trkpt>
      <trkpt lat="43.7955" lon="6.63338">
        <ele>1081.2</ele>
        <time>2026-05-15T13:23:39Z</time>
      </trkpt>
      <trkpt lat="43.79538" lon="6.63353">
        <ele>1080.5</ele>
        <time>2026-05-15T13:23:40Z</time>
      </trkpt>
      <trkpt lat="43.79527" lon="6.63368">
        <ele>1080.7</ele>
        <time>2026-05-15T13:23:41Z</time>
      </trkpt>
      <trkpt lat="43.79516" lon="6.63383">
        <ele>1079.2</ele>
        <time>2026-05-15T13:23:42Z</time>
      </trkpt>
      <trkpt lat="43.79505" lon="6.63397">
        <ele>1078.5</ele>
        <time>2026-05-15T13:23:43Z</time>
      </trkpt>
      <trkpt lat="43.79493" lon="6.63413">
        <ele>1077.9</ele>
        <time>2026-05-15T13:23:44Z</time>
      </trkpt>
      <trkpt lat="43.79481" lon="6.63428">
        <ele>1076.8</ele>
        <time>2026-05-15T13:23:45Z</time>
      </trkpt>
      <trkpt lat="43.79468" lon="6.63443">
        <ele>1076.3</ele>
        <time>2026-05-15T13:23:46Z</time>
      </trkpt>
      <trkpt lat="43.79453" lon="6.63457">
        <ele>1074.9</ele>
        <time>2026-05-15T13:23:47Z</time>
      </trkpt>
      <trkpt lat="43.79437" lon="6.63468">
        <ele>1074.2</ele>
        <time>2026-05-15T13:23:48Z</time>
      </trkpt>
      <trkpt lat="43.7942" lon="6.63478">
        <ele>1073.4</ele>
        <time>2026-05-15T13:23:49Z</time>
      </trkpt>
      <trkpt lat="43.79403" lon="6.63487">
        <ele>1072.8</ele>
        <time>2026-05-15T13:23:50Z</time>
      </trkpt>
      <trkpt lat="43.79385" lon="6.63494">
        <ele>1072.2</ele>
        <time>2026-05-15T13:23:51Z</time>
      </trkpt>
      <trkpt lat="43.79367" lon="6.63502">
        <ele>1070.8</ele>
        <time>2026-05-15T13:23:52Z</time>
      </trkpt>
      <trkpt lat="43.79349" lon="6.63511">
        <ele>1070.1</ele>
        <time>2026-05-15T13:23:53Z</time>
      </trkpt>
      <trkpt lat="43.7933" lon="6.63519">
        <ele>1069</ele>
        <time>2026-05-15T13:23:54Z</time>
      </trkpt>
      <trkpt lat="43.79311" lon="6.63528">
        <ele>1067.6</ele>
        <time>2026-05-15T13:23:55Z</time>
      </trkpt>
      <trkpt lat="43.79293" lon="6.63537">
        <ele>1066.6</ele>
        <time>2026-05-15T13:23:56Z</time>
      </trkpt>
      <trkpt lat="43.79275" lon="6.63546">
        <ele>1065.5</ele>
        <time>2026-05-15T13:23:57Z</time>
      </trkpt>
      <trkpt lat="43.79257" lon="6.63553">
        <ele>1064.5</ele>
        <time>2026-05-15T13:23:58Z</time>
      </trkpt>
      <trkpt lat="43.79239" lon="6.63561">
        <ele>1063.6</ele>
        <time>2026-05-15T13:23:59Z</time>
      </trkpt>
      <trkpt lat="43.79223" lon="6.63568">
        <ele>1062.6</ele>
        <time>2026-05-15T13:24:00Z</time>
      </trkpt>
      <trkpt lat="43.79206" lon="6.63575">
        <ele>1063.4</ele>
        <time>2026-05-15T13:24:01Z</time>
      </trkpt>
      <trkpt lat="43.7919" lon="6.63582">
        <ele>1065</ele>
        <time>2026-05-15T13:24:02Z</time>
      </trkpt>
      <trkpt lat="43.79175" lon="6.63588">
        <ele>1064.4</ele>
        <time>2026-05-15T13:24:03Z</time>
      </trkpt>
      <trkpt lat="43.79159" lon="6.63591">
        <ele>1064.3</ele>
        <time>2026-05-15T13:24:04Z</time>
      </trkpt>
      <trkpt lat="43.79144" lon="6.63591">
        <ele>1064.1</ele>
        <time>2026-05-15T13:24:05Z</time>
      </trkpt>
      <trkpt lat="43.79128" lon="6.63587">
        <ele>1063.6</ele>
        <time>2026-05-15T13:24:06Z</time>
      </trkpt>
      <trkpt lat="43.79111" lon="6.63582">
        <ele>1063.4</ele>
        <time>2026-05-15T13:24:07Z</time>
      </trkpt>
      <trkpt lat="43.79095" lon="6.63577">
        <ele>1063</ele>
        <time>2026-05-15T13:24:08Z</time>
      </trkpt>
      <trkpt lat="43.79079" lon="6.63571">
        <ele>1060.9</ele>
        <time>2026-05-15T13:24:09Z</time>
      </trkpt>
      <trkpt lat="43.79063" lon="6.63565">
        <ele>1058.9</ele>
        <time>2026-05-15T13:24:10Z</time>
      </trkpt>
      <trkpt lat="43.79048" lon="6.63559">
        <ele>1058.8</ele>
        <time>2026-05-15T13:24:11Z</time>
      </trkpt>
      <trkpt lat="43.79033" lon="6.63553">
        <ele>1058.7</ele>
        <time>2026-05-15T13:24:12Z</time>
      </trkpt>
      <trkpt lat="43.79017" lon="6.63547">
        <ele>1059</ele>
        <time>2026-05-15T13:24:13Z</time>
      </trkpt>
      <trkpt lat="43.79002" lon="6.63541">
        <ele>1059.9</ele>
        <time>2026-05-15T13:24:14Z</time>
      </trkpt>
      <trkpt lat="43.78987" lon="6.63535">
        <ele>1060</ele>
        <time>2026-05-15T13:24:15Z</time>
      </trkpt>
      <trkpt lat="43.78972" lon="6.6353">
        <ele>1059.2</ele>
        <time>2026-05-15T13:24:16Z</time>
      </trkpt>
      <trkpt lat="43.78958" lon="6.63524">
        <ele>1059.2</ele>
        <time>2026-05-15T13:24:17Z</time>
      </trkpt>
      <trkpt lat="43.78944" lon="6.63519">
        <ele>1058.7</ele>
        <time>2026-05-15T13:24:18Z</time>
      </trkpt>
      <trkpt lat="43.78932" lon="6.63515">
        <ele>1057.9</ele>
        <time>2026-05-15T13:24:19Z</time>
      </trkpt>
      <trkpt lat="43.78921" lon="6.63511">
        <ele>1056.7</ele>
        <time>2026-05-15T13:24:20Z</time>
      </trkpt>
      <trkpt lat="43.7891" lon="6.6351">
        <ele>1054.7</ele>
        <time>2026-05-15T13:24:21Z</time>
      </trkpt>
      <trkpt lat="43.789" lon="6.63511">
        <ele>1052.8</ele>
        <time>2026-05-15T13:24:22Z</time>
      </trkpt>
      <trkpt lat="43.78889" lon="6.63513">
        <ele>1051</ele>
        <time>2026-05-15T13:24:23Z</time>
      </trkpt>
      <trkpt lat="43.78879" lon="6.63518">
        <ele>1052.7</ele>
        <time>2026-05-15T13:24:24Z</time>
      </trkpt>
      <trkpt lat="43.78869" lon="6.63526">
        <ele>1054</ele>
        <time>2026-05-15T13:24:25Z</time>
      </trkpt>
      <trkpt lat="43.7886" lon="6.63537">
        <ele>1055.2</ele>
        <time>2026-05-15T13:24:26Z</time>
      </trkpt>
      <trkpt lat="43.78851" lon="6.63549">
        <ele>1056.1</ele>
        <time>2026-05-15T13:24:27Z</time>
      </trkpt>
      <trkpt lat="43.78843" lon="6.63563">
        <ele>1055.3</ele>
        <time>2026-05-15T13:24:28Z</time>
      </trkpt>
      <trkpt lat="43.78834" lon="6.63578">
        <ele>1053.7</ele>
        <time>2026-05-15T13:24:29Z</time>
      </trkpt>
      <trkpt lat="43.78823" lon="6.63591">
        <ele>1054.4</ele>
        <time>2026-05-15T13:24:30Z</time>
      </trkpt>
      <trkpt lat="43.78812" lon="6.63603">
        <ele>1053.8</ele>
        <time>2026-05-15T13:24:31Z</time>
      </trkpt>
      <trkpt lat="43.78799" lon="6.63611">
        <ele>1052</ele>
        <time>2026-05-15T13:24:32Z</time>
      </trkpt>
      <trkpt lat="43.78786" lon="6.63618">
        <ele>1051.1</ele>
        <time>2026-05-15T13:24:33Z</time>
      </trkpt>
      <trkpt lat="43.78771" lon="6.6362">
        <ele>1050.5</ele>
        <time>2026-05-15T13:24:34Z</time>
      </trkpt>
      <trkpt lat="43.78757" lon="6.63618">
        <ele>1050.3</ele>
        <time>2026-05-15T13:24:35Z</time>
      </trkpt>
      <trkpt lat="43.78742" lon="6.63613">
        <ele>1049.8</ele>
        <time>2026-05-15T13:24:36Z</time>
      </trkpt>
      <trkpt lat="43.78727" lon="6.63606">
        <ele>1049.3</ele>
        <time>2026-05-15T13:24:37Z</time>
      </trkpt>
      <trkpt lat="43.78712" lon="6.63599">
        <ele>1048.4</ele>
        <time>2026-05-15T13:24:38Z</time>
      </trkpt>
      <trkpt lat="43.78696" lon="6.63592">
        <ele>1047.6</ele>
        <time>2026-05-15T13:24:39Z</time>
      </trkpt>
      <trkpt lat="43.78681" lon="6.63584">
        <ele>1047.4</ele>
        <time>2026-05-15T13:24:40Z</time>
      </trkpt>
      <trkpt lat="43.78665" lon="6.63576">
        <ele>1046.7</ele>
        <time>2026-05-15T13:24:41Z</time>
      </trkpt>
      <trkpt lat="43.78651" lon="6.63569">
        <ele>1047</ele>
        <time>2026-05-15T13:24:42Z</time>
      </trkpt>
      <trkpt lat="43.78636" lon="6.63562">
        <ele>1046.9</ele>
        <time>2026-05-15T13:24:43Z</time>
      </trkpt>
      <trkpt lat="43.78622" lon="6.63556">
        <ele>1045.5</ele>
        <time>2026-05-15T13:24:44Z</time>
      </trkpt>
      <trkpt lat="43.78607" lon="6.63552">
        <ele>1044.5</ele>
        <time>2026-05-15T13:24:45Z</time>
      </trkpt>
      <trkpt lat="43.78593" lon="6.63549">
        <ele>1044</ele>
        <time>2026-05-15T13:24:46Z</time>
      </trkpt>
      <trkpt lat="43.78578" lon="6.63548">
        <ele>1043</ele>
        <time>2026-05-15T13:24:47Z</time>
      </trkpt>
      <trkpt lat="43.78564" lon="6.63549">
        <ele>1042.4</ele>
        <time>2026-05-15T13:24:48Z</time>
      </trkpt>
      <trkpt lat="43.78549" lon="6.63552">
        <ele>1042.3</ele>
        <time>2026-05-15T13:24:49Z</time>
      </trkpt>
      <trkpt lat="43.78534" lon="6.63557">
        <ele>1042.8</ele>
        <time>2026-05-15T13:24:50Z</time>
      </trkpt>
      <trkpt lat="43.78518" lon="6.63563">
        <ele>1042.6</ele>
        <time>2026-05-15T13:24:51Z</time>
      </trkpt>
      <trkpt lat="43.78503" lon="6.63571">
        <ele>1041.6</ele>
        <time>2026-05-15T13:24:52Z</time>
      </trkpt>
      <trkpt lat="43.78487" lon="6.6358">
        <ele>1041.9</ele>
        <time>2026-05-15T13:24:53Z</time>
      </trkpt>
      <trkpt lat="43.78472" lon="6.6359">
        <ele>1041.7</ele>
        <time>2026-05-15T13:24:54Z</time>
      </trkpt>
      <trkpt lat="43.78455" lon="6.636">
        <ele>1040.3</ele>
        <time>2026-05-15T13:24:55Z</time>
      </trkpt>
      <trkpt lat="43.78439" lon="6.63611">
        <ele>1039.4</ele>
        <time>2026-05-15T13:24:56Z</time>
      </trkpt>
      <trkpt lat="43.78423" lon="6.63622">
        <ele>1039.3</ele>
        <time>2026-05-15T13:24:57Z</time>
      </trkpt>
      <trkpt lat="43.78406" lon="6.63633">
        <ele>1039.4</ele>
        <time>2026-05-15T13:24:58Z</time>
      </trkpt>
      <trkpt lat="43.78389" lon="6.63644">
        <ele>1039.6</ele>
        <time>2026-05-15T13:24:59Z</time>
      </trkpt>
      <trkpt lat="43.78372" lon="6.63655">
        <ele>1039.4</ele>
        <time>2026-05-15T13:25:00Z</time>
      </trkpt>
      <trkpt lat="43.78356" lon="6.63666">
        <ele>1038.6</ele>
        <time>2026-05-15T13:25:01Z</time>
      </trkpt>
      <trkpt lat="43.78341" lon="6.63676">
        <ele>1038.4</ele>
        <time>2026-05-15T13:25:02Z</time>
      </trkpt>
      <trkpt lat="43.78326" lon="6.63686">
        <ele>1037.9</ele>
        <time>2026-05-15T13:25:03Z</time>
      </trkpt>
      <trkpt lat="43.78311" lon="6.63696">
        <ele>1037.5</ele>
        <time>2026-05-15T13:25:04Z</time>
      </trkpt>
      <trkpt lat="43.78297" lon="6.63705">
        <ele>1037.1</ele>
        <time>2026-05-15T13:25:05Z</time>
      </trkpt>
      <trkpt lat="43.78283" lon="6.63714">
        <ele>1036.8</ele>
        <time>2026-05-15T13:25:06Z</time>
      </trkpt>
      <trkpt lat="43.78269" lon="6.63723">
        <ele>1036.7</ele>
        <time>2026-05-15T13:25:07Z</time>
      </trkpt>
      <trkpt lat="43.78255" lon="6.63733">
        <ele>1037.3</ele>
        <time>2026-05-15T13:25:08Z</time>
      </trkpt>
      <trkpt lat="43.78242" lon="6.63745">
        <ele>1037.6</ele>
        <time>2026-05-15T13:25:09Z</time>
      </trkpt>
      <trkpt lat="43.78232" lon="6.63759">
        <ele>1036.8</ele>
        <time>2026-05-15T13:25:10Z</time>
      </trkpt>
      <trkpt lat="43.78221" lon="6.63777">
        <ele>1034.9</ele>
        <time>2026-05-15T13:25:11Z</time>
      </trkpt>
      <trkpt lat="43.78212" lon="6.63797">
        <ele>1034.5</ele>
        <time>2026-05-15T13:25:12Z</time>
      </trkpt>
      <trkpt lat="43.78204" lon="6.63819">
        <ele>1034.3</ele>
        <time>2026-05-15T13:25:13Z</time>
      </trkpt>
      <trkpt lat="43.78196" lon="6.63841">
        <ele>1033.8</ele>
        <time>2026-05-15T13:25:14Z</time>
      </trkpt>
      <trkpt lat="43.78187" lon="6.63864">
        <ele>1032.6</ele>
        <time>2026-05-15T13:25:15Z</time>
      </trkpt>
      <trkpt lat="43.78176" lon="6.63886">
        <ele>1032.6</ele>
        <time>2026-05-15T13:25:16Z</time>
      </trkpt>
      <trkpt lat="43.78164" lon="6.63907">
        <ele>1031.8</ele>
        <time>2026-05-15T13:25:17Z</time>
      </trkpt>
      <trkpt lat="43.78151" lon="6.63927">
        <ele>1031.4</ele>
        <time>2026-05-15T13:25:18Z</time>
      </trkpt>
      <trkpt lat="43.78139" lon="6.63947">
        <ele>1031</ele>
        <time>2026-05-15T13:25:19Z</time>
      </trkpt>
      <trkpt lat="43.78126" lon="6.63965">
        <ele>1030.4</ele>
        <time>2026-05-15T13:25:20Z</time>
      </trkpt>
      <trkpt lat="43.78111" lon="6.63983">
        <ele>1029.6</ele>
        <time>2026-05-15T13:25:21Z</time>
      </trkpt>
      <trkpt lat="43.78098" lon="6.64">
        <ele>1028.5</ele>
        <time>2026-05-15T13:25:22Z</time>
      </trkpt>
      <trkpt lat="43.78085" lon="6.64017">
        <ele>1028.7</ele>
        <time>2026-05-15T13:25:23Z</time>
      </trkpt>
      <trkpt lat="43.78073" lon="6.64034">
        <ele>1028.5</ele>
        <time>2026-05-15T13:25:24Z</time>
      </trkpt>
      <trkpt lat="43.7806" lon="6.6405">
        <ele>1028</ele>
        <time>2026-05-15T13:25:25Z</time>
      </trkpt>
      <trkpt lat="43.78048" lon="6.64066">
        <ele>1027.3</ele>
        <time>2026-05-15T13:25:26Z</time>
      </trkpt>
      <trkpt lat="43.78036" lon="6.64081">
        <ele>1027</ele>
        <time>2026-05-15T13:25:27Z</time>
      </trkpt>
      <trkpt lat="43.78026" lon="6.64096">
        <ele>1026.9</ele>
        <time>2026-05-15T13:25:28Z</time>
      </trkpt>
      <trkpt lat="43.78016" lon="6.64108">
        <ele>1026.5</ele>
        <time>2026-05-15T13:25:29Z</time>
      </trkpt>
      <trkpt lat="43.78009" lon="6.64118">
        <ele>1026.3</ele>
        <time>2026-05-15T13:25:30Z</time>
      </trkpt>
      <trkpt lat="43.78002" lon="6.64127">
        <ele>1026.1</ele>
        <time>2026-05-15T13:25:31Z</time>
      </trkpt>
      <trkpt lat="43.77996" lon="6.64135">
        <ele>1026</ele>
        <time>2026-05-15T13:25:32Z</time>
      </trkpt>
      <trkpt lat="43.7799" lon="6.64142">
        <ele>1026</ele>
        <time>2026-05-15T13:25:33Z</time>
      </trkpt>
      <trkpt lat="43.77985" lon="6.64149">
        <ele>1026</ele>
        <time>2026-05-15T13:25:34Z</time>
      </trkpt>
      <trkpt lat="43.7798" lon="6.64156">
        <ele>1026</ele>
        <time>2026-05-15T13:25:35Z</time>
      </trkpt>
      <trkpt lat="43.77975" lon="6.64162">
        <ele>1026</ele>
        <time>2026-05-15T13:25:36Z</time>
      </trkpt>
      <trkpt lat="43.7797" lon="6.64169">
        <ele>1025.9</ele>
        <time>2026-05-15T13:25:37Z</time>
      </trkpt>
      <trkpt lat="43.77965" lon="6.64177">
        <ele>1025.8</ele>
        <time>2026-05-15T13:25:38Z</time>
      </trkpt>
      <trkpt lat="43.77959" lon="6.64184">
        <ele>1025.8</ele>
        <time>2026-05-15T13:25:39Z</time>
      </trkpt>
      <trkpt lat="43.77953" lon="6.64191">
        <ele>1025.9</ele>
        <time>2026-05-15T13:25:40Z</time>
      </trkpt>
      <trkpt lat="43.77947" lon="6.64197">
        <ele>1025.9</ele>
        <time>2026-05-15T13:25:41Z</time>
      </trkpt>
      <trkpt lat="43.77939" lon="6.64202">
        <ele>1025.6</ele>
        <time>2026-05-15T13:25:42Z</time>
      </trkpt>
      <trkpt lat="43.77932" lon="6.64207">
        <ele>1025.3</ele>
        <time>2026-05-15T13:25:43Z</time>
      </trkpt>
      <trkpt lat="43.77925" lon="6.64214">
        <ele>1025.1</ele>
        <time>2026-05-15T13:25:44Z</time>
      </trkpt>
      <trkpt lat="43.7792" lon="6.64224">
        <ele>1025</ele>
        <time>2026-05-15T13:25:45Z</time>
      </trkpt>
      <trkpt lat="43.77914" lon="6.64235">
        <ele>1025</ele>
        <time>2026-05-15T13:25:46Z</time>
      </trkpt>
      <trkpt lat="43.77907" lon="6.64247">
        <ele>1024.7</ele>
        <time>2026-05-15T13:25:47Z</time>
      </trkpt>
      <trkpt lat="43.77898" lon="6.64258">
        <ele>1024.2</ele>
        <time>2026-05-15T13:25:48Z</time>
      </trkpt>
      <trkpt lat="43.77888" lon="6.64269">
        <ele>1024</ele>
        <time>2026-05-15T13:25:49Z</time>
      </trkpt>
      <trkpt lat="43.77878" lon="6.64279">
        <ele>1024.4</ele>
        <time>2026-05-15T13:25:50Z</time>
      </trkpt>
      <trkpt lat="43.77865" lon="6.64286">
        <ele>1024.6</ele>
        <time>2026-05-15T13:25:51Z</time>
      </trkpt>
      <trkpt lat="43.77851" lon="6.64294">
        <ele>1024.8</ele>
        <time>2026-05-15T13:25:52Z</time>
      </trkpt>
      <trkpt lat="43.77836" lon="6.643">
        <ele>1025.1</ele>
        <time>2026-05-15T13:25:53Z</time>
      </trkpt>
      <trkpt lat="43.7782" lon="6.64305">
        <ele>1025</ele>
        <time>2026-05-15T13:25:54Z</time>
      </trkpt>
      <trkpt lat="43.77805" lon="6.64311">
        <ele>1024.8</ele>
        <time>2026-05-15T13:25:55Z</time>
      </trkpt>
      <trkpt lat="43.77789" lon="6.64316">
        <ele>1025.6</ele>
        <time>2026-05-15T13:25:56Z</time>
      </trkpt>
      <trkpt lat="43.77774" lon="6.64321">
        <ele>1026.1</ele>
        <time>2026-05-15T13:25:57Z</time>
      </trkpt>
      <trkpt lat="43.7776" lon="6.64327">
        <ele>1026</ele>
        <time>2026-05-15T13:25:58Z</time>
      </trkpt>
      <trkpt lat="43.77746" lon="6.64333">
        <ele>1025.2</ele>
        <time>2026-05-15T13:25:59Z</time>
      </trkpt>
      <trkpt lat="43.77732" lon="6.64337">
        <ele>1025.3</ele>
        <time>2026-05-15T13:26:00Z</time>
      </trkpt>
      <trkpt lat="43.77719" lon="6.64342">
        <ele>1025</ele>
        <time>2026-05-15T13:26:01Z</time>
      </trkpt>
      <trkpt lat="43.77707" lon="6.64346">
        <ele>1024.6</ele>
        <time>2026-05-15T13:26:02Z</time>
      </trkpt>
      <trkpt lat="43.77695" lon="6.6435">
        <ele>1024.4</ele>
        <time>2026-05-15T13:26:03Z</time>
      </trkpt>
      <trkpt lat="43.77683" lon="6.64354">
        <ele>1024.4</ele>
        <time>2026-05-15T13:26:04Z</time>
      </trkpt>
      <trkpt lat="43.77671" lon="6.64358">
        <ele>1024.2</ele>
        <time>2026-05-15T13:26:05Z</time>
      </trkpt>
      <trkpt lat="43.7766" lon="6.64363">
        <ele>1023.7</ele>
        <time>2026-05-15T13:26:06Z</time>
      </trkpt>
      <trkpt lat="43.77649" lon="6.64366">
        <ele>1023.3</ele>
        <time>2026-05-15T13:26:07Z</time>
      </trkpt>
      <trkpt lat="43.77639" lon="6.6437">
        <ele>1023</ele>
        <time>2026-05-15T13:26:08Z</time>
      </trkpt>
      <trkpt lat="43.77628" lon="6.64374">
        <ele>1023</ele>
        <time>2026-05-15T13:26:09Z</time>
      </trkpt>
      <trkpt lat="43.77617" lon="6.64378">
        <ele>1023</ele>
        <time>2026-05-15T13:26:10Z</time>
      </trkpt>
      <trkpt lat="43.77605" lon="6.64382">
        <ele>1023.1</ele>
        <time>2026-05-15T13:26:11Z</time>
      </trkpt>
      <trkpt lat="43.77593" lon="6.64386">
        <ele>1023.1</ele>
        <time>2026-05-15T13:26:12Z</time>
      </trkpt>
      <trkpt lat="43.7758" lon="6.64391">
        <ele>1022.9</ele>
        <time>2026-05-15T13:26:13Z</time>
      </trkpt>
      <trkpt lat="43.77567" lon="6.64396">
        <ele>1022.6</ele>
        <time>2026-05-15T13:26:14Z</time>
      </trkpt>
      <trkpt lat="43.77553" lon="6.64401">
        <ele>1022.2</ele>
        <time>2026-05-15T13:26:15Z</time>
      </trkpt>
      <trkpt lat="43.77538" lon="6.64407">
        <ele>1022.3</ele>
        <time>2026-05-15T13:26:16Z</time>
      </trkpt>
      <trkpt lat="43.77523" lon="6.64413">
        <ele>1022.3</ele>
        <time>2026-05-15T13:26:17Z</time>
      </trkpt>
      <trkpt lat="43.77507" lon="6.64418">
        <ele>1022</ele>
        <time>2026-05-15T13:26:18Z</time>
      </trkpt>
      <trkpt lat="43.77493" lon="6.64424">
        <ele>1021.8</ele>
        <time>2026-05-15T13:26:19Z</time>
      </trkpt>
      <trkpt lat="43.77478" lon="6.64432">
        <ele>1021.9</ele>
        <time>2026-05-15T13:26:20Z</time>
      </trkpt>
      <trkpt lat="43.77465" lon="6.64441">
        <ele>1021.8</ele>
        <time>2026-05-15T13:26:21Z</time>
      </trkpt>
      <trkpt lat="43.77454" lon="6.64453">
        <ele>1021.3</ele>
        <time>2026-05-15T13:26:22Z</time>
      </trkpt>
      <trkpt lat="43.77445" lon="6.64466">
        <ele>1021.7</ele>
        <time>2026-05-15T13:26:23Z</time>
      </trkpt>
      <trkpt lat="43.77436" lon="6.64481">
        <ele>1021</ele>
        <time>2026-05-15T13:26:24Z</time>
      </trkpt>
      <trkpt lat="43.77428" lon="6.64496">
        <ele>1020.6</ele>
        <time>2026-05-15T13:26:25Z</time>
      </trkpt>
      <trkpt lat="43.77422" lon="6.64512">
        <ele>1021.5</ele>
        <time>2026-05-15T13:26:26Z</time>
      </trkpt>
      <trkpt lat="43.77417" lon="6.64527">
        <ele>1022.9</ele>
        <time>2026-05-15T13:26:27Z</time>
      </trkpt>
      <trkpt lat="43.77413" lon="6.64542">
        <ele>1020.8</ele>
        <time>2026-05-15T13:26:28Z</time>
      </trkpt>
      <trkpt lat="43.77409" lon="6.64557">
        <ele>1018.8</ele>
        <time>2026-05-15T13:26:29Z</time>
      </trkpt>
      <trkpt lat="43.77406" lon="6.6457">
        <ele>1019.2</ele>
        <time>2026-05-15T13:26:30Z</time>
      </trkpt>
      <trkpt lat="43.77404" lon="6.64578">
        <ele>1019.6</ele>
        <time>2026-05-15T13:26:31Z</time>
      </trkpt>
      <trkpt lat="43.77401" lon="6.64585">
        <ele>1020.3</ele>
        <time>2026-05-15T13:26:32Z</time>
      </trkpt>
      <trkpt lat="43.77398" lon="6.64591">
        <ele>1021.1</ele>
        <time>2026-05-15T13:26:33Z</time>
      </trkpt>
      <trkpt lat="43.77393" lon="6.64596">
        <ele>1022</ele>
        <time>2026-05-15T13:26:34Z</time>
      </trkpt>
      <trkpt lat="43.77386" lon="6.64599">
        <ele>1022.6</ele>
        <time>2026-05-15T13:26:35Z</time>
      </trkpt>
      <trkpt lat="43.77378" lon="6.64604">
        <ele>1022.9</ele>
        <time>2026-05-15T13:26:36Z</time>
      </trkpt>
      <trkpt lat="43.77371" lon="6.64612">
        <ele>1023.4</ele>
        <time>2026-05-15T13:26:37Z</time>
      </trkpt>
      <trkpt lat="43.77363" lon="6.6462">
        <ele>1023.4</ele>
        <time>2026-05-15T13:26:38Z</time>
      </trkpt>
      <trkpt lat="43.77353" lon="6.64627">
        <ele>1023.4</ele>
        <time>2026-05-15T13:26:39Z</time>
      </trkpt>
      <trkpt lat="43.77341" lon="6.64633">
        <ele>1023.6</ele>
        <time>2026-05-15T13:26:40Z</time>
      </trkpt>
      <trkpt lat="43.77329" lon="6.6464">
        <ele>1023.9</ele>
        <time>2026-05-15T13:26:41Z</time>
      </trkpt>
      <trkpt lat="43.77316" lon="6.64647">
        <ele>1024</ele>
        <time>2026-05-15T13:26:42Z</time>
      </trkpt>
      <trkpt lat="43.77302" lon="6.64654">
        <ele>1024</ele>
        <time>2026-05-15T13:26:43Z</time>
      </trkpt>
      <trkpt lat="43.77288" lon="6.64662">
        <ele>1024.1</ele>
        <time>2026-05-15T13:26:44Z</time>
      </trkpt>
      <trkpt lat="43.77273" lon="6.64668">
        <ele>1024.2</ele>
        <time>2026-05-15T13:26:45Z</time>
      </trkpt>
      <trkpt lat="43.77258" lon="6.64674">
        <ele>1024.7</ele>
        <time>2026-05-15T13:26:46Z</time>
      </trkpt>
      <trkpt lat="43.77243" lon="6.6468">
        <ele>1024.7</ele>
        <time>2026-05-15T13:26:47Z</time>
      </trkpt>
      <trkpt lat="43.77228" lon="6.64685">
        <ele>1024.5</ele>
        <time>2026-05-15T13:26:48Z</time>
      </trkpt>
      <trkpt lat="43.77213" lon="6.6469">
        <ele>1024.3</ele>
        <time>2026-05-15T13:26:49Z</time>
      </trkpt>
      <trkpt lat="43.77197" lon="6.64696">
        <ele>1024.1</ele>
        <time>2026-05-15T13:26:50Z</time>
      </trkpt>
      <trkpt lat="43.77181" lon="6.64701">
        <ele>1023.8</ele>
        <time>2026-05-15T13:26:51Z</time>
      </trkpt>
      <trkpt lat="43.77164" lon="6.64707">
        <ele>1023.5</ele>
        <time>2026-05-15T13:26:52Z</time>
      </trkpt>
      <trkpt lat="43.77147" lon="6.64713">
        <ele>1024.4</ele>
        <time>2026-05-15T13:26:53Z</time>
      </trkpt>
      <trkpt lat="43.7713" lon="6.6472">
        <ele>1025.3</ele>
        <time>2026-05-15T13:26:54Z</time>
      </trkpt>
      <trkpt lat="43.77112" lon="6.64726">
        <ele>1026.4</ele>
        <time>2026-05-15T13:26:55Z</time>
      </trkpt>
      <trkpt lat="43.77094" lon="6.64731">
        <ele>1027.4</ele>
        <time>2026-05-15T13:26:56Z</time>
      </trkpt>
      <trkpt lat="43.77076" lon="6.64737">
        <ele>1027</ele>
        <time>2026-05-15T13:26:57Z</time>
      </trkpt>
      <trkpt lat="43.77058" lon="6.64743">
        <ele>1025.9</ele>
        <time>2026-05-15T13:26:58Z</time>
      </trkpt>
      <trkpt lat="43.7704" lon="6.64748">
        <ele>1025.9</ele>
        <time>2026-05-15T13:26:59Z</time>
      </trkpt>
      <trkpt lat="43.77022" lon="6.64755">
        <ele>1026</ele>
        <time>2026-05-15T13:27:00Z</time>
      </trkpt>
      <trkpt lat="43.77004" lon="6.6476">
        <ele>1025.8</ele>
        <time>2026-05-15T13:27:01Z</time>
      </trkpt>
      <trkpt lat="43.76986" lon="6.64766">
        <ele>1026.4</ele>
        <time>2026-05-15T13:27:02Z</time>
      </trkpt>
      <trkpt lat="43.76968" lon="6.64772">
        <ele>1027.4</ele>
        <time>2026-05-15T13:27:03Z</time>
      </trkpt>
      <trkpt lat="43.76949" lon="6.64778">
        <ele>1028</ele>
        <time>2026-05-15T13:27:04Z</time>
      </trkpt>
      <trkpt lat="43.76931" lon="6.64784">
        <ele>1027.5</ele>
        <time>2026-05-15T13:27:05Z</time>
      </trkpt>
      <trkpt lat="43.76913" lon="6.6479">
        <ele>1027.5</ele>
        <time>2026-05-15T13:27:06Z</time>
      </trkpt>
      <trkpt lat="43.76896" lon="6.64796">
        <ele>1028.4</ele>
        <time>2026-05-15T13:27:07Z</time>
      </trkpt>
      <trkpt lat="43.76879" lon="6.64801">
        <ele>1029.4</ele>
        <time>2026-05-15T13:27:08Z</time>
      </trkpt>
      <trkpt lat="43.76863" lon="6.64806">
        <ele>1030</ele>
        <time>2026-05-15T13:27:09Z</time>
      </trkpt>
      <trkpt lat="43.76847" lon="6.64812">
        <ele>1029.4</ele>
        <time>2026-05-15T13:27:10Z</time>
      </trkpt>
      <trkpt lat="43.76831" lon="6.64816">
        <ele>1029.5</ele>
        <time>2026-05-15T13:27:11Z</time>
      </trkpt>
      <trkpt lat="43.76815" lon="6.64821">
        <ele>1030.9</ele>
        <time>2026-05-15T13:27:12Z</time>
      </trkpt>
      <trkpt lat="43.768" lon="6.64826">
        <ele>1032.1</ele>
        <time>2026-05-15T13:27:13Z</time>
      </trkpt>
      <trkpt lat="43.76785" lon="6.64831">
        <ele>1032.8</ele>
        <time>2026-05-15T13:27:14Z</time>
      </trkpt>
      <trkpt lat="43.76772" lon="6.64836">
        <ele>1033.6</ele>
        <time>2026-05-15T13:27:15Z</time>
      </trkpt>
      <trkpt lat="43.76758" lon="6.6484">
        <ele>1034.6</ele>
        <time>2026-05-15T13:27:16Z</time>
      </trkpt>
      <trkpt lat="43.76745" lon="6.64846">
        <ele>1035</ele>
        <time>2026-05-15T13:27:17Z</time>
      </trkpt>
      <trkpt lat="43.76732" lon="6.64853">
        <ele>1034.7</ele>
        <time>2026-05-15T13:27:18Z</time>
      </trkpt>
      <trkpt lat="43.7672" lon="6.64862">
        <ele>1034.1</ele>
        <time>2026-05-15T13:27:19Z</time>
      </trkpt>
      <trkpt lat="43.76709" lon="6.64873">
        <ele>1034.9</ele>
        <time>2026-05-15T13:27:20Z</time>
      </trkpt>
      <trkpt lat="43.76699" lon="6.64885">
        <ele>1035.1</ele>
        <time>2026-05-15T13:27:21Z</time>
      </trkpt>
      <trkpt lat="43.76689" lon="6.64899">
        <ele>1035.2</ele>
        <time>2026-05-15T13:27:22Z</time>
      </trkpt>
      <trkpt lat="43.7668" lon="6.64915">
        <ele>1035.3</ele>
        <time>2026-05-15T13:27:23Z</time>
      </trkpt>
      <trkpt lat="43.76673" lon="6.64933">
        <ele>1035.5</ele>
        <time>2026-05-15T13:27:24Z</time>
      </trkpt>
      <trkpt lat="43.76667" lon="6.64951">
        <ele>1035.5</ele>
        <time>2026-05-15T13:27:25Z</time>
      </trkpt>
      <trkpt lat="43.76662" lon="6.64971">
        <ele>1036.1</ele>
        <time>2026-05-15T13:27:26Z</time>
      </trkpt>
      <trkpt lat="43.76656" lon="6.64991">
        <ele>1036.8</ele>
        <time>2026-05-15T13:27:27Z</time>
      </trkpt>
      <trkpt lat="43.7665" lon="6.65011">
        <ele>1037.4</ele>
        <time>2026-05-15T13:27:28Z</time>
      </trkpt>
      <trkpt lat="43.76644" lon="6.65032">
        <ele>1037.6</ele>
        <time>2026-05-15T13:27:29Z</time>
      </trkpt>
      <trkpt lat="43.76639" lon="6.65052">
        <ele>1037.8</ele>
        <time>2026-05-15T13:27:30Z</time>
      </trkpt>
      <trkpt lat="43.76634" lon="6.65071">
        <ele>1038.9</ele>
        <time>2026-05-15T13:27:31Z</time>
      </trkpt>
      <trkpt lat="43.76629" lon="6.6509">
        <ele>1039.6</ele>
        <time>2026-05-15T13:27:32Z</time>
      </trkpt>
      <trkpt lat="43.76624" lon="6.65107">
        <ele>1039.6</ele>
        <time>2026-05-15T13:27:33Z</time>
      </trkpt>
      <trkpt lat="43.76619" lon="6.65124">
        <ele>1039.4</ele>
        <time>2026-05-15T13:27:34Z</time>
      </trkpt>
      <trkpt lat="43.76615" lon="6.6514">
        <ele>1039.6</ele>
        <time>2026-05-15T13:27:35Z</time>
      </trkpt>
      <trkpt lat="43.7661" lon="6.65155">
        <ele>1039.5</ele>
        <time>2026-05-15T13:27:36Z</time>
      </trkpt>
      <trkpt lat="43.76606" lon="6.6517">
        <ele>1039.8</ele>
        <time>2026-05-15T13:27:37Z</time>
      </trkpt>
      <trkpt lat="43.76601" lon="6.65185">
        <ele>1040.4</ele>
        <time>2026-05-15T13:27:38Z</time>
      </trkpt>
      <trkpt lat="43.76595" lon="6.65201">
        <ele>1041.2</ele>
        <time>2026-05-15T13:27:39Z</time>
      </trkpt>
      <trkpt lat="43.76589" lon="6.65216">
        <ele>1042.3</ele>
        <time>2026-05-15T13:27:40Z</time>
      </trkpt>
      <trkpt lat="43.76583" lon="6.65231">
        <ele>1042.9</ele>
        <time>2026-05-15T13:27:41Z</time>
      </trkpt>
      <trkpt lat="43.76577" lon="6.65247">
        <ele>1043.8</ele>
        <time>2026-05-15T13:27:42Z</time>
      </trkpt>
      <trkpt lat="43.76571" lon="6.6526">
        <ele>1044</ele>
        <time>2026-05-15T13:27:43Z</time>
      </trkpt>
      <trkpt lat="43.76564" lon="6.65274">
        <ele>1043.6</ele>
        <time>2026-05-15T13:27:44Z</time>
      </trkpt>
      <trkpt lat="43.76558" lon="6.65287">
        <ele>1043.2</ele>
        <time>2026-05-15T13:27:45Z</time>
      </trkpt>
      <trkpt lat="43.76552" lon="6.653">
        <ele>1043.4</ele>
        <time>2026-05-15T13:27:46Z</time>
      </trkpt>
      <trkpt lat="43.76546" lon="6.65313">
        <ele>1043.6</ele>
        <time>2026-05-15T13:27:47Z</time>
      </trkpt>
      <trkpt lat="43.7654" lon="6.65326">
        <ele>1043.6</ele>
        <time>2026-05-15T13:27:48Z</time>
      </trkpt>
      <trkpt lat="43.76534" lon="6.65339">
        <ele>1043.7</ele>
        <time>2026-05-15T13:27:49Z</time>
      </trkpt>
      <trkpt lat="43.76528" lon="6.65352">
        <ele>1043.7</ele>
        <time>2026-05-15T13:27:50Z</time>
      </trkpt>
      <trkpt lat="43.76523" lon="6.65364">
        <ele>1044.1</ele>
        <time>2026-05-15T13:27:51Z</time>
      </trkpt>
      <trkpt lat="43.76517" lon="6.65375">
        <ele>1044.5</ele>
        <time>2026-05-15T13:27:52Z</time>
      </trkpt>
      <trkpt lat="43.76512" lon="6.65387">
        <ele>1044.9</ele>
        <time>2026-05-15T13:27:53Z</time>
      </trkpt>
      <trkpt lat="43.76507" lon="6.65399">
        <ele>1045.1</ele>
        <time>2026-05-15T13:27:54Z</time>
      </trkpt>
      <trkpt lat="43.76501" lon="6.65411">
        <ele>1045</ele>
        <time>2026-05-15T13:27:55Z</time>
      </trkpt>
      <trkpt lat="43.76496" lon="6.65423">
        <ele>1045.3</ele>
        <time>2026-05-15T13:27:56Z</time>
      </trkpt>
      <trkpt lat="43.76491" lon="6.65435">
        <ele>1045.8</ele>
        <time>2026-05-15T13:27:57Z</time>
      </trkpt>
      <trkpt lat="43.76486" lon="6.65446">
        <ele>1046.1</ele>
        <time>2026-05-15T13:27:58Z</time>
      </trkpt>
      <trkpt lat="43.76481" lon="6.65456">
        <ele>1046.4</ele>
        <time>2026-05-15T13:27:59Z</time>
      </trkpt>
      <trkpt lat="43.76477" lon="6.65467">
        <ele>1046.8</ele>
        <time>2026-05-15T13:28:00Z</time>
      </trkpt>
      <trkpt lat="43.76471" lon="6.65477">
        <ele>1046.9</ele>
        <time>2026-05-15T13:28:01Z</time>
      </trkpt>
      <trkpt lat="43.76466" lon="6.65489">
        <ele>1046.3</ele>
        <time>2026-05-15T13:28:02Z</time>
      </trkpt>
      <trkpt lat="43.7646" lon="6.65501">
        <ele>1045.8</ele>
        <time>2026-05-15T13:28:03Z</time>
      </trkpt>
      <trkpt lat="43.76455" lon="6.65513">
        <ele>1046.4</ele>
        <time>2026-05-15T13:28:04Z</time>
      </trkpt>
      <trkpt lat="43.76449" lon="6.65527">
        <ele>1047.2</ele>
        <time>2026-05-15T13:28:05Z</time>
      </trkpt>
      <trkpt lat="43.76442" lon="6.65541">
        <ele>1046.7</ele>
        <time>2026-05-15T13:28:06Z</time>
      </trkpt>
      <trkpt lat="43.76436" lon="6.65556">
        <ele>1046.1</ele>
        <time>2026-05-15T13:28:07Z</time>
      </trkpt>
      <trkpt lat="43.76428" lon="6.65571">
        <ele>1045.6</ele>
        <time>2026-05-15T13:28:08Z</time>
      </trkpt>
      <trkpt lat="43.76421" lon="6.65586">
        <ele>1045.5</ele>
        <time>2026-05-15T13:28:09Z</time>
      </trkpt>
      <trkpt lat="43.76413" lon="6.65602">
        <ele>1046.1</ele>
        <time>2026-05-15T13:28:10Z</time>
      </trkpt>
      <trkpt lat="43.76405" lon="6.65619">
        <ele>1046.1</ele>
        <time>2026-05-15T13:28:11Z</time>
      </trkpt>
      <trkpt lat="43.76397" lon="6.65636">
        <ele>1046</ele>
        <time>2026-05-15T13:28:12Z</time>
      </trkpt>
      <trkpt lat="43.76387" lon="6.65653">
        <ele>1046.4</ele>
        <time>2026-05-15T13:28:13Z</time>
      </trkpt>
      <trkpt lat="43.76376" lon="6.65669">
        <ele>1046.2</ele>
        <time>2026-05-15T13:28:14Z</time>
      </trkpt>
      <trkpt lat="43.76364" lon="6.65685">
        <ele>1047</ele>
        <time>2026-05-15T13:28:15Z</time>
      </trkpt>
      <trkpt lat="43.7635" lon="6.657">
        <ele>1047.6</ele>
        <time>2026-05-15T13:28:16Z</time>
      </trkpt>
      <trkpt lat="43.76335" lon="6.65714">
        <ele>1047.5</ele>
        <time>2026-05-15T13:28:17Z</time>
      </trkpt>
      <trkpt lat="43.76321" lon="6.65728">
        <ele>1048.1</ele>
        <time>2026-05-15T13:28:18Z</time>
      </trkpt>
      <trkpt lat="43.76308" lon="6.65741">
        <ele>1048.9</ele>
        <time>2026-05-15T13:28:19Z</time>
      </trkpt>
      <trkpt lat="43.76294" lon="6.65754">
        <ele>1048.9</ele>
        <time>2026-05-15T13:28:20Z</time>
      </trkpt>
      <trkpt lat="43.76281" lon="6.65767">
        <ele>1048.9</ele>
        <time>2026-05-15T13:28:21Z</time>
      </trkpt>
      <trkpt lat="43.76268" lon="6.65782">
        <ele>1049.1</ele>
        <time>2026-05-15T13:28:22Z</time>
      </trkpt>
      <trkpt lat="43.76258" lon="6.65799">
        <ele>1049.7</ele>
        <time>2026-05-15T13:28:23Z</time>
      </trkpt>
      <trkpt lat="43.76249" lon="6.65818">
        <ele>1050.1</ele>
        <time>2026-05-15T13:28:24Z</time>
      </trkpt>
      <trkpt lat="43.76241" lon="6.65837">
        <ele>1049.8</ele>
        <time>2026-05-15T13:28:25Z</time>
      </trkpt>
      <trkpt lat="43.76234" lon="6.65856">
        <ele>1050</ele>
        <time>2026-05-15T13:28:26Z</time>
      </trkpt>
      <trkpt lat="43.76229" lon="6.65876">
        <ele>1050.9</ele>
        <time>2026-05-15T13:28:27Z</time>
      </trkpt>
      <trkpt lat="43.76225" lon="6.65895">
        <ele>1051.8</ele>
        <time>2026-05-15T13:28:28Z</time>
      </trkpt>
      <trkpt lat="43.76223" lon="6.65914">
        <ele>1052.1</ele>
        <time>2026-05-15T13:28:29Z</time>
      </trkpt>
      <trkpt lat="43.76222" lon="6.65934">
        <ele>1052.5</ele>
        <time>2026-05-15T13:28:30Z</time>
      </trkpt>
      <trkpt lat="43.76222" lon="6.65954">
        <ele>1052.9</ele>
        <time>2026-05-15T13:28:31Z</time>
      </trkpt>
      <trkpt lat="43.76223" lon="6.65975">
        <ele>1053.3</ele>
        <time>2026-05-15T13:28:32Z</time>
      </trkpt>
      <trkpt lat="43.76225" lon="6.65996">
        <ele>1054.1</ele>
        <time>2026-05-15T13:28:33Z</time>
      </trkpt>
      <trkpt lat="43.76229" lon="6.66018">
        <ele>1054.5</ele>
        <time>2026-05-15T13:28:34Z</time>
      </trkpt>
      <trkpt lat="43.76232" lon="6.6604">
        <ele>1054</ele>
        <time>2026-05-15T13:28:35Z</time>
      </trkpt>
      <trkpt lat="43.76236" lon="6.66062">
        <ele>1053.6</ele>
        <time>2026-05-15T13:28:36Z</time>
      </trkpt>
      <trkpt lat="43.7624" lon="6.66085">
        <ele>1053.7</ele>
        <time>2026-05-15T13:28:37Z</time>
      </trkpt>
      <trkpt lat="43.76243" lon="6.66108">
        <ele>1054.5</ele>
        <time>2026-05-15T13:28:38Z</time>
      </trkpt>
      <trkpt lat="43.76247" lon="6.6613">
        <ele>1055.2</ele>
        <time>2026-05-15T13:28:39Z</time>
      </trkpt>
      <trkpt lat="43.76252" lon="6.66153">
        <ele>1057</ele>
        <time>2026-05-15T13:28:40Z</time>
      </trkpt>
      <trkpt lat="43.76257" lon="6.66176">
        <ele>1058.6</ele>
        <time>2026-05-15T13:28:41Z</time>
      </trkpt>
      <trkpt lat="43.76264" lon="6.66199">
        <ele>1058.6</ele>
        <time>2026-05-15T13:28:42Z</time>
      </trkpt>
      <trkpt lat="43.76272" lon="6.66222">
        <ele>1056.8</ele>
        <time>2026-05-15T13:28:43Z</time>
      </trkpt>
      <trkpt lat="43.76281" lon="6.66245">
        <ele>1058.7</ele>
        <time>2026-05-15T13:28:44Z</time>
      </trkpt>
      <trkpt lat="43.7629" lon="6.66269">
        <ele>1058.4</ele>
        <time>2026-05-15T13:28:45Z</time>
      </trkpt>
      <trkpt lat="43.76299" lon="6.66293">
        <ele>1058.1</ele>
        <time>2026-05-15T13:28:46Z</time>
      </trkpt>
      <trkpt lat="43.76309" lon="6.66318">
        <ele>1059</ele>
        <time>2026-05-15T13:28:47Z</time>
      </trkpt>
      <trkpt lat="43.76319" lon="6.66343">
        <ele>1058.6</ele>
        <time>2026-05-15T13:28:48Z</time>
      </trkpt>
      <trkpt lat="43.76329" lon="6.66369">
        <ele>1058.6</ele>
        <time>2026-05-15T13:28:49Z</time>
      </trkpt>
      <trkpt lat="43.76338" lon="6.66394">
        <ele>1060.1</ele>
        <time>2026-05-15T13:28:50Z</time>
      </trkpt>
      <trkpt lat="43.76347" lon="6.6642">
        <ele>1058.9</ele>
        <time>2026-05-15T13:28:51Z</time>
      </trkpt>
      <trkpt lat="43.76356" lon="6.66446">
        <ele>1058.9</ele>
        <time>2026-05-15T13:28:52Z</time>
      </trkpt>
      <trkpt lat="43.76363" lon="6.66473">
        <ele>1059.8</ele>
        <time>2026-05-15T13:28:53Z</time>
      </trkpt>
      <trkpt lat="43.7637" lon="6.66502">
        <ele>1059.7</ele>
        <time>2026-05-15T13:28:54Z</time>
      </trkpt>
      <trkpt lat="43.76375" lon="6.66531">
        <ele>1058.9</ele>
        <time>2026-05-15T13:28:55Z</time>
      </trkpt>
      <trkpt lat="43.76379" lon="6.66562">
        <ele>1059.3</ele>
        <time>2026-05-15T13:28:56Z</time>
      </trkpt>
      <trkpt lat="43.76383" lon="6.66592">
        <ele>1059.1</ele>
        <time>2026-05-15T13:28:57Z</time>
      </trkpt>
      <trkpt lat="43.76389" lon="6.66621">
        <ele>1060</ele>
        <time>2026-05-15T13:28:58Z</time>
      </trkpt>
      <trkpt lat="43.76395" lon="6.66651">
        <ele>1061</ele>
        <time>2026-05-15T13:28:59Z</time>
      </trkpt>
      <trkpt lat="43.76402" lon="6.6668">
        <ele>1059.8</ele>
        <time>2026-05-15T13:29:00Z</time>
      </trkpt>
      <trkpt lat="43.7641" lon="6.66708">
        <ele>1059.1</ele>
        <time>2026-05-15T13:29:01Z</time>
      </trkpt>
      <trkpt lat="43.76418" lon="6.66737">
        <ele>1060.3</ele>
        <time>2026-05-15T13:29:02Z</time>
      </trkpt>
      <trkpt lat="43.76425" lon="6.66765">
        <ele>1060</ele>
        <time>2026-05-15T13:29:03Z</time>
      </trkpt>
      <trkpt lat="43.76432" lon="6.66792">
        <ele>1058.9</ele>
        <time>2026-05-15T13:29:04Z</time>
      </trkpt>
      <trkpt lat="43.76438" lon="6.66818">
        <ele>1057.7</ele>
        <time>2026-05-15T13:29:05Z</time>
      </trkpt>
      <trkpt lat="43.76446" lon="6.66844">
        <ele>1057.6</ele>
        <time>2026-05-15T13:29:06Z</time>
      </trkpt>
      <trkpt lat="43.76454" lon="6.6687">
        <ele>1058.1</ele>
        <time>2026-05-15T13:29:07Z</time>
      </trkpt>
      <trkpt lat="43.76462" lon="6.66895">
        <ele>1058.6</ele>
        <time>2026-05-15T13:29:08Z</time>
      </trkpt>
      <trkpt lat="43.76471" lon="6.66919">
        <ele>1059.6</ele>
        <time>2026-05-15T13:29:09Z</time>
      </trkpt>
      <trkpt lat="43.7648" lon="6.66943">
        <ele>1060.7</ele>
        <time>2026-05-15T13:29:10Z</time>
      </trkpt>
      <trkpt lat="43.76488" lon="6.66966">
        <ele>1061.2</ele>
        <time>2026-05-15T13:29:11Z</time>
      </trkpt>
      <trkpt lat="43.76497" lon="6.6699">
        <ele>1061.2</ele>
        <time>2026-05-15T13:29:12Z</time>
      </trkpt>
      <trkpt lat="43.76506" lon="6.67014">
        <ele>1061.2</ele>
        <time>2026-05-15T13:29:13Z</time>
      </trkpt>
      <trkpt lat="43.76515" lon="6.67038">
        <ele>1061</ele>
        <time>2026-05-15T13:29:14Z</time>
      </trkpt>
      <trkpt lat="43.76524" lon="6.67061">
        <ele>1060.9</ele>
        <time>2026-05-15T13:29:15Z</time>
      </trkpt>
      <trkpt lat="43.76532" lon="6.67083">
        <ele>1060.5</ele>
        <time>2026-05-15T13:29:16Z</time>
      </trkpt>
      <trkpt lat="43.7654" lon="6.67105">
        <ele>1060.1</ele>
        <time>2026-05-15T13:29:17Z</time>
      </trkpt>
      <trkpt lat="43.76548" lon="6.67126">
        <ele>1059.8</ele>
        <time>2026-05-15T13:29:18Z</time>
      </trkpt>
      <trkpt lat="43.76556" lon="6.67148">
        <ele>1059.7</ele>
        <time>2026-05-15T13:29:19Z</time>
      </trkpt>
      <trkpt lat="43.76564" lon="6.6717">
        <ele>1060</ele>
        <time>2026-05-15T13:29:20Z</time>
      </trkpt>
      <trkpt lat="43.76572" lon="6.67192">
        <ele>1060.1</ele>
        <time>2026-05-15T13:29:21Z</time>
      </trkpt>
      <trkpt lat="43.7658" lon="6.67214">
        <ele>1060</ele>
        <time>2026-05-15T13:29:22Z</time>
      </trkpt>
      <trkpt lat="43.7659" lon="6.67235">
        <ele>1060.2</ele>
        <time>2026-05-15T13:29:23Z</time>
      </trkpt>
      <trkpt lat="43.76599" lon="6.67257">
        <ele>1059.8</ele>
        <time>2026-05-15T13:29:24Z</time>
      </trkpt>
      <trkpt lat="43.7661" lon="6.67279">
        <ele>1059.8</ele>
        <time>2026-05-15T13:29:25Z</time>
      </trkpt>
      <trkpt lat="43.7662" lon="6.67301">
        <ele>1060.5</ele>
        <time>2026-05-15T13:29:26Z</time>
      </trkpt>
      <trkpt lat="43.76631" lon="6.67323">
        <ele>1060.6</ele>
        <time>2026-05-15T13:29:27Z</time>
      </trkpt>
      <trkpt lat="43.76642" lon="6.67344">
        <ele>1060.9</ele>
        <time>2026-05-15T13:29:28Z</time>
      </trkpt>
      <trkpt lat="43.76653" lon="6.67366">
        <ele>1060.8</ele>
        <time>2026-05-15T13:29:29Z</time>
      </trkpt>
      <trkpt lat="43.76664" lon="6.67388">
        <ele>1060.7</ele>
        <time>2026-05-15T13:29:30Z</time>
      </trkpt>
      <trkpt lat="43.76675" lon="6.6741">
        <ele>1060.1</ele>
        <time>2026-05-15T13:29:31Z</time>
      </trkpt>
      <trkpt lat="43.76686" lon="6.67432">
        <ele>1059.8</ele>
        <time>2026-05-15T13:29:32Z</time>
      </trkpt>
      <trkpt lat="43.76697" lon="6.67454">
        <ele>1059.9</ele>
        <time>2026-05-15T13:29:33Z</time>
      </trkpt>
      <trkpt lat="43.76708" lon="6.67475">
        <ele>1059.9</ele>
        <time>2026-05-15T13:29:34Z</time>
      </trkpt>
      <trkpt lat="43.76719" lon="6.67497">
        <ele>1059.9</ele>
        <time>2026-05-15T13:29:35Z</time>
      </trkpt>
      <trkpt lat="43.76729" lon="6.67518">
        <ele>1060.6</ele>
        <time>2026-05-15T13:29:36Z</time>
      </trkpt>
      <trkpt lat="43.76738" lon="6.67539">
        <ele>1061</ele>
        <time>2026-05-15T13:29:37Z</time>
      </trkpt>
      <trkpt lat="43.76748" lon="6.67559">
        <ele>1061.7</ele>
        <time>2026-05-15T13:29:38Z</time>
      </trkpt>
      <trkpt lat="43.76756" lon="6.67579">
        <ele>1061.8</ele>
        <time>2026-05-15T13:29:39Z</time>
      </trkpt>
      <trkpt lat="43.76764" lon="6.676">
        <ele>1061.9</ele>
        <time>2026-05-15T13:29:40Z</time>
      </trkpt>
      <trkpt lat="43.76772" lon="6.67622">
        <ele>1062.1</ele>
        <time>2026-05-15T13:29:41Z</time>
      </trkpt>
      <trkpt lat="43.76779" lon="6.67644">
        <ele>1062</ele>
        <time>2026-05-15T13:29:42Z</time>
      </trkpt>
      <trkpt lat="43.76786" lon="6.67666">
        <ele>1061.9</ele>
        <time>2026-05-15T13:29:43Z</time>
      </trkpt>
      <trkpt lat="43.76794" lon="6.67688">
        <ele>1062</ele>
        <time>2026-05-15T13:29:44Z</time>
      </trkpt>
      <trkpt lat="43.76802" lon="6.67711">
        <ele>1062</ele>
        <time>2026-05-15T13:29:45Z</time>
      </trkpt>
      <trkpt lat="43.7681" lon="6.67735">
        <ele>1062</ele>
        <time>2026-05-15T13:29:46Z</time>
      </trkpt>
      <trkpt lat="43.76817" lon="6.67758">
        <ele>1061.9</ele>
        <time>2026-05-15T13:29:47Z</time>
      </trkpt>
      <trkpt lat="43.76824" lon="6.67782">
        <ele>1061.8</ele>
        <time>2026-05-15T13:29:48Z</time>
      </trkpt>
      <trkpt lat="43.7683" lon="6.67806">
        <ele>1061.6</ele>
        <time>2026-05-15T13:29:49Z</time>
      </trkpt>
      <trkpt lat="43.76836" lon="6.67831">
        <ele>1061.4</ele>
        <time>2026-05-15T13:29:50Z</time>
      </trkpt>
      <trkpt lat="43.7684" lon="6.67856">
        <ele>1061.7</ele>
        <time>2026-05-15T13:29:51Z</time>
      </trkpt>
      <trkpt lat="43.76844" lon="6.67881">
        <ele>1061.4</ele>
        <time>2026-05-15T13:29:52Z</time>
      </trkpt>
      <trkpt lat="43.76847" lon="6.67906">
        <ele>1061.5</ele>
        <time>2026-05-15T13:29:53Z</time>
      </trkpt>
      <trkpt lat="43.76849" lon="6.67931">
        <ele>1061.7</ele>
        <time>2026-05-15T13:29:54Z</time>
      </trkpt>
      <trkpt lat="43.76851" lon="6.67955">
        <ele>1061.9</ele>
        <time>2026-05-15T13:29:55Z</time>
      </trkpt>
      <trkpt lat="43.76853" lon="6.6798">
        <ele>1062</ele>
        <time>2026-05-15T13:29:56Z</time>
      </trkpt>
      <trkpt lat="43.76855" lon="6.68004">
        <ele>1062.2</ele>
        <time>2026-05-15T13:29:57Z</time>
      </trkpt>
      <trkpt lat="43.76857" lon="6.68028">
        <ele>1062.6</ele>
        <time>2026-05-15T13:29:58Z</time>
      </trkpt>
      <trkpt lat="43.7686" lon="6.68052">
        <ele>1063.8</ele>
        <time>2026-05-15T13:29:59Z</time>
      </trkpt>
      <trkpt lat="43.76863" lon="6.68076">
        <ele>1063.5</ele>
        <time>2026-05-15T13:30:00Z</time>
      </trkpt>
      <trkpt lat="43.76867" lon="6.681">
        <ele>1062.9</ele>
        <time>2026-05-15T13:30:01Z</time>
      </trkpt>
      <trkpt lat="43.76872" lon="6.68123">
        <ele>1062.8</ele>
        <time>2026-05-15T13:30:02Z</time>
      </trkpt>
      <trkpt lat="43.76878" lon="6.68146">
        <ele>1063</ele>
        <time>2026-05-15T13:30:03Z</time>
      </trkpt>
      <trkpt lat="43.76884" lon="6.68169">
        <ele>1062.6</ele>
        <time>2026-05-15T13:30:04Z</time>
      </trkpt>
      <trkpt lat="43.76889" lon="6.68192">
        <ele>1062.1</ele>
        <time>2026-05-15T13:30:05Z</time>
      </trkpt>
      <trkpt lat="43.76895" lon="6.68214">
        <ele>1062.7</ele>
        <time>2026-05-15T13:30:06Z</time>
      </trkpt>
      <trkpt lat="43.76901" lon="6.68237">
        <ele>1063.3</ele>
        <time>2026-05-15T13:30:07Z</time>
      </trkpt>
      <trkpt lat="43.76908" lon="6.6826">
        <ele>1064.1</ele>
        <time>2026-05-15T13:30:08Z</time>
      </trkpt>
      <trkpt lat="43.76915" lon="6.68282">
        <ele>1064.8</ele>
        <time>2026-05-15T13:30:09Z</time>
      </trkpt>
      <trkpt lat="43.76922" lon="6.68304">
        <ele>1065.4</ele>
        <time>2026-05-15T13:30:10Z</time>
      </trkpt>
      <trkpt lat="43.76929" lon="6.68326">
        <ele>1065.5</ele>
        <time>2026-05-15T13:30:11Z</time>
      </trkpt>
      <trkpt lat="43.76936" lon="6.68347">
        <ele>1065.3</ele>
        <time>2026-05-15T13:30:12Z</time>
      </trkpt>
      <trkpt lat="43.76943" lon="6.68368">
        <ele>1064.6</ele>
        <time>2026-05-15T13:30:13Z</time>
      </trkpt>
      <trkpt lat="43.76951" lon="6.68389">
        <ele>1064.2</ele>
        <time>2026-05-15T13:30:14Z</time>
      </trkpt>
      <trkpt lat="43.76959" lon="6.6841">
        <ele>1063.8</ele>
        <time>2026-05-15T13:30:15Z</time>
      </trkpt>
      <trkpt lat="43.76967" lon="6.68431">
        <ele>1063.7</ele>
        <time>2026-05-15T13:30:16Z</time>
      </trkpt>
      <trkpt lat="43.76975" lon="6.68453">
        <ele>1063.8</ele>
        <time>2026-05-15T13:30:17Z</time>
      </trkpt>
      <trkpt lat="43.76983" lon="6.68475">
        <ele>1063.4</ele>
        <time>2026-05-15T13:30:18Z</time>
      </trkpt>
      <trkpt lat="43.76991" lon="6.68497">
        <ele>1063.7</ele>
        <time>2026-05-15T13:30:19Z</time>
      </trkpt>
      <trkpt lat="43.76999" lon="6.6852">
        <ele>1064</ele>
        <time>2026-05-15T13:30:20Z</time>
      </trkpt>
      <trkpt lat="43.77008" lon="6.68543">
        <ele>1063.9</ele>
        <time>2026-05-15T13:30:21Z</time>
      </trkpt>
      <trkpt lat="43.77016" lon="6.68566">
        <ele>1063.9</ele>
        <time>2026-05-15T13:30:22Z</time>
      </trkpt>
      <trkpt lat="43.77025" lon="6.6859">
        <ele>1063.9</ele>
        <time>2026-05-15T13:30:23Z</time>
      </trkpt>
      <trkpt lat="43.77033" lon="6.68613">
        <ele>1064.1</ele>
        <time>2026-05-15T13:30:24Z</time>
      </trkpt>
      <trkpt lat="43.77042" lon="6.68637">
        <ele>1063.6</ele>
        <time>2026-05-15T13:30:25Z</time>
      </trkpt>
      <trkpt lat="43.7705" lon="6.68661">
        <ele>1063.8</ele>
        <time>2026-05-15T13:30:26Z</time>
      </trkpt>
      <trkpt lat="43.77059" lon="6.68685">
        <ele>1064</ele>
        <time>2026-05-15T13:30:27Z</time>
      </trkpt>
      <trkpt lat="43.77068" lon="6.68709">
        <ele>1063.7</ele>
        <time>2026-05-15T13:30:28Z</time>
      </trkpt>
      <trkpt lat="43.77077" lon="6.68734">
        <ele>1063.4</ele>
        <time>2026-05-15T13:30:29Z</time>
      </trkpt>
      <trkpt lat="43.77086" lon="6.68759">
        <ele>1063.1</ele>
        <time>2026-05-15T13:30:30Z</time>
      </trkpt>
      <trkpt lat="43.77095" lon="6.68784">
        <ele>1063.4</ele>
        <time>2026-05-15T13:30:31Z</time>
      </trkpt>
      <trkpt lat="43.77104" lon="6.68808">
        <ele>1063.7</ele>
        <time>2026-05-15T13:30:32Z</time>
      </trkpt>
      <trkpt lat="43.77113" lon="6.68832">
        <ele>1064.1</ele>
        <time>2026-05-15T13:30:33Z</time>
      </trkpt>
      <trkpt lat="43.77122" lon="6.68857">
        <ele>1064.4</ele>
        <time>2026-05-15T13:30:34Z</time>
      </trkpt>
      <trkpt lat="43.7713" lon="6.6888">
        <ele>1065.1</ele>
        <time>2026-05-15T13:30:35Z</time>
      </trkpt>
      <trkpt lat="43.77139" lon="6.68903">
        <ele>1066</ele>
        <time>2026-05-15T13:30:36Z</time>
      </trkpt>
      <trkpt lat="43.77147" lon="6.68926">
        <ele>1065.9</ele>
        <time>2026-05-15T13:30:37Z</time>
      </trkpt>
      <trkpt lat="43.77155" lon="6.68948">
        <ele>1066.2</ele>
        <time>2026-05-15T13:30:38Z</time>
      </trkpt>
      <trkpt lat="43.77164" lon="6.6897">
        <ele>1067.6</ele>
        <time>2026-05-15T13:30:39Z</time>
      </trkpt>
      <trkpt lat="43.77172" lon="6.68993">
        <ele>1068.2</ele>
        <time>2026-05-15T13:30:40Z</time>
      </trkpt>
      <trkpt lat="43.7718" lon="6.69015">
        <ele>1068.8</ele>
        <time>2026-05-15T13:30:41Z</time>
      </trkpt>
      <trkpt lat="43.77188" lon="6.69038">
        <ele>1069.4</ele>
        <time>2026-05-15T13:30:42Z</time>
      </trkpt>
      <trkpt lat="43.77197" lon="6.69061">
        <ele>1070.3</ele>
        <time>2026-05-15T13:30:43Z</time>
      </trkpt>
      <trkpt lat="43.77204" lon="6.69084">
        <ele>1071</ele>
        <time>2026-05-15T13:30:44Z</time>
      </trkpt>
      <trkpt lat="43.77211" lon="6.69108">
        <ele>1072.2</ele>
        <time>2026-05-15T13:30:45Z</time>
      </trkpt>
      <trkpt lat="43.77217" lon="6.69132">
        <ele>1072.5</ele>
        <time>2026-05-15T13:30:46Z</time>
      </trkpt>
      <trkpt lat="43.77221" lon="6.69156">
        <ele>1072.7</ele>
        <time>2026-05-15T13:30:47Z</time>
      </trkpt>
      <trkpt lat="43.77224" lon="6.69179">
        <ele>1073.9</ele>
        <time>2026-05-15T13:30:48Z</time>
      </trkpt>
      <trkpt lat="43.77226" lon="6.69202">
        <ele>1074.9</ele>
        <time>2026-05-15T13:30:49Z</time>
      </trkpt>
      <trkpt lat="43.77227" lon="6.69224">
        <ele>1074.8</ele>
        <time>2026-05-15T13:30:50Z</time>
      </trkpt>
      <trkpt lat="43.77227" lon="6.69245">
        <ele>1075</ele>
        <time>2026-05-15T13:30:51Z</time>
      </trkpt>
      <trkpt lat="43.77227" lon="6.69266">
        <ele>1075.5</ele>
        <time>2026-05-15T13:30:52Z</time>
      </trkpt>
      <trkpt lat="43.77227" lon="6.69288">
        <ele>1075.8</ele>
        <time>2026-05-15T13:30:53Z</time>
      </trkpt>
      <trkpt lat="43.77227" lon="6.69309">
        <ele>1076</ele>
        <time>2026-05-15T13:30:54Z</time>
      </trkpt>
      <trkpt lat="43.77226" lon="6.69331">
        <ele>1076.8</ele>
        <time>2026-05-15T13:30:55Z</time>
      </trkpt>
      <trkpt lat="43.77226" lon="6.69352">
        <ele>1077</ele>
        <time>2026-05-15T13:30:56Z</time>
      </trkpt>
      <trkpt lat="43.77225" lon="6.69374">
        <ele>1077.5</ele>
        <time>2026-05-15T13:30:57Z</time>
      </trkpt>
      <trkpt lat="43.77224" lon="6.69396">
        <ele>1078.2</ele>
        <time>2026-05-15T13:30:58Z</time>
      </trkpt>
      <trkpt lat="43.77224" lon="6.69417">
        <ele>1078.9</ele>
        <time>2026-05-15T13:30:59Z</time>
      </trkpt>
      <trkpt lat="43.77223" lon="6.69438">
        <ele>1079</ele>
        <time>2026-05-15T13:31:00Z</time>
      </trkpt>
      <trkpt lat="43.77223" lon="6.6946">
        <ele>1079.6</ele>
        <time>2026-05-15T13:31:01Z</time>
      </trkpt>
      <trkpt lat="43.77222" lon="6.69481">
        <ele>1080</ele>
        <time>2026-05-15T13:31:02Z</time>
      </trkpt>
      <trkpt lat="43.77222" lon="6.69503">
        <ele>1080.1</ele>
        <time>2026-05-15T13:31:03Z</time>
      </trkpt>
      <trkpt lat="43.77223" lon="6.69525">
        <ele>1080.9</ele>
        <time>2026-05-15T13:31:04Z</time>
      </trkpt>
      <trkpt lat="43.77223" lon="6.69547">
        <ele>1081</ele>
        <time>2026-05-15T13:31:05Z</time>
      </trkpt>
      <trkpt lat="43.77224" lon="6.69571">
        <ele>1081.1</ele>
        <time>2026-05-15T13:31:06Z</time>
      </trkpt>
      <trkpt lat="43.77224" lon="6.69594">
        <ele>1081.1</ele>
        <time>2026-05-15T13:31:07Z</time>
      </trkpt>
      <trkpt lat="43.77225" lon="6.69617">
        <ele>1080.9</ele>
        <time>2026-05-15T13:31:08Z</time>
      </trkpt>
      <trkpt lat="43.77225" lon="6.69641">
        <ele>1080.4</ele>
        <time>2026-05-15T13:31:09Z</time>
      </trkpt>
      <trkpt lat="43.77223" lon="6.69665">
        <ele>1081</ele>
        <time>2026-05-15T13:31:10Z</time>
      </trkpt>
      <trkpt lat="43.77221" lon="6.69689">
        <ele>1080.9</ele>
        <time>2026-05-15T13:31:11Z</time>
      </trkpt>
      <trkpt lat="43.77217" lon="6.69713">
        <ele>1080.4</ele>
        <time>2026-05-15T13:31:12Z</time>
      </trkpt>
      <trkpt lat="43.77213" lon="6.69737">
        <ele>1080.2</ele>
        <time>2026-05-15T13:31:13Z</time>
      </trkpt>
      <trkpt lat="43.77209" lon="6.69762">
        <ele>1080</ele>
        <time>2026-05-15T13:31:14Z</time>
      </trkpt>
      <trkpt lat="43.77204" lon="6.69787">
        <ele>1080</ele>
        <time>2026-05-15T13:31:15Z</time>
      </trkpt>
      <trkpt lat="43.77199" lon="6.69812">
        <ele>1080.4</ele>
        <time>2026-05-15T13:31:16Z</time>
      </trkpt>
      <trkpt lat="43.77195" lon="6.69838">
        <ele>1080.2</ele>
        <time>2026-05-15T13:31:17Z</time>
      </trkpt>
      <trkpt lat="43.7719" lon="6.69864">
        <ele>1080.8</ele>
        <time>2026-05-15T13:31:18Z</time>
      </trkpt>
      <trkpt lat="43.77185" lon="6.6989">
        <ele>1081</ele>
        <time>2026-05-15T13:31:19Z</time>
      </trkpt>
      <trkpt lat="43.77181" lon="6.69917">
        <ele>1081</ele>
        <time>2026-05-15T13:31:20Z</time>
      </trkpt>
      <trkpt lat="43.77176" lon="6.69943">
        <ele>1081</ele>
        <time>2026-05-15T13:31:21Z</time>
      </trkpt>
      <trkpt lat="43.77172" lon="6.6997">
        <ele>1080.6</ele>
        <time>2026-05-15T13:31:22Z</time>
      </trkpt>
      <trkpt lat="43.77167" lon="6.69996">
        <ele>1082.6</ele>
        <time>2026-05-15T13:31:23Z</time>
      </trkpt>
      <trkpt lat="43.77163" lon="6.70021">
        <ele>1083.4</ele>
        <time>2026-05-15T13:31:24Z</time>
      </trkpt>
      <trkpt lat="43.77158" lon="6.70046">
        <ele>1083.3</ele>
        <time>2026-05-15T13:31:25Z</time>
      </trkpt>
      <trkpt lat="43.77153" lon="6.70071">
        <ele>1082.7</ele>
        <time>2026-05-15T13:31:26Z</time>
      </trkpt>
      <trkpt lat="43.77149" lon="6.70097">
        <ele>1082.1</ele>
        <time>2026-05-15T13:31:27Z</time>
      </trkpt>
      <trkpt lat="43.77145" lon="6.70123">
        <ele>1081</ele>
        <time>2026-05-15T13:31:28Z</time>
      </trkpt>
      <trkpt lat="43.7714" lon="6.70149">
        <ele>1080.4</ele>
        <time>2026-05-15T13:31:29Z</time>
      </trkpt>
      <trkpt lat="43.77136" lon="6.70175">
        <ele>1080.8</ele>
        <time>2026-05-15T13:31:30Z</time>
      </trkpt>
      <trkpt lat="43.77131" lon="6.70202">
        <ele>1080.5</ele>
        <time>2026-05-15T13:31:31Z</time>
      </trkpt>
      <trkpt lat="43.77126" lon="6.70229">
        <ele>1080.5</ele>
        <time>2026-05-15T13:31:32Z</time>
      </trkpt>
      <trkpt lat="43.77121" lon="6.70256">
        <ele>1080.6</ele>
        <time>2026-05-15T13:31:33Z</time>
      </trkpt>
      <trkpt lat="43.77116" lon="6.70283">
        <ele>1081.2</ele>
        <time>2026-05-15T13:31:34Z</time>
      </trkpt>
      <trkpt lat="43.7711" lon="6.7031">
        <ele>1081.1</ele>
        <time>2026-05-15T13:31:35Z</time>
      </trkpt>
      <trkpt lat="43.77104" lon="6.70337">
        <ele>1081.6</ele>
        <time>2026-05-15T13:31:36Z</time>
      </trkpt>
      <trkpt lat="43.77096" lon="6.70364">
        <ele>1082</ele>
        <time>2026-05-15T13:31:37Z</time>
      </trkpt>
      <trkpt lat="43.77087" lon="6.70389">
        <ele>1082.1</ele>
        <time>2026-05-15T13:31:38Z</time>
      </trkpt>
      <trkpt lat="43.77077" lon="6.70414">
        <ele>1081.5</ele>
        <time>2026-05-15T13:31:39Z</time>
      </trkpt>
      <trkpt lat="43.77067" lon="6.70439">
        <ele>1081.3</ele>
        <time>2026-05-15T13:31:40Z</time>
      </trkpt>
      <trkpt lat="43.77056" lon="6.70464">
        <ele>1081</ele>
        <time>2026-05-15T13:31:41Z</time>
      </trkpt>
      <trkpt lat="43.77046" lon="6.70488">
        <ele>1081</ele>
        <time>2026-05-15T13:31:42Z</time>
      </trkpt>
      <trkpt lat="43.77036" lon="6.70511">
        <ele>1081</ele>
        <time>2026-05-15T13:31:43Z</time>
      </trkpt>
      <trkpt lat="43.77026" lon="6.70533">
        <ele>1081.1</ele>
        <time>2026-05-15T13:31:44Z</time>
      </trkpt>
      <trkpt lat="43.77016" lon="6.70554">
        <ele>1081.1</ele>
        <time>2026-05-15T13:31:45Z</time>
      </trkpt>
      <trkpt lat="43.77007" lon="6.70575">
        <ele>1081</ele>
        <time>2026-05-15T13:31:46Z</time>
      </trkpt>
      <trkpt lat="43.76998" lon="6.70595">
        <ele>1080.9</ele>
        <time>2026-05-15T13:31:47Z</time>
      </trkpt>
      <trkpt lat="43.76989" lon="6.70615">
        <ele>1080.7</ele>
        <time>2026-05-15T13:31:48Z</time>
      </trkpt>
      <trkpt lat="43.76981" lon="6.70634">
        <ele>1081.1</ele>
        <time>2026-05-15T13:31:49Z</time>
      </trkpt>
      <trkpt lat="43.76972" lon="6.70654">
        <ele>1081.5</ele>
        <time>2026-05-15T13:31:50Z</time>
      </trkpt>
      <trkpt lat="43.76963" lon="6.70673">
        <ele>1081.4</ele>
        <time>2026-05-15T13:31:51Z</time>
      </trkpt>
      <trkpt lat="43.76955" lon="6.70693">
        <ele>1081.3</ele>
        <time>2026-05-15T13:31:52Z</time>
      </trkpt>
      <trkpt lat="43.76946" lon="6.70713">
        <ele>1081.1</ele>
        <time>2026-05-15T13:31:53Z</time>
      </trkpt>
      <trkpt lat="43.76937" lon="6.70733">
        <ele>1080.8</ele>
        <time>2026-05-15T13:31:54Z</time>
      </trkpt>
      <trkpt lat="43.76928" lon="6.70754">
        <ele>1081.1</ele>
        <time>2026-05-15T13:31:55Z</time>
      </trkpt>
      <trkpt lat="43.76918" lon="6.70775">
        <ele>1081</ele>
        <time>2026-05-15T13:31:56Z</time>
      </trkpt>
      <trkpt lat="43.76909" lon="6.70796">
        <ele>1081.4</ele>
        <time>2026-05-15T13:31:57Z</time>
      </trkpt>
      <trkpt lat="43.76899" lon="6.70817">
        <ele>1081.4</ele>
        <time>2026-05-15T13:31:58Z</time>
      </trkpt>
      <trkpt lat="43.7689" lon="6.70838">
        <ele>1081.2</ele>
        <time>2026-05-15T13:31:59Z</time>
      </trkpt>
      <trkpt lat="43.7688" lon="6.7086">
        <ele>1081.7</ele>
        <time>2026-05-15T13:32:00Z</time>
      </trkpt>
      <trkpt lat="43.7687" lon="6.70881">
        <ele>1082</ele>
        <time>2026-05-15T13:32:01Z</time>
      </trkpt>
      <trkpt lat="43.76861" lon="6.70902">
        <ele>1082</ele>
        <time>2026-05-15T13:32:02Z</time>
      </trkpt>
      <trkpt lat="43.76851" lon="6.70924">
        <ele>1082.3</ele>
        <time>2026-05-15T13:32:03Z</time>
      </trkpt>
      <trkpt lat="43.76841" lon="6.70946">
        <ele>1082.6</ele>
        <time>2026-05-15T13:32:04Z</time>
      </trkpt>
      <trkpt lat="43.76832" lon="6.70968">
        <ele>1083</ele>
        <time>2026-05-15T13:32:05Z</time>
      </trkpt>
      <trkpt lat="43.76822" lon="6.7099">
        <ele>1083.9</ele>
        <time>2026-05-15T13:32:06Z</time>
      </trkpt>
      <trkpt lat="43.76813" lon="6.71012">
        <ele>1084.2</ele>
        <time>2026-05-15T13:32:07Z</time>
      </trkpt>
      <trkpt lat="43.76803" lon="6.71033">
        <ele>1084.4</ele>
        <time>2026-05-15T13:32:08Z</time>
      </trkpt>
      <trkpt lat="43.76793" lon="6.71055">
        <ele>1085.5</ele>
        <time>2026-05-15T13:32:09Z</time>
      </trkpt>
      <trkpt lat="43.76783" lon="6.71076">
        <ele>1085.4</ele>
        <time>2026-05-15T13:32:10Z</time>
      </trkpt>
      <trkpt lat="43.76774" lon="6.71097">
        <ele>1085.1</ele>
        <time>2026-05-15T13:32:11Z</time>
      </trkpt>
      <trkpt lat="43.76765" lon="6.71118">
        <ele>1085.1</ele>
        <time>2026-05-15T13:32:12Z</time>
      </trkpt>
      <trkpt lat="43.76755" lon="6.71138">
        <ele>1085.2</ele>
        <time>2026-05-15T13:32:13Z</time>
      </trkpt>
      <trkpt lat="43.76745" lon="6.71157">
        <ele>1086.3</ele>
        <time>2026-05-15T13:32:14Z</time>
      </trkpt>
      <trkpt lat="43.76734" lon="6.71173">
        <ele>1086.7</ele>
        <time>2026-05-15T13:32:15Z</time>
      </trkpt>
      <trkpt lat="43.76722" lon="6.71188">
        <ele>1086.8</ele>
        <time>2026-05-15T13:32:16Z</time>
      </trkpt>
      <trkpt lat="43.7671" lon="6.71202">
        <ele>1087.3</ele>
        <time>2026-05-15T13:32:17Z</time>
      </trkpt>
      <trkpt lat="43.76697" lon="6.71213">
        <ele>1087.7</ele>
        <time>2026-05-15T13:32:18Z</time>
      </trkpt>
      <trkpt lat="43.76684" lon="6.71223">
        <ele>1088.1</ele>
        <time>2026-05-15T13:32:19Z</time>
      </trkpt>
      <trkpt lat="43.76669" lon="6.71232">
        <ele>1088.7</ele>
        <time>2026-05-15T13:32:20Z</time>
      </trkpt>
      <trkpt lat="43.76653" lon="6.71239">
        <ele>1089.4</ele>
        <time>2026-05-15T13:32:21Z</time>
      </trkpt>
      <trkpt lat="43.76638" lon="6.71245">
        <ele>1089.8</ele>
        <time>2026-05-15T13:32:22Z</time>
      </trkpt>
      <trkpt lat="43.76624" lon="6.71248">
        <ele>1090.4</ele>
        <time>2026-05-15T13:32:23Z</time>
      </trkpt>
      <trkpt lat="43.76609" lon="6.71251">
        <ele>1091.1</ele>
        <time>2026-05-15T13:32:24Z</time>
      </trkpt>
      <trkpt lat="43.76595" lon="6.71252">
        <ele>1091.2</ele>
        <time>2026-05-15T13:32:25Z</time>
      </trkpt>
      <trkpt lat="43.76582" lon="6.71251">
        <ele>1091.2</ele>
        <time>2026-05-15T13:32:26Z</time>
      </trkpt>
      <trkpt lat="43.76569" lon="6.7125">
        <ele>1091.5</ele>
        <time>2026-05-15T13:32:27Z</time>
      </trkpt>
      <trkpt lat="43.76557" lon="6.71248">
        <ele>1091.8</ele>
        <time>2026-05-15T13:32:28Z</time>
      </trkpt>
      <trkpt lat="43.76546" lon="6.71246">
        <ele>1092.1</ele>
        <time>2026-05-15T13:32:29Z</time>
      </trkpt>
      <trkpt lat="43.76535" lon="6.71242">
        <ele>1092.4</ele>
        <time>2026-05-15T13:32:30Z</time>
      </trkpt>
      <trkpt lat="43.76524" lon="6.71237">
        <ele>1092.6</ele>
        <time>2026-05-15T13:32:31Z</time>
      </trkpt>
      <trkpt lat="43.76514" lon="6.71229">
        <ele>1092.6</ele>
        <time>2026-05-15T13:32:32Z</time>
      </trkpt>
      <trkpt lat="43.76503" lon="6.71221">
        <ele>1092.9</ele>
        <time>2026-05-15T13:32:33Z</time>
      </trkpt>
      <trkpt lat="43.76491" lon="6.71213">
        <ele>1093.3</ele>
        <time>2026-05-15T13:32:34Z</time>
      </trkpt>
      <trkpt lat="43.76479" lon="6.71204">
        <ele>1093.7</ele>
        <time>2026-05-15T13:32:35Z</time>
      </trkpt>
      <trkpt lat="43.76467" lon="6.71195">
        <ele>1094</ele>
        <time>2026-05-15T13:32:36Z</time>
      </trkpt>
      <trkpt lat="43.76455" lon="6.71185">
        <ele>1094.5</ele>
        <time>2026-05-15T13:32:37Z</time>
      </trkpt>
      <trkpt lat="43.76443" lon="6.71176">
        <ele>1094.6</ele>
        <time>2026-05-15T13:32:38Z</time>
      </trkpt>
      <trkpt lat="43.76432" lon="6.71166">
        <ele>1094.6</ele>
        <time>2026-05-15T13:32:39Z</time>
      </trkpt>
      <trkpt lat="43.7642" lon="6.71157">
        <ele>1094.8</ele>
        <time>2026-05-15T13:32:40Z</time>
      </trkpt>
      <trkpt lat="43.76408" lon="6.71148">
        <ele>1095.4</ele>
        <time>2026-05-15T13:32:41Z</time>
      </trkpt>
      <trkpt lat="43.76396" lon="6.71139">
        <ele>1096</ele>
        <time>2026-05-15T13:32:42Z</time>
      </trkpt>
      <trkpt lat="43.76384" lon="6.71129">
        <ele>1096.5</ele>
        <time>2026-05-15T13:32:43Z</time>
      </trkpt>
      <trkpt lat="43.76372" lon="6.71119">
        <ele>1096.8</ele>
        <time>2026-05-15T13:32:44Z</time>
      </trkpt>
      <trkpt lat="43.76359" lon="6.71108">
        <ele>1097.1</ele>
        <time>2026-05-15T13:32:45Z</time>
      </trkpt>
      <trkpt lat="43.76347" lon="6.71097">
        <ele>1097.5</ele>
        <time>2026-05-15T13:32:46Z</time>
      </trkpt>
      <trkpt lat="43.76335" lon="6.71084">
        <ele>1098</ele>
        <time>2026-05-15T13:32:47Z</time>
      </trkpt>
      <trkpt lat="43.76324" lon="6.71069">
        <ele>1098.5</ele>
        <time>2026-05-15T13:32:48Z</time>
      </trkpt>
      <trkpt lat="43.76314" lon="6.71053">
        <ele>1098.7</ele>
        <time>2026-05-15T13:32:49Z</time>
      </trkpt>
      <trkpt lat="43.76304" lon="6.71036">
        <ele>1098.6</ele>
        <time>2026-05-15T13:32:50Z</time>
      </trkpt>
      <trkpt lat="43.76295" lon="6.71018">
        <ele>1098.9</ele>
        <time>2026-05-15T13:32:51Z</time>
      </trkpt>
      <trkpt lat="43.76286" lon="6.71001">
        <ele>1099.5</ele>
        <time>2026-05-15T13:32:52Z</time>
      </trkpt>
      <trkpt lat="43.76276" lon="6.70985">
        <ele>1099.5</ele>
        <time>2026-05-15T13:32:53Z</time>
      </trkpt>
      <trkpt lat="43.76266" lon="6.70968">
        <ele>1099.7</ele>
        <time>2026-05-15T13:32:54Z</time>
      </trkpt>
      <trkpt lat="43.76256" lon="6.70952">
        <ele>1099.9</ele>
        <time>2026-05-15T13:32:55Z</time>
      </trkpt>
      <trkpt lat="43.76245" lon="6.70937">
        <ele>1100.3</ele>
        <time>2026-05-15T13:32:56Z</time>
      </trkpt>
      <trkpt lat="43.76233" lon="6.70923">
        <ele>1100.8</ele>
        <time>2026-05-15T13:32:57Z</time>
      </trkpt>
      <trkpt lat="43.7622" lon="6.70912">
        <ele>1101.1</ele>
        <time>2026-05-15T13:32:58Z</time>
      </trkpt>
      <trkpt lat="43.76206" lon="6.70903">
        <ele>1101.9</ele>
        <time>2026-05-15T13:32:59Z</time>
      </trkpt>
      <trkpt lat="43.76191" lon="6.70897">
        <ele>1102.4</ele>
        <time>2026-05-15T13:33:00Z</time>
      </trkpt>
      <trkpt lat="43.76175" lon="6.70894">
        <ele>1102.4</ele>
        <time>2026-05-15T13:33:01Z</time>
      </trkpt>
      <trkpt lat="43.76158" lon="6.70895">
        <ele>1102.7</ele>
        <time>2026-05-15T13:33:02Z</time>
      </trkpt>
      <trkpt lat="43.76142" lon="6.70899">
        <ele>1103.4</ele>
        <time>2026-05-15T13:33:03Z</time>
      </trkpt>
      <trkpt lat="43.76127" lon="6.70905">
        <ele>1104.3</ele>
        <time>2026-05-15T13:33:04Z</time>
      </trkpt>
      <trkpt lat="43.76111" lon="6.70915">
        <ele>1104.9</ele>
        <time>2026-05-15T13:33:05Z</time>
      </trkpt>
      <trkpt lat="43.76096" lon="6.70928">
        <ele>1105.8</ele>
        <time>2026-05-15T13:33:06Z</time>
      </trkpt>
      <trkpt lat="43.76082" lon="6.70944">
        <ele>1105.9</ele>
        <time>2026-05-15T13:33:07Z</time>
      </trkpt>
      <trkpt lat="43.7607" lon="6.70963">
        <ele>1105.9</ele>
        <time>2026-05-15T13:33:08Z</time>
      </trkpt>
      <trkpt lat="43.76058" lon="6.70983">
        <ele>1105.6</ele>
        <time>2026-05-15T13:33:09Z</time>
      </trkpt>
      <trkpt lat="43.76047" lon="6.71005">
        <ele>1105.7</ele>
        <time>2026-05-15T13:33:10Z</time>
      </trkpt>
      <trkpt lat="43.76035" lon="6.71027">
        <ele>1105.3</ele>
        <time>2026-05-15T13:33:11Z</time>
      </trkpt>
      <trkpt lat="43.76024" lon="6.7105">
        <ele>1105</ele>
        <time>2026-05-15T13:33:12Z</time>
      </trkpt>
      <trkpt lat="43.76013" lon="6.71074">
        <ele>1105</ele>
        <time>2026-05-15T13:33:13Z</time>
      </trkpt>
      <trkpt lat="43.76003" lon="6.71098">
        <ele>1105.1</ele>
        <time>2026-05-15T13:33:14Z</time>
      </trkpt>
      <trkpt lat="43.75994" lon="6.71123">
        <ele>1105.5</ele>
        <time>2026-05-15T13:33:15Z</time>
      </trkpt>
      <trkpt lat="43.75984" lon="6.71147">
        <ele>1105.8</ele>
        <time>2026-05-15T13:33:16Z</time>
      </trkpt>
      <trkpt lat="43.75974" lon="6.71169">
        <ele>1105.7</ele>
        <time>2026-05-15T13:33:17Z</time>
      </trkpt>
      <trkpt lat="43.75961" lon="6.7119">
        <ele>1106.9</ele>
        <time>2026-05-15T13:33:18Z</time>
      </trkpt>
      <trkpt lat="43.75947" lon="6.71209">
        <ele>1108.1</ele>
        <time>2026-05-15T13:33:19Z</time>
      </trkpt>
      <trkpt lat="43.75932" lon="6.71226">
        <ele>1109</ele>
        <time>2026-05-15T13:33:20Z</time>
      </trkpt>
      <trkpt lat="43.75916" lon="6.71243">
        <ele>1109.6</ele>
        <time>2026-05-15T13:33:21Z</time>
      </trkpt>
      <trkpt lat="43.75901" lon="6.71258">
        <ele>1110</ele>
        <time>2026-05-15T13:33:22Z</time>
      </trkpt>
      <trkpt lat="43.75886" lon="6.71274">
        <ele>1109.9</ele>
        <time>2026-05-15T13:33:23Z</time>
      </trkpt>
      <trkpt lat="43.75872" lon="6.71289">
        <ele>1111.1</ele>
        <time>2026-05-15T13:33:24Z</time>
      </trkpt>
      <trkpt lat="43.75858" lon="6.71304">
        <ele>1111.3</ele>
        <time>2026-05-15T13:33:25Z</time>
      </trkpt>
      <trkpt lat="43.75845" lon="6.71319">
        <ele>1111.7</ele>
        <time>2026-05-15T13:33:26Z</time>
      </trkpt>
      <trkpt lat="43.75832" lon="6.71335">
        <ele>1111.1</ele>
        <time>2026-05-15T13:33:27Z</time>
      </trkpt>
      <trkpt lat="43.7582" lon="6.71352">
        <ele>1111.8</ele>
        <time>2026-05-15T13:33:28Z</time>
      </trkpt>
      <trkpt lat="43.75808" lon="6.7137">
        <ele>1111.8</ele>
        <time>2026-05-15T13:33:29Z</time>
      </trkpt>
      <trkpt lat="43.75797" lon="6.71389">
        <ele>1112.5</ele>
        <time>2026-05-15T13:33:30Z</time>
      </trkpt>
      <trkpt lat="43.75787" lon="6.71408">
        <ele>1113.4</ele>
        <time>2026-05-15T13:33:31Z</time>
      </trkpt>
      <trkpt lat="43.75779" lon="6.7143">
        <ele>1114.3</ele>
        <time>2026-05-15T13:33:32Z</time>
      </trkpt>
      <trkpt lat="43.75773" lon="6.71453">
        <ele>1115.5</ele>
        <time>2026-05-15T13:33:33Z</time>
      </trkpt>
      <trkpt lat="43.75769" lon="6.71477">
        <ele>1116.7</ele>
        <time>2026-05-15T13:33:34Z</time>
      </trkpt>
      <trkpt lat="43.75765" lon="6.71502">
        <ele>1118.1</ele>
        <time>2026-05-15T13:33:35Z</time>
      </trkpt>
      <trkpt lat="43.75761" lon="6.71527">
        <ele>1118.3</ele>
        <time>2026-05-15T13:33:36Z</time>
      </trkpt>
      <trkpt lat="43.75757" lon="6.71552">
        <ele>1118.5</ele>
        <time>2026-05-15T13:33:37Z</time>
      </trkpt>
      <trkpt lat="43.75753" lon="6.71577">
        <ele>1118.6</ele>
        <time>2026-05-15T13:33:38Z</time>
      </trkpt>
      <trkpt lat="43.7575" lon="6.71601">
        <ele>1119.3</ele>
        <time>2026-05-15T13:33:39Z</time>
      </trkpt>
      <trkpt lat="43.75745" lon="6.71625">
        <ele>1120.5</ele>
        <time>2026-05-15T13:33:40Z</time>
      </trkpt>
      <trkpt lat="43.75739" lon="6.71647">
        <ele>1121.6</ele>
        <time>2026-05-15T13:33:41Z</time>
      </trkpt>
      <trkpt lat="43.75731" lon="6.71668">
        <ele>1122.1</ele>
        <time>2026-05-15T13:33:42Z</time>
      </trkpt>
      <trkpt lat="43.75721" lon="6.71688">
        <ele>1123.2</ele>
        <time>2026-05-15T13:33:43Z</time>
      </trkpt>
      <trkpt lat="43.75711" lon="6.71708">
        <ele>1123.8</ele>
        <time>2026-05-15T13:33:44Z</time>
      </trkpt>
      <trkpt lat="43.75702" lon="6.71728">
        <ele>1124.5</ele>
        <time>2026-05-15T13:33:45Z</time>
      </trkpt>
      <trkpt lat="43.75693" lon="6.71748">
        <ele>1125.2</ele>
        <time>2026-05-15T13:33:46Z</time>
      </trkpt>
      <trkpt lat="43.75684" lon="6.71768">
        <ele>1125.2</ele>
        <time>2026-05-15T13:33:47Z</time>
      </trkpt>
      <trkpt lat="43.75677" lon="6.71789">
        <ele>1126.1</ele>
        <time>2026-05-15T13:33:48Z</time>
      </trkpt>
      <trkpt lat="43.7567" lon="6.7181">
        <ele>1127</ele>
        <time>2026-05-15T13:33:49Z</time>
      </trkpt>
      <trkpt lat="43.75662" lon="6.71831">
        <ele>1128.1</ele>
        <time>2026-05-15T13:33:50Z</time>
      </trkpt>
      <trkpt lat="43.75653" lon="6.71851">
        <ele>1128.4</ele>
        <time>2026-05-15T13:33:51Z</time>
      </trkpt>
      <trkpt lat="43.75644" lon="6.71871">
        <ele>1128.6</ele>
        <time>2026-05-15T13:33:52Z</time>
      </trkpt>
      <trkpt lat="43.75633" lon="6.7189">
        <ele>1128.3</ele>
        <time>2026-05-15T13:33:53Z</time>
      </trkpt>
      <trkpt lat="43.75623" lon="6.71909">
        <ele>1128.1</ele>
        <time>2026-05-15T13:33:54Z</time>
      </trkpt>
      <trkpt lat="43.75613" lon="6.71928">
        <ele>1127.7</ele>
        <time>2026-05-15T13:33:55Z</time>
      </trkpt>
      <trkpt lat="43.75604" lon="6.71949">
        <ele>1128.6</ele>
        <time>2026-05-15T13:33:56Z</time>
      </trkpt>
      <trkpt lat="43.75597" lon="6.7197">
        <ele>1129.6</ele>
        <time>2026-05-15T13:33:57Z</time>
      </trkpt>
      <trkpt lat="43.75591" lon="6.71991">
        <ele>1131.1</ele>
        <time>2026-05-15T13:33:58Z</time>
      </trkpt>
      <trkpt lat="43.75582" lon="6.7201">
        <ele>1131.1</ele>
        <time>2026-05-15T13:33:59Z</time>
      </trkpt>
      <trkpt lat="43.75573" lon="6.72028">
        <ele>1131.4</ele>
        <time>2026-05-15T13:34:00Z</time>
      </trkpt>
      <trkpt lat="43.75563" lon="6.72046">
        <ele>1132.2</ele>
        <time>2026-05-15T13:34:01Z</time>
      </trkpt>
      <trkpt lat="43.75552" lon="6.72064">
        <ele>1132.9</ele>
        <time>2026-05-15T13:34:02Z</time>
      </trkpt>
      <trkpt lat="43.75542" lon="6.72083">
        <ele>1134</ele>
        <time>2026-05-15T13:34:03Z</time>
      </trkpt>
      <trkpt lat="43.75532" lon="6.72101">
        <ele>1135.1</ele>
        <time>2026-05-15T13:34:04Z</time>
      </trkpt>
      <trkpt lat="43.75521" lon="6.7212">
        <ele>1136</ele>
        <time>2026-05-15T13:34:05Z</time>
      </trkpt>
      <trkpt lat="43.7551" lon="6.72139">
        <ele>1136.6</ele>
        <time>2026-05-15T13:34:06Z</time>
      </trkpt>
      <trkpt lat="43.75501" lon="6.72159">
        <ele>1137.7</ele>
        <time>2026-05-15T13:34:07Z</time>
      </trkpt>
      <trkpt lat="43.75493" lon="6.72181">
        <ele>1138.9</ele>
        <time>2026-05-15T13:34:08Z</time>
      </trkpt>
      <trkpt lat="43.75485" lon="6.72203">
        <ele>1139.8</ele>
        <time>2026-05-15T13:34:09Z</time>
      </trkpt>
      <trkpt lat="43.75477" lon="6.72226">
        <ele>1141.2</ele>
        <time>2026-05-15T13:34:10Z</time>
      </trkpt>
      <trkpt lat="43.75469" lon="6.72249">
        <ele>1143.5</ele>
        <time>2026-05-15T13:34:11Z</time>
      </trkpt>
      <trkpt lat="43.75462" lon="6.72273">
        <ele>1145.9</ele>
        <time>2026-05-15T13:34:12Z</time>
      </trkpt>
      <trkpt lat="43.75454" lon="6.72298">
        <ele>1146.9</ele>
        <time>2026-05-15T13:34:13Z</time>
      </trkpt>
      <trkpt lat="43.75447" lon="6.72323">
        <ele>1147.6</ele>
        <time>2026-05-15T13:34:14Z</time>
      </trkpt>
      <trkpt lat="43.75439" lon="6.72348">
        <ele>1148.6</ele>
        <time>2026-05-15T13:34:15Z</time>
      </trkpt>
      <trkpt lat="43.75432" lon="6.72373">
        <ele>1149.8</ele>
        <time>2026-05-15T13:34:16Z</time>
      </trkpt>
      <trkpt lat="43.75422" lon="6.72396">
        <ele>1149.4</ele>
        <time>2026-05-15T13:34:17Z</time>
      </trkpt>
      <trkpt lat="43.75411" lon="6.72418">
        <ele>1149.5</ele>
        <time>2026-05-15T13:34:18Z</time>
      </trkpt>
      <trkpt lat="43.75399" lon="6.72438">
        <ele>1150</ele>
        <time>2026-05-15T13:34:19Z</time>
      </trkpt>
      <trkpt lat="43.75385" lon="6.72458">
        <ele>1149.5</ele>
        <time>2026-05-15T13:34:20Z</time>
      </trkpt>
      <trkpt lat="43.75372" lon="6.72477">
        <ele>1149.8</ele>
        <time>2026-05-15T13:34:21Z</time>
      </trkpt>
      <trkpt lat="43.75359" lon="6.72498">
        <ele>1150.6</ele>
        <time>2026-05-15T13:34:22Z</time>
      </trkpt>
      <trkpt lat="43.75347" lon="6.7252">
        <ele>1152.9</ele>
        <time>2026-05-15T13:34:23Z</time>
      </trkpt>
      <trkpt lat="43.75336" lon="6.72542">
        <ele>1155.2</ele>
        <time>2026-05-15T13:34:24Z</time>
      </trkpt>
      <trkpt lat="43.75325" lon="6.72564">
        <ele>1156.5</ele>
        <time>2026-05-15T13:34:25Z</time>
      </trkpt>
      <trkpt lat="43.75315" lon="6.72586">
        <ele>1158.2</ele>
        <time>2026-05-15T13:34:26Z</time>
      </trkpt>
      <trkpt lat="43.75305" lon="6.72608">
        <ele>1159.9</ele>
        <time>2026-05-15T13:34:27Z</time>
      </trkpt>
      <trkpt lat="43.75294" lon="6.7263">
        <ele>1162.1</ele>
        <time>2026-05-15T13:34:28Z</time>
      </trkpt>
      <trkpt lat="43.75284" lon="6.72652">
        <ele>1163.9</ele>
        <time>2026-05-15T13:34:29Z</time>
      </trkpt>
      <trkpt lat="43.75273" lon="6.72674">
        <ele>1165.2</ele>
        <time>2026-05-15T13:34:30Z</time>
      </trkpt>
      <trkpt lat="43.75263" lon="6.72695">
        <ele>1166.3</ele>
        <time>2026-05-15T13:34:31Z</time>
      </trkpt>
      <trkpt lat="43.75252" lon="6.72717">
        <ele>1166</ele>
        <time>2026-05-15T13:34:32Z</time>
      </trkpt>
      <trkpt lat="43.75241" lon="6.72739">
        <ele>1166.2</ele>
        <time>2026-05-15T13:34:33Z</time>
      </trkpt>
      <trkpt lat="43.75231" lon="6.72761">
        <ele>1166.9</ele>
        <time>2026-05-15T13:34:34Z</time>
      </trkpt>
      <trkpt lat="43.7522" lon="6.72782">
        <ele>1167.5</ele>
        <time>2026-05-15T13:34:35Z</time>
      </trkpt>
      <trkpt lat="43.75209" lon="6.72802">
        <ele>1169</ele>
        <time>2026-05-15T13:34:36Z</time>
      </trkpt>
      <trkpt lat="43.75196" lon="6.72821">
        <ele>1169.2</ele>
        <time>2026-05-15T13:34:37Z</time>
      </trkpt>
      <trkpt lat="43.75184" lon="6.72839">
        <ele>1170.1</ele>
        <time>2026-05-15T13:34:38Z</time>
      </trkpt>
      <trkpt lat="43.75171" lon="6.72856">
        <ele>1169.6</ele>
        <time>2026-05-15T13:34:39Z</time>
      </trkpt>
      <trkpt lat="43.75158" lon="6.72873">
        <ele>1169.1</ele>
        <time>2026-05-15T13:34:40Z</time>
      </trkpt>
      <trkpt lat="43.75146" lon="6.72891">
        <ele>1168.5</ele>
        <time>2026-05-15T13:34:41Z</time>
      </trkpt>
      <trkpt lat="43.75135" lon="6.72909">
        <ele>1169</ele>
        <time>2026-05-15T13:34:42Z</time>
      </trkpt>
      <trkpt lat="43.75127" lon="6.72929">
        <ele>1170.1</ele>
        <time>2026-05-15T13:34:43Z</time>
      </trkpt>
      <trkpt lat="43.75119" lon="6.72948">
        <ele>1170.3</ele>
        <time>2026-05-15T13:34:44Z</time>
      </trkpt>
      <trkpt lat="43.75112" lon="6.72966">
        <ele>1170</ele>
        <time>2026-05-15T13:34:45Z</time>
      </trkpt>
      <trkpt lat="43.75105" lon="6.72984">
        <ele>1169.7</ele>
        <time>2026-05-15T13:34:46Z</time>
      </trkpt>
      <trkpt lat="43.751" lon="6.73003">
        <ele>1169.3</ele>
        <time>2026-05-15T13:34:47Z</time>
      </trkpt>
      <trkpt lat="43.75096" lon="6.73022">
        <ele>1169.2</ele>
        <time>2026-05-15T13:34:48Z</time>
      </trkpt>
      <trkpt lat="43.75095" lon="6.7304">
        <ele>1169</ele>
        <time>2026-05-15T13:34:49Z</time>
      </trkpt>
      <trkpt lat="43.75097" lon="6.73059">
        <ele>1169.2</ele>
        <time>2026-05-15T13:34:50Z</time>
      </trkpt>
      <trkpt lat="43.751" lon="6.73076">
        <ele>1168.9</ele>
        <time>2026-05-15T13:34:51Z</time>
      </trkpt>
      <trkpt lat="43.75103" lon="6.73094">
        <ele>1168.2</ele>
        <time>2026-05-15T13:34:52Z</time>
      </trkpt>
      <trkpt lat="43.75107" lon="6.73112">
        <ele>1167.6</ele>
        <time>2026-05-15T13:34:53Z</time>
      </trkpt>
      <trkpt lat="43.75111" lon="6.73131">
        <ele>1167.5</ele>
        <time>2026-05-15T13:34:54Z</time>
      </trkpt>
      <trkpt lat="43.75116" lon="6.73151">
        <ele>1168.4</ele>
        <time>2026-05-15T13:34:55Z</time>
      </trkpt>
      <trkpt lat="43.7512" lon="6.7317">
        <ele>1168.7</ele>
        <time>2026-05-15T13:34:56Z</time>
      </trkpt>
      <trkpt lat="43.75125" lon="6.7319">
        <ele>1168.6</ele>
        <time>2026-05-15T13:34:57Z</time>
      </trkpt>
      <trkpt lat="43.7513" lon="6.7321">
        <ele>1168.3</ele>
        <time>2026-05-15T13:34:58Z</time>
      </trkpt>
      <trkpt lat="43.75135" lon="6.7323">
        <ele>1167.7</ele>
        <time>2026-05-15T13:34:59Z</time>
      </trkpt>
      <trkpt lat="43.7514" lon="6.7325">
        <ele>1167.5</ele>
        <time>2026-05-15T13:35:00Z</time>
      </trkpt>
      <trkpt lat="43.75145" lon="6.73269">
        <ele>1166.9</ele>
        <time>2026-05-15T13:35:01Z</time>
      </trkpt>
      <trkpt lat="43.7515" lon="6.73288">
        <ele>1166.9</ele>
        <time>2026-05-15T13:35:02Z</time>
      </trkpt>
      <trkpt lat="43.75154" lon="6.73308">
        <ele>1166.8</ele>
        <time>2026-05-15T13:35:03Z</time>
      </trkpt>
      <trkpt lat="43.75156" lon="6.73329">
        <ele>1165.9</ele>
        <time>2026-05-15T13:35:04Z</time>
      </trkpt>
      <trkpt lat="43.75157" lon="6.7335">
        <ele>1166.1</ele>
        <time>2026-05-15T13:35:05Z</time>
      </trkpt>
      <trkpt lat="43.75157" lon="6.73371">
        <ele>1166.7</ele>
        <time>2026-05-15T13:35:06Z</time>
      </trkpt>
      <trkpt lat="43.75155" lon="6.73392">
        <ele>1167.1</ele>
        <time>2026-05-15T13:35:07Z</time>
      </trkpt>
      <trkpt lat="43.75152" lon="6.73414">
        <ele>1166.8</ele>
        <time>2026-05-15T13:35:08Z</time>
      </trkpt>
      <trkpt lat="43.7515" lon="6.73436">
        <ele>1166.8</ele>
        <time>2026-05-15T13:35:09Z</time>
      </trkpt>
      <trkpt lat="43.75148" lon="6.73457">
        <ele>1166.6</ele>
        <time>2026-05-15T13:35:10Z</time>
      </trkpt>
      <trkpt lat="43.75146" lon="6.73478">
        <ele>1166.3</ele>
        <time>2026-05-15T13:35:11Z</time>
      </trkpt>
      <trkpt lat="43.75143" lon="6.73498">
        <ele>1165.9</ele>
        <time>2026-05-15T13:35:12Z</time>
      </trkpt>
      <trkpt lat="43.75141" lon="6.73518">
        <ele>1165.5</ele>
        <time>2026-05-15T13:35:13Z</time>
      </trkpt>
      <trkpt lat="43.75137" lon="6.73537">
        <ele>1164.9</ele>
        <time>2026-05-15T13:35:14Z</time>
      </trkpt>
      <trkpt lat="43.75131" lon="6.73555">
        <ele>1164</ele>
        <time>2026-05-15T13:35:15Z</time>
      </trkpt>
      <trkpt lat="43.75123" lon="6.73573">
        <ele>1163.5</ele>
        <time>2026-05-15T13:35:16Z</time>
      </trkpt>
      <trkpt lat="43.75115" lon="6.73591">
        <ele>1163</ele>
        <time>2026-05-15T13:35:17Z</time>
      </trkpt>
      <trkpt lat="43.75107" lon="6.7361">
        <ele>1162.7</ele>
        <time>2026-05-15T13:35:18Z</time>
      </trkpt>
      <trkpt lat="43.75099" lon="6.73629">
        <ele>1162.4</ele>
        <time>2026-05-15T13:35:19Z</time>
      </trkpt>
      <trkpt lat="43.7509" lon="6.7365">
        <ele>1161.8</ele>
        <time>2026-05-15T13:35:20Z</time>
      </trkpt>
      <trkpt lat="43.75082" lon="6.7367">
        <ele>1161</ele>
        <time>2026-05-15T13:35:21Z</time>
      </trkpt>
      <trkpt lat="43.75073" lon="6.73691">
        <ele>1160.7</ele>
        <time>2026-05-15T13:35:22Z</time>
      </trkpt>
      <trkpt lat="43.75063" lon="6.73711">
        <ele>1160.3</ele>
        <time>2026-05-15T13:35:23Z</time>
      </trkpt>
      <trkpt lat="43.75053" lon="6.73731">
        <ele>1160.6</ele>
        <time>2026-05-15T13:35:24Z</time>
      </trkpt>
      <trkpt lat="43.75042" lon="6.73751">
        <ele>1160.7</ele>
        <time>2026-05-15T13:35:25Z</time>
      </trkpt>
      <trkpt lat="43.75032" lon="6.73771">
        <ele>1161.1</ele>
        <time>2026-05-15T13:35:26Z</time>
      </trkpt>
      <trkpt lat="43.75021" lon="6.73789">
        <ele>1160.6</ele>
        <time>2026-05-15T13:35:27Z</time>
      </trkpt>
      <trkpt lat="43.75011" lon="6.73807">
        <ele>1159.9</ele>
        <time>2026-05-15T13:35:28Z</time>
      </trkpt>
      <trkpt lat="43.75001" lon="6.73825">
        <ele>1159.4</ele>
        <time>2026-05-15T13:35:29Z</time>
      </trkpt>
      <trkpt lat="43.74992" lon="6.73843">
        <ele>1159.4</ele>
        <time>2026-05-15T13:35:30Z</time>
      </trkpt>
      <trkpt lat="43.74983" lon="6.73862">
        <ele>1159.8</ele>
        <time>2026-05-15T13:35:31Z</time>
      </trkpt>
      <trkpt lat="43.74975" lon="6.73882">
        <ele>1160</ele>
        <time>2026-05-15T13:35:32Z</time>
      </trkpt>
      <trkpt lat="43.74966" lon="6.73902">
        <ele>1159.4</ele>
        <time>2026-05-15T13:35:33Z</time>
      </trkpt>
      <trkpt lat="43.74959" lon="6.73922">
        <ele>1159.2</ele>
        <time>2026-05-15T13:35:34Z</time>
      </trkpt>
      <trkpt lat="43.74951" lon="6.73943">
        <ele>1158.2</ele>
        <time>2026-05-15T13:35:35Z</time>
      </trkpt>
      <trkpt lat="43.74944" lon="6.73964">
        <ele>1158</ele>
        <time>2026-05-15T13:35:36Z</time>
      </trkpt>
      <trkpt lat="43.74936" lon="6.73983">
        <ele>1158.1</ele>
        <time>2026-05-15T13:35:37Z</time>
      </trkpt>
      <trkpt lat="43.74925" lon="6.74">
        <ele>1157</ele>
        <time>2026-05-15T13:35:38Z</time>
      </trkpt>
      <trkpt lat="43.74913" lon="6.74015">
        <ele>1156</ele>
        <time>2026-05-15T13:35:39Z</time>
      </trkpt>
      <trkpt lat="43.749" lon="6.74028">
        <ele>1154</ele>
        <time>2026-05-15T13:35:40Z</time>
      </trkpt>
      <trkpt lat="43.74886" lon="6.7404">
        <ele>1151.7</ele>
        <time>2026-05-15T13:35:41Z</time>
      </trkpt>
      <trkpt lat="43.74873" lon="6.74051">
        <ele>1149.4</ele>
        <time>2026-05-15T13:35:42Z</time>
      </trkpt>
      <trkpt lat="43.74861" lon="6.74065">
        <ele>1148</ele>
        <time>2026-05-15T13:35:43Z</time>
      </trkpt>
      <trkpt lat="43.7485" lon="6.74081">
        <ele>1147.5</ele>
        <time>2026-05-15T13:35:44Z</time>
      </trkpt>
      <trkpt lat="43.74842" lon="6.74099">
        <ele>1147.9</ele>
        <time>2026-05-15T13:35:45Z</time>
      </trkpt>
      <trkpt lat="43.74834" lon="6.74118">
        <ele>1148</ele>
        <time>2026-05-15T13:35:46Z</time>
      </trkpt>
      <trkpt lat="43.74827" lon="6.74139">
        <ele>1148.2</ele>
        <time>2026-05-15T13:35:47Z</time>
      </trkpt>
      <trkpt lat="43.7482" lon="6.74159">
        <ele>1148.7</ele>
        <time>2026-05-15T13:35:48Z</time>
      </trkpt>
      <trkpt lat="43.7481" lon="6.74177">
        <ele>1147.9</ele>
        <time>2026-05-15T13:35:49Z</time>
      </trkpt>
      <trkpt lat="43.74799" lon="6.74193">
        <ele>1147.4</ele>
        <time>2026-05-15T13:35:50Z</time>
      </trkpt>
      <trkpt lat="43.74785" lon="6.74205">
        <ele>1146.6</ele>
        <time>2026-05-15T13:35:51Z</time>
      </trkpt>
      <trkpt lat="43.74771" lon="6.74213">
        <ele>1146.1</ele>
        <time>2026-05-15T13:35:52Z</time>
      </trkpt>
      <trkpt lat="43.74755" lon="6.74219">
        <ele>1145.1</ele>
        <time>2026-05-15T13:35:53Z</time>
      </trkpt>
      <trkpt lat="43.7474" lon="6.74226">
        <ele>1144.5</ele>
        <time>2026-05-15T13:35:54Z</time>
      </trkpt>
      <trkpt lat="43.74723" lon="6.74233">
        <ele>1144</ele>
        <time>2026-05-15T13:35:55Z</time>
      </trkpt>
      <trkpt lat="43.74706" lon="6.7424">
        <ele>1143.7</ele>
        <time>2026-05-15T13:35:56Z</time>
      </trkpt>
      <trkpt lat="43.7469" lon="6.74247">
        <ele>1143.2</ele>
        <time>2026-05-15T13:35:57Z</time>
      </trkpt>
      <trkpt lat="43.74674" lon="6.74254">
        <ele>1143.1</ele>
        <time>2026-05-15T13:35:58Z</time>
      </trkpt>
      <trkpt lat="43.74657" lon="6.74261">
        <ele>1142.8</ele>
        <time>2026-05-15T13:35:59Z</time>
      </trkpt>
      <trkpt lat="43.74641" lon="6.74269">
        <ele>1142.3</ele>
        <time>2026-05-15T13:36:00Z</time>
      </trkpt>
      <trkpt lat="43.74625" lon="6.74276">
        <ele>1141.8</ele>
        <time>2026-05-15T13:36:01Z</time>
      </trkpt>
      <trkpt lat="43.74609" lon="6.74283">
        <ele>1141.1</ele>
        <time>2026-05-15T13:36:02Z</time>
      </trkpt>
      <trkpt lat="43.74594" lon="6.74291">
        <ele>1139.8</ele>
        <time>2026-05-15T13:36:03Z</time>
      </trkpt>
      <trkpt lat="43.7458" lon="6.74301">
        <ele>1138.3</ele>
        <time>2026-05-15T13:36:04Z</time>
      </trkpt>
      <trkpt lat="43.74568" lon="6.74312">
        <ele>1136.9</ele>
        <time>2026-05-15T13:36:05Z</time>
      </trkpt>
      <trkpt lat="43.74556" lon="6.74325">
        <ele>1135.1</ele>
        <time>2026-05-15T13:36:06Z</time>
      </trkpt>
      <trkpt lat="43.74548" lon="6.74341">
        <ele>1133.2</ele>
        <time>2026-05-15T13:36:07Z</time>
      </trkpt>
      <trkpt lat="43.7454" lon="6.74359">
        <ele>1132</ele>
        <time>2026-05-15T13:36:08Z</time>
      </trkpt>
      <trkpt lat="43.74534" lon="6.7438">
        <ele>1131.1</ele>
        <time>2026-05-15T13:36:09Z</time>
      </trkpt>
      <trkpt lat="43.74531" lon="6.74402">
        <ele>1131.1</ele>
        <time>2026-05-15T13:36:10Z</time>
      </trkpt>
      <trkpt lat="43.74531" lon="6.74425">
        <ele>1131.3</ele>
        <time>2026-05-15T13:36:11Z</time>
      </trkpt>
      <trkpt lat="43.74534" lon="6.74447">
        <ele>1130.8</ele>
        <time>2026-05-15T13:36:12Z</time>
      </trkpt>
      <trkpt lat="43.74539" lon="6.7447">
        <ele>1129.1</ele>
        <time>2026-05-15T13:36:13Z</time>
      </trkpt>
      <trkpt lat="43.74546" lon="6.74492">
        <ele>1127.7</ele>
        <time>2026-05-15T13:36:14Z</time>
      </trkpt>
      <trkpt lat="43.74554" lon="6.74514">
        <ele>1127.8</ele>
        <time>2026-05-15T13:36:15Z</time>
      </trkpt>
      <trkpt lat="43.74562" lon="6.74536">
        <ele>1128.1</ele>
        <time>2026-05-15T13:36:16Z</time>
      </trkpt>
      <trkpt lat="43.7457" lon="6.74557">
        <ele>1128</ele>
        <time>2026-05-15T13:36:17Z</time>
      </trkpt>
      <trkpt lat="43.74577" lon="6.74579">
        <ele>1126.7</ele>
        <time>2026-05-15T13:36:18Z</time>
      </trkpt>
      <trkpt lat="43.74585" lon="6.74601">
        <ele>1124.6</ele>
        <time>2026-05-15T13:36:19Z</time>
      </trkpt>
      <trkpt lat="43.74591" lon="6.74622">
        <ele>1122.4</ele>
        <time>2026-05-15T13:36:20Z</time>
      </trkpt>
      <trkpt lat="43.74595" lon="6.74645">
        <ele>1120.7</ele>
        <time>2026-05-15T13:36:21Z</time>
      </trkpt>
      <trkpt lat="43.74596" lon="6.7467">
        <ele>1119.2</ele>
        <time>2026-05-15T13:36:22Z</time>
      </trkpt>
      <trkpt lat="43.74596" lon="6.74695">
        <ele>1118.8</ele>
        <time>2026-05-15T13:36:23Z</time>
      </trkpt>
      <trkpt lat="43.74593" lon="6.7472">
        <ele>1118.4</ele>
        <time>2026-05-15T13:36:24Z</time>
      </trkpt>
      <trkpt lat="43.7459" lon="6.74744">
        <ele>1118.3</ele>
        <time>2026-05-15T13:36:25Z</time>
      </trkpt>
      <trkpt lat="43.74587" lon="6.74768">
        <ele>1118</ele>
        <time>2026-05-15T13:36:26Z</time>
      </trkpt>
      <trkpt lat="43.74585" lon="6.74792">
        <ele>1117.5</ele>
        <time>2026-05-15T13:36:27Z</time>
      </trkpt>
      <trkpt lat="43.74584" lon="6.74815">
        <ele>1116.9</ele>
        <time>2026-05-15T13:36:28Z</time>
      </trkpt>
      <trkpt lat="43.74587" lon="6.74838">
        <ele>1116.6</ele>
        <time>2026-05-15T13:36:29Z</time>
      </trkpt>
      <trkpt lat="43.74591" lon="6.7486">
        <ele>1115.6</ele>
        <time>2026-05-15T13:36:30Z</time>
      </trkpt>
      <trkpt lat="43.74599" lon="6.7488">
        <ele>1114.7</ele>
        <time>2026-05-15T13:36:31Z</time>
      </trkpt>
      <trkpt lat="43.74607" lon="6.749">
        <ele>1113.3</ele>
        <time>2026-05-15T13:36:32Z</time>
      </trkpt>
      <trkpt lat="43.74617" lon="6.74919">
        <ele>1112.8</ele>
        <time>2026-05-15T13:36:33Z</time>
      </trkpt>
      <trkpt lat="43.74627" lon="6.74939">
        <ele>1112.5</ele>
        <time>2026-05-15T13:36:34Z</time>
      </trkpt>
      <trkpt lat="43.74637" lon="6.74958">
        <ele>1112.8</ele>
        <time>2026-05-15T13:36:35Z</time>
      </trkpt>
      <trkpt lat="43.74646" lon="6.74977">
        <ele>1113.1</ele>
        <time>2026-05-15T13:36:36Z</time>
      </trkpt>
      <trkpt lat="43.74655" lon="6.74996">
        <ele>1112.5</ele>
        <time>2026-05-15T13:36:37Z</time>
      </trkpt>
      <trkpt lat="43.74662" lon="6.75016">
        <ele>1111.8</ele>
        <time>2026-05-15T13:36:38Z</time>
      </trkpt>
      <trkpt lat="43.74666" lon="6.75036">
        <ele>1110.5</ele>
        <time>2026-05-15T13:36:39Z</time>
      </trkpt>
      <trkpt lat="43.74668" lon="6.75057">
        <ele>1108.7</ele>
        <time>2026-05-15T13:36:40Z</time>
      </trkpt>
      <trkpt lat="43.74664" lon="6.75078">
        <ele>1106</ele>
        <time>2026-05-15T13:36:41Z</time>
      </trkpt>
      <trkpt lat="43.74658" lon="6.75099">
        <ele>1104.5</ele>
        <time>2026-05-15T13:36:42Z</time>
      </trkpt>
      <trkpt lat="43.74648" lon="6.75116">
        <ele>1103.9</ele>
        <time>2026-05-15T13:36:43Z</time>
      </trkpt>
      <trkpt lat="43.74635" lon="6.7513">
        <ele>1104.4</ele>
        <time>2026-05-15T13:36:44Z</time>
      </trkpt>
      <trkpt lat="43.7462" lon="6.7514">
        <ele>1103</ele>
        <time>2026-05-15T13:36:45Z</time>
      </trkpt>
      <trkpt lat="43.74604" lon="6.75144">
        <ele>1101</ele>
        <time>2026-05-15T13:36:46Z</time>
      </trkpt>
      <trkpt lat="43.74586" lon="6.75147">
        <ele>1099.1</ele>
        <time>2026-05-15T13:36:47Z</time>
      </trkpt>
      <trkpt lat="43.74568" lon="6.75147">
        <ele>1097.4</ele>
        <time>2026-05-15T13:36:48Z</time>
      </trkpt>
      <trkpt lat="43.74549" lon="6.75145">
        <ele>1095.5</ele>
        <time>2026-05-15T13:36:49Z</time>
      </trkpt>
      <trkpt lat="43.7453" lon="6.75145">
        <ele>1094.6</ele>
        <time>2026-05-15T13:36:50Z</time>
      </trkpt>
      <trkpt lat="43.74512" lon="6.75144">
        <ele>1093.7</ele>
        <time>2026-05-15T13:36:51Z</time>
      </trkpt>
      <trkpt lat="43.74494" lon="6.75146">
        <ele>1093.5</ele>
        <time>2026-05-15T13:36:52Z</time>
      </trkpt>
      <trkpt lat="43.74476" lon="6.7515">
        <ele>1093.2</ele>
        <time>2026-05-15T13:36:53Z</time>
      </trkpt>
      <trkpt lat="43.7446" lon="6.75159">
        <ele>1092.2</ele>
        <time>2026-05-15T13:36:54Z</time>
      </trkpt>
      <trkpt lat="43.74445" lon="6.75172">
        <ele>1091.9</ele>
        <time>2026-05-15T13:36:55Z</time>
      </trkpt>
      <trkpt lat="43.74432" lon="6.75189">
        <ele>1091.8</ele>
        <time>2026-05-15T13:36:56Z</time>
      </trkpt>
      <trkpt lat="43.74421" lon="6.75209">
        <ele>1092</ele>
        <time>2026-05-15T13:36:57Z</time>
      </trkpt>
      <trkpt lat="43.7441" lon="6.75229">
        <ele>1092.3</ele>
        <time>2026-05-15T13:36:58Z</time>
      </trkpt>
      <trkpt lat="43.74398" lon="6.7525">
        <ele>1092.6</ele>
        <time>2026-05-15T13:36:59Z</time>
      </trkpt>
      <trkpt lat="43.74387" lon="6.75271">
        <ele>1093</ele>
        <time>2026-05-15T13:37:00Z</time>
      </trkpt>
      <trkpt lat="43.74379" lon="6.75294">
        <ele>1093.9</ele>
        <time>2026-05-15T13:37:01Z</time>
      </trkpt>
      <trkpt lat="43.74372" lon="6.75318">
        <ele>1093.8</ele>
        <time>2026-05-15T13:37:02Z</time>
      </trkpt>
      <trkpt lat="43.74369" lon="6.75343">
        <ele>1092.2</ele>
        <time>2026-05-15T13:37:03Z</time>
      </trkpt>
      <trkpt lat="43.74367" lon="6.75369">
        <ele>1088.2</ele>
        <time>2026-05-15T13:37:04Z</time>
      </trkpt>
      <trkpt lat="43.74366" lon="6.75395">
        <ele>1085.6</ele>
        <time>2026-05-15T13:37:05Z</time>
      </trkpt>
      <trkpt lat="43.74365" lon="6.7542">
        <ele>1086.2</ele>
        <time>2026-05-15T13:37:06Z</time>
      </trkpt>
      <trkpt lat="43.74363" lon="6.75443">
        <ele>1085.9</ele>
        <time>2026-05-15T13:37:07Z</time>
      </trkpt>
      <trkpt lat="43.74361" lon="6.75464">
        <ele>1083.6</ele>
        <time>2026-05-15T13:37:08Z</time>
      </trkpt>
      <trkpt lat="43.74356" lon="6.75483">
        <ele>1083.9</ele>
        <time>2026-05-15T13:37:09Z</time>
      </trkpt>
      <trkpt lat="43.74347" lon="6.755">
        <ele>1082.4</ele>
        <time>2026-05-15T13:37:10Z</time>
      </trkpt>
      <trkpt lat="43.74338" lon="6.75516">
        <ele>1082.2</ele>
        <time>2026-05-15T13:37:11Z</time>
      </trkpt>
      <trkpt lat="43.74328" lon="6.75532">
        <ele>1081.1</ele>
        <time>2026-05-15T13:37:12Z</time>
      </trkpt>
      <trkpt lat="43.7432" lon="6.7555">
        <ele>1081</ele>
        <time>2026-05-15T13:37:13Z</time>
      </trkpt>
      <trkpt lat="43.74313" lon="6.75568">
        <ele>1080.3</ele>
        <time>2026-05-15T13:37:14Z</time>
      </trkpt>
      <trkpt lat="43.74307" lon="6.75586">
        <ele>1079.3</ele>
        <time>2026-05-15T13:37:15Z</time>
      </trkpt>
      <trkpt lat="43.743" lon="6.75603">
        <ele>1078.6</ele>
        <time>2026-05-15T13:37:16Z</time>
      </trkpt>
      <trkpt lat="43.74292" lon="6.75619">
        <ele>1078.3</ele>
        <time>2026-05-15T13:37:17Z</time>
      </trkpt>
      <trkpt lat="43.74282" lon="6.75631">
        <ele>1076.2</ele>
        <time>2026-05-15T13:37:18Z</time>
      </trkpt>
      <trkpt lat="43.74271" lon="6.75642">
        <ele>1074.9</ele>
        <time>2026-05-15T13:37:19Z</time>
      </trkpt>
      <trkpt lat="43.7426" lon="6.75653">
        <ele>1074.3</ele>
        <time>2026-05-15T13:37:20Z</time>
      </trkpt>
      <trkpt lat="43.74249" lon="6.75666">
        <ele>1073.6</ele>
        <time>2026-05-15T13:37:21Z</time>
      </trkpt>
      <trkpt lat="43.7424" lon="6.75681">
        <ele>1073.2</ele>
        <time>2026-05-15T13:37:22Z</time>
      </trkpt>
      <trkpt lat="43.74231" lon="6.75699">
        <ele>1072.9</ele>
        <time>2026-05-15T13:37:23Z</time>
      </trkpt>
      <trkpt lat="43.74223" lon="6.75717">
        <ele>1071.9</ele>
        <time>2026-05-15T13:37:24Z</time>
      </trkpt>
      <trkpt lat="43.74216" lon="6.75737">
        <ele>1071.5</ele>
        <time>2026-05-15T13:37:25Z</time>
      </trkpt>
      <trkpt lat="43.74208" lon="6.75756">
        <ele>1070.4</ele>
        <time>2026-05-15T13:37:26Z</time>
      </trkpt>
      <trkpt lat="43.74202" lon="6.75775">
        <ele>1070.2</ele>
        <time>2026-05-15T13:37:27Z</time>
      </trkpt>
      <trkpt lat="43.74197" lon="6.75795">
        <ele>1069.5</ele>
        <time>2026-05-15T13:37:28Z</time>
      </trkpt>
      <trkpt lat="43.74194" lon="6.75816">
        <ele>1068.7</ele>
        <time>2026-05-15T13:37:29Z</time>
      </trkpt>
      <trkpt lat="43.74191" lon="6.75837">
        <ele>1066.7</ele>
        <time>2026-05-15T13:37:30Z</time>
      </trkpt>
      <trkpt lat="43.7419" lon="6.75859">
        <ele>1065.5</ele>
        <time>2026-05-15T13:37:31Z</time>
      </trkpt>
      <trkpt lat="43.74189" lon="6.75881">
        <ele>1065</ele>
        <time>2026-05-15T13:37:32Z</time>
      </trkpt>
      <trkpt lat="43.74188" lon="6.75903">
        <ele>1064.6</ele>
        <time>2026-05-15T13:37:33Z</time>
      </trkpt>
      <trkpt lat="43.74187" lon="6.75924">
        <ele>1063.9</ele>
        <time>2026-05-15T13:37:34Z</time>
      </trkpt>
      <trkpt lat="43.74186" lon="6.75944">
        <ele>1062.7</ele>
        <time>2026-05-15T13:37:35Z</time>
      </trkpt>
      <trkpt lat="43.74185" lon="6.75964">
        <ele>1061.8</ele>
        <time>2026-05-15T13:37:36Z</time>
      </trkpt>
      <trkpt lat="43.74185" lon="6.75983">
        <ele>1060.8</ele>
        <time>2026-05-15T13:37:37Z</time>
      </trkpt>
      <trkpt lat="43.74186" lon="6.76001">
        <ele>1059.8</ele>
        <time>2026-05-15T13:37:38Z</time>
      </trkpt>
      <trkpt lat="43.74189" lon="6.76019">
        <ele>1059.4</ele>
        <time>2026-05-15T13:37:39Z</time>
      </trkpt>
      <trkpt lat="43.74193" lon="6.76037">
        <ele>1059.6</ele>
        <time>2026-05-15T13:37:40Z</time>
      </trkpt>
      <trkpt lat="43.74199" lon="6.76054">
        <ele>1060.8</ele>
        <time>2026-05-15T13:37:41Z</time>
      </trkpt>
      <trkpt lat="43.74208" lon="6.76071">
        <ele>1059.1</ele>
        <time>2026-05-15T13:37:42Z</time>
      </trkpt>
      <trkpt lat="43.74216" lon="6.76088">
        <ele>1058.1</ele>
        <time>2026-05-15T13:37:43Z</time>
      </trkpt>
      <trkpt lat="43.74225" lon="6.76104">
        <ele>1058.2</ele>
        <time>2026-05-15T13:37:44Z</time>
      </trkpt>
      <trkpt lat="43.74233" lon="6.76121">
        <ele>1056.6</ele>
        <time>2026-05-15T13:37:45Z</time>
      </trkpt>
      <trkpt lat="43.74239" lon="6.76139">
        <ele>1054.2</ele>
        <time>2026-05-15T13:37:46Z</time>
      </trkpt>
      <trkpt lat="43.74244" lon="6.76159">
        <ele>1055.2</ele>
        <time>2026-05-15T13:37:47Z</time>
      </trkpt>
      <trkpt lat="43.74247" lon="6.76179">
        <ele>1055.1</ele>
        <time>2026-05-15T13:37:48Z</time>
      </trkpt>
      <trkpt lat="43.74247" lon="6.762">
        <ele>1054.1</ele>
        <time>2026-05-15T13:37:49Z</time>
      </trkpt>
      <trkpt lat="43.74244" lon="6.76221">
        <ele>1053.6</ele>
        <time>2026-05-15T13:37:50Z</time>
      </trkpt>
      <trkpt lat="43.74238" lon="6.76242">
        <ele>1053.4</ele>
        <time>2026-05-15T13:37:51Z</time>
      </trkpt>
      <trkpt lat="43.74229" lon="6.76261">
        <ele>1051.5</ele>
        <time>2026-05-15T13:37:52Z</time>
      </trkpt>
      <trkpt lat="43.74218" lon="6.76278">
        <ele>1049.1</ele>
        <time>2026-05-15T13:37:53Z</time>
      </trkpt>
      <trkpt lat="43.74207" lon="6.76295">
        <ele>1048</ele>
        <time>2026-05-15T13:37:54Z</time>
      </trkpt>
      <trkpt lat="43.74195" lon="6.76311">
        <ele>1047.5</ele>
        <time>2026-05-15T13:37:55Z</time>
      </trkpt>
      <trkpt lat="43.74185" lon="6.76328">
        <ele>1047.9</ele>
        <time>2026-05-15T13:37:56Z</time>
      </trkpt>
      <trkpt lat="43.74176" lon="6.76346">
        <ele>1048</ele>
        <time>2026-05-15T13:37:57Z</time>
      </trkpt>
      <trkpt lat="43.7417" lon="6.76367">
        <ele>1047</ele>
        <time>2026-05-15T13:37:58Z</time>
      </trkpt>
      <trkpt lat="43.74166" lon="6.76387">
        <ele>1045.9</ele>
        <time>2026-05-15T13:37:59Z</time>
      </trkpt>
      <trkpt lat="43.74164" lon="6.76408">
        <ele>1045.2</ele>
        <time>2026-05-15T13:38:00Z</time>
      </trkpt>
      <trkpt lat="43.7416" lon="6.76428">
        <ele>1044.5</ele>
        <time>2026-05-15T13:38:01Z</time>
      </trkpt>
      <trkpt lat="43.74155" lon="6.76447">
        <ele>1043.7</ele>
        <time>2026-05-15T13:38:02Z</time>
      </trkpt>
      <trkpt lat="43.74148" lon="6.76464">
        <ele>1044</ele>
        <time>2026-05-15T13:38:03Z</time>
      </trkpt>
      <trkpt lat="43.74138" lon="6.76478">
        <ele>1040.3</ele>
        <time>2026-05-15T13:38:04Z</time>
      </trkpt>
      <trkpt lat="43.74126" lon="6.76489">
        <ele>1040.1</ele>
        <time>2026-05-15T13:38:05Z</time>
      </trkpt>
      <trkpt lat="43.74113" lon="6.765">
        <ele>1043.3</ele>
        <time>2026-05-15T13:38:06Z</time>
      </trkpt>
      <trkpt lat="43.74099" lon="6.76511">
        <ele>1042.6</ele>
        <time>2026-05-15T13:38:07Z</time>
      </trkpt>
      <trkpt lat="43.74087" lon="6.76524">
        <ele>1042.4</ele>
        <time>2026-05-15T13:38:08Z</time>
      </trkpt>
      <trkpt lat="43.74075" lon="6.76538">
        <ele>1041.1</ele>
        <time>2026-05-15T13:38:09Z</time>
      </trkpt>
      <trkpt lat="43.74063" lon="6.76554">
        <ele>1039.5</ele>
        <time>2026-05-15T13:38:10Z</time>
      </trkpt>
      <trkpt lat="43.74053" lon="6.76573">
        <ele>1038.9</ele>
        <time>2026-05-15T13:38:11Z</time>
      </trkpt>
      <trkpt lat="43.74043" lon="6.76593">
        <ele>1038.4</ele>
        <time>2026-05-15T13:38:12Z</time>
      </trkpt>
      <trkpt lat="43.74034" lon="6.76614">
        <ele>1038.8</ele>
        <time>2026-05-15T13:38:13Z</time>
      </trkpt>
      <trkpt lat="43.74024" lon="6.76635">
        <ele>1037.7</ele>
        <time>2026-05-15T13:38:14Z</time>
      </trkpt>
      <trkpt lat="43.74014" lon="6.76655">
        <ele>1036.6</ele>
        <time>2026-05-15T13:38:15Z</time>
      </trkpt>
      <trkpt lat="43.74004" lon="6.76676">
        <ele>1036.2</ele>
        <time>2026-05-15T13:38:16Z</time>
      </trkpt>
      <trkpt lat="43.73994" lon="6.76695">
        <ele>1036</ele>
        <time>2026-05-15T13:38:17Z</time>
      </trkpt>
      <trkpt lat="43.73983" lon="6.76712">
        <ele>1036.1</ele>
        <time>2026-05-15T13:38:18Z</time>
      </trkpt>
      <trkpt lat="43.73972" lon="6.76728">
        <ele>1035.5</ele>
        <time>2026-05-15T13:38:19Z</time>
      </trkpt>
      <trkpt lat="43.73961" lon="6.76744">
        <ele>1034.5</ele>
        <time>2026-05-15T13:38:20Z</time>
      </trkpt>
      <trkpt lat="43.73951" lon="6.7676">
        <ele>1034.5</ele>
        <time>2026-05-15T13:38:21Z</time>
      </trkpt>
      <trkpt lat="43.73942" lon="6.76777">
        <ele>1035.4</ele>
        <time>2026-05-15T13:38:22Z</time>
      </trkpt>
      <trkpt lat="43.73935" lon="6.76794">
        <ele>1036.4</ele>
        <time>2026-05-15T13:38:23Z</time>
      </trkpt>
      <trkpt lat="43.73926" lon="6.7681">
        <ele>1035.8</ele>
        <time>2026-05-15T13:38:24Z</time>
      </trkpt>
      <trkpt lat="43.73915" lon="6.76824">
        <ele>1034.4</ele>
        <time>2026-05-15T13:38:25Z</time>
      </trkpt>
      <trkpt lat="43.73903" lon="6.76836">
        <ele>1034</ele>
        <time>2026-05-15T13:38:26Z</time>
      </trkpt>
      <trkpt lat="43.7389" lon="6.76847">
        <ele>1031.9</ele>
        <time>2026-05-15T13:38:27Z</time>
      </trkpt>
      <trkpt lat="43.73877" lon="6.76858">
        <ele>1031.6</ele>
        <time>2026-05-15T13:38:28Z</time>
      </trkpt>
      <trkpt lat="43.73863" lon="6.76869">
        <ele>1031.2</ele>
        <time>2026-05-15T13:38:29Z</time>
      </trkpt>
      <trkpt lat="43.7385" lon="6.76881">
        <ele>1030.9</ele>
        <time>2026-05-15T13:38:30Z</time>
      </trkpt>
      <trkpt lat="43.73837" lon="6.76892">
        <ele>1030.6</ele>
        <time>2026-05-15T13:38:31Z</time>
      </trkpt>
      <trkpt lat="43.73823" lon="6.76903">
        <ele>1030.3</ele>
        <time>2026-05-15T13:38:32Z</time>
      </trkpt>
      <trkpt lat="43.73809" lon="6.76915">
        <ele>1030.3</ele>
        <time>2026-05-15T13:38:33Z</time>
      </trkpt>
      <trkpt lat="43.73796" lon="6.76926">
        <ele>1029.7</ele>
        <time>2026-05-15T13:38:34Z</time>
      </trkpt>
      <trkpt lat="43.73782" lon="6.76938">
        <ele>1029.2</ele>
        <time>2026-05-15T13:38:35Z</time>
      </trkpt>
      <trkpt lat="43.73769" lon="6.76949">
        <ele>1028.7</ele>
        <time>2026-05-15T13:38:36Z</time>
      </trkpt>
      <trkpt lat="43.73756" lon="6.76961">
        <ele>1028.8</ele>
        <time>2026-05-15T13:38:37Z</time>
      </trkpt>
      <trkpt lat="43.73743" lon="6.76973">
        <ele>1029.2</ele>
        <time>2026-05-15T13:38:38Z</time>
      </trkpt>
      <trkpt lat="43.73731" lon="6.76984">
        <ele>1029.2</ele>
        <time>2026-05-15T13:38:39Z</time>
      </trkpt>
      <trkpt lat="43.73719" lon="6.76995">
        <ele>1029.5</ele>
        <time>2026-05-15T13:38:40Z</time>
      </trkpt>
      <trkpt lat="43.73707" lon="6.77005">
        <ele>1029.1</ele>
        <time>2026-05-15T13:38:41Z</time>
      </trkpt>
      <trkpt lat="43.73696" lon="6.77014">
        <ele>1028.5</ele>
        <time>2026-05-15T13:38:42Z</time>
      </trkpt>
      <trkpt lat="43.73685" lon="6.77022">
        <ele>1027.6</ele>
        <time>2026-05-15T13:38:43Z</time>
      </trkpt>
      <trkpt lat="43.73675" lon="6.77031">
        <ele>1027.3</ele>
        <time>2026-05-15T13:38:44Z</time>
      </trkpt>
      <trkpt lat="43.73665" lon="6.7704">
        <ele>1027.1</ele>
        <time>2026-05-15T13:38:45Z</time>
      </trkpt>
      <trkpt lat="43.73656" lon="6.77051">
        <ele>1028</ele>
        <time>2026-05-15T13:38:46Z</time>
      </trkpt>
      <trkpt lat="43.73645" lon="6.7706">
        <ele>1027.6</ele>
        <time>2026-05-15T13:38:47Z</time>
      </trkpt>
      <trkpt lat="43.73634" lon="6.77069">
        <ele>1027.6</ele>
        <time>2026-05-15T13:38:48Z</time>
      </trkpt>
      <trkpt lat="43.73621" lon="6.77076">
        <ele>1027.4</ele>
        <time>2026-05-15T13:38:49Z</time>
      </trkpt>
      <trkpt lat="43.73607" lon="6.77081">
        <ele>1027</ele>
        <time>2026-05-15T13:38:50Z</time>
      </trkpt>
      <trkpt lat="43.73593" lon="6.77085">
        <ele>1027.2</ele>
        <time>2026-05-15T13:38:51Z</time>
      </trkpt>
      <trkpt lat="43.73579" lon="6.77087">
        <ele>1026.9</ele>
        <time>2026-05-15T13:38:52Z</time>
      </trkpt>
      <trkpt lat="43.73564" lon="6.77089">
        <ele>1027.1</ele>
        <time>2026-05-15T13:38:53Z</time>
      </trkpt>
      <trkpt lat="43.73549" lon="6.77092">
        <ele>1027.3</ele>
        <time>2026-05-15T13:38:54Z</time>
      </trkpt>
      <trkpt lat="43.73534" lon="6.77095">
        <ele>1027.2</ele>
        <time>2026-05-15T13:38:55Z</time>
      </trkpt>
      <trkpt lat="43.73519" lon="6.77101">
        <ele>1026.6</ele>
        <time>2026-05-15T13:38:56Z</time>
      </trkpt>
      <trkpt lat="43.73504" lon="6.77109">
        <ele>1025.4</ele>
        <time>2026-05-15T13:38:57Z</time>
      </trkpt>
      <trkpt lat="43.7349" lon="6.77117">
        <ele>1025.3</ele>
        <time>2026-05-15T13:38:58Z</time>
      </trkpt>
      <trkpt lat="43.73476" lon="6.77125">
        <ele>1025.1</ele>
        <time>2026-05-15T13:38:59Z</time>
      </trkpt>
      <trkpt lat="43.73462" lon="6.77133">
        <ele>1025.3</ele>
        <time>2026-05-15T13:39:00Z</time>
      </trkpt>
      <trkpt lat="43.73449" lon="6.77142">
        <ele>1025</ele>
        <time>2026-05-15T13:39:01Z</time>
      </trkpt>
      <trkpt lat="43.73436" lon="6.77153">
        <ele>1024.7</ele>
        <time>2026-05-15T13:39:02Z</time>
      </trkpt>
      <trkpt lat="43.73425" lon="6.77166">
        <ele>1024.3</ele>
        <time>2026-05-15T13:39:03Z</time>
      </trkpt>
      <trkpt lat="43.73414" lon="6.7718">
        <ele>1023.4</ele>
        <time>2026-05-15T13:39:04Z</time>
      </trkpt>
      <trkpt lat="43.73402" lon="6.77192">
        <ele>1023</ele>
        <time>2026-05-15T13:39:05Z</time>
      </trkpt>
      <trkpt lat="43.73388" lon="6.77202">
        <ele>1023.5</ele>
        <time>2026-05-15T13:39:06Z</time>
      </trkpt>
      <trkpt lat="43.73374" lon="6.7721">
        <ele>1023</ele>
        <time>2026-05-15T13:39:07Z</time>
      </trkpt>
      <trkpt lat="43.73361" lon="6.77218">
        <ele>1021.9</ele>
        <time>2026-05-15T13:39:08Z</time>
      </trkpt>
      <trkpt lat="43.73349" lon="6.77227">
        <ele>1021.6</ele>
        <time>2026-05-15T13:39:09Z</time>
      </trkpt>
      <trkpt lat="43.73337" lon="6.77237">
        <ele>1020.3</ele>
        <time>2026-05-15T13:39:10Z</time>
      </trkpt>
      <trkpt lat="43.73328" lon="6.7725">
        <ele>1019.5</ele>
        <time>2026-05-15T13:39:11Z</time>
      </trkpt>
      <trkpt lat="43.73321" lon="6.77265">
        <ele>1019.8</ele>
        <time>2026-05-15T13:39:12Z</time>
      </trkpt>
      <trkpt lat="43.73317" lon="6.77283">
        <ele>1020.9</ele>
        <time>2026-05-15T13:39:13Z</time>
      </trkpt>
      <trkpt lat="43.73317" lon="6.77302">
        <ele>1021.1</ele>
        <time>2026-05-15T13:39:14Z</time>
      </trkpt>
      <trkpt lat="43.73319" lon="6.77322">
        <ele>1021.2</ele>
        <time>2026-05-15T13:39:15Z</time>
      </trkpt>
      <trkpt lat="43.7332" lon="6.77342">
        <ele>1021</ele>
        <time>2026-05-15T13:39:16Z</time>
      </trkpt>
      <trkpt lat="43.73321" lon="6.77364">
        <ele>1020.9</ele>
        <time>2026-05-15T13:39:17Z</time>
      </trkpt>
      <trkpt lat="43.73322" lon="6.77386">
        <ele>1020.4</ele>
        <time>2026-05-15T13:39:18Z</time>
      </trkpt>
      <trkpt lat="43.73321" lon="6.77409">
        <ele>1019.9</ele>
        <time>2026-05-15T13:39:19Z</time>
      </trkpt>
      <trkpt lat="43.73318" lon="6.77432">
        <ele>1020.5</ele>
        <time>2026-05-15T13:39:20Z</time>
      </trkpt>
      <trkpt lat="43.73313" lon="6.77453">
        <ele>1020.8</ele>
        <time>2026-05-15T13:39:21Z</time>
      </trkpt>
      <trkpt lat="43.73307" lon="6.77474">
        <ele>1020.6</ele>
        <time>2026-05-15T13:39:22Z</time>
      </trkpt>
      <trkpt lat="43.73299" lon="6.77494">
        <ele>1020.5</ele>
        <time>2026-05-15T13:39:23Z</time>
      </trkpt>
      <trkpt lat="43.73288" lon="6.77511">
        <ele>1019.9</ele>
        <time>2026-05-15T13:39:24Z</time>
      </trkpt>
      <trkpt lat="43.73277" lon="6.77528">
        <ele>1019.8</ele>
        <time>2026-05-15T13:39:25Z</time>
      </trkpt>
      <trkpt lat="43.73265" lon="6.77544">
        <ele>1019.4</ele>
        <time>2026-05-15T13:39:26Z</time>
      </trkpt>
      <trkpt lat="43.73255" lon="6.77562">
        <ele>1020</ele>
        <time>2026-05-15T13:39:27Z</time>
      </trkpt>
      <trkpt lat="43.73245" lon="6.77581">
        <ele>1020</ele>
        <time>2026-05-15T13:39:28Z</time>
      </trkpt>
      <trkpt lat="43.73236" lon="6.776">
        <ele>1019.3</ele>
        <time>2026-05-15T13:39:29Z</time>
      </trkpt>
      <trkpt lat="43.73227" lon="6.77619">
        <ele>1020</ele>
        <time>2026-05-15T13:39:30Z</time>
      </trkpt>
      <trkpt lat="43.73217" lon="6.77636">
        <ele>1020.6</ele>
        <time>2026-05-15T13:39:31Z</time>
      </trkpt>
      <trkpt lat="43.73205" lon="6.77653">
        <ele>1019.6</ele>
        <time>2026-05-15T13:39:32Z</time>
      </trkpt>
      <trkpt lat="43.73193" lon="6.7767">
        <ele>1020.2</ele>
        <time>2026-05-15T13:39:33Z</time>
      </trkpt>
      <trkpt lat="43.73181" lon="6.77687">
        <ele>1019.9</ele>
        <time>2026-05-15T13:39:34Z</time>
      </trkpt>
      <trkpt lat="43.73169" lon="6.77703">
        <ele>1019.7</ele>
        <time>2026-05-15T13:39:35Z</time>
      </trkpt>
      <trkpt lat="43.73158" lon="6.7772">
        <ele>1018.8</ele>
        <time>2026-05-15T13:39:36Z</time>
      </trkpt>
      <trkpt lat="43.73148" lon="6.77739">
        <ele>1018.6</ele>
        <time>2026-05-15T13:39:37Z</time>
      </trkpt>
      <trkpt lat="43.73139" lon="6.77758">
        <ele>1018.8</ele>
        <time>2026-05-15T13:39:38Z</time>
      </trkpt>
      <trkpt lat="43.73132" lon="6.77778">
        <ele>1019.6</ele>
        <time>2026-05-15T13:39:39Z</time>
      </trkpt>
      <trkpt lat="43.73126" lon="6.77799">
        <ele>1019.2</ele>
        <time>2026-05-15T13:39:40Z</time>
      </trkpt>
      <trkpt lat="43.73123" lon="6.77821">
        <ele>1019.3</ele>
        <time>2026-05-15T13:39:41Z</time>
      </trkpt>
      <trkpt lat="43.7312" lon="6.77843">
        <ele>1018.8</ele>
        <time>2026-05-15T13:39:42Z</time>
      </trkpt>
      <trkpt lat="43.73117" lon="6.77865">
        <ele>1018.1</ele>
        <time>2026-05-15T13:39:43Z</time>
      </trkpt>
      <trkpt lat="43.73114" lon="6.77886">
        <ele>1017.4</ele>
        <time>2026-05-15T13:39:44Z</time>
      </trkpt>
      <trkpt lat="43.73112" lon="6.77908">
        <ele>1017.9</ele>
        <time>2026-05-15T13:39:45Z</time>
      </trkpt>
      <trkpt lat="43.73109" lon="6.77929">
        <ele>1017.3</ele>
        <time>2026-05-15T13:39:46Z</time>
      </trkpt>
      <trkpt lat="43.73106" lon="6.77949">
        <ele>1016.5</ele>
        <time>2026-05-15T13:39:47Z</time>
      </trkpt>
      <trkpt lat="43.73104" lon="6.77966">
        <ele>1016.5</ele>
        <time>2026-05-15T13:39:48Z</time>
      </trkpt>
      <trkpt lat="43.73103" lon="6.77984">
        <ele>1016.2</ele>
        <time>2026-05-15T13:39:49Z</time>
      </trkpt>
      <trkpt lat="43.73104" lon="6.78001">
        <ele>1016.5</ele>
        <time>2026-05-15T13:39:50Z</time>
      </trkpt>
      <trkpt lat="43.73106" lon="6.78018">
        <ele>1016</ele>
        <time>2026-05-15T13:39:51Z</time>
      </trkpt>
      <trkpt lat="43.73108" lon="6.78034">
        <ele>1015.5</ele>
        <time>2026-05-15T13:39:52Z</time>
      </trkpt>
      <trkpt lat="43.73111" lon="6.78051">
        <ele>1015.4</ele>
        <time>2026-05-15T13:39:53Z</time>
      </trkpt>
      <trkpt lat="43.73114" lon="6.78068">
        <ele>1014.2</ele>
        <time>2026-05-15T13:39:54Z</time>
      </trkpt>
      <trkpt lat="43.73118" lon="6.78084">
        <ele>1013.1</ele>
        <time>2026-05-15T13:39:55Z</time>
      </trkpt>
      <trkpt lat="43.73122" lon="6.781">
        <ele>1011.6</ele>
        <time>2026-05-15T13:39:56Z</time>
      </trkpt>
      <trkpt lat="43.73129" lon="6.78116">
        <ele>1010.9</ele>
        <time>2026-05-15T13:39:57Z</time>
      </trkpt>
      <trkpt lat="43.73137" lon="6.78129">
        <ele>1010.7</ele>
        <time>2026-05-15T13:39:58Z</time>
      </trkpt>
      <trkpt lat="43.73148" lon="6.78141">
        <ele>1011.1</ele>
        <time>2026-05-15T13:39:59Z</time>
      </trkpt>
      <trkpt lat="43.73157" lon="6.78153">
        <ele>1010.7</ele>
        <time>2026-05-15T13:40:00Z</time>
      </trkpt>
      <trkpt lat="43.73166" lon="6.78166">
        <ele>1010</ele>
        <time>2026-05-15T13:40:01Z</time>
      </trkpt>
      <trkpt lat="43.73171" lon="6.7818">
        <ele>1009.6</ele>
        <time>2026-05-15T13:40:02Z</time>
      </trkpt>
      <trkpt lat="43.73175" lon="6.78196">
        <ele>1008.9</ele>
        <time>2026-05-15T13:40:03Z</time>
      </trkpt>
      <trkpt lat="43.73175" lon="6.7821">
        <ele>1009.8</ele>
        <time>2026-05-15T13:40:04Z</time>
      </trkpt>
      <trkpt lat="43.73171" lon="6.78223">
        <ele>1010</ele>
        <time>2026-05-15T13:40:05Z</time>
      </trkpt>
      <trkpt lat="43.73164" lon="6.78236">
        <ele>1011.3</ele>
        <time>2026-05-15T13:40:06Z</time>
      </trkpt>
      <trkpt lat="43.73156" lon="6.78248">
        <ele>1011.9</ele>
        <time>2026-05-15T13:40:07Z</time>
      </trkpt>
      <trkpt lat="43.73146" lon="6.7826">
        <ele>1012.4</ele>
        <time>2026-05-15T13:40:08Z</time>
      </trkpt>
      <trkpt lat="43.73137" lon="6.78272">
        <ele>1013</ele>
        <time>2026-05-15T13:40:09Z</time>
      </trkpt>
      <trkpt lat="43.73127" lon="6.78284">
        <ele>1013</ele>
        <time>2026-05-15T13:40:10Z</time>
      </trkpt>
      <trkpt lat="43.73118" lon="6.78296">
        <ele>1013.1</ele>
        <time>2026-05-15T13:40:11Z</time>
      </trkpt>
      <trkpt lat="43.73108" lon="6.78308">
        <ele>1012.9</ele>
        <time>2026-05-15T13:40:12Z</time>
      </trkpt>
      <trkpt lat="43.73098" lon="6.78319">
        <ele>1013.3</ele>
        <time>2026-05-15T13:40:13Z</time>
      </trkpt>
      <trkpt lat="43.7309" lon="6.78331">
        <ele>1014.3</ele>
        <time>2026-05-15T13:40:14Z</time>
      </trkpt>
      <trkpt lat="43.73084" lon="6.78343">
        <ele>1015.6</ele>
        <time>2026-05-15T13:40:15Z</time>
      </trkpt>
      <trkpt lat="43.73078" lon="6.78355">
        <ele>1016.4</ele>
        <time>2026-05-15T13:40:16Z</time>
      </trkpt>
      <trkpt lat="43.73072" lon="6.78369">
        <ele>1016.8</ele>
        <time>2026-05-15T13:40:17Z</time>
      </trkpt>
      <trkpt lat="43.73067" lon="6.78382">
        <ele>1017</ele>
        <time>2026-05-15T13:40:18Z</time>
      </trkpt>
      <trkpt lat="43.73061" lon="6.78396">
        <ele>1016.8</ele>
        <time>2026-05-15T13:40:19Z</time>
      </trkpt>
      <trkpt lat="43.73056" lon="6.7841">
        <ele>1016.5</ele>
        <time>2026-05-15T13:40:20Z</time>
      </trkpt>
      <trkpt lat="43.7305" lon="6.78423">
        <ele>1017</ele>
        <time>2026-05-15T13:40:21Z</time>
      </trkpt>
      <trkpt lat="43.73045" lon="6.78437">
        <ele>1018.7</ele>
        <time>2026-05-15T13:40:22Z</time>
      </trkpt>
      <trkpt lat="43.7304" lon="6.7845">
        <ele>1019.8</ele>
        <time>2026-05-15T13:40:23Z</time>
      </trkpt>
      <trkpt lat="43.73034" lon="6.78465">
        <ele>1019.7</ele>
        <time>2026-05-15T13:40:24Z</time>
      </trkpt>
      <trkpt lat="43.73029" lon="6.78479">
        <ele>1019.9</ele>
        <time>2026-05-15T13:40:25Z</time>
      </trkpt>
      <trkpt lat="43.73025" lon="6.78492">
        <ele>1021.2</ele>
        <time>2026-05-15T13:40:26Z</time>
      </trkpt>
      <trkpt lat="43.73021" lon="6.78506">
        <ele>1022.2</ele>
        <time>2026-05-15T13:40:27Z</time>
      </trkpt>
      <trkpt lat="43.73016" lon="6.78521">
        <ele>1022.7</ele>
        <time>2026-05-15T13:40:28Z</time>
      </trkpt>
      <trkpt lat="43.73011" lon="6.78535">
        <ele>1022.8</ele>
        <time>2026-05-15T13:40:29Z</time>
      </trkpt>
      <trkpt lat="43.73007" lon="6.7855">
        <ele>1023.1</ele>
        <time>2026-05-15T13:40:30Z</time>
      </trkpt>
      <trkpt lat="43.73002" lon="6.78565">
        <ele>1022.8</ele>
        <time>2026-05-15T13:40:31Z</time>
      </trkpt>
      <trkpt lat="43.72997" lon="6.78581">
        <ele>1022.7</ele>
        <time>2026-05-15T13:40:32Z</time>
      </trkpt>
      <trkpt lat="43.72993" lon="6.78596">
        <ele>1023.6</ele>
        <time>2026-05-15T13:40:33Z</time>
      </trkpt>
      <trkpt lat="43.72989" lon="6.78613">
        <ele>1024.8</ele>
        <time>2026-05-15T13:40:34Z</time>
      </trkpt>
      <trkpt lat="43.72986" lon="6.7863">
        <ele>1026.5</ele>
        <time>2026-05-15T13:40:35Z</time>
      </trkpt>
      <trkpt lat="43.72982" lon="6.78647">
        <ele>1026.8</ele>
        <time>2026-05-15T13:40:36Z</time>
      </trkpt>
      <trkpt lat="43.72979" lon="6.78666">
        <ele>1026.6</ele>
        <time>2026-05-15T13:40:37Z</time>
      </trkpt>
      <trkpt lat="43.72976" lon="6.78686">
        <ele>1026.4</ele>
        <time>2026-05-15T13:40:38Z</time>
      </trkpt>
      <trkpt lat="43.72973" lon="6.78707">
        <ele>1026.3</ele>
        <time>2026-05-15T13:40:39Z</time>
      </trkpt>
      <trkpt lat="43.72972" lon="6.78729">
        <ele>1027.2</ele>
        <time>2026-05-15T13:40:40Z</time>
      </trkpt>
      <trkpt lat="43.72971" lon="6.78752">
        <ele>1027.6</ele>
        <time>2026-05-15T13:40:41Z</time>
      </trkpt>
      <trkpt lat="43.7297" lon="6.78776">
        <ele>1028.2</ele>
        <time>2026-05-15T13:40:42Z</time>
      </trkpt>
      <trkpt lat="43.7297" lon="6.788">
        <ele>1029.8</ele>
        <time>2026-05-15T13:40:43Z</time>
      </trkpt>
      <trkpt lat="43.7297" lon="6.78825">
        <ele>1030.8</ele>
        <time>2026-05-15T13:40:44Z</time>
      </trkpt>
      <trkpt lat="43.72969" lon="6.78849">
        <ele>1030.6</ele>
        <time>2026-05-15T13:40:45Z</time>
      </trkpt>
      <trkpt lat="43.72971" lon="6.78872">
        <ele>1031.9</ele>
        <time>2026-05-15T13:40:46Z</time>
      </trkpt>
      <trkpt lat="43.72973" lon="6.78895">
        <ele>1033.8</ele>
        <time>2026-05-15T13:40:47Z</time>
      </trkpt>
      <trkpt lat="43.72974" lon="6.78919">
        <ele>1035.6</ele>
        <time>2026-05-15T13:40:48Z</time>
      </trkpt>
      <trkpt lat="43.72976" lon="6.78943">
        <ele>1035.5</ele>
        <time>2026-05-15T13:40:49Z</time>
      </trkpt>
      <trkpt lat="43.72975" lon="6.78967">
        <ele>1034.3</ele>
        <time>2026-05-15T13:40:50Z</time>
      </trkpt>
      <trkpt lat="43.72974" lon="6.78992">
        <ele>1033.7</ele>
        <time>2026-05-15T13:40:51Z</time>
      </trkpt>
      <trkpt lat="43.72972" lon="6.79018">
        <ele>1034.2</ele>
        <time>2026-05-15T13:40:52Z</time>
      </trkpt>
      <trkpt lat="43.7297" lon="6.79043">
        <ele>1036</ele>
        <time>2026-05-15T13:40:53Z</time>
      </trkpt>
      <trkpt lat="43.72967" lon="6.79067">
        <ele>1037.4</ele>
        <time>2026-05-15T13:40:54Z</time>
      </trkpt>
      <trkpt lat="43.72965" lon="6.79091">
        <ele>1038.5</ele>
        <time>2026-05-15T13:40:55Z</time>
      </trkpt>
      <trkpt lat="43.72963" lon="6.79116">
        <ele>1038.9</ele>
        <time>2026-05-15T13:40:56Z</time>
      </trkpt>
      <trkpt lat="43.72961" lon="6.7914">
        <ele>1039.2</ele>
        <time>2026-05-15T13:40:57Z</time>
      </trkpt>
      <trkpt lat="43.72962" lon="6.79164">
        <ele>1039.8</ele>
        <time>2026-05-15T13:40:58Z</time>
      </trkpt>
      <trkpt lat="43.72964" lon="6.79186">
        <ele>1040.4</ele>
        <time>2026-05-15T13:40:59Z</time>
      </trkpt>
      <trkpt lat="43.72968" lon="6.79206">
        <ele>1041.3</ele>
        <time>2026-05-15T13:41:00Z</time>
      </trkpt>
      <trkpt lat="43.72974" lon="6.79225">
        <ele>1042.3</ele>
        <time>2026-05-15T13:41:01Z</time>
      </trkpt>
      <trkpt lat="43.7298" lon="6.7924">
        <ele>1042.9</ele>
        <time>2026-05-15T13:41:02Z</time>
      </trkpt>
      <trkpt lat="43.72985" lon="6.79252">
        <ele>1043.3</ele>
        <time>2026-05-15T13:41:03Z</time>
      </trkpt>
      <trkpt lat="43.72989" lon="6.79262">
        <ele>1043.7</ele>
        <time>2026-05-15T13:41:04Z</time>
      </trkpt>
      <trkpt lat="43.72992" lon="6.79272">
        <ele>1043.7</ele>
        <time>2026-05-15T13:41:05Z</time>
      </trkpt>
      <trkpt lat="43.72996" lon="6.7928">
        <ele>1043.6</ele>
        <time>2026-05-15T13:41:06Z</time>
      </trkpt>
      <trkpt lat="43.72998" lon="6.79287">
        <ele>1043.2</ele>
        <time>2026-05-15T13:41:07Z</time>
      </trkpt>
      <trkpt lat="43.73" lon="6.79296">
        <ele>1042.7</ele>
        <time>2026-05-15T13:41:08Z</time>
      </trkpt>
      <trkpt lat="43.73001" lon="6.79304">
        <ele>1042.1</ele>
        <time>2026-05-15T13:41:09Z</time>
      </trkpt>
      <trkpt lat="43.73004" lon="6.79312">
        <ele>1041.4</ele>
        <time>2026-05-15T13:41:10Z</time>
      </trkpt>
      <trkpt lat="43.73009" lon="6.79317">
        <ele>1040.9</ele>
        <time>2026-05-15T13:41:11Z</time>
      </trkpt>
      <trkpt lat="43.73015" lon="6.79318">
        <ele>1040.6</ele>
        <time>2026-05-15T13:41:12Z</time>
      </trkpt>
      <trkpt lat="43.73021" lon="6.79318">
        <ele>1040.3</ele>
        <time>2026-05-15T13:41:13Z</time>
      </trkpt>
      <trkpt lat="43.73028" lon="6.79319">
        <ele>1040.1</ele>
        <time>2026-05-15T13:41:14Z</time>
      </trkpt>
      <trkpt lat="43.73036" lon="6.79322">
        <ele>1040.6</ele>
        <time>2026-05-15T13:41:15Z</time>
      </trkpt>
      <trkpt lat="43.73043" lon="6.79329">
        <ele>1040.9</ele>
        <time>2026-05-15T13:41:16Z</time>
      </trkpt>
      <trkpt lat="43.7305" lon="6.79339">
        <ele>1041</ele>
        <time>2026-05-15T13:41:17Z</time>
      </trkpt>
      <trkpt lat="43.73057" lon="6.79353">
        <ele>1041</ele>
        <time>2026-05-15T13:41:18Z</time>
      </trkpt>
      <trkpt lat="43.73063" lon="6.79368">
        <ele>1041.8</ele>
        <time>2026-05-15T13:41:19Z</time>
      </trkpt>
      <trkpt lat="43.73068" lon="6.79386">
        <ele>1041.9</ele>
        <time>2026-05-15T13:41:20Z</time>
      </trkpt>
      <trkpt lat="43.73073" lon="6.79406">
        <ele>1041.5</ele>
        <time>2026-05-15T13:41:21Z</time>
      </trkpt>
      <trkpt lat="43.73076" lon="6.79427">
        <ele>1041.4</ele>
        <time>2026-05-15T13:41:22Z</time>
      </trkpt>
      <trkpt lat="43.73079" lon="6.79448">
        <ele>1042.3</ele>
        <time>2026-05-15T13:41:23Z</time>
      </trkpt>
      <trkpt lat="43.73082" lon="6.7947">
        <ele>1042.6</ele>
        <time>2026-05-15T13:41:24Z</time>
      </trkpt>
      <trkpt lat="43.73085" lon="6.79493">
        <ele>1041.5</ele>
        <time>2026-05-15T13:41:25Z</time>
      </trkpt>
      <trkpt lat="43.73087" lon="6.79516">
        <ele>1040.1</ele>
        <time>2026-05-15T13:41:26Z</time>
      </trkpt>
      <trkpt lat="43.7309" lon="6.79539">
        <ele>1040</ele>
        <time>2026-05-15T13:41:27Z</time>
      </trkpt>
      <trkpt lat="43.73093" lon="6.79562">
        <ele>1040.6</ele>
        <time>2026-05-15T13:41:28Z</time>
      </trkpt>
      <trkpt lat="43.73096" lon="6.79585">
        <ele>1041.1</ele>
        <time>2026-05-15T13:41:29Z</time>
      </trkpt>
      <trkpt lat="43.73101" lon="6.79607">
        <ele>1041.4</ele>
        <time>2026-05-15T13:41:30Z</time>
      </trkpt>
      <trkpt lat="43.73106" lon="6.79628">
        <ele>1040.5</ele>
        <time>2026-05-15T13:41:31Z</time>
      </trkpt>
      <trkpt lat="43.73112" lon="6.79649">
        <ele>1039.3</ele>
        <time>2026-05-15T13:41:32Z</time>
      </trkpt>
      <trkpt lat="43.73118" lon="6.79669">
        <ele>1038.4</ele>
        <time>2026-05-15T13:41:33Z</time>
      </trkpt>
      <trkpt lat="43.73125" lon="6.79689">
        <ele>1038.9</ele>
        <time>2026-05-15T13:41:34Z</time>
      </trkpt>
      <trkpt lat="43.73132" lon="6.79709">
        <ele>1038.5</ele>
        <time>2026-05-15T13:41:35Z</time>
      </trkpt>
      <trkpt lat="43.73139" lon="6.79729">
        <ele>1037.8</ele>
        <time>2026-05-15T13:41:36Z</time>
      </trkpt>
      <trkpt lat="43.73145" lon="6.79749">
        <ele>1037.5</ele>
        <time>2026-05-15T13:41:37Z</time>
      </trkpt>
      <trkpt lat="43.73151" lon="6.79768">
        <ele>1037.7</ele>
        <time>2026-05-15T13:41:38Z</time>
      </trkpt>
      <trkpt lat="43.73158" lon="6.79788">
        <ele>1037.8</ele>
        <time>2026-05-15T13:41:39Z</time>
      </trkpt>
      <trkpt lat="43.73164" lon="6.79809">
        <ele>1036.3</ele>
        <time>2026-05-15T13:41:40Z</time>
      </trkpt>
      <trkpt lat="43.73171" lon="6.7983">
        <ele>1034.9</ele>
        <time>2026-05-15T13:41:41Z</time>
      </trkpt>
      <trkpt lat="43.73178" lon="6.79851">
        <ele>1034.5</ele>
        <time>2026-05-15T13:41:42Z</time>
      </trkpt>
      <trkpt lat="43.73185" lon="6.79874">
        <ele>1033.6</ele>
        <time>2026-05-15T13:41:43Z</time>
      </trkpt>
      <trkpt lat="43.73192" lon="6.79896">
        <ele>1031.8</ele>
        <time>2026-05-15T13:41:44Z</time>
      </trkpt>
      <trkpt lat="43.73199" lon="6.79917">
        <ele>1032.1</ele>
        <time>2026-05-15T13:41:45Z</time>
      </trkpt>
      <trkpt lat="43.73206" lon="6.79939">
        <ele>1033.1</ele>
        <time>2026-05-15T13:41:46Z</time>
      </trkpt>
      <trkpt lat="43.73214" lon="6.79961">
        <ele>1032.7</ele>
        <time>2026-05-15T13:41:47Z</time>
      </trkpt>
      <trkpt lat="43.73221" lon="6.79984">
        <ele>1031</ele>
        <time>2026-05-15T13:41:48Z</time>
      </trkpt>
      <trkpt lat="43.73228" lon="6.80006">
        <ele>1029.8</ele>
        <time>2026-05-15T13:41:49Z</time>
      </trkpt>
      <trkpt lat="43.73235" lon="6.80028">
        <ele>1028.7</ele>
        <time>2026-05-15T13:41:50Z</time>
      </trkpt>
      <trkpt lat="43.73243" lon="6.8005">
        <ele>1027.9</ele>
        <time>2026-05-15T13:41:51Z</time>
      </trkpt>
      <trkpt lat="43.7325" lon="6.80073">
        <ele>1027.7</ele>
        <time>2026-05-15T13:41:52Z</time>
      </trkpt>
      <trkpt lat="43.73258" lon="6.80096">
        <ele>1028.8</ele>
        <time>2026-05-15T13:41:53Z</time>
      </trkpt>
      <trkpt lat="43.73266" lon="6.8012">
        <ele>1029</ele>
        <time>2026-05-15T13:41:54Z</time>
      </trkpt>
      <trkpt lat="43.73274" lon="6.80143">
        <ele>1028.3</ele>
        <time>2026-05-15T13:41:55Z</time>
      </trkpt>
      <trkpt lat="43.73281" lon="6.80167">
        <ele>1027.2</ele>
        <time>2026-05-15T13:41:56Z</time>
      </trkpt>
      <trkpt lat="43.73288" lon="6.8019">
        <ele>1027</ele>
        <time>2026-05-15T13:41:57Z</time>
      </trkpt>
      <trkpt lat="43.73295" lon="6.80212">
        <ele>1026.8</ele>
        <time>2026-05-15T13:41:58Z</time>
      </trkpt>
      <trkpt lat="43.73302" lon="6.80234">
        <ele>1027.4</ele>
        <time>2026-05-15T13:41:59Z</time>
      </trkpt>
      <trkpt lat="43.73308" lon="6.80255">
        <ele>1027.4</ele>
        <time>2026-05-15T13:42:00Z</time>
      </trkpt>
      <trkpt lat="43.73314" lon="6.80276">
        <ele>1028.1</ele>
        <time>2026-05-15T13:42:01Z</time>
      </trkpt>
      <trkpt lat="43.73322" lon="6.80297">
        <ele>1027.7</ele>
        <time>2026-05-15T13:42:02Z</time>
      </trkpt>
      <trkpt lat="43.73331" lon="6.80317">
        <ele>1027.1</ele>
        <time>2026-05-15T13:42:03Z</time>
      </trkpt>
      <trkpt lat="43.73339" lon="6.80338">
        <ele>1026.2</ele>
        <time>2026-05-15T13:42:04Z</time>
      </trkpt>
      <trkpt lat="43.73348" lon="6.80357">
        <ele>1025.7</ele>
        <time>2026-05-15T13:42:05Z</time>
      </trkpt>
      <trkpt lat="43.73358" lon="6.80377">
        <ele>1024.8</ele>
        <time>2026-05-15T13:42:06Z</time>
      </trkpt>
      <trkpt lat="43.73368" lon="6.80398">
        <ele>1023.3</ele>
        <time>2026-05-15T13:42:07Z</time>
      </trkpt>
      <trkpt lat="43.73378" lon="6.80418">
        <ele>1022.1</ele>
        <time>2026-05-15T13:42:08Z</time>
      </trkpt>
      <trkpt lat="43.73387" lon="6.8044">
        <ele>1021.1</ele>
        <time>2026-05-15T13:42:09Z</time>
      </trkpt>
      <trkpt lat="43.73397" lon="6.80462">
        <ele>1021.3</ele>
        <time>2026-05-15T13:42:10Z</time>
      </trkpt>
      <trkpt lat="43.73406" lon="6.80484">
        <ele>1021.7</ele>
        <time>2026-05-15T13:42:11Z</time>
      </trkpt>
      <trkpt lat="43.73414" lon="6.80508">
        <ele>1021.7</ele>
        <time>2026-05-15T13:42:12Z</time>
      </trkpt>
      <trkpt lat="43.73421" lon="6.80532">
        <ele>1021.9</ele>
        <time>2026-05-15T13:42:13Z</time>
      </trkpt>
      <trkpt lat="43.73428" lon="6.80556">
        <ele>1020.6</ele>
        <time>2026-05-15T13:42:14Z</time>
      </trkpt>
      <trkpt lat="43.73435" lon="6.8058">
        <ele>1020</ele>
        <time>2026-05-15T13:42:15Z</time>
      </trkpt>
      <trkpt lat="43.73441" lon="6.80604">
        <ele>1020.2</ele>
        <time>2026-05-15T13:42:16Z</time>
      </trkpt>
      <trkpt lat="43.73448" lon="6.80628">
        <ele>1020.1</ele>
        <time>2026-05-15T13:42:17Z</time>
      </trkpt>
      <trkpt lat="43.73455" lon="6.8065">
        <ele>1019.1</ele>
        <time>2026-05-15T13:42:18Z</time>
      </trkpt>
      <trkpt lat="43.73461" lon="6.80672">
        <ele>1017.8</ele>
        <time>2026-05-15T13:42:19Z</time>
      </trkpt>
      <trkpt lat="43.73468" lon="6.80692">
        <ele>1017.5</ele>
        <time>2026-05-15T13:42:20Z</time>
      </trkpt>
      <trkpt lat="43.73475" lon="6.80712">
        <ele>1016.3</ele>
        <time>2026-05-15T13:42:21Z</time>
      </trkpt>
      <trkpt lat="43.73483" lon="6.80731">
        <ele>1015.2</ele>
        <time>2026-05-15T13:42:22Z</time>
      </trkpt>
      <trkpt lat="43.73491" lon="6.80749">
        <ele>1014</ele>
        <time>2026-05-15T13:42:23Z</time>
      </trkpt>
      <trkpt lat="43.73499" lon="6.80767">
        <ele>1013</ele>
        <time>2026-05-15T13:42:24Z</time>
      </trkpt>
      <trkpt lat="43.73508" lon="6.80786">
        <ele>1012</ele>
        <time>2026-05-15T13:42:25Z</time>
      </trkpt>
      <trkpt lat="43.73517" lon="6.80805">
        <ele>1011.5</ele>
        <time>2026-05-15T13:42:26Z</time>
      </trkpt>
      <trkpt lat="43.73526" lon="6.80824">
        <ele>1011.2</ele>
        <time>2026-05-15T13:42:27Z</time>
      </trkpt>
      <trkpt lat="43.73535" lon="6.80843">
        <ele>1011.6</ele>
        <time>2026-05-15T13:42:28Z</time>
      </trkpt>
      <trkpt lat="43.73544" lon="6.80863">
        <ele>1012.1</ele>
        <time>2026-05-15T13:42:29Z</time>
      </trkpt>
      <trkpt lat="43.73552" lon="6.80882">
        <ele>1011.3</ele>
        <time>2026-05-15T13:42:30Z</time>
      </trkpt>
      <trkpt lat="43.73559" lon="6.80901">
        <ele>1010.8</ele>
        <time>2026-05-15T13:42:31Z</time>
      </trkpt>
      <trkpt lat="43.73566" lon="6.80919">
        <ele>1011.1</ele>
        <time>2026-05-15T13:42:32Z</time>
      </trkpt>
      <trkpt lat="43.73573" lon="6.80937">
        <ele>1010.5</ele>
        <time>2026-05-15T13:42:33Z</time>
      </trkpt>
      <trkpt lat="43.73581" lon="6.80954">
        <ele>1010.4</ele>
        <time>2026-05-15T13:42:34Z</time>
      </trkpt>
      <trkpt lat="43.73588" lon="6.80971">
        <ele>1009.8</ele>
        <time>2026-05-15T13:42:35Z</time>
      </trkpt>
      <trkpt lat="43.73596" lon="6.80988">
        <ele>1009.4</ele>
        <time>2026-05-15T13:42:36Z</time>
      </trkpt>
      <trkpt lat="43.73603" lon="6.81004">
        <ele>1008.8</ele>
        <time>2026-05-15T13:42:37Z</time>
      </trkpt>
      <trkpt lat="43.73611" lon="6.8102">
        <ele>1008.5</ele>
        <time>2026-05-15T13:42:38Z</time>
      </trkpt>
      <trkpt lat="43.73619" lon="6.81037">
        <ele>1008.8</ele>
        <time>2026-05-15T13:42:39Z</time>
      </trkpt>
      <trkpt lat="43.73627" lon="6.81055">
        <ele>1008.9</ele>
        <time>2026-05-15T13:42:40Z</time>
      </trkpt>
      <trkpt lat="43.73636" lon="6.81074">
        <ele>1008.3</ele>
        <time>2026-05-15T13:42:41Z</time>
      </trkpt>
      <trkpt lat="43.73644" lon="6.81093">
        <ele>1009.2</ele>
        <time>2026-05-15T13:42:42Z</time>
      </trkpt>
      <trkpt lat="43.73652" lon="6.81113">
        <ele>1009.4</ele>
        <time>2026-05-15T13:42:43Z</time>
      </trkpt>
      <trkpt lat="43.73658" lon="6.81134">
        <ele>1009</ele>
        <time>2026-05-15T13:42:44Z</time>
      </trkpt>
      <trkpt lat="43.73665" lon="6.81154">
        <ele>1010.3</ele>
        <time>2026-05-15T13:42:45Z</time>
      </trkpt>
      <trkpt lat="43.7367" lon="6.81174">
        <ele>1009.9</ele>
        <time>2026-05-15T13:42:46Z</time>
      </trkpt>
      <trkpt lat="43.73678" lon="6.81192">
        <ele>1008.7</ele>
        <time>2026-05-15T13:42:47Z</time>
      </trkpt>
      <trkpt lat="43.73687" lon="6.81209">
        <ele>1007.5</ele>
        <time>2026-05-15T13:42:48Z</time>
      </trkpt>
      <trkpt lat="43.73695" lon="6.81226">
        <ele>1006.5</ele>
        <time>2026-05-15T13:42:49Z</time>
      </trkpt>
      <trkpt lat="43.73703" lon="6.81244">
        <ele>1006.1</ele>
        <time>2026-05-15T13:42:50Z</time>
      </trkpt>
      <trkpt lat="43.73711" lon="6.81261">
        <ele>1005.4</ele>
        <time>2026-05-15T13:42:51Z</time>
      </trkpt>
      <trkpt lat="43.73718" lon="6.81277">
        <ele>1004.4</ele>
        <time>2026-05-15T13:42:52Z</time>
      </trkpt>
      <trkpt lat="43.73727" lon="6.81293">
        <ele>1004.1</ele>
        <time>2026-05-15T13:42:53Z</time>
      </trkpt>
      <trkpt lat="43.73736" lon="6.81307">
        <ele>1003.1</ele>
        <time>2026-05-15T13:42:54Z</time>
      </trkpt>
      <trkpt lat="43.73745" lon="6.81321">
        <ele>1002.6</ele>
        <time>2026-05-15T13:42:55Z</time>
      </trkpt>
      <trkpt lat="43.73755" lon="6.81332">
        <ele>1003</ele>
        <time>2026-05-15T13:42:56Z</time>
      </trkpt>
      <trkpt lat="43.73765" lon="6.81343">
        <ele>1002.7</ele>
        <time>2026-05-15T13:42:57Z</time>
      </trkpt>
      <trkpt lat="43.73775" lon="6.81353">
        <ele>1002.2</ele>
        <time>2026-05-15T13:42:58Z</time>
      </trkpt>
      <trkpt lat="43.73785" lon="6.81362">
        <ele>1001</ele>
        <time>2026-05-15T13:42:59Z</time>
      </trkpt>
      <trkpt lat="43.73794" lon="6.81371">
        <ele>999.8</ele>
        <time>2026-05-15T13:43:00Z</time>
      </trkpt>
      <trkpt lat="43.73802" lon="6.8138">
        <ele>998.7</ele>
        <time>2026-05-15T13:43:01Z</time>
      </trkpt>
      <trkpt lat="43.73808" lon="6.81392">
        <ele>998.4</ele>
        <time>2026-05-15T13:43:02Z</time>
      </trkpt>
      <trkpt lat="43.73812" lon="6.81404">
        <ele>1001.3</ele>
        <time>2026-05-15T13:43:03Z</time>
      </trkpt>
      <trkpt lat="43.73812" lon="6.81416">
        <ele>1002.1</ele>
        <time>2026-05-15T13:43:04Z</time>
      </trkpt>
      <trkpt lat="43.7381" lon="6.81428">
        <ele>1003.7</ele>
        <time>2026-05-15T13:43:05Z</time>
      </trkpt>
      <trkpt lat="43.73804" lon="6.81441">
        <ele>1003.4</ele>
        <time>2026-05-15T13:43:06Z</time>
      </trkpt>
      <trkpt lat="43.73796" lon="6.81453">
        <ele>1002.9</ele>
        <time>2026-05-15T13:43:07Z</time>
      </trkpt>
      <trkpt lat="43.73785" lon="6.81465">
        <ele>1000.8</ele>
        <time>2026-05-15T13:43:08Z</time>
      </trkpt>
      <trkpt lat="43.73773" lon="6.81477">
        <ele>998.9</ele>
        <time>2026-05-15T13:43:09Z</time>
      </trkpt>
      <trkpt lat="43.7376" lon="6.8149">
        <ele>998.2</ele>
        <time>2026-05-15T13:43:10Z</time>
      </trkpt>
      <trkpt lat="43.73746" lon="6.81503">
        <ele>996.9</ele>
        <time>2026-05-15T13:43:11Z</time>
      </trkpt>
      <trkpt lat="43.73732" lon="6.81516">
        <ele>997.5</ele>
        <time>2026-05-15T13:43:12Z</time>
      </trkpt>
      <trkpt lat="43.73716" lon="6.81528">
        <ele>997.9</ele>
        <time>2026-05-15T13:43:13Z</time>
      </trkpt>
      <trkpt lat="43.73699" lon="6.81537">
        <ele>998</ele>
        <time>2026-05-15T13:43:14Z</time>
      </trkpt>
      <trkpt lat="43.73682" lon="6.81544">
        <ele>996.9</ele>
        <time>2026-05-15T13:43:15Z</time>
      </trkpt>
      <trkpt lat="43.73664" lon="6.81549">
        <ele>994.3</ele>
        <time>2026-05-15T13:43:16Z</time>
      </trkpt>
      <trkpt lat="43.73645" lon="6.81552">
        <ele>991.3</ele>
        <time>2026-05-15T13:43:17Z</time>
      </trkpt>
      <trkpt lat="43.73627" lon="6.81555">
        <ele>989.6</ele>
        <time>2026-05-15T13:43:18Z</time>
      </trkpt>
      <trkpt lat="43.73609" lon="6.81557">
        <ele>988.2</ele>
        <time>2026-05-15T13:43:19Z</time>
      </trkpt>
      <trkpt lat="43.7359" lon="6.81559">
        <ele>987.8</ele>
        <time>2026-05-15T13:43:20Z</time>
      </trkpt>
      <trkpt lat="43.73572" lon="6.81562">
        <ele>986.4</ele>
        <time>2026-05-15T13:43:21Z</time>
      </trkpt>
      <trkpt lat="43.73554" lon="6.81564">
        <ele>984.3</ele>
        <time>2026-05-15T13:43:22Z</time>
      </trkpt>
      <trkpt lat="43.73537" lon="6.81566">
        <ele>982.4</ele>
        <time>2026-05-15T13:43:23Z</time>
      </trkpt>
      <trkpt lat="43.73519" lon="6.81566">
        <ele>980.1</ele>
        <time>2026-05-15T13:43:24Z</time>
      </trkpt>
      <trkpt lat="43.73502" lon="6.81566">
        <ele>978</ele>
        <time>2026-05-15T13:43:25Z</time>
      </trkpt>
      <trkpt lat="43.73485" lon="6.81561">
        <ele>975.8</ele>
        <time>2026-05-15T13:43:26Z</time>
      </trkpt>
      <trkpt lat="43.73469" lon="6.81554">
        <ele>973.9</ele>
        <time>2026-05-15T13:43:27Z</time>
      </trkpt>
      <trkpt lat="43.73454" lon="6.81543">
        <ele>973.3</ele>
        <time>2026-05-15T13:43:28Z</time>
      </trkpt>
      <trkpt lat="43.73441" lon="6.81528">
        <ele>972</ele>
        <time>2026-05-15T13:43:29Z</time>
      </trkpt>
      <trkpt lat="43.7343" lon="6.81511">
        <ele>970.5</ele>
        <time>2026-05-15T13:43:30Z</time>
      </trkpt>
      <trkpt lat="43.7342" lon="6.81493">
        <ele>969.4</ele>
        <time>2026-05-15T13:43:31Z</time>
      </trkpt>
      <trkpt lat="43.73412" lon="6.81477">
        <ele>968.5</ele>
        <time>2026-05-15T13:43:32Z</time>
      </trkpt>
      <trkpt lat="43.73403" lon="6.81462">
        <ele>967.8</ele>
        <time>2026-05-15T13:43:33Z</time>
      </trkpt>
      <trkpt lat="43.73393" lon="6.8145">
        <ele>967.3</ele>
        <time>2026-05-15T13:43:34Z</time>
      </trkpt>
      <trkpt lat="43.73382" lon="6.8144">
        <ele>966.6</ele>
        <time>2026-05-15T13:43:35Z</time>
      </trkpt>
      <trkpt lat="43.7337" lon="6.81434">
        <ele>965.9</ele>
        <time>2026-05-15T13:43:36Z</time>
      </trkpt>
      <trkpt lat="43.73356" lon="6.81433">
        <ele>965.1</ele>
        <time>2026-05-15T13:43:37Z</time>
      </trkpt>
      <trkpt lat="43.73343" lon="6.81435">
        <ele>963.9</ele>
        <time>2026-05-15T13:43:38Z</time>
      </trkpt>
      <trkpt lat="43.73329" lon="6.81441">
        <ele>962.8</ele>
        <time>2026-05-15T13:43:39Z</time>
      </trkpt>
      <trkpt lat="43.73317" lon="6.81452">
        <ele>961.8</ele>
        <time>2026-05-15T13:43:40Z</time>
      </trkpt>
      <trkpt lat="43.73307" lon="6.81467">
        <ele>961.7</ele>
        <time>2026-05-15T13:43:41Z</time>
      </trkpt>
      <trkpt lat="43.73299" lon="6.81484">
        <ele>961.1</ele>
        <time>2026-05-15T13:43:42Z</time>
      </trkpt>
      <trkpt lat="43.73294" lon="6.81505">
        <ele>960.6</ele>
        <time>2026-05-15T13:43:43Z</time>
      </trkpt>
      <trkpt lat="43.73292" lon="6.81525">
        <ele>959.6</ele>
        <time>2026-05-15T13:43:44Z</time>
      </trkpt>
      <trkpt lat="43.73292" lon="6.81546">
        <ele>958.3</ele>
        <time>2026-05-15T13:43:45Z</time>
      </trkpt>
      <trkpt lat="43.73292" lon="6.81567">
        <ele>957.4</ele>
        <time>2026-05-15T13:43:46Z</time>
      </trkpt>
      <trkpt lat="43.73292" lon="6.81588">
        <ele>957.1</ele>
        <time>2026-05-15T13:43:47Z</time>
      </trkpt>
      <trkpt lat="43.73292" lon="6.81608">
        <ele>957.1</ele>
        <time>2026-05-15T13:43:48Z</time>
      </trkpt>
      <trkpt lat="43.73291" lon="6.81629">
        <ele>956.8</ele>
        <time>2026-05-15T13:43:49Z</time>
      </trkpt>
      <trkpt lat="43.73291" lon="6.81649">
        <ele>956.3</ele>
        <time>2026-05-15T13:43:50Z</time>
      </trkpt>
      <trkpt lat="43.73289" lon="6.81668">
        <ele>954.6</ele>
        <time>2026-05-15T13:43:51Z</time>
      </trkpt>
      <trkpt lat="43.73285" lon="6.81685">
        <ele>952.2</ele>
        <time>2026-05-15T13:43:52Z</time>
      </trkpt>
      <trkpt lat="43.73278" lon="6.81698">
        <ele>949.1</ele>
        <time>2026-05-15T13:43:53Z</time>
      </trkpt>
      <trkpt lat="43.73267" lon="6.81707">
        <ele>948.8</ele>
        <time>2026-05-15T13:43:54Z</time>
      </trkpt>
      <trkpt lat="43.73256" lon="6.81712">
        <ele>948.9</ele>
        <time>2026-05-15T13:43:55Z</time>
      </trkpt>
      <trkpt lat="43.73243" lon="6.81712">
        <ele>950.7</ele>
        <time>2026-05-15T13:43:56Z</time>
      </trkpt>
      <trkpt lat="43.73231" lon="6.81706">
        <ele>952.9</ele>
        <time>2026-05-15T13:43:57Z</time>
      </trkpt>
      <trkpt lat="43.7322" lon="6.81694">
        <ele>953.7</ele>
        <time>2026-05-15T13:43:58Z</time>
      </trkpt>
      <trkpt lat="43.73211" lon="6.81678">
        <ele>953.2</ele>
        <time>2026-05-15T13:43:59Z</time>
      </trkpt>
      <trkpt lat="43.73202" lon="6.81658">
        <ele>951.9</ele>
        <time>2026-05-15T13:44:00Z</time>
      </trkpt>
      <trkpt lat="43.73193" lon="6.81637">
        <ele>950.2</ele>
        <time>2026-05-15T13:44:01Z</time>
      </trkpt>
      <trkpt lat="43.73184" lon="6.81616">
        <ele>948.6</ele>
        <time>2026-05-15T13:44:02Z</time>
      </trkpt>
      <trkpt lat="43.73175" lon="6.81595">
        <ele>947</ele>
        <time>2026-05-15T13:44:03Z</time>
      </trkpt>
      <trkpt lat="43.73166" lon="6.81575">
        <ele>945.5</ele>
        <time>2026-05-15T13:44:04Z</time>
      </trkpt>
      <trkpt lat="43.73158" lon="6.81553">
        <ele>943.9</ele>
        <time>2026-05-15T13:44:05Z</time>
      </trkpt>
      <trkpt lat="43.73149" lon="6.81533">
        <ele>943.4</ele>
        <time>2026-05-15T13:44:06Z</time>
      </trkpt>
      <trkpt lat="43.73141" lon="6.81513">
        <ele>941.6</ele>
        <time>2026-05-15T13:44:07Z</time>
      </trkpt>
      <trkpt lat="43.73132" lon="6.81493">
        <ele>940</ele>
        <time>2026-05-15T13:44:08Z</time>
      </trkpt>
      <trkpt lat="43.73123" lon="6.81475">
        <ele>939.2</ele>
        <time>2026-05-15T13:44:09Z</time>
      </trkpt>
      <trkpt lat="43.73113" lon="6.81457">
        <ele>938.2</ele>
        <time>2026-05-15T13:44:10Z</time>
      </trkpt>
      <trkpt lat="43.73105" lon="6.81439">
        <ele>936.8</ele>
        <time>2026-05-15T13:44:11Z</time>
      </trkpt>
      <trkpt lat="43.73096" lon="6.81421">
        <ele>935.8</ele>
        <time>2026-05-15T13:44:12Z</time>
      </trkpt>
      <trkpt lat="43.73088" lon="6.81403">
        <ele>934.1</ele>
        <time>2026-05-15T13:44:13Z</time>
      </trkpt>
      <trkpt lat="43.73079" lon="6.81387">
        <ele>933.9</ele>
        <time>2026-05-15T13:44:14Z</time>
      </trkpt>
      <trkpt lat="43.73069" lon="6.81373">
        <ele>934.2</ele>
        <time>2026-05-15T13:44:15Z</time>
      </trkpt>
      <trkpt lat="43.73059" lon="6.8136">
        <ele>933.9</ele>
        <time>2026-05-15T13:44:16Z</time>
      </trkpt>
      <trkpt lat="43.73049" lon="6.81346">
        <ele>934.5</ele>
        <time>2026-05-15T13:44:17Z</time>
      </trkpt>
      <trkpt lat="43.73041" lon="6.8133">
        <ele>933.2</ele>
        <time>2026-05-15T13:44:18Z</time>
      </trkpt>
      <trkpt lat="43.73036" lon="6.81312">
        <ele>932.2</ele>
        <time>2026-05-15T13:44:19Z</time>
      </trkpt>
      <trkpt lat="43.73032" lon="6.81294">
        <ele>929.8</ele>
        <time>2026-05-15T13:44:20Z</time>
      </trkpt>
      <trkpt lat="43.73026" lon="6.81277">
        <ele>928</ele>
        <time>2026-05-15T13:44:21Z</time>
      </trkpt>
      <trkpt lat="43.73019" lon="6.81261">
        <ele>927.5</ele>
        <time>2026-05-15T13:44:22Z</time>
      </trkpt>
      <trkpt lat="43.73011" lon="6.81247">
        <ele>926</ele>
        <time>2026-05-15T13:44:23Z</time>
      </trkpt>
      <trkpt lat="43.73001" lon="6.81234">
        <ele>925.4</ele>
        <time>2026-05-15T13:44:24Z</time>
      </trkpt>
      <trkpt lat="43.72992" lon="6.81221">
        <ele>924.3</ele>
        <time>2026-05-15T13:44:25Z</time>
      </trkpt>
      <trkpt lat="43.72983" lon="6.81209">
        <ele>922.8</ele>
        <time>2026-05-15T13:44:26Z</time>
      </trkpt>
      <trkpt lat="43.72973" lon="6.81198">
        <ele>922.9</ele>
        <time>2026-05-15T13:44:27Z</time>
      </trkpt>
      <trkpt lat="43.72962" lon="6.81191">
        <ele>922.4</ele>
        <time>2026-05-15T13:44:28Z</time>
      </trkpt>
      <trkpt lat="43.7295" lon="6.81186">
        <ele>922.6</ele>
        <time>2026-05-15T13:44:29Z</time>
      </trkpt>
      <trkpt lat="43.72938" lon="6.81185">
        <ele>922.8</ele>
        <time>2026-05-15T13:44:30Z</time>
      </trkpt>
      <trkpt lat="43.72926" lon="6.81187">
        <ele>922.6</ele>
        <time>2026-05-15T13:44:31Z</time>
      </trkpt>
      <trkpt lat="43.72915" lon="6.81193">
        <ele>923.1</ele>
        <time>2026-05-15T13:44:32Z</time>
      </trkpt>
      <trkpt lat="43.72904" lon="6.81201">
        <ele>922.1</ele>
        <time>2026-05-15T13:44:33Z</time>
      </trkpt>
      <trkpt lat="43.72894" lon="6.81212">
        <ele>921.5</ele>
        <time>2026-05-15T13:44:34Z</time>
      </trkpt>
      <trkpt lat="43.72887" lon="6.81226">
        <ele>921.8</ele>
        <time>2026-05-15T13:44:35Z</time>
      </trkpt>
      <trkpt lat="43.72881" lon="6.81243">
        <ele>922.5</ele>
        <time>2026-05-15T13:44:36Z</time>
      </trkpt>
      <trkpt lat="43.72878" lon="6.81262">
        <ele>923.7</ele>
        <time>2026-05-15T13:44:37Z</time>
      </trkpt>
      <trkpt lat="43.72876" lon="6.81282">
        <ele>923.6</ele>
        <time>2026-05-15T13:44:38Z</time>
      </trkpt>
      <trkpt lat="43.72877" lon="6.81303">
        <ele>925.2</ele>
        <time>2026-05-15T13:44:39Z</time>
      </trkpt>
      <trkpt lat="43.72877" lon="6.81325">
        <ele>924.9</ele>
        <time>2026-05-15T13:44:40Z</time>
      </trkpt>
      <trkpt lat="43.72878" lon="6.81347">
        <ele>924.7</ele>
        <time>2026-05-15T13:44:41Z</time>
      </trkpt>
      <trkpt lat="43.72877" lon="6.81369">
        <ele>921.9</ele>
        <time>2026-05-15T13:44:42Z</time>
      </trkpt>
      <trkpt lat="43.72876" lon="6.81392">
        <ele>919.9</ele>
        <time>2026-05-15T13:44:43Z</time>
      </trkpt>
      <trkpt lat="43.72873" lon="6.81414">
        <ele>919.1</ele>
        <time>2026-05-15T13:44:44Z</time>
      </trkpt>
      <trkpt lat="43.72869" lon="6.81435">
        <ele>918.8</ele>
        <time>2026-05-15T13:44:45Z</time>
      </trkpt>
      <trkpt lat="43.72863" lon="6.81454">
        <ele>918.1</ele>
        <time>2026-05-15T13:44:46Z</time>
      </trkpt>
      <trkpt lat="43.72855" lon="6.81473">
        <ele>918.3</ele>
        <time>2026-05-15T13:44:47Z</time>
      </trkpt>
      <trkpt lat="43.72846" lon="6.81491">
        <ele>917.2</ele>
        <time>2026-05-15T13:44:48Z</time>
      </trkpt>
      <trkpt lat="43.72837" lon="6.81508">
        <ele>916.5</ele>
        <time>2026-05-15T13:44:49Z</time>
      </trkpt>
      <trkpt lat="43.72826" lon="6.81523">
        <ele>916.3</ele>
        <time>2026-05-15T13:44:50Z</time>
      </trkpt>
      <trkpt lat="43.72814" lon="6.81537">
        <ele>916</ele>
        <time>2026-05-15T13:44:51Z</time>
      </trkpt>
      <trkpt lat="43.72802" lon="6.8155">
        <ele>915.7</ele>
        <time>2026-05-15T13:44:52Z</time>
      </trkpt>
      <trkpt lat="43.72789" lon="6.81564">
        <ele>916.6</ele>
        <time>2026-05-15T13:44:53Z</time>
      </trkpt>
      <trkpt lat="43.72777" lon="6.81577">
        <ele>917.1</ele>
        <time>2026-05-15T13:44:54Z</time>
      </trkpt>
      <trkpt lat="43.72766" lon="6.8159">
        <ele>917</ele>
        <time>2026-05-15T13:44:55Z</time>
      </trkpt>
      <trkpt lat="43.72754" lon="6.81604">
        <ele>917.6</ele>
        <time>2026-05-15T13:44:56Z</time>
      </trkpt>
      <trkpt lat="43.72744" lon="6.81619">
        <ele>918.6</ele>
        <time>2026-05-15T13:44:57Z</time>
      </trkpt>
      <trkpt lat="43.72735" lon="6.81636">
        <ele>919.2</ele>
        <time>2026-05-15T13:44:58Z</time>
      </trkpt>
      <trkpt lat="43.72727" lon="6.81654">
        <ele>918.6</ele>
        <time>2026-05-15T13:44:59Z</time>
      </trkpt>
      <trkpt lat="43.72716" lon="6.8167">
        <ele>916.4</ele>
        <time>2026-05-15T13:45:00Z</time>
      </trkpt>
      <trkpt lat="43.72704" lon="6.81685">
        <ele>916.5</ele>
        <time>2026-05-15T13:45:01Z</time>
      </trkpt>
      <trkpt lat="43.7269" lon="6.81698">
        <ele>915.6</ele>
        <time>2026-05-15T13:45:02Z</time>
      </trkpt>
      <trkpt lat="43.72676" lon="6.81711">
        <ele>917.1</ele>
        <time>2026-05-15T13:45:03Z</time>
      </trkpt>
      <trkpt lat="43.72662" lon="6.81723">
        <ele>916.8</ele>
        <time>2026-05-15T13:45:04Z</time>
      </trkpt>
      <trkpt lat="43.72649" lon="6.81736">
        <ele>918.2</ele>
        <time>2026-05-15T13:45:05Z</time>
      </trkpt>
      <trkpt lat="43.72636" lon="6.8175">
        <ele>919.8</ele>
        <time>2026-05-15T13:45:06Z</time>
      </trkpt>
      <trkpt lat="43.72623" lon="6.81765">
        <ele>919.7</ele>
        <time>2026-05-15T13:45:07Z</time>
      </trkpt>
      <trkpt lat="43.7261" lon="6.8178">
        <ele>918.7</ele>
        <time>2026-05-15T13:45:08Z</time>
      </trkpt>
      <trkpt lat="43.72598" lon="6.81795">
        <ele>920</ele>
        <time>2026-05-15T13:45:09Z</time>
      </trkpt>
      <trkpt lat="43.72584" lon="6.81809">
        <ele>917.5</ele>
        <time>2026-05-15T13:45:10Z</time>
      </trkpt>
      <trkpt lat="43.7257" lon="6.8182">
        <ele>916.8</ele>
        <time>2026-05-15T13:45:11Z</time>
      </trkpt>
      <trkpt lat="43.72554" lon="6.81829">
        <ele>915.4</ele>
        <time>2026-05-15T13:45:12Z</time>
      </trkpt>
      <trkpt lat="43.72538" lon="6.81837">
        <ele>916.9</ele>
        <time>2026-05-15T13:45:13Z</time>
      </trkpt>
      <trkpt lat="43.72523" lon="6.81846">
        <ele>918.6</ele>
        <time>2026-05-15T13:45:14Z</time>
      </trkpt>
      <trkpt lat="43.72508" lon="6.81857">
        <ele>919.4</ele>
        <time>2026-05-15T13:45:15Z</time>
      </trkpt>
      <trkpt lat="43.72494" lon="6.81867">
        <ele>919.7</ele>
        <time>2026-05-15T13:45:16Z</time>
      </trkpt>
      <trkpt lat="43.72481" lon="6.81877">
        <ele>920.6</ele>
        <time>2026-05-15T13:45:17Z</time>
      </trkpt>
      <trkpt lat="43.72468" lon="6.81887">
        <ele>921.5</ele>
        <time>2026-05-15T13:45:18Z</time>
      </trkpt>
      <trkpt lat="43.72458" lon="6.819">
        <ele>923</ele>
        <time>2026-05-15T13:45:19Z</time>
      </trkpt>
      <trkpt lat="43.72448" lon="6.81913">
        <ele>923.4</ele>
        <time>2026-05-15T13:45:20Z</time>
      </trkpt>
      <trkpt lat="43.72439" lon="6.81926">
        <ele>923.6</ele>
        <time>2026-05-15T13:45:21Z</time>
      </trkpt>
      <trkpt lat="43.72429" lon="6.81938">
        <ele>922.8</ele>
        <time>2026-05-15T13:45:22Z</time>
      </trkpt>
      <trkpt lat="43.72416" lon="6.81946">
        <ele>919.7</ele>
        <time>2026-05-15T13:45:23Z</time>
      </trkpt>
      <trkpt lat="43.72402" lon="6.81952">
        <ele>920.8</ele>
        <time>2026-05-15T13:45:24Z</time>
      </trkpt>
      <trkpt lat="43.72388" lon="6.81957">
        <ele>921.5</ele>
        <time>2026-05-15T13:45:25Z</time>
      </trkpt>
      <trkpt lat="43.72375" lon="6.81964">
        <ele>921.7</ele>
        <time>2026-05-15T13:45:26Z</time>
      </trkpt>
      <trkpt lat="43.72361" lon="6.81975">
        <ele>923.4</ele>
        <time>2026-05-15T13:45:27Z</time>
      </trkpt>
      <trkpt lat="43.72348" lon="6.81987">
        <ele>923.5</ele>
        <time>2026-05-15T13:45:28Z</time>
      </trkpt>
      <trkpt lat="43.72335" lon="6.82">
        <ele>923.8</ele>
        <time>2026-05-15T13:45:29Z</time>
      </trkpt>
      <trkpt lat="43.72322" lon="6.82013">
        <ele>923.7</ele>
        <time>2026-05-15T13:45:30Z</time>
      </trkpt>
      <trkpt lat="43.72309" lon="6.82027">
        <ele>922.7</ele>
        <time>2026-05-15T13:45:31Z</time>
      </trkpt>
      <trkpt lat="43.72296" lon="6.82042">
        <ele>921.8</ele>
        <time>2026-05-15T13:45:32Z</time>
      </trkpt>
      <trkpt lat="43.72283" lon="6.82057">
        <ele>921.2</ele>
        <time>2026-05-15T13:45:33Z</time>
      </trkpt>
      <trkpt lat="43.7227" lon="6.82073">
        <ele>920.7</ele>
        <time>2026-05-15T13:45:34Z</time>
      </trkpt>
      <trkpt lat="43.72257" lon="6.82089">
        <ele>921.4</ele>
        <time>2026-05-15T13:45:35Z</time>
      </trkpt>
      <trkpt lat="43.72245" lon="6.82105">
        <ele>922.2</ele>
        <time>2026-05-15T13:45:36Z</time>
      </trkpt>
      <trkpt lat="43.72233" lon="6.8212">
        <ele>922.6</ele>
        <time>2026-05-15T13:45:37Z</time>
      </trkpt>
      <trkpt lat="43.72222" lon="6.82134">
        <ele>923</ele>
        <time>2026-05-15T13:45:38Z</time>
      </trkpt>
      <trkpt lat="43.7221" lon="6.82149">
        <ele>923.6</ele>
        <time>2026-05-15T13:45:39Z</time>
      </trkpt>
      <trkpt lat="43.722" lon="6.82164">
        <ele>924.6</ele>
        <time>2026-05-15T13:45:40Z</time>
      </trkpt>
      <trkpt lat="43.7219" lon="6.8218">
        <ele>925.5</ele>
        <time>2026-05-15T13:45:41Z</time>
      </trkpt>
      <trkpt lat="43.72181" lon="6.82196">
        <ele>926.2</ele>
        <time>2026-05-15T13:45:42Z</time>
      </trkpt>
      <trkpt lat="43.72172" lon="6.82212">
        <ele>925.5</ele>
        <time>2026-05-15T13:45:43Z</time>
      </trkpt>
      <trkpt lat="43.72164" lon="6.82229">
        <ele>925.4</ele>
        <time>2026-05-15T13:45:44Z</time>
      </trkpt>
      <trkpt lat="43.72156" lon="6.82245">
        <ele>925.1</ele>
        <time>2026-05-15T13:45:45Z</time>
      </trkpt>
      <trkpt lat="43.72148" lon="6.82262">
        <ele>924.9</ele>
        <time>2026-05-15T13:45:46Z</time>
      </trkpt>
      <trkpt lat="43.72139" lon="6.82279">
        <ele>923.4</ele>
        <time>2026-05-15T13:45:47Z</time>
      </trkpt>
      <trkpt lat="43.7213" lon="6.82296">
        <ele>923.2</ele>
        <time>2026-05-15T13:45:48Z</time>
      </trkpt>
      <trkpt lat="43.72123" lon="6.82314">
        <ele>923.4</ele>
        <time>2026-05-15T13:45:49Z</time>
      </trkpt>
      <trkpt lat="43.72116" lon="6.82334">
        <ele>923</ele>
        <time>2026-05-15T13:45:50Z</time>
      </trkpt>
      <trkpt lat="43.7211" lon="6.82353">
        <ele>923.7</ele>
        <time>2026-05-15T13:45:51Z</time>
      </trkpt>
      <trkpt lat="43.72103" lon="6.82373">
        <ele>924.6</ele>
        <time>2026-05-15T13:45:52Z</time>
      </trkpt>
      <trkpt lat="43.72096" lon="6.82393">
        <ele>925.3</ele>
        <time>2026-05-15T13:45:53Z</time>
      </trkpt>
      <trkpt lat="43.72087" lon="6.82413">
        <ele>924.5</ele>
        <time>2026-05-15T13:45:54Z</time>
      </trkpt>
      <trkpt lat="43.72077" lon="6.82432">
        <ele>923.7</ele>
        <time>2026-05-15T13:45:55Z</time>
      </trkpt>
      <trkpt lat="43.72066" lon="6.82449">
        <ele>923.5</ele>
        <time>2026-05-15T13:45:56Z</time>
      </trkpt>
      <trkpt lat="43.72055" lon="6.82466">
        <ele>924</ele>
        <time>2026-05-15T13:45:57Z</time>
      </trkpt>
      <trkpt lat="43.72044" lon="6.82482">
        <ele>924.3</ele>
        <time>2026-05-15T13:45:58Z</time>
      </trkpt>
      <trkpt lat="43.72032" lon="6.82496">
        <ele>924.8</ele>
        <time>2026-05-15T13:45:59Z</time>
      </trkpt>
      <trkpt lat="43.7202" lon="6.82509">
        <ele>924.5</ele>
        <time>2026-05-15T13:46:00Z</time>
      </trkpt>
      <trkpt lat="43.72009" lon="6.82522">
        <ele>923.5</ele>
        <time>2026-05-15T13:46:01Z</time>
      </trkpt>
      <trkpt lat="43.71999" lon="6.82536">
        <ele>922.9</ele>
        <time>2026-05-15T13:46:02Z</time>
      </trkpt>
      <trkpt lat="43.71989" lon="6.8255">
        <ele>921.6</ele>
        <time>2026-05-15T13:46:03Z</time>
      </trkpt>
      <trkpt lat="43.7198" lon="6.82564">
        <ele>920.6</ele>
        <time>2026-05-15T13:46:04Z</time>
      </trkpt>
      <trkpt lat="43.71971" lon="6.8258">
        <ele>919.5</ele>
        <time>2026-05-15T13:46:05Z</time>
      </trkpt>
      <trkpt lat="43.71964" lon="6.82598">
        <ele>919.3</ele>
        <time>2026-05-15T13:46:06Z</time>
      </trkpt>
      <trkpt lat="43.71956" lon="6.82616">
        <ele>918.1</ele>
        <time>2026-05-15T13:46:07Z</time>
      </trkpt>
      <trkpt lat="43.71949" lon="6.82634">
        <ele>917.6</ele>
        <time>2026-05-15T13:46:08Z</time>
      </trkpt>
      <trkpt lat="43.71942" lon="6.82653">
        <ele>917.4</ele>
        <time>2026-05-15T13:46:09Z</time>
      </trkpt>
      <trkpt lat="43.71934" lon="6.82673">
        <ele>917.3</ele>
        <time>2026-05-15T13:46:10Z</time>
      </trkpt>
      <trkpt lat="43.71925" lon="6.82692">
        <ele>916.5</ele>
        <time>2026-05-15T13:46:11Z</time>
      </trkpt>
      <trkpt lat="43.71915" lon="6.82709">
        <ele>915.5</ele>
        <time>2026-05-15T13:46:12Z</time>
      </trkpt>
      <trkpt lat="43.71905" lon="6.82726">
        <ele>915.3</ele>
        <time>2026-05-15T13:46:13Z</time>
      </trkpt>
      <trkpt lat="43.71896" lon="6.82743">
        <ele>916.1</ele>
        <time>2026-05-15T13:46:14Z</time>
      </trkpt>
      <trkpt lat="43.71887" lon="6.82761">
        <ele>916</ele>
        <time>2026-05-15T13:46:15Z</time>
      </trkpt>
      <trkpt lat="43.7188" lon="6.82781">
        <ele>915.9</ele>
        <time>2026-05-15T13:46:16Z</time>
      </trkpt>
      <trkpt lat="43.71873" lon="6.828">
        <ele>916.2</ele>
        <time>2026-05-15T13:46:17Z</time>
      </trkpt>
      <trkpt lat="43.71865" lon="6.8282">
        <ele>916.1</ele>
        <time>2026-05-15T13:46:18Z</time>
      </trkpt>
      <trkpt lat="43.71858" lon="6.82839">
        <ele>916.4</ele>
        <time>2026-05-15T13:46:19Z</time>
      </trkpt>
      <trkpt lat="43.71849" lon="6.82857">
        <ele>915.5</ele>
        <time>2026-05-15T13:46:20Z</time>
      </trkpt>
      <trkpt lat="43.7184" lon="6.82874">
        <ele>915.4</ele>
        <time>2026-05-15T13:46:21Z</time>
      </trkpt>
      <trkpt lat="43.7183" lon="6.8289">
        <ele>915.2</ele>
        <time>2026-05-15T13:46:22Z</time>
      </trkpt>
      <trkpt lat="43.71822" lon="6.82906">
        <ele>914.6</ele>
        <time>2026-05-15T13:46:23Z</time>
      </trkpt>
      <trkpt lat="43.71813" lon="6.82922">
        <ele>912.8</ele>
        <time>2026-05-15T13:46:24Z</time>
      </trkpt>
      <trkpt lat="43.71807" lon="6.82939">
        <ele>912</ele>
        <time>2026-05-15T13:46:25Z</time>
      </trkpt>
      <trkpt lat="43.71803" lon="6.82958">
        <ele>912.4</ele>
        <time>2026-05-15T13:46:26Z</time>
      </trkpt>
      <trkpt lat="43.718" lon="6.82978">
        <ele>913.2</ele>
        <time>2026-05-15T13:46:27Z</time>
      </trkpt>
      <trkpt lat="43.71797" lon="6.82999">
        <ele>913.7</ele>
        <time>2026-05-15T13:46:28Z</time>
      </trkpt>
      <trkpt lat="43.71793" lon="6.8302">
        <ele>912</ele>
        <time>2026-05-15T13:46:29Z</time>
      </trkpt>
      <trkpt lat="43.7179" lon="6.8304">
        <ele>911.2</ele>
        <time>2026-05-15T13:46:30Z</time>
      </trkpt>
      <trkpt lat="43.71786" lon="6.83061">
        <ele>910.2</ele>
        <time>2026-05-15T13:46:31Z</time>
      </trkpt>
      <trkpt lat="43.71783" lon="6.83083">
        <ele>910.6</ele>
        <time>2026-05-15T13:46:32Z</time>
      </trkpt>
      <trkpt lat="43.71781" lon="6.83104">
        <ele>910.3</ele>
        <time>2026-05-15T13:46:33Z</time>
      </trkpt>
      <trkpt lat="43.71779" lon="6.83125">
        <ele>909.1</ele>
        <time>2026-05-15T13:46:34Z</time>
      </trkpt>
      <trkpt lat="43.71778" lon="6.83147">
        <ele>908.1</ele>
        <time>2026-05-15T13:46:35Z</time>
      </trkpt>
      <trkpt lat="43.71777" lon="6.83169">
        <ele>907.7</ele>
        <time>2026-05-15T13:46:36Z</time>
      </trkpt>
      <trkpt lat="43.71777" lon="6.83191">
        <ele>908.5</ele>
        <time>2026-05-15T13:46:37Z</time>
      </trkpt>
      <trkpt lat="43.71778" lon="6.83212">
        <ele>908.5</ele>
        <time>2026-05-15T13:46:38Z</time>
      </trkpt>
      <trkpt lat="43.71779" lon="6.83233">
        <ele>907.8</ele>
        <time>2026-05-15T13:46:39Z</time>
      </trkpt>
      <trkpt lat="43.7178" lon="6.83253">
        <ele>906.8</ele>
        <time>2026-05-15T13:46:40Z</time>
      </trkpt>
      <trkpt lat="43.71782" lon="6.83273">
        <ele>906.9</ele>
        <time>2026-05-15T13:46:41Z</time>
      </trkpt>
      <trkpt lat="43.71785" lon="6.83294">
        <ele>907</ele>
        <time>2026-05-15T13:46:42Z</time>
      </trkpt>
      <trkpt lat="43.71787" lon="6.83316">
        <ele>906.4</ele>
        <time>2026-05-15T13:46:43Z</time>
      </trkpt>
      <trkpt lat="43.71791" lon="6.83338">
        <ele>906.5</ele>
        <time>2026-05-15T13:46:44Z</time>
      </trkpt>
      <trkpt lat="43.71795" lon="6.83359">
        <ele>906.9</ele>
        <time>2026-05-15T13:46:45Z</time>
      </trkpt>
      <trkpt lat="43.71798" lon="6.8338">
        <ele>907.3</ele>
        <time>2026-05-15T13:46:46Z</time>
      </trkpt>
      <trkpt lat="43.71799" lon="6.83402">
        <ele>906.9</ele>
        <time>2026-05-15T13:46:47Z</time>
      </trkpt>
      <trkpt lat="43.718" lon="6.83424">
        <ele>906.8</ele>
        <time>2026-05-15T13:46:48Z</time>
      </trkpt>
      <trkpt lat="43.71801" lon="6.83446">
        <ele>907.1</ele>
        <time>2026-05-15T13:46:49Z</time>
      </trkpt>
      <trkpt lat="43.718" lon="6.83469">
        <ele>906.1</ele>
        <time>2026-05-15T13:46:50Z</time>
      </trkpt>
      <trkpt lat="43.718" lon="6.83492">
        <ele>905.1</ele>
        <time>2026-05-15T13:46:51Z</time>
      </trkpt>
      <trkpt lat="43.71798" lon="6.83516">
        <ele>903.9</ele>
        <time>2026-05-15T13:46:52Z</time>
      </trkpt>
      <trkpt lat="43.71796" lon="6.83539">
        <ele>903.3</ele>
        <time>2026-05-15T13:46:53Z</time>
      </trkpt>
      <trkpt lat="43.71794" lon="6.83562">
        <ele>903.2</ele>
        <time>2026-05-15T13:46:54Z</time>
      </trkpt>
      <trkpt lat="43.71792" lon="6.83583">
        <ele>903.1</ele>
        <time>2026-05-15T13:46:55Z</time>
      </trkpt>
      <trkpt lat="43.7179" lon="6.83605">
        <ele>903.2</ele>
        <time>2026-05-15T13:46:56Z</time>
      </trkpt>
      <trkpt lat="43.71786" lon="6.83626">
        <ele>903.4</ele>
        <time>2026-05-15T13:46:57Z</time>
      </trkpt>
      <trkpt lat="43.71781" lon="6.83647">
        <ele>904.2</ele>
        <time>2026-05-15T13:46:58Z</time>
      </trkpt>
      <trkpt lat="43.71773" lon="6.83666">
        <ele>904.5</ele>
        <time>2026-05-15T13:46:59Z</time>
      </trkpt>
      <trkpt lat="43.71757" lon="6.83681">
        <ele>902.6</ele>
        <time>2026-05-15T13:47:00Z</time>
      </trkpt>
      <trkpt lat="43.71745" lon="6.83697">
        <ele>902</ele>
        <time>2026-05-15T13:47:01Z</time>
      </trkpt>
      <trkpt lat="43.71733" lon="6.83715">
        <ele>901.8</ele>
        <time>2026-05-15T13:47:02Z</time>
      </trkpt>
      <trkpt lat="43.71723" lon="6.83733">
        <ele>901.8</ele>
        <time>2026-05-15T13:47:03Z</time>
      </trkpt>
      <trkpt lat="43.71714" lon="6.83752">
        <ele>901.1</ele>
        <time>2026-05-15T13:47:04Z</time>
      </trkpt>
      <trkpt lat="43.71706" lon="6.83773">
        <ele>901.7</ele>
        <time>2026-05-15T13:47:05Z</time>
      </trkpt>
      <trkpt lat="43.71699" lon="6.83796">
        <ele>901.9</ele>
        <time>2026-05-15T13:47:06Z</time>
      </trkpt>
      <trkpt lat="43.71694" lon="6.83819">
        <ele>901.8</ele>
        <time>2026-05-15T13:47:07Z</time>
      </trkpt>
      <trkpt lat="43.7169" lon="6.83843">
        <ele>901.6</ele>
        <time>2026-05-15T13:47:08Z</time>
      </trkpt>
      <trkpt lat="43.71685" lon="6.83867">
        <ele>900.6</ele>
        <time>2026-05-15T13:47:09Z</time>
      </trkpt>
      <trkpt lat="43.71682" lon="6.83891">
        <ele>900.4</ele>
        <time>2026-05-15T13:47:10Z</time>
      </trkpt>
      <trkpt lat="43.71677" lon="6.83914">
        <ele>899.1</ele>
        <time>2026-05-15T13:47:11Z</time>
      </trkpt>
      <trkpt lat="43.71673" lon="6.83937">
        <ele>897.9</ele>
        <time>2026-05-15T13:47:12Z</time>
      </trkpt>
      <trkpt lat="43.71669" lon="6.83959">
        <ele>896.7</ele>
        <time>2026-05-15T13:47:13Z</time>
      </trkpt>
      <trkpt lat="43.71665" lon="6.8398">
        <ele>895.7</ele>
        <time>2026-05-15T13:47:14Z</time>
      </trkpt>
      <trkpt lat="43.71662" lon="6.84002">
        <ele>895.8</ele>
        <time>2026-05-15T13:47:15Z</time>
      </trkpt>
      <trkpt lat="43.71659" lon="6.84024">
        <ele>895.9</ele>
        <time>2026-05-15T13:47:16Z</time>
      </trkpt>
      <trkpt lat="43.71658" lon="6.84045">
        <ele>895.6</ele>
        <time>2026-05-15T13:47:17Z</time>
      </trkpt>
      <trkpt lat="43.71659" lon="6.84067">
        <ele>895.4</ele>
        <time>2026-05-15T13:47:18Z</time>
      </trkpt>
      <trkpt lat="43.71662" lon="6.84088">
        <ele>895.3</ele>
        <time>2026-05-15T13:47:19Z</time>
      </trkpt>
      <trkpt lat="43.71666" lon="6.84108">
        <ele>895</ele>
        <time>2026-05-15T13:47:20Z</time>
      </trkpt>
      <trkpt lat="43.71673" lon="6.84128">
        <ele>894.9</ele>
        <time>2026-05-15T13:47:21Z</time>
      </trkpt>
      <trkpt lat="43.71679" lon="6.84149">
        <ele>894.3</ele>
        <time>2026-05-15T13:47:22Z</time>
      </trkpt>
      <trkpt lat="43.71685" lon="6.84171">
        <ele>894.2</ele>
        <time>2026-05-15T13:47:23Z</time>
      </trkpt>
      <trkpt lat="43.71689" lon="6.84194">
        <ele>894.3</ele>
        <time>2026-05-15T13:47:24Z</time>
      </trkpt>
      <trkpt lat="43.71693" lon="6.84217">
        <ele>893.8</ele>
        <time>2026-05-15T13:47:25Z</time>
      </trkpt>
      <trkpt lat="43.71697" lon="6.84239">
        <ele>893.6</ele>
        <time>2026-05-15T13:47:26Z</time>
      </trkpt>
      <trkpt lat="43.717" lon="6.84262">
        <ele>892.4</ele>
        <time>2026-05-15T13:47:27Z</time>
      </trkpt>
      <trkpt lat="43.71703" lon="6.84284">
        <ele>891.6</ele>
        <time>2026-05-15T13:47:28Z</time>
      </trkpt>
      <trkpt lat="43.71704" lon="6.84307">
        <ele>891.2</ele>
        <time>2026-05-15T13:47:29Z</time>
      </trkpt>
      <trkpt lat="43.71704" lon="6.8433">
        <ele>892.6</ele>
        <time>2026-05-15T13:47:30Z</time>
      </trkpt>
      <trkpt lat="43.71703" lon="6.84351">
        <ele>893.1</ele>
        <time>2026-05-15T13:47:31Z</time>
      </trkpt>
      <trkpt lat="43.71702" lon="6.84373">
        <ele>893.8</ele>
        <time>2026-05-15T13:47:32Z</time>
      </trkpt>
      <trkpt lat="43.717" lon="6.84395">
        <ele>894.2</ele>
        <time>2026-05-15T13:47:33Z</time>
      </trkpt>
      <trkpt lat="43.71696" lon="6.84418">
        <ele>893.9</ele>
        <time>2026-05-15T13:47:34Z</time>
      </trkpt>
      <trkpt lat="43.71692" lon="6.8444">
        <ele>893.6</ele>
        <time>2026-05-15T13:47:35Z</time>
      </trkpt>
      <trkpt lat="43.71689" lon="6.84462">
        <ele>893.9</ele>
        <time>2026-05-15T13:47:36Z</time>
      </trkpt>
      <trkpt lat="43.71685" lon="6.84485">
        <ele>894</ele>
        <time>2026-05-15T13:47:37Z</time>
      </trkpt>
      <trkpt lat="43.71681" lon="6.84507">
        <ele>893.7</ele>
        <time>2026-05-15T13:47:38Z</time>
      </trkpt>
      <trkpt lat="43.71677" lon="6.8453">
        <ele>892.8</ele>
        <time>2026-05-15T13:47:39Z</time>
      </trkpt>
      <trkpt lat="43.71673" lon="6.84552">
        <ele>891.4</ele>
        <time>2026-05-15T13:47:40Z</time>
      </trkpt>
      <trkpt lat="43.71669" lon="6.84575">
        <ele>890.1</ele>
        <time>2026-05-15T13:47:41Z</time>
      </trkpt>
      <trkpt lat="43.71666" lon="6.84598">
        <ele>889.1</ele>
        <time>2026-05-15T13:47:42Z</time>
      </trkpt>
      <trkpt lat="43.71664" lon="6.8462">
        <ele>888.3</ele>
        <time>2026-05-15T13:47:43Z</time>
      </trkpt>
      <trkpt lat="43.71664" lon="6.84643">
        <ele>888.1</ele>
        <time>2026-05-15T13:47:44Z</time>
      </trkpt>
      <trkpt lat="43.71666" lon="6.84666">
        <ele>887.7</ele>
        <time>2026-05-15T13:47:45Z</time>
      </trkpt>
      <trkpt lat="43.71669" lon="6.8469">
        <ele>886.9</ele>
        <time>2026-05-15T13:47:46Z</time>
      </trkpt>
      <trkpt lat="43.71673" lon="6.84714">
        <ele>888.7</ele>
        <time>2026-05-15T13:47:47Z</time>
      </trkpt>
      <trkpt lat="43.71678" lon="6.84738">
        <ele>890.7</ele>
        <time>2026-05-15T13:47:48Z</time>
      </trkpt>
      <trkpt lat="43.71682" lon="6.84762">
        <ele>890.5</ele>
        <time>2026-05-15T13:47:49Z</time>
      </trkpt>
      <trkpt lat="43.71686" lon="6.84785">
        <ele>889.2</ele>
        <time>2026-05-15T13:47:50Z</time>
      </trkpt>
      <trkpt lat="43.7169" lon="6.84809">
        <ele>887.7</ele>
        <time>2026-05-15T13:47:51Z</time>
      </trkpt>
      <trkpt lat="43.71694" lon="6.84832">
        <ele>886</ele>
        <time>2026-05-15T13:47:52Z</time>
      </trkpt>
      <trkpt lat="43.71697" lon="6.84855">
        <ele>884.9</ele>
        <time>2026-05-15T13:47:53Z</time>
      </trkpt>
      <trkpt lat="43.71701" lon="6.84878">
        <ele>884.6</ele>
        <time>2026-05-15T13:47:54Z</time>
      </trkpt>
      <trkpt lat="43.71705" lon="6.849">
        <ele>884.4</ele>
        <time>2026-05-15T13:47:55Z</time>
      </trkpt>
      <trkpt lat="43.71709" lon="6.84923">
        <ele>884.1</ele>
        <time>2026-05-15T13:47:56Z</time>
      </trkpt>
      <trkpt lat="43.71713" lon="6.84945">
        <ele>883.3</ele>
        <time>2026-05-15T13:47:57Z</time>
      </trkpt>
      <trkpt lat="43.71717" lon="6.84967">
        <ele>882.5</ele>
        <time>2026-05-15T13:47:58Z</time>
      </trkpt>
      <trkpt lat="43.71722" lon="6.84988">
        <ele>882.8</ele>
        <time>2026-05-15T13:47:59Z</time>
      </trkpt>
      <trkpt lat="43.71728" lon="6.85009">
        <ele>884.6</ele>
        <time>2026-05-15T13:48:00Z</time>
      </trkpt>
      <trkpt lat="43.71734" lon="6.85029">
        <ele>886.8</ele>
        <time>2026-05-15T13:48:01Z</time>
      </trkpt>
      <trkpt lat="43.71739" lon="6.85051">
        <ele>887.1</ele>
        <time>2026-05-15T13:48:02Z</time>
      </trkpt>
      <trkpt lat="43.71742" lon="6.85074">
        <ele>885.6</ele>
        <time>2026-05-15T13:48:03Z</time>
      </trkpt>
      <trkpt lat="43.71745" lon="6.85097">
        <ele>883.5</ele>
        <time>2026-05-15T13:48:04Z</time>
      </trkpt>
      <trkpt lat="43.71749" lon="6.8512">
        <ele>882.1</ele>
        <time>2026-05-15T13:48:05Z</time>
      </trkpt>
      <trkpt lat="43.71751" lon="6.85142">
        <ele>881.4</ele>
        <time>2026-05-15T13:48:06Z</time>
      </trkpt>
      <trkpt lat="43.71754" lon="6.85163">
        <ele>882.5</ele>
        <time>2026-05-15T13:48:07Z</time>
      </trkpt>
      <trkpt lat="43.71757" lon="6.85185">
        <ele>883.2</ele>
        <time>2026-05-15T13:48:08Z</time>
      </trkpt>
      <trkpt lat="43.7176" lon="6.85207">
        <ele>882.8</ele>
        <time>2026-05-15T13:48:09Z</time>
      </trkpt>
      <trkpt lat="43.71765" lon="6.85228">
        <ele>882.1</ele>
        <time>2026-05-15T13:48:10Z</time>
      </trkpt>
      <trkpt lat="43.7177" lon="6.85249">
        <ele>880.7</ele>
        <time>2026-05-15T13:48:11Z</time>
      </trkpt>
      <trkpt lat="43.71776" lon="6.85269">
        <ele>879.6</ele>
        <time>2026-05-15T13:48:12Z</time>
      </trkpt>
      <trkpt lat="43.71782" lon="6.8529">
        <ele>879.1</ele>
        <time>2026-05-15T13:48:13Z</time>
      </trkpt>
      <trkpt lat="43.71788" lon="6.85311">
        <ele>879.4</ele>
        <time>2026-05-15T13:48:14Z</time>
      </trkpt>
      <trkpt lat="43.71795" lon="6.85332">
        <ele>880.4</ele>
        <time>2026-05-15T13:48:15Z</time>
      </trkpt>
      <trkpt lat="43.71802" lon="6.85353">
        <ele>880.2</ele>
        <time>2026-05-15T13:48:16Z</time>
      </trkpt>
      <trkpt lat="43.71811" lon="6.85373">
        <ele>879.6</ele>
        <time>2026-05-15T13:48:17Z</time>
      </trkpt>
      <trkpt lat="43.71821" lon="6.85392">
        <ele>878.7</ele>
        <time>2026-05-15T13:48:18Z</time>
      </trkpt>
      <trkpt lat="43.71832" lon="6.85409">
        <ele>877.2</ele>
        <time>2026-05-15T13:48:19Z</time>
      </trkpt>
      <trkpt lat="43.71844" lon="6.85425">
        <ele>876.7</ele>
        <time>2026-05-15T13:48:20Z</time>
      </trkpt>
      <trkpt lat="43.71854" lon="6.85441">
        <ele>876.2</ele>
        <time>2026-05-15T13:48:21Z</time>
      </trkpt>
      <trkpt lat="43.71863" lon="6.8546">
        <ele>876.3</ele>
        <time>2026-05-15T13:48:22Z</time>
      </trkpt>
      <trkpt lat="43.71869" lon="6.85479">
        <ele>876.5</ele>
        <time>2026-05-15T13:48:23Z</time>
      </trkpt>
      <trkpt lat="43.71873" lon="6.85499">
        <ele>876.6</ele>
        <time>2026-05-15T13:48:24Z</time>
      </trkpt>
      <trkpt lat="43.71873" lon="6.85519">
        <ele>875.9</ele>
        <time>2026-05-15T13:48:25Z</time>
      </trkpt>
      <trkpt lat="43.71871" lon="6.8554">
        <ele>875</ele>
        <time>2026-05-15T13:48:26Z</time>
      </trkpt>
      <trkpt lat="43.71868" lon="6.8556">
        <ele>874.2</ele>
        <time>2026-05-15T13:48:27Z</time>
      </trkpt>
      <trkpt lat="43.71866" lon="6.85582">
        <ele>873.9</ele>
        <time>2026-05-15T13:48:28Z</time>
      </trkpt>
      <trkpt lat="43.71864" lon="6.85604">
        <ele>873.5</ele>
        <time>2026-05-15T13:48:29Z</time>
      </trkpt>
      <trkpt lat="43.71864" lon="6.85627">
        <ele>873.5</ele>
        <time>2026-05-15T13:48:30Z</time>
      </trkpt>
      <trkpt lat="43.71865" lon="6.85649">
        <ele>873.6</ele>
        <time>2026-05-15T13:48:31Z</time>
      </trkpt>
      <trkpt lat="43.71866" lon="6.85671">
        <ele>873.6</ele>
        <time>2026-05-15T13:48:32Z</time>
      </trkpt>
      <trkpt lat="43.71866" lon="6.85694">
        <ele>872.9</ele>
        <time>2026-05-15T13:48:33Z</time>
      </trkpt>
      <trkpt lat="43.71867" lon="6.85716">
        <ele>872.9</ele>
        <time>2026-05-15T13:48:34Z</time>
      </trkpt>
      <trkpt lat="43.71868" lon="6.85737">
        <ele>872.6</ele>
        <time>2026-05-15T13:48:35Z</time>
      </trkpt>
      <trkpt lat="43.71868" lon="6.85758">
        <ele>872.2</ele>
        <time>2026-05-15T13:48:36Z</time>
      </trkpt>
      <trkpt lat="43.71868" lon="6.85779">
        <ele>872</ele>
        <time>2026-05-15T13:48:37Z</time>
      </trkpt>
      <trkpt lat="43.71868" lon="6.85798">
        <ele>872</ele>
        <time>2026-05-15T13:48:38Z</time>
      </trkpt>
      <trkpt lat="43.7187" lon="6.85817">
        <ele>872.4</ele>
        <time>2026-05-15T13:48:39Z</time>
      </trkpt>
      <trkpt lat="43.71872" lon="6.85836">
        <ele>872.7</ele>
        <time>2026-05-15T13:48:40Z</time>
      </trkpt>
      <trkpt lat="43.71876" lon="6.85854">
        <ele>872.3</ele>
        <time>2026-05-15T13:48:41Z</time>
      </trkpt>
      <trkpt lat="43.71883" lon="6.8587">
        <ele>871.9</ele>
        <time>2026-05-15T13:48:42Z</time>
      </trkpt>
      <trkpt lat="43.71891" lon="6.85884">
        <ele>871.5</ele>
        <time>2026-05-15T13:48:43Z</time>
      </trkpt>
      <trkpt lat="43.71902" lon="6.85897">
        <ele>871.1</ele>
        <time>2026-05-15T13:48:44Z</time>
      </trkpt>
      <trkpt lat="43.71913" lon="6.8591">
        <ele>870.5</ele>
        <time>2026-05-15T13:48:45Z</time>
      </trkpt>
      <trkpt lat="43.71923" lon="6.85924">
        <ele>870.1</ele>
        <time>2026-05-15T13:48:46Z</time>
      </trkpt>
      <trkpt lat="43.71932" lon="6.85939">
        <ele>869.8</ele>
        <time>2026-05-15T13:48:47Z</time>
      </trkpt>
      <trkpt lat="43.71941" lon="6.85954">
        <ele>869.1</ele>
        <time>2026-05-15T13:48:48Z</time>
      </trkpt>
      <trkpt lat="43.71949" lon="6.8597">
        <ele>868.1</ele>
        <time>2026-05-15T13:48:49Z</time>
      </trkpt>
      <trkpt lat="43.71957" lon="6.85985">
        <ele>868.1</ele>
        <time>2026-05-15T13:48:50Z</time>
      </trkpt>
      <trkpt lat="43.71963" lon="6.86">
        <ele>867.7</ele>
        <time>2026-05-15T13:48:51Z</time>
      </trkpt>
      <trkpt lat="43.71965" lon="6.86014">
        <ele>867</ele>
        <time>2026-05-15T13:48:52Z</time>
      </trkpt>
      <trkpt lat="43.71964" lon="6.86029">
        <ele>865.7</ele>
        <time>2026-05-15T13:48:53Z</time>
      </trkpt>
      <trkpt lat="43.71962" lon="6.86043">
        <ele>864.6</ele>
        <time>2026-05-15T13:48:54Z</time>
      </trkpt>
      <trkpt lat="43.71951" lon="6.8605">
        <ele>863</ele>
        <time>2026-05-15T13:48:55Z</time>
      </trkpt>
      <trkpt lat="43.7194" lon="6.86058">
        <ele>862.6</ele>
        <time>2026-05-15T13:48:56Z</time>
      </trkpt>
      <trkpt lat="43.71928" lon="6.86063">
        <ele>864.4</ele>
        <time>2026-05-15T13:48:57Z</time>
      </trkpt>
      <trkpt lat="43.71915" lon="6.86064">
        <ele>865.5</ele>
        <time>2026-05-15T13:48:58Z</time>
      </trkpt>
      <trkpt lat="43.71902" lon="6.86062">
        <ele>865.8</ele>
        <time>2026-05-15T13:48:59Z</time>
      </trkpt>
      <trkpt lat="43.71888" lon="6.86061">
        <ele>866.4</ele>
        <time>2026-05-15T13:49:00Z</time>
      </trkpt>
      <trkpt lat="43.71873" lon="6.86062">
        <ele>867.1</ele>
        <time>2026-05-15T13:49:01Z</time>
      </trkpt>
      <trkpt lat="43.71857" lon="6.86067">
        <ele>868.4</ele>
        <time>2026-05-15T13:49:02Z</time>
      </trkpt>
      <trkpt lat="43.71843" lon="6.86074">
        <ele>869.6</ele>
        <time>2026-05-15T13:49:03Z</time>
      </trkpt>
      <trkpt lat="43.71828" lon="6.86081">
        <ele>870.4</ele>
        <time>2026-05-15T13:49:04Z</time>
      </trkpt>
      <trkpt lat="43.71814" lon="6.8609">
        <ele>871.5</ele>
        <time>2026-05-15T13:49:05Z</time>
      </trkpt>
      <trkpt lat="43.718" lon="6.86098">
        <ele>872.6</ele>
        <time>2026-05-15T13:49:06Z</time>
      </trkpt>
      <trkpt lat="43.71786" lon="6.86104">
        <ele>873.7</ele>
        <time>2026-05-15T13:49:07Z</time>
      </trkpt>
      <trkpt lat="43.7177" lon="6.86106">
        <ele>874.4</ele>
        <time>2026-05-15T13:49:08Z</time>
      </trkpt>
      <trkpt lat="43.71755" lon="6.86104">
        <ele>874.5</ele>
        <time>2026-05-15T13:49:09Z</time>
      </trkpt>
      <trkpt lat="43.7174" lon="6.861">
        <ele>875.1</ele>
        <time>2026-05-15T13:49:10Z</time>
      </trkpt>
      <trkpt lat="43.71725" lon="6.86094">
        <ele>875.6</ele>
        <time>2026-05-15T13:49:11Z</time>
      </trkpt>
      <trkpt lat="43.7171" lon="6.86088">
        <ele>876.6</ele>
        <time>2026-05-15T13:49:12Z</time>
      </trkpt>
      <trkpt lat="43.71695" lon="6.8608">
        <ele>877.4</ele>
        <time>2026-05-15T13:49:13Z</time>
      </trkpt>
      <trkpt lat="43.71682" lon="6.86069">
        <ele>878.2</ele>
        <time>2026-05-15T13:49:14Z</time>
      </trkpt>
      <trkpt lat="43.7167" lon="6.86055">
        <ele>878.3</ele>
        <time>2026-05-15T13:49:15Z</time>
      </trkpt>
      <trkpt lat="43.71659" lon="6.8604">
        <ele>879.3</ele>
        <time>2026-05-15T13:49:16Z</time>
      </trkpt>
      <trkpt lat="43.71649" lon="6.86024">
        <ele>880</ele>
        <time>2026-05-15T13:49:17Z</time>
      </trkpt>
      <trkpt lat="43.71639" lon="6.86007">
        <ele>880.7</ele>
        <time>2026-05-15T13:49:18Z</time>
      </trkpt>
      <trkpt lat="43.71631" lon="6.85988">
        <ele>882</ele>
        <time>2026-05-15T13:49:19Z</time>
      </trkpt>
      <trkpt lat="43.71625" lon="6.85968">
        <ele>882.7</ele>
        <time>2026-05-15T13:49:20Z</time>
      </trkpt>
      <trkpt lat="43.71621" lon="6.85947">
        <ele>882.6</ele>
        <time>2026-05-15T13:49:21Z</time>
      </trkpt>
      <trkpt lat="43.71617" lon="6.85925">
        <ele>883.2</ele>
        <time>2026-05-15T13:49:22Z</time>
      </trkpt>
      <trkpt lat="43.71615" lon="6.85902">
        <ele>883.1</ele>
        <time>2026-05-15T13:49:23Z</time>
      </trkpt>
      <trkpt lat="43.71613" lon="6.85879">
        <ele>883.3</ele>
        <time>2026-05-15T13:49:24Z</time>
      </trkpt>
      <trkpt lat="43.71611" lon="6.85857">
        <ele>884.2</ele>
        <time>2026-05-15T13:49:25Z</time>
      </trkpt>
      <trkpt lat="43.7161" lon="6.85834">
        <ele>885.6</ele>
        <time>2026-05-15T13:49:26Z</time>
      </trkpt>
      <trkpt lat="43.7161" lon="6.85811">
        <ele>887.2</ele>
        <time>2026-05-15T13:49:27Z</time>
      </trkpt>
      <trkpt lat="43.71609" lon="6.85791">
        <ele>888.7</ele>
        <time>2026-05-15T13:49:28Z</time>
      </trkpt>
      <trkpt lat="43.71608" lon="6.85771">
        <ele>889.7</ele>
        <time>2026-05-15T13:49:29Z</time>
      </trkpt>
      <trkpt lat="43.71606" lon="6.85751">
        <ele>890.6</ele>
        <time>2026-05-15T13:49:30Z</time>
      </trkpt>
      <trkpt lat="43.71602" lon="6.85732">
        <ele>891.1</ele>
        <time>2026-05-15T13:49:31Z</time>
      </trkpt>
      <trkpt lat="43.71597" lon="6.85713">
        <ele>891.4</ele>
        <time>2026-05-15T13:49:32Z</time>
      </trkpt>
      <trkpt lat="43.71589" lon="6.85696">
        <ele>892.8</ele>
        <time>2026-05-15T13:49:33Z</time>
      </trkpt>
      <trkpt lat="43.71581" lon="6.85679">
        <ele>893.9</ele>
        <time>2026-05-15T13:49:34Z</time>
      </trkpt>
      <trkpt lat="43.7157" lon="6.85662">
        <ele>895.8</ele>
        <time>2026-05-15T13:49:35Z</time>
      </trkpt>
      <trkpt lat="43.7156" lon="6.85645">
        <ele>896.5</ele>
        <time>2026-05-15T13:49:36Z</time>
      </trkpt>
      <trkpt lat="43.71549" lon="6.85627">
        <ele>898.4</ele>
        <time>2026-05-15T13:49:37Z</time>
      </trkpt>
      <trkpt lat="43.71539" lon="6.85609">
        <ele>900.4</ele>
        <time>2026-05-15T13:49:38Z</time>
      </trkpt>
      <trkpt lat="43.7153" lon="6.85589">
        <ele>901.8</ele>
        <time>2026-05-15T13:49:39Z</time>
      </trkpt>
      <trkpt lat="43.71521" lon="6.85569">
        <ele>903.5</ele>
        <time>2026-05-15T13:49:40Z</time>
      </trkpt>
      <trkpt lat="43.71512" lon="6.85547">
        <ele>904.7</ele>
        <time>2026-05-15T13:49:41Z</time>
      </trkpt>
      <trkpt lat="43.71503" lon="6.85526">
        <ele>906.3</ele>
        <time>2026-05-15T13:49:42Z</time>
      </trkpt>
      <trkpt lat="43.71497" lon="6.85503">
        <ele>907.1</ele>
        <time>2026-05-15T13:49:43Z</time>
      </trkpt>
      <trkpt lat="43.71491" lon="6.8548">
        <ele>907.5</ele>
        <time>2026-05-15T13:49:44Z</time>
      </trkpt>
      <trkpt lat="43.71484" lon="6.85458">
        <ele>909.8</ele>
        <time>2026-05-15T13:49:45Z</time>
      </trkpt>
      <trkpt lat="43.7148" lon="6.85434">
        <ele>910.6</ele>
        <time>2026-05-15T13:49:46Z</time>
      </trkpt>
      <trkpt lat="43.71479" lon="6.8541">
        <ele>910.1</ele>
        <time>2026-05-15T13:49:47Z</time>
      </trkpt>
      <trkpt lat="43.71478" lon="6.85385">
        <ele>910.8</ele>
        <time>2026-05-15T13:49:48Z</time>
      </trkpt>
      <trkpt lat="43.71479" lon="6.85361">
        <ele>911.1</ele>
        <time>2026-05-15T13:49:49Z</time>
      </trkpt>
      <trkpt lat="43.7148" lon="6.85337">
        <ele>912</ele>
        <time>2026-05-15T13:49:50Z</time>
      </trkpt>
      <trkpt lat="43.7148" lon="6.85313">
        <ele>913.5</ele>
        <time>2026-05-15T13:49:51Z</time>
      </trkpt>
      <trkpt lat="43.71481" lon="6.8529">
        <ele>913.5</ele>
        <time>2026-05-15T13:49:52Z</time>
      </trkpt>
      <trkpt lat="43.7148" lon="6.85266">
        <ele>913.9</ele>
        <time>2026-05-15T13:49:53Z</time>
      </trkpt>
      <trkpt lat="43.71478" lon="6.85243">
        <ele>914.4</ele>
        <time>2026-05-15T13:49:54Z</time>
      </trkpt>
      <trkpt lat="43.71476" lon="6.85221">
        <ele>914.6</ele>
        <time>2026-05-15T13:49:55Z</time>
      </trkpt>
      <trkpt lat="43.71471" lon="6.852">
        <ele>915.3</ele>
        <time>2026-05-15T13:49:56Z</time>
      </trkpt>
      <trkpt lat="43.71467" lon="6.85182">
        <ele>915.2</ele>
        <time>2026-05-15T13:49:57Z</time>
      </trkpt>
      <trkpt lat="43.71462" lon="6.85164">
        <ele>915.5</ele>
        <time>2026-05-15T13:49:58Z</time>
      </trkpt>
      <trkpt lat="43.71457" lon="6.85148">
        <ele>915.7</ele>
        <time>2026-05-15T13:49:59Z</time>
      </trkpt>
      <trkpt lat="43.71452" lon="6.85133">
        <ele>916.2</ele>
        <time>2026-05-15T13:50:00Z</time>
      </trkpt>
      <trkpt lat="43.71447" lon="6.85119">
        <ele>916.9</ele>
        <time>2026-05-15T13:50:01Z</time>
      </trkpt>
      <trkpt lat="43.71443" lon="6.85106">
        <ele>917</ele>
        <time>2026-05-15T13:50:02Z</time>
      </trkpt>
      <trkpt lat="43.71439" lon="6.85095">
        <ele>917.4</ele>
        <time>2026-05-15T13:50:03Z</time>
      </trkpt>
      <trkpt lat="43.71435" lon="6.85083">
        <ele>917.4</ele>
        <time>2026-05-15T13:50:04Z</time>
      </trkpt>
      <trkpt lat="43.7143" lon="6.85072">
        <ele>917.7</ele>
        <time>2026-05-15T13:50:05Z</time>
      </trkpt>
      <trkpt lat="43.71424" lon="6.8506">
        <ele>918</ele>
        <time>2026-05-15T13:50:06Z</time>
      </trkpt>
      <trkpt lat="43.71418" lon="6.85049">
        <ele>918.1</ele>
        <time>2026-05-15T13:50:07Z</time>
      </trkpt>
      <trkpt lat="43.71409" lon="6.85038">
        <ele>919.1</ele>
        <time>2026-05-15T13:50:08Z</time>
      </trkpt>
      <trkpt lat="43.71399" lon="6.8503">
        <ele>920.4</ele>
        <time>2026-05-15T13:50:09Z</time>
      </trkpt>
      <trkpt lat="43.71388" lon="6.85022">
        <ele>922.2</ele>
        <time>2026-05-15T13:50:10Z</time>
      </trkpt>
      <trkpt lat="43.71376" lon="6.85013">
        <ele>925.8</ele>
        <time>2026-05-15T13:50:11Z</time>
      </trkpt>
      <trkpt lat="43.71365" lon="6.85">
        <ele>926.5</ele>
        <time>2026-05-15T13:50:12Z</time>
      </trkpt>
      <trkpt lat="43.71356" lon="6.84985">
        <ele>927.5</ele>
        <time>2026-05-15T13:50:13Z</time>
      </trkpt>
      <trkpt lat="43.71347" lon="6.84969">
        <ele>927.3</ele>
        <time>2026-05-15T13:50:14Z</time>
      </trkpt>
      <trkpt lat="43.71338" lon="6.84954">
        <ele>927</ele>
        <time>2026-05-15T13:50:15Z</time>
      </trkpt>
      <trkpt lat="43.71327" lon="6.84942">
        <ele>928.9</ele>
        <time>2026-05-15T13:50:16Z</time>
      </trkpt>
      <trkpt lat="43.71316" lon="6.84931">
        <ele>930.4</ele>
        <time>2026-05-15T13:50:17Z</time>
      </trkpt>
      <trkpt lat="43.71304" lon="6.84921">
        <ele>930</ele>
        <time>2026-05-15T13:50:18Z</time>
      </trkpt>
      <trkpt lat="43.71291" lon="6.84913">
        <ele>931.9</ele>
        <time>2026-05-15T13:50:19Z</time>
      </trkpt>
      <trkpt lat="43.71279" lon="6.84906">
        <ele>933.6</ele>
        <time>2026-05-15T13:50:20Z</time>
      </trkpt>
      <trkpt lat="43.71268" lon="6.84899">
        <ele>935.7</ele>
        <time>2026-05-15T13:50:21Z</time>
      </trkpt>
      <trkpt lat="43.71258" lon="6.84889">
        <ele>936</ele>
        <time>2026-05-15T13:50:22Z</time>
      </trkpt>
      <trkpt lat="43.71248" lon="6.84877">
        <ele>937.6</ele>
        <time>2026-05-15T13:50:23Z</time>
      </trkpt>
      <trkpt lat="43.71239" lon="6.84865">
        <ele>939.8</ele>
        <time>2026-05-15T13:50:24Z</time>
      </trkpt>
      <trkpt lat="43.7123" lon="6.84853">
        <ele>941.5</ele>
        <time>2026-05-15T13:50:25Z</time>
      </trkpt>
      <trkpt lat="43.71222" lon="6.8484">
        <ele>941</ele>
        <time>2026-05-15T13:50:26Z</time>
      </trkpt>
      <trkpt lat="43.71215" lon="6.84826">
        <ele>942.2</ele>
        <time>2026-05-15T13:50:27Z</time>
      </trkpt>
      <trkpt lat="43.71211" lon="6.84811">
        <ele>942.4</ele>
        <time>2026-05-15T13:50:28Z</time>
      </trkpt>
      <trkpt lat="43.71207" lon="6.84795">
        <ele>942.9</ele>
        <time>2026-05-15T13:50:29Z</time>
      </trkpt>
      <trkpt lat="43.71203" lon="6.84779">
        <ele>943.8</ele>
        <time>2026-05-15T13:50:30Z</time>
      </trkpt>
      <trkpt lat="43.71199" lon="6.84763">
        <ele>944</ele>
        <time>2026-05-15T13:50:31Z</time>
      </trkpt>
      <trkpt lat="43.71195" lon="6.84747">
        <ele>944.1</ele>
        <time>2026-05-15T13:50:32Z</time>
      </trkpt>
      <trkpt lat="43.71191" lon="6.8473">
        <ele>945.3</ele>
        <time>2026-05-15T13:50:33Z</time>
      </trkpt>
      <trkpt lat="43.71188" lon="6.84713">
        <ele>945.8</ele>
        <time>2026-05-15T13:50:34Z</time>
      </trkpt>
      <trkpt lat="43.71184" lon="6.84695">
        <ele>947.2</ele>
        <time>2026-05-15T13:50:35Z</time>
      </trkpt>
      <trkpt lat="43.71181" lon="6.84677">
        <ele>947.6</ele>
        <time>2026-05-15T13:50:36Z</time>
      </trkpt>
      <trkpt lat="43.71177" lon="6.84659">
        <ele>948.8</ele>
        <time>2026-05-15T13:50:37Z</time>
      </trkpt>
      <trkpt lat="43.71173" lon="6.8464">
        <ele>949.5</ele>
        <time>2026-05-15T13:50:38Z</time>
      </trkpt>
      <trkpt lat="43.7117" lon="6.84621">
        <ele>949.6</ele>
        <time>2026-05-15T13:50:39Z</time>
      </trkpt>
      <trkpt lat="43.71168" lon="6.84601">
        <ele>948.5</ele>
        <time>2026-05-15T13:50:40Z</time>
      </trkpt>
      <trkpt lat="43.71165" lon="6.84581">
        <ele>948.3</ele>
        <time>2026-05-15T13:50:41Z</time>
      </trkpt>
      <trkpt lat="43.71164" lon="6.84561">
        <ele>949.1</ele>
        <time>2026-05-15T13:50:42Z</time>
      </trkpt>
      <trkpt lat="43.71162" lon="6.8454">
        <ele>950.2</ele>
        <time>2026-05-15T13:50:43Z</time>
      </trkpt>
      <trkpt lat="43.71161" lon="6.8452">
        <ele>950.9</ele>
        <time>2026-05-15T13:50:44Z</time>
      </trkpt>
      <trkpt lat="43.7116" lon="6.84499">
        <ele>952</ele>
        <time>2026-05-15T13:50:45Z</time>
      </trkpt>
      <trkpt lat="43.71159" lon="6.84479">
        <ele>952.8</ele>
        <time>2026-05-15T13:50:46Z</time>
      </trkpt>
      <trkpt lat="43.71157" lon="6.8446">
        <ele>953.9</ele>
        <time>2026-05-15T13:50:47Z</time>
      </trkpt>
      <trkpt lat="43.71155" lon="6.84441">
        <ele>954.5</ele>
        <time>2026-05-15T13:50:48Z</time>
      </trkpt>
      <trkpt lat="43.71152" lon="6.84421">
        <ele>955</ele>
        <time>2026-05-15T13:50:49Z</time>
      </trkpt>
      <trkpt lat="43.7115" lon="6.84401">
        <ele>955.4</ele>
        <time>2026-05-15T13:50:50Z</time>
      </trkpt>
      <trkpt lat="43.71148" lon="6.84381">
        <ele>956.3</ele>
        <time>2026-05-15T13:50:51Z</time>
      </trkpt>
      <trkpt lat="43.71146" lon="6.84361">
        <ele>957.4</ele>
        <time>2026-05-15T13:50:52Z</time>
      </trkpt>
      <trkpt lat="43.71145" lon="6.84341">
        <ele>957.5</ele>
        <time>2026-05-15T13:50:53Z</time>
      </trkpt>
      <trkpt lat="43.71144" lon="6.84321">
        <ele>958.5</ele>
        <time>2026-05-15T13:50:54Z</time>
      </trkpt>
      <trkpt lat="43.71143" lon="6.843">
        <ele>960.2</ele>
        <time>2026-05-15T13:50:55Z</time>
      </trkpt>
      <trkpt lat="43.71143" lon="6.8428">
        <ele>961.6</ele>
        <time>2026-05-15T13:50:56Z</time>
      </trkpt>
      <trkpt lat="43.71143" lon="6.8426">
        <ele>962.5</ele>
        <time>2026-05-15T13:50:57Z</time>
      </trkpt>
      <trkpt lat="43.71144" lon="6.8424">
        <ele>963.1</ele>
        <time>2026-05-15T13:50:58Z</time>
      </trkpt>
      <trkpt lat="43.71145" lon="6.84219">
        <ele>964.2</ele>
        <time>2026-05-15T13:50:59Z</time>
      </trkpt>
      <trkpt lat="43.71146" lon="6.84199">
        <ele>965.7</ele>
        <time>2026-05-15T13:51:00Z</time>
      </trkpt>
      <trkpt lat="43.71147" lon="6.84178">
        <ele>966</ele>
        <time>2026-05-15T13:51:01Z</time>
      </trkpt>
      <trkpt lat="43.71148" lon="6.84157">
        <ele>966.2</ele>
        <time>2026-05-15T13:51:02Z</time>
      </trkpt>
      <trkpt lat="43.71149" lon="6.84136">
        <ele>966.6</ele>
        <time>2026-05-15T13:51:03Z</time>
      </trkpt>
      <trkpt lat="43.7115" lon="6.84115">
        <ele>966.7</ele>
        <time>2026-05-15T13:51:04Z</time>
      </trkpt>
      <trkpt lat="43.7115" lon="6.84093">
        <ele>968</ele>
        <time>2026-05-15T13:51:05Z</time>
      </trkpt>
      <trkpt lat="43.7115" lon="6.84071">
        <ele>969.4</ele>
        <time>2026-05-15T13:51:06Z</time>
      </trkpt>
      <trkpt lat="43.71149" lon="6.84049">
        <ele>971.4</ele>
        <time>2026-05-15T13:51:07Z</time>
      </trkpt>
      <trkpt lat="43.71149" lon="6.84027">
        <ele>972.5</ele>
        <time>2026-05-15T13:51:08Z</time>
      </trkpt>
      <trkpt lat="43.71148" lon="6.84006">
        <ele>974.1</ele>
        <time>2026-05-15T13:51:09Z</time>
      </trkpt>
      <trkpt lat="43.71147" lon="6.83986">
        <ele>975.4</ele>
        <time>2026-05-15T13:51:10Z</time>
      </trkpt>
      <trkpt lat="43.71146" lon="6.83966">
        <ele>976.1</ele>
        <time>2026-05-15T13:51:11Z</time>
      </trkpt>
      <trkpt lat="43.71145" lon="6.83947">
        <ele>975.6</ele>
        <time>2026-05-15T13:51:12Z</time>
      </trkpt>
      <trkpt lat="43.71145" lon="6.83927">
        <ele>974.6</ele>
        <time>2026-05-15T13:51:13Z</time>
      </trkpt>
      <trkpt lat="43.71143" lon="6.83908">
        <ele>974.5</ele>
        <time>2026-05-15T13:51:14Z</time>
      </trkpt>
      <trkpt lat="43.71143" lon="6.83888">
        <ele>973.4</ele>
        <time>2026-05-15T13:51:15Z</time>
      </trkpt>
      <trkpt lat="43.71142" lon="6.83868">
        <ele>973.8</ele>
        <time>2026-05-15T13:51:16Z</time>
      </trkpt>
      <trkpt lat="43.71141" lon="6.83848">
        <ele>974.2</ele>
        <time>2026-05-15T13:51:17Z</time>
      </trkpt>
      <trkpt lat="43.7114" lon="6.83828">
        <ele>974.8</ele>
        <time>2026-05-15T13:51:18Z</time>
      </trkpt>
      <trkpt lat="43.7114" lon="6.83808">
        <ele>975.5</ele>
        <time>2026-05-15T13:51:19Z</time>
      </trkpt>
      <trkpt lat="43.71139" lon="6.83789">
        <ele>976</ele>
        <time>2026-05-15T13:51:20Z</time>
      </trkpt>
      <trkpt lat="43.71138" lon="6.8377">
        <ele>976.2</ele>
        <time>2026-05-15T13:51:21Z</time>
      </trkpt>
      <trkpt lat="43.71137" lon="6.83752">
        <ele>976.2</ele>
        <time>2026-05-15T13:51:22Z</time>
      </trkpt>
      <trkpt lat="43.71134" lon="6.83734">
        <ele>976.1</ele>
        <time>2026-05-15T13:51:23Z</time>
      </trkpt>
      <trkpt lat="43.71129" lon="6.83716">
        <ele>976.4</ele>
        <time>2026-05-15T13:51:24Z</time>
      </trkpt>
      <trkpt lat="43.71124" lon="6.837">
        <ele>977.6</ele>
        <time>2026-05-15T13:51:25Z</time>
      </trkpt>
      <trkpt lat="43.71118" lon="6.83684">
        <ele>979.4</ele>
        <time>2026-05-15T13:51:26Z</time>
      </trkpt>
      <trkpt lat="43.71113" lon="6.83669">
        <ele>980.6</ele>
        <time>2026-05-15T13:51:27Z</time>
      </trkpt>
      <trkpt lat="43.71108" lon="6.83653">
        <ele>980.3</ele>
        <time>2026-05-15T13:51:28Z</time>
      </trkpt>
      <trkpt lat="43.71103" lon="6.83637">
        <ele>979.5</ele>
        <time>2026-05-15T13:51:29Z</time>
      </trkpt>
      <trkpt lat="43.71097" lon="6.8362">
        <ele>980.3</ele>
        <time>2026-05-15T13:51:30Z</time>
      </trkpt>
      <trkpt lat="43.71091" lon="6.83603">
        <ele>980.7</ele>
        <time>2026-05-15T13:51:31Z</time>
      </trkpt>
      <trkpt lat="43.71084" lon="6.83588">
        <ele>980.6</ele>
        <time>2026-05-15T13:51:32Z</time>
      </trkpt>
      <trkpt lat="43.71075" lon="6.83572">
        <ele>980.2</ele>
        <time>2026-05-15T13:51:33Z</time>
      </trkpt>
      <trkpt lat="43.71064" lon="6.83558">
        <ele>978.2</ele>
        <time>2026-05-15T13:51:34Z</time>
      </trkpt>
      <trkpt lat="43.71053" lon="6.83544">
        <ele>976.6</ele>
        <time>2026-05-15T13:51:35Z</time>
      </trkpt>
      <trkpt lat="43.71043" lon="6.83531">
        <ele>975.8</ele>
        <time>2026-05-15T13:51:36Z</time>
      </trkpt>
      <trkpt lat="43.71034" lon="6.83516">
        <ele>975</ele>
        <time>2026-05-15T13:51:37Z</time>
      </trkpt>
      <trkpt lat="43.71026" lon="6.835">
        <ele>974.1</ele>
        <time>2026-05-15T13:51:38Z</time>
      </trkpt>
      <trkpt lat="43.71019" lon="6.83483">
        <ele>972.6</ele>
        <time>2026-05-15T13:51:39Z</time>
      </trkpt>
      <trkpt lat="43.71012" lon="6.83466">
        <ele>971.3</ele>
        <time>2026-05-15T13:51:40Z</time>
      </trkpt>
      <trkpt lat="43.71006" lon="6.83448">
        <ele>970.4</ele>
        <time>2026-05-15T13:51:41Z</time>
      </trkpt>
      <trkpt lat="43.71" lon="6.83431">
        <ele>970.4</ele>
        <time>2026-05-15T13:51:42Z</time>
      </trkpt>
      <trkpt lat="43.70994" lon="6.83414">
        <ele>970.6</ele>
        <time>2026-05-15T13:51:43Z</time>
      </trkpt>
      <trkpt lat="43.70988" lon="6.83396">
        <ele>970.4</ele>
        <time>2026-05-15T13:51:44Z</time>
      </trkpt>
      <trkpt lat="43.70982" lon="6.8338">
        <ele>969.6</ele>
        <time>2026-05-15T13:51:45Z</time>
      </trkpt>
      <trkpt lat="43.70977" lon="6.83363">
        <ele>969.2</ele>
        <time>2026-05-15T13:51:46Z</time>
      </trkpt>
      <trkpt lat="43.70972" lon="6.83346">
        <ele>968</ele>
        <time>2026-05-15T13:51:47Z</time>
      </trkpt>
      <trkpt lat="43.70968" lon="6.83329">
        <ele>967.3</ele>
        <time>2026-05-15T13:51:48Z</time>
      </trkpt>
      <trkpt lat="43.70964" lon="6.83313">
        <ele>966.8</ele>
        <time>2026-05-15T13:51:49Z</time>
      </trkpt>
      <trkpt lat="43.70959" lon="6.83297">
        <ele>965.6</ele>
        <time>2026-05-15T13:51:50Z</time>
      </trkpt>
      <trkpt lat="43.70954" lon="6.8328">
        <ele>964.3</ele>
        <time>2026-05-15T13:51:51Z</time>
      </trkpt>
      <trkpt lat="43.70949" lon="6.83263">
        <ele>963.2</ele>
        <time>2026-05-15T13:51:52Z</time>
      </trkpt>
      <trkpt lat="43.70944" lon="6.83245">
        <ele>962.3</ele>
        <time>2026-05-15T13:51:53Z</time>
      </trkpt>
      <trkpt lat="43.70939" lon="6.83226">
        <ele>961.8</ele>
        <time>2026-05-15T13:51:54Z</time>
      </trkpt>
      <trkpt lat="43.70934" lon="6.83208">
        <ele>961.8</ele>
        <time>2026-05-15T13:51:55Z</time>
      </trkpt>
      <trkpt lat="43.70929" lon="6.83189">
        <ele>961.7</ele>
        <time>2026-05-15T13:51:56Z</time>
      </trkpt>
      <trkpt lat="43.70924" lon="6.8317">
        <ele>960.7</ele>
        <time>2026-05-15T13:51:57Z</time>
      </trkpt>
      <trkpt lat="43.70918" lon="6.8315">
        <ele>959.5</ele>
        <time>2026-05-15T13:51:58Z</time>
      </trkpt>
      <trkpt lat="43.70912" lon="6.83129">
        <ele>958.4</ele>
        <time>2026-05-15T13:51:59Z</time>
      </trkpt>
      <trkpt lat="43.70907" lon="6.83109">
        <ele>957.7</ele>
        <time>2026-05-15T13:52:00Z</time>
      </trkpt>
      <trkpt lat="43.70901" lon="6.83089">
        <ele>956.7</ele>
        <time>2026-05-15T13:52:01Z</time>
      </trkpt>
      <trkpt lat="43.70895" lon="6.83069">
        <ele>955.8</ele>
        <time>2026-05-15T13:52:02Z</time>
      </trkpt>
      <trkpt lat="43.70889" lon="6.8305">
        <ele>954.9</ele>
        <time>2026-05-15T13:52:03Z</time>
      </trkpt>
      <trkpt lat="43.70883" lon="6.83031">
        <ele>954.8</ele>
        <time>2026-05-15T13:52:04Z</time>
      </trkpt>
      <trkpt lat="43.70876" lon="6.83013">
        <ele>953.8</ele>
        <time>2026-05-15T13:52:05Z</time>
      </trkpt>
      <trkpt lat="43.70869" lon="6.82995">
        <ele>952.9</ele>
        <time>2026-05-15T13:52:06Z</time>
      </trkpt>
      <trkpt lat="43.70863" lon="6.82975">
        <ele>952.5</ele>
        <time>2026-05-15T13:52:07Z</time>
      </trkpt>
      <trkpt lat="43.70858" lon="6.82955">
        <ele>951.5</ele>
        <time>2026-05-15T13:52:08Z</time>
      </trkpt>
      <trkpt lat="43.70856" lon="6.82933">
        <ele>951.1</ele>
        <time>2026-05-15T13:52:09Z</time>
      </trkpt>
      <trkpt lat="43.70854" lon="6.82912">
        <ele>949.9</ele>
        <time>2026-05-15T13:52:10Z</time>
      </trkpt>
      <trkpt lat="43.70852" lon="6.8289">
        <ele>948.8</ele>
        <time>2026-05-15T13:52:11Z</time>
      </trkpt>
      <trkpt lat="43.7085" lon="6.82868">
        <ele>948.1</ele>
        <time>2026-05-15T13:52:12Z</time>
      </trkpt>
      <trkpt lat="43.70849" lon="6.82847">
        <ele>947.8</ele>
        <time>2026-05-15T13:52:13Z</time>
      </trkpt>
      <trkpt lat="43.70848" lon="6.82825">
        <ele>947.4</ele>
        <time>2026-05-15T13:52:14Z</time>
      </trkpt>
      <trkpt lat="43.70846" lon="6.82804">
        <ele>946.3</ele>
        <time>2026-05-15T13:52:15Z</time>
      </trkpt>
      <trkpt lat="43.70844" lon="6.82783">
        <ele>945.1</ele>
        <time>2026-05-15T13:52:16Z</time>
      </trkpt>
      <trkpt lat="43.70843" lon="6.82762">
        <ele>944.6</ele>
        <time>2026-05-15T13:52:17Z</time>
      </trkpt>
      <trkpt lat="43.70841" lon="6.8274">
        <ele>943.7</ele>
        <time>2026-05-15T13:52:18Z</time>
      </trkpt>
      <trkpt lat="43.70839" lon="6.82718">
        <ele>943.1</ele>
        <time>2026-05-15T13:52:19Z</time>
      </trkpt>
      <trkpt lat="43.70837" lon="6.82696">
        <ele>942.1</ele>
        <time>2026-05-15T13:52:20Z</time>
      </trkpt>
      <trkpt lat="43.70836" lon="6.82674">
        <ele>942.2</ele>
        <time>2026-05-15T13:52:21Z</time>
      </trkpt>
      <trkpt lat="43.70834" lon="6.82652">
        <ele>941.4</ele>
        <time>2026-05-15T13:52:22Z</time>
      </trkpt>
      <trkpt lat="43.70832" lon="6.8263">
        <ele>940.3</ele>
        <time>2026-05-15T13:52:23Z</time>
      </trkpt>
      <trkpt lat="43.7083" lon="6.82608">
        <ele>939.3</ele>
        <time>2026-05-15T13:52:24Z</time>
      </trkpt>
      <trkpt lat="43.70827" lon="6.82586">
        <ele>938</ele>
        <time>2026-05-15T13:52:25Z</time>
      </trkpt>
      <trkpt lat="43.70824" lon="6.82564">
        <ele>937.3</ele>
        <time>2026-05-15T13:52:26Z</time>
      </trkpt>
      <trkpt lat="43.7082" lon="6.82543">
        <ele>936.2</ele>
        <time>2026-05-15T13:52:27Z</time>
      </trkpt>
      <trkpt lat="43.70816" lon="6.82522">
        <ele>935.6</ele>
        <time>2026-05-15T13:52:28Z</time>
      </trkpt>
      <trkpt lat="43.70811" lon="6.825">
        <ele>935.2</ele>
        <time>2026-05-15T13:52:29Z</time>
      </trkpt>
      <trkpt lat="43.70806" lon="6.82478">
        <ele>934.8</ele>
        <time>2026-05-15T13:52:30Z</time>
      </trkpt>
      <trkpt lat="43.70801" lon="6.82456">
        <ele>933.8</ele>
        <time>2026-05-15T13:52:31Z</time>
      </trkpt>
      <trkpt lat="43.70796" lon="6.82434">
        <ele>932.6</ele>
        <time>2026-05-15T13:52:32Z</time>
      </trkpt>
      <trkpt lat="43.7079" lon="6.82411">
        <ele>931</ele>
        <time>2026-05-15T13:52:33Z</time>
      </trkpt>
      <trkpt lat="43.70784" lon="6.82388">
        <ele>929.5</ele>
        <time>2026-05-15T13:52:34Z</time>
      </trkpt>
      <trkpt lat="43.70778" lon="6.82366">
        <ele>928.7</ele>
        <time>2026-05-15T13:52:35Z</time>
      </trkpt>
      <trkpt lat="43.70772" lon="6.82344">
        <ele>928.1</ele>
        <time>2026-05-15T13:52:36Z</time>
      </trkpt>
      <trkpt lat="43.70766" lon="6.82323">
        <ele>927.7</ele>
        <time>2026-05-15T13:52:37Z</time>
      </trkpt>
      <trkpt lat="43.7076" lon="6.82302">
        <ele>927.2</ele>
        <time>2026-05-15T13:52:38Z</time>
      </trkpt>
      <trkpt lat="43.70753" lon="6.8228">
        <ele>926</ele>
        <time>2026-05-15T13:52:39Z</time>
      </trkpt>
      <trkpt lat="43.70746" lon="6.8226">
        <ele>925.3</ele>
        <time>2026-05-15T13:52:40Z</time>
      </trkpt>
      <trkpt lat="43.70737" lon="6.82239">
        <ele>924.2</ele>
        <time>2026-05-15T13:52:41Z</time>
      </trkpt>
      <trkpt lat="43.70728" lon="6.82221">
        <ele>923.3</ele>
        <time>2026-05-15T13:52:42Z</time>
      </trkpt>
      <trkpt lat="43.70718" lon="6.82203">
        <ele>922.4</ele>
        <time>2026-05-15T13:52:43Z</time>
      </trkpt>
      <trkpt lat="43.70707" lon="6.82186">
        <ele>921.3</ele>
        <time>2026-05-15T13:52:44Z</time>
      </trkpt>
      <trkpt lat="43.70697" lon="6.82168">
        <ele>920.6</ele>
        <time>2026-05-15T13:52:45Z</time>
      </trkpt>
      <trkpt lat="43.70687" lon="6.8215">
        <ele>919.7</ele>
        <time>2026-05-15T13:52:46Z</time>
      </trkpt>
      <trkpt lat="43.70679" lon="6.82131">
        <ele>919.3</ele>
        <time>2026-05-15T13:52:47Z</time>
      </trkpt>
      <trkpt lat="43.70671" lon="6.8211">
        <ele>918.6</ele>
        <time>2026-05-15T13:52:48Z</time>
      </trkpt>
      <trkpt lat="43.70665" lon="6.82089">
        <ele>918</ele>
        <time>2026-05-15T13:52:49Z</time>
      </trkpt>
      <trkpt lat="43.70658" lon="6.82067">
        <ele>917.1</ele>
        <time>2026-05-15T13:52:50Z</time>
      </trkpt>
      <trkpt lat="43.70651" lon="6.82046">
        <ele>916</ele>
        <time>2026-05-15T13:52:51Z</time>
      </trkpt>
      <trkpt lat="43.70645" lon="6.82026">
        <ele>915.3</ele>
        <time>2026-05-15T13:52:52Z</time>
      </trkpt>
      <trkpt lat="43.70639" lon="6.82005">
        <ele>914.7</ele>
        <time>2026-05-15T13:52:53Z</time>
      </trkpt>
      <trkpt lat="43.70632" lon="6.81983">
        <ele>914</ele>
        <time>2026-05-15T13:52:54Z</time>
      </trkpt>
      <trkpt lat="43.70625" lon="6.81963">
        <ele>913.2</ele>
        <time>2026-05-15T13:52:55Z</time>
      </trkpt>
      <trkpt lat="43.70618" lon="6.81942">
        <ele>912.4</ele>
        <time>2026-05-15T13:52:56Z</time>
      </trkpt>
      <trkpt lat="43.7061" lon="6.81922">
        <ele>911.3</ele>
        <time>2026-05-15T13:52:57Z</time>
      </trkpt>
      <trkpt lat="43.70601" lon="6.81902">
        <ele>910.3</ele>
        <time>2026-05-15T13:52:58Z</time>
      </trkpt>
      <trkpt lat="43.7059" lon="6.81885">
        <ele>909.1</ele>
        <time>2026-05-15T13:52:59Z</time>
      </trkpt>
      <trkpt lat="43.70578" lon="6.81869">
        <ele>908.1</ele>
        <time>2026-05-15T13:53:00Z</time>
      </trkpt>
      <trkpt lat="43.70564" lon="6.81856">
        <ele>907.1</ele>
        <time>2026-05-15T13:53:01Z</time>
      </trkpt>
      <trkpt lat="43.70548" lon="6.81847">
        <ele>905.6</ele>
        <time>2026-05-15T13:53:02Z</time>
      </trkpt>
      <trkpt lat="43.70532" lon="6.8184">
        <ele>904.5</ele>
        <time>2026-05-15T13:53:03Z</time>
      </trkpt>
      <trkpt lat="43.70515" lon="6.81836">
        <ele>903.7</ele>
        <time>2026-05-15T13:53:04Z</time>
      </trkpt>
      <trkpt lat="43.70498" lon="6.81832">
        <ele>903</ele>
        <time>2026-05-15T13:53:05Z</time>
      </trkpt>
      <trkpt lat="43.70482" lon="6.81828">
        <ele>902.3</ele>
        <time>2026-05-15T13:53:06Z</time>
      </trkpt>
      <trkpt lat="43.70467" lon="6.81822">
        <ele>901.5</ele>
        <time>2026-05-15T13:53:07Z</time>
      </trkpt>
      <trkpt lat="43.70453" lon="6.81811">
        <ele>900.6</ele>
        <time>2026-05-15T13:53:08Z</time>
      </trkpt>
      <trkpt lat="43.7044" lon="6.81797">
        <ele>900.1</ele>
        <time>2026-05-15T13:53:09Z</time>
      </trkpt>
      <trkpt lat="43.7043" lon="6.81782">
        <ele>899.5</ele>
        <time>2026-05-15T13:53:10Z</time>
      </trkpt>
      <trkpt lat="43.70421" lon="6.81764">
        <ele>898.4</ele>
        <time>2026-05-15T13:53:11Z</time>
      </trkpt>
      <trkpt lat="43.70414" lon="6.81746">
        <ele>897.6</ele>
        <time>2026-05-15T13:53:12Z</time>
      </trkpt>
      <trkpt lat="43.70407" lon="6.81727">
        <ele>896.7</ele>
        <time>2026-05-15T13:53:13Z</time>
      </trkpt>
      <trkpt lat="43.70401" lon="6.81708">
        <ele>895.9</ele>
        <time>2026-05-15T13:53:14Z</time>
      </trkpt>
      <trkpt lat="43.70395" lon="6.81689">
        <ele>895.3</ele>
        <time>2026-05-15T13:53:15Z</time>
      </trkpt>
      <trkpt lat="43.70389" lon="6.81672">
        <ele>894.8</ele>
        <time>2026-05-15T13:53:16Z</time>
      </trkpt>
      <trkpt lat="43.70384" lon="6.81658">
        <ele>894.2</ele>
        <time>2026-05-15T13:53:17Z</time>
      </trkpt>
      <trkpt lat="43.70379" lon="6.81646">
        <ele>893.7</ele>
        <time>2026-05-15T13:53:18Z</time>
      </trkpt>
      <trkpt lat="43.70373" lon="6.81633">
        <ele>893.4</ele>
        <time>2026-05-15T13:53:19Z</time>
      </trkpt>
      <trkpt lat="43.70368" lon="6.81621">
        <ele>892.9</ele>
        <time>2026-05-15T13:53:20Z</time>
      </trkpt>
      <trkpt lat="43.70363" lon="6.81609">
        <ele>892.3</ele>
        <time>2026-05-15T13:53:21Z</time>
      </trkpt>
      <trkpt lat="43.70359" lon="6.81599">
        <ele>892.2</ele>
        <time>2026-05-15T13:53:22Z</time>
      </trkpt>
      <trkpt lat="43.70357" lon="6.81589">
        <ele>892.4</ele>
        <time>2026-05-15T13:53:23Z</time>
      </trkpt>
      <trkpt lat="43.70356" lon="6.8158">
        <ele>892.7</ele>
        <time>2026-05-15T13:53:24Z</time>
      </trkpt>
      <trkpt lat="43.70355" lon="6.81572">
        <ele>892.6</ele>
        <time>2026-05-15T13:53:25Z</time>
      </trkpt>
      <trkpt lat="43.70354" lon="6.81565">
        <ele>892.7</ele>
        <time>2026-05-15T13:53:26Z</time>
      </trkpt>
      <trkpt lat="43.70354" lon="6.81559">
        <ele>892.7</ele>
        <time>2026-05-15T13:53:27Z</time>
      </trkpt>
      <trkpt lat="43.70353" lon="6.81555">
        <ele>892.7</ele>
        <time>2026-05-15T13:53:28Z</time>
      </trkpt>
      <trkpt lat="43.70353" lon="6.81552">
        <ele>892.6</ele>
        <time>2026-05-15T13:53:29Z</time>
      </trkpt>
      <trkpt lat="43.70352" lon="6.81549">
        <ele>892.5</ele>
        <time>2026-05-15T13:53:30Z</time>
      </trkpt>
      <trkpt lat="43.70351" lon="6.81546">
        <ele>892.4</ele>
        <time>2026-05-15T13:53:31Z</time>
      </trkpt>
      <trkpt lat="43.70351" lon="6.81542">
        <ele>892.3</ele>
        <time>2026-05-15T13:53:32Z</time>
      </trkpt>
      <trkpt lat="43.7035" lon="6.81539">
        <ele>892.1</ele>
        <time>2026-05-15T13:53:33Z</time>
      </trkpt>
      <trkpt lat="43.7035" lon="6.81536">
        <ele>892</ele>
        <time>2026-05-15T13:53:34Z</time>
      </trkpt>
      <trkpt lat="43.7035" lon="6.81532">
        <ele>891.9</ele>
        <time>2026-05-15T13:53:35Z</time>
      </trkpt>
      <trkpt lat="43.7035" lon="6.81529">
        <ele>891.8</ele>
        <time>2026-05-15T13:53:36Z</time>
      </trkpt>
      <trkpt lat="43.70351" lon="6.81526">
        <ele>891.8</ele>
        <time>2026-05-15T13:53:37Z</time>
      </trkpt>
      <trkpt lat="43.70351" lon="6.81523">
        <ele>891.5</ele>
        <time>2026-05-15T13:53:38Z</time>
      </trkpt>
      <trkpt lat="43.70351" lon="6.81519">
        <ele>891.2</ele>
        <time>2026-05-15T13:53:39Z</time>
      </trkpt>
      <trkpt lat="43.7035" lon="6.81516">
        <ele>890.9</ele>
        <time>2026-05-15T13:53:40Z</time>
      </trkpt>
      <trkpt lat="43.7035" lon="6.81513">
        <ele>890.6</ele>
        <time>2026-05-15T13:53:41Z</time>
      </trkpt>
      <trkpt lat="43.70348" lon="6.8151">
        <ele>890.3</ele>
        <time>2026-05-15T13:53:42Z</time>
      </trkpt>
      <trkpt lat="43.70347" lon="6.81507">
        <ele>890</ele>
        <time>2026-05-15T13:53:43Z</time>
      </trkpt>
      <trkpt lat="43.70345" lon="6.81505">
        <ele>889.8</ele>
        <time>2026-05-15T13:53:44Z</time>
      </trkpt>
      <trkpt lat="43.70343" lon="6.81503">
        <ele>889.5</ele>
        <time>2026-05-15T13:53:45Z</time>
      </trkpt>
      <trkpt lat="43.70341" lon="6.81502">
        <ele>889.4</ele>
        <time>2026-05-15T13:53:46Z</time>
      </trkpt>
      <trkpt lat="43.70338" lon="6.81501">
        <ele>889.2</ele>
        <time>2026-05-15T13:53:47Z</time>
      </trkpt>
      <trkpt lat="43.70336" lon="6.815">
        <ele>889.1</ele>
        <time>2026-05-15T13:53:48Z</time>
      </trkpt>
      <trkpt lat="43.70334" lon="6.815">
        <ele>889</ele>
        <time>2026-05-15T13:53:49Z</time>
      </trkpt>
      <trkpt lat="43.70332" lon="6.81499">
        <ele>888.6</ele>
        <time>2026-05-15T13:53:50Z</time>
      </trkpt>
      <trkpt lat="43.70329" lon="6.81499">
        <ele>888.4</ele>
        <time>2026-05-15T13:53:51Z</time>
      </trkpt>
      <trkpt lat="43.70326" lon="6.81498">
        <ele>887.8</ele>
        <time>2026-05-15T13:53:52Z</time>
      </trkpt>
      <trkpt lat="43.70324" lon="6.81497">
        <ele>887.4</ele>
        <time>2026-05-15T13:53:53Z</time>
      </trkpt>
      <trkpt lat="43.70322" lon="6.81497">
        <ele>887.2</ele>
        <time>2026-05-15T13:53:54Z</time>
      </trkpt>
      <trkpt lat="43.70321" lon="6.81496">
        <ele>886.8</ele>
        <time>2026-05-15T13:53:55Z</time>
      </trkpt>
      <trkpt lat="43.70321" lon="6.81496">
        <ele>886.8</ele>
        <time>2026-05-15T13:53:56Z</time>
      </trkpt>
      <trkpt lat="43.70321" lon="6.81496">
        <ele>886.8</ele>
        <time>2026-05-15T13:53:57Z</time>
      </trkpt>
      <trkpt lat="43.70321" lon="6.81496">
        <ele>886.8</ele>
        <time>2026-05-15T13:53:58Z</time>
      </trkpt>
      <trkpt lat="43.70322" lon="6.81496">
        <ele>886.9</ele>
        <time>2026-05-15T13:53:59Z</time>
      </trkpt>
      <trkpt lat="43.70322" lon="6.81496">
        <ele>886.9</ele>
        <time>2026-05-15T13:54:00Z</time>
      </trkpt>
      <trkpt lat="43.70322" lon="6.81496">
        <ele>886.9</ele>
        <time>2026-05-15T13:54:01Z</time>
      </trkpt>
      <trkpt lat="43.70322" lon="6.81497">
        <ele>887.2</ele>
        <time>2026-05-15T13:54:02Z</time>
      </trkpt>
      <trkpt lat="43.70322" lon="6.81497">
        <ele>887.2</ele>
        <time>2026-05-15T13:54:03Z</time>
      </trkpt>
      <trkpt lat="43.70322" lon="6.81497">
        <ele>887.2</ele>
        <time>2026-05-15T13:54:04Z</time>
      </trkpt>
      <trkpt lat="43.70322" lon="6.81497">
        <ele>887.2</ele>
        <time>2026-05-15T13:54:05Z</time>
      </trkpt>
      <trkpt lat="43.70322" lon="6.81497">
        <ele>887.2</ele>
        <time>2026-05-15T13:54:06Z</time>
      </trkpt>
      <trkpt lat="43.70322" lon="6.81497">
        <ele>887.2</ele>
        <time>2026-05-15T13:54:07Z</time>
      </trkpt>
      <trkpt lat="43.70322" lon="6.81496">
        <ele>886.9</ele>
        <time>2026-05-15T13:54:08Z</time>
      </trkpt>
      <trkpt lat="43.70322" lon="6.81496">
        <ele>886.9</ele>
        <time>2026-05-15T13:54:09Z</time>
      </trkpt>
      <trkpt lat="43.70321" lon="6.81496">
        <ele>886.8</ele>
        <time>2026-05-15T13:54:10Z</time>
      </trkpt>
      <trkpt lat="43.70321" lon="6.81496">
        <ele>886.8</ele>
        <time>2026-05-15T13:54:11Z</time>
      </trkpt>
      <trkpt lat="43.70321" lon="6.81496">
        <ele>886.8</ele>
        <time>2026-05-15T13:54:12Z</time>
      </trkpt>
      <trkpt lat="43.70321" lon="6.81496">
        <ele>886.8</ele>
        <time>2026-05-15T13:54:13Z</time>
      </trkpt>
      <trkpt lat="43.70321" lon="6.81496">
        <ele>886.8</ele>
        <time>2026-05-15T13:54:14Z</time>
      </trkpt>
      <trkpt lat="43.70321" lon="6.81496">
        <ele>886.8</ele>
        <time>2026-05-15T13:54:15Z</time>
      </trkpt>
      <trkpt lat="43.70321" lon="6.81496">
        <ele>886.8</ele>
        <time>2026-05-15T13:54:16Z</time>
      </trkpt>
      <trkpt lat="43.70321" lon="6.81496">
        <ele>886.8</ele>
        <time>2026-05-15T13:54:17Z</time>
      </trkpt>
      <trkpt lat="43.70322" lon="6.81496">
        <ele>886.9</ele>
        <time>2026-05-15T13:54:18Z</time>
      </trkpt>
      <trkpt lat="43.70322" lon="6.81496">
        <ele>886.9</ele>
        <time>2026-05-15T13:54:19Z</time>
      </trkpt>
      <trkpt lat="43.7032" lon="6.81497">
        <ele>887.1</ele>
        <time>2026-05-15T14:18:06Z</time>
      </trkpt>
      <trkpt lat="43.7032" lon="6.81498">
        <ele>887.4</ele>
        <time>2026-05-15T14:18:07Z</time>
      </trkpt>
      <trkpt lat="43.7032" lon="6.81497">
        <ele>887.1</ele>
        <time>2026-05-15T14:18:08Z</time>
      </trkpt>
      <trkpt lat="43.7032" lon="6.81498">
        <ele>887.4</ele>
        <time>2026-05-15T14:18:09Z</time>
      </trkpt>
      <trkpt lat="43.7032" lon="6.81497">
        <ele>887.1</ele>
        <time>2026-05-15T14:18:10Z</time>
      </trkpt>
      <trkpt lat="43.7032" lon="6.81497">
        <ele>887.1</ele>
        <time>2026-05-15T14:18:11Z</time>
      </trkpt>
      <trkpt lat="43.7032" lon="6.81497">
        <ele>887.1</ele>
        <time>2026-05-15T14:18:12Z</time>
      </trkpt>
      <trkpt lat="43.70319" lon="6.81497">
        <ele>887</ele>
        <time>2026-05-15T14:18:13Z</time>
      </trkpt>
      <trkpt lat="43.70319" lon="6.81497">
        <ele>887</ele>
        <time>2026-05-15T14:18:14Z</time>
      </trkpt>
      <trkpt lat="43.70318" lon="6.81497">
        <ele>886.9</ele>
        <time>2026-05-15T14:18:15Z</time>
      </trkpt>
      <trkpt lat="43.70318" lon="6.81498">
        <ele>887.2</ele>
        <time>2026-05-15T14:18:16Z</time>
      </trkpt>
      <trkpt lat="43.70318" lon="6.81498">
        <ele>887.2</ele>
        <time>2026-05-15T14:18:17Z</time>
      </trkpt>
      <trkpt lat="43.70317" lon="6.81498">
        <ele>887.2</ele>
        <time>2026-05-15T14:18:18Z</time>
      </trkpt>
      <trkpt lat="43.70317" lon="6.81498">
        <ele>887.2</ele>
        <time>2026-05-15T14:18:19Z</time>
      </trkpt>
      <trkpt lat="43.70317" lon="6.81498">
        <ele>887.2</ele>
        <time>2026-05-15T14:18:20Z</time>
      </trkpt>
      <trkpt lat="43.70317" lon="6.81498">
        <ele>887.2</ele>
        <time>2026-05-15T14:18:21Z</time>
      </trkpt>
      <trkpt lat="43.70317" lon="6.81498">
        <ele>887.2</ele>
        <time>2026-05-15T14:18:22Z</time>
      </trkpt>
      <trkpt lat="43.70317" lon="6.81498">
        <ele>887.2</ele>
        <time>2026-05-15T14:18:23Z</time>
      </trkpt>
      <trkpt lat="43.70317" lon="6.81498">
        <ele>887.2</ele>
        <time>2026-05-15T14:18:24Z</time>
      </trkpt>
      <trkpt lat="43.70317" lon="6.81498">
        <ele>887.2</ele>
        <time>2026-05-15T14:18:25Z</time>
      </trkpt>
      <trkpt lat="43.70317" lon="6.81498">
        <ele>887.2</ele>
        <time>2026-05-15T14:18:26Z</time>
      </trkpt>
      <trkpt lat="43.70316" lon="6.81498">
        <ele>887.1</ele>
        <time>2026-05-15T14:18:27Z</time>
      </trkpt>
      <trkpt lat="43.70316" lon="6.81499">
        <ele>887.4</ele>
        <time>2026-05-15T14:18:28Z</time>
      </trkpt>
      <trkpt lat="43.70316" lon="6.81499">
        <ele>887.4</ele>
        <time>2026-05-15T14:18:29Z</time>
      </trkpt>
      <trkpt lat="43.70316" lon="6.81499">
        <ele>887.4</ele>
        <time>2026-05-15T14:18:30Z</time>
      </trkpt>
      <trkpt lat="43.70316" lon="6.81499">
        <ele>887.4</ele>
        <time>2026-05-15T14:18:31Z</time>
      </trkpt>
      <trkpt lat="43.70315" lon="6.81499">
        <ele>887.4</ele>
        <time>2026-05-15T14:18:32Z</time>
      </trkpt>
      <trkpt lat="43.70315" lon="6.81499">
        <ele>887.4</ele>
        <time>2026-05-15T14:18:33Z</time>
      </trkpt>
      <trkpt lat="43.70316" lon="6.81499">
        <ele>887.4</ele>
        <time>2026-05-15T14:18:34Z</time>
      </trkpt>
      <trkpt lat="43.70316" lon="6.81499">
        <ele>887.4</ele>
        <time>2026-05-15T14:18:35Z</time>
      </trkpt>
      <trkpt lat="43.70316" lon="6.81499">
        <ele>887.4</ele>
        <time>2026-05-15T14:18:36Z</time>
      </trkpt>
      <trkpt lat="43.70316" lon="6.81499">
        <ele>887.4</ele>
        <time>2026-05-15T14:18:37Z</time>
      </trkpt>
      <trkpt lat="43.70316" lon="6.81499">
        <ele>887.4</ele>
        <time>2026-05-15T14:18:38Z</time>
      </trkpt>
      <trkpt lat="43.70316" lon="6.81498">
        <ele>887.1</ele>
        <time>2026-05-15T14:18:39Z</time>
      </trkpt>
      <trkpt lat="43.70316" lon="6.81499">
        <ele>887.4</ele>
        <time>2026-05-15T14:18:40Z</time>
      </trkpt>
      <trkpt lat="43.70316" lon="6.81499">
        <ele>887.4</ele>
        <time>2026-05-15T14:18:41Z</time>
      </trkpt>
      <trkpt lat="43.70316" lon="6.81499">
        <ele>887.4</ele>
        <time>2026-05-15T14:18:42Z</time>
      </trkpt>
      <trkpt lat="43.70316" lon="6.81499">
        <ele>887.4</ele>
        <time>2026-05-15T14:18:43Z</time>
      </trkpt>
      <trkpt lat="43.70316" lon="6.81499">
        <ele>887.4</ele>
        <time>2026-05-15T14:18:44Z</time>
      </trkpt>
      <trkpt lat="43.70316" lon="6.81499">
        <ele>887.4</ele>
        <time>2026-05-15T14:18:45Z</time>
      </trkpt>
      <trkpt lat="43.70316" lon="6.81499">
        <ele>887.4</ele>
        <time>2026-05-15T14:18:46Z</time>
      </trkpt>
      <trkpt lat="43.70316" lon="6.81499">
        <ele>887.4</ele>
        <time>2026-05-15T14:18:47Z</time>
      </trkpt>
      <trkpt lat="43.70316" lon="6.81499">
        <ele>887.4</ele>
        <time>2026-05-15T14:18:48Z</time>
      </trkpt>
      <trkpt lat="43.70316" lon="6.81499">
        <ele>887.4</ele>
        <time>2026-05-15T14:18:49Z</time>
      </trkpt>
      <trkpt lat="43.70316" lon="6.81499">
        <ele>887.4</ele>
        <time>2026-05-15T14:18:50Z</time>
      </trkpt>
      <trkpt lat="43.70316" lon="6.81499">
        <ele>887.4</ele>
        <time>2026-05-15T14:18:51Z</time>
      </trkpt>
      <trkpt lat="43.70316" lon="6.81499">
        <ele>887.4</ele>
        <time>2026-05-15T14:18:52Z</time>
      </trkpt>
      <trkpt lat="43.70316" lon="6.81499">
        <ele>887.4</ele>
        <time>2026-05-15T14:18:53Z</time>
      </trkpt>
      <trkpt lat="43.70316" lon="6.81499">
        <ele>887.4</ele>
        <time>2026-05-15T14:18:54Z</time>
      </trkpt>
      <trkpt lat="43.70316" lon="6.81499">
        <ele>887.4</ele>
        <time>2026-05-15T14:18:55Z</time>
      </trkpt>
      <trkpt lat="43.70316" lon="6.81499">
        <ele>887.4</ele>
        <time>2026-05-15T14:18:56Z</time>
      </trkpt>
      <trkpt lat="43.70316" lon="6.81499">
        <ele>887.4</ele>
        <time>2026-05-15T14:18:57Z</time>
      </trkpt>
      <trkpt lat="43.70316" lon="6.81499">
        <ele>887.4</ele>
        <time>2026-05-15T14:18:58Z</time>
      </trkpt>
      <trkpt lat="43.70315" lon="6.815">
        <ele>887.7</ele>
        <time>2026-05-15T14:18:59Z</time>
      </trkpt>
      <trkpt lat="43.70315" lon="6.815">
        <ele>887.7</ele>
        <time>2026-05-15T14:19:00Z</time>
      </trkpt>
      <trkpt lat="43.70315" lon="6.815">
        <ele>887.7</ele>
        <time>2026-05-15T14:19:01Z</time>
      </trkpt>
      <trkpt lat="43.70315" lon="6.815">
        <ele>887.7</ele>
        <time>2026-05-15T14:19:02Z</time>
      </trkpt>
      <trkpt lat="43.70315" lon="6.815">
        <ele>887.7</ele>
        <time>2026-05-15T14:19:03Z</time>
      </trkpt>
      <trkpt lat="43.70315" lon="6.815">
        <ele>887.7</ele>
        <time>2026-05-15T14:19:04Z</time>
      </trkpt>
      <trkpt lat="43.70315" lon="6.815">
        <ele>887.7</ele>
        <time>2026-05-15T14:19:05Z</time>
      </trkpt>
      <trkpt lat="43.70315" lon="6.815">
        <ele>887.7</ele>
        <time>2026-05-15T14:19:06Z</time>
      </trkpt>
      <trkpt lat="43.70315" lon="6.815">
        <ele>887.7</ele>
        <time>2026-05-15T14:19:07Z</time>
      </trkpt>
      <trkpt lat="43.70315" lon="6.815">
        <ele>887.7</ele>
        <time>2026-05-15T14:19:08Z</time>
      </trkpt>
      <trkpt lat="43.70315" lon="6.815">
        <ele>887.7</ele>
        <time>2026-05-15T14:19:09Z</time>
      </trkpt>
      <trkpt lat="43.70315" lon="6.815">
        <ele>887.7</ele>
        <time>2026-05-15T14:19:10Z</time>
      </trkpt>
      <trkpt lat="43.70315" lon="6.815">
        <ele>887.7</ele>
        <time>2026-05-15T14:19:11Z</time>
      </trkpt>
      <trkpt lat="43.70315" lon="6.815">
        <ele>887.7</ele>
        <time>2026-05-15T14:19:12Z</time>
      </trkpt>
      <trkpt lat="43.70315" lon="6.815">
        <ele>887.7</ele>
        <time>2026-05-15T14:19:13Z</time>
      </trkpt>
      <trkpt lat="43.70315" lon="6.815">
        <ele>887.7</ele>
        <time>2026-05-15T14:19:14Z</time>
      </trkpt>
      <trkpt lat="43.70315" lon="6.815">
        <ele>887.7</ele>
        <time>2026-05-15T14:19:15Z</time>
      </trkpt>
      <trkpt lat="43.70315" lon="6.815">
        <ele>887.7</ele>
        <time>2026-05-15T14:19:16Z</time>
      </trkpt>
      <trkpt lat="43.70315" lon="6.815">
        <ele>887.7</ele>
        <time>2026-05-15T14:19:17Z</time>
      </trkpt>
      <trkpt lat="43.70314" lon="6.815">
        <ele>887.6</ele>
        <time>2026-05-15T14:19:18Z</time>
      </trkpt>
      <trkpt lat="43.70313" lon="6.81501">
        <ele>887.6</ele>
        <time>2026-05-15T14:19:19Z</time>
      </trkpt>
      <trkpt lat="43.70312" lon="6.81502">
        <ele>887.5</ele>
        <time>2026-05-15T14:19:20Z</time>
      </trkpt>
      <trkpt lat="43.7031" lon="6.81503">
        <ele>887.4</ele>
        <time>2026-05-15T14:19:21Z</time>
      </trkpt>
      <trkpt lat="43.70308" lon="6.81505">
        <ele>887.4</ele>
        <time>2026-05-15T14:19:22Z</time>
      </trkpt>
      <trkpt lat="43.70307" lon="6.81508">
        <ele>887.4</ele>
        <time>2026-05-15T14:19:23Z</time>
      </trkpt>
      <trkpt lat="43.70305" lon="6.81511">
        <ele>887.2</ele>
        <time>2026-05-15T14:19:24Z</time>
      </trkpt>
      <trkpt lat="43.70303" lon="6.81514">
        <ele>886.7</ele>
        <time>2026-05-15T14:19:25Z</time>
      </trkpt>
      <trkpt lat="43.70301" lon="6.81519">
        <ele>886.4</ele>
        <time>2026-05-15T14:19:26Z</time>
      </trkpt>
      <trkpt lat="43.70301" lon="6.81528">
        <ele>887</ele>
        <time>2026-05-15T14:19:27Z</time>
      </trkpt>
      <trkpt lat="43.70301" lon="6.81537">
        <ele>887.1</ele>
        <time>2026-05-15T14:19:28Z</time>
      </trkpt>
      <trkpt lat="43.70302" lon="6.81549">
        <ele>887.3</ele>
        <time>2026-05-15T14:19:29Z</time>
      </trkpt>
      <trkpt lat="43.70303" lon="6.81561">
        <ele>887.3</ele>
        <time>2026-05-15T14:19:30Z</time>
      </trkpt>
      <trkpt lat="43.70306" lon="6.81573">
        <ele>887.4</ele>
        <time>2026-05-15T14:19:31Z</time>
      </trkpt>
      <trkpt lat="43.70308" lon="6.81587">
        <ele>887</ele>
        <time>2026-05-15T14:19:32Z</time>
      </trkpt>
      <trkpt lat="43.70312" lon="6.81602">
        <ele>885.9</ele>
        <time>2026-05-15T14:19:33Z</time>
      </trkpt>
      <trkpt lat="43.70317" lon="6.81617">
        <ele>885</ele>
        <time>2026-05-15T14:19:34Z</time>
      </trkpt>
      <trkpt lat="43.70324" lon="6.81633">
        <ele>884.3</ele>
        <time>2026-05-15T14:19:35Z</time>
      </trkpt>
      <trkpt lat="43.70329" lon="6.81648">
        <ele>883.7</ele>
        <time>2026-05-15T14:19:36Z</time>
      </trkpt>
      <trkpt lat="43.70334" lon="6.81663">
        <ele>883.4</ele>
        <time>2026-05-15T14:19:37Z</time>
      </trkpt>
      <trkpt lat="43.70338" lon="6.81678">
        <ele>883.3</ele>
        <time>2026-05-15T14:19:38Z</time>
      </trkpt>
      <trkpt lat="43.70341" lon="6.81694">
        <ele>882.7</ele>
        <time>2026-05-15T14:19:39Z</time>
      </trkpt>
      <trkpt lat="43.70343" lon="6.81712">
        <ele>881.8</ele>
        <time>2026-05-15T14:19:40Z</time>
      </trkpt>
      <trkpt lat="43.70344" lon="6.81731">
        <ele>880.8</ele>
        <time>2026-05-15T14:19:41Z</time>
      </trkpt>
      <trkpt lat="43.70345" lon="6.81751">
        <ele>879.9</ele>
        <time>2026-05-15T14:19:42Z</time>
      </trkpt>
      <trkpt lat="43.70346" lon="6.81772">
        <ele>879</ele>
        <time>2026-05-15T14:19:43Z</time>
      </trkpt>
      <trkpt lat="43.70348" lon="6.81793">
        <ele>878.6</ele>
        <time>2026-05-15T14:19:44Z</time>
      </trkpt>
      <trkpt lat="43.70349" lon="6.81813">
        <ele>877.7</ele>
        <time>2026-05-15T14:19:45Z</time>
      </trkpt>
      <trkpt lat="43.70352" lon="6.81834">
        <ele>876.6</ele>
        <time>2026-05-15T14:19:46Z</time>
      </trkpt>
      <trkpt lat="43.70355" lon="6.81856">
        <ele>875.2</ele>
        <time>2026-05-15T14:19:47Z</time>
      </trkpt>
      <trkpt lat="43.70359" lon="6.81876">
        <ele>874.4</ele>
        <time>2026-05-15T14:19:48Z</time>
      </trkpt>
      <trkpt lat="43.70364" lon="6.81896">
        <ele>873.8</ele>
        <time>2026-05-15T14:19:49Z</time>
      </trkpt>
      <trkpt lat="43.7037" lon="6.81915">
        <ele>872.8</ele>
        <time>2026-05-15T14:19:50Z</time>
      </trkpt>
      <trkpt lat="43.70376" lon="6.81933">
        <ele>871.3</ele>
        <time>2026-05-15T14:19:51Z</time>
      </trkpt>
      <trkpt lat="43.70385" lon="6.8195">
        <ele>870.5</ele>
        <time>2026-05-15T14:19:52Z</time>
      </trkpt>
      <trkpt lat="43.70395" lon="6.81965">
        <ele>869.8</ele>
        <time>2026-05-15T14:19:53Z</time>
      </trkpt>
      <trkpt lat="43.70406" lon="6.8198">
        <ele>868.7</ele>
        <time>2026-05-15T14:19:54Z</time>
      </trkpt>
      <trkpt lat="43.70418" lon="6.81995">
        <ele>867.9</ele>
        <time>2026-05-15T14:19:55Z</time>
      </trkpt>
      <trkpt lat="43.7043" lon="6.8201">
        <ele>867</ele>
        <time>2026-05-15T14:19:56Z</time>
      </trkpt>
      <trkpt lat="43.70441" lon="6.82025">
        <ele>866</ele>
        <time>2026-05-15T14:19:57Z</time>
      </trkpt>
      <trkpt lat="43.70452" lon="6.8204">
        <ele>865.2</ele>
        <time>2026-05-15T14:19:58Z</time>
      </trkpt>
      <trkpt lat="43.70463" lon="6.82057">
        <ele>864.5</ele>
        <time>2026-05-15T14:19:59Z</time>
      </trkpt>
      <trkpt lat="43.70473" lon="6.82075">
        <ele>864.1</ele>
        <time>2026-05-15T14:20:00Z</time>
      </trkpt>
      <trkpt lat="43.70481" lon="6.82094">
        <ele>863.9</ele>
        <time>2026-05-15T14:20:01Z</time>
      </trkpt>
      <trkpt lat="43.70489" lon="6.82115">
        <ele>863.1</ele>
        <time>2026-05-15T14:20:02Z</time>
      </trkpt>
      <trkpt lat="43.70497" lon="6.82136">
        <ele>861.8</ele>
        <time>2026-05-15T14:20:03Z</time>
      </trkpt>
      <trkpt lat="43.70504" lon="6.82157">
        <ele>861.1</ele>
        <time>2026-05-15T14:20:04Z</time>
      </trkpt>
      <trkpt lat="43.70511" lon="6.82178">
        <ele>860.1</ele>
        <time>2026-05-15T14:20:05Z</time>
      </trkpt>
      <trkpt lat="43.70518" lon="6.82198">
        <ele>859.2</ele>
        <time>2026-05-15T14:20:06Z</time>
      </trkpt>
      <trkpt lat="43.70524" lon="6.82218">
        <ele>858.5</ele>
        <time>2026-05-15T14:20:07Z</time>
      </trkpt>
      <trkpt lat="43.7053" lon="6.82238">
        <ele>857.9</ele>
        <time>2026-05-15T14:20:08Z</time>
      </trkpt>
      <trkpt lat="43.70535" lon="6.82259">
        <ele>857.1</ele>
        <time>2026-05-15T14:20:09Z</time>
      </trkpt>
      <trkpt lat="43.70541" lon="6.82278">
        <ele>856.8</ele>
        <time>2026-05-15T14:20:10Z</time>
      </trkpt>
      <trkpt lat="43.70546" lon="6.82298">
        <ele>855.8</ele>
        <time>2026-05-15T14:20:11Z</time>
      </trkpt>
      <trkpt lat="43.70552" lon="6.82318">
        <ele>855.3</ele>
        <time>2026-05-15T14:20:12Z</time>
      </trkpt>
      <trkpt lat="43.70556" lon="6.82339">
        <ele>854.5</ele>
        <time>2026-05-15T14:20:13Z</time>
      </trkpt>
      <trkpt lat="43.70561" lon="6.82359">
        <ele>853.6</ele>
        <time>2026-05-15T14:20:14Z</time>
      </trkpt>
      <trkpt lat="43.70564" lon="6.8238">
        <ele>852.6</ele>
        <time>2026-05-15T14:20:15Z</time>
      </trkpt>
      <trkpt lat="43.70567" lon="6.82402">
        <ele>851.3</ele>
        <time>2026-05-15T14:20:16Z</time>
      </trkpt>
      <trkpt lat="43.70569" lon="6.82424">
        <ele>850.3</ele>
        <time>2026-05-15T14:20:17Z</time>
      </trkpt>
      <trkpt lat="43.7057" lon="6.82446">
        <ele>850.1</ele>
        <time>2026-05-15T14:20:18Z</time>
      </trkpt>
      <trkpt lat="43.7057" lon="6.82468">
        <ele>849.3</ele>
        <time>2026-05-15T14:20:19Z</time>
      </trkpt>
      <trkpt lat="43.70572" lon="6.82489">
        <ele>848.7</ele>
        <time>2026-05-15T14:20:20Z</time>
      </trkpt>
      <trkpt lat="43.70573" lon="6.82511">
        <ele>847.6</ele>
        <time>2026-05-15T14:20:21Z</time>
      </trkpt>
      <trkpt lat="43.70573" lon="6.82532">
        <ele>846.1</ele>
        <time>2026-05-15T14:20:22Z</time>
      </trkpt>
      <trkpt lat="43.70573" lon="6.82552">
        <ele>844.7</ele>
        <time>2026-05-15T14:20:23Z</time>
      </trkpt>
      <trkpt lat="43.70573" lon="6.82573">
        <ele>843.8</ele>
        <time>2026-05-15T14:20:24Z</time>
      </trkpt>
      <trkpt lat="43.70573" lon="6.82593">
        <ele>843.2</ele>
        <time>2026-05-15T14:20:25Z</time>
      </trkpt>
      <trkpt lat="43.70573" lon="6.82613">
        <ele>842.7</ele>
        <time>2026-05-15T14:20:26Z</time>
      </trkpt>
      <trkpt lat="43.70573" lon="6.82633">
        <ele>841.5</ele>
        <time>2026-05-15T14:20:27Z</time>
      </trkpt>
      <trkpt lat="43.70573" lon="6.82653">
        <ele>840.6</ele>
        <time>2026-05-15T14:20:28Z</time>
      </trkpt>
      <trkpt lat="43.70573" lon="6.82673">
        <ele>840.1</ele>
        <time>2026-05-15T14:20:29Z</time>
      </trkpt>
      <trkpt lat="43.70573" lon="6.82694">
        <ele>839.8</ele>
        <time>2026-05-15T14:20:30Z</time>
      </trkpt>
      <trkpt lat="43.70573" lon="6.82716">
        <ele>838.8</ele>
        <time>2026-05-15T14:20:31Z</time>
      </trkpt>
      <trkpt lat="43.70572" lon="6.82737">
        <ele>838.4</ele>
        <time>2026-05-15T14:20:32Z</time>
      </trkpt>
      <trkpt lat="43.70572" lon="6.82759">
        <ele>837.8</ele>
        <time>2026-05-15T14:20:33Z</time>
      </trkpt>
      <trkpt lat="43.70572" lon="6.8278">
        <ele>836.4</ele>
        <time>2026-05-15T14:20:34Z</time>
      </trkpt>
      <trkpt lat="43.70572" lon="6.82801">
        <ele>835.2</ele>
        <time>2026-05-15T14:20:35Z</time>
      </trkpt>
      <trkpt lat="43.70572" lon="6.82821">
        <ele>834.3</ele>
        <time>2026-05-15T14:20:36Z</time>
      </trkpt>
      <trkpt lat="43.70572" lon="6.82842">
        <ele>833.5</ele>
        <time>2026-05-15T14:20:37Z</time>
      </trkpt>
      <trkpt lat="43.70572" lon="6.82862">
        <ele>832.7</ele>
        <time>2026-05-15T14:20:38Z</time>
      </trkpt>
      <trkpt lat="43.70572" lon="6.82884">
        <ele>831.1</ele>
        <time>2026-05-15T14:20:39Z</time>
      </trkpt>
      <trkpt lat="43.70572" lon="6.82906">
        <ele>830.4</ele>
        <time>2026-05-15T14:20:40Z</time>
      </trkpt>
      <trkpt lat="43.70572" lon="6.82928">
        <ele>829.8</ele>
        <time>2026-05-15T14:20:41Z</time>
      </trkpt>
      <trkpt lat="43.70573" lon="6.82951">
        <ele>828.9</ele>
        <time>2026-05-15T14:20:42Z</time>
      </trkpt>
      <trkpt lat="43.70573" lon="6.82973">
        <ele>827.6</ele>
        <time>2026-05-15T14:20:43Z</time>
      </trkpt>
      <trkpt lat="43.70572" lon="6.82995">
        <ele>826.4</ele>
        <time>2026-05-15T14:20:44Z</time>
      </trkpt>
      <trkpt lat="43.70571" lon="6.83018">
        <ele>825.8</ele>
        <time>2026-05-15T14:20:45Z</time>
      </trkpt>
      <trkpt lat="43.70569" lon="6.8304">
        <ele>825</ele>
        <time>2026-05-15T14:20:46Z</time>
      </trkpt>
      <trkpt lat="43.70567" lon="6.83063">
        <ele>824</ele>
        <time>2026-05-15T14:20:47Z</time>
      </trkpt>
      <trkpt lat="43.70566" lon="6.83085">
        <ele>823</ele>
        <time>2026-05-15T14:20:48Z</time>
      </trkpt>
      <trkpt lat="43.70566" lon="6.83107">
        <ele>821.4</ele>
        <time>2026-05-15T14:20:49Z</time>
      </trkpt>
      <trkpt lat="43.70566" lon="6.83129">
        <ele>820.1</ele>
        <time>2026-05-15T14:20:50Z</time>
      </trkpt>
      <trkpt lat="43.70568" lon="6.83151">
        <ele>819.1</ele>
        <time>2026-05-15T14:20:51Z</time>
      </trkpt>
      <trkpt lat="43.70571" lon="6.83173">
        <ele>818.3</ele>
        <time>2026-05-15T14:20:52Z</time>
      </trkpt>
      <trkpt lat="43.70575" lon="6.83195">
        <ele>817.5</ele>
        <time>2026-05-15T14:20:53Z</time>
      </trkpt>
      <trkpt lat="43.70579" lon="6.83216">
        <ele>816.8</ele>
        <time>2026-05-15T14:20:54Z</time>
      </trkpt>
      <trkpt lat="43.70582" lon="6.83238">
        <ele>815.7</ele>
        <time>2026-05-15T14:20:55Z</time>
      </trkpt>
      <trkpt lat="43.70584" lon="6.8326">
        <ele>814.4</ele>
        <time>2026-05-15T14:20:56Z</time>
      </trkpt>
      <trkpt lat="43.70587" lon="6.83281">
        <ele>813.8</ele>
        <time>2026-05-15T14:20:57Z</time>
      </trkpt>
      <trkpt lat="43.70588" lon="6.83303">
        <ele>813.3</ele>
        <time>2026-05-15T14:20:58Z</time>
      </trkpt>
      <trkpt lat="43.70589" lon="6.83325">
        <ele>812.7</ele>
        <time>2026-05-15T14:20:59Z</time>
      </trkpt>
      <trkpt lat="43.70588" lon="6.83347">
        <ele>811.7</ele>
        <time>2026-05-15T14:21:00Z</time>
      </trkpt>
      <trkpt lat="43.70585" lon="6.83368">
        <ele>810.4</ele>
        <time>2026-05-15T14:21:01Z</time>
      </trkpt>
      <trkpt lat="43.70581" lon="6.8339">
        <ele>809.1</ele>
        <time>2026-05-15T14:21:02Z</time>
      </trkpt>
      <trkpt lat="43.70575" lon="6.83411">
        <ele>807.2</ele>
        <time>2026-05-15T14:21:03Z</time>
      </trkpt>
      <trkpt lat="43.70569" lon="6.83432">
        <ele>806.5</ele>
        <time>2026-05-15T14:21:04Z</time>
      </trkpt>
      <trkpt lat="43.70562" lon="6.83452">
        <ele>806.3</ele>
        <time>2026-05-15T14:21:05Z</time>
      </trkpt>
      <trkpt lat="43.70555" lon="6.83471">
        <ele>806.6</ele>
        <time>2026-05-15T14:21:06Z</time>
      </trkpt>
      <trkpt lat="43.70547" lon="6.83489">
        <ele>804.8</ele>
        <time>2026-05-15T14:21:07Z</time>
      </trkpt>
      <trkpt lat="43.7054" lon="6.83507">
        <ele>804.5</ele>
        <time>2026-05-15T14:21:08Z</time>
      </trkpt>
      <trkpt lat="43.70533" lon="6.83524">
        <ele>803.9</ele>
        <time>2026-05-15T14:21:09Z</time>
      </trkpt>
      <trkpt lat="43.70527" lon="6.83541">
        <ele>803.1</ele>
        <time>2026-05-15T14:21:10Z</time>
      </trkpt>
      <trkpt lat="43.70522" lon="6.8356">
        <ele>801.5</ele>
        <time>2026-05-15T14:21:11Z</time>
      </trkpt>
      <trkpt lat="43.70519" lon="6.83579">
        <ele>800.5</ele>
        <time>2026-05-15T14:21:12Z</time>
      </trkpt>
      <trkpt lat="43.70514" lon="6.83597">
        <ele>799.5</ele>
        <time>2026-05-15T14:21:13Z</time>
      </trkpt>
      <trkpt lat="43.70509" lon="6.83616">
        <ele>799.2</ele>
        <time>2026-05-15T14:21:14Z</time>
      </trkpt>
      <trkpt lat="43.70504" lon="6.83635">
        <ele>798.8</ele>
        <time>2026-05-15T14:21:15Z</time>
      </trkpt>
      <trkpt lat="43.70498" lon="6.83653">
        <ele>797.2</ele>
        <time>2026-05-15T14:21:16Z</time>
      </trkpt>
      <trkpt lat="43.70494" lon="6.83672">
        <ele>795.9</ele>
        <time>2026-05-15T14:21:17Z</time>
      </trkpt>
      <trkpt lat="43.70493" lon="6.83692">
        <ele>795.3</ele>
        <time>2026-05-15T14:21:18Z</time>
      </trkpt>
      <trkpt lat="43.70495" lon="6.83712">
        <ele>794.5</ele>
        <time>2026-05-15T14:21:19Z</time>
      </trkpt>
      <trkpt lat="43.70498" lon="6.83732">
        <ele>794.1</ele>
        <time>2026-05-15T14:21:20Z</time>
      </trkpt>
      <trkpt lat="43.705" lon="6.83753">
        <ele>793.9</ele>
        <time>2026-05-15T14:21:21Z</time>
      </trkpt>
      <trkpt lat="43.70502" lon="6.83773">
        <ele>793.5</ele>
        <time>2026-05-15T14:21:22Z</time>
      </trkpt>
      <trkpt lat="43.70504" lon="6.83794">
        <ele>792.6</ele>
        <time>2026-05-15T14:21:23Z</time>
      </trkpt>
      <trkpt lat="43.70506" lon="6.83815">
        <ele>791.4</ele>
        <time>2026-05-15T14:21:24Z</time>
      </trkpt>
      <trkpt lat="43.70509" lon="6.83836">
        <ele>790.4</ele>
        <time>2026-05-15T14:21:25Z</time>
      </trkpt>
      <trkpt lat="43.70512" lon="6.83857">
        <ele>789.3</ele>
        <time>2026-05-15T14:21:26Z</time>
      </trkpt>
      <trkpt lat="43.70515" lon="6.83878">
        <ele>788.3</ele>
        <time>2026-05-15T14:21:27Z</time>
      </trkpt>
      <trkpt lat="43.70516" lon="6.83898">
        <ele>787.1</ele>
        <time>2026-05-15T14:21:28Z</time>
      </trkpt>
      <trkpt lat="43.70517" lon="6.83919">
        <ele>786.4</ele>
        <time>2026-05-15T14:21:29Z</time>
      </trkpt>
      <trkpt lat="43.70517" lon="6.83939">
        <ele>785.4</ele>
        <time>2026-05-15T14:21:30Z</time>
      </trkpt>
      <trkpt lat="43.70516" lon="6.83959">
        <ele>785.4</ele>
        <time>2026-05-15T14:21:31Z</time>
      </trkpt>
      <trkpt lat="43.70513" lon="6.83979">
        <ele>784.6</ele>
        <time>2026-05-15T14:21:32Z</time>
      </trkpt>
      <trkpt lat="43.7051" lon="6.83998">
        <ele>783.3</ele>
        <time>2026-05-15T14:21:33Z</time>
      </trkpt>
      <trkpt lat="43.70508" lon="6.84017">
        <ele>781.8</ele>
        <time>2026-05-15T14:21:34Z</time>
      </trkpt>
      <trkpt lat="43.70508" lon="6.84036">
        <ele>780.9</ele>
        <time>2026-05-15T14:21:35Z</time>
      </trkpt>
      <trkpt lat="43.70509" lon="6.84055">
        <ele>779.9</ele>
        <time>2026-05-15T14:21:36Z</time>
      </trkpt>
      <trkpt lat="43.70513" lon="6.84072">
        <ele>779.8</ele>
        <time>2026-05-15T14:21:37Z</time>
      </trkpt>
      <trkpt lat="43.70516" lon="6.8409">
        <ele>778.9</ele>
        <time>2026-05-15T14:21:38Z</time>
      </trkpt>
      <trkpt lat="43.70521" lon="6.84107">
        <ele>778.2</ele>
        <time>2026-05-15T14:21:39Z</time>
      </trkpt>
      <trkpt lat="43.70526" lon="6.84124">
        <ele>777.5</ele>
        <time>2026-05-15T14:21:40Z</time>
      </trkpt>
      <trkpt lat="43.70532" lon="6.84141">
        <ele>777.5</ele>
        <time>2026-05-15T14:21:41Z</time>
      </trkpt>
      <trkpt lat="43.70537" lon="6.84157">
        <ele>777.6</ele>
        <time>2026-05-15T14:21:42Z</time>
      </trkpt>
      <trkpt lat="43.70543" lon="6.84173">
        <ele>778</ele>
        <time>2026-05-15T14:21:43Z</time>
      </trkpt>
      <trkpt lat="43.70549" lon="6.84188">
        <ele>777.7</ele>
        <time>2026-05-15T14:21:44Z</time>
      </trkpt>
      <trkpt lat="43.70555" lon="6.84203">
        <ele>777.2</ele>
        <time>2026-05-15T14:21:45Z</time>
      </trkpt>
      <trkpt lat="43.70559" lon="6.84219">
        <ele>776</ele>
        <time>2026-05-15T14:21:46Z</time>
      </trkpt>
      <trkpt lat="43.70563" lon="6.84236">
        <ele>774.6</ele>
        <time>2026-05-15T14:21:47Z</time>
      </trkpt>
      <trkpt lat="43.70567" lon="6.84252">
        <ele>773.6</ele>
        <time>2026-05-15T14:21:48Z</time>
      </trkpt>
      <trkpt lat="43.7057" lon="6.84268">
        <ele>772.3</ele>
        <time>2026-05-15T14:21:49Z</time>
      </trkpt>
      <trkpt lat="43.70574" lon="6.84285">
        <ele>771.3</ele>
        <time>2026-05-15T14:21:50Z</time>
      </trkpt>
      <trkpt lat="43.70577" lon="6.84302">
        <ele>770</ele>
        <time>2026-05-15T14:21:51Z</time>
      </trkpt>
      <trkpt lat="43.70581" lon="6.84318">
        <ele>769.3</ele>
        <time>2026-05-15T14:21:52Z</time>
      </trkpt>
      <trkpt lat="43.70585" lon="6.84335">
        <ele>768.4</ele>
        <time>2026-05-15T14:21:53Z</time>
      </trkpt>
      <trkpt lat="43.70589" lon="6.84352">
        <ele>768</ele>
        <time>2026-05-15T14:21:54Z</time>
      </trkpt>
      <trkpt lat="43.70592" lon="6.84368">
        <ele>767.6</ele>
        <time>2026-05-15T14:21:55Z</time>
      </trkpt>
      <trkpt lat="43.70595" lon="6.84384">
        <ele>767.6</ele>
        <time>2026-05-15T14:21:56Z</time>
      </trkpt>
      <trkpt lat="43.70598" lon="6.844">
        <ele>767.9</ele>
        <time>2026-05-15T14:21:57Z</time>
      </trkpt>
      <trkpt lat="43.70598" lon="6.84417">
        <ele>767.3</ele>
        <time>2026-05-15T14:21:58Z</time>
      </trkpt>
      <trkpt lat="43.70596" lon="6.84433">
        <ele>766.3</ele>
        <time>2026-05-15T14:21:59Z</time>
      </trkpt>
      <trkpt lat="43.70593" lon="6.84449">
        <ele>765.2</ele>
        <time>2026-05-15T14:22:00Z</time>
      </trkpt>
      <trkpt lat="43.70588" lon="6.84465">
        <ele>763.6</ele>
        <time>2026-05-15T14:22:01Z</time>
      </trkpt>
      <trkpt lat="43.70584" lon="6.84482">
        <ele>762.6</ele>
        <time>2026-05-15T14:22:02Z</time>
      </trkpt>
      <trkpt lat="43.7058" lon="6.84498">
        <ele>762</ele>
        <time>2026-05-15T14:22:03Z</time>
      </trkpt>
      <trkpt lat="43.70576" lon="6.84515">
        <ele>761.4</ele>
        <time>2026-05-15T14:22:04Z</time>
      </trkpt>
      <trkpt lat="43.70572" lon="6.84531">
        <ele>760.8</ele>
        <time>2026-05-15T14:22:05Z</time>
      </trkpt>
      <trkpt lat="43.70568" lon="6.84548">
        <ele>759.9</ele>
        <time>2026-05-15T14:22:06Z</time>
      </trkpt>
      <trkpt lat="43.70564" lon="6.84565">
        <ele>759.8</ele>
        <time>2026-05-15T14:22:07Z</time>
      </trkpt>
      <trkpt lat="43.7056" lon="6.84581">
        <ele>760.2</ele>
        <time>2026-05-15T14:22:08Z</time>
      </trkpt>
      <trkpt lat="43.70555" lon="6.84597">
        <ele>761.3</ele>
        <time>2026-05-15T14:22:09Z</time>
      </trkpt>
      <trkpt lat="43.70547" lon="6.84611">
        <ele>760.9</ele>
        <time>2026-05-15T14:22:10Z</time>
      </trkpt>
      <trkpt lat="43.70537" lon="6.84623">
        <ele>759.5</ele>
        <time>2026-05-15T14:22:11Z</time>
      </trkpt>
      <trkpt lat="43.70526" lon="6.84634">
        <ele>757.6</ele>
        <time>2026-05-15T14:22:12Z</time>
      </trkpt>
      <trkpt lat="43.70515" lon="6.84644">
        <ele>755.8</ele>
        <time>2026-05-15T14:22:13Z</time>
      </trkpt>
      <trkpt lat="43.70503" lon="6.84655">
        <ele>753.9</ele>
        <time>2026-05-15T14:22:14Z</time>
      </trkpt>
      <trkpt lat="43.70492" lon="6.84667">
        <ele>752.7</ele>
        <time>2026-05-15T14:22:15Z</time>
      </trkpt>
      <trkpt lat="43.70482" lon="6.8468">
        <ele>751.3</ele>
        <time>2026-05-15T14:22:16Z</time>
      </trkpt>
      <trkpt lat="43.70472" lon="6.84696">
        <ele>750.1</ele>
        <time>2026-05-15T14:22:17Z</time>
      </trkpt>
      <trkpt lat="43.70465" lon="6.84712">
        <ele>749.4</ele>
        <time>2026-05-15T14:22:18Z</time>
      </trkpt>
      <trkpt lat="43.70458" lon="6.84729">
        <ele>749.1</ele>
        <time>2026-05-15T14:22:19Z</time>
      </trkpt>
      <trkpt lat="43.70452" lon="6.84746">
        <ele>749.1</ele>
        <time>2026-05-15T14:22:20Z</time>
      </trkpt>
      <trkpt lat="43.70445" lon="6.84763">
        <ele>749</ele>
        <time>2026-05-15T14:22:21Z</time>
      </trkpt>
      <trkpt lat="43.70438" lon="6.84779">
        <ele>749.5</ele>
        <time>2026-05-15T14:22:22Z</time>
      </trkpt>
      <trkpt lat="43.70431" lon="6.84794">
        <ele>748.8</ele>
        <time>2026-05-15T14:22:23Z</time>
      </trkpt>
      <trkpt lat="43.70425" lon="6.84809">
        <ele>748.2</ele>
        <time>2026-05-15T14:22:24Z</time>
      </trkpt>
      <trkpt lat="43.70419" lon="6.84823">
        <ele>747.2</ele>
        <time>2026-05-15T14:22:25Z</time>
      </trkpt>
      <trkpt lat="43.70412" lon="6.84835">
        <ele>746.2</ele>
        <time>2026-05-15T14:22:26Z</time>
      </trkpt>
      <trkpt lat="43.70403" lon="6.84844">
        <ele>745.1</ele>
        <time>2026-05-15T14:22:27Z</time>
      </trkpt>
      <trkpt lat="43.70393" lon="6.84848">
        <ele>743.7</ele>
        <time>2026-05-15T14:22:28Z</time>
      </trkpt>
      <trkpt lat="43.70383" lon="6.84849">
        <ele>742.5</ele>
        <time>2026-05-15T14:22:29Z</time>
      </trkpt>
      <trkpt lat="43.70372" lon="6.84849">
        <ele>741.3</ele>
        <time>2026-05-15T14:22:30Z</time>
      </trkpt>
      <trkpt lat="43.7036" lon="6.84848">
        <ele>740</ele>
        <time>2026-05-15T14:22:31Z</time>
      </trkpt>
      <trkpt lat="43.70348" lon="6.84847">
        <ele>739.3</ele>
        <time>2026-05-15T14:22:32Z</time>
      </trkpt>
      <trkpt lat="43.70336" lon="6.84847">
        <ele>738.6</ele>
        <time>2026-05-15T14:22:33Z</time>
      </trkpt>
      <trkpt lat="43.70325" lon="6.84847">
        <ele>738</ele>
        <time>2026-05-15T14:22:34Z</time>
      </trkpt>
      <trkpt lat="43.70314" lon="6.84846">
        <ele>737.4</ele>
        <time>2026-05-15T14:22:35Z</time>
      </trkpt>
      <trkpt lat="43.70302" lon="6.84845">
        <ele>736.7</ele>
        <time>2026-05-15T14:22:36Z</time>
      </trkpt>
      <trkpt lat="43.70292" lon="6.84843">
        <ele>736.2</ele>
        <time>2026-05-15T14:22:37Z</time>
      </trkpt>
      <trkpt lat="43.70281" lon="6.84841">
        <ele>735.7</ele>
        <time>2026-05-15T14:22:38Z</time>
      </trkpt>
      <trkpt lat="43.7027" lon="6.84837">
        <ele>734.9</ele>
        <time>2026-05-15T14:22:39Z</time>
      </trkpt>
      <trkpt lat="43.70259" lon="6.84833">
        <ele>734.3</ele>
        <time>2026-05-15T14:22:40Z</time>
      </trkpt>
      <trkpt lat="43.70249" lon="6.84828">
        <ele>733.7</ele>
        <time>2026-05-15T14:22:41Z</time>
      </trkpt>
      <trkpt lat="43.70239" lon="6.84823">
        <ele>732.8</ele>
        <time>2026-05-15T14:22:42Z</time>
      </trkpt>
      <trkpt lat="43.70228" lon="6.84818">
        <ele>731.9</ele>
        <time>2026-05-15T14:22:43Z</time>
      </trkpt>
      <trkpt lat="43.70218" lon="6.84815">
        <ele>731</ele>
        <time>2026-05-15T14:22:44Z</time>
      </trkpt>
      <trkpt lat="43.70208" lon="6.84814">
        <ele>730.3</ele>
        <time>2026-05-15T14:22:45Z</time>
      </trkpt>
      <trkpt lat="43.70198" lon="6.84816">
        <ele>729.6</ele>
        <time>2026-05-15T14:22:46Z</time>
      </trkpt>
      <trkpt lat="43.70188" lon="6.84821">
        <ele>729.1</ele>
        <time>2026-05-15T14:22:47Z</time>
      </trkpt>
      <trkpt lat="43.70179" lon="6.84827">
        <ele>728.7</ele>
        <time>2026-05-15T14:22:48Z</time>
      </trkpt>
      <trkpt lat="43.70172" lon="6.84835">
        <ele>728.4</ele>
        <time>2026-05-15T14:22:49Z</time>
      </trkpt>
      <trkpt lat="43.70165" lon="6.84844">
        <ele>728.3</ele>
        <time>2026-05-15T14:22:50Z</time>
      </trkpt>
      <trkpt lat="43.70159" lon="6.84852">
        <ele>728.1</ele>
        <time>2026-05-15T14:22:51Z</time>
      </trkpt>
      <trkpt lat="43.70153" lon="6.84857">
        <ele>727.9</ele>
        <time>2026-05-15T14:22:52Z</time>
      </trkpt>
      <trkpt lat="43.70148" lon="6.84862">
        <ele>727.7</ele>
        <time>2026-05-15T14:22:53Z</time>
      </trkpt>
      <trkpt lat="43.70143" lon="6.84868">
        <ele>727.5</ele>
        <time>2026-05-15T14:22:54Z</time>
      </trkpt>
      <trkpt lat="43.70138" lon="6.84875">
        <ele>727.4</ele>
        <time>2026-05-15T14:22:55Z</time>
      </trkpt>
      <trkpt lat="43.70131" lon="6.84881">
        <ele>726.9</ele>
        <time>2026-05-15T14:22:56Z</time>
      </trkpt>
      <trkpt lat="43.70124" lon="6.84887">
        <ele>726.3</ele>
        <time>2026-05-15T14:22:57Z</time>
      </trkpt>
      <trkpt lat="43.70115" lon="6.84891">
        <ele>725.5</ele>
        <time>2026-05-15T14:22:58Z</time>
      </trkpt>
      <trkpt lat="43.70106" lon="6.84894">
        <ele>724.8</ele>
        <time>2026-05-15T14:22:59Z</time>
      </trkpt>
      <trkpt lat="43.70097" lon="6.84894">
        <ele>724.1</ele>
        <time>2026-05-15T14:23:00Z</time>
      </trkpt>
      <trkpt lat="43.70088" lon="6.84893">
        <ele>723.4</ele>
        <time>2026-05-15T14:23:01Z</time>
      </trkpt>
      <trkpt lat="43.7008" lon="6.84891">
        <ele>722.6</ele>
        <time>2026-05-15T14:23:02Z</time>
      </trkpt>
      <trkpt lat="43.70073" lon="6.84889">
        <ele>721.9</ele>
        <time>2026-05-15T14:23:03Z</time>
      </trkpt>
      <trkpt lat="43.70066" lon="6.84886">
        <ele>721.1</ele>
        <time>2026-05-15T14:23:04Z</time>
      </trkpt>
      <trkpt lat="43.70062" lon="6.84884">
        <ele>720.7</ele>
        <time>2026-05-15T14:23:05Z</time>
      </trkpt>
      <trkpt lat="43.70057" lon="6.84883">
        <ele>720.1</ele>
        <time>2026-05-15T14:23:06Z</time>
      </trkpt>
      <trkpt lat="43.70052" lon="6.84881">
        <ele>719.7</ele>
        <time>2026-05-15T14:23:07Z</time>
      </trkpt>
      <trkpt lat="43.70047" lon="6.84879">
        <ele>719.4</ele>
        <time>2026-05-15T14:23:08Z</time>
      </trkpt>
      <trkpt lat="43.70042" lon="6.84877">
        <ele>719</ele>
        <time>2026-05-15T14:23:09Z</time>
      </trkpt>
      <trkpt lat="43.70036" lon="6.84876">
        <ele>718.6</ele>
        <time>2026-05-15T14:23:10Z</time>
      </trkpt>
      <trkpt lat="43.7003" lon="6.84873">
        <ele>718.2</ele>
        <time>2026-05-15T14:23:11Z</time>
      </trkpt>
      <trkpt lat="43.70024" lon="6.84871">
        <ele>717.7</ele>
        <time>2026-05-15T14:23:12Z</time>
      </trkpt>
      <trkpt lat="43.70016" lon="6.84868">
        <ele>717.2</ele>
        <time>2026-05-15T14:23:13Z</time>
      </trkpt>
      <trkpt lat="43.70008" lon="6.84866">
        <ele>716.6</ele>
        <time>2026-05-15T14:23:14Z</time>
      </trkpt>
      <trkpt lat="43.70001" lon="6.84863">
        <ele>716.1</ele>
        <time>2026-05-15T14:23:15Z</time>
      </trkpt>
      <trkpt lat="43.69994" lon="6.84859">
        <ele>715.5</ele>
        <time>2026-05-15T14:23:16Z</time>
      </trkpt>
      <trkpt lat="43.69987" lon="6.84856">
        <ele>715</ele>
        <time>2026-05-15T14:23:17Z</time>
      </trkpt>
      <trkpt lat="43.69979" lon="6.84853">
        <ele>714.4</ele>
        <time>2026-05-15T14:23:18Z</time>
      </trkpt>
      <trkpt lat="43.69972" lon="6.8485">
        <ele>714</ele>
        <time>2026-05-15T14:23:19Z</time>
      </trkpt>
      <trkpt lat="43.69964" lon="6.84847">
        <ele>713.6</ele>
        <time>2026-05-15T14:23:20Z</time>
      </trkpt>
      <trkpt lat="43.69958" lon="6.84843">
        <ele>713.2</ele>
        <time>2026-05-15T14:23:21Z</time>
      </trkpt>
      <trkpt lat="43.69953" lon="6.84836">
        <ele>712.7</ele>
        <time>2026-05-15T14:23:22Z</time>
      </trkpt>
      <trkpt lat="43.69949" lon="6.84831">
        <ele>712.3</ele>
        <time>2026-05-15T14:23:23Z</time>
      </trkpt>
      <trkpt lat="43.69944" lon="6.84828">
        <ele>712</ele>
        <time>2026-05-15T14:23:24Z</time>
      </trkpt>
      <trkpt lat="43.69939" lon="6.84829">
        <ele>712</ele>
        <time>2026-05-15T14:23:25Z</time>
      </trkpt>
      <trkpt lat="43.69932" lon="6.84831">
        <ele>712</ele>
        <time>2026-05-15T14:23:26Z</time>
      </trkpt>
      <trkpt lat="43.69926" lon="6.84833">
        <ele>712</ele>
        <time>2026-05-15T14:23:27Z</time>
      </trkpt>
      <trkpt lat="43.6992" lon="6.84832">
        <ele>712</ele>
        <time>2026-05-15T14:23:28Z</time>
      </trkpt>
      <trkpt lat="43.69916" lon="6.8483">
        <ele>712</ele>
        <time>2026-05-15T14:23:29Z</time>
      </trkpt>
      <trkpt lat="43.69912" lon="6.84829">
        <ele>712</ele>
        <time>2026-05-15T14:23:30Z</time>
      </trkpt>
      <trkpt lat="43.69908" lon="6.84827">
        <ele>712.1</ele>
        <time>2026-05-15T14:23:31Z</time>
      </trkpt>
      <trkpt lat="43.69905" lon="6.84826">
        <ele>712.1</ele>
        <time>2026-05-15T14:23:32Z</time>
      </trkpt>
      <trkpt lat="43.69901" lon="6.84825">
        <ele>712.2</ele>
        <time>2026-05-15T14:23:33Z</time>
      </trkpt>
      <trkpt lat="43.69898" lon="6.84824">
        <ele>712.2</ele>
        <time>2026-05-15T14:23:34Z</time>
      </trkpt>
      <trkpt lat="43.69896" lon="6.84823">
        <ele>712.3</ele>
        <time>2026-05-15T14:23:35Z</time>
      </trkpt>
      <trkpt lat="43.69894" lon="6.84822">
        <ele>712.3</ele>
        <time>2026-05-15T14:23:36Z</time>
      </trkpt>
      <trkpt lat="43.69891" lon="6.84821">
        <ele>712.4</ele>
        <time>2026-05-15T14:23:37Z</time>
      </trkpt>
      <trkpt lat="43.69889" lon="6.8482">
        <ele>712.5</ele>
        <time>2026-05-15T14:23:38Z</time>
      </trkpt>
      <trkpt lat="43.69886" lon="6.84819">
        <ele>712.6</ele>
        <time>2026-05-15T14:23:39Z</time>
      </trkpt>
      <trkpt lat="43.69883" lon="6.84818">
        <ele>712.8</ele>
        <time>2026-05-15T14:23:40Z</time>
      </trkpt>
      <trkpt lat="43.69879" lon="6.84815">
        <ele>713</ele>
        <time>2026-05-15T14:23:41Z</time>
      </trkpt>
      <trkpt lat="43.69875" lon="6.84813">
        <ele>713.2</ele>
        <time>2026-05-15T14:23:42Z</time>
      </trkpt>
      <trkpt lat="43.6987" lon="6.84813">
        <ele>713.4</ele>
        <time>2026-05-15T14:23:43Z</time>
      </trkpt>
      <trkpt lat="43.69864" lon="6.84811">
        <ele>713.7</ele>
        <time>2026-05-15T14:23:44Z</time>
      </trkpt>
      <trkpt lat="43.69859" lon="6.8481">
        <ele>713.9</ele>
        <time>2026-05-15T14:23:45Z</time>
      </trkpt>
      <trkpt lat="43.69853" lon="6.84811">
        <ele>713.9</ele>
        <time>2026-05-15T14:23:46Z</time>
      </trkpt>
      <trkpt lat="43.69847" lon="6.84815">
        <ele>713.8</ele>
        <time>2026-05-15T14:23:47Z</time>
      </trkpt>
      <trkpt lat="43.69842" lon="6.84821">
        <ele>713.8</ele>
        <time>2026-05-15T14:23:48Z</time>
      </trkpt>
      <trkpt lat="43.69838" lon="6.84829">
        <ele>713.9</ele>
        <time>2026-05-15T14:23:49Z</time>
      </trkpt>
      <trkpt lat="43.69835" lon="6.84838">
        <ele>713.9</ele>
        <time>2026-05-15T14:23:50Z</time>
      </trkpt>
      <trkpt lat="43.69832" lon="6.84846">
        <ele>714</ele>
        <time>2026-05-15T14:23:51Z</time>
      </trkpt>
      <trkpt lat="43.6983" lon="6.84856">
        <ele>713.9</ele>
        <time>2026-05-15T14:23:52Z</time>
      </trkpt>
      <trkpt lat="43.69826" lon="6.84866">
        <ele>713.8</ele>
        <time>2026-05-15T14:23:53Z</time>
      </trkpt>
      <trkpt lat="43.69824" lon="6.84876">
        <ele>713.8</ele>
        <time>2026-05-15T14:23:54Z</time>
      </trkpt>
      <trkpt lat="43.69824" lon="6.84888">
        <ele>714</ele>
        <time>2026-05-15T14:23:55Z</time>
      </trkpt>
      <trkpt lat="43.69821" lon="6.84898">
        <ele>714</ele>
        <time>2026-05-15T14:23:56Z</time>
      </trkpt>
      <trkpt lat="43.6982" lon="6.84909">
        <ele>714</ele>
        <time>2026-05-15T14:23:57Z</time>
      </trkpt>
      <trkpt lat="43.69818" lon="6.84921">
        <ele>714</ele>
        <time>2026-05-15T14:23:58Z</time>
      </trkpt>
      <trkpt lat="43.69815" lon="6.84932">
        <ele>714</ele>
        <time>2026-05-15T14:23:59Z</time>
      </trkpt>
      <trkpt lat="43.69813" lon="6.84944">
        <ele>714</ele>
        <time>2026-05-15T14:24:00Z</time>
      </trkpt>
      <trkpt lat="43.6981" lon="6.84955">
        <ele>714</ele>
        <time>2026-05-15T14:24:01Z</time>
      </trkpt>
      <trkpt lat="43.69807" lon="6.84966">
        <ele>714</ele>
        <time>2026-05-15T14:24:02Z</time>
      </trkpt>
      <trkpt lat="43.69804" lon="6.84978">
        <ele>714</ele>
        <time>2026-05-15T14:24:03Z</time>
      </trkpt>
      <trkpt lat="43.69801" lon="6.8499">
        <ele>713.9</ele>
        <time>2026-05-15T14:24:04Z</time>
      </trkpt>
      <trkpt lat="43.69797" lon="6.85003">
        <ele>714</ele>
        <time>2026-05-15T14:24:05Z</time>
      </trkpt>
      <trkpt lat="43.69792" lon="6.85014">
        <ele>714</ele>
        <time>2026-05-15T14:24:06Z</time>
      </trkpt>
      <trkpt lat="43.69786" lon="6.85027">
        <ele>714</ele>
        <time>2026-05-15T14:24:07Z</time>
      </trkpt>
      <trkpt lat="43.69779" lon="6.85038">
        <ele>714</ele>
        <time>2026-05-15T14:24:08Z</time>
      </trkpt>
      <trkpt lat="43.69772" lon="6.85049">
        <ele>713.8</ele>
        <time>2026-05-15T14:24:09Z</time>
      </trkpt>
      <trkpt lat="43.69765" lon="6.85059">
        <ele>713.7</ele>
        <time>2026-05-15T14:24:10Z</time>
      </trkpt>
      <trkpt lat="43.69759" lon="6.85071">
        <ele>713.9</ele>
        <time>2026-05-15T14:24:11Z</time>
      </trkpt>
      <trkpt lat="43.69752" lon="6.8508">
        <ele>714</ele>
        <time>2026-05-15T14:24:12Z</time>
      </trkpt>
      <trkpt lat="43.69746" lon="6.85089">
        <ele>713.7</ele>
        <time>2026-05-15T14:24:13Z</time>
      </trkpt>
      <trkpt lat="43.69742" lon="6.85095">
        <ele>713.5</ele>
        <time>2026-05-15T14:24:14Z</time>
      </trkpt>
      <trkpt lat="43.69738" lon="6.85101">
        <ele>713.4</ele>
        <time>2026-05-15T14:24:15Z</time>
      </trkpt>
      <trkpt lat="43.69735" lon="6.85106">
        <ele>713.4</ele>
        <time>2026-05-15T14:24:16Z</time>
      </trkpt>
      <trkpt lat="43.69732" lon="6.8511">
        <ele>713.3</ele>
        <time>2026-05-15T14:24:17Z</time>
      </trkpt>
      <trkpt lat="43.69728" lon="6.85116">
        <ele>713.2</ele>
        <time>2026-05-15T14:24:18Z</time>
      </trkpt>
      <trkpt lat="43.69724" lon="6.85123">
        <ele>713.1</ele>
        <time>2026-05-15T14:24:19Z</time>
      </trkpt>
      <trkpt lat="43.6972" lon="6.85131">
        <ele>712.9</ele>
        <time>2026-05-15T14:24:20Z</time>
      </trkpt>
      <trkpt lat="43.69715" lon="6.85139">
        <ele>712.7</ele>
        <time>2026-05-15T14:24:21Z</time>
      </trkpt>
      <trkpt lat="43.6971" lon="6.85147">
        <ele>712.7</ele>
        <time>2026-05-15T14:24:22Z</time>
      </trkpt>
      <trkpt lat="43.69705" lon="6.85156">
        <ele>712.8</ele>
        <time>2026-05-15T14:24:23Z</time>
      </trkpt>
      <trkpt lat="43.697" lon="6.85164">
        <ele>712.9</ele>
        <time>2026-05-15T14:24:24Z</time>
      </trkpt>
      <trkpt lat="43.69694" lon="6.85172">
        <ele>713</ele>
        <time>2026-05-15T14:24:25Z</time>
      </trkpt>
      <trkpt lat="43.69689" lon="6.85181">
        <ele>712.8</ele>
        <time>2026-05-15T14:24:26Z</time>
      </trkpt>
      <trkpt lat="43.69683" lon="6.8519">
        <ele>712.6</ele>
        <time>2026-05-15T14:24:27Z</time>
      </trkpt>
      <trkpt lat="43.69677" lon="6.85199">
        <ele>712.5</ele>
        <time>2026-05-15T14:24:28Z</time>
      </trkpt>
      <trkpt lat="43.69672" lon="6.85208">
        <ele>712.7</ele>
        <time>2026-05-15T14:24:29Z</time>
      </trkpt>
      <trkpt lat="43.69669" lon="6.85218">
        <ele>712.9</ele>
        <time>2026-05-15T14:24:30Z</time>
      </trkpt>
      <trkpt lat="43.69665" lon="6.85228">
        <ele>713.1</ele>
        <time>2026-05-15T14:24:31Z</time>
      </trkpt>
      <trkpt lat="43.6966" lon="6.85237">
        <ele>713.3</ele>
        <time>2026-05-15T14:24:32Z</time>
      </trkpt>
      <trkpt lat="43.69654" lon="6.85246">
        <ele>713.4</ele>
        <time>2026-05-15T14:24:33Z</time>
      </trkpt>
      <trkpt lat="43.69647" lon="6.85255">
        <ele>713.5</ele>
        <time>2026-05-15T14:24:34Z</time>
      </trkpt>
      <trkpt lat="43.6964" lon="6.85264">
        <ele>713.5</ele>
        <time>2026-05-15T14:24:35Z</time>
      </trkpt>
      <trkpt lat="43.69632" lon="6.85274">
        <ele>713.6</ele>
        <time>2026-05-15T14:24:36Z</time>
      </trkpt>
      <trkpt lat="43.69624" lon="6.85284">
        <ele>713.7</ele>
        <time>2026-05-15T14:24:37Z</time>
      </trkpt>
      <trkpt lat="43.69616" lon="6.85295">
        <ele>713.8</ele>
        <time>2026-05-15T14:24:38Z</time>
      </trkpt>
      <trkpt lat="43.69607" lon="6.85307">
        <ele>713.9</ele>
        <time>2026-05-15T14:24:39Z</time>
      </trkpt>
      <trkpt lat="43.696" lon="6.8532">
        <ele>714.1</ele>
        <time>2026-05-15T14:24:40Z</time>
      </trkpt>
      <trkpt lat="43.69591" lon="6.85333">
        <ele>714.3</ele>
        <time>2026-05-15T14:24:41Z</time>
      </trkpt>
      <trkpt lat="43.69584" lon="6.85347">
        <ele>714.5</ele>
        <time>2026-05-15T14:24:42Z</time>
      </trkpt>
      <trkpt lat="43.69576" lon="6.8536">
        <ele>714.7</ele>
        <time>2026-05-15T14:24:43Z</time>
      </trkpt>
      <trkpt lat="43.69567" lon="6.85373">
        <ele>714.8</ele>
        <time>2026-05-15T14:24:44Z</time>
      </trkpt>
      <trkpt lat="43.69558" lon="6.85386">
        <ele>715</ele>
        <time>2026-05-15T14:24:45Z</time>
      </trkpt>
      <trkpt lat="43.6955" lon="6.85399">
        <ele>714.8</ele>
        <time>2026-05-15T14:24:46Z</time>
      </trkpt>
      <trkpt lat="43.69542" lon="6.85411">
        <ele>714.5</ele>
        <time>2026-05-15T14:24:47Z</time>
      </trkpt>
      <trkpt lat="43.69535" lon="6.85424">
        <ele>714.5</ele>
        <time>2026-05-15T14:24:48Z</time>
      </trkpt>
      <trkpt lat="43.69528" lon="6.85436">
        <ele>714.7</ele>
        <time>2026-05-15T14:24:49Z</time>
      </trkpt>
      <trkpt lat="43.6952" lon="6.85448">
        <ele>714.7</ele>
        <time>2026-05-15T14:24:50Z</time>
      </trkpt>
      <trkpt lat="43.69512" lon="6.8546">
        <ele>714.4</ele>
        <time>2026-05-15T14:24:51Z</time>
      </trkpt>
      <trkpt lat="43.69505" lon="6.85472">
        <ele>714.2</ele>
        <time>2026-05-15T14:24:52Z</time>
      </trkpt>
      <trkpt lat="43.69498" lon="6.85483">
        <ele>714.3</ele>
        <time>2026-05-15T14:24:53Z</time>
      </trkpt>
      <trkpt lat="43.69491" lon="6.85493">
        <ele>714.4</ele>
        <time>2026-05-15T14:24:54Z</time>
      </trkpt>
      <trkpt lat="43.69484" lon="6.85503">
        <ele>714.5</ele>
        <time>2026-05-15T14:24:55Z</time>
      </trkpt>
      <trkpt lat="43.69478" lon="6.85513">
        <ele>714.7</ele>
        <time>2026-05-15T14:24:56Z</time>
      </trkpt>
      <trkpt lat="43.69472" lon="6.85521">
        <ele>714.8</ele>
        <time>2026-05-15T14:24:57Z</time>
      </trkpt>
      <trkpt lat="43.69467" lon="6.8553">
        <ele>715.1</ele>
        <time>2026-05-15T14:24:58Z</time>
      </trkpt>
      <trkpt lat="43.69461" lon="6.8554">
        <ele>715.4</ele>
        <time>2026-05-15T14:24:59Z</time>
      </trkpt>
      <trkpt lat="43.69454" lon="6.8555">
        <ele>715.8</ele>
        <time>2026-05-15T14:25:00Z</time>
      </trkpt>
      <trkpt lat="43.69447" lon="6.85559">
        <ele>716.1</ele>
        <time>2026-05-15T14:25:01Z</time>
      </trkpt>
      <trkpt lat="43.69441" lon="6.85568">
        <ele>716.4</ele>
        <time>2026-05-15T14:25:02Z</time>
      </trkpt>
      <trkpt lat="43.69434" lon="6.85578">
        <ele>716.8</ele>
        <time>2026-05-15T14:25:03Z</time>
      </trkpt>
      <trkpt lat="43.69429" lon="6.85588">
        <ele>717.2</ele>
        <time>2026-05-15T14:25:04Z</time>
      </trkpt>
      <trkpt lat="43.69422" lon="6.85599">
        <ele>717.6</ele>
        <time>2026-05-15T14:25:05Z</time>
      </trkpt>
      <trkpt lat="43.69417" lon="6.8561">
        <ele>718</ele>
        <time>2026-05-15T14:25:06Z</time>
      </trkpt>
      <trkpt lat="43.69411" lon="6.85623">
        <ele>718.4</ele>
        <time>2026-05-15T14:25:07Z</time>
      </trkpt>
      <trkpt lat="43.69405" lon="6.85636">
        <ele>718.9</ele>
        <time>2026-05-15T14:25:08Z</time>
      </trkpt>
      <trkpt lat="43.694" lon="6.8565">
        <ele>719.6</ele>
        <time>2026-05-15T14:25:09Z</time>
      </trkpt>
      <trkpt lat="43.69394" lon="6.85663">
        <ele>720</ele>
        <time>2026-05-15T14:25:10Z</time>
      </trkpt>
      <trkpt lat="43.6939" lon="6.85677">
        <ele>720.8</ele>
        <time>2026-05-15T14:25:11Z</time>
      </trkpt>
      <trkpt lat="43.69385" lon="6.8569">
        <ele>721.7</ele>
        <time>2026-05-15T14:25:12Z</time>
      </trkpt>
      <trkpt lat="43.6938" lon="6.85704">
        <ele>722.3</ele>
        <time>2026-05-15T14:25:13Z</time>
      </trkpt>
      <trkpt lat="43.69376" lon="6.85719">
        <ele>722.9</ele>
        <time>2026-05-15T14:25:14Z</time>
      </trkpt>
      <trkpt lat="43.69371" lon="6.85734">
        <ele>723.4</ele>
        <time>2026-05-15T14:25:15Z</time>
      </trkpt>
      <trkpt lat="43.69367" lon="6.85749">
        <ele>724</ele>
        <time>2026-05-15T14:25:16Z</time>
      </trkpt>
      <trkpt lat="43.69363" lon="6.85764">
        <ele>724.5</ele>
        <time>2026-05-15T14:25:17Z</time>
      </trkpt>
      <trkpt lat="43.69359" lon="6.85779">
        <ele>725</ele>
        <time>2026-05-15T14:25:18Z</time>
      </trkpt>
      <trkpt lat="43.69355" lon="6.85795">
        <ele>725.5</ele>
        <time>2026-05-15T14:25:19Z</time>
      </trkpt>
      <trkpt lat="43.69351" lon="6.85809">
        <ele>726.2</ele>
        <time>2026-05-15T14:25:20Z</time>
      </trkpt>
      <trkpt lat="43.69348" lon="6.85825">
        <ele>727.1</ele>
        <time>2026-05-15T14:25:21Z</time>
      </trkpt>
      <trkpt lat="43.69344" lon="6.85841">
        <ele>727.7</ele>
        <time>2026-05-15T14:25:22Z</time>
      </trkpt>
      <trkpt lat="43.69341" lon="6.85857">
        <ele>728.1</ele>
        <time>2026-05-15T14:25:23Z</time>
      </trkpt>
      <trkpt lat="43.69336" lon="6.85874">
        <ele>729</ele>
        <time>2026-05-15T14:25:24Z</time>
      </trkpt>
      <trkpt lat="43.69332" lon="6.85891">
        <ele>730</ele>
        <time>2026-05-15T14:25:25Z</time>
      </trkpt>
      <trkpt lat="43.69328" lon="6.85908">
        <ele>730.5</ele>
        <time>2026-05-15T14:25:26Z</time>
      </trkpt>
      <trkpt lat="43.69322" lon="6.85925">
        <ele>731.2</ele>
        <time>2026-05-15T14:25:27Z</time>
      </trkpt>
      <trkpt lat="43.69315" lon="6.85943">
        <ele>732.2</ele>
        <time>2026-05-15T14:25:28Z</time>
      </trkpt>
      <trkpt lat="43.69308" lon="6.85959">
        <ele>732.7</ele>
        <time>2026-05-15T14:25:29Z</time>
      </trkpt>
      <trkpt lat="43.69299" lon="6.85976">
        <ele>733</ele>
        <time>2026-05-15T14:25:30Z</time>
      </trkpt>
      <trkpt lat="43.6929" lon="6.85992">
        <ele>733.9</ele>
        <time>2026-05-15T14:25:31Z</time>
      </trkpt>
      <trkpt lat="43.6928" lon="6.86008">
        <ele>734.7</ele>
        <time>2026-05-15T14:25:32Z</time>
      </trkpt>
      <trkpt lat="43.6927" lon="6.86023">
        <ele>735.1</ele>
        <time>2026-05-15T14:25:33Z</time>
      </trkpt>
      <trkpt lat="43.69259" lon="6.86038">
        <ele>735.3</ele>
        <time>2026-05-15T14:25:34Z</time>
      </trkpt>
      <trkpt lat="43.69248" lon="6.86053">
        <ele>735.7</ele>
        <time>2026-05-15T14:25:35Z</time>
      </trkpt>
      <trkpt lat="43.69238" lon="6.8607">
        <ele>736.2</ele>
        <time>2026-05-15T14:25:36Z</time>
      </trkpt>
      <trkpt lat="43.69229" lon="6.86088">
        <ele>736.5</ele>
        <time>2026-05-15T14:25:37Z</time>
      </trkpt>
      <trkpt lat="43.69219" lon="6.86106">
        <ele>735.7</ele>
        <time>2026-05-15T14:25:38Z</time>
      </trkpt>
      <trkpt lat="43.6921" lon="6.86125">
        <ele>735.6</ele>
        <time>2026-05-15T14:25:39Z</time>
      </trkpt>
      <trkpt lat="43.69202" lon="6.86143">
        <ele>735.7</ele>
        <time>2026-05-15T14:25:40Z</time>
      </trkpt>
      <trkpt lat="43.69193" lon="6.86159">
        <ele>735.7</ele>
        <time>2026-05-15T14:25:41Z</time>
      </trkpt>
      <trkpt lat="43.69185" lon="6.86175">
        <ele>736.2</ele>
        <time>2026-05-15T14:25:42Z</time>
      </trkpt>
      <trkpt lat="43.69178" lon="6.86191">
        <ele>736.6</ele>
        <time>2026-05-15T14:25:43Z</time>
      </trkpt>
      <trkpt lat="43.6917" lon="6.86206">
        <ele>737.1</ele>
        <time>2026-05-15T14:25:44Z</time>
      </trkpt>
      <trkpt lat="43.69163" lon="6.86221">
        <ele>737.8</ele>
        <time>2026-05-15T14:25:45Z</time>
      </trkpt>
      <trkpt lat="43.69156" lon="6.86237">
        <ele>738.1</ele>
        <time>2026-05-15T14:25:46Z</time>
      </trkpt>
      <trkpt lat="43.69149" lon="6.86254">
        <ele>738.6</ele>
        <time>2026-05-15T14:25:47Z</time>
      </trkpt>
      <trkpt lat="43.69143" lon="6.86271">
        <ele>739</ele>
        <time>2026-05-15T14:25:48Z</time>
      </trkpt>
      <trkpt lat="43.69137" lon="6.86289">
        <ele>739.3</ele>
        <time>2026-05-15T14:25:49Z</time>
      </trkpt>
      <trkpt lat="43.69132" lon="6.86307">
        <ele>739.9</ele>
        <time>2026-05-15T14:25:50Z</time>
      </trkpt>
      <trkpt lat="43.69127" lon="6.86325">
        <ele>741</ele>
        <time>2026-05-15T14:25:51Z</time>
      </trkpt>
      <trkpt lat="43.69124" lon="6.86344">
        <ele>741.7</ele>
        <time>2026-05-15T14:25:52Z</time>
      </trkpt>
      <trkpt lat="43.69121" lon="6.86362">
        <ele>742</ele>
        <time>2026-05-15T14:25:53Z</time>
      </trkpt>
      <trkpt lat="43.69119" lon="6.8638">
        <ele>742.2</ele>
        <time>2026-05-15T14:25:54Z</time>
      </trkpt>
      <trkpt lat="43.69117" lon="6.86398">
        <ele>742.5</ele>
        <time>2026-05-15T14:25:55Z</time>
      </trkpt>
      <trkpt lat="43.69115" lon="6.86417">
        <ele>743.1</ele>
        <time>2026-05-15T14:25:56Z</time>
      </trkpt>
      <trkpt lat="43.69111" lon="6.86436">
        <ele>743</ele>
        <time>2026-05-15T14:25:57Z</time>
      </trkpt>
      <trkpt lat="43.69107" lon="6.86453">
        <ele>743.6</ele>
        <time>2026-05-15T14:25:58Z</time>
      </trkpt>
      <trkpt lat="43.69103" lon="6.86471">
        <ele>744.5</ele>
        <time>2026-05-15T14:25:59Z</time>
      </trkpt>
      <trkpt lat="43.69099" lon="6.86489">
        <ele>745.5</ele>
        <time>2026-05-15T14:26:00Z</time>
      </trkpt>
      <trkpt lat="43.69093" lon="6.86506">
        <ele>746.4</ele>
        <time>2026-05-15T14:26:01Z</time>
      </trkpt>
      <trkpt lat="43.69088" lon="6.86524">
        <ele>746.8</ele>
        <time>2026-05-15T14:26:02Z</time>
      </trkpt>
      <trkpt lat="43.69082" lon="6.86541">
        <ele>747.1</ele>
        <time>2026-05-15T14:26:03Z</time>
      </trkpt>
      <trkpt lat="43.69077" lon="6.86558">
        <ele>747.8</ele>
        <time>2026-05-15T14:26:04Z</time>
      </trkpt>
      <trkpt lat="43.69072" lon="6.86576">
        <ele>748.7</ele>
        <time>2026-05-15T14:26:05Z</time>
      </trkpt>
      <trkpt lat="43.69065" lon="6.86593">
        <ele>749.4</ele>
        <time>2026-05-15T14:26:06Z</time>
      </trkpt>
      <trkpt lat="43.6906" lon="6.86611">
        <ele>749.8</ele>
        <time>2026-05-15T14:26:07Z</time>
      </trkpt>
      <trkpt lat="43.69054" lon="6.86628">
        <ele>750.7</ele>
        <time>2026-05-15T14:26:08Z</time>
      </trkpt>
      <trkpt lat="43.69048" lon="6.86645">
        <ele>751.3</ele>
        <time>2026-05-15T14:26:09Z</time>
      </trkpt>
      <trkpt lat="43.69042" lon="6.86662">
        <ele>751.5</ele>
        <time>2026-05-15T14:26:10Z</time>
      </trkpt>
      <trkpt lat="43.69037" lon="6.8668">
        <ele>751.3</ele>
        <time>2026-05-15T14:26:11Z</time>
      </trkpt>
      <trkpt lat="43.69031" lon="6.86697">
        <ele>751</ele>
        <time>2026-05-15T14:26:12Z</time>
      </trkpt>
      <trkpt lat="43.69026" lon="6.86715">
        <ele>751.1</ele>
        <time>2026-05-15T14:26:13Z</time>
      </trkpt>
      <trkpt lat="43.6902" lon="6.86732">
        <ele>751.2</ele>
        <time>2026-05-15T14:26:14Z</time>
      </trkpt>
      <trkpt lat="43.69015" lon="6.86749">
        <ele>751</ele>
        <time>2026-05-15T14:26:15Z</time>
      </trkpt>
      <trkpt lat="43.69009" lon="6.86766">
        <ele>751.2</ele>
        <time>2026-05-15T14:26:16Z</time>
      </trkpt>
      <trkpt lat="43.69003" lon="6.86784">
        <ele>751.3</ele>
        <time>2026-05-15T14:26:17Z</time>
      </trkpt>
      <trkpt lat="43.68998" lon="6.86802">
        <ele>751.8</ele>
        <time>2026-05-15T14:26:18Z</time>
      </trkpt>
      <trkpt lat="43.68992" lon="6.8682">
        <ele>752.2</ele>
        <time>2026-05-15T14:26:19Z</time>
      </trkpt>
      <trkpt lat="43.68986" lon="6.86838">
        <ele>752.7</ele>
        <time>2026-05-15T14:26:20Z</time>
      </trkpt>
      <trkpt lat="43.6898" lon="6.86856">
        <ele>753.1</ele>
        <time>2026-05-15T14:26:21Z</time>
      </trkpt>
      <trkpt lat="43.68974" lon="6.86874">
        <ele>753.1</ele>
        <time>2026-05-15T14:26:22Z</time>
      </trkpt>
      <trkpt lat="43.68968" lon="6.86893">
        <ele>753</ele>
        <time>2026-05-15T14:26:23Z</time>
      </trkpt>
      <trkpt lat="43.68962" lon="6.86912">
        <ele>753.5</ele>
        <time>2026-05-15T14:26:24Z</time>
      </trkpt>
      <trkpt lat="43.68956" lon="6.86931">
        <ele>753.4</ele>
        <time>2026-05-15T14:26:25Z</time>
      </trkpt>
      <trkpt lat="43.68949" lon="6.86951">
        <ele>753.4</ele>
        <time>2026-05-15T14:26:26Z</time>
      </trkpt>
      <trkpt lat="43.68944" lon="6.8697">
        <ele>753.9</ele>
        <time>2026-05-15T14:26:27Z</time>
      </trkpt>
      <trkpt lat="43.68937" lon="6.86989">
        <ele>753.7</ele>
        <time>2026-05-15T14:26:28Z</time>
      </trkpt>
      <trkpt lat="43.6893" lon="6.87008">
        <ele>753.6</ele>
        <time>2026-05-15T14:26:29Z</time>
      </trkpt>
      <trkpt lat="43.68922" lon="6.87027">
        <ele>754</ele>
        <time>2026-05-15T14:26:30Z</time>
      </trkpt>
      <trkpt lat="43.68913" lon="6.87047">
        <ele>753.9</ele>
        <time>2026-05-15T14:26:31Z</time>
      </trkpt>
      <trkpt lat="43.68903" lon="6.87067">
        <ele>753.9</ele>
        <time>2026-05-15T14:26:32Z</time>
      </trkpt>
      <trkpt lat="43.68893" lon="6.87087">
        <ele>754.3</ele>
        <time>2026-05-15T14:26:33Z</time>
      </trkpt>
      <trkpt lat="43.68884" lon="6.87106">
        <ele>754.6</ele>
        <time>2026-05-15T14:26:34Z</time>
      </trkpt>
      <trkpt lat="43.68874" lon="6.87124">
        <ele>754.9</ele>
        <time>2026-05-15T14:26:35Z</time>
      </trkpt>
      <trkpt lat="43.68866" lon="6.87141">
        <ele>755.3</ele>
        <time>2026-05-15T14:26:36Z</time>
      </trkpt>
      <trkpt lat="43.68857" lon="6.87158">
        <ele>755.5</ele>
        <time>2026-05-15T14:26:37Z</time>
      </trkpt>
      <trkpt lat="43.68849" lon="6.87176">
        <ele>755.9</ele>
        <time>2026-05-15T14:26:38Z</time>
      </trkpt>
      <trkpt lat="43.68841" lon="6.87193">
        <ele>756.2</ele>
        <time>2026-05-15T14:26:39Z</time>
      </trkpt>
      <trkpt lat="43.68833" lon="6.8721">
        <ele>756.5</ele>
        <time>2026-05-15T14:26:40Z</time>
      </trkpt>
      <trkpt lat="43.68827" lon="6.87228">
        <ele>756.8</ele>
        <time>2026-05-15T14:26:41Z</time>
      </trkpt>
      <trkpt lat="43.68823" lon="6.87247">
        <ele>757.5</ele>
        <time>2026-05-15T14:26:42Z</time>
      </trkpt>
      <trkpt lat="43.6882" lon="6.87267">
        <ele>758.1</ele>
        <time>2026-05-15T14:26:43Z</time>
      </trkpt>
      <trkpt lat="43.68817" lon="6.87287">
        <ele>758.5</ele>
        <time>2026-05-15T14:26:44Z</time>
      </trkpt>
      <trkpt lat="43.68815" lon="6.87308">
        <ele>758.7</ele>
        <time>2026-05-15T14:26:45Z</time>
      </trkpt>
      <trkpt lat="43.68811" lon="6.87327">
        <ele>759</ele>
        <time>2026-05-15T14:26:46Z</time>
      </trkpt>
      <trkpt lat="43.68808" lon="6.87345">
        <ele>759.1</ele>
        <time>2026-05-15T14:26:47Z</time>
      </trkpt>
      <trkpt lat="43.68803" lon="6.87363">
        <ele>759</ele>
        <time>2026-05-15T14:26:48Z</time>
      </trkpt>
      <trkpt lat="43.68798" lon="6.87381">
        <ele>759.2</ele>
        <time>2026-05-15T14:26:49Z</time>
      </trkpt>
      <trkpt lat="43.68791" lon="6.87398">
        <ele>759.3</ele>
        <time>2026-05-15T14:26:50Z</time>
      </trkpt>
      <trkpt lat="43.68783" lon="6.87415">
        <ele>759.3</ele>
        <time>2026-05-15T14:26:51Z</time>
      </trkpt>
      <trkpt lat="43.68774" lon="6.87433">
        <ele>759.5</ele>
        <time>2026-05-15T14:26:52Z</time>
      </trkpt>
      <trkpt lat="43.68766" lon="6.87451">
        <ele>759.8</ele>
        <time>2026-05-15T14:26:53Z</time>
      </trkpt>
      <trkpt lat="43.68758" lon="6.87468">
        <ele>760.1</ele>
        <time>2026-05-15T14:26:54Z</time>
      </trkpt>
      <trkpt lat="43.68751" lon="6.87487">
        <ele>760.6</ele>
        <time>2026-05-15T14:26:55Z</time>
      </trkpt>
      <trkpt lat="43.68743" lon="6.87506">
        <ele>761</ele>
        <time>2026-05-15T14:26:56Z</time>
      </trkpt>
      <trkpt lat="43.68736" lon="6.87526">
        <ele>761.4</ele>
        <time>2026-05-15T14:26:57Z</time>
      </trkpt>
      <trkpt lat="43.68729" lon="6.87546">
        <ele>761.9</ele>
        <time>2026-05-15T14:26:58Z</time>
      </trkpt>
      <trkpt lat="43.68723" lon="6.87568">
        <ele>762.5</ele>
        <time>2026-05-15T14:26:59Z</time>
      </trkpt>
      <trkpt lat="43.68718" lon="6.87589">
        <ele>763.1</ele>
        <time>2026-05-15T14:27:00Z</time>
      </trkpt>
      <trkpt lat="43.68712" lon="6.87611">
        <ele>763.6</ele>
        <time>2026-05-15T14:27:01Z</time>
      </trkpt>
      <trkpt lat="43.68705" lon="6.87632">
        <ele>763.8</ele>
        <time>2026-05-15T14:27:02Z</time>
      </trkpt>
      <trkpt lat="43.68699" lon="6.87654">
        <ele>764.6</ele>
        <time>2026-05-15T14:27:03Z</time>
      </trkpt>
      <trkpt lat="43.68693" lon="6.87675">
        <ele>765</ele>
        <time>2026-05-15T14:27:04Z</time>
      </trkpt>
      <trkpt lat="43.68687" lon="6.87697">
        <ele>765.1</ele>
        <time>2026-05-15T14:27:05Z</time>
      </trkpt>
      <trkpt lat="43.68679" lon="6.87718">
        <ele>765.4</ele>
        <time>2026-05-15T14:27:06Z</time>
      </trkpt>
      <trkpt lat="43.68672" lon="6.87739">
        <ele>765.8</ele>
        <time>2026-05-15T14:27:07Z</time>
      </trkpt>
      <trkpt lat="43.68664" lon="6.8776">
        <ele>766.4</ele>
        <time>2026-05-15T14:27:08Z</time>
      </trkpt>
      <trkpt lat="43.68656" lon="6.8778">
        <ele>767.1</ele>
        <time>2026-05-15T14:27:09Z</time>
      </trkpt>
      <trkpt lat="43.68648" lon="6.87799">
        <ele>767.8</ele>
        <time>2026-05-15T14:27:10Z</time>
      </trkpt>
      <trkpt lat="43.6864" lon="6.87819">
        <ele>768.5</ele>
        <time>2026-05-15T14:27:11Z</time>
      </trkpt>
      <trkpt lat="43.68633" lon="6.87838">
        <ele>769.2</ele>
        <time>2026-05-15T14:27:12Z</time>
      </trkpt>
      <trkpt lat="43.68625" lon="6.87858">
        <ele>769.9</ele>
        <time>2026-05-15T14:27:13Z</time>
      </trkpt>
      <trkpt lat="43.68617" lon="6.87878">
        <ele>771.2</ele>
        <time>2026-05-15T14:27:14Z</time>
      </trkpt>
      <trkpt lat="43.6861" lon="6.87897">
        <ele>772.3</ele>
        <time>2026-05-15T14:27:15Z</time>
      </trkpt>
      <trkpt lat="43.68601" lon="6.87917">
        <ele>773</ele>
        <time>2026-05-15T14:27:16Z</time>
      </trkpt>
      <trkpt lat="43.68594" lon="6.87937">
        <ele>774</ele>
        <time>2026-05-15T14:27:17Z</time>
      </trkpt>
      <trkpt lat="43.68586" lon="6.87958">
        <ele>774.6</ele>
        <time>2026-05-15T14:27:18Z</time>
      </trkpt>
      <trkpt lat="43.68579" lon="6.87977">
        <ele>775.1</ele>
        <time>2026-05-15T14:27:19Z</time>
      </trkpt>
      <trkpt lat="43.68572" lon="6.87995">
        <ele>775.5</ele>
        <time>2026-05-15T14:27:20Z</time>
      </trkpt>
      <trkpt lat="43.68565" lon="6.88012">
        <ele>775.8</ele>
        <time>2026-05-15T14:27:21Z</time>
      </trkpt>
      <trkpt lat="43.68559" lon="6.88029">
        <ele>776.2</ele>
        <time>2026-05-15T14:27:22Z</time>
      </trkpt>
      <trkpt lat="43.68553" lon="6.88047">
        <ele>777.3</ele>
        <time>2026-05-15T14:27:23Z</time>
      </trkpt>
      <trkpt lat="43.68547" lon="6.88065">
        <ele>778</ele>
        <time>2026-05-15T14:27:24Z</time>
      </trkpt>
      <trkpt lat="43.6854" lon="6.88083">
        <ele>778.4</ele>
        <time>2026-05-15T14:27:25Z</time>
      </trkpt>
      <trkpt lat="43.68534" lon="6.88102">
        <ele>778.7</ele>
        <time>2026-05-15T14:27:26Z</time>
      </trkpt>
      <trkpt lat="43.68529" lon="6.88122">
        <ele>779.4</ele>
        <time>2026-05-15T14:27:27Z</time>
      </trkpt>
      <trkpt lat="43.68524" lon="6.88142">
        <ele>780.1</ele>
        <time>2026-05-15T14:27:28Z</time>
      </trkpt>
      <trkpt lat="43.6852" lon="6.88163">
        <ele>780.9</ele>
        <time>2026-05-15T14:27:29Z</time>
      </trkpt>
      <trkpt lat="43.68516" lon="6.88184">
        <ele>781</ele>
        <time>2026-05-15T14:27:30Z</time>
      </trkpt>
      <trkpt lat="43.68513" lon="6.88205">
        <ele>781.2</ele>
        <time>2026-05-15T14:27:31Z</time>
      </trkpt>
      <trkpt lat="43.68509" lon="6.88226">
        <ele>781.4</ele>
        <time>2026-05-15T14:27:32Z</time>
      </trkpt>
      <trkpt lat="43.68506" lon="6.88246">
        <ele>781.4</ele>
        <time>2026-05-15T14:27:33Z</time>
      </trkpt>
      <trkpt lat="43.68504" lon="6.88265">
        <ele>781.3</ele>
        <time>2026-05-15T14:27:34Z</time>
      </trkpt>
      <trkpt lat="43.68502" lon="6.88285">
        <ele>781.4</ele>
        <time>2026-05-15T14:27:35Z</time>
      </trkpt>
      <trkpt lat="43.68499" lon="6.88304">
        <ele>781.8</ele>
        <time>2026-05-15T14:27:36Z</time>
      </trkpt>
      <trkpt lat="43.68496" lon="6.88324">
        <ele>782.1</ele>
        <time>2026-05-15T14:27:37Z</time>
      </trkpt>
      <trkpt lat="43.68493" lon="6.88345">
        <ele>781.9</ele>
        <time>2026-05-15T14:27:38Z</time>
      </trkpt>
      <trkpt lat="43.68491" lon="6.88366">
        <ele>781.2</ele>
        <time>2026-05-15T14:27:39Z</time>
      </trkpt>
      <trkpt lat="43.68488" lon="6.88388">
        <ele>779.9</ele>
        <time>2026-05-15T14:27:40Z</time>
      </trkpt>
      <trkpt lat="43.68484" lon="6.88409">
        <ele>778.7</ele>
        <time>2026-05-15T14:27:41Z</time>
      </trkpt>
      <trkpt lat="43.68478" lon="6.88431">
        <ele>777.5</ele>
        <time>2026-05-15T14:27:42Z</time>
      </trkpt>
      <trkpt lat="43.6847" lon="6.88452">
        <ele>775.7</ele>
        <time>2026-05-15T14:27:43Z</time>
      </trkpt>
      <trkpt lat="43.6846" lon="6.88472">
        <ele>773.5</ele>
        <time>2026-05-15T14:27:44Z</time>
      </trkpt>
      <trkpt lat="43.68449" lon="6.88492">
        <ele>771.1</ele>
        <time>2026-05-15T14:27:45Z</time>
      </trkpt>
      <trkpt lat="43.68437" lon="6.88512">
        <ele>770.2</ele>
        <time>2026-05-15T14:27:46Z</time>
      </trkpt>
      <trkpt lat="43.68425" lon="6.88532">
        <ele>769.4</ele>
        <time>2026-05-15T14:27:47Z</time>
      </trkpt>
      <trkpt lat="43.68414" lon="6.88553">
        <ele>768.3</ele>
        <time>2026-05-15T14:27:48Z</time>
      </trkpt>
      <trkpt lat="43.68402" lon="6.88574">
        <ele>768.3</ele>
        <time>2026-05-15T14:27:49Z</time>
      </trkpt>
      <trkpt lat="43.68389" lon="6.88595">
        <ele>767.3</ele>
        <time>2026-05-15T14:27:50Z</time>
      </trkpt>
      <trkpt lat="43.68378" lon="6.88616">
        <ele>766.9</ele>
        <time>2026-05-15T14:27:51Z</time>
      </trkpt>
      <trkpt lat="43.68367" lon="6.88638">
        <ele>765.4</ele>
        <time>2026-05-15T14:27:52Z</time>
      </trkpt>
      <trkpt lat="43.68358" lon="6.88662">
        <ele>764.2</ele>
        <time>2026-05-15T14:27:53Z</time>
      </trkpt>
      <trkpt lat="43.6835" lon="6.88686">
        <ele>763.4</ele>
        <time>2026-05-15T14:27:54Z</time>
      </trkpt>
      <trkpt lat="43.68344" lon="6.88711">
        <ele>762.9</ele>
        <time>2026-05-15T14:27:55Z</time>
      </trkpt>
      <trkpt lat="43.6834" lon="6.88735">
        <ele>762.4</ele>
        <time>2026-05-15T14:27:56Z</time>
      </trkpt>
      <trkpt lat="43.68337" lon="6.88759">
        <ele>761.8</ele>
        <time>2026-05-15T14:27:57Z</time>
      </trkpt>
      <trkpt lat="43.68334" lon="6.88781">
        <ele>761.5</ele>
        <time>2026-05-15T14:27:58Z</time>
      </trkpt>
      <trkpt lat="43.68326" lon="6.888">
        <ele>760.4</ele>
        <time>2026-05-15T14:27:59Z</time>
      </trkpt>
      <trkpt lat="43.68315" lon="6.88817">
        <ele>760.1</ele>
        <time>2026-05-15T14:28:00Z</time>
      </trkpt>
      <trkpt lat="43.68303" lon="6.8883">
        <ele>759.6</ele>
        <time>2026-05-15T14:28:01Z</time>
      </trkpt>
      <trkpt lat="43.6829" lon="6.88842">
        <ele>758.8</ele>
        <time>2026-05-15T14:28:02Z</time>
      </trkpt>
      <trkpt lat="43.68277" lon="6.88857">
        <ele>758</ele>
        <time>2026-05-15T14:28:03Z</time>
      </trkpt>
      <trkpt lat="43.68265" lon="6.88873">
        <ele>756.1</ele>
        <time>2026-05-15T14:28:04Z</time>
      </trkpt>
      <trkpt lat="43.68255" lon="6.88893">
        <ele>755.4</ele>
        <time>2026-05-15T14:28:05Z</time>
      </trkpt>
      <trkpt lat="43.68245" lon="6.88912">
        <ele>754.3</ele>
        <time>2026-05-15T14:28:06Z</time>
      </trkpt>
      <trkpt lat="43.68235" lon="6.88931">
        <ele>753.1</ele>
        <time>2026-05-15T14:28:07Z</time>
      </trkpt>
      <trkpt lat="43.68225" lon="6.88951">
        <ele>752.1</ele>
        <time>2026-05-15T14:28:08Z</time>
      </trkpt>
      <trkpt lat="43.68215" lon="6.8897">
        <ele>750.6</ele>
        <time>2026-05-15T14:28:09Z</time>
      </trkpt>
      <trkpt lat="43.68205" lon="6.8899">
        <ele>749.8</ele>
        <time>2026-05-15T14:28:10Z</time>
      </trkpt>
      <trkpt lat="43.68195" lon="6.89009">
        <ele>748.9</ele>
        <time>2026-05-15T14:28:11Z</time>
      </trkpt>
      <trkpt lat="43.68185" lon="6.89028">
        <ele>748.6</ele>
        <time>2026-05-15T14:28:12Z</time>
      </trkpt>
      <trkpt lat="43.68174" lon="6.89046">
        <ele>747.4</ele>
        <time>2026-05-15T14:28:13Z</time>
      </trkpt>
      <trkpt lat="43.68163" lon="6.89064">
        <ele>746.3</ele>
        <time>2026-05-15T14:28:14Z</time>
      </trkpt>
      <trkpt lat="43.68152" lon="6.89082">
        <ele>746</ele>
        <time>2026-05-15T14:28:15Z</time>
      </trkpt>
      <trkpt lat="43.6814" lon="6.891">
        <ele>744.2</ele>
        <time>2026-05-15T14:28:16Z</time>
      </trkpt>
      <trkpt lat="43.68127" lon="6.89117">
        <ele>742</ele>
        <time>2026-05-15T14:28:17Z</time>
      </trkpt>
      <trkpt lat="43.68113" lon="6.89135">
        <ele>740.1</ele>
        <time>2026-05-15T14:28:18Z</time>
      </trkpt>
      <trkpt lat="43.681" lon="6.89152">
        <ele>738.8</ele>
        <time>2026-05-15T14:28:19Z</time>
      </trkpt>
      <trkpt lat="43.68088" lon="6.8917">
        <ele>738.2</ele>
        <time>2026-05-15T14:28:20Z</time>
      </trkpt>
      <trkpt lat="43.68077" lon="6.8919">
        <ele>736.2</ele>
        <time>2026-05-15T14:28:21Z</time>
      </trkpt>
      <trkpt lat="43.68067" lon="6.89209">
        <ele>735.5</ele>
        <time>2026-05-15T14:28:22Z</time>
      </trkpt>
      <trkpt lat="43.68058" lon="6.8923">
        <ele>735.5</ele>
        <time>2026-05-15T14:28:23Z</time>
      </trkpt>
      <trkpt lat="43.68049" lon="6.89249">
        <ele>733.3</ele>
        <time>2026-05-15T14:28:24Z</time>
      </trkpt>
      <trkpt lat="43.6804" lon="6.89269">
        <ele>733.1</ele>
        <time>2026-05-15T14:28:25Z</time>
      </trkpt>
      <trkpt lat="43.68031" lon="6.89288">
        <ele>732.3</ele>
        <time>2026-05-15T14:28:26Z</time>
      </trkpt>
      <trkpt lat="43.68022" lon="6.89307">
        <ele>730.5</ele>
        <time>2026-05-15T14:28:27Z</time>
      </trkpt>
      <trkpt lat="43.68013" lon="6.89326">
        <ele>730</ele>
        <time>2026-05-15T14:28:28Z</time>
      </trkpt>
      <trkpt lat="43.68005" lon="6.89345">
        <ele>729.3</ele>
        <time>2026-05-15T14:28:29Z</time>
      </trkpt>
      <trkpt lat="43.67996" lon="6.89363">
        <ele>728.1</ele>
        <time>2026-05-15T14:28:30Z</time>
      </trkpt>
      <trkpt lat="43.67987" lon="6.8938">
        <ele>727.6</ele>
        <time>2026-05-15T14:28:31Z</time>
      </trkpt>
      <trkpt lat="43.67978" lon="6.89397">
        <ele>727.1</ele>
        <time>2026-05-15T14:28:32Z</time>
      </trkpt>
      <trkpt lat="43.67969" lon="6.89414">
        <ele>726</ele>
        <time>2026-05-15T14:28:33Z</time>
      </trkpt>
      <trkpt lat="43.67961" lon="6.8943">
        <ele>725.4</ele>
        <time>2026-05-15T14:28:34Z</time>
      </trkpt>
      <trkpt lat="43.67954" lon="6.89444">
        <ele>724.7</ele>
        <time>2026-05-15T14:28:35Z</time>
      </trkpt>
      <trkpt lat="43.67948" lon="6.89457">
        <ele>723.1</ele>
        <time>2026-05-15T14:28:36Z</time>
      </trkpt>
      <trkpt lat="43.67943" lon="6.89472">
        <ele>721.6</ele>
        <time>2026-05-15T14:28:37Z</time>
      </trkpt>
      <trkpt lat="43.67942" lon="6.89489">
        <ele>721.4</ele>
        <time>2026-05-15T14:28:38Z</time>
      </trkpt>
      <trkpt lat="43.67944" lon="6.89505">
        <ele>721.7</ele>
        <time>2026-05-15T14:28:39Z</time>
      </trkpt>
      <trkpt lat="43.67949" lon="6.8952">
        <ele>722.5</ele>
        <time>2026-05-15T14:28:40Z</time>
      </trkpt>
      <trkpt lat="43.67954" lon="6.89534">
        <ele>722.9</ele>
        <time>2026-05-15T14:28:41Z</time>
      </trkpt>
      <trkpt lat="43.67959" lon="6.89548">
        <ele>722.4</ele>
        <time>2026-05-15T14:28:42Z</time>
      </trkpt>
      <trkpt lat="43.67961" lon="6.89562">
        <ele>721.6</ele>
        <time>2026-05-15T14:28:43Z</time>
      </trkpt>
      <trkpt lat="43.6796" lon="6.89576">
        <ele>721.6</ele>
        <time>2026-05-15T14:28:44Z</time>
      </trkpt>
      <trkpt lat="43.67955" lon="6.89588">
        <ele>722.5</ele>
        <time>2026-05-15T14:28:45Z</time>
      </trkpt>
      <trkpt lat="43.67947" lon="6.89597">
        <ele>723.4</ele>
        <time>2026-05-15T14:28:46Z</time>
      </trkpt>
      <trkpt lat="43.67937" lon="6.89607">
        <ele>723</ele>
        <time>2026-05-15T14:28:47Z</time>
      </trkpt>
      <trkpt lat="43.67926" lon="6.89619">
        <ele>722.5</ele>
        <time>2026-05-15T14:28:48Z</time>
      </trkpt>
      <trkpt lat="43.67914" lon="6.89631">
        <ele>721.2</ele>
        <time>2026-05-15T14:28:49Z</time>
      </trkpt>
      <trkpt lat="43.67902" lon="6.89645">
        <ele>720.4</ele>
        <time>2026-05-15T14:28:50Z</time>
      </trkpt>
      <trkpt lat="43.6789" lon="6.89661">
        <ele>718.8</ele>
        <time>2026-05-15T14:28:51Z</time>
      </trkpt>
      <trkpt lat="43.6788" lon="6.89677">
        <ele>717.9</ele>
        <time>2026-05-15T14:28:52Z</time>
      </trkpt>
      <trkpt lat="43.6787" lon="6.89695">
        <ele>717.6</ele>
        <time>2026-05-15T14:28:53Z</time>
      </trkpt>
      <trkpt lat="43.67862" lon="6.89713">
        <ele>715.7</ele>
        <time>2026-05-15T14:28:54Z</time>
      </trkpt>
      <trkpt lat="43.67854" lon="6.89733">
        <ele>715</ele>
        <time>2026-05-15T14:28:55Z</time>
      </trkpt>
      <trkpt lat="43.67846" lon="6.89752">
        <ele>714.7</ele>
        <time>2026-05-15T14:28:56Z</time>
      </trkpt>
      <trkpt lat="43.67838" lon="6.89772">
        <ele>712.7</ele>
        <time>2026-05-15T14:28:57Z</time>
      </trkpt>
      <trkpt lat="43.6783" lon="6.89792">
        <ele>711.2</ele>
        <time>2026-05-15T14:28:58Z</time>
      </trkpt>
      <trkpt lat="43.67823" lon="6.89812">
        <ele>710.8</ele>
        <time>2026-05-15T14:28:59Z</time>
      </trkpt>
      <trkpt lat="43.67817" lon="6.89832">
        <ele>711.3</ele>
        <time>2026-05-15T14:29:00Z</time>
      </trkpt>
      <trkpt lat="43.6781" lon="6.89852">
        <ele>709.5</ele>
        <time>2026-05-15T14:29:01Z</time>
      </trkpt>
      <trkpt lat="43.67805" lon="6.89872">
        <ele>707.8</ele>
        <time>2026-05-15T14:29:02Z</time>
      </trkpt>
      <trkpt lat="43.67801" lon="6.89891">
        <ele>706.5</ele>
        <time>2026-05-15T14:29:03Z</time>
      </trkpt>
      <trkpt lat="43.67797" lon="6.8991">
        <ele>707.2</ele>
        <time>2026-05-15T14:29:04Z</time>
      </trkpt>
      <trkpt lat="43.67793" lon="6.89928">
        <ele>706.9</ele>
        <time>2026-05-15T14:29:05Z</time>
      </trkpt>
      <trkpt lat="43.67789" lon="6.89947">
        <ele>706.4</ele>
        <time>2026-05-15T14:29:06Z</time>
      </trkpt>
      <trkpt lat="43.67784" lon="6.89965">
        <ele>704.8</ele>
        <time>2026-05-15T14:29:07Z</time>
      </trkpt>
      <trkpt lat="43.6778" lon="6.89984">
        <ele>703.6</ele>
        <time>2026-05-15T14:29:08Z</time>
      </trkpt>
      <trkpt lat="43.67776" lon="6.90002">
        <ele>702.1</ele>
        <time>2026-05-15T14:29:09Z</time>
      </trkpt>
      <trkpt lat="43.67772" lon="6.90021">
        <ele>700.8</ele>
        <time>2026-05-15T14:29:10Z</time>
      </trkpt>
      <trkpt lat="43.67769" lon="6.9004">
        <ele>700.2</ele>
        <time>2026-05-15T14:29:11Z</time>
      </trkpt>
      <trkpt lat="43.67767" lon="6.90059">
        <ele>699.8</ele>
        <time>2026-05-15T14:29:12Z</time>
      </trkpt>
      <trkpt lat="43.67767" lon="6.90077">
        <ele>699.2</ele>
        <time>2026-05-15T14:29:13Z</time>
      </trkpt>
      <trkpt lat="43.67769" lon="6.90095">
        <ele>697.8</ele>
        <time>2026-05-15T14:29:14Z</time>
      </trkpt>
      <trkpt lat="43.67773" lon="6.90112">
        <ele>696.2</ele>
        <time>2026-05-15T14:29:15Z</time>
      </trkpt>
      <trkpt lat="43.67778" lon="6.90129">
        <ele>696.8</ele>
        <time>2026-05-15T14:29:16Z</time>
      </trkpt>
      <trkpt lat="43.67783" lon="6.90145">
        <ele>696.6</ele>
        <time>2026-05-15T14:29:17Z</time>
      </trkpt>
      <trkpt lat="43.67789" lon="6.9016">
        <ele>695.5</ele>
        <time>2026-05-15T14:29:18Z</time>
      </trkpt>
      <trkpt lat="43.67796" lon="6.90175">
        <ele>694.8</ele>
        <time>2026-05-15T14:29:19Z</time>
      </trkpt>
      <trkpt lat="43.67803" lon="6.90188">
        <ele>694.5</ele>
        <time>2026-05-15T14:29:20Z</time>
      </trkpt>
      <trkpt lat="43.67812" lon="6.90199">
        <ele>694.2</ele>
        <time>2026-05-15T14:29:21Z</time>
      </trkpt>
      <trkpt lat="43.67821" lon="6.90209">
        <ele>693.7</ele>
        <time>2026-05-15T14:29:22Z</time>
      </trkpt>
      <trkpt lat="43.6783" lon="6.90217">
        <ele>694.2</ele>
        <time>2026-05-15T14:29:23Z</time>
      </trkpt>
      <trkpt lat="43.67839" lon="6.90224">
        <ele>693.7</ele>
        <time>2026-05-15T14:29:24Z</time>
      </trkpt>
      <trkpt lat="43.67847" lon="6.90232">
        <ele>692.7</ele>
        <time>2026-05-15T14:29:25Z</time>
      </trkpt>
      <trkpt lat="43.67853" lon="6.90242">
        <ele>692.6</ele>
        <time>2026-05-15T14:29:26Z</time>
      </trkpt>
      <trkpt lat="43.67856" lon="6.90254">
        <ele>693.2</ele>
        <time>2026-05-15T14:29:27Z</time>
      </trkpt>
      <trkpt lat="43.67856" lon="6.90265">
        <ele>693.7</ele>
        <time>2026-05-15T14:29:28Z</time>
      </trkpt>
      <trkpt lat="43.67853" lon="6.90276">
        <ele>693.3</ele>
        <time>2026-05-15T14:29:29Z</time>
      </trkpt>
      <trkpt lat="43.67846" lon="6.90286">
        <ele>692.2</ele>
        <time>2026-05-15T14:29:30Z</time>
      </trkpt>
      <trkpt lat="43.67837" lon="6.90292">
        <ele>691.3</ele>
        <time>2026-05-15T14:29:31Z</time>
      </trkpt>
      <trkpt lat="43.67827" lon="6.90295">
        <ele>690.7</ele>
        <time>2026-05-15T14:29:32Z</time>
      </trkpt>
      <trkpt lat="43.67816" lon="6.90298">
        <ele>690.5</ele>
        <time>2026-05-15T14:29:33Z</time>
      </trkpt>
      <trkpt lat="43.67805" lon="6.90302">
        <ele>690.8</ele>
        <time>2026-05-15T14:29:34Z</time>
      </trkpt>
      <trkpt lat="43.67795" lon="6.90307">
        <ele>691.6</ele>
        <time>2026-05-15T14:29:35Z</time>
      </trkpt>
      <trkpt lat="43.67785" lon="6.90313">
        <ele>691.8</ele>
        <time>2026-05-15T14:29:36Z</time>
      </trkpt>
      <trkpt lat="43.67776" lon="6.90324">
        <ele>691.3</ele>
        <time>2026-05-15T14:29:37Z</time>
      </trkpt>
      <trkpt lat="43.67769" lon="6.90337">
        <ele>690.1</ele>
        <time>2026-05-15T14:29:38Z</time>
      </trkpt>
      <trkpt lat="43.67762" lon="6.90352">
        <ele>689.4</ele>
        <time>2026-05-15T14:29:39Z</time>
      </trkpt>
      <trkpt lat="43.67756" lon="6.90369">
        <ele>688.8</ele>
        <time>2026-05-15T14:29:40Z</time>
      </trkpt>
      <trkpt lat="43.6775" lon="6.90385">
        <ele>686.9</ele>
        <time>2026-05-15T14:29:41Z</time>
      </trkpt>
      <trkpt lat="43.67744" lon="6.90401">
        <ele>685.7</ele>
        <time>2026-05-15T14:29:42Z</time>
      </trkpt>
      <trkpt lat="43.67738" lon="6.90418">
        <ele>685.7</ele>
        <time>2026-05-15T14:29:43Z</time>
      </trkpt>
      <trkpt lat="43.67732" lon="6.90435">
        <ele>686.5</ele>
        <time>2026-05-15T14:29:44Z</time>
      </trkpt>
      <trkpt lat="43.67726" lon="6.9045">
        <ele>686.1</ele>
        <time>2026-05-15T14:29:45Z</time>
      </trkpt>
      <trkpt lat="43.67717" lon="6.90462">
        <ele>684.5</ele>
        <time>2026-05-15T14:29:46Z</time>
      </trkpt>
      <trkpt lat="43.67707" lon="6.90468">
        <ele>684</ele>
        <time>2026-05-15T14:29:47Z</time>
      </trkpt>
      <trkpt lat="43.67696" lon="6.90468">
        <ele>683.3</ele>
        <time>2026-05-15T14:29:48Z</time>
      </trkpt>
      <trkpt lat="43.67686" lon="6.90463">
        <ele>682.9</ele>
        <time>2026-05-15T14:29:49Z</time>
      </trkpt>
      <trkpt lat="43.67678" lon="6.90454">
        <ele>682.5</ele>
        <time>2026-05-15T14:29:50Z</time>
      </trkpt>
      <trkpt lat="43.67674" lon="6.90441">
        <ele>681.6</ele>
        <time>2026-05-15T14:29:51Z</time>
      </trkpt>
      <trkpt lat="43.67671" lon="6.90425">
        <ele>681</ele>
        <time>2026-05-15T14:29:52Z</time>
      </trkpt>
      <trkpt lat="43.67672" lon="6.90409">
        <ele>679.4</ele>
        <time>2026-05-15T14:29:53Z</time>
      </trkpt>
      <trkpt lat="43.67672" lon="6.9039">
        <ele>677.6</ele>
        <time>2026-05-15T14:29:54Z</time>
      </trkpt>
      <trkpt lat="43.67673" lon="6.90372">
        <ele>676.8</ele>
        <time>2026-05-15T14:29:55Z</time>
      </trkpt>
      <trkpt lat="43.67673" lon="6.90353">
        <ele>676.4</ele>
        <time>2026-05-15T14:29:56Z</time>
      </trkpt>
      <trkpt lat="43.67674" lon="6.90335">
        <ele>675.6</ele>
        <time>2026-05-15T14:29:57Z</time>
      </trkpt>
      <trkpt lat="43.67673" lon="6.90317">
        <ele>674.1</ele>
        <time>2026-05-15T14:29:58Z</time>
      </trkpt>
      <trkpt lat="43.67671" lon="6.903">
        <ele>673.6</ele>
        <time>2026-05-15T14:29:59Z</time>
      </trkpt>
      <trkpt lat="43.67666" lon="6.90283">
        <ele>675.5</ele>
        <time>2026-05-15T14:30:00Z</time>
      </trkpt>
      <trkpt lat="43.67659" lon="6.90265">
        <ele>674.4</ele>
        <time>2026-05-15T14:30:01Z</time>
      </trkpt>
      <trkpt lat="43.6765" lon="6.90247">
        <ele>672.3</ele>
        <time>2026-05-15T14:30:02Z</time>
      </trkpt>
      <trkpt lat="43.6764" lon="6.90228">
        <ele>672.5</ele>
        <time>2026-05-15T14:30:03Z</time>
      </trkpt>
      <trkpt lat="43.67632" lon="6.90209">
        <ele>671.9</ele>
        <time>2026-05-15T14:30:04Z</time>
      </trkpt>
      <trkpt lat="43.67625" lon="6.90189">
        <ele>669.8</ele>
        <time>2026-05-15T14:30:05Z</time>
      </trkpt>
      <trkpt lat="43.67618" lon="6.90168">
        <ele>668.8</ele>
        <time>2026-05-15T14:30:06Z</time>
      </trkpt>
      <trkpt lat="43.67613" lon="6.90148">
        <ele>668.3</ele>
        <time>2026-05-15T14:30:07Z</time>
      </trkpt>
      <trkpt lat="43.67608" lon="6.90126">
        <ele>667.1</ele>
        <time>2026-05-15T14:30:08Z</time>
      </trkpt>
      <trkpt lat="43.67604" lon="6.90105">
        <ele>663.9</ele>
        <time>2026-05-15T14:30:09Z</time>
      </trkpt>
      <trkpt lat="43.67599" lon="6.90085">
        <ele>661.7</ele>
        <time>2026-05-15T14:30:10Z</time>
      </trkpt>
      <trkpt lat="43.67595" lon="6.90065">
        <ele>661.1</ele>
        <time>2026-05-15T14:30:11Z</time>
      </trkpt>
      <trkpt lat="43.67589" lon="6.90047">
        <ele>662.2</ele>
        <time>2026-05-15T14:30:12Z</time>
      </trkpt>
      <trkpt lat="43.67582" lon="6.90031">
        <ele>664.4</ele>
        <time>2026-05-15T14:30:13Z</time>
      </trkpt>
      <trkpt lat="43.67572" lon="6.90019">
        <ele>663.6</ele>
        <time>2026-05-15T14:30:14Z</time>
      </trkpt>
      <trkpt lat="43.67561" lon="6.9001">
        <ele>663.1</ele>
        <time>2026-05-15T14:30:15Z</time>
      </trkpt>
      <trkpt lat="43.6755" lon="6.90003">
        <ele>662</ele>
        <time>2026-05-15T14:30:16Z</time>
      </trkpt>
      <trkpt lat="43.67537" lon="6.9">
        <ele>661</ele>
        <time>2026-05-15T14:30:17Z</time>
      </trkpt>
      <trkpt lat="43.67523" lon="6.89999">
        <ele>660.5</ele>
        <time>2026-05-15T14:30:18Z</time>
      </trkpt>
      <trkpt lat="43.67509" lon="6.90002">
        <ele>661</ele>
        <time>2026-05-15T14:30:19Z</time>
      </trkpt>
      <trkpt lat="43.67495" lon="6.90006">
        <ele>660.4</ele>
        <time>2026-05-15T14:30:20Z</time>
      </trkpt>
      <trkpt lat="43.67481" lon="6.90011">
        <ele>658.1</ele>
        <time>2026-05-15T14:30:21Z</time>
      </trkpt>
      <trkpt lat="43.67467" lon="6.90017">
        <ele>656.3</ele>
        <time>2026-05-15T14:30:22Z</time>
      </trkpt>
      <trkpt lat="43.67451" lon="6.90023">
        <ele>655.3</ele>
        <time>2026-05-15T14:30:23Z</time>
      </trkpt>
      <trkpt lat="43.67436" lon="6.90029">
        <ele>655.3</ele>
        <time>2026-05-15T14:30:24Z</time>
      </trkpt>
      <trkpt lat="43.6742" lon="6.90035">
        <ele>655.3</ele>
        <time>2026-05-15T14:30:25Z</time>
      </trkpt>
      <trkpt lat="43.67404" lon="6.90041">
        <ele>652.9</ele>
        <time>2026-05-15T14:30:26Z</time>
      </trkpt>
      <trkpt lat="43.67389" lon="6.90049">
        <ele>650.7</ele>
        <time>2026-05-15T14:30:27Z</time>
      </trkpt>
      <trkpt lat="43.67374" lon="6.90058">
        <ele>650.2</ele>
        <time>2026-05-15T14:30:28Z</time>
      </trkpt>
      <trkpt lat="43.67359" lon="6.90068">
        <ele>649.5</ele>
        <time>2026-05-15T14:30:29Z</time>
      </trkpt>
      <trkpt lat="43.67344" lon="6.90078">
        <ele>649</ele>
        <time>2026-05-15T14:30:30Z</time>
      </trkpt>
      <trkpt lat="43.6733" lon="6.90087">
        <ele>648.5</ele>
        <time>2026-05-15T14:30:31Z</time>
      </trkpt>
      <trkpt lat="43.67315" lon="6.90096">
        <ele>647.9</ele>
        <time>2026-05-15T14:30:32Z</time>
      </trkpt>
      <trkpt lat="43.67301" lon="6.90105">
        <ele>647</ele>
        <time>2026-05-15T14:30:33Z</time>
      </trkpt>
      <trkpt lat="43.67286" lon="6.90113">
        <ele>646.7</ele>
        <time>2026-05-15T14:30:34Z</time>
      </trkpt>
      <trkpt lat="43.67273" lon="6.90122">
        <ele>646.3</ele>
        <time>2026-05-15T14:30:35Z</time>
      </trkpt>
      <trkpt lat="43.67258" lon="6.90132">
        <ele>644.7</ele>
        <time>2026-05-15T14:30:36Z</time>
      </trkpt>
      <trkpt lat="43.67245" lon="6.90144">
        <ele>643.8</ele>
        <time>2026-05-15T14:30:37Z</time>
      </trkpt>
      <trkpt lat="43.67232" lon="6.90158">
        <ele>643.1</ele>
        <time>2026-05-15T14:30:38Z</time>
      </trkpt>
      <trkpt lat="43.67221" lon="6.90175">
        <ele>642.2</ele>
        <time>2026-05-15T14:30:39Z</time>
      </trkpt>
      <trkpt lat="43.67211" lon="6.90194">
        <ele>641.1</ele>
        <time>2026-05-15T14:30:40Z</time>
      </trkpt>
      <trkpt lat="43.67202" lon="6.90214">
        <ele>640.3</ele>
        <time>2026-05-15T14:30:41Z</time>
      </trkpt>
      <trkpt lat="43.67193" lon="6.90235">
        <ele>639.1</ele>
        <time>2026-05-15T14:30:42Z</time>
      </trkpt>
      <trkpt lat="43.67184" lon="6.90255">
        <ele>637.8</ele>
        <time>2026-05-15T14:30:43Z</time>
      </trkpt>
      <trkpt lat="43.67176" lon="6.90276">
        <ele>637.8</ele>
        <time>2026-05-15T14:30:44Z</time>
      </trkpt>
      <trkpt lat="43.67168" lon="6.90298">
        <ele>636.3</ele>
        <time>2026-05-15T14:30:45Z</time>
      </trkpt>
      <trkpt lat="43.67161" lon="6.9032">
        <ele>634.8</ele>
        <time>2026-05-15T14:30:46Z</time>
      </trkpt>
      <trkpt lat="43.67155" lon="6.90344">
        <ele>634.3</ele>
        <time>2026-05-15T14:30:47Z</time>
      </trkpt>
      <trkpt lat="43.6715" lon="6.90367">
        <ele>633.9</ele>
        <time>2026-05-15T14:30:48Z</time>
      </trkpt>
      <trkpt lat="43.67145" lon="6.9039">
        <ele>632.8</ele>
        <time>2026-05-15T14:30:49Z</time>
      </trkpt>
      <trkpt lat="43.67142" lon="6.90414">
        <ele>632</ele>
        <time>2026-05-15T14:30:50Z</time>
      </trkpt>
      <trkpt lat="43.67141" lon="6.90438">
        <ele>630.9</ele>
        <time>2026-05-15T14:30:51Z</time>
      </trkpt>
      <trkpt lat="43.67141" lon="6.90461">
        <ele>630.1</ele>
        <time>2026-05-15T14:30:52Z</time>
      </trkpt>
      <trkpt lat="43.67143" lon="6.90484">
        <ele>629.4</ele>
        <time>2026-05-15T14:30:53Z</time>
      </trkpt>
      <trkpt lat="43.67146" lon="6.90506">
        <ele>628.8</ele>
        <time>2026-05-15T14:30:54Z</time>
      </trkpt>
      <trkpt lat="43.67147" lon="6.90528">
        <ele>627.5</ele>
        <time>2026-05-15T14:30:55Z</time>
      </trkpt>
      <trkpt lat="43.67146" lon="6.90549">
        <ele>625.7</ele>
        <time>2026-05-15T14:30:56Z</time>
      </trkpt>
      <trkpt lat="43.67141" lon="6.90568">
        <ele>624.9</ele>
        <time>2026-05-15T14:30:57Z</time>
      </trkpt>
      <trkpt lat="43.67135" lon="6.90586">
        <ele>625</ele>
        <time>2026-05-15T14:30:58Z</time>
      </trkpt>
      <trkpt lat="43.67122" lon="6.90598">
        <ele>622.7</ele>
        <time>2026-05-15T14:30:59Z</time>
      </trkpt>
      <trkpt lat="43.67111" lon="6.90614">
        <ele>622.4</ele>
        <time>2026-05-15T14:31:00Z</time>
      </trkpt>
      <trkpt lat="43.671" lon="6.90631">
        <ele>620.2</ele>
        <time>2026-05-15T14:31:01Z</time>
      </trkpt>
      <trkpt lat="43.67091" lon="6.9065">
        <ele>619.1</ele>
        <time>2026-05-15T14:31:02Z</time>
      </trkpt>
      <trkpt lat="43.67083" lon="6.9067">
        <ele>619.3</ele>
        <time>2026-05-15T14:31:03Z</time>
      </trkpt>
      <trkpt lat="43.67075" lon="6.90689">
        <ele>618.1</ele>
        <time>2026-05-15T14:31:04Z</time>
      </trkpt>
      <trkpt lat="43.67068" lon="6.90709">
        <ele>616.9</ele>
        <time>2026-05-15T14:31:05Z</time>
      </trkpt>
      <trkpt lat="43.67061" lon="6.90728">
        <ele>615.9</ele>
        <time>2026-05-15T14:31:06Z</time>
      </trkpt>
      <trkpt lat="43.67054" lon="6.90746">
        <ele>614.8</ele>
        <time>2026-05-15T14:31:07Z</time>
      </trkpt>
      <trkpt lat="43.67047" lon="6.90765">
        <ele>613.7</ele>
        <time>2026-05-15T14:31:08Z</time>
      </trkpt>
      <trkpt lat="43.67041" lon="6.90784">
        <ele>612.6</ele>
        <time>2026-05-15T14:31:09Z</time>
      </trkpt>
      <trkpt lat="43.67038" lon="6.90804">
        <ele>612.9</ele>
        <time>2026-05-15T14:31:10Z</time>
      </trkpt>
      <trkpt lat="43.67036" lon="6.90825">
        <ele>612.5</ele>
        <time>2026-05-15T14:31:11Z</time>
      </trkpt>
      <trkpt lat="43.67034" lon="6.90846">
        <ele>611.7</ele>
        <time>2026-05-15T14:31:12Z</time>
      </trkpt>
      <trkpt lat="43.67032" lon="6.90868">
        <ele>610.9</ele>
        <time>2026-05-15T14:31:13Z</time>
      </trkpt>
      <trkpt lat="43.6703" lon="6.90889">
        <ele>610</ele>
        <time>2026-05-15T14:31:14Z</time>
      </trkpt>
      <trkpt lat="43.67028" lon="6.9091">
        <ele>608.4</ele>
        <time>2026-05-15T14:31:15Z</time>
      </trkpt>
      <trkpt lat="43.67027" lon="6.9093">
        <ele>607.7</ele>
        <time>2026-05-15T14:31:16Z</time>
      </trkpt>
      <trkpt lat="43.67025" lon="6.90951">
        <ele>606.5</ele>
        <time>2026-05-15T14:31:17Z</time>
      </trkpt>
      <trkpt lat="43.67025" lon="6.9097">
        <ele>605.2</ele>
        <time>2026-05-15T14:31:18Z</time>
      </trkpt>
      <trkpt lat="43.67026" lon="6.9099">
        <ele>605.3</ele>
        <time>2026-05-15T14:31:19Z</time>
      </trkpt>
      <trkpt lat="43.6703" lon="6.91008">
        <ele>605</ele>
        <time>2026-05-15T14:31:20Z</time>
      </trkpt>
      <trkpt lat="43.67037" lon="6.91024">
        <ele>603.8</ele>
        <time>2026-05-15T14:31:21Z</time>
      </trkpt>
      <trkpt lat="43.67045" lon="6.9104">
        <ele>602.8</ele>
        <time>2026-05-15T14:31:22Z</time>
      </trkpt>
      <trkpt lat="43.67053" lon="6.91055">
        <ele>602.2</ele>
        <time>2026-05-15T14:31:23Z</time>
      </trkpt>
      <trkpt lat="43.67061" lon="6.91071">
        <ele>601.7</ele>
        <time>2026-05-15T14:31:24Z</time>
      </trkpt>
      <trkpt lat="43.67069" lon="6.91086">
        <ele>601.2</ele>
        <time>2026-05-15T14:31:25Z</time>
      </trkpt>
      <trkpt lat="43.67077" lon="6.911">
        <ele>600.5</ele>
        <time>2026-05-15T14:31:26Z</time>
      </trkpt>
      <trkpt lat="43.67086" lon="6.91113">
        <ele>600.4</ele>
        <time>2026-05-15T14:31:27Z</time>
      </trkpt>
      <trkpt lat="43.67095" lon="6.91125">
        <ele>600.1</ele>
        <time>2026-05-15T14:31:28Z</time>
      </trkpt>
      <trkpt lat="43.67102" lon="6.91133">
        <ele>600</ele>
        <time>2026-05-15T14:31:29Z</time>
      </trkpt>
      <trkpt lat="43.67109" lon="6.91143">
        <ele>599.5</ele>
        <time>2026-05-15T14:31:30Z</time>
      </trkpt>
      <trkpt lat="43.67114" lon="6.91153">
        <ele>598.7</ele>
        <time>2026-05-15T14:31:31Z</time>
      </trkpt>
      <trkpt lat="43.67116" lon="6.91165">
        <ele>596.4</ele>
        <time>2026-05-15T14:31:32Z</time>
      </trkpt>
      <trkpt lat="43.67115" lon="6.91176">
        <ele>597.5</ele>
        <time>2026-05-15T14:31:33Z</time>
      </trkpt>
      <trkpt lat="43.67109" lon="6.91186">
        <ele>599</ele>
        <time>2026-05-15T14:31:34Z</time>
      </trkpt>
      <trkpt lat="43.671" lon="6.91192">
        <ele>599.6</ele>
        <time>2026-05-15T14:31:35Z</time>
      </trkpt>
      <trkpt lat="43.67089" lon="6.91195">
        <ele>599.6</ele>
        <time>2026-05-15T14:31:36Z</time>
      </trkpt>
      <trkpt lat="43.67077" lon="6.91196">
        <ele>599.1</ele>
        <time>2026-05-15T14:31:37Z</time>
      </trkpt>
      <trkpt lat="43.67062" lon="6.91194">
        <ele>597.3</ele>
        <time>2026-05-15T14:31:38Z</time>
      </trkpt>
      <trkpt lat="43.67046" lon="6.91193">
        <ele>596.2</ele>
        <time>2026-05-15T14:31:39Z</time>
      </trkpt>
      <trkpt lat="43.67031" lon="6.91191">
        <ele>595.1</ele>
        <time>2026-05-15T14:31:40Z</time>
      </trkpt>
      <trkpt lat="43.67016" lon="6.91189">
        <ele>593.8</ele>
        <time>2026-05-15T14:31:41Z</time>
      </trkpt>
      <trkpt lat="43.67001" lon="6.91187">
        <ele>592.4</ele>
        <time>2026-05-15T14:31:42Z</time>
      </trkpt>
      <trkpt lat="43.66987" lon="6.91186">
        <ele>592.2</ele>
        <time>2026-05-15T14:31:43Z</time>
      </trkpt>
      <trkpt lat="43.66972" lon="6.91184">
        <ele>591.7</ele>
        <time>2026-05-15T14:31:44Z</time>
      </trkpt>
      <trkpt lat="43.66958" lon="6.91182">
        <ele>591.3</ele>
        <time>2026-05-15T14:31:45Z</time>
      </trkpt>
      <trkpt lat="43.66944" lon="6.91183">
        <ele>591.3</ele>
        <time>2026-05-15T14:31:46Z</time>
      </trkpt>
      <trkpt lat="43.66931" lon="6.91186">
        <ele>590.6</ele>
        <time>2026-05-15T14:31:47Z</time>
      </trkpt>
      <trkpt lat="43.66919" lon="6.91193">
        <ele>590.1</ele>
        <time>2026-05-15T14:31:48Z</time>
      </trkpt>
      <trkpt lat="43.66908" lon="6.91203">
        <ele>589.3</ele>
        <time>2026-05-15T14:31:49Z</time>
      </trkpt>
      <trkpt lat="43.66898" lon="6.91219">
        <ele>588.7</ele>
        <time>2026-05-15T14:31:50Z</time>
      </trkpt>
      <trkpt lat="43.66889" lon="6.91236">
        <ele>587.5</ele>
        <time>2026-05-15T14:31:51Z</time>
      </trkpt>
      <trkpt lat="43.66881" lon="6.91256">
        <ele>586.1</ele>
        <time>2026-05-15T14:31:52Z</time>
      </trkpt>
      <trkpt lat="43.66874" lon="6.91279">
        <ele>584.8</ele>
        <time>2026-05-15T14:31:53Z</time>
      </trkpt>
      <trkpt lat="43.66868" lon="6.91302">
        <ele>584.6</ele>
        <time>2026-05-15T14:31:54Z</time>
      </trkpt>
      <trkpt lat="43.66862" lon="6.91326">
        <ele>583.2</ele>
        <time>2026-05-15T14:31:55Z</time>
      </trkpt>
      <trkpt lat="43.66856" lon="6.9135">
        <ele>582.7</ele>
        <time>2026-05-15T14:31:56Z</time>
      </trkpt>
      <trkpt lat="43.66851" lon="6.91374">
        <ele>581.9</ele>
        <time>2026-05-15T14:31:57Z</time>
      </trkpt>
      <trkpt lat="43.66844" lon="6.91398">
        <ele>580.4</ele>
        <time>2026-05-15T14:31:58Z</time>
      </trkpt>
      <trkpt lat="43.66838" lon="6.91422">
        <ele>579.4</ele>
        <time>2026-05-15T14:31:59Z</time>
      </trkpt>
      <trkpt lat="43.66832" lon="6.91447">
        <ele>577.7</ele>
        <time>2026-05-15T14:32:00Z</time>
      </trkpt>
      <trkpt lat="43.66824" lon="6.91473">
        <ele>576.3</ele>
        <time>2026-05-15T14:32:01Z</time>
      </trkpt>
      <trkpt lat="43.66815" lon="6.91499">
        <ele>575.7</ele>
        <time>2026-05-15T14:32:02Z</time>
      </trkpt>
      <trkpt lat="43.66805" lon="6.91523">
        <ele>574.7</ele>
        <time>2026-05-15T14:32:03Z</time>
      </trkpt>
      <trkpt lat="43.66795" lon="6.91547">
        <ele>573.6</ele>
        <time>2026-05-15T14:32:04Z</time>
      </trkpt>
      <trkpt lat="43.66785" lon="6.9157">
        <ele>572.4</ele>
        <time>2026-05-15T14:32:05Z</time>
      </trkpt>
      <trkpt lat="43.66775" lon="6.91593">
        <ele>571</ele>
        <time>2026-05-15T14:32:06Z</time>
      </trkpt>
      <trkpt lat="43.66766" lon="6.91617">
        <ele>570.3</ele>
        <time>2026-05-15T14:32:07Z</time>
      </trkpt>
      <trkpt lat="43.66757" lon="6.9164">
        <ele>569.5</ele>
        <time>2026-05-15T14:32:08Z</time>
      </trkpt>
      <trkpt lat="43.66749" lon="6.91663">
        <ele>568</ele>
        <time>2026-05-15T14:32:09Z</time>
      </trkpt>
      <trkpt lat="43.66741" lon="6.91687">
        <ele>568.9</ele>
        <time>2026-05-15T14:32:10Z</time>
      </trkpt>
      <trkpt lat="43.66734" lon="6.91711">
        <ele>568.7</ele>
        <time>2026-05-15T14:32:11Z</time>
      </trkpt>
      <trkpt lat="43.66727" lon="6.91736">
        <ele>566.5</ele>
        <time>2026-05-15T14:32:12Z</time>
      </trkpt>
      <trkpt lat="43.66722" lon="6.91762">
        <ele>564</ele>
        <time>2026-05-15T14:32:13Z</time>
      </trkpt>
      <trkpt lat="43.66717" lon="6.91788">
        <ele>562.3</ele>
        <time>2026-05-15T14:32:14Z</time>
      </trkpt>
      <trkpt lat="43.66713" lon="6.91814">
        <ele>560.3</ele>
        <time>2026-05-15T14:32:15Z</time>
      </trkpt>
      <trkpt lat="43.6671" lon="6.9184">
        <ele>559.6</ele>
        <time>2026-05-15T14:32:16Z</time>
      </trkpt>
      <trkpt lat="43.66706" lon="6.91865">
        <ele>558</ele>
        <time>2026-05-15T14:32:17Z</time>
      </trkpt>
      <trkpt lat="43.66704" lon="6.9189">
        <ele>557.3</ele>
        <time>2026-05-15T14:32:18Z</time>
      </trkpt>
      <trkpt lat="43.66703" lon="6.91915">
        <ele>556.1</ele>
        <time>2026-05-15T14:32:19Z</time>
      </trkpt>
      <trkpt lat="43.66703" lon="6.9194">
        <ele>556</ele>
        <time>2026-05-15T14:32:20Z</time>
      </trkpt>
      <trkpt lat="43.66704" lon="6.91964">
        <ele>555.3</ele>
        <time>2026-05-15T14:32:21Z</time>
      </trkpt>
      <trkpt lat="43.66706" lon="6.91988">
        <ele>554.7</ele>
        <time>2026-05-15T14:32:22Z</time>
      </trkpt>
      <trkpt lat="43.66709" lon="6.92011">
        <ele>553.5</ele>
        <time>2026-05-15T14:32:23Z</time>
      </trkpt>
      <trkpt lat="43.66712" lon="6.92034">
        <ele>551.9</ele>
        <time>2026-05-15T14:32:24Z</time>
      </trkpt>
      <trkpt lat="43.66716" lon="6.92057">
        <ele>551</ele>
        <time>2026-05-15T14:32:25Z</time>
      </trkpt>
      <trkpt lat="43.66721" lon="6.92079">
        <ele>550.1</ele>
        <time>2026-05-15T14:32:26Z</time>
      </trkpt>
      <trkpt lat="43.66727" lon="6.92101">
        <ele>549.7</ele>
        <time>2026-05-15T14:32:27Z</time>
      </trkpt>
      <trkpt lat="43.66732" lon="6.9212">
        <ele>548.4</ele>
        <time>2026-05-15T14:32:28Z</time>
      </trkpt>
      <trkpt lat="43.66739" lon="6.9214">
        <ele>547.3</ele>
        <time>2026-05-15T14:32:29Z</time>
      </trkpt>
      <trkpt lat="43.66746" lon="6.9216">
        <ele>546.3</ele>
        <time>2026-05-15T14:32:30Z</time>
      </trkpt>
      <trkpt lat="43.66753" lon="6.92179">
        <ele>545.9</ele>
        <time>2026-05-15T14:32:31Z</time>
      </trkpt>
      <trkpt lat="43.6676" lon="6.92197">
        <ele>545.7</ele>
        <time>2026-05-15T14:32:32Z</time>
      </trkpt>
      <trkpt lat="43.66766" lon="6.92214">
        <ele>544.3</ele>
        <time>2026-05-15T14:32:33Z</time>
      </trkpt>
      <trkpt lat="43.66771" lon="6.9223">
        <ele>543.3</ele>
        <time>2026-05-15T14:32:34Z</time>
      </trkpt>
      <trkpt lat="43.66777" lon="6.92246">
        <ele>543.1</ele>
        <time>2026-05-15T14:32:35Z</time>
      </trkpt>
      <trkpt lat="43.66782" lon="6.92262">
        <ele>542.2</ele>
        <time>2026-05-15T14:32:36Z</time>
      </trkpt>
      <trkpt lat="43.66788" lon="6.92279">
        <ele>541.4</ele>
        <time>2026-05-15T14:32:37Z</time>
      </trkpt>
      <trkpt lat="43.66793" lon="6.92296">
        <ele>540.2</ele>
        <time>2026-05-15T14:32:38Z</time>
      </trkpt>
      <trkpt lat="43.66798" lon="6.92314">
        <ele>539.3</ele>
        <time>2026-05-15T14:32:39Z</time>
      </trkpt>
      <trkpt lat="43.66803" lon="6.92333">
        <ele>538.6</ele>
        <time>2026-05-15T14:32:40Z</time>
      </trkpt>
      <trkpt lat="43.66806" lon="6.92352">
        <ele>538.4</ele>
        <time>2026-05-15T14:32:41Z</time>
      </trkpt>
      <trkpt lat="43.66809" lon="6.9237">
        <ele>538.3</ele>
        <time>2026-05-15T14:32:42Z</time>
      </trkpt>
      <trkpt lat="43.66811" lon="6.9239">
        <ele>537.7</ele>
        <time>2026-05-15T14:32:43Z</time>
      </trkpt>
      <trkpt lat="43.66814" lon="6.92408">
        <ele>536.4</ele>
        <time>2026-05-15T14:32:44Z</time>
      </trkpt>
      <trkpt lat="43.66817" lon="6.92426">
        <ele>535.4</ele>
        <time>2026-05-15T14:32:45Z</time>
      </trkpt>
      <trkpt lat="43.66819" lon="6.9244">
        <ele>534.7</ele>
        <time>2026-05-15T14:32:46Z</time>
      </trkpt>
      <trkpt lat="43.66822" lon="6.92453">
        <ele>534.3</ele>
        <time>2026-05-15T14:32:47Z</time>
      </trkpt>
      <trkpt lat="43.66825" lon="6.92465">
        <ele>534</ele>
        <time>2026-05-15T14:32:48Z</time>
      </trkpt>
      <trkpt lat="43.66828" lon="6.92477">
        <ele>533.6</ele>
        <time>2026-05-15T14:32:49Z</time>
      </trkpt>
      <trkpt lat="43.66832" lon="6.92487">
        <ele>533.2</ele>
        <time>2026-05-15T14:32:50Z</time>
      </trkpt>
      <trkpt lat="43.66835" lon="6.92495">
        <ele>532.8</ele>
        <time>2026-05-15T14:32:51Z</time>
      </trkpt>
      <trkpt lat="43.66837" lon="6.92502">
        <ele>532.6</ele>
        <time>2026-05-15T14:32:52Z</time>
      </trkpt>
      <trkpt lat="43.66839" lon="6.92509">
        <ele>532.5</ele>
        <time>2026-05-15T14:32:53Z</time>
      </trkpt>
      <trkpt lat="43.66839" lon="6.92517">
        <ele>532</ele>
        <time>2026-05-15T14:32:54Z</time>
      </trkpt>
      <trkpt lat="43.66837" lon="6.92524">
        <ele>531.5</ele>
        <time>2026-05-15T14:32:55Z</time>
      </trkpt>
      <trkpt lat="43.66833" lon="6.9253">
        <ele>530.9</ele>
        <time>2026-05-15T14:32:56Z</time>
      </trkpt>
      <trkpt lat="43.66829" lon="6.92536">
        <ele>530.1</ele>
        <time>2026-05-15T14:32:57Z</time>
      </trkpt>
      <trkpt lat="43.66826" lon="6.92542">
        <ele>529.3</ele>
        <time>2026-05-15T14:32:58Z</time>
      </trkpt>
      <trkpt lat="43.66826" lon="6.92551">
        <ele>528.7</ele>
        <time>2026-05-15T14:32:59Z</time>
      </trkpt>
      <trkpt lat="43.6683" lon="6.9256">
        <ele>528.7</ele>
        <time>2026-05-15T14:33:00Z</time>
      </trkpt>
      <trkpt lat="43.66836" lon="6.92568">
        <ele>528.3</ele>
        <time>2026-05-15T14:33:01Z</time>
      </trkpt>
      <trkpt lat="43.66841" lon="6.92579">
        <ele>526.9</ele>
        <time>2026-05-15T14:33:02Z</time>
      </trkpt>
      <trkpt lat="43.66845" lon="6.92593">
        <ele>525.2</ele>
        <time>2026-05-15T14:33:03Z</time>
      </trkpt>
      <trkpt lat="43.66849" lon="6.92609">
        <ele>523.4</ele>
        <time>2026-05-15T14:33:04Z</time>
      </trkpt>
      <trkpt lat="43.66852" lon="6.92626">
        <ele>523.2</ele>
        <time>2026-05-15T14:33:05Z</time>
      </trkpt>
      <trkpt lat="43.66856" lon="6.92642">
        <ele>523.7</ele>
        <time>2026-05-15T14:33:06Z</time>
      </trkpt>
      <trkpt lat="43.66859" lon="6.92659">
        <ele>523.7</ele>
        <time>2026-05-15T14:33:07Z</time>
      </trkpt>
      <trkpt lat="43.66861" lon="6.92675">
        <ele>523.7</ele>
        <time>2026-05-15T14:33:08Z</time>
      </trkpt>
      <trkpt lat="43.66861" lon="6.92692">
        <ele>523.1</ele>
        <time>2026-05-15T14:33:09Z</time>
      </trkpt>
      <trkpt lat="43.6686" lon="6.92709">
        <ele>523.3</ele>
        <time>2026-05-15T14:33:10Z</time>
      </trkpt>
      <trkpt lat="43.66857" lon="6.92726">
        <ele>523.1</ele>
        <time>2026-05-15T14:33:11Z</time>
      </trkpt>
      <trkpt lat="43.66852" lon="6.92742">
        <ele>522.6</ele>
        <time>2026-05-15T14:33:12Z</time>
      </trkpt>
      <trkpt lat="43.66845" lon="6.92756">
        <ele>522.3</ele>
        <time>2026-05-15T14:33:13Z</time>
      </trkpt>
      <trkpt lat="43.66837" lon="6.9277">
        <ele>522</ele>
        <time>2026-05-15T14:33:14Z</time>
      </trkpt>
      <trkpt lat="43.66828" lon="6.92783">
        <ele>521.3</ele>
        <time>2026-05-15T14:33:15Z</time>
      </trkpt>
      <trkpt lat="43.6682" lon="6.92796">
        <ele>520.9</ele>
        <time>2026-05-15T14:33:16Z</time>
      </trkpt>
      <trkpt lat="43.66812" lon="6.9281">
        <ele>521.2</ele>
        <time>2026-05-15T14:33:17Z</time>
      </trkpt>
      <trkpt lat="43.66805" lon="6.92822">
        <ele>521.7</ele>
        <time>2026-05-15T14:33:18Z</time>
      </trkpt>
      <trkpt lat="43.66798" lon="6.92834">
        <ele>521.4</ele>
        <time>2026-05-15T14:33:19Z</time>
      </trkpt>
      <trkpt lat="43.6679" lon="6.92846">
        <ele>520.8</ele>
        <time>2026-05-15T14:33:20Z</time>
      </trkpt>
      <trkpt lat="43.66783" lon="6.92859">
        <ele>520.1</ele>
        <time>2026-05-15T14:33:21Z</time>
      </trkpt>
      <trkpt lat="43.66775" lon="6.92872">
        <ele>518.2</ele>
        <time>2026-05-15T14:33:22Z</time>
      </trkpt>
      <trkpt lat="43.66768" lon="6.92885">
        <ele>515.6</ele>
        <time>2026-05-15T14:33:23Z</time>
      </trkpt>
      <trkpt lat="43.66762" lon="6.92899">
        <ele>514.6</ele>
        <time>2026-05-15T14:33:24Z</time>
      </trkpt>
      <trkpt lat="43.66758" lon="6.92914">
        <ele>515.6</ele>
        <time>2026-05-15T14:33:25Z</time>
      </trkpt>
      <trkpt lat="43.66756" lon="6.92929">
        <ele>515.4</ele>
        <time>2026-05-15T14:33:26Z</time>
      </trkpt>
      <trkpt lat="43.66755" lon="6.92947">
        <ele>514.8</ele>
        <time>2026-05-15T14:33:27Z</time>
      </trkpt>
      <trkpt lat="43.66756" lon="6.92965">
        <ele>512.8</ele>
        <time>2026-05-15T14:33:28Z</time>
      </trkpt>
      <trkpt lat="43.66758" lon="6.92986">
        <ele>511.7</ele>
        <time>2026-05-15T14:33:29Z</time>
      </trkpt>
      <trkpt lat="43.66759" lon="6.93005">
        <ele>510.7</ele>
        <time>2026-05-15T14:33:30Z</time>
      </trkpt>
      <trkpt lat="43.6676" lon="6.93024">
        <ele>509.4</ele>
        <time>2026-05-15T14:33:31Z</time>
      </trkpt>
      <trkpt lat="43.66763" lon="6.93043">
        <ele>509.5</ele>
        <time>2026-05-15T14:33:32Z</time>
      </trkpt>
      <trkpt lat="43.66766" lon="6.93063">
        <ele>508.8</ele>
        <time>2026-05-15T14:33:33Z</time>
      </trkpt>
      <trkpt lat="43.66768" lon="6.93081">
        <ele>506.8</ele>
        <time>2026-05-15T14:33:34Z</time>
      </trkpt>
      <trkpt lat="43.66771" lon="6.93099">
        <ele>505.1</ele>
        <time>2026-05-15T14:33:35Z</time>
      </trkpt>
      <trkpt lat="43.66772" lon="6.93116">
        <ele>503.8</ele>
        <time>2026-05-15T14:33:36Z</time>
      </trkpt>
      <trkpt lat="43.6677" lon="6.93133">
        <ele>504</ele>
        <time>2026-05-15T14:33:37Z</time>
      </trkpt>
      <trkpt lat="43.66767" lon="6.93148">
        <ele>503.1</ele>
        <time>2026-05-15T14:33:38Z</time>
      </trkpt>
      <trkpt lat="43.66764" lon="6.93161">
        <ele>502.3</ele>
        <time>2026-05-15T14:33:39Z</time>
      </trkpt>
      <trkpt lat="43.6676" lon="6.93171">
        <ele>500.9</ele>
        <time>2026-05-15T14:33:40Z</time>
      </trkpt>
      <trkpt lat="43.66755" lon="6.9318">
        <ele>498.9</ele>
        <time>2026-05-15T14:33:41Z</time>
      </trkpt>
      <trkpt lat="43.66745" lon="6.93181">
        <ele>497.1</ele>
        <time>2026-05-15T14:33:42Z</time>
      </trkpt>
      <trkpt lat="43.66737" lon="6.93182">
        <ele>496.5</ele>
        <time>2026-05-15T14:33:43Z</time>
      </trkpt>
      <trkpt lat="43.66729" lon="6.93179">
        <ele>496.1</ele>
        <time>2026-05-15T14:33:44Z</time>
      </trkpt>
      <trkpt lat="43.66721" lon="6.93175">
        <ele>495.9</ele>
        <time>2026-05-15T14:33:45Z</time>
      </trkpt>
      <trkpt lat="43.66714" lon="6.93165">
        <ele>495.7</ele>
        <time>2026-05-15T14:33:46Z</time>
      </trkpt>
      <trkpt lat="43.66711" lon="6.93155">
        <ele>494.6</ele>
        <time>2026-05-15T14:33:47Z</time>
      </trkpt>
      <trkpt lat="43.6672" lon="6.93142">
        <ele>494.2</ele>
        <time>2026-05-15T14:33:48Z</time>
      </trkpt>
      <trkpt lat="43.66724" lon="6.9313">
        <ele>493.1</ele>
        <time>2026-05-15T14:33:49Z</time>
      </trkpt>
      <trkpt lat="43.6673" lon="6.93118">
        <ele>492.4</ele>
        <time>2026-05-15T14:33:50Z</time>
      </trkpt>
      <trkpt lat="43.66734" lon="6.93105">
        <ele>492.1</ele>
        <time>2026-05-15T14:33:51Z</time>
      </trkpt>
      <trkpt lat="43.66738" lon="6.93091">
        <ele>493.1</ele>
        <time>2026-05-15T14:33:52Z</time>
      </trkpt>
      <trkpt lat="43.66738" lon="6.93077">
        <ele>493.8</ele>
        <time>2026-05-15T14:33:53Z</time>
      </trkpt>
      <trkpt lat="43.66732" lon="6.93062">
        <ele>492</ele>
        <time>2026-05-15T14:33:54Z</time>
      </trkpt>
      <trkpt lat="43.66728" lon="6.93047">
        <ele>490.5</ele>
        <time>2026-05-15T14:33:55Z</time>
      </trkpt>
      <trkpt lat="43.66724" lon="6.93031">
        <ele>488.9</ele>
        <time>2026-05-15T14:33:56Z</time>
      </trkpt>
      <trkpt lat="43.66719" lon="6.93015">
        <ele>486.8</ele>
        <time>2026-05-15T14:33:57Z</time>
      </trkpt>
      <trkpt lat="43.66713" lon="6.92999">
        <ele>484.6</ele>
        <time>2026-05-15T14:33:58Z</time>
      </trkpt>
      <trkpt lat="43.66706" lon="6.92985">
        <ele>484.1</ele>
        <time>2026-05-15T14:33:59Z</time>
      </trkpt>
      <trkpt lat="43.667" lon="6.9297">
        <ele>483.9</ele>
        <time>2026-05-15T14:34:00Z</time>
      </trkpt>
      <trkpt lat="43.66694" lon="6.92956">
        <ele>481.4</ele>
        <time>2026-05-15T14:34:01Z</time>
      </trkpt>
      <trkpt lat="43.66689" lon="6.92943">
        <ele>479.5</ele>
        <time>2026-05-15T14:34:02Z</time>
      </trkpt>
      <trkpt lat="43.66689" lon="6.92928">
        <ele>479.9</ele>
        <time>2026-05-15T14:34:03Z</time>
      </trkpt>
      <trkpt lat="43.6669" lon="6.92914">
        <ele>480.4</ele>
        <time>2026-05-15T14:34:04Z</time>
      </trkpt>
      <trkpt lat="43.66694" lon="6.929">
        <ele>480.1</ele>
        <time>2026-05-15T14:34:05Z</time>
      </trkpt>
      <trkpt lat="43.66697" lon="6.92884">
        <ele>478.6</ele>
        <time>2026-05-15T14:34:06Z</time>
      </trkpt>
      <trkpt lat="43.66702" lon="6.92868">
        <ele>478.4</ele>
        <time>2026-05-15T14:34:07Z</time>
      </trkpt>
      <trkpt lat="43.66706" lon="6.92852">
        <ele>477.5</ele>
        <time>2026-05-15T14:34:08Z</time>
      </trkpt>
      <trkpt lat="43.6671" lon="6.92836">
        <ele>476.8</ele>
        <time>2026-05-15T14:34:09Z</time>
      </trkpt>
      <trkpt lat="43.66712" lon="6.9282">
        <ele>475.2</ele>
        <time>2026-05-15T14:34:10Z</time>
      </trkpt>
      <trkpt lat="43.66713" lon="6.92803">
        <ele>473.1</ele>
        <time>2026-05-15T14:34:11Z</time>
      </trkpt>
      <trkpt lat="43.66714" lon="6.92787">
        <ele>472.2</ele>
        <time>2026-05-15T14:34:12Z</time>
      </trkpt>
      <trkpt lat="43.66713" lon="6.9277">
        <ele>469.8</ele>
        <time>2026-05-15T14:34:13Z</time>
      </trkpt>
      <trkpt lat="43.66714" lon="6.92753">
        <ele>469.3</ele>
        <time>2026-05-15T14:34:14Z</time>
      </trkpt>
      <trkpt lat="43.66714" lon="6.92736">
        <ele>468</ele>
        <time>2026-05-15T14:34:15Z</time>
      </trkpt>
      <trkpt lat="43.66716" lon="6.92719">
        <ele>467.6</ele>
        <time>2026-05-15T14:34:16Z</time>
      </trkpt>
      <trkpt lat="43.6672" lon="6.92703">
        <ele>466.7</ele>
        <time>2026-05-15T14:34:17Z</time>
      </trkpt>
      <trkpt lat="43.66723" lon="6.92689">
        <ele>465.9</ele>
        <time>2026-05-15T14:34:18Z</time>
      </trkpt>
      <trkpt lat="43.66725" lon="6.92678">
        <ele>466.1</ele>
        <time>2026-05-15T14:34:19Z</time>
      </trkpt>
      <trkpt lat="43.66727" lon="6.92667">
        <ele>466.6</ele>
        <time>2026-05-15T14:34:20Z</time>
      </trkpt>
      <trkpt lat="43.66721" lon="6.92662">
        <ele>464.3</ele>
        <time>2026-05-15T14:34:21Z</time>
      </trkpt>
      <trkpt lat="43.66713" lon="6.9266">
        <ele>461.5</ele>
        <time>2026-05-15T14:34:22Z</time>
      </trkpt>
      <trkpt lat="43.66706" lon="6.92661">
        <ele>458</ele>
        <time>2026-05-15T14:34:23Z</time>
      </trkpt>
      <trkpt lat="43.66702" lon="6.92667">
        <ele>454.3</ele>
        <time>2026-05-15T14:34:24Z</time>
      </trkpt>
      <trkpt lat="43.66701" lon="6.92676">
        <ele>454.3</ele>
        <time>2026-05-15T14:34:25Z</time>
      </trkpt>
      <trkpt lat="43.66701" lon="6.92688">
        <ele>455</ele>
        <time>2026-05-15T14:34:26Z</time>
      </trkpt>
      <trkpt lat="43.66701" lon="6.92701">
        <ele>456.2</ele>
        <time>2026-05-15T14:34:27Z</time>
      </trkpt>
      <trkpt lat="43.66701" lon="6.92716">
        <ele>458.2</ele>
        <time>2026-05-15T14:34:28Z</time>
      </trkpt>
      <trkpt lat="43.667" lon="6.9273">
        <ele>458.6</ele>
        <time>2026-05-15T14:34:29Z</time>
      </trkpt>
      <trkpt lat="43.667" lon="6.92746">
        <ele>458.9</ele>
        <time>2026-05-15T14:34:30Z</time>
      </trkpt>
      <trkpt lat="43.66699" lon="6.92762">
        <ele>458.5</ele>
        <time>2026-05-15T14:34:31Z</time>
      </trkpt>
      <trkpt lat="43.66697" lon="6.92779">
        <ele>457.2</ele>
        <time>2026-05-15T14:34:32Z</time>
      </trkpt>
      <trkpt lat="43.66694" lon="6.92795">
        <ele>456.7</ele>
        <time>2026-05-15T14:34:33Z</time>
      </trkpt>
      <trkpt lat="43.66689" lon="6.9281">
        <ele>456.4</ele>
        <time>2026-05-15T14:34:34Z</time>
      </trkpt>
      <trkpt lat="43.66684" lon="6.92825">
        <ele>457</ele>
        <time>2026-05-15T14:34:35Z</time>
      </trkpt>
      <trkpt lat="43.66676" lon="6.92837">
        <ele>454.5</ele>
        <time>2026-05-15T14:34:36Z</time>
      </trkpt>
      <trkpt lat="43.66667" lon="6.92849">
        <ele>451</ele>
        <time>2026-05-15T14:34:37Z</time>
      </trkpt>
      <trkpt lat="43.66658" lon="6.92859">
        <ele>449.2</ele>
        <time>2026-05-15T14:34:38Z</time>
      </trkpt>
      <trkpt lat="43.6665" lon="6.92871">
        <ele>448.3</ele>
        <time>2026-05-15T14:34:39Z</time>
      </trkpt>
      <trkpt lat="43.66643" lon="6.92884">
        <ele>446.8</ele>
        <time>2026-05-15T14:34:40Z</time>
      </trkpt>
      <trkpt lat="43.66638" lon="6.92897">
        <ele>446</ele>
        <time>2026-05-15T14:34:41Z</time>
      </trkpt>
      <trkpt lat="43.66634" lon="6.92912">
        <ele>446.4</ele>
        <time>2026-05-15T14:34:42Z</time>
      </trkpt>
      <trkpt lat="43.66631" lon="6.92927">
        <ele>445.7</ele>
        <time>2026-05-15T14:34:43Z</time>
      </trkpt>
      <trkpt lat="43.66629" lon="6.92941">
        <ele>444.9</ele>
        <time>2026-05-15T14:34:44Z</time>
      </trkpt>
      <trkpt lat="43.66627" lon="6.92952">
        <ele>443.9</ele>
        <time>2026-05-15T14:34:45Z</time>
      </trkpt>
      <trkpt lat="43.66625" lon="6.92963">
        <ele>443</ele>
        <time>2026-05-15T14:34:46Z</time>
      </trkpt>
      <trkpt lat="43.66622" lon="6.92973">
        <ele>442</ele>
        <time>2026-05-15T14:34:47Z</time>
      </trkpt>
      <trkpt lat="43.66617" lon="6.92983">
        <ele>441.7</ele>
        <time>2026-05-15T14:34:48Z</time>
      </trkpt>
      <trkpt lat="43.6661" lon="6.9299">
        <ele>441</ele>
        <time>2026-05-15T14:34:49Z</time>
      </trkpt>
      <trkpt lat="43.66599" lon="6.92991">
        <ele>439.1</ele>
        <time>2026-05-15T14:34:50Z</time>
      </trkpt>
      <trkpt lat="43.6659" lon="6.92995">
        <ele>438.2</ele>
        <time>2026-05-15T14:34:51Z</time>
      </trkpt>
      <trkpt lat="43.66581" lon="6.92999">
        <ele>437.3</ele>
        <time>2026-05-15T14:34:52Z</time>
      </trkpt>
      <trkpt lat="43.66571" lon="6.93005">
        <ele>435.8</ele>
        <time>2026-05-15T14:34:53Z</time>
      </trkpt>
      <trkpt lat="43.66563" lon="6.93014">
        <ele>434.5</ele>
        <time>2026-05-15T14:34:54Z</time>
      </trkpt>
      <trkpt lat="43.66557" lon="6.93025">
        <ele>433.4</ele>
        <time>2026-05-15T14:34:55Z</time>
      </trkpt>
      <trkpt lat="43.66554" lon="6.93038">
        <ele>432.1</ele>
        <time>2026-05-15T14:34:56Z</time>
      </trkpt>
      <trkpt lat="43.66554" lon="6.93052">
        <ele>431.6</ele>
        <time>2026-05-15T14:34:57Z</time>
      </trkpt>
      <trkpt lat="43.66558" lon="6.93066">
        <ele>430.8</ele>
        <time>2026-05-15T14:34:58Z</time>
      </trkpt>
      <trkpt lat="43.66563" lon="6.93078">
        <ele>430.1</ele>
        <time>2026-05-15T14:34:59Z</time>
      </trkpt>
      <trkpt lat="43.66569" lon="6.9309">
        <ele>429.6</ele>
        <time>2026-05-15T14:35:00Z</time>
      </trkpt>
      <trkpt lat="43.66577" lon="6.93101">
        <ele>429.2</ele>
        <time>2026-05-15T14:35:01Z</time>
      </trkpt>
      <trkpt lat="43.66584" lon="6.93112">
        <ele>428.2</ele>
        <time>2026-05-15T14:35:02Z</time>
      </trkpt>
      <trkpt lat="43.66589" lon="6.93124">
        <ele>429.6</ele>
        <time>2026-05-15T14:35:03Z</time>
      </trkpt>
      <trkpt lat="43.66592" lon="6.93138">
        <ele>429.8</ele>
        <time>2026-05-15T14:35:04Z</time>
      </trkpt>
      <trkpt lat="43.66592" lon="6.93152">
        <ele>429.3</ele>
        <time>2026-05-15T14:35:05Z</time>
      </trkpt>
      <trkpt lat="43.6659" lon="6.93166">
        <ele>427.9</ele>
        <time>2026-05-15T14:35:06Z</time>
      </trkpt>
      <trkpt lat="43.66588" lon="6.9318">
        <ele>426.9</ele>
        <time>2026-05-15T14:35:07Z</time>
      </trkpt>
      <trkpt lat="43.66588" lon="6.93194">
        <ele>426.9</ele>
        <time>2026-05-15T14:35:08Z</time>
      </trkpt>
      <trkpt lat="43.66587" lon="6.93207">
        <ele>425.9</ele>
        <time>2026-05-15T14:35:09Z</time>
      </trkpt>
      <trkpt lat="43.66586" lon="6.93222">
        <ele>424.7</ele>
        <time>2026-05-15T14:35:10Z</time>
      </trkpt>
      <trkpt lat="43.66587" lon="6.93236">
        <ele>424.3</ele>
        <time>2026-05-15T14:35:11Z</time>
      </trkpt>
      <trkpt lat="43.66589" lon="6.9325">
        <ele>424.3</ele>
        <time>2026-05-15T14:35:12Z</time>
      </trkpt>
      <trkpt lat="43.66592" lon="6.93265">
        <ele>421.9</ele>
        <time>2026-05-15T14:35:13Z</time>
      </trkpt>
      <trkpt lat="43.66596" lon="6.9328">
        <ele>419.7</ele>
        <time>2026-05-15T14:35:14Z</time>
      </trkpt>
      <trkpt lat="43.66601" lon="6.93294">
        <ele>418</ele>
        <time>2026-05-15T14:35:15Z</time>
      </trkpt>
      <trkpt lat="43.66606" lon="6.93308">
        <ele>416.8</ele>
        <time>2026-05-15T14:35:16Z</time>
      </trkpt>
      <trkpt lat="43.66613" lon="6.93322">
        <ele>417.6</ele>
        <time>2026-05-15T14:35:17Z</time>
      </trkpt>
      <trkpt lat="43.6662" lon="6.93334">
        <ele>416.6</ele>
        <time>2026-05-15T14:35:18Z</time>
      </trkpt>
      <trkpt lat="43.66628" lon="6.93344">
        <ele>414.3</ele>
        <time>2026-05-15T14:35:19Z</time>
      </trkpt>
      <trkpt lat="43.66637" lon="6.93352">
        <ele>413.2</ele>
        <time>2026-05-15T14:35:20Z</time>
      </trkpt>
      <trkpt lat="43.66647" lon="6.93357">
        <ele>412</ele>
        <time>2026-05-15T14:35:21Z</time>
      </trkpt>
      <trkpt lat="43.66658" lon="6.93361">
        <ele>410.7</ele>
        <time>2026-05-15T14:35:22Z</time>
      </trkpt>
      <trkpt lat="43.66669" lon="6.93364">
        <ele>410.3</ele>
        <time>2026-05-15T14:35:23Z</time>
      </trkpt>
      <trkpt lat="43.66681" lon="6.93367">
        <ele>409.3</ele>
        <time>2026-05-15T14:35:24Z</time>
      </trkpt>
      <trkpt lat="43.6669" lon="6.93369">
        <ele>408.5</ele>
        <time>2026-05-15T14:35:25Z</time>
      </trkpt>
      <trkpt lat="43.66698" lon="6.93373">
        <ele>407.5</ele>
        <time>2026-05-15T14:35:26Z</time>
      </trkpt>
      <trkpt lat="43.66706" lon="6.93378">
        <ele>406.9</ele>
        <time>2026-05-15T14:35:27Z</time>
      </trkpt>
      <trkpt lat="43.66714" lon="6.93386">
        <ele>405.6</ele>
        <time>2026-05-15T14:35:28Z</time>
      </trkpt>
      <trkpt lat="43.6672" lon="6.93396">
        <ele>404.8</ele>
        <time>2026-05-15T14:35:29Z</time>
      </trkpt>
      <trkpt lat="43.66726" lon="6.93407">
        <ele>404.8</ele>
        <time>2026-05-15T14:35:30Z</time>
      </trkpt>
      <trkpt lat="43.66733" lon="6.93418">
        <ele>404.6</ele>
        <time>2026-05-15T14:35:31Z</time>
      </trkpt>
      <trkpt lat="43.6674" lon="6.9343">
        <ele>403.3</ele>
        <time>2026-05-15T14:35:32Z</time>
      </trkpt>
      <trkpt lat="43.66746" lon="6.93442">
        <ele>402.3</ele>
        <time>2026-05-15T14:35:33Z</time>
      </trkpt>
      <trkpt lat="43.6675" lon="6.93456">
        <ele>401.8</ele>
        <time>2026-05-15T14:35:34Z</time>
      </trkpt>
      <trkpt lat="43.66751" lon="6.93471">
        <ele>400.4</ele>
        <time>2026-05-15T14:35:35Z</time>
      </trkpt>
      <trkpt lat="43.66747" lon="6.93485">
        <ele>398.6</ele>
        <time>2026-05-15T14:35:36Z</time>
      </trkpt>
      <trkpt lat="43.66739" lon="6.93496">
        <ele>397.3</ele>
        <time>2026-05-15T14:35:37Z</time>
      </trkpt>
      <trkpt lat="43.66728" lon="6.93501">
        <ele>396.1</ele>
        <time>2026-05-15T14:35:38Z</time>
      </trkpt>
      <trkpt lat="43.66717" lon="6.93501">
        <ele>395.1</ele>
        <time>2026-05-15T14:35:39Z</time>
      </trkpt>
      <trkpt lat="43.66707" lon="6.93498">
        <ele>394.3</ele>
        <time>2026-05-15T14:35:40Z</time>
      </trkpt>
      <trkpt lat="43.66697" lon="6.93492">
        <ele>393.2</ele>
        <time>2026-05-15T14:35:41Z</time>
      </trkpt>
      <trkpt lat="43.66687" lon="6.93485">
        <ele>392.1</ele>
        <time>2026-05-15T14:35:42Z</time>
      </trkpt>
      <trkpt lat="43.66677" lon="6.93474">
        <ele>391.6</ele>
        <time>2026-05-15T14:35:43Z</time>
      </trkpt>
      <trkpt lat="43.66666" lon="6.93462">
        <ele>391.6</ele>
        <time>2026-05-15T14:35:44Z</time>
      </trkpt>
      <trkpt lat="43.66656" lon="6.93449">
        <ele>390.5</ele>
        <time>2026-05-15T14:35:45Z</time>
      </trkpt>
      <trkpt lat="43.66645" lon="6.93437">
        <ele>390.5</ele>
        <time>2026-05-15T14:35:46Z</time>
      </trkpt>
      <trkpt lat="43.66633" lon="6.93426">
        <ele>390.5</ele>
        <time>2026-05-15T14:35:47Z</time>
      </trkpt>
      <trkpt lat="43.66622" lon="6.93416">
        <ele>390.5</ele>
        <time>2026-05-15T14:35:48Z</time>
      </trkpt>
      <trkpt lat="43.6661" lon="6.93406">
        <ele>390.3</ele>
        <time>2026-05-15T14:35:49Z</time>
      </trkpt>
      <trkpt lat="43.66599" lon="6.93396">
        <ele>389.8</ele>
        <time>2026-05-15T14:35:50Z</time>
      </trkpt>
      <trkpt lat="43.66589" lon="6.93387">
        <ele>389.9</ele>
        <time>2026-05-15T14:35:51Z</time>
      </trkpt>
      <trkpt lat="43.66579" lon="6.93376">
        <ele>389.9</ele>
        <time>2026-05-15T14:35:52Z</time>
      </trkpt>
      <trkpt lat="43.66571" lon="6.93364">
        <ele>390.3</ele>
        <time>2026-05-15T14:35:53Z</time>
      </trkpt>
      <trkpt lat="43.66564" lon="6.93352">
        <ele>389.6</ele>
        <time>2026-05-15T14:35:54Z</time>
      </trkpt>
      <trkpt lat="43.66557" lon="6.93339">
        <ele>388.1</ele>
        <time>2026-05-15T14:35:55Z</time>
      </trkpt>
      <trkpt lat="43.6655" lon="6.93326">
        <ele>387.7</ele>
        <time>2026-05-15T14:35:56Z</time>
      </trkpt>
      <trkpt lat="43.66544" lon="6.93314">
        <ele>387.9</ele>
        <time>2026-05-15T14:35:57Z</time>
      </trkpt>
      <trkpt lat="43.66537" lon="6.93302">
        <ele>387.4</ele>
        <time>2026-05-15T14:35:58Z</time>
      </trkpt>
      <trkpt lat="43.66531" lon="6.9329">
        <ele>386.4</ele>
        <time>2026-05-15T14:35:59Z</time>
      </trkpt>
      <trkpt lat="43.66526" lon="6.9328">
        <ele>385.3</ele>
        <time>2026-05-15T14:36:00Z</time>
      </trkpt>
      <trkpt lat="43.66521" lon="6.93271">
        <ele>385.4</ele>
        <time>2026-05-15T14:36:01Z</time>
      </trkpt>
      <trkpt lat="43.66515" lon="6.93262">
        <ele>385.3</ele>
        <time>2026-05-15T14:36:02Z</time>
      </trkpt>
      <trkpt lat="43.66509" lon="6.93253">
        <ele>385</ele>
        <time>2026-05-15T14:36:03Z</time>
      </trkpt>
      <trkpt lat="43.66504" lon="6.93245">
        <ele>384.5</ele>
        <time>2026-05-15T14:36:04Z</time>
      </trkpt>
      <trkpt lat="43.66498" lon="6.93236">
        <ele>383.8</ele>
        <time>2026-05-15T14:36:05Z</time>
      </trkpt>
      <trkpt lat="43.66491" lon="6.93227">
        <ele>382.7</ele>
        <time>2026-05-15T14:36:06Z</time>
      </trkpt>
      <trkpt lat="43.66486" lon="6.93217">
        <ele>382</ele>
        <time>2026-05-15T14:36:07Z</time>
      </trkpt>
      <trkpt lat="43.66482" lon="6.93207">
        <ele>381.4</ele>
        <time>2026-05-15T14:36:08Z</time>
      </trkpt>
      <trkpt lat="43.66478" lon="6.93195">
        <ele>380.7</ele>
        <time>2026-05-15T14:36:09Z</time>
      </trkpt>
      <trkpt lat="43.66474" lon="6.93184">
        <ele>380</ele>
        <time>2026-05-15T14:36:10Z</time>
      </trkpt>
      <trkpt lat="43.66471" lon="6.93175">
        <ele>379.6</ele>
        <time>2026-05-15T14:36:11Z</time>
      </trkpt>
      <trkpt lat="43.66468" lon="6.93167">
        <ele>379.1</ele>
        <time>2026-05-15T14:36:12Z</time>
      </trkpt>
      <trkpt lat="43.66465" lon="6.93158">
        <ele>379.7</ele>
        <time>2026-05-15T14:36:13Z</time>
      </trkpt>
      <trkpt lat="43.66462" lon="6.9315">
        <ele>379.7</ele>
        <time>2026-05-15T14:36:14Z</time>
      </trkpt>
      <trkpt lat="43.66459" lon="6.93142">
        <ele>379.4</ele>
        <time>2026-05-15T14:36:15Z</time>
      </trkpt>
      <trkpt lat="43.66455" lon="6.93135">
        <ele>377.9</ele>
        <time>2026-05-15T14:36:16Z</time>
      </trkpt>
      <trkpt lat="43.66451" lon="6.93126">
        <ele>376.4</ele>
        <time>2026-05-15T14:36:17Z</time>
      </trkpt>
      <trkpt lat="43.66447" lon="6.93118">
        <ele>374.8</ele>
        <time>2026-05-15T14:36:18Z</time>
      </trkpt>
      <trkpt lat="43.66442" lon="6.93109">
        <ele>373.6</ele>
        <time>2026-05-15T14:36:19Z</time>
      </trkpt>
      <trkpt lat="43.66435" lon="6.931">
        <ele>373.1</ele>
        <time>2026-05-15T14:36:20Z</time>
      </trkpt>
      <trkpt lat="43.66429" lon="6.93091">
        <ele>372.7</ele>
        <time>2026-05-15T14:36:21Z</time>
      </trkpt>
      <trkpt lat="43.66422" lon="6.93081">
        <ele>371.7</ele>
        <time>2026-05-15T14:36:22Z</time>
      </trkpt>
      <trkpt lat="43.66416" lon="6.93072">
        <ele>370.8</ele>
        <time>2026-05-15T14:36:23Z</time>
      </trkpt>
      <trkpt lat="43.6641" lon="6.9306">
        <ele>370.9</ele>
        <time>2026-05-15T14:36:24Z</time>
      </trkpt>
      <trkpt lat="43.66406" lon="6.93049">
        <ele>370.3</ele>
        <time>2026-05-15T14:36:25Z</time>
      </trkpt>
      <trkpt lat="43.66402" lon="6.93037">
        <ele>369</ele>
        <time>2026-05-15T14:36:26Z</time>
      </trkpt>
      <trkpt lat="43.664" lon="6.93025">
        <ele>368.3</ele>
        <time>2026-05-15T14:36:27Z</time>
      </trkpt>
      <trkpt lat="43.66398" lon="6.93012">
        <ele>367.2</ele>
        <time>2026-05-15T14:36:28Z</time>
      </trkpt>
      <trkpt lat="43.66397" lon="6.92999">
        <ele>366.5</ele>
        <time>2026-05-15T14:36:29Z</time>
      </trkpt>
      <trkpt lat="43.66395" lon="6.92985">
        <ele>365.5</ele>
        <time>2026-05-15T14:36:30Z</time>
      </trkpt>
      <trkpt lat="43.66393" lon="6.92971">
        <ele>364.5</ele>
        <time>2026-05-15T14:36:31Z</time>
      </trkpt>
      <trkpt lat="43.66391" lon="6.92957">
        <ele>362.7</ele>
        <time>2026-05-15T14:36:32Z</time>
      </trkpt>
      <trkpt lat="43.66389" lon="6.92944">
        <ele>361</ele>
        <time>2026-05-15T14:36:33Z</time>
      </trkpt>
      <trkpt lat="43.66388" lon="6.9293">
        <ele>360.7</ele>
        <time>2026-05-15T14:36:34Z</time>
      </trkpt>
      <trkpt lat="43.66386" lon="6.92917">
        <ele>360.1</ele>
        <time>2026-05-15T14:36:35Z</time>
      </trkpt>
      <trkpt lat="43.66385" lon="6.92904">
        <ele>359.4</ele>
        <time>2026-05-15T14:36:36Z</time>
      </trkpt>
      <trkpt lat="43.66384" lon="6.92891">
        <ele>358.8</ele>
        <time>2026-05-15T14:36:37Z</time>
      </trkpt>
      <trkpt lat="43.66382" lon="6.92877">
        <ele>357.9</ele>
        <time>2026-05-15T14:36:38Z</time>
      </trkpt>
      <trkpt lat="43.66381" lon="6.92863">
        <ele>357.3</ele>
        <time>2026-05-15T14:36:39Z</time>
      </trkpt>
      <trkpt lat="43.6638" lon="6.92849">
        <ele>356.6</ele>
        <time>2026-05-15T14:36:40Z</time>
      </trkpt>
      <trkpt lat="43.66379" lon="6.92836">
        <ele>356</ele>
        <time>2026-05-15T14:36:41Z</time>
      </trkpt>
      <trkpt lat="43.66379" lon="6.92822">
        <ele>355.8</ele>
        <time>2026-05-15T14:36:42Z</time>
      </trkpt>
      <trkpt lat="43.66379" lon="6.9281">
        <ele>355.8</ele>
        <time>2026-05-15T14:36:43Z</time>
      </trkpt>
      <trkpt lat="43.6638" lon="6.928">
        <ele>355.9</ele>
        <time>2026-05-15T14:36:44Z</time>
      </trkpt>
      <trkpt lat="43.66381" lon="6.92792">
        <ele>356</ele>
        <time>2026-05-15T14:36:45Z</time>
      </trkpt>
      <trkpt lat="43.66382" lon="6.92784">
        <ele>356</ele>
        <time>2026-05-15T14:36:46Z</time>
      </trkpt>
      <trkpt lat="43.66382" lon="6.92777">
        <ele>355.7</ele>
        <time>2026-05-15T14:36:47Z</time>
      </trkpt>
      <trkpt lat="43.66382" lon="6.92771">
        <ele>355</ele>
        <time>2026-05-15T14:36:48Z</time>
      </trkpt>
      <trkpt lat="43.66382" lon="6.92765">
        <ele>354.3</ele>
        <time>2026-05-15T14:36:49Z</time>
      </trkpt>
      <trkpt lat="43.6638" lon="6.9276">
        <ele>353</ele>
        <time>2026-05-15T14:36:50Z</time>
      </trkpt>
      <trkpt lat="43.66377" lon="6.92759">
        <ele>351.8</ele>
        <time>2026-05-15T14:36:51Z</time>
      </trkpt>
      <trkpt lat="43.66374" lon="6.92759">
        <ele>350.8</ele>
        <time>2026-05-15T14:36:52Z</time>
      </trkpt>
      <trkpt lat="43.66371" lon="6.92762">
        <ele>350.1</ele>
        <time>2026-05-15T14:36:53Z</time>
      </trkpt>
      <trkpt lat="43.66368" lon="6.92767">
        <ele>349.8</ele>
        <time>2026-05-15T14:36:54Z</time>
      </trkpt>
      <trkpt lat="43.66364" lon="6.92775">
        <ele>349.5</ele>
        <time>2026-05-15T14:36:55Z</time>
      </trkpt>
      <trkpt lat="43.66361" lon="6.92784">
        <ele>349.2</ele>
        <time>2026-05-15T14:36:56Z</time>
      </trkpt>
      <trkpt lat="43.66358" lon="6.92795">
        <ele>348.9</ele>
        <time>2026-05-15T14:36:57Z</time>
      </trkpt>
      <trkpt lat="43.66355" lon="6.92806">
        <ele>348.5</ele>
        <time>2026-05-15T14:36:58Z</time>
      </trkpt>
      <trkpt lat="43.66352" lon="6.92819">
        <ele>348.5</ele>
        <time>2026-05-15T14:36:59Z</time>
      </trkpt>
      <trkpt lat="43.66349" lon="6.92832">
        <ele>348.4</ele>
        <time>2026-05-15T14:37:00Z</time>
      </trkpt>
      <trkpt lat="43.66347" lon="6.92846">
        <ele>348.9</ele>
        <time>2026-05-15T14:37:01Z</time>
      </trkpt>
      <trkpt lat="43.66345" lon="6.9286">
        <ele>349.4</ele>
        <time>2026-05-15T14:37:02Z</time>
      </trkpt>
      <trkpt lat="43.66344" lon="6.92873">
        <ele>349.3</ele>
        <time>2026-05-15T14:37:03Z</time>
      </trkpt>
      <trkpt lat="43.66343" lon="6.92886">
        <ele>349.1</ele>
        <time>2026-05-15T14:37:04Z</time>
      </trkpt>
      <trkpt lat="43.66343" lon="6.92899">
        <ele>349.2</ele>
        <time>2026-05-15T14:37:05Z</time>
      </trkpt>
      <trkpt lat="43.66343" lon="6.92913">
        <ele>349.4</ele>
        <time>2026-05-15T14:37:06Z</time>
      </trkpt>
      <trkpt lat="43.66343" lon="6.92927">
        <ele>349.8</ele>
        <time>2026-05-15T14:37:07Z</time>
      </trkpt>
      <trkpt lat="43.66344" lon="6.92941">
        <ele>350.4</ele>
        <time>2026-05-15T14:37:08Z</time>
      </trkpt>
      <trkpt lat="43.66344" lon="6.92955">
        <ele>349.9</ele>
        <time>2026-05-15T14:37:09Z</time>
      </trkpt>
      <trkpt lat="43.66344" lon="6.9297">
        <ele>349</ele>
        <time>2026-05-15T14:37:10Z</time>
      </trkpt>
      <trkpt lat="43.66344" lon="6.92984">
        <ele>349.9</ele>
        <time>2026-05-15T14:37:11Z</time>
      </trkpt>
      <trkpt lat="43.66344" lon="6.92998">
        <ele>351.1</ele>
        <time>2026-05-15T14:37:12Z</time>
      </trkpt>
      <trkpt lat="43.66344" lon="6.93012">
        <ele>351.5</ele>
        <time>2026-05-15T14:37:13Z</time>
      </trkpt>
      <trkpt lat="43.66345" lon="6.93026">
        <ele>351.9</ele>
        <time>2026-05-15T14:37:14Z</time>
      </trkpt>
      <trkpt lat="43.66346" lon="6.93041">
        <ele>351.9</ele>
        <time>2026-05-15T14:37:15Z</time>
      </trkpt>
      <trkpt lat="43.66347" lon="6.93055">
        <ele>351.9</ele>
        <time>2026-05-15T14:37:16Z</time>
      </trkpt>
      <trkpt lat="43.66349" lon="6.9307">
        <ele>350.8</ele>
        <time>2026-05-15T14:37:17Z</time>
      </trkpt>
      <trkpt lat="43.66352" lon="6.93085">
        <ele>349.7</ele>
        <time>2026-05-15T14:37:18Z</time>
      </trkpt>
      <trkpt lat="43.66355" lon="6.93099">
        <ele>349.8</ele>
        <time>2026-05-15T14:37:19Z</time>
      </trkpt>
      <trkpt lat="43.66358" lon="6.93114">
        <ele>349.8</ele>
        <time>2026-05-15T14:37:20Z</time>
      </trkpt>
      <trkpt lat="43.66362" lon="6.9313">
        <ele>350.2</ele>
        <time>2026-05-15T14:37:21Z</time>
      </trkpt>
      <trkpt lat="43.66365" lon="6.93146">
        <ele>350.9</ele>
        <time>2026-05-15T14:37:22Z</time>
      </trkpt>
      <trkpt lat="43.66368" lon="6.93161">
        <ele>351.3</ele>
        <time>2026-05-15T14:37:23Z</time>
      </trkpt>
      <trkpt lat="43.66372" lon="6.93176">
        <ele>351.4</ele>
        <time>2026-05-15T14:37:24Z</time>
      </trkpt>
      <trkpt lat="43.66375" lon="6.93193">
        <ele>351.1</ele>
        <time>2026-05-15T14:37:25Z</time>
      </trkpt>
      <trkpt lat="43.66379" lon="6.93209">
        <ele>350.5</ele>
        <time>2026-05-15T14:37:26Z</time>
      </trkpt>
      <trkpt lat="43.66385" lon="6.93226">
        <ele>350.2</ele>
        <time>2026-05-15T14:37:27Z</time>
      </trkpt>
      <trkpt lat="43.6639" lon="6.93242">
        <ele>351.2</ele>
        <time>2026-05-15T14:37:28Z</time>
      </trkpt>
      <trkpt lat="43.66396" lon="6.93258">
        <ele>352.2</ele>
        <time>2026-05-15T14:37:29Z</time>
      </trkpt>
      <trkpt lat="43.66402" lon="6.93275">
        <ele>352.5</ele>
        <time>2026-05-15T14:37:30Z</time>
      </trkpt>
      <trkpt lat="43.66408" lon="6.93294">
        <ele>352.1</ele>
        <time>2026-05-15T14:37:31Z</time>
      </trkpt>
      <trkpt lat="43.66414" lon="6.93312">
        <ele>352.1</ele>
        <time>2026-05-15T14:37:32Z</time>
      </trkpt>
      <trkpt lat="43.66421" lon="6.93329">
        <ele>353.3</ele>
        <time>2026-05-15T14:37:33Z</time>
      </trkpt>
      <trkpt lat="43.66426" lon="6.93347">
        <ele>353.4</ele>
        <time>2026-05-15T14:37:34Z</time>
      </trkpt>
      <trkpt lat="43.66432" lon="6.93364">
        <ele>353.6</ele>
        <time>2026-05-15T14:37:35Z</time>
      </trkpt>
      <trkpt lat="43.66438" lon="6.93381">
        <ele>353.6</ele>
        <time>2026-05-15T14:37:36Z</time>
      </trkpt>
      <trkpt lat="43.66443" lon="6.93398">
        <ele>353.7</ele>
        <time>2026-05-15T14:37:37Z</time>
      </trkpt>
      <trkpt lat="43.66448" lon="6.93413">
        <ele>354.8</ele>
        <time>2026-05-15T14:37:38Z</time>
      </trkpt>
      <trkpt lat="43.66454" lon="6.93427">
        <ele>354.6</ele>
        <time>2026-05-15T14:37:39Z</time>
      </trkpt>
      <trkpt lat="43.6646" lon="6.9344">
        <ele>354</ele>
        <time>2026-05-15T14:37:40Z</time>
      </trkpt>
      <trkpt lat="43.66469" lon="6.93453">
        <ele>354.5</ele>
        <time>2026-05-15T14:37:41Z</time>
      </trkpt>
      <trkpt lat="43.66478" lon="6.93465">
        <ele>354.9</ele>
        <time>2026-05-15T14:37:42Z</time>
      </trkpt>
      <trkpt lat="43.66489" lon="6.93475">
        <ele>355.4</ele>
        <time>2026-05-15T14:37:43Z</time>
      </trkpt>
      <trkpt lat="43.66501" lon="6.93484">
        <ele>355.5</ele>
        <time>2026-05-15T14:37:44Z</time>
      </trkpt>
      <trkpt lat="43.66513" lon="6.93492">
        <ele>354.7</ele>
        <time>2026-05-15T14:37:45Z</time>
      </trkpt>
      <trkpt lat="43.66525" lon="6.93496">
        <ele>355.2</ele>
        <time>2026-05-15T14:37:46Z</time>
      </trkpt>
      <trkpt lat="43.66536" lon="6.93501">
        <ele>355.4</ele>
        <time>2026-05-15T14:37:47Z</time>
      </trkpt>
      <trkpt lat="43.66547" lon="6.93507">
        <ele>355.3</ele>
        <time>2026-05-15T14:37:48Z</time>
      </trkpt>
      <trkpt lat="43.66556" lon="6.93515">
        <ele>355.6</ele>
        <time>2026-05-15T14:37:49Z</time>
      </trkpt>
      <trkpt lat="43.66562" lon="6.93525">
        <ele>357.1</ele>
        <time>2026-05-15T14:37:50Z</time>
      </trkpt>
      <trkpt lat="43.66567" lon="6.93537">
        <ele>357.7</ele>
        <time>2026-05-15T14:37:51Z</time>
      </trkpt>
      <trkpt lat="43.66571" lon="6.93549">
        <ele>357.5</ele>
        <time>2026-05-15T14:37:52Z</time>
      </trkpt>
      <trkpt lat="43.66575" lon="6.93563">
        <ele>357.4</ele>
        <time>2026-05-15T14:37:53Z</time>
      </trkpt>
      <trkpt lat="43.66578" lon="6.93578">
        <ele>357.1</ele>
        <time>2026-05-15T14:37:54Z</time>
      </trkpt>
      <trkpt lat="43.66582" lon="6.93591">
        <ele>357.3</ele>
        <time>2026-05-15T14:37:55Z</time>
      </trkpt>
      <trkpt lat="43.66586" lon="6.93602">
        <ele>358.1</ele>
        <time>2026-05-15T14:37:56Z</time>
      </trkpt>
      <trkpt lat="43.6659" lon="6.93611">
        <ele>358.7</ele>
        <time>2026-05-15T14:37:57Z</time>
      </trkpt>
      <trkpt lat="43.66595" lon="6.93619">
        <ele>358.4</ele>
        <time>2026-05-15T14:37:58Z</time>
      </trkpt>
      <trkpt lat="43.666" lon="6.93625">
        <ele>358.4</ele>
        <time>2026-05-15T14:37:59Z</time>
      </trkpt>
      <trkpt lat="43.66605" lon="6.9363">
        <ele>358.5</ele>
        <time>2026-05-15T14:38:00Z</time>
      </trkpt>
      <trkpt lat="43.66611" lon="6.93633">
        <ele>359.2</ele>
        <time>2026-05-15T14:38:01Z</time>
      </trkpt>
      <trkpt lat="43.66617" lon="6.93637">
        <ele>358.6</ele>
        <time>2026-05-15T14:38:02Z</time>
      </trkpt>
      <trkpt lat="43.66624" lon="6.93638">
        <ele>358.7</ele>
        <time>2026-05-15T14:38:03Z</time>
      </trkpt>
      <trkpt lat="43.6663" lon="6.93639">
        <ele>358.7</ele>
        <time>2026-05-15T14:38:04Z</time>
      </trkpt>
      <trkpt lat="43.66635" lon="6.9364">
        <ele>358.8</ele>
        <time>2026-05-15T14:38:05Z</time>
      </trkpt>
      <trkpt lat="43.6664" lon="6.93641">
        <ele>358.9</ele>
        <time>2026-05-15T14:38:06Z</time>
      </trkpt>
      <trkpt lat="43.66646" lon="6.93642">
        <ele>359</ele>
        <time>2026-05-15T14:38:07Z</time>
      </trkpt>
      <trkpt lat="43.66652" lon="6.93643">
        <ele>359</ele>
        <time>2026-05-15T14:38:08Z</time>
      </trkpt>
      <trkpt lat="43.66659" lon="6.93644">
        <ele>359.1</ele>
        <time>2026-05-15T14:38:09Z</time>
      </trkpt>
      <trkpt lat="43.66667" lon="6.93646">
        <ele>359</ele>
        <time>2026-05-15T14:38:10Z</time>
      </trkpt>
      <trkpt lat="43.66675" lon="6.93649">
        <ele>358.6</ele>
        <time>2026-05-15T14:38:11Z</time>
      </trkpt>
      <trkpt lat="43.66684" lon="6.93653">
        <ele>357.6</ele>
        <time>2026-05-15T14:38:12Z</time>
      </trkpt>
      <trkpt lat="43.66692" lon="6.93657">
        <ele>356.2</ele>
        <time>2026-05-15T14:38:13Z</time>
      </trkpt>
      <trkpt lat="43.667" lon="6.93663">
        <ele>355.5</ele>
        <time>2026-05-15T14:38:14Z</time>
      </trkpt>
      <trkpt lat="43.66706" lon="6.93672">
        <ele>356</ele>
        <time>2026-05-15T14:38:15Z</time>
      </trkpt>
      <trkpt lat="43.66711" lon="6.93682">
        <ele>357.1</ele>
        <time>2026-05-15T14:38:16Z</time>
      </trkpt>
      <trkpt lat="43.66714" lon="6.93694">
        <ele>357.8</ele>
        <time>2026-05-15T14:38:17Z</time>
      </trkpt>
      <trkpt lat="43.66715" lon="6.93707">
        <ele>359.3</ele>
        <time>2026-05-15T14:38:18Z</time>
      </trkpt>
      <trkpt lat="43.66715" lon="6.9372">
        <ele>360.4</ele>
        <time>2026-05-15T14:38:19Z</time>
      </trkpt>
      <trkpt lat="43.66715" lon="6.93735">
        <ele>360.3</ele>
        <time>2026-05-15T14:38:20Z</time>
      </trkpt>
      <trkpt lat="43.66716" lon="6.93749">
        <ele>360.3</ele>
        <time>2026-05-15T14:38:21Z</time>
      </trkpt>
      <trkpt lat="43.66718" lon="6.93762">
        <ele>360.4</ele>
        <time>2026-05-15T14:38:22Z</time>
      </trkpt>
      <trkpt lat="43.6672" lon="6.93774">
        <ele>360.4</ele>
        <time>2026-05-15T14:38:23Z</time>
      </trkpt>
      <trkpt lat="43.66726" lon="6.93786">
        <ele>360.7</ele>
        <time>2026-05-15T14:38:24Z</time>
      </trkpt>
      <trkpt lat="43.66731" lon="6.93798">
        <ele>360.3</ele>
        <time>2026-05-15T14:38:25Z</time>
      </trkpt>
      <trkpt lat="43.66738" lon="6.93812">
        <ele>360.6</ele>
        <time>2026-05-15T14:38:26Z</time>
      </trkpt>
      <trkpt lat="43.66746" lon="6.93824">
        <ele>361.3</ele>
        <time>2026-05-15T14:38:27Z</time>
      </trkpt>
      <trkpt lat="43.66753" lon="6.93837">
        <ele>361.5</ele>
        <time>2026-05-15T14:38:28Z</time>
      </trkpt>
      <trkpt lat="43.66761" lon="6.93849">
        <ele>362.1</ele>
        <time>2026-05-15T14:38:29Z</time>
      </trkpt>
      <trkpt lat="43.66767" lon="6.93861">
        <ele>361.5</ele>
        <time>2026-05-15T14:38:30Z</time>
      </trkpt>
      <trkpt lat="43.66775" lon="6.93874">
        <ele>361.6</ele>
        <time>2026-05-15T14:38:31Z</time>
      </trkpt>
      <trkpt lat="43.66783" lon="6.93887">
        <ele>361.9</ele>
        <time>2026-05-15T14:38:32Z</time>
      </trkpt>
      <trkpt lat="43.66792" lon="6.93902">
        <ele>361</ele>
        <time>2026-05-15T14:38:33Z</time>
      </trkpt>
      <trkpt lat="43.668" lon="6.93916">
        <ele>360.9</ele>
        <time>2026-05-15T14:38:34Z</time>
      </trkpt>
      <trkpt lat="43.66808" lon="6.9393">
        <ele>362.3</ele>
        <time>2026-05-15T14:38:35Z</time>
      </trkpt>
      <trkpt lat="43.66816" lon="6.93944">
        <ele>362.7</ele>
        <time>2026-05-15T14:38:36Z</time>
      </trkpt>
      <trkpt lat="43.66824" lon="6.93957">
        <ele>362.2</ele>
        <time>2026-05-15T14:38:37Z</time>
      </trkpt>
      <trkpt lat="43.66832" lon="6.9397">
        <ele>362</ele>
        <time>2026-05-15T14:38:38Z</time>
      </trkpt>
      <trkpt lat="43.6684" lon="6.93984">
        <ele>361.7</ele>
        <time>2026-05-15T14:38:39Z</time>
      </trkpt>
      <trkpt lat="43.66849" lon="6.93996">
        <ele>361.7</ele>
        <time>2026-05-15T14:38:40Z</time>
      </trkpt>
      <trkpt lat="43.6686" lon="6.94007">
        <ele>361.8</ele>
        <time>2026-05-15T14:38:41Z</time>
      </trkpt>
      <trkpt lat="43.66871" lon="6.94018">
        <ele>360.9</ele>
        <time>2026-05-15T14:38:42Z</time>
      </trkpt>
      <trkpt lat="43.66882" lon="6.94028">
        <ele>361.2</ele>
        <time>2026-05-15T14:38:43Z</time>
      </trkpt>
      <trkpt lat="43.66895" lon="6.94037">
        <ele>361.2</ele>
        <time>2026-05-15T14:38:44Z</time>
      </trkpt>
      <trkpt lat="43.66908" lon="6.94043">
        <ele>361.4</ele>
        <time>2026-05-15T14:38:45Z</time>
      </trkpt>
      <trkpt lat="43.66921" lon="6.9405">
        <ele>362.3</ele>
        <time>2026-05-15T14:38:46Z</time>
      </trkpt>
      <trkpt lat="43.66933" lon="6.94058">
        <ele>362.8</ele>
        <time>2026-05-15T14:38:47Z</time>
      </trkpt>
      <trkpt lat="43.66946" lon="6.94066">
        <ele>362.7</ele>
        <time>2026-05-15T14:38:48Z</time>
      </trkpt>
      <trkpt lat="43.66959" lon="6.94076">
        <ele>363</ele>
        <time>2026-05-15T14:38:49Z</time>
      </trkpt>
      <trkpt lat="43.66972" lon="6.94087">
        <ele>363.2</ele>
        <time>2026-05-15T14:38:50Z</time>
      </trkpt>
      <trkpt lat="43.66983" lon="6.941">
        <ele>363.3</ele>
        <time>2026-05-15T14:38:51Z</time>
      </trkpt>
      <trkpt lat="43.66993" lon="6.94112">
        <ele>363.8</ele>
        <time>2026-05-15T14:38:52Z</time>
      </trkpt>
      <trkpt lat="43.67003" lon="6.94124">
        <ele>363.8</ele>
        <time>2026-05-15T14:38:53Z</time>
      </trkpt>
      <trkpt lat="43.67013" lon="6.94134">
        <ele>363.5</ele>
        <time>2026-05-15T14:38:54Z</time>
      </trkpt>
      <trkpt lat="43.67024" lon="6.94142">
        <ele>363.5</ele>
        <time>2026-05-15T14:38:55Z</time>
      </trkpt>
      <trkpt lat="43.67037" lon="6.94148">
        <ele>363.6</ele>
        <time>2026-05-15T14:38:56Z</time>
      </trkpt>
      <trkpt lat="43.67051" lon="6.94153">
        <ele>363.9</ele>
        <time>2026-05-15T14:38:57Z</time>
      </trkpt>
      <trkpt lat="43.67064" lon="6.94157">
        <ele>364.9</ele>
        <time>2026-05-15T14:38:58Z</time>
      </trkpt>
      <trkpt lat="43.67078" lon="6.94161">
        <ele>367</ele>
        <time>2026-05-15T14:38:59Z</time>
      </trkpt>
      <trkpt lat="43.67093" lon="6.94166">
        <ele>367.5</ele>
        <time>2026-05-15T14:39:00Z</time>
      </trkpt>
      <trkpt lat="43.67106" lon="6.94175">
        <ele>366.1</ele>
        <time>2026-05-15T14:39:01Z</time>
      </trkpt>
      <trkpt lat="43.67119" lon="6.94184">
        <ele>366.8</ele>
        <time>2026-05-15T14:39:02Z</time>
      </trkpt>
      <trkpt lat="43.67132" lon="6.94194">
        <ele>366.9</ele>
        <time>2026-05-15T14:39:03Z</time>
      </trkpt>
      <trkpt lat="43.67145" lon="6.94204">
        <ele>367.6</ele>
        <time>2026-05-15T14:39:04Z</time>
      </trkpt>
      <trkpt lat="43.67157" lon="6.94213">
        <ele>368.2</ele>
        <time>2026-05-15T14:39:05Z</time>
      </trkpt>
      <trkpt lat="43.67169" lon="6.94222">
        <ele>368.4</ele>
        <time>2026-05-15T14:39:06Z</time>
      </trkpt>
      <trkpt lat="43.6718" lon="6.94232">
        <ele>368.1</ele>
        <time>2026-05-15T14:39:07Z</time>
      </trkpt>
      <trkpt lat="43.6719" lon="6.94244">
        <ele>369</ele>
        <time>2026-05-15T14:39:08Z</time>
      </trkpt>
      <trkpt lat="43.67198" lon="6.94259">
        <ele>368.4</ele>
        <time>2026-05-15T14:39:09Z</time>
      </trkpt>
      <trkpt lat="43.67206" lon="6.94275">
        <ele>367.5</ele>
        <time>2026-05-15T14:39:10Z</time>
      </trkpt>
      <trkpt lat="43.67213" lon="6.94291">
        <ele>368.6</ele>
        <time>2026-05-15T14:39:11Z</time>
      </trkpt>
      <trkpt lat="43.6722" lon="6.94305">
        <ele>370.1</ele>
        <time>2026-05-15T14:39:12Z</time>
      </trkpt>
      <trkpt lat="43.67228" lon="6.94317">
        <ele>370.5</ele>
        <time>2026-05-15T14:39:13Z</time>
      </trkpt>
      <trkpt lat="43.67238" lon="6.94327">
        <ele>370.5</ele>
        <time>2026-05-15T14:39:14Z</time>
      </trkpt>
      <trkpt lat="43.67248" lon="6.94335">
        <ele>370.2</ele>
        <time>2026-05-15T14:39:15Z</time>
      </trkpt>
      <trkpt lat="43.6726" lon="6.94341">
        <ele>370.4</ele>
        <time>2026-05-15T14:39:16Z</time>
      </trkpt>
      <trkpt lat="43.67273" lon="6.94345">
        <ele>371.1</ele>
        <time>2026-05-15T14:39:17Z</time>
      </trkpt>
      <trkpt lat="43.67286" lon="6.94348">
        <ele>371.3</ele>
        <time>2026-05-15T14:39:18Z</time>
      </trkpt>
      <trkpt lat="43.673" lon="6.94348">
        <ele>372.4</ele>
        <time>2026-05-15T14:39:19Z</time>
      </trkpt>
      <trkpt lat="43.67313" lon="6.94348">
        <ele>372.5</ele>
        <time>2026-05-15T14:39:20Z</time>
      </trkpt>
      <trkpt lat="43.67325" lon="6.94347">
        <ele>372.4</ele>
        <time>2026-05-15T14:39:21Z</time>
      </trkpt>
      <trkpt lat="43.67336" lon="6.94346">
        <ele>372.4</ele>
        <time>2026-05-15T14:39:22Z</time>
      </trkpt>
      <trkpt lat="43.67348" lon="6.94346">
        <ele>372.2</ele>
        <time>2026-05-15T14:39:23Z</time>
      </trkpt>
      <trkpt lat="43.67358" lon="6.94348">
        <ele>371.3</ele>
        <time>2026-05-15T14:39:24Z</time>
      </trkpt>
      <trkpt lat="43.67368" lon="6.94353">
        <ele>371.9</ele>
        <time>2026-05-15T14:39:25Z</time>
      </trkpt>
      <trkpt lat="43.67376" lon="6.94361">
        <ele>373.4</ele>
        <time>2026-05-15T14:39:26Z</time>
      </trkpt>
      <trkpt lat="43.67382" lon="6.94372">
        <ele>374.2</ele>
        <time>2026-05-15T14:39:27Z</time>
      </trkpt>
      <trkpt lat="43.67387" lon="6.94386">
        <ele>374.4</ele>
        <time>2026-05-15T14:39:28Z</time>
      </trkpt>
      <trkpt lat="43.67392" lon="6.94402">
        <ele>375.6</ele>
        <time>2026-05-15T14:39:29Z</time>
      </trkpt>
      <trkpt lat="43.67399" lon="6.94417">
        <ele>376.5</ele>
        <time>2026-05-15T14:39:30Z</time>
      </trkpt>
      <trkpt lat="43.67407" lon="6.94432">
        <ele>375.1</ele>
        <time>2026-05-15T14:39:31Z</time>
      </trkpt>
      <trkpt lat="43.67416" lon="6.94446">
        <ele>375.3</ele>
        <time>2026-05-15T14:39:32Z</time>
      </trkpt>
      <trkpt lat="43.67425" lon="6.94461">
        <ele>375.2</ele>
        <time>2026-05-15T14:39:33Z</time>
      </trkpt>
      <trkpt lat="43.67435" lon="6.94475">
        <ele>375.4</ele>
        <time>2026-05-15T14:39:34Z</time>
      </trkpt>
      <trkpt lat="43.67446" lon="6.94489">
        <ele>375.2</ele>
        <time>2026-05-15T14:39:35Z</time>
      </trkpt>
      <trkpt lat="43.67457" lon="6.94501">
        <ele>375.3</ele>
        <time>2026-05-15T14:39:36Z</time>
      </trkpt>
      <trkpt lat="43.67467" lon="6.94513">
        <ele>376.2</ele>
        <time>2026-05-15T14:39:37Z</time>
      </trkpt>
      <trkpt lat="43.67478" lon="6.94525">
        <ele>378</ele>
        <time>2026-05-15T14:39:38Z</time>
      </trkpt>
      <trkpt lat="43.67488" lon="6.94539">
        <ele>377.8</ele>
        <time>2026-05-15T14:39:39Z</time>
      </trkpt>
      <trkpt lat="43.67497" lon="6.94552">
        <ele>377.7</ele>
        <time>2026-05-15T14:39:40Z</time>
      </trkpt>
      <trkpt lat="43.67505" lon="6.94566">
        <ele>378.8</ele>
        <time>2026-05-15T14:39:41Z</time>
      </trkpt>
      <trkpt lat="43.67512" lon="6.94581">
        <ele>379.2</ele>
        <time>2026-05-15T14:39:42Z</time>
      </trkpt>
      <trkpt lat="43.67519" lon="6.94595">
        <ele>378.9</ele>
        <time>2026-05-15T14:39:43Z</time>
      </trkpt>
      <trkpt lat="43.67528" lon="6.94609">
        <ele>379.5</ele>
        <time>2026-05-15T14:39:44Z</time>
      </trkpt>
      <trkpt lat="43.67538" lon="6.94621">
        <ele>379.3</ele>
        <time>2026-05-15T14:39:45Z</time>
      </trkpt>
      <trkpt lat="43.67549" lon="6.9463">
        <ele>379.7</ele>
        <time>2026-05-15T14:39:46Z</time>
      </trkpt>
      <trkpt lat="43.67559" lon="6.94637">
        <ele>379.8</ele>
        <time>2026-05-15T14:39:47Z</time>
      </trkpt>
      <trkpt lat="43.67566" lon="6.9464">
        <ele>379.8</ele>
        <time>2026-05-15T14:39:48Z</time>
      </trkpt>
      <trkpt lat="43.67573" lon="6.94643">
        <ele>379.8</ele>
        <time>2026-05-15T14:39:49Z</time>
      </trkpt>
      <trkpt lat="43.67579" lon="6.94646">
        <ele>379.7</ele>
        <time>2026-05-15T14:39:50Z</time>
      </trkpt>
      <trkpt lat="43.67585" lon="6.94649">
        <ele>379.9</ele>
        <time>2026-05-15T14:39:51Z</time>
      </trkpt>
      <trkpt lat="43.67589" lon="6.94652">
        <ele>380.2</ele>
        <time>2026-05-15T14:39:52Z</time>
      </trkpt>
      <trkpt lat="43.67593" lon="6.94654">
        <ele>380.8</ele>
        <time>2026-05-15T14:39:53Z</time>
      </trkpt>
      <trkpt lat="43.67597" lon="6.94656">
        <ele>381.2</ele>
        <time>2026-05-15T14:39:54Z</time>
      </trkpt>
      <trkpt lat="43.676" lon="6.94658">
        <ele>381.3</ele>
        <time>2026-05-15T14:39:55Z</time>
      </trkpt>
      <trkpt lat="43.67603" lon="6.9466">
        <ele>381.4</ele>
        <time>2026-05-15T14:39:56Z</time>
      </trkpt>
      <trkpt lat="43.67605" lon="6.94662">
        <ele>381.2</ele>
        <time>2026-05-15T14:39:57Z</time>
      </trkpt>
      <trkpt lat="43.67608" lon="6.94664">
        <ele>381.3</ele>
        <time>2026-05-15T14:39:58Z</time>
      </trkpt>
      <trkpt lat="43.6761" lon="6.94666">
        <ele>381</ele>
        <time>2026-05-15T14:39:59Z</time>
      </trkpt>
      <trkpt lat="43.67612" lon="6.94668">
        <ele>380.8</ele>
        <time>2026-05-15T14:40:00Z</time>
      </trkpt>
      <trkpt lat="43.67614" lon="6.9467">
        <ele>380.6</ele>
        <time>2026-05-15T14:40:01Z</time>
      </trkpt>
      <trkpt lat="43.67616" lon="6.94672">
        <ele>380.4</ele>
        <time>2026-05-15T14:40:02Z</time>
      </trkpt>
      <trkpt lat="43.67618" lon="6.94674">
        <ele>380.2</ele>
        <time>2026-05-15T14:40:03Z</time>
      </trkpt>
      <trkpt lat="43.6762" lon="6.94676">
        <ele>380.1</ele>
        <time>2026-05-15T14:40:04Z</time>
      </trkpt>
      <trkpt lat="43.67622" lon="6.94678">
        <ele>380</ele>
        <time>2026-05-15T14:40:05Z</time>
      </trkpt>
      <trkpt lat="43.67624" lon="6.9468">
        <ele>379.9</ele>
        <time>2026-05-15T14:40:06Z</time>
      </trkpt>
      <trkpt lat="43.67625" lon="6.94681">
        <ele>379.9</ele>
        <time>2026-05-15T14:40:07Z</time>
      </trkpt>
      <trkpt lat="43.67626" lon="6.94682">
        <ele>379.8</ele>
        <time>2026-05-15T14:40:08Z</time>
      </trkpt>
      <trkpt lat="43.67626" lon="6.94682">
        <ele>379.8</ele>
        <time>2026-05-15T14:40:09Z</time>
      </trkpt>
      <trkpt lat="43.67626" lon="6.94682">
        <ele>379.8</ele>
        <time>2026-05-15T14:40:10Z</time>
      </trkpt>
      <trkpt lat="43.67625" lon="6.94682">
        <ele>379.6</ele>
        <time>2026-05-15T14:40:11Z</time>
      </trkpt>
      <trkpt lat="43.67625" lon="6.94682">
        <ele>379.6</ele>
        <time>2026-05-15T14:40:12Z</time>
      </trkpt>
      <trkpt lat="43.67625" lon="6.94682">
        <ele>379.6</ele>
        <time>2026-05-15T14:40:13Z</time>
      </trkpt>
      <trkpt lat="43.67626" lon="6.94683">
        <ele>379.6</ele>
        <time>2026-05-15T14:40:14Z</time>
      </trkpt>
      <trkpt lat="43.67627" lon="6.94684">
        <ele>379.5</ele>
        <time>2026-05-15T14:40:15Z</time>
      </trkpt>
      <trkpt lat="43.67629" lon="6.94686">
        <ele>379.5</ele>
        <time>2026-05-15T14:40:16Z</time>
      </trkpt>
      <trkpt lat="43.67636" lon="6.94692">
        <ele>379.8</ele>
        <time>2026-05-15T14:40:17Z</time>
      </trkpt>
      <trkpt lat="43.67643" lon="6.94696">
        <ele>380</ele>
        <time>2026-05-15T14:40:18Z</time>
      </trkpt>
      <trkpt lat="43.67652" lon="6.947">
        <ele>379.8</ele>
        <time>2026-05-15T14:40:19Z</time>
      </trkpt>
      <trkpt lat="43.67661" lon="6.94703">
        <ele>379.9</ele>
        <time>2026-05-15T14:40:20Z</time>
      </trkpt>
      <trkpt lat="43.6767" lon="6.94706">
        <ele>379.8</ele>
        <time>2026-05-15T14:40:21Z</time>
      </trkpt>
      <trkpt lat="43.67681" lon="6.94709">
        <ele>379.6</ele>
        <time>2026-05-15T14:40:22Z</time>
      </trkpt>
      <trkpt lat="43.67691" lon="6.94712">
        <ele>379.6</ele>
        <time>2026-05-15T14:40:23Z</time>
      </trkpt>
      <trkpt lat="43.67701" lon="6.94715">
        <ele>380.5</ele>
        <time>2026-05-15T14:40:24Z</time>
      </trkpt>
      <trkpt lat="43.67712" lon="6.94717">
        <ele>382.1</ele>
        <time>2026-05-15T14:40:25Z</time>
      </trkpt>
      <trkpt lat="43.67724" lon="6.9472">
        <ele>383.5</ele>
        <time>2026-05-15T14:40:26Z</time>
      </trkpt>
      <trkpt lat="43.67735" lon="6.94724">
        <ele>383.1</ele>
        <time>2026-05-15T14:40:27Z</time>
      </trkpt>
      <trkpt lat="43.67748" lon="6.94727">
        <ele>383.2</ele>
        <time>2026-05-15T14:40:28Z</time>
      </trkpt>
      <trkpt lat="43.6776" lon="6.94731">
        <ele>383.4</ele>
        <time>2026-05-15T14:40:29Z</time>
      </trkpt>
      <trkpt lat="43.67772" lon="6.94734">
        <ele>384.1</ele>
        <time>2026-05-15T14:40:30Z</time>
      </trkpt>
      <trkpt lat="43.67784" lon="6.94738">
        <ele>384.8</ele>
        <time>2026-05-15T14:40:31Z</time>
      </trkpt>
      <trkpt lat="43.67796" lon="6.94742">
        <ele>385.1</ele>
        <time>2026-05-15T14:40:32Z</time>
      </trkpt>
      <trkpt lat="43.67807" lon="6.94746">
        <ele>385.3</ele>
        <time>2026-05-15T14:40:33Z</time>
      </trkpt>
      <trkpt lat="43.67818" lon="6.94749">
        <ele>385.1</ele>
        <time>2026-05-15T14:40:34Z</time>
      </trkpt>
      <trkpt lat="43.67828" lon="6.94752">
        <ele>384.8</ele>
        <time>2026-05-15T14:40:35Z</time>
      </trkpt>
      <trkpt lat="43.67838" lon="6.94755">
        <ele>384.9</ele>
        <time>2026-05-15T14:40:36Z</time>
      </trkpt>
      <trkpt lat="43.67848" lon="6.94758">
        <ele>385.2</ele>
        <time>2026-05-15T14:40:37Z</time>
      </trkpt>
      <trkpt lat="43.67859" lon="6.94762">
        <ele>385.2</ele>
        <time>2026-05-15T14:40:38Z</time>
      </trkpt>
      <trkpt lat="43.67869" lon="6.94764">
        <ele>385.3</ele>
        <time>2026-05-15T14:40:39Z</time>
      </trkpt>
      <trkpt lat="43.67879" lon="6.94767">
        <ele>385.3</ele>
        <time>2026-05-15T14:40:40Z</time>
      </trkpt>
      <trkpt lat="43.67889" lon="6.9477">
        <ele>385.6</ele>
        <time>2026-05-15T14:40:41Z</time>
      </trkpt>
      <trkpt lat="43.67899" lon="6.94774">
        <ele>385.3</ele>
        <time>2026-05-15T14:40:42Z</time>
      </trkpt>
      <trkpt lat="43.6791" lon="6.94776">
        <ele>385.2</ele>
        <time>2026-05-15T14:40:43Z</time>
      </trkpt>
      <trkpt lat="43.6792" lon="6.9478">
        <ele>384.9</ele>
        <time>2026-05-15T14:40:44Z</time>
      </trkpt>
      <trkpt lat="43.67931" lon="6.94783">
        <ele>384.9</ele>
        <time>2026-05-15T14:40:45Z</time>
      </trkpt>
      <trkpt lat="43.67941" lon="6.94786">
        <ele>384.7</ele>
        <time>2026-05-15T14:40:46Z</time>
      </trkpt>
      <trkpt lat="43.67951" lon="6.9479">
        <ele>383.8</ele>
        <time>2026-05-15T14:40:47Z</time>
      </trkpt>
      <trkpt lat="43.67959" lon="6.94797">
        <ele>382</ele>
        <time>2026-05-15T14:40:48Z</time>
      </trkpt>
      <trkpt lat="43.67967" lon="6.94805">
        <ele>379.7</ele>
        <time>2026-05-15T14:40:49Z</time>
      </trkpt>
      <trkpt lat="43.67973" lon="6.94816">
        <ele>379.2</ele>
        <time>2026-05-15T14:40:50Z</time>
      </trkpt>
      <trkpt lat="43.67977" lon="6.94829">
        <ele>380.9</ele>
        <time>2026-05-15T14:40:51Z</time>
      </trkpt>
      <trkpt lat="43.67978" lon="6.94843">
        <ele>382.5</ele>
        <time>2026-05-15T14:40:52Z</time>
      </trkpt>
      <trkpt lat="43.67978" lon="6.94858">
        <ele>384.2</ele>
        <time>2026-05-15T14:40:53Z</time>
      </trkpt>
      <trkpt lat="43.67975" lon="6.94874">
        <ele>386</ele>
        <time>2026-05-15T14:40:54Z</time>
      </trkpt>
      <trkpt lat="43.6797" lon="6.9489">
        <ele>387.1</ele>
        <time>2026-05-15T14:40:55Z</time>
      </trkpt>
      <trkpt lat="43.67965" lon="6.94907">
        <ele>386.5</ele>
        <time>2026-05-15T14:40:56Z</time>
      </trkpt>
      <trkpt lat="43.6796" lon="6.94924">
        <ele>387</ele>
        <time>2026-05-15T14:40:57Z</time>
      </trkpt>
      <trkpt lat="43.67956" lon="6.94941">
        <ele>388.4</ele>
        <time>2026-05-15T14:40:58Z</time>
      </trkpt>
      <trkpt lat="43.67955" lon="6.94958">
        <ele>388.9</ele>
        <time>2026-05-15T14:40:59Z</time>
      </trkpt>
      <trkpt lat="43.67955" lon="6.94975">
        <ele>389</ele>
        <time>2026-05-15T14:41:00Z</time>
      </trkpt>
      <trkpt lat="43.67958" lon="6.94993">
        <ele>388.9</ele>
        <time>2026-05-15T14:41:01Z</time>
      </trkpt>
      <trkpt lat="43.67963" lon="6.95009">
        <ele>388.9</ele>
        <time>2026-05-15T14:41:02Z</time>
      </trkpt>
      <trkpt lat="43.6797" lon="6.95023">
        <ele>389.1</ele>
        <time>2026-05-15T14:41:03Z</time>
      </trkpt>
      <trkpt lat="43.67977" lon="6.95036">
        <ele>389.4</ele>
        <time>2026-05-15T14:41:04Z</time>
      </trkpt>
      <trkpt lat="43.67983" lon="6.95049">
        <ele>389.5</ele>
        <time>2026-05-15T14:41:05Z</time>
      </trkpt>
      <trkpt lat="43.67987" lon="6.95064">
        <ele>389.3</ele>
        <time>2026-05-15T14:41:06Z</time>
      </trkpt>
      <trkpt lat="43.6799" lon="6.9508">
        <ele>389</ele>
        <time>2026-05-15T14:41:07Z</time>
      </trkpt>
      <trkpt lat="43.67991" lon="6.95096">
        <ele>390</ele>
        <time>2026-05-15T14:41:08Z</time>
      </trkpt>
      <trkpt lat="43.67991" lon="6.95113">
        <ele>391.1</ele>
        <time>2026-05-15T14:41:09Z</time>
      </trkpt>
      <trkpt lat="43.6799" lon="6.95129">
        <ele>391.5</ele>
        <time>2026-05-15T14:41:10Z</time>
      </trkpt>
      <trkpt lat="43.67991" lon="6.95143">
        <ele>391.7</ele>
        <time>2026-05-15T14:41:11Z</time>
      </trkpt>
      <trkpt lat="43.67994" lon="6.95157">
        <ele>390.9</ele>
        <time>2026-05-15T14:41:12Z</time>
      </trkpt>
      <trkpt lat="43.67998" lon="6.95171">
        <ele>390.3</ele>
        <time>2026-05-15T14:41:13Z</time>
      </trkpt>
      <trkpt lat="43.68005" lon="6.95183">
        <ele>391.2</ele>
        <time>2026-05-15T14:41:14Z</time>
      </trkpt>
      <trkpt lat="43.68013" lon="6.95196">
        <ele>392.1</ele>
        <time>2026-05-15T14:41:15Z</time>
      </trkpt>
      <trkpt lat="43.68021" lon="6.95209">
        <ele>392.2</ele>
        <time>2026-05-15T14:41:16Z</time>
      </trkpt>
      <trkpt lat="43.6803" lon="6.95222">
        <ele>392.5</ele>
        <time>2026-05-15T14:41:17Z</time>
      </trkpt>
      <trkpt lat="43.68038" lon="6.95236">
        <ele>392.1</ele>
        <time>2026-05-15T14:41:18Z</time>
      </trkpt>
      <trkpt lat="43.68047" lon="6.95249">
        <ele>392.7</ele>
        <time>2026-05-15T14:41:19Z</time>
      </trkpt>
      <trkpt lat="43.68055" lon="6.95263">
        <ele>393</ele>
        <time>2026-05-15T14:41:20Z</time>
      </trkpt>
      <trkpt lat="43.68062" lon="6.95276">
        <ele>392.4</ele>
        <time>2026-05-15T14:41:21Z</time>
      </trkpt>
      <trkpt lat="43.68069" lon="6.95289">
        <ele>392.4</ele>
        <time>2026-05-15T14:41:22Z</time>
      </trkpt>
      <trkpt lat="43.68076" lon="6.95301">
        <ele>392.8</ele>
        <time>2026-05-15T14:41:23Z</time>
      </trkpt>
      <trkpt lat="43.68082" lon="6.95315">
        <ele>393.3</ele>
        <time>2026-05-15T14:41:24Z</time>
      </trkpt>
      <trkpt lat="43.68088" lon="6.95327">
        <ele>394.4</ele>
        <time>2026-05-15T14:41:25Z</time>
      </trkpt>
      <trkpt lat="43.68094" lon="6.95339">
        <ele>395</ele>
        <time>2026-05-15T14:41:26Z</time>
      </trkpt>
      <trkpt lat="43.681" lon="6.95351">
        <ele>394.9</ele>
        <time>2026-05-15T14:41:27Z</time>
      </trkpt>
      <trkpt lat="43.68106" lon="6.95364">
        <ele>394.7</ele>
        <time>2026-05-15T14:41:28Z</time>
      </trkpt>
      <trkpt lat="43.68112" lon="6.95377">
        <ele>395.1</ele>
        <time>2026-05-15T14:41:29Z</time>
      </trkpt>
      <trkpt lat="43.68118" lon="6.9539">
        <ele>395.5</ele>
        <time>2026-05-15T14:41:30Z</time>
      </trkpt>
      <trkpt lat="43.68125" lon="6.95405">
        <ele>394.6</ele>
        <time>2026-05-15T14:41:31Z</time>
      </trkpt>
      <trkpt lat="43.68132" lon="6.9542">
        <ele>394.6</ele>
        <time>2026-05-15T14:41:32Z</time>
      </trkpt>
      <trkpt lat="43.68139" lon="6.95436">
        <ele>396.3</ele>
        <time>2026-05-15T14:41:33Z</time>
      </trkpt>
      <trkpt lat="43.68146" lon="6.95451">
        <ele>397.2</ele>
        <time>2026-05-15T14:41:34Z</time>
      </trkpt>
      <trkpt lat="43.68153" lon="6.95467">
        <ele>397.2</ele>
        <time>2026-05-15T14:41:35Z</time>
      </trkpt>
      <trkpt lat="43.68159" lon="6.95482">
        <ele>397.5</ele>
        <time>2026-05-15T14:41:36Z</time>
      </trkpt>
      <trkpt lat="43.68165" lon="6.95498">
        <ele>397.7</ele>
        <time>2026-05-15T14:41:37Z</time>
      </trkpt>
      <trkpt lat="43.6817" lon="6.95515">
        <ele>398.1</ele>
        <time>2026-05-15T14:41:38Z</time>
      </trkpt>
      <trkpt lat="43.68175" lon="6.95532">
        <ele>397.2</ele>
        <time>2026-05-15T14:41:39Z</time>
      </trkpt>
      <trkpt lat="43.68181" lon="6.95549">
        <ele>396.4</ele>
        <time>2026-05-15T14:41:40Z</time>
      </trkpt>
      <trkpt lat="43.68183" lon="6.95565">
        <ele>396.4</ele>
        <time>2026-05-15T14:41:41Z</time>
      </trkpt>
      <trkpt lat="43.68183" lon="6.95581">
        <ele>396.8</ele>
        <time>2026-05-15T14:41:42Z</time>
      </trkpt>
      <trkpt lat="43.6818" lon="6.95596">
        <ele>398.1</ele>
        <time>2026-05-15T14:41:43Z</time>
      </trkpt>
      <trkpt lat="43.68175" lon="6.95611">
        <ele>399.8</ele>
        <time>2026-05-15T14:41:44Z</time>
      </trkpt>
      <trkpt lat="43.68168" lon="6.95625">
        <ele>398.8</ele>
        <time>2026-05-15T14:41:45Z</time>
      </trkpt>
      <trkpt lat="43.68162" lon="6.9564">
        <ele>397.6</ele>
        <time>2026-05-15T14:41:46Z</time>
      </trkpt>
      <trkpt lat="43.68155" lon="6.95655">
        <ele>397.4</ele>
        <time>2026-05-15T14:41:47Z</time>
      </trkpt>
      <trkpt lat="43.68149" lon="6.95668">
        <ele>397.8</ele>
        <time>2026-05-15T14:41:48Z</time>
      </trkpt>
      <trkpt lat="43.68144" lon="6.95681">
        <ele>398.4</ele>
        <time>2026-05-15T14:41:49Z</time>
      </trkpt>
      <trkpt lat="43.68139" lon="6.95693">
        <ele>398.8</ele>
        <time>2026-05-15T14:41:50Z</time>
      </trkpt>
      <trkpt lat="43.68133" lon="6.95706">
        <ele>398.2</ele>
        <time>2026-05-15T14:41:51Z</time>
      </trkpt>
      <trkpt lat="43.68128" lon="6.95719">
        <ele>398.4</ele>
        <time>2026-05-15T14:41:52Z</time>
      </trkpt>
      <trkpt lat="43.68122" lon="6.95732">
        <ele>398.9</ele>
        <time>2026-05-15T14:41:53Z</time>
      </trkpt>
      <trkpt lat="43.68117" lon="6.95744">
        <ele>399.6</ele>
        <time>2026-05-15T14:41:54Z</time>
      </trkpt>
      <trkpt lat="43.68112" lon="6.95755">
        <ele>400</ele>
        <time>2026-05-15T14:41:55Z</time>
      </trkpt>
      <trkpt lat="43.68109" lon="6.95767">
        <ele>400.6</ele>
        <time>2026-05-15T14:41:56Z</time>
      </trkpt>
      <trkpt lat="43.68106" lon="6.95779">
        <ele>400.9</ele>
        <time>2026-05-15T14:41:57Z</time>
      </trkpt>
      <trkpt lat="43.68105" lon="6.95794">
        <ele>400</ele>
        <time>2026-05-15T14:41:58Z</time>
      </trkpt>
      <trkpt lat="43.68107" lon="6.95807">
        <ele>400.2</ele>
        <time>2026-05-15T14:41:59Z</time>
      </trkpt>
      <trkpt lat="43.6811" lon="6.95818">
        <ele>400.3</ele>
        <time>2026-05-15T14:42:00Z</time>
      </trkpt>
      <trkpt lat="43.68116" lon="6.95829">
        <ele>401.1</ele>
        <time>2026-05-15T14:42:01Z</time>
      </trkpt>
      <trkpt lat="43.68121" lon="6.95839">
        <ele>401.2</ele>
        <time>2026-05-15T14:42:02Z</time>
      </trkpt>
      <trkpt lat="43.68126" lon="6.95848">
        <ele>401.2</ele>
        <time>2026-05-15T14:42:03Z</time>
      </trkpt>
      <trkpt lat="43.6813" lon="6.95856">
        <ele>401</ele>
        <time>2026-05-15T14:42:04Z</time>
      </trkpt>
      <trkpt lat="43.68134" lon="6.95863">
        <ele>401.2</ele>
        <time>2026-05-15T14:42:05Z</time>
      </trkpt>
      <trkpt lat="43.68138" lon="6.95871">
        <ele>401.6</ele>
        <time>2026-05-15T14:42:06Z</time>
      </trkpt>
      <trkpt lat="43.68141" lon="6.95878">
        <ele>401.9</ele>
        <time>2026-05-15T14:42:07Z</time>
      </trkpt>
      <trkpt lat="43.68143" lon="6.95886">
        <ele>401.8</ele>
        <time>2026-05-15T14:42:08Z</time>
      </trkpt>
      <trkpt lat="43.68145" lon="6.95893">
        <ele>401.9</ele>
        <time>2026-05-15T14:42:09Z</time>
      </trkpt>
      <trkpt lat="43.68147" lon="6.95901">
        <ele>402</ele>
        <time>2026-05-15T14:42:10Z</time>
      </trkpt>
      <trkpt lat="43.68149" lon="6.9591">
        <ele>401.8</ele>
        <time>2026-05-15T14:42:11Z</time>
      </trkpt>
      <trkpt lat="43.68149" lon="6.9592">
        <ele>401.1</ele>
        <time>2026-05-15T14:42:12Z</time>
      </trkpt>
      <trkpt lat="43.68149" lon="6.9593">
        <ele>400.9</ele>
        <time>2026-05-15T14:42:13Z</time>
      </trkpt>
      <trkpt lat="43.68149" lon="6.9594">
        <ele>400.6</ele>
        <time>2026-05-15T14:42:14Z</time>
      </trkpt>
      <trkpt lat="43.68149" lon="6.95951">
        <ele>400.5</ele>
        <time>2026-05-15T14:42:15Z</time>
      </trkpt>
      <trkpt lat="43.6815" lon="6.95963">
        <ele>400.7</ele>
        <time>2026-05-15T14:42:16Z</time>
      </trkpt>
      <trkpt lat="43.68152" lon="6.95974">
        <ele>400.9</ele>
        <time>2026-05-15T14:42:17Z</time>
      </trkpt>
      <trkpt lat="43.68154" lon="6.95984">
        <ele>399.9</ele>
        <time>2026-05-15T14:42:18Z</time>
      </trkpt>
      <trkpt lat="43.68158" lon="6.95994">
        <ele>399.9</ele>
        <time>2026-05-15T14:42:19Z</time>
      </trkpt>
      <trkpt lat="43.68163" lon="6.96004">
        <ele>400.3</ele>
        <time>2026-05-15T14:42:20Z</time>
      </trkpt>
      <trkpt lat="43.68169" lon="6.96014">
        <ele>400.4</ele>
        <time>2026-05-15T14:42:21Z</time>
      </trkpt>
      <trkpt lat="43.68175" lon="6.96024">
        <ele>400.7</ele>
        <time>2026-05-15T14:42:22Z</time>
      </trkpt>
      <trkpt lat="43.6818" lon="6.96033">
        <ele>401.6</ele>
        <time>2026-05-15T14:42:23Z</time>
      </trkpt>
      <trkpt lat="43.68185" lon="6.96043">
        <ele>402.7</ele>
        <time>2026-05-15T14:42:24Z</time>
      </trkpt>
      <trkpt lat="43.68189" lon="6.96053">
        <ele>403.6</ele>
        <time>2026-05-15T14:42:25Z</time>
      </trkpt>
      <trkpt lat="43.68191" lon="6.96066">
        <ele>403</ele>
        <time>2026-05-15T14:42:26Z</time>
      </trkpt>
      <trkpt lat="43.68191" lon="6.96078">
        <ele>401.5</ele>
        <time>2026-05-15T14:42:27Z</time>
      </trkpt>
      <trkpt lat="43.68189" lon="6.96091">
        <ele>401.1</ele>
        <time>2026-05-15T14:42:28Z</time>
      </trkpt>
      <trkpt lat="43.68184" lon="6.96103">
        <ele>401.6</ele>
        <time>2026-05-15T14:42:29Z</time>
      </trkpt>
      <trkpt lat="43.68179" lon="6.96115">
        <ele>402.6</ele>
        <time>2026-05-15T14:42:30Z</time>
      </trkpt>
      <trkpt lat="43.68175" lon="6.96128">
        <ele>402.9</ele>
        <time>2026-05-15T14:42:31Z</time>
      </trkpt>
      <trkpt lat="43.68171" lon="6.96142">
        <ele>402.7</ele>
        <time>2026-05-15T14:42:32Z</time>
      </trkpt>
      <trkpt lat="43.68171" lon="6.96158">
        <ele>402.3</ele>
        <time>2026-05-15T14:42:33Z</time>
      </trkpt>
      <trkpt lat="43.68172" lon="6.96175">
        <ele>402.1</ele>
        <time>2026-05-15T14:42:34Z</time>
      </trkpt>
      <trkpt lat="43.68174" lon="6.96192">
        <ele>402.2</ele>
        <time>2026-05-15T14:42:35Z</time>
      </trkpt>
      <trkpt lat="43.68175" lon="6.96207">
        <ele>401.8</ele>
        <time>2026-05-15T14:42:36Z</time>
      </trkpt>
      <trkpt lat="43.68178" lon="6.96223">
        <ele>402.1</ele>
        <time>2026-05-15T14:42:37Z</time>
      </trkpt>
      <trkpt lat="43.68179" lon="6.96238">
        <ele>403.3</ele>
        <time>2026-05-15T14:42:38Z</time>
      </trkpt>
      <trkpt lat="43.68181" lon="6.96251">
        <ele>404.6</ele>
        <time>2026-05-15T14:42:39Z</time>
      </trkpt>
      <trkpt lat="43.68182" lon="6.96265">
        <ele>403.5</ele>
        <time>2026-05-15T14:42:40Z</time>
      </trkpt>
      <trkpt lat="43.68183" lon="6.96278">
        <ele>402.6</ele>
        <time>2026-05-15T14:42:41Z</time>
      </trkpt>
      <trkpt lat="43.68185" lon="6.9629">
        <ele>402.7</ele>
        <time>2026-05-15T14:42:42Z</time>
      </trkpt>
      <trkpt lat="43.68187" lon="6.96301">
        <ele>402.8</ele>
        <time>2026-05-15T14:42:43Z</time>
      </trkpt>
      <trkpt lat="43.68188" lon="6.96312">
        <ele>401.9</ele>
        <time>2026-05-15T14:42:44Z</time>
      </trkpt>
      <trkpt lat="43.6819" lon="6.96322">
        <ele>401.5</ele>
        <time>2026-05-15T14:42:45Z</time>
      </trkpt>
      <trkpt lat="43.68192" lon="6.96331">
        <ele>401.5</ele>
        <time>2026-05-15T14:42:46Z</time>
      </trkpt>
      <trkpt lat="43.68193" lon="6.96341">
        <ele>402</ele>
        <time>2026-05-15T14:42:47Z</time>
      </trkpt>
      <trkpt lat="43.68194" lon="6.96351">
        <ele>402.7</ele>
        <time>2026-05-15T14:42:48Z</time>
      </trkpt>
      <trkpt lat="43.68194" lon="6.96363">
        <ele>402.8</ele>
        <time>2026-05-15T14:42:49Z</time>
      </trkpt>
      <trkpt lat="43.68194" lon="6.96374">
        <ele>402.8</ele>
        <time>2026-05-15T14:42:50Z</time>
      </trkpt>
      <trkpt lat="43.68194" lon="6.96386">
        <ele>402.9</ele>
        <time>2026-05-15T14:42:51Z</time>
      </trkpt>
      <trkpt lat="43.68194" lon="6.96399">
        <ele>402.9</ele>
        <time>2026-05-15T14:42:52Z</time>
      </trkpt>
      <trkpt lat="43.68194" lon="6.96411">
        <ele>402.8</ele>
        <time>2026-05-15T14:42:53Z</time>
      </trkpt>
      <trkpt lat="43.68194" lon="6.96424">
        <ele>402.8</ele>
        <time>2026-05-15T14:42:54Z</time>
      </trkpt>
      <trkpt lat="43.68193" lon="6.96436">
        <ele>402.5</ele>
        <time>2026-05-15T14:42:55Z</time>
      </trkpt>
      <trkpt lat="43.68191" lon="6.96449">
        <ele>402.3</ele>
        <time>2026-05-15T14:42:56Z</time>
      </trkpt>
      <trkpt lat="43.68189" lon="6.96463">
        <ele>402.8</ele>
        <time>2026-05-15T14:42:57Z</time>
      </trkpt>
      <trkpt lat="43.68187" lon="6.96476">
        <ele>403.5</ele>
        <time>2026-05-15T14:42:58Z</time>
      </trkpt>
      <trkpt lat="43.68186" lon="6.96489">
        <ele>404.7</ele>
        <time>2026-05-15T14:42:59Z</time>
      </trkpt>
      <trkpt lat="43.68184" lon="6.96502">
        <ele>405.5</ele>
        <time>2026-05-15T14:43:00Z</time>
      </trkpt>
      <trkpt lat="43.68182" lon="6.96514">
        <ele>405.7</ele>
        <time>2026-05-15T14:43:01Z</time>
      </trkpt>
      <trkpt lat="43.68179" lon="6.96526">
        <ele>405.4</ele>
        <time>2026-05-15T14:43:02Z</time>
      </trkpt>
      <trkpt lat="43.68177" lon="6.96537">
        <ele>405.9</ele>
        <time>2026-05-15T14:43:03Z</time>
      </trkpt>
      <trkpt lat="43.68174" lon="6.96549">
        <ele>406</ele>
        <time>2026-05-15T14:43:04Z</time>
      </trkpt>
      <trkpt lat="43.68172" lon="6.96561">
        <ele>405.8</ele>
        <time>2026-05-15T14:43:05Z</time>
      </trkpt>
      <trkpt lat="43.68169" lon="6.96574">
        <ele>404.7</ele>
        <time>2026-05-15T14:43:06Z</time>
      </trkpt>
      <trkpt lat="43.68166" lon="6.96588">
        <ele>404</ele>
        <time>2026-05-15T14:43:07Z</time>
      </trkpt>
      <trkpt lat="43.68163" lon="6.96601">
        <ele>403.6</ele>
        <time>2026-05-15T14:43:08Z</time>
      </trkpt>
      <trkpt lat="43.6816" lon="6.96615">
        <ele>403.5</ele>
        <time>2026-05-15T14:43:09Z</time>
      </trkpt>
      <trkpt lat="43.68157" lon="6.96629">
        <ele>403.2</ele>
        <time>2026-05-15T14:43:10Z</time>
      </trkpt>
      <trkpt lat="43.68154" lon="6.96642">
        <ele>403.3</ele>
        <time>2026-05-15T14:43:11Z</time>
      </trkpt>
      <trkpt lat="43.68152" lon="6.96654">
        <ele>404.7</ele>
        <time>2026-05-15T14:43:12Z</time>
      </trkpt>
      <trkpt lat="43.6815" lon="6.96667">
        <ele>406.2</ele>
        <time>2026-05-15T14:43:13Z</time>
      </trkpt>
      <trkpt lat="43.68148" lon="6.96679">
        <ele>406.7</ele>
        <time>2026-05-15T14:43:14Z</time>
      </trkpt>
      <trkpt lat="43.68146" lon="6.96691">
        <ele>407.2</ele>
        <time>2026-05-15T14:43:15Z</time>
      </trkpt>
      <trkpt lat="43.68143" lon="6.96703">
        <ele>407.2</ele>
        <time>2026-05-15T14:43:16Z</time>
      </trkpt>
      <trkpt lat="43.68141" lon="6.96716">
        <ele>407.2</ele>
        <time>2026-05-15T14:43:17Z</time>
      </trkpt>
      <trkpt lat="43.68138" lon="6.96728">
        <ele>407.2</ele>
        <time>2026-05-15T14:43:18Z</time>
      </trkpt>
      <trkpt lat="43.68134" lon="6.96741">
        <ele>406.8</ele>
        <time>2026-05-15T14:43:19Z</time>
      </trkpt>
      <trkpt lat="43.68131" lon="6.96754">
        <ele>406.8</ele>
        <time>2026-05-15T14:43:20Z</time>
      </trkpt>
      <trkpt lat="43.68128" lon="6.96767">
        <ele>406.9</ele>
        <time>2026-05-15T14:43:21Z</time>
      </trkpt>
      <trkpt lat="43.68125" lon="6.96779">
        <ele>407.1</ele>
        <time>2026-05-15T14:43:22Z</time>
      </trkpt>
      <trkpt lat="43.68122" lon="6.9679">
        <ele>407.3</ele>
        <time>2026-05-15T14:43:23Z</time>
      </trkpt>
      <trkpt lat="43.6812" lon="6.96801">
        <ele>407.8</ele>
        <time>2026-05-15T14:43:24Z</time>
      </trkpt>
      <trkpt lat="43.68117" lon="6.96813">
        <ele>407.7</ele>
        <time>2026-05-15T14:43:25Z</time>
      </trkpt>
      <trkpt lat="43.68116" lon="6.96825">
        <ele>408</ele>
        <time>2026-05-15T14:43:26Z</time>
      </trkpt>
      <trkpt lat="43.68113" lon="6.96837">
        <ele>408.3</ele>
        <time>2026-05-15T14:43:27Z</time>
      </trkpt>
      <trkpt lat="43.6811" lon="6.9685">
        <ele>408.4</ele>
        <time>2026-05-15T14:43:28Z</time>
      </trkpt>
      <trkpt lat="43.68107" lon="6.96862">
        <ele>408.8</ele>
        <time>2026-05-15T14:43:29Z</time>
      </trkpt>
      <trkpt lat="43.68105" lon="6.96874">
        <ele>409.8</ele>
        <time>2026-05-15T14:43:30Z</time>
      </trkpt>
      <trkpt lat="43.68103" lon="6.96887">
        <ele>410.9</ele>
        <time>2026-05-15T14:43:31Z</time>
      </trkpt>
      <trkpt lat="43.681" lon="6.96899">
        <ele>411.8</ele>
        <time>2026-05-15T14:43:32Z</time>
      </trkpt>
      <trkpt lat="43.68097" lon="6.96912">
        <ele>412.5</ele>
        <time>2026-05-15T14:43:33Z</time>
      </trkpt>
      <trkpt lat="43.68095" lon="6.96924">
        <ele>412.6</ele>
        <time>2026-05-15T14:43:34Z</time>
      </trkpt>
      <trkpt lat="43.68092" lon="6.96936">
        <ele>412.1</ele>
        <time>2026-05-15T14:43:35Z</time>
      </trkpt>
      <trkpt lat="43.6809" lon="6.96948">
        <ele>411.8</ele>
        <time>2026-05-15T14:43:36Z</time>
      </trkpt>
      <trkpt lat="43.68087" lon="6.96959">
        <ele>411.4</ele>
        <time>2026-05-15T14:43:37Z</time>
      </trkpt>
      <trkpt lat="43.68085" lon="6.96969">
        <ele>411.3</ele>
        <time>2026-05-15T14:43:38Z</time>
      </trkpt>
      <trkpt lat="43.68083" lon="6.96979">
        <ele>410.9</ele>
        <time>2026-05-15T14:43:39Z</time>
      </trkpt>
      <trkpt lat="43.68081" lon="6.96988">
        <ele>410.6</ele>
        <time>2026-05-15T14:43:40Z</time>
      </trkpt>
      <trkpt lat="43.6808" lon="6.96997">
        <ele>410.6</ele>
        <time>2026-05-15T14:43:41Z</time>
      </trkpt>
      <trkpt lat="43.68078" lon="6.97007">
        <ele>411.2</ele>
        <time>2026-05-15T14:43:42Z</time>
      </trkpt>
      <trkpt lat="43.68076" lon="6.97016">
        <ele>411.9</ele>
        <time>2026-05-15T14:43:43Z</time>
      </trkpt>
      <trkpt lat="43.68075" lon="6.97026">
        <ele>412.9</ele>
        <time>2026-05-15T14:43:44Z</time>
      </trkpt>
      <trkpt lat="43.68073" lon="6.97034">
        <ele>413.1</ele>
        <time>2026-05-15T14:43:45Z</time>
      </trkpt>
      <trkpt lat="43.68071" lon="6.97042">
        <ele>413</ele>
        <time>2026-05-15T14:43:46Z</time>
      </trkpt>
      <trkpt lat="43.68069" lon="6.9705">
        <ele>412.8</ele>
        <time>2026-05-15T14:43:47Z</time>
      </trkpt>
      <trkpt lat="43.68067" lon="6.97058">
        <ele>412.6</ele>
        <time>2026-05-15T14:43:48Z</time>
      </trkpt>
      <trkpt lat="43.68066" lon="6.97065">
        <ele>412.9</ele>
        <time>2026-05-15T14:43:49Z</time>
      </trkpt>
      <trkpt lat="43.68065" lon="6.97071">
        <ele>413</ele>
        <time>2026-05-15T14:43:50Z</time>
      </trkpt>
      <trkpt lat="43.68064" lon="6.97077">
        <ele>413.1</ele>
        <time>2026-05-15T14:43:51Z</time>
      </trkpt>
      <trkpt lat="43.68063" lon="6.97081">
        <ele>413</ele>
        <time>2026-05-15T14:43:52Z</time>
      </trkpt>
      <trkpt lat="43.68062" lon="6.97086">
        <ele>413</ele>
        <time>2026-05-15T14:43:53Z</time>
      </trkpt>
      <trkpt lat="43.6806" lon="6.97092">
        <ele>412.6</ele>
        <time>2026-05-15T14:43:54Z</time>
      </trkpt>
      <trkpt lat="43.68059" lon="6.97099">
        <ele>412.6</ele>
        <time>2026-05-15T14:43:55Z</time>
      </trkpt>
      <trkpt lat="43.68057" lon="6.97105">
        <ele>412.2</ele>
        <time>2026-05-15T14:43:56Z</time>
      </trkpt>
      <trkpt lat="43.68055" lon="6.97113">
        <ele>412</ele>
        <time>2026-05-15T14:43:57Z</time>
      </trkpt>
      <trkpt lat="43.68052" lon="6.97121">
        <ele>412</ele>
        <time>2026-05-15T14:43:58Z</time>
      </trkpt>
      <trkpt lat="43.68048" lon="6.97128">
        <ele>412</ele>
        <time>2026-05-15T14:43:59Z</time>
      </trkpt>
      <trkpt lat="43.68042" lon="6.97136">
        <ele>412.3</ele>
        <time>2026-05-15T14:44:00Z</time>
      </trkpt>
      <trkpt lat="43.68035" lon="6.97144">
        <ele>412.3</ele>
        <time>2026-05-15T14:44:01Z</time>
      </trkpt>
      <trkpt lat="43.68028" lon="6.97153">
        <ele>412</ele>
        <time>2026-05-15T14:44:02Z</time>
      </trkpt>
      <trkpt lat="43.6802" lon="6.97162">
        <ele>411.7</ele>
        <time>2026-05-15T14:44:03Z</time>
      </trkpt>
      <trkpt lat="43.68012" lon="6.97174">
        <ele>411.2</ele>
        <time>2026-05-15T14:44:04Z</time>
      </trkpt>
      <trkpt lat="43.68004" lon="6.97185">
        <ele>410.5</ele>
        <time>2026-05-15T14:44:05Z</time>
      </trkpt>
      <trkpt lat="43.67997" lon="6.97196">
        <ele>409.8</ele>
        <time>2026-05-15T14:44:06Z</time>
      </trkpt>
      <trkpt lat="43.67989" lon="6.97207">
        <ele>409.7</ele>
        <time>2026-05-15T14:44:07Z</time>
      </trkpt>
      <trkpt lat="43.67981" lon="6.97218">
        <ele>409.5</ele>
        <time>2026-05-15T14:44:08Z</time>
      </trkpt>
      <trkpt lat="43.67973" lon="6.97229">
        <ele>408.8</ele>
        <time>2026-05-15T14:44:09Z</time>
      </trkpt>
      <trkpt lat="43.67965" lon="6.9724">
        <ele>407.9</ele>
        <time>2026-05-15T14:44:10Z</time>
      </trkpt>
      <trkpt lat="43.67959" lon="6.97249">
        <ele>407.5</ele>
        <time>2026-05-15T14:44:11Z</time>
      </trkpt>
      <trkpt lat="43.67955" lon="6.97254">
        <ele>407.4</ele>
        <time>2026-05-15T14:44:12Z</time>
      </trkpt>
      <trkpt lat="43.67951" lon="6.97258">
        <ele>407.4</ele>
        <time>2026-05-15T14:44:13Z</time>
      </trkpt>
      <trkpt lat="43.67948" lon="6.97262">
        <ele>407.4</ele>
        <time>2026-05-15T14:44:14Z</time>
      </trkpt>
      <trkpt lat="43.67946" lon="6.97266">
        <ele>407.6</ele>
        <time>2026-05-15T14:44:15Z</time>
      </trkpt>
      <trkpt lat="43.67943" lon="6.9727">
        <ele>407.6</ele>
        <time>2026-05-15T14:44:16Z</time>
      </trkpt>
      <trkpt lat="43.67941" lon="6.97274">
        <ele>407.6</ele>
        <time>2026-05-15T14:44:17Z</time>
      </trkpt>
      <trkpt lat="43.67938" lon="6.97277">
        <ele>407.5</ele>
        <time>2026-05-15T14:44:18Z</time>
      </trkpt>
      <trkpt lat="43.67935" lon="6.97281">
        <ele>407.4</ele>
        <time>2026-05-15T14:44:19Z</time>
      </trkpt>
      <trkpt lat="43.67933" lon="6.97284">
        <ele>407.3</ele>
        <time>2026-05-15T14:44:20Z</time>
      </trkpt>
      <trkpt lat="43.6793" lon="6.97289">
        <ele>407.2</ele>
        <time>2026-05-15T14:44:21Z</time>
      </trkpt>
      <trkpt lat="43.67927" lon="6.97292">
        <ele>407.1</ele>
        <time>2026-05-15T14:44:22Z</time>
      </trkpt>
      <trkpt lat="43.67923" lon="6.97294">
        <ele>406.9</ele>
        <time>2026-05-15T14:44:23Z</time>
      </trkpt>
      <trkpt lat="43.67918" lon="6.97295">
        <ele>406.7</ele>
        <time>2026-05-15T14:44:24Z</time>
      </trkpt>
      <trkpt lat="43.67911" lon="6.97296">
        <ele>407</ele>
        <time>2026-05-15T14:44:25Z</time>
      </trkpt>
      <trkpt lat="43.67903" lon="6.973">
        <ele>407.3</ele>
        <time>2026-05-15T14:44:26Z</time>
      </trkpt>
      <trkpt lat="43.67897" lon="6.97306">
        <ele>407</ele>
        <time>2026-05-15T14:44:27Z</time>
      </trkpt>
      <trkpt lat="43.67893" lon="6.97315">
        <ele>406.7</ele>
        <time>2026-05-15T14:44:28Z</time>
      </trkpt>
      <trkpt lat="43.67892" lon="6.97326">
        <ele>406.3</ele>
        <time>2026-05-15T14:44:29Z</time>
      </trkpt>
      <trkpt lat="43.67894" lon="6.97338">
        <ele>406.3</ele>
        <time>2026-05-15T14:44:30Z</time>
      </trkpt>
      <trkpt lat="43.67895" lon="6.97348">
        <ele>406.5</ele>
        <time>2026-05-15T14:44:31Z</time>
      </trkpt>
      <trkpt lat="43.67895" lon="6.97359">
        <ele>406.7</ele>
        <time>2026-05-15T14:44:32Z</time>
      </trkpt>
      <trkpt lat="43.67893" lon="6.97369">
        <ele>406.7</ele>
        <time>2026-05-15T14:44:33Z</time>
      </trkpt>
      <trkpt lat="43.67889" lon="6.97376">
        <ele>406.5</ele>
        <time>2026-05-15T14:44:34Z</time>
      </trkpt>
      <trkpt lat="43.67882" lon="6.9738">
        <ele>406.2</ele>
        <time>2026-05-15T14:44:35Z</time>
      </trkpt>
      <trkpt lat="43.67875" lon="6.97385">
        <ele>406.1</ele>
        <time>2026-05-15T14:44:36Z</time>
      </trkpt>
      <trkpt lat="43.67868" lon="6.97391">
        <ele>406.1</ele>
        <time>2026-05-15T14:44:37Z</time>
      </trkpt>
      <trkpt lat="43.6786" lon="6.97398">
        <ele>406.3</ele>
        <time>2026-05-15T14:44:38Z</time>
      </trkpt>
      <trkpt lat="43.67853" lon="6.97406">
        <ele>406.4</ele>
        <time>2026-05-15T14:44:39Z</time>
      </trkpt>
      <trkpt lat="43.67845" lon="6.97415">
        <ele>405.9</ele>
        <time>2026-05-15T14:44:40Z</time>
      </trkpt>
      <trkpt lat="43.67837" lon="6.97423">
        <ele>405.7</ele>
        <time>2026-05-15T14:44:41Z</time>
      </trkpt>
      <trkpt lat="43.6783" lon="6.97432">
        <ele>406</ele>
        <time>2026-05-15T14:44:42Z</time>
      </trkpt>
      <trkpt lat="43.67822" lon="6.97442">
        <ele>406.1</ele>
        <time>2026-05-15T14:44:43Z</time>
      </trkpt>
      <trkpt lat="43.67815" lon="6.97452">
        <ele>405.9</ele>
        <time>2026-05-15T14:44:44Z</time>
      </trkpt>
      <trkpt lat="43.67808" lon="6.97462">
        <ele>405.3</ele>
        <time>2026-05-15T14:44:45Z</time>
      </trkpt>
      <trkpt lat="43.67801" lon="6.97472">
        <ele>404.8</ele>
        <time>2026-05-15T14:44:46Z</time>
      </trkpt>
      <trkpt lat="43.67794" lon="6.97481">
        <ele>405.3</ele>
        <time>2026-05-15T14:44:47Z</time>
      </trkpt>
      <trkpt lat="43.67787" lon="6.97491">
        <ele>405.2</ele>
        <time>2026-05-15T14:44:48Z</time>
      </trkpt>
      <trkpt lat="43.6778" lon="6.97501">
        <ele>404.5</ele>
        <time>2026-05-15T14:44:49Z</time>
      </trkpt>
      <trkpt lat="43.67774" lon="6.9751">
        <ele>404.8</ele>
        <time>2026-05-15T14:44:50Z</time>
      </trkpt>
      <trkpt lat="43.67767" lon="6.9752">
        <ele>404.8</ele>
        <time>2026-05-15T14:44:51Z</time>
      </trkpt>
      <trkpt lat="43.6776" lon="6.9753">
        <ele>404.3</ele>
        <time>2026-05-15T14:44:52Z</time>
      </trkpt>
      <trkpt lat="43.67753" lon="6.97541">
        <ele>403.6</ele>
        <time>2026-05-15T14:44:53Z</time>
      </trkpt>
      <trkpt lat="43.67746" lon="6.97552">
        <ele>403.1</ele>
        <time>2026-05-15T14:44:54Z</time>
      </trkpt>
      <trkpt lat="43.6774" lon="6.97564">
        <ele>402.7</ele>
        <time>2026-05-15T14:44:55Z</time>
      </trkpt>
      <trkpt lat="43.67735" lon="6.97577">
        <ele>402.4</ele>
        <time>2026-05-15T14:44:56Z</time>
      </trkpt>
      <trkpt lat="43.67729" lon="6.97592">
        <ele>402.2</ele>
        <time>2026-05-15T14:44:57Z</time>
      </trkpt>
      <trkpt lat="43.67725" lon="6.97607">
        <ele>402.4</ele>
        <time>2026-05-15T14:44:58Z</time>
      </trkpt>
      <trkpt lat="43.67721" lon="6.97623">
        <ele>401.6</ele>
        <time>2026-05-15T14:44:59Z</time>
      </trkpt>
      <trkpt lat="43.67718" lon="6.9764">
        <ele>400.5</ele>
        <time>2026-05-15T14:45:00Z</time>
      </trkpt>
      <trkpt lat="43.67716" lon="6.97656">
        <ele>401.6</ele>
        <time>2026-05-15T14:45:01Z</time>
      </trkpt>
      <trkpt lat="43.67714" lon="6.97671">
        <ele>401.9</ele>
        <time>2026-05-15T14:45:02Z</time>
      </trkpt>
      <trkpt lat="43.67714" lon="6.97685">
        <ele>402.1</ele>
        <time>2026-05-15T14:45:03Z</time>
      </trkpt>
      <trkpt lat="43.67715" lon="6.977">
        <ele>402</ele>
        <time>2026-05-15T14:45:04Z</time>
      </trkpt>
      <trkpt lat="43.67717" lon="6.97714">
        <ele>400.9</ele>
        <time>2026-05-15T14:45:05Z</time>
      </trkpt>
      <trkpt lat="43.67722" lon="6.97728">
        <ele>400.4</ele>
        <time>2026-05-15T14:45:06Z</time>
      </trkpt>
      <trkpt lat="43.67728" lon="6.97742">
        <ele>399.7</ele>
        <time>2026-05-15T14:45:07Z</time>
      </trkpt>
      <trkpt lat="43.67736" lon="6.97756">
        <ele>398.6</ele>
        <time>2026-05-15T14:45:08Z</time>
      </trkpt>
      <trkpt lat="43.67744" lon="6.97768">
        <ele>398.7</ele>
        <time>2026-05-15T14:45:09Z</time>
      </trkpt>
      <trkpt lat="43.67752" lon="6.97782">
        <ele>398.8</ele>
        <time>2026-05-15T14:45:10Z</time>
      </trkpt>
      <trkpt lat="43.67759" lon="6.97794">
        <ele>398.3</ele>
        <time>2026-05-15T14:45:11Z</time>
      </trkpt>
      <trkpt lat="43.67766" lon="6.97808">
        <ele>397.1</ele>
        <time>2026-05-15T14:45:12Z</time>
      </trkpt>
      <trkpt lat="43.67771" lon="6.97823">
        <ele>398.1</ele>
        <time>2026-05-15T14:45:13Z</time>
      </trkpt>
      <trkpt lat="43.67773" lon="6.97838">
        <ele>398.7</ele>
        <time>2026-05-15T14:45:14Z</time>
      </trkpt>
      <trkpt lat="43.67772" lon="6.97855">
        <ele>399</ele>
        <time>2026-05-15T14:45:15Z</time>
      </trkpt>
      <trkpt lat="43.67772" lon="6.97871">
        <ele>399.5</ele>
        <time>2026-05-15T14:45:16Z</time>
      </trkpt>
      <trkpt lat="43.67772" lon="6.97889">
        <ele>399.9</ele>
        <time>2026-05-15T14:45:17Z</time>
      </trkpt>
      <trkpt lat="43.67772" lon="6.97905">
        <ele>398</ele>
        <time>2026-05-15T14:45:18Z</time>
      </trkpt>
      <trkpt lat="43.67771" lon="6.97922">
        <ele>396</ele>
        <time>2026-05-15T14:45:19Z</time>
      </trkpt>
      <trkpt lat="43.67771" lon="6.97937">
        <ele>395.2</ele>
        <time>2026-05-15T14:45:20Z</time>
      </trkpt>
      <trkpt lat="43.6777" lon="6.9795">
        <ele>394.7</ele>
        <time>2026-05-15T14:45:21Z</time>
      </trkpt>
      <trkpt lat="43.67769" lon="6.97963">
        <ele>394.8</ele>
        <time>2026-05-15T14:45:22Z</time>
      </trkpt>
      <trkpt lat="43.67766" lon="6.97977">
        <ele>395.1</ele>
        <time>2026-05-15T14:45:23Z</time>
      </trkpt>
      <trkpt lat="43.67762" lon="6.9799">
        <ele>395.4</ele>
        <time>2026-05-15T14:45:24Z</time>
      </trkpt>
      <trkpt lat="43.67757" lon="6.98004">
        <ele>395</ele>
        <time>2026-05-15T14:45:25Z</time>
      </trkpt>
      <trkpt lat="43.67751" lon="6.98019">
        <ele>393.4</ele>
        <time>2026-05-15T14:45:26Z</time>
      </trkpt>
      <trkpt lat="43.67745" lon="6.98035">
        <ele>393.4</ele>
        <time>2026-05-15T14:45:27Z</time>
      </trkpt>
      <trkpt lat="43.67739" lon="6.98049">
        <ele>394</ele>
        <time>2026-05-15T14:45:28Z</time>
      </trkpt>
      <trkpt lat="43.67733" lon="6.98064">
        <ele>394.1</ele>
        <time>2026-05-15T14:45:29Z</time>
      </trkpt>
      <trkpt lat="43.67727" lon="6.98079">
        <ele>392.5</ele>
        <time>2026-05-15T14:45:30Z</time>
      </trkpt>
      <trkpt lat="43.67721" lon="6.98094">
        <ele>390.2</ele>
        <time>2026-05-15T14:45:31Z</time>
      </trkpt>
      <trkpt lat="43.67715" lon="6.98109">
        <ele>388.9</ele>
        <time>2026-05-15T14:45:32Z</time>
      </trkpt>
      <trkpt lat="43.67708" lon="6.98125">
        <ele>389.6</ele>
        <time>2026-05-15T14:45:33Z</time>
      </trkpt>
      <trkpt lat="43.67701" lon="6.98142">
        <ele>390.2</ele>
        <time>2026-05-15T14:45:34Z</time>
      </trkpt>
      <trkpt lat="43.67694" lon="6.98159">
        <ele>389</ele>
        <time>2026-05-15T14:45:35Z</time>
      </trkpt>
      <trkpt lat="43.67688" lon="6.98176">
        <ele>389.5</ele>
        <time>2026-05-15T14:45:36Z</time>
      </trkpt>
      <trkpt lat="43.67682" lon="6.98194">
        <ele>390.4</ele>
        <time>2026-05-15T14:45:37Z</time>
      </trkpt>
      <trkpt lat="43.67677" lon="6.98213">
        <ele>389.3</ele>
        <time>2026-05-15T14:45:38Z</time>
      </trkpt>
      <trkpt lat="43.67673" lon="6.98231">
        <ele>388.3</ele>
        <time>2026-05-15T14:45:39Z</time>
      </trkpt>
      <trkpt lat="43.67668" lon="6.98248">
        <ele>387.4</ele>
        <time>2026-05-15T14:45:40Z</time>
      </trkpt>
      <trkpt lat="43.67664" lon="6.98266">
        <ele>386.7</ele>
        <time>2026-05-15T14:45:41Z</time>
      </trkpt>
      <trkpt lat="43.67658" lon="6.98282">
        <ele>385.8</ele>
        <time>2026-05-15T14:45:42Z</time>
      </trkpt>
      <trkpt lat="43.67653" lon="6.98299">
        <ele>386.3</ele>
        <time>2026-05-15T14:45:43Z</time>
      </trkpt>
      <trkpt lat="43.67647" lon="6.98314">
        <ele>385.4</ele>
        <time>2026-05-15T14:45:44Z</time>
      </trkpt>
      <trkpt lat="43.67641" lon="6.9833">
        <ele>384.4</ele>
        <time>2026-05-15T14:45:45Z</time>
      </trkpt>
      <trkpt lat="43.67635" lon="6.98346">
        <ele>383.3</ele>
        <time>2026-05-15T14:45:46Z</time>
      </trkpt>
      <trkpt lat="43.67629" lon="6.98362">
        <ele>382.3</ele>
        <time>2026-05-15T14:45:47Z</time>
      </trkpt>
      <trkpt lat="43.67622" lon="6.98378">
        <ele>382.6</ele>
        <time>2026-05-15T14:45:48Z</time>
      </trkpt>
      <trkpt lat="43.67613" lon="6.98393">
        <ele>382</ele>
        <time>2026-05-15T14:45:49Z</time>
      </trkpt>
      <trkpt lat="43.67603" lon="6.98406">
        <ele>381.1</ele>
        <time>2026-05-15T14:45:50Z</time>
      </trkpt>
      <trkpt lat="43.67593" lon="6.98418">
        <ele>381</ele>
        <time>2026-05-15T14:45:51Z</time>
      </trkpt>
      <trkpt lat="43.67583" lon="6.98431">
        <ele>380.5</ele>
        <time>2026-05-15T14:45:52Z</time>
      </trkpt>
      <trkpt lat="43.67573" lon="6.98443">
        <ele>380.3</ele>
        <time>2026-05-15T14:45:53Z</time>
      </trkpt>
      <trkpt lat="43.67563" lon="6.98455">
        <ele>379.8</ele>
        <time>2026-05-15T14:45:54Z</time>
      </trkpt>
      <trkpt lat="43.67554" lon="6.98467">
        <ele>378.7</ele>
        <time>2026-05-15T14:45:55Z</time>
      </trkpt>
      <trkpt lat="43.67546" lon="6.98481">
        <ele>378.5</ele>
        <time>2026-05-15T14:45:56Z</time>
      </trkpt>
      <trkpt lat="43.6754" lon="6.98497">
        <ele>378.3</ele>
        <time>2026-05-15T14:45:57Z</time>
      </trkpt>
      <trkpt lat="43.67535" lon="6.98514">
        <ele>377.9</ele>
        <time>2026-05-15T14:45:58Z</time>
      </trkpt>
      <trkpt lat="43.67531" lon="6.98532">
        <ele>377.3</ele>
        <time>2026-05-15T14:45:59Z</time>
      </trkpt>
      <trkpt lat="43.6753" lon="6.98551">
        <ele>376.6</ele>
        <time>2026-05-15T14:46:00Z</time>
      </trkpt>
      <trkpt lat="43.67529" lon="6.98569">
        <ele>376.2</ele>
        <time>2026-05-15T14:46:01Z</time>
      </trkpt>
      <trkpt lat="43.67529" lon="6.98586">
        <ele>376.1</ele>
        <time>2026-05-15T14:46:02Z</time>
      </trkpt>
      <trkpt lat="43.67528" lon="6.98603">
        <ele>375.3</ele>
        <time>2026-05-15T14:46:03Z</time>
      </trkpt>
      <trkpt lat="43.67527" lon="6.98621">
        <ele>374.6</ele>
        <time>2026-05-15T14:46:04Z</time>
      </trkpt>
      <trkpt lat="43.67526" lon="6.98637">
        <ele>373.9</ele>
        <time>2026-05-15T14:46:05Z</time>
      </trkpt>
      <trkpt lat="43.67525" lon="6.98654">
        <ele>373.6</ele>
        <time>2026-05-15T14:46:06Z</time>
      </trkpt>
      <trkpt lat="43.67522" lon="6.9867">
        <ele>372.9</ele>
        <time>2026-05-15T14:46:07Z</time>
      </trkpt>
      <trkpt lat="43.6752" lon="6.98688">
        <ele>372.2</ele>
        <time>2026-05-15T14:46:08Z</time>
      </trkpt>
      <trkpt lat="43.67516" lon="6.98706">
        <ele>371.9</ele>
        <time>2026-05-15T14:46:09Z</time>
      </trkpt>
      <trkpt lat="43.67511" lon="6.98723">
        <ele>371.6</ele>
        <time>2026-05-15T14:46:10Z</time>
      </trkpt>
      <trkpt lat="43.67505" lon="6.98741">
        <ele>371.3</ele>
        <time>2026-05-15T14:46:11Z</time>
      </trkpt>
      <trkpt lat="43.67499" lon="6.98758">
        <ele>371.3</ele>
        <time>2026-05-15T14:46:12Z</time>
      </trkpt>
      <trkpt lat="43.67489" lon="6.98773">
        <ele>369.8</ele>
        <time>2026-05-15T14:46:13Z</time>
      </trkpt>
      <trkpt lat="43.67481" lon="6.98789">
        <ele>369.8</ele>
        <time>2026-05-15T14:46:14Z</time>
      </trkpt>
      <trkpt lat="43.67471" lon="6.98804">
        <ele>369.4</ele>
        <time>2026-05-15T14:46:15Z</time>
      </trkpt>
      <trkpt lat="43.67461" lon="6.98819">
        <ele>369.1</ele>
        <time>2026-05-15T14:46:16Z</time>
      </trkpt>
      <trkpt lat="43.6745" lon="6.98834">
        <ele>369.3</ele>
        <time>2026-05-15T14:46:17Z</time>
      </trkpt>
      <trkpt lat="43.67439" lon="6.98849">
        <ele>368.3</ele>
        <time>2026-05-15T14:46:18Z</time>
      </trkpt>
      <trkpt lat="43.67429" lon="6.98863">
        <ele>367.9</ele>
        <time>2026-05-15T14:46:19Z</time>
      </trkpt>
      <trkpt lat="43.67419" lon="6.98878">
        <ele>367.3</ele>
        <time>2026-05-15T14:46:20Z</time>
      </trkpt>
      <trkpt lat="43.67409" lon="6.98893">
        <ele>366</ele>
        <time>2026-05-15T14:46:21Z</time>
      </trkpt>
      <trkpt lat="43.674" lon="6.98909">
        <ele>364.8</ele>
        <time>2026-05-15T14:46:22Z</time>
      </trkpt>
      <trkpt lat="43.67395" lon="6.98928">
        <ele>365</ele>
        <time>2026-05-15T14:46:23Z</time>
      </trkpt>
      <trkpt lat="43.67391" lon="6.98947">
        <ele>365.5</ele>
        <time>2026-05-15T14:46:24Z</time>
      </trkpt>
      <trkpt lat="43.67388" lon="6.98967">
        <ele>363.9</ele>
        <time>2026-05-15T14:46:25Z</time>
      </trkpt>
      <trkpt lat="43.67384" lon="6.98987">
        <ele>363.8</ele>
        <time>2026-05-15T14:46:26Z</time>
      </trkpt>
      <trkpt lat="43.6738" lon="6.99007">
        <ele>363.9</ele>
        <time>2026-05-15T14:46:27Z</time>
      </trkpt>
      <trkpt lat="43.67375" lon="6.99026">
        <ele>363</ele>
        <time>2026-05-15T14:46:28Z</time>
      </trkpt>
      <trkpt lat="43.67368" lon="6.99044">
        <ele>362</ele>
        <time>2026-05-15T14:46:29Z</time>
      </trkpt>
      <trkpt lat="43.67361" lon="6.99061">
        <ele>361.4</ele>
        <time>2026-05-15T14:46:30Z</time>
      </trkpt>
      <trkpt lat="43.67353" lon="6.99077">
        <ele>360.8</ele>
        <time>2026-05-15T14:46:31Z</time>
      </trkpt>
      <trkpt lat="43.67345" lon="6.99093">
        <ele>360.4</ele>
        <time>2026-05-15T14:46:32Z</time>
      </trkpt>
      <trkpt lat="43.67336" lon="6.99108">
        <ele>360.2</ele>
        <time>2026-05-15T14:46:33Z</time>
      </trkpt>
      <trkpt lat="43.67327" lon="6.99123">
        <ele>359.6</ele>
        <time>2026-05-15T14:46:34Z</time>
      </trkpt>
      <trkpt lat="43.67318" lon="6.99139">
        <ele>359.2</ele>
        <time>2026-05-15T14:46:35Z</time>
      </trkpt>
      <trkpt lat="43.67309" lon="6.99155">
        <ele>358.8</ele>
        <time>2026-05-15T14:46:36Z</time>
      </trkpt>
      <trkpt lat="43.67301" lon="6.99171">
        <ele>358.3</ele>
        <time>2026-05-15T14:46:37Z</time>
      </trkpt>
      <trkpt lat="43.67294" lon="6.99188">
        <ele>357.7</ele>
        <time>2026-05-15T14:46:38Z</time>
      </trkpt>
      <trkpt lat="43.6729" lon="6.99207">
        <ele>356.8</ele>
        <time>2026-05-15T14:46:39Z</time>
      </trkpt>
      <trkpt lat="43.67288" lon="6.99225">
        <ele>356.1</ele>
        <time>2026-05-15T14:46:40Z</time>
      </trkpt>
      <trkpt lat="43.67288" lon="6.99245">
        <ele>356.1</ele>
        <time>2026-05-15T14:46:41Z</time>
      </trkpt>
      <trkpt lat="43.67291" lon="6.99265">
        <ele>354.8</ele>
        <time>2026-05-15T14:46:42Z</time>
      </trkpt>
      <trkpt lat="43.67295" lon="6.99285">
        <ele>353.7</ele>
        <time>2026-05-15T14:46:43Z</time>
      </trkpt>
      <trkpt lat="43.67298" lon="6.99304">
        <ele>352.5</ele>
        <time>2026-05-15T14:46:44Z</time>
      </trkpt>
      <trkpt lat="43.67302" lon="6.99323">
        <ele>352.8</ele>
        <time>2026-05-15T14:46:45Z</time>
      </trkpt>
      <trkpt lat="43.67305" lon="6.99341">
        <ele>352.9</ele>
        <time>2026-05-15T14:46:46Z</time>
      </trkpt>
      <trkpt lat="43.67308" lon="6.99357">
        <ele>353.2</ele>
        <time>2026-05-15T14:46:47Z</time>
      </trkpt>
      <trkpt lat="43.67311" lon="6.99371">
        <ele>353</ele>
        <time>2026-05-15T14:46:48Z</time>
      </trkpt>
      <trkpt lat="43.67314" lon="6.99386">
        <ele>352.7</ele>
        <time>2026-05-15T14:46:49Z</time>
      </trkpt>
      <trkpt lat="43.67317" lon="6.99401">
        <ele>352.4</ele>
        <time>2026-05-15T14:46:50Z</time>
      </trkpt>
      <trkpt lat="43.67319" lon="6.99415">
        <ele>352</ele>
        <time>2026-05-15T14:46:51Z</time>
      </trkpt>
      <trkpt lat="43.6732" lon="6.99426">
        <ele>351.4</ele>
        <time>2026-05-15T14:46:52Z</time>
      </trkpt>
      <trkpt lat="43.67321" lon="6.99437">
        <ele>350.7</ele>
        <time>2026-05-15T14:46:53Z</time>
      </trkpt>
      <trkpt lat="43.67321" lon="6.99447">
        <ele>350.2</ele>
        <time>2026-05-15T14:46:54Z</time>
      </trkpt>
      <trkpt lat="43.67322" lon="6.99457">
        <ele>350.4</ele>
        <time>2026-05-15T14:46:55Z</time>
      </trkpt>
      <trkpt lat="43.67321" lon="6.99467">
        <ele>350.2</ele>
        <time>2026-05-15T14:46:56Z</time>
      </trkpt>
      <trkpt lat="43.6732" lon="6.99476">
        <ele>349.9</ele>
        <time>2026-05-15T14:46:57Z</time>
      </trkpt>
      <trkpt lat="43.67319" lon="6.99486">
        <ele>349.5</ele>
        <time>2026-05-15T14:46:58Z</time>
      </trkpt>
      <trkpt lat="43.67318" lon="6.99495">
        <ele>349.1</ele>
        <time>2026-05-15T14:46:59Z</time>
      </trkpt>
      <trkpt lat="43.67318" lon="6.99505">
        <ele>349.1</ele>
        <time>2026-05-15T14:47:00Z</time>
      </trkpt>
      <trkpt lat="43.6732" lon="6.99515">
        <ele>349.6</ele>
        <time>2026-05-15T14:47:01Z</time>
      </trkpt>
      <trkpt lat="43.67323" lon="6.99526">
        <ele>350.2</ele>
        <time>2026-05-15T14:47:02Z</time>
      </trkpt>
      <trkpt lat="43.67323" lon="6.9954">
        <ele>351</ele>
        <time>2026-05-15T14:47:03Z</time>
      </trkpt>
      <trkpt lat="43.67322" lon="6.99555">
        <ele>351.7</ele>
        <time>2026-05-15T14:47:04Z</time>
      </trkpt>
      <trkpt lat="43.67321" lon="6.99569">
        <ele>352.1</ele>
        <time>2026-05-15T14:47:05Z</time>
      </trkpt>
      <trkpt lat="43.67321" lon="6.99584">
        <ele>352.6</ele>
        <time>2026-05-15T14:47:06Z</time>
      </trkpt>
      <trkpt lat="43.67321" lon="6.996">
        <ele>353.2</ele>
        <time>2026-05-15T14:47:07Z</time>
      </trkpt>
      <trkpt lat="43.67319" lon="6.99616">
        <ele>353.3</ele>
        <time>2026-05-15T14:47:08Z</time>
      </trkpt>
      <trkpt lat="43.67318" lon="6.99634">
        <ele>352.6</ele>
        <time>2026-05-15T14:47:09Z</time>
      </trkpt>
      <trkpt lat="43.67316" lon="6.99652">
        <ele>350.7</ele>
        <time>2026-05-15T14:47:10Z</time>
      </trkpt>
      <trkpt lat="43.67315" lon="6.99671">
        <ele>348.1</ele>
        <time>2026-05-15T14:47:11Z</time>
      </trkpt>
      <trkpt lat="43.67314" lon="6.99691">
        <ele>345.4</ele>
        <time>2026-05-15T14:47:12Z</time>
      </trkpt>
      <trkpt lat="43.67312" lon="6.99712">
        <ele>343</ele>
        <time>2026-05-15T14:47:13Z</time>
      </trkpt>
      <trkpt lat="43.6731" lon="6.99733">
        <ele>341.2</ele>
        <time>2026-05-15T14:47:14Z</time>
      </trkpt>
      <trkpt lat="43.67309" lon="6.99755">
        <ele>339.5</ele>
        <time>2026-05-15T14:47:15Z</time>
      </trkpt>
      <trkpt lat="43.67307" lon="6.99779">
        <ele>337.9</ele>
        <time>2026-05-15T14:47:16Z</time>
      </trkpt>
      <trkpt lat="43.67307" lon="6.99802">
        <ele>337</ele>
        <time>2026-05-15T14:47:17Z</time>
      </trkpt>
      <trkpt lat="43.67307" lon="6.99826">
        <ele>335.4</ele>
        <time>2026-05-15T14:47:18Z</time>
      </trkpt>
      <trkpt lat="43.67309" lon="6.9985">
        <ele>334.3</ele>
        <time>2026-05-15T14:47:19Z</time>
      </trkpt>
      <trkpt lat="43.67312" lon="6.99874">
        <ele>332.6</ele>
        <time>2026-05-15T14:47:20Z</time>
      </trkpt>
      <trkpt lat="43.67316" lon="6.99896">
        <ele>330.4</ele>
        <time>2026-05-15T14:47:21Z</time>
      </trkpt>
      <trkpt lat="43.67319" lon="6.99919">
        <ele>327.9</ele>
        <time>2026-05-15T14:47:22Z</time>
      </trkpt>
      <trkpt lat="43.67323" lon="6.99942">
        <ele>327.6</ele>
        <time>2026-05-15T14:47:23Z</time>
      </trkpt>
      <trkpt lat="43.67328" lon="6.99964">
        <ele>326.7</ele>
        <time>2026-05-15T14:47:24Z</time>
      </trkpt>
      <trkpt lat="43.67333" lon="6.99986">
        <ele>326.4</ele>
        <time>2026-05-15T14:47:25Z</time>
      </trkpt>
      <trkpt lat="43.67337" lon="7.00008">
        <ele>324.2</ele>
        <time>2026-05-15T14:47:26Z</time>
      </trkpt>
      <trkpt lat="43.67341" lon="7.0003">
        <ele>321.2</ele>
        <time>2026-05-15T14:47:27Z</time>
      </trkpt>
      <trkpt lat="43.67345" lon="7.00049">
        <ele>319.5</ele>
        <time>2026-05-15T14:47:28Z</time>
      </trkpt>
      <trkpt lat="43.67348" lon="7.00066">
        <ele>318.6</ele>
        <time>2026-05-15T14:47:29Z</time>
      </trkpt>
      <trkpt lat="43.67351" lon="7.00083">
        <ele>318.3</ele>
        <time>2026-05-15T14:47:30Z</time>
      </trkpt>
      <trkpt lat="43.67354" lon="7.001">
        <ele>319.2</ele>
        <time>2026-05-15T14:47:31Z</time>
      </trkpt>
      <trkpt lat="43.67355" lon="7.00114">
        <ele>319.8</ele>
        <time>2026-05-15T14:47:32Z</time>
      </trkpt>
      <trkpt lat="43.67356" lon="7.00124">
        <ele>319.7</ele>
        <time>2026-05-15T14:47:33Z</time>
      </trkpt>
      <trkpt lat="43.67356" lon="7.00132">
        <ele>319.5</ele>
        <time>2026-05-15T14:47:34Z</time>
      </trkpt>
      <trkpt lat="43.67356" lon="7.00137">
        <ele>319.3</ele>
        <time>2026-05-15T14:47:35Z</time>
      </trkpt>
      <trkpt lat="43.67357" lon="7.00142">
        <ele>319.4</ele>
        <time>2026-05-15T14:47:36Z</time>
      </trkpt>
      <trkpt lat="43.67357" lon="7.00145">
        <ele>319.3</ele>
        <time>2026-05-15T14:47:37Z</time>
      </trkpt>
      <trkpt lat="43.67356" lon="7.00148">
        <ele>319.1</ele>
        <time>2026-05-15T14:47:38Z</time>
      </trkpt>
      <trkpt lat="43.67356" lon="7.00151">
        <ele>319</ele>
        <time>2026-05-15T14:47:39Z</time>
      </trkpt>
      <trkpt lat="43.67356" lon="7.00154">
        <ele>319</ele>
        <time>2026-05-15T14:47:40Z</time>
      </trkpt>
      <trkpt lat="43.67356" lon="7.00156">
        <ele>318.9</ele>
        <time>2026-05-15T14:47:41Z</time>
      </trkpt>
      <trkpt lat="43.67356" lon="7.00158">
        <ele>318.9</ele>
        <time>2026-05-15T14:47:42Z</time>
      </trkpt>
      <trkpt lat="43.67356" lon="7.00158">
        <ele>318.9</ele>
        <time>2026-05-15T14:47:43Z</time>
      </trkpt>
      <trkpt lat="43.67356" lon="7.00158">
        <ele>318.9</ele>
        <time>2026-05-15T14:47:44Z</time>
      </trkpt>
      <trkpt lat="43.67356" lon="7.00158">
        <ele>318.9</ele>
        <time>2026-05-15T14:47:45Z</time>
      </trkpt>
      <trkpt lat="43.67356" lon="7.00159">
        <ele>318.9</ele>
        <time>2026-05-15T14:47:46Z</time>
      </trkpt>
      <trkpt lat="43.67356" lon="7.0016">
        <ele>318.8</ele>
        <time>2026-05-15T14:47:47Z</time>
      </trkpt>
      <trkpt lat="43.67356" lon="7.00163">
        <ele>318.8</ele>
        <time>2026-05-15T14:47:48Z</time>
      </trkpt>
      <trkpt lat="43.67355" lon="7.00167">
        <ele>318.5</ele>
        <time>2026-05-15T14:47:49Z</time>
      </trkpt>
      <trkpt lat="43.67355" lon="7.00176">
        <ele>318.3</ele>
        <time>2026-05-15T14:47:50Z</time>
      </trkpt>
      <trkpt lat="43.67355" lon="7.00186">
        <ele>318.1</ele>
        <time>2026-05-15T14:47:51Z</time>
      </trkpt>
      <trkpt lat="43.67353" lon="7.00197">
        <ele>317.5</ele>
        <time>2026-05-15T14:47:52Z</time>
      </trkpt>
      <trkpt lat="43.67352" lon="7.00209">
        <ele>317</ele>
        <time>2026-05-15T14:47:53Z</time>
      </trkpt>
      <trkpt lat="43.6735" lon="7.00224">
        <ele>316.4</ele>
        <time>2026-05-15T14:47:54Z</time>
      </trkpt>
      <trkpt lat="43.67348" lon="7.00239">
        <ele>316.1</ele>
        <time>2026-05-15T14:47:55Z</time>
      </trkpt>
      <trkpt lat="43.67345" lon="7.00253">
        <ele>315.8</ele>
        <time>2026-05-15T14:47:56Z</time>
      </trkpt>
      <trkpt lat="43.67343" lon="7.00268">
        <ele>315.5</ele>
        <time>2026-05-15T14:47:57Z</time>
      </trkpt>
      <trkpt lat="43.67341" lon="7.00283">
        <ele>315.4</ele>
        <time>2026-05-15T14:47:58Z</time>
      </trkpt>
      <trkpt lat="43.67339" lon="7.00299">
        <ele>315.8</ele>
        <time>2026-05-15T14:47:59Z</time>
      </trkpt>
      <trkpt lat="43.6734" lon="7.00317">
        <ele>315.7</ele>
        <time>2026-05-15T14:48:00Z</time>
      </trkpt>
      <trkpt lat="43.67341" lon="7.00334">
        <ele>315.3</ele>
        <time>2026-05-15T14:48:01Z</time>
      </trkpt>
      <trkpt lat="43.67343" lon="7.00352">
        <ele>314.9</ele>
        <time>2026-05-15T14:48:02Z</time>
      </trkpt>
      <trkpt lat="43.67346" lon="7.00368">
        <ele>314.8</ele>
        <time>2026-05-15T14:48:03Z</time>
      </trkpt>
      <trkpt lat="43.6735" lon="7.00384">
        <ele>314.7</ele>
        <time>2026-05-15T14:48:04Z</time>
      </trkpt>
      <trkpt lat="43.67354" lon="7.00399">
        <ele>314.7</ele>
        <time>2026-05-15T14:48:05Z</time>
      </trkpt>
      <trkpt lat="43.6736" lon="7.00413">
        <ele>315</ele>
        <time>2026-05-15T14:48:06Z</time>
      </trkpt>
      <trkpt lat="43.67367" lon="7.00427">
        <ele>314.9</ele>
        <time>2026-05-15T14:48:07Z</time>
      </trkpt>
      <trkpt lat="43.67374" lon="7.0044">
        <ele>314.3</ele>
        <time>2026-05-15T14:48:08Z</time>
      </trkpt>
      <trkpt lat="43.6738" lon="7.0045">
        <ele>313.5</ele>
        <time>2026-05-15T14:48:09Z</time>
      </trkpt>
      <trkpt lat="43.67386" lon="7.0046">
        <ele>312.4</ele>
        <time>2026-05-15T14:48:10Z</time>
      </trkpt>
      <trkpt lat="43.67392" lon="7.0047">
        <ele>311.4</ele>
        <time>2026-05-15T14:48:11Z</time>
      </trkpt>
      <trkpt lat="43.67398" lon="7.0048">
        <ele>311</ele>
        <time>2026-05-15T14:48:12Z</time>
      </trkpt>
      <trkpt lat="43.67404" lon="7.0049">
        <ele>310.6</ele>
        <time>2026-05-15T14:48:13Z</time>
      </trkpt>
      <trkpt lat="43.6741" lon="7.00501">
        <ele>309.9</ele>
        <time>2026-05-15T14:48:14Z</time>
      </trkpt>
      <trkpt lat="43.67415" lon="7.0051">
        <ele>309.3</ele>
        <time>2026-05-15T14:48:15Z</time>
      </trkpt>
      <trkpt lat="43.67417" lon="7.00516">
        <ele>308.9</ele>
        <time>2026-05-15T14:48:16Z</time>
      </trkpt>
      <trkpt lat="43.67418" lon="7.00519">
        <ele>308.8</ele>
        <time>2026-05-15T14:48:17Z</time>
      </trkpt>
      <trkpt lat="43.67418" lon="7.00521">
        <ele>308.6</ele>
        <time>2026-05-15T14:48:18Z</time>
      </trkpt>
      <trkpt lat="43.67419" lon="7.00523">
        <ele>308.6</ele>
        <time>2026-05-15T14:48:19Z</time>
      </trkpt>
      <trkpt lat="43.67419" lon="7.00524">
        <ele>308.5</ele>
        <time>2026-05-15T14:48:20Z</time>
      </trkpt>
      <trkpt lat="43.67418" lon="7.00523">
        <ele>308.5</ele>
        <time>2026-05-15T14:48:21Z</time>
      </trkpt>
      <trkpt lat="43.67419" lon="7.00523">
        <ele>308.6</ele>
        <time>2026-05-15T14:48:22Z</time>
      </trkpt>
      <trkpt lat="43.67419" lon="7.00523">
        <ele>308.6</ele>
        <time>2026-05-15T14:48:23Z</time>
      </trkpt>
      <trkpt lat="43.67419" lon="7.00523">
        <ele>308.6</ele>
        <time>2026-05-15T14:48:24Z</time>
      </trkpt>
      <trkpt lat="43.67419" lon="7.00523">
        <ele>308.6</ele>
        <time>2026-05-15T14:48:25Z</time>
      </trkpt>
      <trkpt lat="43.67419" lon="7.00523">
        <ele>308.6</ele>
        <time>2026-05-15T14:48:26Z</time>
      </trkpt>
      <trkpt lat="43.67419" lon="7.00523">
        <ele>308.6</ele>
        <time>2026-05-15T14:48:27Z</time>
      </trkpt>
      <trkpt lat="43.67419" lon="7.00523">
        <ele>308.6</ele>
        <time>2026-05-15T14:48:28Z</time>
      </trkpt>
      <trkpt lat="43.67419" lon="7.00523">
        <ele>308.6</ele>
        <time>2026-05-15T14:48:29Z</time>
      </trkpt>
      <trkpt lat="43.67419" lon="7.00523">
        <ele>308.6</ele>
        <time>2026-05-15T14:48:30Z</time>
      </trkpt>
      <trkpt lat="43.67419" lon="7.00523">
        <ele>308.6</ele>
        <time>2026-05-15T14:48:31Z</time>
      </trkpt>
      <trkpt lat="43.67419" lon="7.00523">
        <ele>308.6</ele>
        <time>2026-05-15T14:48:32Z</time>
      </trkpt>
      <trkpt lat="43.67419" lon="7.00523">
        <ele>308.6</ele>
        <time>2026-05-15T14:48:33Z</time>
      </trkpt>
      <trkpt lat="43.67419" lon="7.00523">
        <ele>308.6</ele>
        <time>2026-05-15T14:48:34Z</time>
      </trkpt>
      <trkpt lat="43.67419" lon="7.00523">
        <ele>308.6</ele>
        <time>2026-05-15T14:48:35Z</time>
      </trkpt>
      <trkpt lat="43.67419" lon="7.00524">
        <ele>308.5</ele>
        <time>2026-05-15T14:48:36Z</time>
      </trkpt>
      <trkpt lat="43.6742" lon="7.00527">
        <ele>308.4</ele>
        <time>2026-05-15T14:48:37Z</time>
      </trkpt>
      <trkpt lat="43.6742" lon="7.00532">
        <ele>308.2</ele>
        <time>2026-05-15T14:48:38Z</time>
      </trkpt>
      <trkpt lat="43.67421" lon="7.00541">
        <ele>307.9</ele>
        <time>2026-05-15T14:48:39Z</time>
      </trkpt>
      <trkpt lat="43.67422" lon="7.00551">
        <ele>307.6</ele>
        <time>2026-05-15T14:48:40Z</time>
      </trkpt>
      <trkpt lat="43.67421" lon="7.00562">
        <ele>307.1</ele>
        <time>2026-05-15T14:48:41Z</time>
      </trkpt>
      <trkpt lat="43.6742" lon="7.00576">
        <ele>306.6</ele>
        <time>2026-05-15T14:48:42Z</time>
      </trkpt>
      <trkpt lat="43.67419" lon="7.00591">
        <ele>306</ele>
        <time>2026-05-15T14:48:43Z</time>
      </trkpt>
      <trkpt lat="43.67417" lon="7.00607">
        <ele>305.2</ele>
        <time>2026-05-15T14:48:44Z</time>
      </trkpt>
      <trkpt lat="43.67417" lon="7.00623">
        <ele>304.6</ele>
        <time>2026-05-15T14:48:45Z</time>
      </trkpt>
      <trkpt lat="43.67415" lon="7.00639">
        <ele>303.8</ele>
        <time>2026-05-15T14:48:46Z</time>
      </trkpt>
      <trkpt lat="43.67414" lon="7.00657">
        <ele>303</ele>
        <time>2026-05-15T14:48:47Z</time>
      </trkpt>
      <trkpt lat="43.67412" lon="7.00675">
        <ele>302.2</ele>
        <time>2026-05-15T14:48:48Z</time>
      </trkpt>
      <trkpt lat="43.6741" lon="7.00693">
        <ele>301.3</ele>
        <time>2026-05-15T14:48:49Z</time>
      </trkpt>
      <trkpt lat="43.67408" lon="7.00711">
        <ele>300.7</ele>
        <time>2026-05-15T14:48:50Z</time>
      </trkpt>
      <trkpt lat="43.67406" lon="7.0073">
        <ele>300</ele>
        <time>2026-05-15T14:48:51Z</time>
      </trkpt>
      <trkpt lat="43.67405" lon="7.00748">
        <ele>299.5</ele>
        <time>2026-05-15T14:48:52Z</time>
      </trkpt>
      <trkpt lat="43.67405" lon="7.00766">
        <ele>298.9</ele>
        <time>2026-05-15T14:48:53Z</time>
      </trkpt>
      <trkpt lat="43.67405" lon="7.00783">
        <ele>298.4</ele>
        <time>2026-05-15T14:48:54Z</time>
      </trkpt>
      <trkpt lat="43.67408" lon="7.00801">
        <ele>298.6</ele>
        <time>2026-05-15T14:48:55Z</time>
      </trkpt>
      <trkpt lat="43.67412" lon="7.00818">
        <ele>298.3</ele>
        <time>2026-05-15T14:48:56Z</time>
      </trkpt>
      <trkpt lat="43.67416" lon="7.00834">
        <ele>297.8</ele>
        <time>2026-05-15T14:48:57Z</time>
      </trkpt>
      <trkpt lat="43.67422" lon="7.00849">
        <ele>296.9</ele>
        <time>2026-05-15T14:48:58Z</time>
      </trkpt>
      <trkpt lat="43.67427" lon="7.00864">
        <ele>295.8</ele>
        <time>2026-05-15T14:48:59Z</time>
      </trkpt>
      <trkpt lat="43.67432" lon="7.00877">
        <ele>295.3</ele>
        <time>2026-05-15T14:49:00Z</time>
      </trkpt>
      <trkpt lat="43.67437" lon="7.00888">
        <ele>295</ele>
        <time>2026-05-15T14:49:01Z</time>
      </trkpt>
      <trkpt lat="43.6744" lon="7.00897">
        <ele>295</ele>
        <time>2026-05-15T14:49:02Z</time>
      </trkpt>
      <trkpt lat="43.67443" lon="7.00905">
        <ele>295.2</ele>
        <time>2026-05-15T14:49:03Z</time>
      </trkpt>
      <trkpt lat="43.67446" lon="7.00913">
        <ele>295.4</ele>
        <time>2026-05-15T14:49:04Z</time>
      </trkpt>
      <trkpt lat="43.67448" lon="7.00919">
        <ele>295.4</ele>
        <time>2026-05-15T14:49:05Z</time>
      </trkpt>
      <trkpt lat="43.6745" lon="7.00924">
        <ele>295.5</ele>
        <time>2026-05-15T14:49:06Z</time>
      </trkpt>
      <trkpt lat="43.67452" lon="7.00929">
        <ele>295.5</ele>
        <time>2026-05-15T14:49:07Z</time>
      </trkpt>
      <trkpt lat="43.67453" lon="7.00934">
        <ele>295.4</ele>
        <time>2026-05-15T14:49:08Z</time>
      </trkpt>
      <trkpt lat="43.67456" lon="7.00941">
        <ele>295.4</ele>
        <time>2026-05-15T14:49:09Z</time>
      </trkpt>
      <trkpt lat="43.67458" lon="7.00948">
        <ele>295.2</ele>
        <time>2026-05-15T14:49:10Z</time>
      </trkpt>
      <trkpt lat="43.6746" lon="7.00957">
        <ele>294.8</ele>
        <time>2026-05-15T14:49:11Z</time>
      </trkpt>
      <trkpt lat="43.67463" lon="7.00967">
        <ele>294.4</ele>
        <time>2026-05-15T14:49:12Z</time>
      </trkpt>
      <trkpt lat="43.67465" lon="7.00979">
        <ele>293.9</ele>
        <time>2026-05-15T14:49:13Z</time>
      </trkpt>
      <trkpt lat="43.67467" lon="7.00991">
        <ele>293.6</ele>
        <time>2026-05-15T14:49:14Z</time>
      </trkpt>
      <trkpt lat="43.6747" lon="7.01003">
        <ele>293.5</ele>
        <time>2026-05-15T14:49:15Z</time>
      </trkpt>
      <trkpt lat="43.67473" lon="7.01015">
        <ele>293.5</ele>
        <time>2026-05-15T14:49:16Z</time>
      </trkpt>
      <trkpt lat="43.67477" lon="7.01027">
        <ele>293.5</ele>
        <time>2026-05-15T14:49:17Z</time>
      </trkpt>
      <trkpt lat="43.67483" lon="7.01038">
        <ele>292.2</ele>
        <time>2026-05-15T14:49:18Z</time>
      </trkpt>
      <trkpt lat="43.67491" lon="7.01046">
        <ele>291.3</ele>
        <time>2026-05-15T14:49:19Z</time>
      </trkpt>
      <trkpt lat="43.675" lon="7.01053">
        <ele>290.6</ele>
        <time>2026-05-15T14:49:20Z</time>
      </trkpt>
      <trkpt lat="43.6751" lon="7.01059">
        <ele>289.9</ele>
        <time>2026-05-15T14:49:21Z</time>
      </trkpt>
      <trkpt lat="43.6752" lon="7.01065">
        <ele>289.4</ele>
        <time>2026-05-15T14:49:22Z</time>
      </trkpt>
      <trkpt lat="43.67531" lon="7.01073">
        <ele>288.7</ele>
        <time>2026-05-15T14:49:23Z</time>
      </trkpt>
      <trkpt lat="43.6754" lon="7.01082">
        <ele>288.4</ele>
        <time>2026-05-15T14:49:24Z</time>
      </trkpt>
      <trkpt lat="43.67548" lon="7.01092">
        <ele>288.4</ele>
        <time>2026-05-15T14:49:25Z</time>
      </trkpt>
      <trkpt lat="43.67554" lon="7.01102">
        <ele>288.4</ele>
        <time>2026-05-15T14:49:26Z</time>
      </trkpt>
      <trkpt lat="43.67558" lon="7.01109">
        <ele>288.7</ele>
        <time>2026-05-15T14:49:27Z</time>
      </trkpt>
      <trkpt lat="43.67561" lon="7.01115">
        <ele>288.8</ele>
        <time>2026-05-15T14:49:28Z</time>
      </trkpt>
      <trkpt lat="43.67564" lon="7.01123">
        <ele>288.7</ele>
        <time>2026-05-15T14:49:29Z</time>
      </trkpt>
      <trkpt lat="43.67568" lon="7.01129">
        <ele>288.8</ele>
        <time>2026-05-15T14:49:30Z</time>
      </trkpt>
      <trkpt lat="43.67571" lon="7.01135">
        <ele>288.7</ele>
        <time>2026-05-15T14:49:31Z</time>
      </trkpt>
      <trkpt lat="43.67574" lon="7.01141">
        <ele>288.5</ele>
        <time>2026-05-15T14:49:32Z</time>
      </trkpt>
      <trkpt lat="43.67577" lon="7.01148">
        <ele>288.5</ele>
        <time>2026-05-15T14:49:33Z</time>
      </trkpt>
      <trkpt lat="43.6758" lon="7.01154">
        <ele>288.5</ele>
        <time>2026-05-15T14:49:34Z</time>
      </trkpt>
      <trkpt lat="43.67584" lon="7.01162">
        <ele>288.4</ele>
        <time>2026-05-15T14:49:35Z</time>
      </trkpt>
      <trkpt lat="43.67588" lon="7.01169">
        <ele>288.1</ele>
        <time>2026-05-15T14:49:36Z</time>
      </trkpt>
      <trkpt lat="43.67591" lon="7.01176">
        <ele>287.2</ele>
        <time>2026-05-15T14:49:37Z</time>
      </trkpt>
      <trkpt lat="43.67595" lon="7.01183">
        <ele>286.6</ele>
        <time>2026-05-15T14:49:38Z</time>
      </trkpt>
      <trkpt lat="43.67598" lon="7.0119">
        <ele>285.8</ele>
        <time>2026-05-15T14:49:39Z</time>
      </trkpt>
      <trkpt lat="43.67601" lon="7.01197">
        <ele>285.3</ele>
        <time>2026-05-15T14:49:40Z</time>
      </trkpt>
      <trkpt lat="43.67605" lon="7.01204">
        <ele>285.4</ele>
        <time>2026-05-15T14:49:41Z</time>
      </trkpt>
      <trkpt lat="43.67608" lon="7.0121">
        <ele>285.4</ele>
        <time>2026-05-15T14:49:42Z</time>
      </trkpt>
      <trkpt lat="43.67611" lon="7.01216">
        <ele>285.4</ele>
        <time>2026-05-15T14:49:43Z</time>
      </trkpt>
      <trkpt lat="43.67613" lon="7.01221">
        <ele>285.1</ele>
        <time>2026-05-15T14:49:44Z</time>
      </trkpt>
      <trkpt lat="43.67615" lon="7.01225">
        <ele>284.7</ele>
        <time>2026-05-15T14:49:45Z</time>
      </trkpt>
      <trkpt lat="43.67617" lon="7.01228">
        <ele>284.3</ele>
        <time>2026-05-15T14:49:46Z</time>
      </trkpt>
      <trkpt lat="43.67618" lon="7.0123">
        <ele>284.2</ele>
        <time>2026-05-15T14:49:47Z</time>
      </trkpt>
      <trkpt lat="43.67619" lon="7.01232">
        <ele>284</ele>
        <time>2026-05-15T14:49:48Z</time>
      </trkpt>
      <trkpt lat="43.6762" lon="7.01234">
        <ele>283.8</ele>
        <time>2026-05-15T14:49:49Z</time>
      </trkpt>
      <trkpt lat="43.67621" lon="7.01237">
        <ele>283.6</ele>
        <time>2026-05-15T14:49:50Z</time>
      </trkpt>
      <trkpt lat="43.67622" lon="7.01241">
        <ele>283.4</ele>
        <time>2026-05-15T14:49:51Z</time>
      </trkpt>
      <trkpt lat="43.67623" lon="7.01243">
        <ele>283.3</ele>
        <time>2026-05-15T14:49:52Z</time>
      </trkpt>
      <trkpt lat="43.67624" lon="7.01247">
        <ele>283.1</ele>
        <time>2026-05-15T14:49:53Z</time>
      </trkpt>
      <trkpt lat="43.67625" lon="7.01249">
        <ele>283.1</ele>
        <time>2026-05-15T14:49:54Z</time>
      </trkpt>
      <trkpt lat="43.67627" lon="7.01251">
        <ele>283.3</ele>
        <time>2026-05-15T14:49:55Z</time>
      </trkpt>
      <trkpt lat="43.67628" lon="7.01253">
        <ele>283.3</ele>
        <time>2026-05-15T14:49:56Z</time>
      </trkpt>
      <trkpt lat="43.67628" lon="7.01253">
        <ele>283.3</ele>
        <time>2026-05-15T14:49:57Z</time>
      </trkpt>
      <trkpt lat="43.67628" lon="7.01253">
        <ele>283.3</ele>
        <time>2026-05-15T14:49:58Z</time>
      </trkpt>
      <trkpt lat="43.67628" lon="7.01252">
        <ele>283.4</ele>
        <time>2026-05-15T14:49:59Z</time>
      </trkpt>
      <trkpt lat="43.67628" lon="7.01252">
        <ele>283.4</ele>
        <time>2026-05-15T14:50:00Z</time>
      </trkpt>
      <trkpt lat="43.67628" lon="7.01251">
        <ele>283.4</ele>
        <time>2026-05-15T14:50:01Z</time>
      </trkpt>
      <trkpt lat="43.67628" lon="7.01251">
        <ele>283.4</ele>
        <time>2026-05-15T14:50:02Z</time>
      </trkpt>
      <trkpt lat="43.67628" lon="7.01251">
        <ele>283.4</ele>
        <time>2026-05-15T14:50:03Z</time>
      </trkpt>
      <trkpt lat="43.67628" lon="7.01251">
        <ele>283.4</ele>
        <time>2026-05-15T14:50:04Z</time>
      </trkpt>
      <trkpt lat="43.67628" lon="7.01251">
        <ele>283.4</ele>
        <time>2026-05-15T14:50:05Z</time>
      </trkpt>
      <trkpt lat="43.67628" lon="7.01251">
        <ele>283.4</ele>
        <time>2026-05-15T14:50:06Z</time>
      </trkpt>
      <trkpt lat="43.67628" lon="7.01251">
        <ele>283.4</ele>
        <time>2026-05-15T14:50:07Z</time>
      </trkpt>
      <trkpt lat="43.67628" lon="7.01251">
        <ele>283.4</ele>
        <time>2026-05-15T14:50:08Z</time>
      </trkpt>
      <trkpt lat="43.67628" lon="7.01251">
        <ele>283.4</ele>
        <time>2026-05-15T14:50:09Z</time>
      </trkpt>
      <trkpt lat="43.67628" lon="7.01251">
        <ele>283.4</ele>
        <time>2026-05-15T14:50:10Z</time>
      </trkpt>
      <trkpt lat="43.67628" lon="7.01251">
        <ele>283.4</ele>
        <time>2026-05-15T14:50:11Z</time>
      </trkpt>
      <trkpt lat="43.67629" lon="7.01254">
        <ele>283.4</ele>
        <time>2026-05-15T14:50:12Z</time>
      </trkpt>
      <trkpt lat="43.67633" lon="7.01261">
        <ele>283.8</ele>
        <time>2026-05-15T14:50:13Z</time>
      </trkpt>
      <trkpt lat="43.67637" lon="7.0127">
        <ele>284</ele>
        <time>2026-05-15T14:50:14Z</time>
      </trkpt>
      <trkpt lat="43.67642" lon="7.01278">
        <ele>284.1</ele>
        <time>2026-05-15T14:50:15Z</time>
      </trkpt>
      <trkpt lat="43.67646" lon="7.01286">
        <ele>283.7</ele>
        <time>2026-05-15T14:50:16Z</time>
      </trkpt>
      <trkpt lat="43.6765" lon="7.01296">
        <ele>283.4</ele>
        <time>2026-05-15T14:50:17Z</time>
      </trkpt>
      <trkpt lat="43.67654" lon="7.01306">
        <ele>283.1</ele>
        <time>2026-05-15T14:50:18Z</time>
      </trkpt>
      <trkpt lat="43.67659" lon="7.01318">
        <ele>282.9</ele>
        <time>2026-05-15T14:50:19Z</time>
      </trkpt>
      <trkpt lat="43.67662" lon="7.01331">
        <ele>282.6</ele>
        <time>2026-05-15T14:50:20Z</time>
      </trkpt>
      <trkpt lat="43.67663" lon="7.01345">
        <ele>282.5</ele>
        <time>2026-05-15T14:50:21Z</time>
      </trkpt>
      <trkpt lat="43.67662" lon="7.01361">
        <ele>282.3</ele>
        <time>2026-05-15T14:50:22Z</time>
      </trkpt>
      <trkpt lat="43.67659" lon="7.01377">
        <ele>281.5</ele>
        <time>2026-05-15T14:50:23Z</time>
      </trkpt>
      <trkpt lat="43.67654" lon="7.01392">
        <ele>280.7</ele>
        <time>2026-05-15T14:50:24Z</time>
      </trkpt>
      <trkpt lat="43.67649" lon="7.01407">
        <ele>280.3</ele>
        <time>2026-05-15T14:50:25Z</time>
      </trkpt>
      <trkpt lat="43.67643" lon="7.01423">
        <ele>279.8</ele>
        <time>2026-05-15T14:50:26Z</time>
      </trkpt>
      <trkpt lat="43.67639" lon="7.01439">
        <ele>279.8</ele>
        <time>2026-05-15T14:50:27Z</time>
      </trkpt>
      <trkpt lat="43.67636" lon="7.01456">
        <ele>279.2</ele>
        <time>2026-05-15T14:50:28Z</time>
      </trkpt>
      <trkpt lat="43.67635" lon="7.01475">
        <ele>278.8</ele>
        <time>2026-05-15T14:50:29Z</time>
      </trkpt>
      <trkpt lat="43.67636" lon="7.01493">
        <ele>278.4</ele>
        <time>2026-05-15T14:50:30Z</time>
      </trkpt>
      <trkpt lat="43.6764" lon="7.01512">
        <ele>277.9</ele>
        <time>2026-05-15T14:50:31Z</time>
      </trkpt>
      <trkpt lat="43.67645" lon="7.0153">
        <ele>277.1</ele>
        <time>2026-05-15T14:50:32Z</time>
      </trkpt>
      <trkpt lat="43.67652" lon="7.01547">
        <ele>276.8</ele>
        <time>2026-05-15T14:50:33Z</time>
      </trkpt>
      <trkpt lat="43.67659" lon="7.01562">
        <ele>276.3</ele>
        <time>2026-05-15T14:50:34Z</time>
      </trkpt>
      <trkpt lat="43.67667" lon="7.01576">
        <ele>276.6</ele>
        <time>2026-05-15T14:50:35Z</time>
      </trkpt>
      <trkpt lat="43.67674" lon="7.01587">
        <ele>276.7</ele>
        <time>2026-05-15T14:50:36Z</time>
      </trkpt>
      <trkpt lat="43.67679" lon="7.01597">
        <ele>275.8</ele>
        <time>2026-05-15T14:50:37Z</time>
      </trkpt>
      <trkpt lat="43.67685" lon="7.01606">
        <ele>275</ele>
        <time>2026-05-15T14:50:38Z</time>
      </trkpt>
      <trkpt lat="43.67691" lon="7.01615">
        <ele>274.3</ele>
        <time>2026-05-15T14:50:39Z</time>
      </trkpt>
      <trkpt lat="43.67697" lon="7.01626">
        <ele>274.3</ele>
        <time>2026-05-15T14:50:40Z</time>
      </trkpt>
      <trkpt lat="43.67703" lon="7.01639">
        <ele>273.9</ele>
        <time>2026-05-15T14:50:41Z</time>
      </trkpt>
      <trkpt lat="43.67708" lon="7.01655">
        <ele>273.9</ele>
        <time>2026-05-15T14:50:42Z</time>
      </trkpt>
      <trkpt lat="43.67712" lon="7.01672">
        <ele>273.8</ele>
        <time>2026-05-15T14:50:43Z</time>
      </trkpt>
      <trkpt lat="43.67713" lon="7.01691">
        <ele>273.4</ele>
        <time>2026-05-15T14:50:44Z</time>
      </trkpt>
      <trkpt lat="43.67714" lon="7.01709">
        <ele>272.9</ele>
        <time>2026-05-15T14:50:45Z</time>
      </trkpt>
      <trkpt lat="43.67713" lon="7.01728">
        <ele>272.2</ele>
        <time>2026-05-15T14:50:46Z</time>
      </trkpt>
      <trkpt lat="43.6771" lon="7.01747">
        <ele>271.6</ele>
        <time>2026-05-15T14:50:47Z</time>
      </trkpt>
      <trkpt lat="43.67706" lon="7.01766">
        <ele>271.8</ele>
        <time>2026-05-15T14:50:48Z</time>
      </trkpt>
      <trkpt lat="43.67701" lon="7.01783">
        <ele>272</ele>
        <time>2026-05-15T14:50:49Z</time>
      </trkpt>
      <trkpt lat="43.67694" lon="7.01796">
        <ele>272</ele>
        <time>2026-05-15T14:50:50Z</time>
      </trkpt>
      <trkpt lat="43.67687" lon="7.01807">
        <ele>271.7</ele>
        <time>2026-05-15T14:50:51Z</time>
      </trkpt>
      <trkpt lat="43.67679" lon="7.01818">
        <ele>271.7</ele>
        <time>2026-05-15T14:50:52Z</time>
      </trkpt>
      <trkpt lat="43.6767" lon="7.01828">
        <ele>271.8</ele>
        <time>2026-05-15T14:50:53Z</time>
      </trkpt>
      <trkpt lat="43.6766" lon="7.01837">
        <ele>271.3</ele>
        <time>2026-05-15T14:50:54Z</time>
      </trkpt>
      <trkpt lat="43.6765" lon="7.01847">
        <ele>270.5</ele>
        <time>2026-05-15T14:50:55Z</time>
      </trkpt>
      <trkpt lat="43.6764" lon="7.01855">
        <ele>269.9</ele>
        <time>2026-05-15T14:50:56Z</time>
      </trkpt>
      <trkpt lat="43.6763" lon="7.01864">
        <ele>269.2</ele>
        <time>2026-05-15T14:50:57Z</time>
      </trkpt>
      <trkpt lat="43.6762" lon="7.01874">
        <ele>268.9</ele>
        <time>2026-05-15T14:50:58Z</time>
      </trkpt>
      <trkpt lat="43.67612" lon="7.01886">
        <ele>268.9</ele>
        <time>2026-05-15T14:50:59Z</time>
      </trkpt>
      <trkpt lat="43.67603" lon="7.01899">
        <ele>268.5</ele>
        <time>2026-05-15T14:51:00Z</time>
      </trkpt>
      <trkpt lat="43.67595" lon="7.01914">
        <ele>268.2</ele>
        <time>2026-05-15T14:51:01Z</time>
      </trkpt>
      <trkpt lat="43.67587" lon="7.0193">
        <ele>267.5</ele>
        <time>2026-05-15T14:51:02Z</time>
      </trkpt>
      <trkpt lat="43.67579" lon="7.01947">
        <ele>266.3</ele>
        <time>2026-05-15T14:51:03Z</time>
      </trkpt>
      <trkpt lat="43.67571" lon="7.01964">
        <ele>266.1</ele>
        <time>2026-05-15T14:51:04Z</time>
      </trkpt>
      <trkpt lat="43.67563" lon="7.01982">
        <ele>265.6</ele>
        <time>2026-05-15T14:51:05Z</time>
      </trkpt>
      <trkpt lat="43.67555" lon="7.01999">
        <ele>264.8</ele>
        <time>2026-05-15T14:51:06Z</time>
      </trkpt>
      <trkpt lat="43.67547" lon="7.02017">
        <ele>264.8</ele>
        <time>2026-05-15T14:51:07Z</time>
      </trkpt>
      <trkpt lat="43.67539" lon="7.02035">
        <ele>264.1</ele>
        <time>2026-05-15T14:51:08Z</time>
      </trkpt>
      <trkpt lat="43.67531" lon="7.02052">
        <ele>262.7</ele>
        <time>2026-05-15T14:51:09Z</time>
      </trkpt>
      <trkpt lat="43.67525" lon="7.0207">
        <ele>262</ele>
        <time>2026-05-15T14:51:10Z</time>
      </trkpt>
      <trkpt lat="43.67521" lon="7.02088">
        <ele>261.8</ele>
        <time>2026-05-15T14:51:11Z</time>
      </trkpt>
      <trkpt lat="43.67518" lon="7.02107">
        <ele>261.2</ele>
        <time>2026-05-15T14:51:12Z</time>
      </trkpt>
      <trkpt lat="43.67517" lon="7.02126">
        <ele>261.1</ele>
        <time>2026-05-15T14:51:13Z</time>
      </trkpt>
      <trkpt lat="43.67517" lon="7.02145">
        <ele>260.7</ele>
        <time>2026-05-15T14:51:14Z</time>
      </trkpt>
      <trkpt lat="43.67517" lon="7.02163">
        <ele>259.2</ele>
        <time>2026-05-15T14:51:15Z</time>
      </trkpt>
      <trkpt lat="43.67517" lon="7.02181">
        <ele>258.4</ele>
        <time>2026-05-15T14:51:16Z</time>
      </trkpt>
      <trkpt lat="43.67515" lon="7.022">
        <ele>258</ele>
        <time>2026-05-15T14:51:17Z</time>
      </trkpt>
      <trkpt lat="43.6751" lon="7.02216">
        <ele>258.1</ele>
        <time>2026-05-15T14:51:18Z</time>
      </trkpt>
      <trkpt lat="43.67504" lon="7.02233">
        <ele>258</ele>
        <time>2026-05-15T14:51:19Z</time>
      </trkpt>
      <trkpt lat="43.67498" lon="7.0225">
        <ele>257.7</ele>
        <time>2026-05-15T14:51:20Z</time>
      </trkpt>
      <trkpt lat="43.67491" lon="7.02268">
        <ele>257.4</ele>
        <time>2026-05-15T14:51:21Z</time>
      </trkpt>
      <trkpt lat="43.67485" lon="7.02285">
        <ele>257</ele>
        <time>2026-05-15T14:51:22Z</time>
      </trkpt>
      <trkpt lat="43.67478" lon="7.02302">
        <ele>256</ele>
        <time>2026-05-15T14:51:23Z</time>
      </trkpt>
      <trkpt lat="43.67471" lon="7.02319">
        <ele>254.8</ele>
        <time>2026-05-15T14:51:24Z</time>
      </trkpt>
      <trkpt lat="43.67462" lon="7.02334">
        <ele>253.2</ele>
        <time>2026-05-15T14:51:25Z</time>
      </trkpt>
      <trkpt lat="43.67452" lon="7.02346">
        <ele>252.6</ele>
        <time>2026-05-15T14:51:26Z</time>
      </trkpt>
      <trkpt lat="43.6744" lon="7.02355">
        <ele>252.6</ele>
        <time>2026-05-15T14:51:27Z</time>
      </trkpt>
      <trkpt lat="43.67427" lon="7.02361">
        <ele>252.1</ele>
        <time>2026-05-15T14:51:28Z</time>
      </trkpt>
      <trkpt lat="43.67412" lon="7.02365">
        <ele>251.7</ele>
        <time>2026-05-15T14:51:29Z</time>
      </trkpt>
      <trkpt lat="43.67397" lon="7.02368">
        <ele>252</ele>
        <time>2026-05-15T14:51:30Z</time>
      </trkpt>
      <trkpt lat="43.67382" lon="7.02372">
        <ele>252.3</ele>
        <time>2026-05-15T14:51:31Z</time>
      </trkpt>
      <trkpt lat="43.67366" lon="7.02375">
        <ele>251.9</ele>
        <time>2026-05-15T14:51:32Z</time>
      </trkpt>
      <trkpt lat="43.6735" lon="7.0238">
        <ele>250.5</ele>
        <time>2026-05-15T14:51:33Z</time>
      </trkpt>
      <trkpt lat="43.67334" lon="7.02385">
        <ele>248.6</ele>
        <time>2026-05-15T14:51:34Z</time>
      </trkpt>
      <trkpt lat="43.67318" lon="7.02391">
        <ele>248.5</ele>
        <time>2026-05-15T14:51:35Z</time>
      </trkpt>
      <trkpt lat="43.67301" lon="7.02399">
        <ele>247.9</ele>
        <time>2026-05-15T14:51:36Z</time>
      </trkpt>
      <trkpt lat="43.67284" lon="7.02408">
        <ele>245.7</ele>
        <time>2026-05-15T14:51:37Z</time>
      </trkpt>
      <trkpt lat="43.67269" lon="7.0242">
        <ele>245.5</ele>
        <time>2026-05-15T14:51:38Z</time>
      </trkpt>
      <trkpt lat="43.67254" lon="7.02433">
        <ele>244</ele>
        <time>2026-05-15T14:51:39Z</time>
      </trkpt>
      <trkpt lat="43.6724" lon="7.02446">
        <ele>244.2</ele>
        <time>2026-05-15T14:51:40Z</time>
      </trkpt>
      <trkpt lat="43.67226" lon="7.02461">
        <ele>244</ele>
        <time>2026-05-15T14:51:41Z</time>
      </trkpt>
      <trkpt lat="43.67212" lon="7.02477">
        <ele>242.8</ele>
        <time>2026-05-15T14:51:42Z</time>
      </trkpt>
      <trkpt lat="43.672" lon="7.02496">
        <ele>243.1</ele>
        <time>2026-05-15T14:51:43Z</time>
      </trkpt>
      <trkpt lat="43.67188" lon="7.02516">
        <ele>240.8</ele>
        <time>2026-05-15T14:51:44Z</time>
      </trkpt>
      <trkpt lat="43.6718" lon="7.02538">
        <ele>241.3</ele>
        <time>2026-05-15T14:51:45Z</time>
      </trkpt>
      <trkpt lat="43.67174" lon="7.02561">
        <ele>242.2</ele>
        <time>2026-05-15T14:51:46Z</time>
      </trkpt>
      <trkpt lat="43.67171" lon="7.02584">
        <ele>241.4</ele>
        <time>2026-05-15T14:51:47Z</time>
      </trkpt>
      <trkpt lat="43.6717" lon="7.02609">
        <ele>239.1</ele>
        <time>2026-05-15T14:51:48Z</time>
      </trkpt>
      <trkpt lat="43.67173" lon="7.02631">
        <ele>237.2</ele>
        <time>2026-05-15T14:51:49Z</time>
      </trkpt>
      <trkpt lat="43.67187" lon="7.02651">
        <ele>237.1</ele>
        <time>2026-05-15T14:51:50Z</time>
      </trkpt>
      <trkpt lat="43.67196" lon="7.02671">
        <ele>236.9</ele>
        <time>2026-05-15T14:51:51Z</time>
      </trkpt>
      <trkpt lat="43.67204" lon="7.02689">
        <ele>235.6</ele>
        <time>2026-05-15T14:51:52Z</time>
      </trkpt>
      <trkpt lat="43.6721" lon="7.02703">
        <ele>234.3</ele>
        <time>2026-05-15T14:51:53Z</time>
      </trkpt>
      <trkpt lat="43.67215" lon="7.02713">
        <ele>234.1</ele>
        <time>2026-05-15T14:51:54Z</time>
      </trkpt>
      <trkpt lat="43.67217" lon="7.0272">
        <ele>234</ele>
        <time>2026-05-15T14:51:55Z</time>
      </trkpt>
      <trkpt lat="43.67219" lon="7.02725">
        <ele>234.2</ele>
        <time>2026-05-15T14:51:56Z</time>
      </trkpt>
      <trkpt lat="43.6722" lon="7.0273">
        <ele>234.2</ele>
        <time>2026-05-15T14:51:57Z</time>
      </trkpt>
      <trkpt lat="43.67221" lon="7.02734">
        <ele>234.3</ele>
        <time>2026-05-15T14:51:58Z</time>
      </trkpt>
      <trkpt lat="43.67221" lon="7.02738">
        <ele>234.1</ele>
        <time>2026-05-15T14:51:59Z</time>
      </trkpt>
      <trkpt lat="43.67221" lon="7.02744">
        <ele>233.9</ele>
        <time>2026-05-15T14:52:00Z</time>
      </trkpt>
      <trkpt lat="43.6722" lon="7.02752">
        <ele>233.4</ele>
        <time>2026-05-15T14:52:01Z</time>
      </trkpt>
      <trkpt lat="43.67219" lon="7.02763">
        <ele>232.9</ele>
        <time>2026-05-15T14:52:02Z</time>
      </trkpt>
      <trkpt lat="43.67217" lon="7.02774">
        <ele>232.3</ele>
        <time>2026-05-15T14:52:03Z</time>
      </trkpt>
      <trkpt lat="43.67213" lon="7.02788">
        <ele>232.2</ele>
        <time>2026-05-15T14:52:04Z</time>
      </trkpt>
      <trkpt lat="43.67207" lon="7.02802">
        <ele>232.2</ele>
        <time>2026-05-15T14:52:05Z</time>
      </trkpt>
      <trkpt lat="43.67199" lon="7.02816">
        <ele>232</ele>
        <time>2026-05-15T14:52:06Z</time>
      </trkpt>
      <trkpt lat="43.67191" lon="7.02831">
        <ele>231.4</ele>
        <time>2026-05-15T14:52:07Z</time>
      </trkpt>
      <trkpt lat="43.67181" lon="7.02847">
        <ele>231.8</ele>
        <time>2026-05-15T14:52:08Z</time>
      </trkpt>
      <trkpt lat="43.67172" lon="7.02864">
        <ele>231.3</ele>
        <time>2026-05-15T14:52:09Z</time>
      </trkpt>
      <trkpt lat="43.67164" lon="7.02882">
        <ele>228.5</ele>
        <time>2026-05-15T14:52:10Z</time>
      </trkpt>
      <trkpt lat="43.67158" lon="7.02903">
        <ele>228.3</ele>
        <time>2026-05-15T14:52:11Z</time>
      </trkpt>
      <trkpt lat="43.67154" lon="7.02924">
        <ele>228.9</ele>
        <time>2026-05-15T14:52:12Z</time>
      </trkpt>
      <trkpt lat="43.67151" lon="7.02947">
        <ele>228.6</ele>
        <time>2026-05-15T14:52:13Z</time>
      </trkpt>
      <trkpt lat="43.67151" lon="7.02971">
        <ele>228.7</ele>
        <time>2026-05-15T14:52:14Z</time>
      </trkpt>
      <trkpt lat="43.67152" lon="7.02995">
        <ele>227.7</ele>
        <time>2026-05-15T14:52:15Z</time>
      </trkpt>
      <trkpt lat="43.67155" lon="7.03018">
        <ele>225.6</ele>
        <time>2026-05-15T14:52:16Z</time>
      </trkpt>
      <trkpt lat="43.67157" lon="7.03042">
        <ele>223.8</ele>
        <time>2026-05-15T14:52:17Z</time>
      </trkpt>
      <trkpt lat="43.6716" lon="7.03066">
        <ele>223.5</ele>
        <time>2026-05-15T14:52:18Z</time>
      </trkpt>
      <trkpt lat="43.67162" lon="7.03089">
        <ele>223.7</ele>
        <time>2026-05-15T14:52:19Z</time>
      </trkpt>
      <trkpt lat="43.67163" lon="7.03112">
        <ele>223</ele>
        <time>2026-05-15T14:52:20Z</time>
      </trkpt>
      <trkpt lat="43.67165" lon="7.03135">
        <ele>222.1</ele>
        <time>2026-05-15T14:52:21Z</time>
      </trkpt>
      <trkpt lat="43.67168" lon="7.03158">
        <ele>222</ele>
        <time>2026-05-15T14:52:22Z</time>
      </trkpt>
      <trkpt lat="43.6717" lon="7.0318">
        <ele>221.5</ele>
        <time>2026-05-15T14:52:23Z</time>
      </trkpt>
      <trkpt lat="43.67173" lon="7.03202">
        <ele>220.9</ele>
        <time>2026-05-15T14:52:24Z</time>
      </trkpt>
      <trkpt lat="43.67176" lon="7.03224">
        <ele>220.6</ele>
        <time>2026-05-15T14:52:25Z</time>
      </trkpt>
      <trkpt lat="43.67179" lon="7.03245">
        <ele>220.1</ele>
        <time>2026-05-15T14:52:26Z</time>
      </trkpt>
      <trkpt lat="43.67181" lon="7.03265">
        <ele>219.2</ele>
        <time>2026-05-15T14:52:27Z</time>
      </trkpt>
      <trkpt lat="43.67183" lon="7.03285">
        <ele>218.5</ele>
        <time>2026-05-15T14:52:28Z</time>
      </trkpt>
      <trkpt lat="43.67185" lon="7.03303">
        <ele>218.4</ele>
        <time>2026-05-15T14:52:29Z</time>
      </trkpt>
      <trkpt lat="43.67187" lon="7.03319">
        <ele>218</ele>
        <time>2026-05-15T14:52:30Z</time>
      </trkpt>
      <trkpt lat="43.67188" lon="7.03334">
        <ele>217.5</ele>
        <time>2026-05-15T14:52:31Z</time>
      </trkpt>
      <trkpt lat="43.6719" lon="7.0335">
        <ele>217.7</ele>
        <time>2026-05-15T14:52:32Z</time>
      </trkpt>
      <trkpt lat="43.67192" lon="7.03365">
        <ele>217.8</ele>
        <time>2026-05-15T14:52:33Z</time>
      </trkpt>
      <trkpt lat="43.67193" lon="7.03382">
        <ele>217.9</ele>
        <time>2026-05-15T14:52:34Z</time>
      </trkpt>
      <trkpt lat="43.67195" lon="7.034">
        <ele>218.1</ele>
        <time>2026-05-15T14:52:35Z</time>
      </trkpt>
      <trkpt lat="43.67197" lon="7.0342">
        <ele>218.2</ele>
        <time>2026-05-15T14:52:36Z</time>
      </trkpt>
      <trkpt lat="43.67199" lon="7.03441">
        <ele>217.6</ele>
        <time>2026-05-15T14:52:37Z</time>
      </trkpt>
      <trkpt lat="43.67201" lon="7.03463">
        <ele>218.1</ele>
        <time>2026-05-15T14:52:38Z</time>
      </trkpt>
      <trkpt lat="43.67204" lon="7.03486">
        <ele>218.2</ele>
        <time>2026-05-15T14:52:39Z</time>
      </trkpt>
      <trkpt lat="43.67206" lon="7.03509">
        <ele>218</ele>
        <time>2026-05-15T14:52:40Z</time>
      </trkpt>
      <trkpt lat="43.67208" lon="7.03532">
        <ele>217.8</ele>
        <time>2026-05-15T14:52:41Z</time>
      </trkpt>
      <trkpt lat="43.67211" lon="7.03555">
        <ele>216.4</ele>
        <time>2026-05-15T14:52:42Z</time>
      </trkpt>
      <trkpt lat="43.67213" lon="7.03576">
        <ele>215.8</ele>
        <time>2026-05-15T14:52:43Z</time>
      </trkpt>
      <trkpt lat="43.67215" lon="7.03596">
        <ele>214.8</ele>
        <time>2026-05-15T14:52:44Z</time>
      </trkpt>
      <trkpt lat="43.67218" lon="7.03616">
        <ele>213.8</ele>
        <time>2026-05-15T14:52:45Z</time>
      </trkpt>
      <trkpt lat="43.67219" lon="7.03635">
        <ele>213.8</ele>
        <time>2026-05-15T14:52:46Z</time>
      </trkpt>
      <trkpt lat="43.6722" lon="7.03653">
        <ele>213.8</ele>
        <time>2026-05-15T14:52:47Z</time>
      </trkpt>
      <trkpt lat="43.67221" lon="7.03669">
        <ele>213.9</ele>
        <time>2026-05-15T14:52:48Z</time>
      </trkpt>
      <trkpt lat="43.6722" lon="7.03684">
        <ele>213.8</ele>
        <time>2026-05-15T14:52:49Z</time>
      </trkpt>
      <trkpt lat="43.67218" lon="7.03699">
        <ele>213.4</ele>
        <time>2026-05-15T14:52:50Z</time>
      </trkpt>
      <trkpt lat="43.67215" lon="7.03714">
        <ele>212.9</ele>
        <time>2026-05-15T14:52:51Z</time>
      </trkpt>
      <trkpt lat="43.67211" lon="7.03729">
        <ele>212.3</ele>
        <time>2026-05-15T14:52:52Z</time>
      </trkpt>
      <trkpt lat="43.67205" lon="7.03743">
        <ele>211.8</ele>
        <time>2026-05-15T14:52:53Z</time>
      </trkpt>
      <trkpt lat="43.67199" lon="7.03756">
        <ele>211.8</ele>
        <time>2026-05-15T14:52:54Z</time>
      </trkpt>
      <trkpt lat="43.67191" lon="7.03769">
        <ele>212.2</ele>
        <time>2026-05-15T14:52:55Z</time>
      </trkpt>
      <trkpt lat="43.67183" lon="7.03782">
        <ele>212.2</ele>
        <time>2026-05-15T14:52:56Z</time>
      </trkpt>
      <trkpt lat="43.67173" lon="7.03794">
        <ele>211.4</ele>
        <time>2026-05-15T14:52:57Z</time>
      </trkpt>
      <trkpt lat="43.67163" lon="7.03806">
        <ele>210.2</ele>
        <time>2026-05-15T14:52:58Z</time>
      </trkpt>
      <trkpt lat="43.67153" lon="7.03818">
        <ele>209.9</ele>
        <time>2026-05-15T14:52:59Z</time>
      </trkpt>
      <trkpt lat="43.67143" lon="7.0383">
        <ele>208.6</ele>
        <time>2026-05-15T14:53:00Z</time>
      </trkpt>
      <trkpt lat="43.67135" lon="7.03841">
        <ele>207.5</ele>
        <time>2026-05-15T14:53:01Z</time>
      </trkpt>
      <trkpt lat="43.67125" lon="7.03851">
        <ele>207</ele>
        <time>2026-05-15T14:53:02Z</time>
      </trkpt>
      <trkpt lat="43.67115" lon="7.03862">
        <ele>206.7</ele>
        <time>2026-05-15T14:53:03Z</time>
      </trkpt>
      <trkpt lat="43.67105" lon="7.03873">
        <ele>205.4</ele>
        <time>2026-05-15T14:53:04Z</time>
      </trkpt>
      <trkpt lat="43.67096" lon="7.03885">
        <ele>204.4</ele>
        <time>2026-05-15T14:53:05Z</time>
      </trkpt>
      <trkpt lat="43.67085" lon="7.03897">
        <ele>204.3</ele>
        <time>2026-05-15T14:53:06Z</time>
      </trkpt>
      <trkpt lat="43.67075" lon="7.0391">
        <ele>203.8</ele>
        <time>2026-05-15T14:53:07Z</time>
      </trkpt>
      <trkpt lat="43.67065" lon="7.03923">
        <ele>203.3</ele>
        <time>2026-05-15T14:53:08Z</time>
      </trkpt>
      <trkpt lat="43.67055" lon="7.03935">
        <ele>203.4</ele>
        <time>2026-05-15T14:53:09Z</time>
      </trkpt>
      <trkpt lat="43.67045" lon="7.03948">
        <ele>202.6</ele>
        <time>2026-05-15T14:53:10Z</time>
      </trkpt>
      <trkpt lat="43.67036" lon="7.03961">
        <ele>201.9</ele>
        <time>2026-05-15T14:53:11Z</time>
      </trkpt>
      <trkpt lat="43.67027" lon="7.03973">
        <ele>201.9</ele>
        <time>2026-05-15T14:53:12Z</time>
      </trkpt>
      <trkpt lat="43.67017" lon="7.03985">
        <ele>201.2</ele>
        <time>2026-05-15T14:53:13Z</time>
      </trkpt>
      <trkpt lat="43.67008" lon="7.03999">
        <ele>201.2</ele>
        <time>2026-05-15T14:53:14Z</time>
      </trkpt>
      <trkpt lat="43.66999" lon="7.04012">
        <ele>201.2</ele>
        <time>2026-05-15T14:53:15Z</time>
      </trkpt>
      <trkpt lat="43.6699" lon="7.04024">
        <ele>201</ele>
        <time>2026-05-15T14:53:16Z</time>
      </trkpt>
      <trkpt lat="43.66979" lon="7.04036">
        <ele>200.6</ele>
        <time>2026-05-15T14:53:17Z</time>
      </trkpt>
      <trkpt lat="43.6697" lon="7.04047">
        <ele>199.9</ele>
        <time>2026-05-15T14:53:18Z</time>
      </trkpt>
      <trkpt lat="43.6696" lon="7.04058">
        <ele>198.8</ele>
        <time>2026-05-15T14:53:19Z</time>
      </trkpt>
      <trkpt lat="43.6695" lon="7.04068">
        <ele>198.3</ele>
        <time>2026-05-15T14:53:20Z</time>
      </trkpt>
      <trkpt lat="43.6694" lon="7.04077">
        <ele>198.3</ele>
        <time>2026-05-15T14:53:21Z</time>
      </trkpt>
      <trkpt lat="43.6693" lon="7.04086">
        <ele>197.8</ele>
        <time>2026-05-15T14:53:22Z</time>
      </trkpt>
      <trkpt lat="43.6692" lon="7.04096">
        <ele>197</ele>
        <time>2026-05-15T14:53:23Z</time>
      </trkpt>
      <trkpt lat="43.66911" lon="7.04107">
        <ele>196.9</ele>
        <time>2026-05-15T14:53:24Z</time>
      </trkpt>
      <trkpt lat="43.66901" lon="7.04117">
        <ele>197.1</ele>
        <time>2026-05-15T14:53:25Z</time>
      </trkpt>
      <trkpt lat="43.66891" lon="7.04129">
        <ele>196.9</ele>
        <time>2026-05-15T14:53:26Z</time>
      </trkpt>
      <trkpt lat="43.66882" lon="7.04141">
        <ele>196.1</ele>
        <time>2026-05-15T14:53:27Z</time>
      </trkpt>
      <trkpt lat="43.66874" lon="7.04154">
        <ele>195.4</ele>
        <time>2026-05-15T14:53:28Z</time>
      </trkpt>
      <trkpt lat="43.66868" lon="7.04168">
        <ele>194.7</ele>
        <time>2026-05-15T14:53:29Z</time>
      </trkpt>
      <trkpt lat="43.66863" lon="7.04178">
        <ele>194.5</ele>
        <time>2026-05-15T14:53:30Z</time>
      </trkpt>
      <trkpt lat="43.66859" lon="7.04189">
        <ele>194.3</ele>
        <time>2026-05-15T14:53:31Z</time>
      </trkpt>
      <trkpt lat="43.66856" lon="7.04198">
        <ele>194</ele>
        <time>2026-05-15T14:53:32Z</time>
      </trkpt>
      <trkpt lat="43.66853" lon="7.04206">
        <ele>193.7</ele>
        <time>2026-05-15T14:53:33Z</time>
      </trkpt>
      <trkpt lat="43.6685" lon="7.04214">
        <ele>193.6</ele>
        <time>2026-05-15T14:53:34Z</time>
      </trkpt>
      <trkpt lat="43.66848" lon="7.0422">
        <ele>193.5</ele>
        <time>2026-05-15T14:53:35Z</time>
      </trkpt>
      <trkpt lat="43.66847" lon="7.04225">
        <ele>193.4</ele>
        <time>2026-05-15T14:53:36Z</time>
      </trkpt>
      <trkpt lat="43.66845" lon="7.0423">
        <ele>193.4</ele>
        <time>2026-05-15T14:53:37Z</time>
      </trkpt>
      <trkpt lat="43.66844" lon="7.04235">
        <ele>193.3</ele>
        <time>2026-05-15T14:53:38Z</time>
      </trkpt>
      <trkpt lat="43.66843" lon="7.0424">
        <ele>193.1</ele>
        <time>2026-05-15T14:53:39Z</time>
      </trkpt>
      <trkpt lat="43.66842" lon="7.04245">
        <ele>192.9</ele>
        <time>2026-05-15T14:53:40Z</time>
      </trkpt>
      <trkpt lat="43.6684" lon="7.04248">
        <ele>192.9</ele>
        <time>2026-05-15T14:53:41Z</time>
      </trkpt>
      <trkpt lat="43.66839" lon="7.04251">
        <ele>192.8</ele>
        <time>2026-05-15T14:53:42Z</time>
      </trkpt>
      <trkpt lat="43.66837" lon="7.04255">
        <ele>192.8</ele>
        <time>2026-05-15T14:53:43Z</time>
      </trkpt>
      <trkpt lat="43.66833" lon="7.04259">
        <ele>193</ele>
        <time>2026-05-15T14:53:44Z</time>
      </trkpt>
      <trkpt lat="43.66828" lon="7.04264">
        <ele>193.2</ele>
        <time>2026-05-15T14:53:45Z</time>
      </trkpt>
      <trkpt lat="43.66823" lon="7.04269">
        <ele>193</ele>
        <time>2026-05-15T14:53:46Z</time>
      </trkpt>
      <trkpt lat="43.66818" lon="7.04275">
        <ele>192.2</ele>
        <time>2026-05-15T14:53:47Z</time>
      </trkpt>
      <trkpt lat="43.66814" lon="7.04284">
        <ele>191.5</ele>
        <time>2026-05-15T14:53:48Z</time>
      </trkpt>
      <trkpt lat="43.66811" lon="7.04292">
        <ele>191.2</ele>
        <time>2026-05-15T14:53:49Z</time>
      </trkpt>
      <trkpt lat="43.66807" lon="7.043">
        <ele>191</ele>
        <time>2026-05-15T14:53:50Z</time>
      </trkpt>
      <trkpt lat="43.66803" lon="7.04307">
        <ele>191.2</ele>
        <time>2026-05-15T14:53:51Z</time>
      </trkpt>
      <trkpt lat="43.668" lon="7.04313">
        <ele>191.2</ele>
        <time>2026-05-15T14:53:52Z</time>
      </trkpt>
      <trkpt lat="43.66798" lon="7.04317">
        <ele>191.1</ele>
        <time>2026-05-15T14:53:53Z</time>
      </trkpt>
      <trkpt lat="43.66795" lon="7.0432">
        <ele>191</ele>
        <time>2026-05-15T14:53:54Z</time>
      </trkpt>
      <trkpt lat="43.66794" lon="7.04324">
        <ele>190.8</ele>
        <time>2026-05-15T14:53:55Z</time>
      </trkpt>
      <trkpt lat="43.66792" lon="7.04327">
        <ele>190.6</ele>
        <time>2026-05-15T14:53:56Z</time>
      </trkpt>
      <trkpt lat="43.66789" lon="7.04332">
        <ele>190.1</ele>
        <time>2026-05-15T14:53:57Z</time>
      </trkpt>
      <trkpt lat="43.66788" lon="7.04338">
        <ele>189.9</ele>
        <time>2026-05-15T14:53:58Z</time>
      </trkpt>
      <trkpt lat="43.66787" lon="7.04343">
        <ele>189.8</ele>
        <time>2026-05-15T14:53:59Z</time>
      </trkpt>
      <trkpt lat="43.66786" lon="7.04346">
        <ele>189.7</ele>
        <time>2026-05-15T14:54:00Z</time>
      </trkpt>
      <trkpt lat="43.66786" lon="7.04349">
        <ele>189.6</ele>
        <time>2026-05-15T14:54:01Z</time>
      </trkpt>
      <trkpt lat="43.66785" lon="7.04351">
        <ele>189.5</ele>
        <time>2026-05-15T14:54:02Z</time>
      </trkpt>
      <trkpt lat="43.66785" lon="7.04353">
        <ele>189.5</ele>
        <time>2026-05-15T14:54:03Z</time>
      </trkpt>
      <trkpt lat="43.66784" lon="7.04355">
        <ele>189.4</ele>
        <time>2026-05-15T14:54:04Z</time>
      </trkpt>
      <trkpt lat="43.66783" lon="7.04357">
        <ele>189.3</ele>
        <time>2026-05-15T14:54:05Z</time>
      </trkpt>
      <trkpt lat="43.66782" lon="7.04358">
        <ele>189.2</ele>
        <time>2026-05-15T14:54:06Z</time>
      </trkpt>
      <trkpt lat="43.66782" lon="7.04359">
        <ele>189.2</ele>
        <time>2026-05-15T14:54:07Z</time>
      </trkpt>
      <trkpt lat="43.66782" lon="7.04358">
        <ele>189.2</ele>
        <time>2026-05-15T14:54:08Z</time>
      </trkpt>
      <trkpt lat="43.66782" lon="7.04359">
        <ele>189.2</ele>
        <time>2026-05-15T14:54:09Z</time>
      </trkpt>
      <trkpt lat="43.66782" lon="7.04359">
        <ele>189.2</ele>
        <time>2026-05-15T14:54:10Z</time>
      </trkpt>
      <trkpt lat="43.66782" lon="7.04359">
        <ele>189.2</ele>
        <time>2026-05-15T14:54:11Z</time>
      </trkpt>
      <trkpt lat="43.66781" lon="7.04359">
        <ele>189.2</ele>
        <time>2026-05-15T14:54:12Z</time>
      </trkpt>
      <trkpt lat="43.66781" lon="7.04359">
        <ele>189.2</ele>
        <time>2026-05-15T14:54:13Z</time>
      </trkpt>
      <trkpt lat="43.66781" lon="7.04359">
        <ele>189.2</ele>
        <time>2026-05-15T14:54:14Z</time>
      </trkpt>
      <trkpt lat="43.6678" lon="7.04361">
        <ele>189.1</ele>
        <time>2026-05-15T14:54:15Z</time>
      </trkpt>
      <trkpt lat="43.66779" lon="7.04362">
        <ele>189</ele>
        <time>2026-05-15T14:54:16Z</time>
      </trkpt>
      <trkpt lat="43.66778" lon="7.04364">
        <ele>189</ele>
        <time>2026-05-15T14:54:17Z</time>
      </trkpt>
      <trkpt lat="43.66776" lon="7.04366">
        <ele>189</ele>
        <time>2026-05-15T14:54:18Z</time>
      </trkpt>
      <trkpt lat="43.66774" lon="7.04369">
        <ele>189.1</ele>
        <time>2026-05-15T14:54:19Z</time>
      </trkpt>
      <trkpt lat="43.66771" lon="7.04372">
        <ele>189.1</ele>
        <time>2026-05-15T14:54:20Z</time>
      </trkpt>
      <trkpt lat="43.66769" lon="7.04375">
        <ele>189</ele>
        <time>2026-05-15T14:54:21Z</time>
      </trkpt>
      <trkpt lat="43.66767" lon="7.04378">
        <ele>188.9</ele>
        <time>2026-05-15T14:54:22Z</time>
      </trkpt>
      <trkpt lat="43.66766" lon="7.04381">
        <ele>188.8</ele>
        <time>2026-05-15T14:54:23Z</time>
      </trkpt>
      <trkpt lat="43.66766" lon="7.04385">
        <ele>188.7</ele>
        <time>2026-05-15T14:54:24Z</time>
      </trkpt>
      <trkpt lat="43.66767" lon="7.04389">
        <ele>188.6</ele>
        <time>2026-05-15T14:54:25Z</time>
      </trkpt>
      <trkpt lat="43.66768" lon="7.04392">
        <ele>188.6</ele>
        <time>2026-05-15T14:54:26Z</time>
      </trkpt>
      <trkpt lat="43.6677" lon="7.04396">
        <ele>188.6</ele>
        <time>2026-05-15T14:54:27Z</time>
      </trkpt>
      <trkpt lat="43.66771" lon="7.044">
        <ele>188.7</ele>
        <time>2026-05-15T14:54:28Z</time>
      </trkpt>
      <trkpt lat="43.66773" lon="7.04403">
        <ele>188.7</ele>
        <time>2026-05-15T14:54:29Z</time>
      </trkpt>
      <trkpt lat="43.66775" lon="7.04406">
        <ele>188.8</ele>
        <time>2026-05-15T14:54:30Z</time>
      </trkpt>
      <trkpt lat="43.66776" lon="7.04409">
        <ele>188.9</ele>
        <time>2026-05-15T14:54:31Z</time>
      </trkpt>
      <trkpt lat="43.66778" lon="7.04412">
        <ele>189</ele>
        <time>2026-05-15T14:54:32Z</time>
      </trkpt>
      <trkpt lat="43.66779" lon="7.04414">
        <ele>189</ele>
        <time>2026-05-15T14:54:33Z</time>
      </trkpt>
      <trkpt lat="43.6678" lon="7.04417">
        <ele>189.1</ele>
        <time>2026-05-15T14:54:34Z</time>
      </trkpt>
      <trkpt lat="43.6678" lon="7.04419">
        <ele>189.1</ele>
        <time>2026-05-15T14:54:35Z</time>
      </trkpt>
      <trkpt lat="43.66781" lon="7.04422">
        <ele>189.1</ele>
        <time>2026-05-15T14:54:36Z</time>
      </trkpt>
      <trkpt lat="43.66781" lon="7.04424">
        <ele>189.1</ele>
        <time>2026-05-15T14:54:37Z</time>
      </trkpt>
      <trkpt lat="43.6678" lon="7.04427">
        <ele>189.1</ele>
        <time>2026-05-15T14:54:38Z</time>
      </trkpt>
      <trkpt lat="43.6678" lon="7.04429">
        <ele>189.1</ele>
        <time>2026-05-15T14:54:39Z</time>
      </trkpt>
      <trkpt lat="43.6678" lon="7.0443">
        <ele>189.1</ele>
        <time>2026-05-15T14:54:40Z</time>
      </trkpt>
      <trkpt lat="43.66779" lon="7.04432">
        <ele>189.1</ele>
        <time>2026-05-15T14:54:41Z</time>
      </trkpt>
      <trkpt lat="43.66779" lon="7.04431">
        <ele>189.1</ele>
        <time>2026-05-15T14:54:42Z</time>
      </trkpt>
      <trkpt lat="43.66779" lon="7.04431">
        <ele>189.1</ele>
        <time>2026-05-15T14:54:43Z</time>
      </trkpt>
      <trkpt lat="43.66779" lon="7.04431">
        <ele>189.1</ele>
        <time>2026-05-15T14:54:44Z</time>
      </trkpt>
      <trkpt lat="43.66779" lon="7.04431">
        <ele>189.1</ele>
        <time>2026-05-15T14:54:45Z</time>
      </trkpt>
      <trkpt lat="43.66779" lon="7.0443">
        <ele>189.1</ele>
        <time>2026-05-15T14:54:46Z</time>
      </trkpt>
      <trkpt lat="43.6678" lon="7.0443">
        <ele>189.1</ele>
        <time>2026-05-15T14:54:47Z</time>
      </trkpt>
      <trkpt lat="43.6678" lon="7.0443">
        <ele>189.1</ele>
        <time>2026-05-15T14:54:48Z</time>
      </trkpt>
      <trkpt lat="43.66779" lon="7.0443">
        <ele>189.1</ele>
        <time>2026-05-15T14:54:49Z</time>
      </trkpt>
      <trkpt lat="43.66779" lon="7.0443">
        <ele>189.1</ele>
        <time>2026-05-15T14:54:50Z</time>
      </trkpt>
      <trkpt lat="43.66779" lon="7.0443">
        <ele>189.1</ele>
        <time>2026-05-15T14:54:51Z</time>
      </trkpt>
      <trkpt lat="43.66779" lon="7.0443">
        <ele>189.1</ele>
        <time>2026-05-15T14:54:52Z</time>
      </trkpt>
      <trkpt lat="43.66779" lon="7.0443">
        <ele>189.1</ele>
        <time>2026-05-15T14:54:53Z</time>
      </trkpt>
      <trkpt lat="43.66779" lon="7.0443">
        <ele>189.1</ele>
        <time>2026-05-15T14:54:54Z</time>
      </trkpt>
      <trkpt lat="43.66779" lon="7.0443">
        <ele>189.1</ele>
        <time>2026-05-15T14:54:55Z</time>
      </trkpt>
      <trkpt lat="43.66779" lon="7.0443">
        <ele>189.1</ele>
        <time>2026-05-15T14:54:56Z</time>
      </trkpt>
      <trkpt lat="43.66779" lon="7.0443">
        <ele>189.1</ele>
        <time>2026-05-15T14:54:57Z</time>
      </trkpt>
      <trkpt lat="43.66779" lon="7.0443">
        <ele>189.1</ele>
        <time>2026-05-15T14:54:58Z</time>
      </trkpt>
      <trkpt lat="43.66779" lon="7.0443">
        <ele>189.1</ele>
        <time>2026-05-15T14:54:59Z</time>
      </trkpt>
      <trkpt lat="43.66779" lon="7.0443">
        <ele>189.1</ele>
        <time>2026-05-15T14:55:00Z</time>
      </trkpt>
      <trkpt lat="43.66779" lon="7.0443">
        <ele>189.1</ele>
        <time>2026-05-15T14:55:01Z</time>
      </trkpt>
      <trkpt lat="43.66779" lon="7.0443">
        <ele>189.1</ele>
        <time>2026-05-15T14:55:02Z</time>
      </trkpt>
      <trkpt lat="43.66779" lon="7.0443">
        <ele>189.1</ele>
        <time>2026-05-15T14:55:03Z</time>
      </trkpt>
      <trkpt lat="43.66779" lon="7.0443">
        <ele>189.1</ele>
        <time>2026-05-15T14:55:04Z</time>
      </trkpt>
      <trkpt lat="43.66779" lon="7.0443">
        <ele>189.1</ele>
        <time>2026-05-15T14:55:05Z</time>
      </trkpt>
      <trkpt lat="43.66779" lon="7.0443">
        <ele>189.1</ele>
        <time>2026-05-15T14:55:06Z</time>
      </trkpt>
      <trkpt lat="43.66779" lon="7.04431">
        <ele>189.1</ele>
        <time>2026-05-15T14:55:07Z</time>
      </trkpt>
      <trkpt lat="43.66779" lon="7.04432">
        <ele>189.1</ele>
        <time>2026-05-15T14:55:08Z</time>
      </trkpt>
      <trkpt lat="43.66779" lon="7.04432">
        <ele>189.1</ele>
        <time>2026-05-15T14:55:09Z</time>
      </trkpt>
      <trkpt lat="43.66779" lon="7.04433">
        <ele>189.1</ele>
        <time>2026-05-15T14:55:10Z</time>
      </trkpt>
      <trkpt lat="43.66779" lon="7.04433">
        <ele>189.1</ele>
        <time>2026-05-15T14:55:11Z</time>
      </trkpt>
      <trkpt lat="43.66779" lon="7.04433">
        <ele>189.1</ele>
        <time>2026-05-15T14:55:12Z</time>
      </trkpt>
      <trkpt lat="43.6678" lon="7.04433">
        <ele>189.1</ele>
        <time>2026-05-15T14:55:13Z</time>
      </trkpt>
      <trkpt lat="43.6678" lon="7.04434">
        <ele>189.1</ele>
        <time>2026-05-15T14:55:14Z</time>
      </trkpt>
      <trkpt lat="43.6678" lon="7.04434">
        <ele>189.1</ele>
        <time>2026-05-15T14:55:15Z</time>
      </trkpt>
      <trkpt lat="43.66779" lon="7.04435">
        <ele>189.1</ele>
        <time>2026-05-15T14:55:16Z</time>
      </trkpt>
      <trkpt lat="43.66779" lon="7.04436">
        <ele>189.1</ele>
        <time>2026-05-15T14:55:17Z</time>
      </trkpt>
      <trkpt lat="43.66779" lon="7.04437">
        <ele>189.1</ele>
        <time>2026-05-15T14:55:18Z</time>
      </trkpt>
      <trkpt lat="43.66779" lon="7.04438">
        <ele>189.1</ele>
        <time>2026-05-15T14:55:19Z</time>
      </trkpt>
      <trkpt lat="43.66779" lon="7.04441">
        <ele>189.1</ele>
        <time>2026-05-15T14:55:20Z</time>
      </trkpt>
      <trkpt lat="43.66779" lon="7.04444">
        <ele>189.1</ele>
        <time>2026-05-15T14:55:21Z</time>
      </trkpt>
      <trkpt lat="43.66779" lon="7.04447">
        <ele>189</ele>
        <time>2026-05-15T14:55:22Z</time>
      </trkpt>
      <trkpt lat="43.66778" lon="7.0445">
        <ele>188.8</ele>
        <time>2026-05-15T14:55:23Z</time>
      </trkpt>
      <trkpt lat="43.66778" lon="7.04453">
        <ele>188.7</ele>
        <time>2026-05-15T14:55:24Z</time>
      </trkpt>
      <trkpt lat="43.66779" lon="7.04457">
        <ele>188.6</ele>
        <time>2026-05-15T14:55:25Z</time>
      </trkpt>
      <trkpt lat="43.66779" lon="7.0446">
        <ele>188.5</ele>
        <time>2026-05-15T14:55:26Z</time>
      </trkpt>
      <trkpt lat="43.6678" lon="7.04462">
        <ele>188.5</ele>
        <time>2026-05-15T14:55:27Z</time>
      </trkpt>
      <trkpt lat="43.6678" lon="7.04462">
        <ele>188.5</ele>
        <time>2026-05-15T14:55:28Z</time>
      </trkpt>
      <trkpt lat="43.6678" lon="7.04462">
        <ele>188.5</ele>
        <time>2026-05-15T14:55:29Z</time>
      </trkpt>
      <trkpt lat="43.6678" lon="7.04465">
        <ele>188.4</ele>
        <time>2026-05-15T14:55:30Z</time>
      </trkpt>
      <trkpt lat="43.66781" lon="7.0447">
        <ele>188.3</ele>
        <time>2026-05-15T14:55:31Z</time>
      </trkpt>
      <trkpt lat="43.66779" lon="7.0448">
        <ele>188.1</ele>
        <time>2026-05-15T14:55:32Z</time>
      </trkpt>
      <trkpt lat="43.66777" lon="7.04488">
        <ele>188</ele>
        <time>2026-05-15T14:55:33Z</time>
      </trkpt>
      <trkpt lat="43.66775" lon="7.04496">
        <ele>188.1</ele>
        <time>2026-05-15T14:55:34Z</time>
      </trkpt>
      <trkpt lat="43.66773" lon="7.04504">
        <ele>188.1</ele>
        <time>2026-05-15T14:55:35Z</time>
      </trkpt>
      <trkpt lat="43.66771" lon="7.04513">
        <ele>188</ele>
        <time>2026-05-15T14:55:36Z</time>
      </trkpt>
      <trkpt lat="43.66768" lon="7.04524">
        <ele>187.7</ele>
        <time>2026-05-15T14:55:37Z</time>
      </trkpt>
      <trkpt lat="43.66765" lon="7.04535">
        <ele>187.5</ele>
        <time>2026-05-15T14:55:38Z</time>
      </trkpt>
      <trkpt lat="43.66762" lon="7.04547">
        <ele>187.5</ele>
        <time>2026-05-15T14:55:39Z</time>
      </trkpt>
      <trkpt lat="43.6676" lon="7.04558">
        <ele>187.6</ele>
        <time>2026-05-15T14:55:40Z</time>
      </trkpt>
      <trkpt lat="43.66757" lon="7.04571">
        <ele>187.7</ele>
        <time>2026-05-15T14:55:41Z</time>
      </trkpt>
      <trkpt lat="43.66754" lon="7.04582">
        <ele>187.9</ele>
        <time>2026-05-15T14:55:42Z</time>
      </trkpt>
      <trkpt lat="43.66751" lon="7.04595">
        <ele>188</ele>
        <time>2026-05-15T14:55:43Z</time>
      </trkpt>
      <trkpt lat="43.66747" lon="7.04608">
        <ele>188</ele>
        <time>2026-05-15T14:55:44Z</time>
      </trkpt>
      <trkpt lat="43.66744" lon="7.0462">
        <ele>187.9</ele>
        <time>2026-05-15T14:55:45Z</time>
      </trkpt>
      <trkpt lat="43.66741" lon="7.04632">
        <ele>187.8</ele>
        <time>2026-05-15T14:55:46Z</time>
      </trkpt>
      <trkpt lat="43.66737" lon="7.04645">
        <ele>187.4</ele>
        <time>2026-05-15T14:55:47Z</time>
      </trkpt>
      <trkpt lat="43.66733" lon="7.04658">
        <ele>187.1</ele>
        <time>2026-05-15T14:55:48Z</time>
      </trkpt>
      <trkpt lat="43.6673" lon="7.04671">
        <ele>187</ele>
        <time>2026-05-15T14:55:49Z</time>
      </trkpt>
      <trkpt lat="43.66727" lon="7.04683">
        <ele>187</ele>
        <time>2026-05-15T14:55:50Z</time>
      </trkpt>
      <trkpt lat="43.66725" lon="7.04693">
        <ele>187</ele>
        <time>2026-05-15T14:55:51Z</time>
      </trkpt>
      <trkpt lat="43.66724" lon="7.04701">
        <ele>187</ele>
        <time>2026-05-15T14:55:52Z</time>
      </trkpt>
      <trkpt lat="43.66722" lon="7.04708">
        <ele>187</ele>
        <time>2026-05-15T14:55:53Z</time>
      </trkpt>
      <trkpt lat="43.6672" lon="7.04714">
        <ele>186.9</ele>
        <time>2026-05-15T14:55:54Z</time>
      </trkpt>
      <trkpt lat="43.66717" lon="7.04719">
        <ele>186.8</ele>
        <time>2026-05-15T14:55:55Z</time>
      </trkpt>
      <trkpt lat="43.66716" lon="7.04724">
        <ele>186.8</ele>
        <time>2026-05-15T14:55:56Z</time>
      </trkpt>
      <trkpt lat="43.66716" lon="7.0473">
        <ele>187</ele>
        <time>2026-05-15T14:55:57Z</time>
      </trkpt>
      <trkpt lat="43.6672" lon="7.04736">
        <ele>187.4</ele>
        <time>2026-05-15T14:55:58Z</time>
      </trkpt>
      <trkpt lat="43.66724" lon="7.04741">
        <ele>187.7</ele>
        <time>2026-05-15T14:55:59Z</time>
      </trkpt>
      <trkpt lat="43.66729" lon="7.04749">
        <ele>188.2</ele>
        <time>2026-05-15T14:56:00Z</time>
      </trkpt>
      <trkpt lat="43.66733" lon="7.04758">
        <ele>188.7</ele>
        <time>2026-05-15T14:56:01Z</time>
      </trkpt>
      <trkpt lat="43.66736" lon="7.04768">
        <ele>189.1</ele>
        <time>2026-05-15T14:56:02Z</time>
      </trkpt>
      <trkpt lat="43.66739" lon="7.04777">
        <ele>189.6</ele>
        <time>2026-05-15T14:56:03Z</time>
      </trkpt>
      <trkpt lat="43.66741" lon="7.04787">
        <ele>190</ele>
        <time>2026-05-15T14:56:04Z</time>
      </trkpt>
      <trkpt lat="43.66742" lon="7.04796">
        <ele>190.4</ele>
        <time>2026-05-15T14:56:05Z</time>
      </trkpt>
      <trkpt lat="43.6674" lon="7.04804">
        <ele>190.6</ele>
        <time>2026-05-15T14:56:06Z</time>
      </trkpt>
      <trkpt lat="43.66737" lon="7.04811">
        <ele>190.5</ele>
        <time>2026-05-15T14:56:07Z</time>
      </trkpt>
      <trkpt lat="43.66735" lon="7.04819">
        <ele>190.5</ele>
        <time>2026-05-15T14:56:08Z</time>
      </trkpt>
      <trkpt lat="43.66737" lon="7.04829">
        <ele>190.5</ele>
        <time>2026-05-15T14:56:09Z</time>
      </trkpt>
      <trkpt lat="43.66739" lon="7.0484">
        <ele>190.5</ele>
        <time>2026-05-15T14:56:10Z</time>
      </trkpt>
      <trkpt lat="43.66743" lon="7.04853">
        <ele>190.6</ele>
        <time>2026-05-15T14:56:11Z</time>
      </trkpt>
      <trkpt lat="43.66746" lon="7.04866">
        <ele>190.6</ele>
        <time>2026-05-15T14:56:12Z</time>
      </trkpt>
      <trkpt lat="43.6675" lon="7.04879">
        <ele>190.4</ele>
        <time>2026-05-15T14:56:13Z</time>
      </trkpt>
      <trkpt lat="43.66754" lon="7.04893">
        <ele>190.1</ele>
        <time>2026-05-15T14:56:14Z</time>
      </trkpt>
      <trkpt lat="43.66758" lon="7.04907">
        <ele>190.3</ele>
        <time>2026-05-15T14:56:15Z</time>
      </trkpt>
      <trkpt lat="43.66761" lon="7.0492">
        <ele>190.4</ele>
        <time>2026-05-15T14:56:16Z</time>
      </trkpt>
      <trkpt lat="43.66764" lon="7.04932">
        <ele>190.8</ele>
        <time>2026-05-15T14:56:17Z</time>
      </trkpt>
      <trkpt lat="43.66764" lon="7.04943">
        <ele>191</ele>
        <time>2026-05-15T14:56:18Z</time>
      </trkpt>
      <trkpt lat="43.66762" lon="7.04953">
        <ele>191.3</ele>
        <time>2026-05-15T14:56:19Z</time>
      </trkpt>
      <trkpt lat="43.66756" lon="7.04959">
        <ele>190.8</ele>
        <time>2026-05-15T14:56:20Z</time>
      </trkpt>
      <trkpt lat="43.66751" lon="7.04964">
        <ele>190.1</ele>
        <time>2026-05-15T14:56:21Z</time>
      </trkpt>
      <trkpt lat="43.66748" lon="7.04972">
        <ele>189.9</ele>
        <time>2026-05-15T14:56:22Z</time>
      </trkpt>
      <trkpt lat="43.66747" lon="7.04979">
        <ele>190</ele>
        <time>2026-05-15T14:56:23Z</time>
      </trkpt>
      <trkpt lat="43.66748" lon="7.04986">
        <ele>190.4</ele>
        <time>2026-05-15T14:56:24Z</time>
      </trkpt>
      <trkpt lat="43.66752" lon="7.0499">
        <ele>191</ele>
        <time>2026-05-15T14:56:25Z</time>
      </trkpt>
      <trkpt lat="43.66757" lon="7.04991">
        <ele>191.9</ele>
        <time>2026-05-15T14:56:26Z</time>
      </trkpt>
      <trkpt lat="43.66762" lon="7.04989">
        <ele>192.8</ele>
        <time>2026-05-15T14:56:27Z</time>
      </trkpt>
      <trkpt lat="43.66769" lon="7.04987">
        <ele>194</ele>
        <time>2026-05-15T14:56:28Z</time>
      </trkpt>
      <trkpt lat="43.66776" lon="7.04984">
        <ele>195.1</ele>
        <time>2026-05-15T14:56:29Z</time>
      </trkpt>
      <trkpt lat="43.66782" lon="7.04981">
        <ele>195.7</ele>
        <time>2026-05-15T14:56:30Z</time>
      </trkpt>
      <trkpt lat="43.66787" lon="7.04979">
        <ele>196.2</ele>
        <time>2026-05-15T14:56:31Z</time>
      </trkpt>
      <trkpt lat="43.66792" lon="7.04977">
        <ele>196.6</ele>
        <time>2026-05-15T14:56:32Z</time>
      </trkpt>
      <trkpt lat="43.66798" lon="7.04975">
        <ele>197.2</ele>
        <time>2026-05-15T14:56:33Z</time>
      </trkpt>
      <trkpt lat="43.66804" lon="7.04973">
        <ele>197.8</ele>
        <time>2026-05-15T14:56:34Z</time>
      </trkpt>
      <trkpt lat="43.66812" lon="7.04971">
        <ele>198.3</ele>
        <time>2026-05-15T14:56:35Z</time>
      </trkpt>
      <trkpt lat="43.66819" lon="7.04969">
        <ele>198.6</ele>
        <time>2026-05-15T14:56:36Z</time>
      </trkpt>
      <trkpt lat="43.66825" lon="7.04968">
        <ele>198.9</ele>
        <time>2026-05-15T14:56:37Z</time>
      </trkpt>
      <trkpt lat="43.66832" lon="7.04966">
        <ele>199.2</ele>
        <time>2026-05-15T14:56:38Z</time>
      </trkpt>
      <trkpt lat="43.66838" lon="7.04965">
        <ele>199.4</ele>
        <time>2026-05-15T14:56:39Z</time>
      </trkpt>
      <trkpt lat="43.66845" lon="7.04962">
        <ele>199.5</ele>
        <time>2026-05-15T14:56:40Z</time>
      </trkpt>
      <trkpt lat="43.66851" lon="7.0496">
        <ele>199.6</ele>
        <time>2026-05-15T14:56:41Z</time>
      </trkpt>
      <trkpt lat="43.66857" lon="7.04957">
        <ele>199.7</ele>
        <time>2026-05-15T14:56:42Z</time>
      </trkpt>
      <trkpt lat="43.66863" lon="7.04955">
        <ele>199.8</ele>
        <time>2026-05-15T14:56:43Z</time>
      </trkpt>
      <trkpt lat="43.66869" lon="7.04952">
        <ele>199.8</ele>
        <time>2026-05-15T14:56:44Z</time>
      </trkpt>
      <trkpt lat="43.66876" lon="7.04949">
        <ele>199.9</ele>
        <time>2026-05-15T14:56:45Z</time>
      </trkpt>
      <trkpt lat="43.66883" lon="7.04947">
        <ele>200</ele>
        <time>2026-05-15T14:56:46Z</time>
      </trkpt>
      <trkpt lat="43.66891" lon="7.04945">
        <ele>200</ele>
        <time>2026-05-15T14:56:47Z</time>
      </trkpt>
      <trkpt lat="43.66898" lon="7.04945">
        <ele>199.7</ele>
        <time>2026-05-15T14:56:48Z</time>
      </trkpt>
      <trkpt lat="43.66906" lon="7.04945">
        <ele>199.4</ele>
        <time>2026-05-15T14:56:49Z</time>
      </trkpt>
      <trkpt lat="43.66914" lon="7.04945">
        <ele>199.2</ele>
        <time>2026-05-15T14:56:50Z</time>
      </trkpt>
      <trkpt lat="43.66922" lon="7.04945">
        <ele>198.7</ele>
        <time>2026-05-15T14:56:51Z</time>
      </trkpt>
      <trkpt lat="43.66929" lon="7.04946">
        <ele>198.3</ele>
        <time>2026-05-15T14:56:52Z</time>
      </trkpt>
      <trkpt lat="43.66935" lon="7.04946">
        <ele>197.8</ele>
        <time>2026-05-15T14:56:53Z</time>
      </trkpt>
      <trkpt lat="43.6694" lon="7.04946">
        <ele>197.5</ele>
        <time>2026-05-15T14:56:54Z</time>
      </trkpt>
      <trkpt lat="43.66944" lon="7.04946">
        <ele>197.2</ele>
        <time>2026-05-15T14:56:55Z</time>
      </trkpt>
      <trkpt lat="43.66948" lon="7.04946">
        <ele>197.2</ele>
        <time>2026-05-15T14:56:56Z</time>
      </trkpt>
      <trkpt lat="43.66952" lon="7.04945">
        <ele>197</ele>
        <time>2026-05-15T14:56:57Z</time>
      </trkpt>
      <trkpt lat="43.66956" lon="7.04945">
        <ele>197</ele>
        <time>2026-05-15T14:56:58Z</time>
      </trkpt>
      <trkpt lat="43.66958" lon="7.04944">
        <ele>197</ele>
        <time>2026-05-15T14:56:59Z</time>
      </trkpt>
      <trkpt lat="43.66961" lon="7.04944">
        <ele>197</ele>
        <time>2026-05-15T14:57:00Z</time>
      </trkpt>
      <trkpt lat="43.66964" lon="7.04944">
        <ele>197</ele>
        <time>2026-05-15T14:57:01Z</time>
      </trkpt>
      <trkpt lat="43.66967" lon="7.04944">
        <ele>197</ele>
        <time>2026-05-15T14:57:02Z</time>
      </trkpt>
      <trkpt lat="43.66969" lon="7.04944">
        <ele>197</ele>
        <time>2026-05-15T14:57:03Z</time>
      </trkpt>
      <trkpt lat="43.66971" lon="7.04943">
        <ele>196.9</ele>
        <time>2026-05-15T14:57:04Z</time>
      </trkpt>
      <trkpt lat="43.66974" lon="7.04943">
        <ele>197</ele>
        <time>2026-05-15T14:57:05Z</time>
      </trkpt>
      <trkpt lat="43.66975" lon="7.04942">
        <ele>197</ele>
        <time>2026-05-15T14:57:06Z</time>
      </trkpt>
      <trkpt lat="43.66977" lon="7.04942">
        <ele>197.1</ele>
        <time>2026-05-15T14:57:07Z</time>
      </trkpt>
      <trkpt lat="43.66978" lon="7.04942">
        <ele>197.1</ele>
        <time>2026-05-15T14:57:08Z</time>
      </trkpt>
      <trkpt lat="43.66979" lon="7.04942">
        <ele>197.2</ele>
        <time>2026-05-15T14:57:09Z</time>
      </trkpt>
      <trkpt lat="43.6698" lon="7.04942">
        <ele>197.2</ele>
        <time>2026-05-15T14:57:10Z</time>
      </trkpt>
      <trkpt lat="43.66982" lon="7.04942">
        <ele>197.3</ele>
        <time>2026-05-15T14:57:11Z</time>
      </trkpt>
      <trkpt lat="43.66984" lon="7.04942">
        <ele>197.3</ele>
        <time>2026-05-15T14:57:12Z</time>
      </trkpt>
      <trkpt lat="43.66985" lon="7.04941">
        <ele>197.3</ele>
        <time>2026-05-15T14:57:13Z</time>
      </trkpt>
      <trkpt lat="43.66987" lon="7.04941">
        <ele>197.4</ele>
        <time>2026-05-15T14:57:14Z</time>
      </trkpt>
      <trkpt lat="43.66988" lon="7.04941">
        <ele>197.4</ele>
        <time>2026-05-15T14:57:15Z</time>
      </trkpt>
      <trkpt lat="43.66989" lon="7.04941">
        <ele>197.5</ele>
        <time>2026-05-15T14:57:16Z</time>
      </trkpt>
      <trkpt lat="43.66991" lon="7.04941">
        <ele>197.6</ele>
        <time>2026-05-15T14:57:17Z</time>
      </trkpt>
      <trkpt lat="43.66993" lon="7.04941">
        <ele>197.6</ele>
        <time>2026-05-15T14:57:18Z</time>
      </trkpt>
      <trkpt lat="43.66995" lon="7.04941">
        <ele>197.7</ele>
        <time>2026-05-15T14:57:19Z</time>
      </trkpt>
      <trkpt lat="43.66996" lon="7.04941">
        <ele>197.7</ele>
        <time>2026-05-15T14:57:20Z</time>
      </trkpt>
      <trkpt lat="43.66997" lon="7.04941">
        <ele>197.8</ele>
        <time>2026-05-15T14:57:21Z</time>
      </trkpt>
      <trkpt lat="43.66998" lon="7.04941">
        <ele>197.8</ele>
        <time>2026-05-15T14:57:22Z</time>
      </trkpt>
      <trkpt lat="43.66999" lon="7.04941">
        <ele>197.8</ele>
        <time>2026-05-15T14:57:23Z</time>
      </trkpt>
      <trkpt lat="43.66999" lon="7.04941">
        <ele>197.8</ele>
        <time>2026-05-15T14:57:24Z</time>
      </trkpt>
      <trkpt lat="43.66999" lon="7.04941">
        <ele>197.8</ele>
        <time>2026-05-15T14:57:25Z</time>
      </trkpt>
      <trkpt lat="43.66999" lon="7.04941">
        <ele>197.8</ele>
        <time>2026-05-15T14:57:26Z</time>
      </trkpt>
      <trkpt lat="43.66999" lon="7.04941">
        <ele>197.8</ele>
        <time>2026-05-15T14:57:27Z</time>
      </trkpt>
      <trkpt lat="43.66999" lon="7.04941">
        <ele>197.8</ele>
        <time>2026-05-15T14:57:28Z</time>
      </trkpt>
      <trkpt lat="43.67001" lon="7.04942">
        <ele>198</ele>
        <time>2026-05-15T14:57:29Z</time>
      </trkpt>
      <trkpt lat="43.67001" lon="7.04942">
        <ele>198</ele>
        <time>2026-05-15T14:57:30Z</time>
      </trkpt>
      <trkpt lat="43.67001" lon="7.04942">
        <ele>198</ele>
        <time>2026-05-15T14:57:31Z</time>
      </trkpt>
      <trkpt lat="43.67002" lon="7.04942">
        <ele>198</ele>
        <time>2026-05-15T14:57:32Z</time>
      </trkpt>
      <trkpt lat="43.67004" lon="7.04942">
        <ele>198.1</ele>
        <time>2026-05-15T14:57:33Z</time>
      </trkpt>
      <trkpt lat="43.67007" lon="7.04942">
        <ele>198.2</ele>
        <time>2026-05-15T14:57:34Z</time>
      </trkpt>
      <trkpt lat="43.67011" lon="7.04931">
        <ele>198.1</ele>
        <time>2026-05-15T14:57:35Z</time>
      </trkpt>
      <trkpt lat="43.67013" lon="7.04918">
        <ele>198</ele>
        <time>2026-05-15T14:57:36Z</time>
      </trkpt>
      <trkpt lat="43.67015" lon="7.04906">
        <ele>197.9</ele>
        <time>2026-05-15T14:57:37Z</time>
      </trkpt>
      <trkpt lat="43.67019" lon="7.04891">
        <ele>197.7</ele>
        <time>2026-05-15T14:57:38Z</time>
      </trkpt>
      <trkpt lat="43.67023" lon="7.04876">
        <ele>196.9</ele>
        <time>2026-05-15T14:57:39Z</time>
      </trkpt>
      <trkpt lat="43.67027" lon="7.04861">
        <ele>196</ele>
        <time>2026-05-15T14:57:40Z</time>
      </trkpt>
      <trkpt lat="43.67033" lon="7.04845">
        <ele>195.9</ele>
        <time>2026-05-15T14:57:41Z</time>
      </trkpt>
      <trkpt lat="43.6704" lon="7.04828">
        <ele>195.8</ele>
        <time>2026-05-15T14:57:42Z</time>
      </trkpt>
      <trkpt lat="43.67047" lon="7.04811">
        <ele>195.8</ele>
        <time>2026-05-15T14:57:43Z</time>
      </trkpt>
      <trkpt lat="43.67055" lon="7.04794">
        <ele>195.6</ele>
        <time>2026-05-15T14:57:44Z</time>
      </trkpt>
      <trkpt lat="43.67062" lon="7.04776">
        <ele>195.6</ele>
        <time>2026-05-15T14:57:45Z</time>
      </trkpt>
      <trkpt lat="43.67068" lon="7.04757">
        <ele>195.3</ele>
        <time>2026-05-15T14:57:46Z</time>
      </trkpt>
      <trkpt lat="43.67074" lon="7.04739">
        <ele>195.1</ele>
        <time>2026-05-15T14:57:47Z</time>
      </trkpt>
      <trkpt lat="43.67079" lon="7.0472">
        <ele>194.8</ele>
        <time>2026-05-15T14:57:48Z</time>
      </trkpt>
      <trkpt lat="43.67083" lon="7.04702">
        <ele>194.3</ele>
        <time>2026-05-15T14:57:49Z</time>
      </trkpt>
      <trkpt lat="43.67087" lon="7.04683">
        <ele>193.8</ele>
        <time>2026-05-15T14:57:50Z</time>
      </trkpt>
      <trkpt lat="43.67092" lon="7.04663">
        <ele>193.2</ele>
        <time>2026-05-15T14:57:51Z</time>
      </trkpt>
      <trkpt lat="43.67098" lon="7.04644">
        <ele>192.7</ele>
        <time>2026-05-15T14:57:52Z</time>
      </trkpt>
      <trkpt lat="43.67104" lon="7.04624">
        <ele>192.3</ele>
        <time>2026-05-15T14:57:53Z</time>
      </trkpt>
      <trkpt lat="43.6711" lon="7.04605">
        <ele>192</ele>
        <time>2026-05-15T14:57:54Z</time>
      </trkpt>
      <trkpt lat="43.67115" lon="7.04587">
        <ele>192.1</ele>
        <time>2026-05-15T14:57:55Z</time>
      </trkpt>
      <trkpt lat="43.67121" lon="7.04573">
        <ele>193</ele>
        <time>2026-05-15T14:57:56Z</time>
      </trkpt>
      <trkpt lat="43.67127" lon="7.04563">
        <ele>193.6</ele>
        <time>2026-05-15T14:57:57Z</time>
      </trkpt>
      <trkpt lat="43.67135" lon="7.04553">
        <ele>194.2</ele>
        <time>2026-05-15T14:57:58Z</time>
      </trkpt>
      <trkpt lat="43.67143" lon="7.04543">
        <ele>194.9</ele>
        <time>2026-05-15T14:57:59Z</time>
      </trkpt>
      <trkpt lat="43.67152" lon="7.0453">
        <ele>195.4</ele>
        <time>2026-05-15T14:58:00Z</time>
      </trkpt>
      <trkpt lat="43.6716" lon="7.04515">
        <ele>195.7</ele>
        <time>2026-05-15T14:58:01Z</time>
      </trkpt>
      <trkpt lat="43.67169" lon="7.045">
        <ele>196</ele>
        <time>2026-05-15T14:58:02Z</time>
      </trkpt>
      <trkpt lat="43.67178" lon="7.04483">
        <ele>197</ele>
        <time>2026-05-15T14:58:03Z</time>
      </trkpt>
      <trkpt lat="43.67187" lon="7.04466">
        <ele>197.6</ele>
        <time>2026-05-15T14:58:04Z</time>
      </trkpt>
      <trkpt lat="43.67195" lon="7.0445">
        <ele>197.8</ele>
        <time>2026-05-15T14:58:05Z</time>
      </trkpt>
      <trkpt lat="43.67203" lon="7.04435">
        <ele>198.1</ele>
        <time>2026-05-15T14:58:06Z</time>
      </trkpt>
      <trkpt lat="43.6721" lon="7.0442">
        <ele>198.6</ele>
        <time>2026-05-15T14:58:07Z</time>
      </trkpt>
      <trkpt lat="43.67218" lon="7.04407">
        <ele>199</ele>
        <time>2026-05-15T14:58:08Z</time>
      </trkpt>
      <trkpt lat="43.67226" lon="7.04393">
        <ele>199.4</ele>
        <time>2026-05-15T14:58:09Z</time>
      </trkpt>
      <trkpt lat="43.67234" lon="7.04379">
        <ele>200.2</ele>
        <time>2026-05-15T14:58:10Z</time>
      </trkpt>
      <trkpt lat="43.67243" lon="7.04365">
        <ele>201.1</ele>
        <time>2026-05-15T14:58:11Z</time>
      </trkpt>
      <trkpt lat="43.67252" lon="7.0435">
        <ele>202.2</ele>
        <time>2026-05-15T14:58:12Z</time>
      </trkpt>
      <trkpt lat="43.67261" lon="7.04336">
        <ele>203.7</ele>
        <time>2026-05-15T14:58:13Z</time>
      </trkpt>
      <trkpt lat="43.6727" lon="7.04322">
        <ele>205</ele>
        <time>2026-05-15T14:58:14Z</time>
      </trkpt>
      <trkpt lat="43.67279" lon="7.04309">
        <ele>205.7</ele>
        <time>2026-05-15T14:58:15Z</time>
      </trkpt>
      <trkpt lat="43.67286" lon="7.04297">
        <ele>206.8</ele>
        <time>2026-05-15T14:58:16Z</time>
      </trkpt>
      <trkpt lat="43.67293" lon="7.04286">
        <ele>207.9</ele>
        <time>2026-05-15T14:58:17Z</time>
      </trkpt>
      <trkpt lat="43.67297" lon="7.04276">
        <ele>208.7</ele>
        <time>2026-05-15T14:58:18Z</time>
      </trkpt>
      <trkpt lat="43.67299" lon="7.04266">
        <ele>209.2</ele>
        <time>2026-05-15T14:58:19Z</time>
      </trkpt>
      <trkpt lat="43.67299" lon="7.04255">
        <ele>209.9</ele>
        <time>2026-05-15T14:58:20Z</time>
      </trkpt>
      <trkpt lat="43.67298" lon="7.04244">
        <ele>210.6</ele>
        <time>2026-05-15T14:58:21Z</time>
      </trkpt>
      <trkpt lat="43.67297" lon="7.04232">
        <ele>211.2</ele>
        <time>2026-05-15T14:58:22Z</time>
      </trkpt>
      <trkpt lat="43.67297" lon="7.04221">
        <ele>211.7</ele>
        <time>2026-05-15T14:58:23Z</time>
      </trkpt>
      <trkpt lat="43.67296" lon="7.04209">
        <ele>211.3</ele>
        <time>2026-05-15T14:58:24Z</time>
      </trkpt>
      <trkpt lat="43.67295" lon="7.04198">
        <ele>211</ele>
        <time>2026-05-15T14:58:25Z</time>
      </trkpt>
      <trkpt lat="43.67294" lon="7.04185">
        <ele>210.8</ele>
        <time>2026-05-15T14:58:26Z</time>
      </trkpt>
      <trkpt lat="43.67293" lon="7.04172">
        <ele>210.7</ele>
        <time>2026-05-15T14:58:27Z</time>
      </trkpt>
      <trkpt lat="43.67293" lon="7.04157">
        <ele>210</ele>
        <time>2026-05-15T14:58:28Z</time>
      </trkpt>
      <trkpt lat="43.67294" lon="7.04143">
        <ele>209.1</ele>
        <time>2026-05-15T14:58:29Z</time>
      </trkpt>
      <trkpt lat="43.67297" lon="7.04128">
        <ele>208.6</ele>
        <time>2026-05-15T14:58:30Z</time>
      </trkpt>
      <trkpt lat="43.673" lon="7.04113">
        <ele>208.3</ele>
        <time>2026-05-15T14:58:31Z</time>
      </trkpt>
      <trkpt lat="43.67302" lon="7.04098">
        <ele>206.8</ele>
        <time>2026-05-15T14:58:32Z</time>
      </trkpt>
      <trkpt lat="43.67304" lon="7.04083">
        <ele>204.9</ele>
        <time>2026-05-15T14:58:33Z</time>
      </trkpt>
      <trkpt lat="43.67306" lon="7.04068">
        <ele>204.5</ele>
        <time>2026-05-15T14:58:34Z</time>
      </trkpt>
      <trkpt lat="43.67309" lon="7.04052">
        <ele>204</ele>
        <time>2026-05-15T14:58:35Z</time>
      </trkpt>
      <trkpt lat="43.67312" lon="7.04037">
        <ele>203.4</ele>
        <time>2026-05-15T14:58:36Z</time>
      </trkpt>
      <trkpt lat="43.67315" lon="7.04022">
        <ele>203.1</ele>
        <time>2026-05-15T14:58:37Z</time>
      </trkpt>
      <trkpt lat="43.67317" lon="7.04006">
        <ele>203.3</ele>
        <time>2026-05-15T14:58:38Z</time>
      </trkpt>
      <trkpt lat="43.6732" lon="7.0399">
        <ele>203.5</ele>
        <time>2026-05-15T14:58:39Z</time>
      </trkpt>
      <trkpt lat="43.67323" lon="7.03973">
        <ele>203.6</ele>
        <time>2026-05-15T14:58:40Z</time>
      </trkpt>
      <trkpt lat="43.67326" lon="7.03955">
        <ele>203.7</ele>
        <time>2026-05-15T14:58:41Z</time>
      </trkpt>
      <trkpt lat="43.67329" lon="7.03939">
        <ele>203.8</ele>
        <time>2026-05-15T14:58:42Z</time>
      </trkpt>
      <trkpt lat="43.67331" lon="7.03924">
        <ele>203.9</ele>
        <time>2026-05-15T14:58:43Z</time>
      </trkpt>
      <trkpt lat="43.67334" lon="7.0391">
        <ele>204</ele>
        <time>2026-05-15T14:58:44Z</time>
      </trkpt>
      <trkpt lat="43.67336" lon="7.039">
        <ele>204.2</ele>
        <time>2026-05-15T14:58:45Z</time>
      </trkpt>
      <trkpt lat="43.67338" lon="7.03893">
        <ele>204.3</ele>
        <time>2026-05-15T14:58:46Z</time>
      </trkpt>
      <trkpt lat="43.67339" lon="7.03889">
        <ele>204.4</ele>
        <time>2026-05-15T14:58:47Z</time>
      </trkpt>
      <trkpt lat="43.67339" lon="7.03886">
        <ele>204.6</ele>
        <time>2026-05-15T14:58:48Z</time>
      </trkpt>
      <trkpt lat="43.67339" lon="7.03885">
        <ele>204.7</ele>
        <time>2026-05-15T14:58:49Z</time>
      </trkpt>
      <trkpt lat="43.67339" lon="7.03886">
        <ele>204.6</ele>
        <time>2026-05-15T14:58:50Z</time>
      </trkpt>
      <trkpt lat="43.67339" lon="7.03886">
        <ele>204.6</ele>
        <time>2026-05-15T14:58:51Z</time>
      </trkpt>
      <trkpt lat="43.6734" lon="7.03886">
        <ele>204.7</ele>
        <time>2026-05-15T14:58:52Z</time>
      </trkpt>
      <trkpt lat="43.6734" lon="7.03886">
        <ele>204.7</ele>
        <time>2026-05-15T14:58:53Z</time>
      </trkpt>
      <trkpt lat="43.6734" lon="7.03886">
        <ele>204.7</ele>
        <time>2026-05-15T14:58:54Z</time>
      </trkpt>
      <trkpt lat="43.6734" lon="7.03886">
        <ele>204.7</ele>
        <time>2026-05-15T14:58:55Z</time>
      </trkpt>
      <trkpt lat="43.6734" lon="7.03886">
        <ele>204.7</ele>
        <time>2026-05-15T14:58:56Z</time>
      </trkpt>
      <trkpt lat="43.6734" lon="7.03885">
        <ele>204.7</ele>
        <time>2026-05-15T14:58:57Z</time>
      </trkpt>
      <trkpt lat="43.6734" lon="7.03883">
        <ele>204.9</ele>
        <time>2026-05-15T14:58:58Z</time>
      </trkpt>
      <trkpt lat="43.6734" lon="7.03879">
        <ele>205.1</ele>
        <time>2026-05-15T14:58:59Z</time>
      </trkpt>
      <trkpt lat="43.6734" lon="7.03876">
        <ele>205.3</ele>
        <time>2026-05-15T14:59:00Z</time>
      </trkpt>
      <trkpt lat="43.67341" lon="7.03873">
        <ele>205.5</ele>
        <time>2026-05-15T14:59:01Z</time>
      </trkpt>
      <trkpt lat="43.67341" lon="7.03871">
        <ele>205.7</ele>
        <time>2026-05-15T14:59:02Z</time>
      </trkpt>
      <trkpt lat="43.67341" lon="7.03871">
        <ele>205.7</ele>
        <time>2026-05-15T14:59:03Z</time>
      </trkpt>
      <trkpt lat="43.67341" lon="7.03872">
        <ele>205.6</ele>
        <time>2026-05-15T14:59:04Z</time>
      </trkpt>
      <trkpt lat="43.67341" lon="7.03871">
        <ele>205.7</ele>
        <time>2026-05-15T14:59:05Z</time>
      </trkpt>
      <trkpt lat="43.67341" lon="7.0387">
        <ele>205.7</ele>
        <time>2026-05-15T14:59:06Z</time>
      </trkpt>
      <trkpt lat="43.67341" lon="7.03868">
        <ele>205.8</ele>
        <time>2026-05-15T14:59:07Z</time>
      </trkpt>
      <trkpt lat="43.67342" lon="7.03865">
        <ele>206.1</ele>
        <time>2026-05-15T14:59:08Z</time>
      </trkpt>
      <trkpt lat="43.67345" lon="7.03859">
        <ele>206.5</ele>
        <time>2026-05-15T14:59:09Z</time>
      </trkpt>
      <trkpt lat="43.67352" lon="7.03853">
        <ele>206.8</ele>
        <time>2026-05-15T14:59:10Z</time>
      </trkpt>
      <trkpt lat="43.67361" lon="7.03848">
        <ele>207</ele>
        <time>2026-05-15T14:59:11Z</time>
      </trkpt>
      <trkpt lat="43.67368" lon="7.03842">
        <ele>207.3</ele>
        <time>2026-05-15T14:59:12Z</time>
      </trkpt>
      <trkpt lat="43.67376" lon="7.03837">
        <ele>207.6</ele>
        <time>2026-05-15T14:59:13Z</time>
      </trkpt>
      <trkpt lat="43.67384" lon="7.03831">
        <ele>207.8</ele>
        <time>2026-05-15T14:59:14Z</time>
      </trkpt>
      <trkpt lat="43.67395" lon="7.03823">
        <ele>208.1</ele>
        <time>2026-05-15T14:59:15Z</time>
      </trkpt>
      <trkpt lat="43.67406" lon="7.03815">
        <ele>208.4</ele>
        <time>2026-05-15T14:59:16Z</time>
      </trkpt>
      <trkpt lat="43.67418" lon="7.03807">
        <ele>209</ele>
        <time>2026-05-15T14:59:17Z</time>
      </trkpt>
      <trkpt lat="43.67429" lon="7.03798">
        <ele>209.7</ele>
        <time>2026-05-15T14:59:18Z</time>
      </trkpt>
      <trkpt lat="43.67441" lon="7.03788">
        <ele>210.5</ele>
        <time>2026-05-15T14:59:19Z</time>
      </trkpt>
      <trkpt lat="43.67453" lon="7.03775">
        <ele>211.8</ele>
        <time>2026-05-15T14:59:20Z</time>
      </trkpt>
      <trkpt lat="43.67464" lon="7.0376">
        <ele>213</ele>
        <time>2026-05-15T14:59:21Z</time>
      </trkpt>
      <trkpt lat="43.67475" lon="7.03745">
        <ele>213.3</ele>
        <time>2026-05-15T14:59:22Z</time>
      </trkpt>
      <trkpt lat="43.67486" lon="7.0373">
        <ele>214.1</ele>
        <time>2026-05-15T14:59:23Z</time>
      </trkpt>
      <trkpt lat="43.67498" lon="7.03716">
        <ele>214.5</ele>
        <time>2026-05-15T14:59:24Z</time>
      </trkpt>
      <trkpt lat="43.6751" lon="7.03702">
        <ele>215.3</ele>
        <time>2026-05-15T14:59:25Z</time>
      </trkpt>
      <trkpt lat="43.67523" lon="7.03688">
        <ele>215.4</ele>
        <time>2026-05-15T14:59:26Z</time>
      </trkpt>
      <trkpt lat="43.67535" lon="7.03673">
        <ele>216.3</ele>
        <time>2026-05-15T14:59:27Z</time>
      </trkpt>
      <trkpt lat="43.67547" lon="7.03658">
        <ele>217.8</ele>
        <time>2026-05-15T14:59:28Z</time>
      </trkpt>
      <trkpt lat="43.6756" lon="7.03644">
        <ele>219.4</ele>
        <time>2026-05-15T14:59:29Z</time>
      </trkpt>
      <trkpt lat="43.67571" lon="7.0363">
        <ele>221</ele>
        <time>2026-05-15T14:59:30Z</time>
      </trkpt>
      <trkpt lat="43.67582" lon="7.03617">
        <ele>221.9</ele>
        <time>2026-05-15T14:59:31Z</time>
      </trkpt>
      <trkpt lat="43.67594" lon="7.03604">
        <ele>222.8</ele>
        <time>2026-05-15T14:59:32Z</time>
      </trkpt>
      <trkpt lat="43.67607" lon="7.03592">
        <ele>223.3</ele>
        <time>2026-05-15T14:59:33Z</time>
      </trkpt>
      <trkpt lat="43.6762" lon="7.03582">
        <ele>223.6</ele>
        <time>2026-05-15T14:59:34Z</time>
      </trkpt>
      <trkpt lat="43.67633" lon="7.03573">
        <ele>224.2</ele>
        <time>2026-05-15T14:59:35Z</time>
      </trkpt>
      <trkpt lat="43.67646" lon="7.03565">
        <ele>224.3</ele>
        <time>2026-05-15T14:59:36Z</time>
      </trkpt>
      <trkpt lat="43.67661" lon="7.03558">
        <ele>224.1</ele>
        <time>2026-05-15T14:59:37Z</time>
      </trkpt>
      <trkpt lat="43.67676" lon="7.03553">
        <ele>223.5</ele>
        <time>2026-05-15T14:59:38Z</time>
      </trkpt>
      <trkpt lat="43.67691" lon="7.03547">
        <ele>222.8</ele>
        <time>2026-05-15T14:59:39Z</time>
      </trkpt>
      <trkpt lat="43.67707" lon="7.03543">
        <ele>222.3</ele>
        <time>2026-05-15T14:59:40Z</time>
      </trkpt>
      <trkpt lat="43.67721" lon="7.03538">
        <ele>222</ele>
        <time>2026-05-15T14:59:41Z</time>
      </trkpt>
      <trkpt lat="43.67733" lon="7.03534">
        <ele>221.9</ele>
        <time>2026-05-15T14:59:42Z</time>
      </trkpt>
      <trkpt lat="43.67741" lon="7.03531">
        <ele>221.9</ele>
        <time>2026-05-15T14:59:43Z</time>
      </trkpt>
      <trkpt lat="43.67749" lon="7.03528">
        <ele>222</ele>
        <time>2026-05-15T14:59:44Z</time>
      </trkpt>
      <trkpt lat="43.67758" lon="7.03525">
        <ele>222</ele>
        <time>2026-05-15T14:59:45Z</time>
      </trkpt>
      <trkpt lat="43.67767" lon="7.03522">
        <ele>222</ele>
        <time>2026-05-15T14:59:46Z</time>
      </trkpt>
      <trkpt lat="43.67778" lon="7.03519">
        <ele>222</ele>
        <time>2026-05-15T14:59:47Z</time>
      </trkpt>
      <trkpt lat="43.67789" lon="7.03516">
        <ele>222.2</ele>
        <time>2026-05-15T14:59:48Z</time>
      </trkpt>
      <trkpt lat="43.67802" lon="7.03513">
        <ele>222.5</ele>
        <time>2026-05-15T14:59:49Z</time>
      </trkpt>
      <trkpt lat="43.67815" lon="7.0351">
        <ele>222.8</ele>
        <time>2026-05-15T14:59:50Z</time>
      </trkpt>
      <trkpt lat="43.67829" lon="7.03507">
        <ele>223</ele>
        <time>2026-05-15T14:59:51Z</time>
      </trkpt>
      <trkpt lat="43.67842" lon="7.03504">
        <ele>223</ele>
        <time>2026-05-15T14:59:52Z</time>
      </trkpt>
      <trkpt lat="43.67856" lon="7.03501">
        <ele>223</ele>
        <time>2026-05-15T14:59:53Z</time>
      </trkpt>
      <trkpt lat="43.67869" lon="7.03498">
        <ele>222.8</ele>
        <time>2026-05-15T14:59:54Z</time>
      </trkpt>
      <trkpt lat="43.67882" lon="7.03495">
        <ele>222.4</ele>
        <time>2026-05-15T14:59:55Z</time>
      </trkpt>
      <trkpt lat="43.67894" lon="7.03492">
        <ele>222.3</ele>
        <time>2026-05-15T14:59:56Z</time>
      </trkpt>
      <trkpt lat="43.67906" lon="7.0349">
        <ele>222.4</ele>
        <time>2026-05-15T14:59:57Z</time>
      </trkpt>
      <trkpt lat="43.67917" lon="7.03489">
        <ele>222.4</ele>
        <time>2026-05-15T14:59:58Z</time>
      </trkpt>
      <trkpt lat="43.67927" lon="7.03489">
        <ele>222.4</ele>
        <time>2026-05-15T14:59:59Z</time>
      </trkpt>
      <trkpt lat="43.67935" lon="7.03489">
        <ele>222.4</ele>
        <time>2026-05-15T15:00:00Z</time>
      </trkpt>
      <trkpt lat="43.67942" lon="7.03489">
        <ele>222.4</ele>
        <time>2026-05-15T15:00:01Z</time>
      </trkpt>
      <trkpt lat="43.67946" lon="7.03488">
        <ele>222.5</ele>
        <time>2026-05-15T15:00:02Z</time>
      </trkpt>
      <trkpt lat="43.6795" lon="7.03488">
        <ele>222.6</ele>
        <time>2026-05-15T15:00:03Z</time>
      </trkpt>
      <trkpt lat="43.67953" lon="7.03487">
        <ele>222.8</ele>
        <time>2026-05-15T15:00:04Z</time>
      </trkpt>
      <trkpt lat="43.67955" lon="7.03486">
        <ele>222.9</ele>
        <time>2026-05-15T15:00:05Z</time>
      </trkpt>
      <trkpt lat="43.67956" lon="7.03486">
        <ele>222.9</ele>
        <time>2026-05-15T15:00:06Z</time>
      </trkpt>
      <trkpt lat="43.67957" lon="7.03485">
        <ele>223</ele>
        <time>2026-05-15T15:00:07Z</time>
      </trkpt>
      <trkpt lat="43.67957" lon="7.03485">
        <ele>223</ele>
        <time>2026-05-15T15:00:08Z</time>
      </trkpt>
      <trkpt lat="43.67957" lon="7.03485">
        <ele>223</ele>
        <time>2026-05-15T15:00:09Z</time>
      </trkpt>
      <trkpt lat="43.67957" lon="7.03485">
        <ele>223</ele>
        <time>2026-05-15T15:00:10Z</time>
      </trkpt>
      <trkpt lat="43.67957" lon="7.03485">
        <ele>223</ele>
        <time>2026-05-15T15:00:11Z</time>
      </trkpt>
      <trkpt lat="43.67957" lon="7.03485">
        <ele>223</ele>
        <time>2026-05-15T15:00:12Z</time>
      </trkpt>
      <trkpt lat="43.67957" lon="7.03485">
        <ele>223</ele>
        <time>2026-05-15T15:00:13Z</time>
      </trkpt>
      <trkpt lat="43.67957" lon="7.03485">
        <ele>223</ele>
        <time>2026-05-15T15:00:14Z</time>
      </trkpt>
      <trkpt lat="43.67957" lon="7.03485">
        <ele>223</ele>
        <time>2026-05-15T15:00:15Z</time>
      </trkpt>
      <trkpt lat="43.67957" lon="7.03485">
        <ele>223</ele>
        <time>2026-05-15T15:00:16Z</time>
      </trkpt>
      <trkpt lat="43.67957" lon="7.03485">
        <ele>223</ele>
        <time>2026-05-15T15:00:17Z</time>
      </trkpt>
      <trkpt lat="43.67957" lon="7.03485">
        <ele>223</ele>
        <time>2026-05-15T15:00:18Z</time>
      </trkpt>
      <trkpt lat="43.67957" lon="7.03485">
        <ele>223</ele>
        <time>2026-05-15T15:00:19Z</time>
      </trkpt>
      <trkpt lat="43.67957" lon="7.03485">
        <ele>223</ele>
        <time>2026-05-15T15:00:20Z</time>
      </trkpt>
      <trkpt lat="43.67957" lon="7.03485">
        <ele>223</ele>
        <time>2026-05-15T15:00:21Z</time>
      </trkpt>
      <trkpt lat="43.67957" lon="7.03485">
        <ele>223</ele>
        <time>2026-05-15T15:00:22Z</time>
      </trkpt>
      <trkpt lat="43.67957" lon="7.03485">
        <ele>223</ele>
        <time>2026-05-15T15:00:23Z</time>
      </trkpt>
      <trkpt lat="43.67957" lon="7.03485">
        <ele>223</ele>
        <time>2026-05-15T15:00:24Z</time>
      </trkpt>
      <trkpt lat="43.67957" lon="7.03485">
        <ele>223</ele>
        <time>2026-05-15T15:00:25Z</time>
      </trkpt>
      <trkpt lat="43.67957" lon="7.03485">
        <ele>223</ele>
        <time>2026-05-15T15:00:26Z</time>
      </trkpt>
      <trkpt lat="43.67957" lon="7.03485">
        <ele>223</ele>
        <time>2026-05-15T15:00:27Z</time>
      </trkpt>
      <trkpt lat="43.67957" lon="7.03485">
        <ele>223</ele>
        <time>2026-05-15T15:00:28Z</time>
      </trkpt>
      <trkpt lat="43.67957" lon="7.03485">
        <ele>223</ele>
        <time>2026-05-15T15:00:29Z</time>
      </trkpt>
      <trkpt lat="43.67957" lon="7.03485">
        <ele>223</ele>
        <time>2026-05-15T15:00:30Z</time>
      </trkpt>
      <trkpt lat="43.67957" lon="7.03485">
        <ele>223</ele>
        <time>2026-05-15T15:00:31Z</time>
      </trkpt>
      <trkpt lat="43.67958" lon="7.03485">
        <ele>223</ele>
        <time>2026-05-15T15:00:32Z</time>
      </trkpt>
      <trkpt lat="43.67962" lon="7.03483">
        <ele>223.2</ele>
        <time>2026-05-15T15:00:33Z</time>
      </trkpt>
      <trkpt lat="43.67967" lon="7.03481">
        <ele>223.5</ele>
        <time>2026-05-15T15:00:34Z</time>
      </trkpt>
      <trkpt lat="43.67974" lon="7.03479">
        <ele>223.8</ele>
        <time>2026-05-15T15:00:35Z</time>
      </trkpt>
      <trkpt lat="43.6798" lon="7.03476">
        <ele>223.9</ele>
        <time>2026-05-15T15:00:36Z</time>
      </trkpt>
      <trkpt lat="43.67985" lon="7.03475">
        <ele>223.9</ele>
        <time>2026-05-15T15:00:37Z</time>
      </trkpt>
      <trkpt lat="43.67989" lon="7.03475">
        <ele>223.9</ele>
        <time>2026-05-15T15:00:38Z</time>
      </trkpt>
      <trkpt lat="43.67993" lon="7.03473">
        <ele>224</ele>
        <time>2026-05-15T15:00:39Z</time>
      </trkpt>
      <trkpt lat="43.67997" lon="7.03473">
        <ele>224</ele>
        <time>2026-05-15T15:00:40Z</time>
      </trkpt>
      <trkpt lat="43.68" lon="7.03473">
        <ele>224</ele>
        <time>2026-05-15T15:00:41Z</time>
      </trkpt>
      <trkpt lat="43.68002" lon="7.03476">
        <ele>223.9</ele>
        <time>2026-05-15T15:00:42Z</time>
      </trkpt>
      <trkpt lat="43.68004" lon="7.0348">
        <ele>223.7</ele>
        <time>2026-05-15T15:00:43Z</time>
      </trkpt>
      <trkpt lat="43.68003" lon="7.03486">
        <ele>223.5</ele>
        <time>2026-05-15T15:00:44Z</time>
      </trkpt>
      <trkpt lat="43.68001" lon="7.03495">
        <ele>223.2</ele>
        <time>2026-05-15T15:00:45Z</time>
      </trkpt>
      <trkpt lat="43.67998" lon="7.03505">
        <ele>222.8</ele>
        <time>2026-05-15T15:00:46Z</time>
      </trkpt>
      <trkpt lat="43.67994" lon="7.03515">
        <ele>222.5</ele>
        <time>2026-05-15T15:00:47Z</time>
      </trkpt>
      <trkpt lat="43.67991" lon="7.03526">
        <ele>222.1</ele>
        <time>2026-05-15T15:00:48Z</time>
      </trkpt>
      <trkpt lat="43.67987" lon="7.03539">
        <ele>221.8</ele>
        <time>2026-05-15T15:00:49Z</time>
      </trkpt>
      <trkpt lat="43.67983" lon="7.0355">
        <ele>221.7</ele>
        <time>2026-05-15T15:00:50Z</time>
      </trkpt>
      <trkpt lat="43.67979" lon="7.03561">
        <ele>221.6</ele>
        <time>2026-05-15T15:00:51Z</time>
      </trkpt>
      <trkpt lat="43.67975" lon="7.03574">
        <ele>221.3</ele>
        <time>2026-05-15T15:00:52Z</time>
      </trkpt>
      <trkpt lat="43.67971" lon="7.03587">
        <ele>220.7</ele>
        <time>2026-05-15T15:00:53Z</time>
      </trkpt>
      <trkpt lat="43.67967" lon="7.03602">
        <ele>219.7</ele>
        <time>2026-05-15T15:00:54Z</time>
      </trkpt>
      <trkpt lat="43.67962" lon="7.03616">
        <ele>219.2</ele>
        <time>2026-05-15T15:00:55Z</time>
      </trkpt>
      <trkpt lat="43.67958" lon="7.03631">
        <ele>218.8</ele>
        <time>2026-05-15T15:00:56Z</time>
      </trkpt>
      <trkpt lat="43.67953" lon="7.03646">
        <ele>218.5</ele>
        <time>2026-05-15T15:00:57Z</time>
      </trkpt>
      <trkpt lat="43.6795" lon="7.0366">
        <ele>218.2</ele>
        <time>2026-05-15T15:00:58Z</time>
      </trkpt>
      <trkpt lat="43.67945" lon="7.03673">
        <ele>218</ele>
        <time>2026-05-15T15:00:59Z</time>
      </trkpt>
      <trkpt lat="43.67941" lon="7.03686">
        <ele>217.9</ele>
        <time>2026-05-15T15:01:00Z</time>
      </trkpt>
      <trkpt lat="43.67937" lon="7.03699">
        <ele>217.6</ele>
        <time>2026-05-15T15:01:01Z</time>
      </trkpt>
      <trkpt lat="43.67933" lon="7.03712">
        <ele>217.2</ele>
        <time>2026-05-15T15:01:02Z</time>
      </trkpt>
      <trkpt lat="43.67929" lon="7.03724">
        <ele>216.9</ele>
        <time>2026-05-15T15:01:03Z</time>
      </trkpt>
      <trkpt lat="43.67925" lon="7.03736">
        <ele>216.5</ele>
        <time>2026-05-15T15:01:04Z</time>
      </trkpt>
      <trkpt lat="43.67922" lon="7.03747">
        <ele>216.1</ele>
        <time>2026-05-15T15:01:05Z</time>
      </trkpt>
      <trkpt lat="43.67918" lon="7.03758">
        <ele>216</ele>
        <time>2026-05-15T15:01:06Z</time>
      </trkpt>
      <trkpt lat="43.67915" lon="7.03768">
        <ele>216</ele>
        <time>2026-05-15T15:01:07Z</time>
      </trkpt>
      <trkpt lat="43.67911" lon="7.03778">
        <ele>215.8</ele>
        <time>2026-05-15T15:01:08Z</time>
      </trkpt>
      <trkpt lat="43.67908" lon="7.03788">
        <ele>215.4</ele>
        <time>2026-05-15T15:01:09Z</time>
      </trkpt>
      <trkpt lat="43.67904" lon="7.03797">
        <ele>215.2</ele>
        <time>2026-05-15T15:01:10Z</time>
      </trkpt>
      <trkpt lat="43.67901" lon="7.03808">
        <ele>215</ele>
        <time>2026-05-15T15:01:11Z</time>
      </trkpt>
      <trkpt lat="43.67898" lon="7.03819">
        <ele>214.8</ele>
        <time>2026-05-15T15:01:12Z</time>
      </trkpt>
      <trkpt lat="43.67894" lon="7.03831">
        <ele>214.8</ele>
        <time>2026-05-15T15:01:13Z</time>
      </trkpt>
      <trkpt lat="43.6789" lon="7.03844">
        <ele>214.6</ele>
        <time>2026-05-15T15:01:14Z</time>
      </trkpt>
      <trkpt lat="43.67886" lon="7.03857">
        <ele>214.1</ele>
        <time>2026-05-15T15:01:15Z</time>
      </trkpt>
      <trkpt lat="43.67882" lon="7.0387">
        <ele>214</ele>
        <time>2026-05-15T15:01:16Z</time>
      </trkpt>
      <trkpt lat="43.67878" lon="7.03884">
        <ele>214</ele>
        <time>2026-05-15T15:01:17Z</time>
      </trkpt>
      <trkpt lat="43.67873" lon="7.03899">
        <ele>213.6</ele>
        <time>2026-05-15T15:01:18Z</time>
      </trkpt>
      <trkpt lat="43.67868" lon="7.03914">
        <ele>213.1</ele>
        <time>2026-05-15T15:01:19Z</time>
      </trkpt>
      <trkpt lat="43.67863" lon="7.03929">
        <ele>213</ele>
        <time>2026-05-15T15:01:20Z</time>
      </trkpt>
      <trkpt lat="43.67858" lon="7.03944">
        <ele>213</ele>
        <time>2026-05-15T15:01:21Z</time>
      </trkpt>
      <trkpt lat="43.67854" lon="7.03958">
        <ele>212.5</ele>
        <time>2026-05-15T15:01:22Z</time>
      </trkpt>
      <trkpt lat="43.67849" lon="7.03972">
        <ele>212</ele>
        <time>2026-05-15T15:01:23Z</time>
      </trkpt>
      <trkpt lat="43.67845" lon="7.03985">
        <ele>212</ele>
        <time>2026-05-15T15:01:24Z</time>
      </trkpt>
      <trkpt lat="43.67842" lon="7.03998">
        <ele>212</ele>
        <time>2026-05-15T15:01:25Z</time>
      </trkpt>
      <trkpt lat="43.67838" lon="7.04009">
        <ele>211.7</ele>
        <time>2026-05-15T15:01:26Z</time>
      </trkpt>
      <trkpt lat="43.67834" lon="7.0402">
        <ele>211.3</ele>
        <time>2026-05-15T15:01:27Z</time>
      </trkpt>
      <trkpt lat="43.6783" lon="7.0403">
        <ele>211</ele>
        <time>2026-05-15T15:01:28Z</time>
      </trkpt>
      <trkpt lat="43.67826" lon="7.04042">
        <ele>210.9</ele>
        <time>2026-05-15T15:01:29Z</time>
      </trkpt>
      <trkpt lat="43.67823" lon="7.04054">
        <ele>210.8</ele>
        <time>2026-05-15T15:01:30Z</time>
      </trkpt>
      <trkpt lat="43.6782" lon="7.04068">
        <ele>210.7</ele>
        <time>2026-05-15T15:01:31Z</time>
      </trkpt>
      <trkpt lat="43.67817" lon="7.04083">
        <ele>210.6</ele>
        <time>2026-05-15T15:01:32Z</time>
      </trkpt>
      <trkpt lat="43.67815" lon="7.04097">
        <ele>210.7</ele>
        <time>2026-05-15T15:01:33Z</time>
      </trkpt>
      <trkpt lat="43.67814" lon="7.0411">
        <ele>210.7</ele>
        <time>2026-05-15T15:01:34Z</time>
      </trkpt>
      <trkpt lat="43.67811" lon="7.04124">
        <ele>210.8</ele>
        <time>2026-05-15T15:01:35Z</time>
      </trkpt>
      <trkpt lat="43.6781" lon="7.04138">
        <ele>210.8</ele>
        <time>2026-05-15T15:01:36Z</time>
      </trkpt>
      <trkpt lat="43.67808" lon="7.04151">
        <ele>210.5</ele>
        <time>2026-05-15T15:01:37Z</time>
      </trkpt>
      <trkpt lat="43.67808" lon="7.04164">
        <ele>210</ele>
        <time>2026-05-15T15:01:38Z</time>
      </trkpt>
      <trkpt lat="43.67808" lon="7.04177">
        <ele>210.2</ele>
        <time>2026-05-15T15:01:39Z</time>
      </trkpt>
      <trkpt lat="43.67811" lon="7.04191">
        <ele>210.3</ele>
        <time>2026-05-15T15:01:40Z</time>
      </trkpt>
      <trkpt lat="43.67817" lon="7.04203">
        <ele>211</ele>
        <time>2026-05-15T15:01:41Z</time>
      </trkpt>
      <trkpt lat="43.67822" lon="7.04215">
        <ele>211.5</ele>
        <time>2026-05-15T15:01:42Z</time>
      </trkpt>
      <trkpt lat="43.67833" lon="7.04223">
        <ele>209.3</ele>
        <time>2026-05-15T15:01:43Z</time>
      </trkpt>
      <trkpt lat="43.67843" lon="7.04231">
        <ele>210.5</ele>
        <time>2026-05-15T15:01:44Z</time>
      </trkpt>
      <trkpt lat="43.67853" lon="7.04238">
        <ele>210.3</ele>
        <time>2026-05-15T15:01:45Z</time>
      </trkpt>
      <trkpt lat="43.67863" lon="7.04245">
        <ele>209.3</ele>
        <time>2026-05-15T15:01:46Z</time>
      </trkpt>
      <trkpt lat="43.67872" lon="7.04253">
        <ele>209.2</ele>
        <time>2026-05-15T15:01:47Z</time>
      </trkpt>
      <trkpt lat="43.6788" lon="7.04261">
        <ele>208.6</ele>
        <time>2026-05-15T15:01:48Z</time>
      </trkpt>
      <trkpt lat="43.67887" lon="7.04269">
        <ele>207.4</ele>
        <time>2026-05-15T15:01:49Z</time>
      </trkpt>
      <trkpt lat="43.67892" lon="7.04277">
        <ele>206.9</ele>
        <time>2026-05-15T15:01:50Z</time>
      </trkpt>
      <trkpt lat="43.67897" lon="7.04288">
        <ele>207</ele>
        <time>2026-05-15T15:01:51Z</time>
      </trkpt>
      <trkpt lat="43.67901" lon="7.043">
        <ele>207</ele>
        <time>2026-05-15T15:01:52Z</time>
      </trkpt>
      <trkpt lat="43.67903" lon="7.04315">
        <ele>206.8</ele>
        <time>2026-05-15T15:01:53Z</time>
      </trkpt>
      <trkpt lat="43.67902" lon="7.04329">
        <ele>206.6</ele>
        <time>2026-05-15T15:01:54Z</time>
      </trkpt>
      <trkpt lat="43.679" lon="7.04344">
        <ele>205.8</ele>
        <time>2026-05-15T15:01:55Z</time>
      </trkpt>
      <trkpt lat="43.67895" lon="7.04357">
        <ele>204.6</ele>
        <time>2026-05-15T15:01:56Z</time>
      </trkpt>
      <trkpt lat="43.67888" lon="7.04369">
        <ele>203.9</ele>
        <time>2026-05-15T15:01:57Z</time>
      </trkpt>
      <trkpt lat="43.67881" lon="7.04381">
        <ele>204.6</ele>
        <time>2026-05-15T15:01:58Z</time>
      </trkpt>
      <trkpt lat="43.67874" lon="7.04392">
        <ele>205</ele>
        <time>2026-05-15T15:01:59Z</time>
      </trkpt>
      <trkpt lat="43.67868" lon="7.04402">
        <ele>204.8</ele>
        <time>2026-05-15T15:02:00Z</time>
      </trkpt>
      <trkpt lat="43.67862" lon="7.04412">
        <ele>203.7</ele>
        <time>2026-05-15T15:02:01Z</time>
      </trkpt>
      <trkpt lat="43.67857" lon="7.04423">
        <ele>203.6</ele>
        <time>2026-05-15T15:02:02Z</time>
      </trkpt>
      <trkpt lat="43.67852" lon="7.04434">
        <ele>203.6</ele>
        <time>2026-05-15T15:02:03Z</time>
      </trkpt>
      <trkpt lat="43.67847" lon="7.04444">
        <ele>203.1</ele>
        <time>2026-05-15T15:02:04Z</time>
      </trkpt>
      <trkpt lat="43.67843" lon="7.04454">
        <ele>203</ele>
        <time>2026-05-15T15:02:05Z</time>
      </trkpt>
      <trkpt lat="43.67839" lon="7.04464">
        <ele>202.6</ele>
        <time>2026-05-15T15:02:06Z</time>
      </trkpt>
      <trkpt lat="43.67836" lon="7.04475">
        <ele>202</ele>
        <time>2026-05-15T15:02:07Z</time>
      </trkpt>
      <trkpt lat="43.67834" lon="7.04488">
        <ele>201.5</ele>
        <time>2026-05-15T15:02:08Z</time>
      </trkpt>
      <trkpt lat="43.67831" lon="7.04502">
        <ele>201.1</ele>
        <time>2026-05-15T15:02:09Z</time>
      </trkpt>
      <trkpt lat="43.67829" lon="7.04516">
        <ele>201.2</ele>
        <time>2026-05-15T15:02:10Z</time>
      </trkpt>
      <trkpt lat="43.67829" lon="7.04531">
        <ele>201.1</ele>
        <time>2026-05-15T15:02:11Z</time>
      </trkpt>
      <trkpt lat="43.67829" lon="7.04547">
        <ele>200.6</ele>
        <time>2026-05-15T15:02:12Z</time>
      </trkpt>
      <trkpt lat="43.6783" lon="7.04562">
        <ele>200.5</ele>
        <time>2026-05-15T15:02:13Z</time>
      </trkpt>
      <trkpt lat="43.67832" lon="7.04576">
        <ele>200.9</ele>
        <time>2026-05-15T15:02:14Z</time>
      </trkpt>
      <trkpt lat="43.67837" lon="7.04589">
        <ele>201.2</ele>
        <time>2026-05-15T15:02:15Z</time>
      </trkpt>
      <trkpt lat="43.67842" lon="7.046">
        <ele>201.3</ele>
        <time>2026-05-15T15:02:16Z</time>
      </trkpt>
      <trkpt lat="43.67848" lon="7.04612">
        <ele>200.9</ele>
        <time>2026-05-15T15:02:17Z</time>
      </trkpt>
      <trkpt lat="43.67853" lon="7.04623">
        <ele>200.3</ele>
        <time>2026-05-15T15:02:18Z</time>
      </trkpt>
      <trkpt lat="43.67856" lon="7.04638">
        <ele>200.3</ele>
        <time>2026-05-15T15:02:19Z</time>
      </trkpt>
      <trkpt lat="43.67856" lon="7.04654">
        <ele>199.7</ele>
        <time>2026-05-15T15:02:20Z</time>
      </trkpt>
      <trkpt lat="43.67855" lon="7.04671">
        <ele>199.1</ele>
        <time>2026-05-15T15:02:21Z</time>
      </trkpt>
      <trkpt lat="43.67854" lon="7.04686">
        <ele>198.6</ele>
        <time>2026-05-15T15:02:22Z</time>
      </trkpt>
      <trkpt lat="43.67852" lon="7.04701">
        <ele>198.3</ele>
        <time>2026-05-15T15:02:23Z</time>
      </trkpt>
      <trkpt lat="43.67852" lon="7.04716">
        <ele>198.3</ele>
        <time>2026-05-15T15:02:24Z</time>
      </trkpt>
      <trkpt lat="43.67854" lon="7.0473">
        <ele>198.5</ele>
        <time>2026-05-15T15:02:25Z</time>
      </trkpt>
      <trkpt lat="43.67859" lon="7.04743">
        <ele>198.2</ele>
        <time>2026-05-15T15:02:26Z</time>
      </trkpt>
      <trkpt lat="43.67867" lon="7.04756">
        <ele>198.3</ele>
        <time>2026-05-15T15:02:27Z</time>
      </trkpt>
      <trkpt lat="43.67876" lon="7.04768">
        <ele>198.1</ele>
        <time>2026-05-15T15:02:28Z</time>
      </trkpt>
      <trkpt lat="43.67884" lon="7.04779">
        <ele>197.2</ele>
        <time>2026-05-15T15:02:29Z</time>
      </trkpt>
      <trkpt lat="43.67893" lon="7.0479">
        <ele>197.5</ele>
        <time>2026-05-15T15:02:30Z</time>
      </trkpt>
      <trkpt lat="43.67902" lon="7.048">
        <ele>197.4</ele>
        <time>2026-05-15T15:02:31Z</time>
      </trkpt>
      <trkpt lat="43.6791" lon="7.04809">
        <ele>196.8</ele>
        <time>2026-05-15T15:02:32Z</time>
      </trkpt>
      <trkpt lat="43.6792" lon="7.04817">
        <ele>196.9</ele>
        <time>2026-05-15T15:02:33Z</time>
      </trkpt>
      <trkpt lat="43.67929" lon="7.04824">
        <ele>197.1</ele>
        <time>2026-05-15T15:02:34Z</time>
      </trkpt>
      <trkpt lat="43.67939" lon="7.04831">
        <ele>196.6</ele>
        <time>2026-05-15T15:02:35Z</time>
      </trkpt>
      <trkpt lat="43.67949" lon="7.04839">
        <ele>196.3</ele>
        <time>2026-05-15T15:02:36Z</time>
      </trkpt>
      <trkpt lat="43.67958" lon="7.04846">
        <ele>195.9</ele>
        <time>2026-05-15T15:02:37Z</time>
      </trkpt>
      <trkpt lat="43.67966" lon="7.04854">
        <ele>195.5</ele>
        <time>2026-05-15T15:02:38Z</time>
      </trkpt>
      <trkpt lat="43.67973" lon="7.04865">
        <ele>195.1</ele>
        <time>2026-05-15T15:02:39Z</time>
      </trkpt>
      <trkpt lat="43.67978" lon="7.0488">
        <ele>195.1</ele>
        <time>2026-05-15T15:02:40Z</time>
      </trkpt>
      <trkpt lat="43.67981" lon="7.04896">
        <ele>195</ele>
        <time>2026-05-15T15:02:41Z</time>
      </trkpt>
      <trkpt lat="43.67984" lon="7.04912">
        <ele>194.4</ele>
        <time>2026-05-15T15:02:42Z</time>
      </trkpt>
      <trkpt lat="43.67985" lon="7.04928">
        <ele>194.2</ele>
        <time>2026-05-15T15:02:43Z</time>
      </trkpt>
      <trkpt lat="43.67988" lon="7.04944">
        <ele>193.7</ele>
        <time>2026-05-15T15:02:44Z</time>
      </trkpt>
      <trkpt lat="43.6799" lon="7.04961">
        <ele>193.4</ele>
        <time>2026-05-15T15:02:45Z</time>
      </trkpt>
      <trkpt lat="43.67992" lon="7.04978">
        <ele>193.2</ele>
        <time>2026-05-15T15:02:46Z</time>
      </trkpt>
      <trkpt lat="43.67996" lon="7.04995">
        <ele>192.7</ele>
        <time>2026-05-15T15:02:47Z</time>
      </trkpt>
      <trkpt lat="43.67998" lon="7.05011">
        <ele>192.4</ele>
        <time>2026-05-15T15:02:48Z</time>
      </trkpt>
      <trkpt lat="43.68" lon="7.05026">
        <ele>192</ele>
        <time>2026-05-15T15:02:49Z</time>
      </trkpt>
      <trkpt lat="43.68002" lon="7.05041">
        <ele>191.5</ele>
        <time>2026-05-15T15:02:50Z</time>
      </trkpt>
      <trkpt lat="43.68004" lon="7.05057">
        <ele>190.9</ele>
        <time>2026-05-15T15:02:51Z</time>
      </trkpt>
      <trkpt lat="43.68008" lon="7.05071">
        <ele>191.5</ele>
        <time>2026-05-15T15:02:52Z</time>
      </trkpt>
      <trkpt lat="43.68012" lon="7.05086">
        <ele>191.7</ele>
        <time>2026-05-15T15:02:53Z</time>
      </trkpt>
      <trkpt lat="43.68017" lon="7.05099">
        <ele>191.5</ele>
        <time>2026-05-15T15:02:54Z</time>
      </trkpt>
      <trkpt lat="43.68024" lon="7.05113">
        <ele>191.3</ele>
        <time>2026-05-15T15:02:55Z</time>
      </trkpt>
      <trkpt lat="43.68032" lon="7.05125">
        <ele>191.2</ele>
        <time>2026-05-15T15:02:56Z</time>
      </trkpt>
      <trkpt lat="43.6804" lon="7.05136">
        <ele>191</ele>
        <time>2026-05-15T15:02:57Z</time>
      </trkpt>
      <trkpt lat="43.6805" lon="7.05144">
        <ele>191.3</ele>
        <time>2026-05-15T15:02:58Z</time>
      </trkpt>
      <trkpt lat="43.68061" lon="7.05151">
        <ele>192</ele>
        <time>2026-05-15T15:02:59Z</time>
      </trkpt>
      <trkpt lat="43.68073" lon="7.05158">
        <ele>192.6</ele>
        <time>2026-05-15T15:03:00Z</time>
      </trkpt>
      <trkpt lat="43.68085" lon="7.05165">
        <ele>192.7</ele>
        <time>2026-05-15T15:03:01Z</time>
      </trkpt>
      <trkpt lat="43.68096" lon="7.05172">
        <ele>193</ele>
        <time>2026-05-15T15:03:02Z</time>
      </trkpt>
      <trkpt lat="43.68107" lon="7.0518">
        <ele>193.3</ele>
        <time>2026-05-15T15:03:03Z</time>
      </trkpt>
      <trkpt lat="43.68117" lon="7.05188">
        <ele>193.4</ele>
        <time>2026-05-15T15:03:04Z</time>
      </trkpt>
      <trkpt lat="43.68126" lon="7.05198">
        <ele>193.4</ele>
        <time>2026-05-15T15:03:05Z</time>
      </trkpt>
      <trkpt lat="43.68134" lon="7.05209">
        <ele>193.6</ele>
        <time>2026-05-15T15:03:06Z</time>
      </trkpt>
      <trkpt lat="43.68142" lon="7.05221">
        <ele>193.4</ele>
        <time>2026-05-15T15:03:07Z</time>
      </trkpt>
      <trkpt lat="43.6815" lon="7.05232">
        <ele>194.3</ele>
        <time>2026-05-15T15:03:08Z</time>
      </trkpt>
      <trkpt lat="43.68158" lon="7.05242">
        <ele>194.3</ele>
        <time>2026-05-15T15:03:09Z</time>
      </trkpt>
      <trkpt lat="43.68166" lon="7.05252">
        <ele>193.6</ele>
        <time>2026-05-15T15:03:10Z</time>
      </trkpt>
      <trkpt lat="43.68175" lon="7.0526">
        <ele>193.6</ele>
        <time>2026-05-15T15:03:11Z</time>
      </trkpt>
      <trkpt lat="43.68183" lon="7.0527">
        <ele>193</ele>
        <time>2026-05-15T15:03:12Z</time>
      </trkpt>
      <trkpt lat="43.6819" lon="7.05281">
        <ele>192</ele>
        <time>2026-05-15T15:03:13Z</time>
      </trkpt>
      <trkpt lat="43.68197" lon="7.05294">
        <ele>192.1</ele>
        <time>2026-05-15T15:03:14Z</time>
      </trkpt>
      <trkpt lat="43.68204" lon="7.05307">
        <ele>192.5</ele>
        <time>2026-05-15T15:03:15Z</time>
      </trkpt>
      <trkpt lat="43.68211" lon="7.05319">
        <ele>192.7</ele>
        <time>2026-05-15T15:03:16Z</time>
      </trkpt>
      <trkpt lat="43.68219" lon="7.0533">
        <ele>191.1</ele>
        <time>2026-05-15T15:03:17Z</time>
      </trkpt>
      <trkpt lat="43.68226" lon="7.05341">
        <ele>190.9</ele>
        <time>2026-05-15T15:03:18Z</time>
      </trkpt>
      <trkpt lat="43.68232" lon="7.05354">
        <ele>191.4</ele>
        <time>2026-05-15T15:03:19Z</time>
      </trkpt>
      <trkpt lat="43.68238" lon="7.05367">
        <ele>190.7</ele>
        <time>2026-05-15T15:03:20Z</time>
      </trkpt>
      <trkpt lat="43.68243" lon="7.05379">
        <ele>189.5</ele>
        <time>2026-05-15T15:03:21Z</time>
      </trkpt>
      <trkpt lat="43.68246" lon="7.05393">
        <ele>188.6</ele>
        <time>2026-05-15T15:03:22Z</time>
      </trkpt>
      <trkpt lat="43.68247" lon="7.05407">
        <ele>188.8</ele>
        <time>2026-05-15T15:03:23Z</time>
      </trkpt>
      <trkpt lat="43.68247" lon="7.05423">
        <ele>189.4</ele>
        <time>2026-05-15T15:03:24Z</time>
      </trkpt>
      <trkpt lat="43.68248" lon="7.05438">
        <ele>189.6</ele>
        <time>2026-05-15T15:03:25Z</time>
      </trkpt>
      <trkpt lat="43.68249" lon="7.05452">
        <ele>189.4</ele>
        <time>2026-05-15T15:03:26Z</time>
      </trkpt>
      <trkpt lat="43.6825" lon="7.05468">
        <ele>189</ele>
        <time>2026-05-15T15:03:27Z</time>
      </trkpt>
      <trkpt lat="43.68253" lon="7.05483">
        <ele>189</ele>
        <time>2026-05-15T15:03:28Z</time>
      </trkpt>
      <trkpt lat="43.68257" lon="7.05498">
        <ele>188.7</ele>
        <time>2026-05-15T15:03:29Z</time>
      </trkpt>
      <trkpt lat="43.6826" lon="7.05514">
        <ele>188.7</ele>
        <time>2026-05-15T15:03:30Z</time>
      </trkpt>
      <trkpt lat="43.68263" lon="7.0553">
        <ele>188.4</ele>
        <time>2026-05-15T15:03:31Z</time>
      </trkpt>
      <trkpt lat="43.68267" lon="7.05547">
        <ele>188.3</ele>
        <time>2026-05-15T15:03:32Z</time>
      </trkpt>
      <trkpt lat="43.68271" lon="7.05563">
        <ele>188</ele>
        <time>2026-05-15T15:03:33Z</time>
      </trkpt>
      <trkpt lat="43.68274" lon="7.05579">
        <ele>188.2</ele>
        <time>2026-05-15T15:03:34Z</time>
      </trkpt>
      <trkpt lat="43.6828" lon="7.05594">
        <ele>188</ele>
        <time>2026-05-15T15:03:35Z</time>
      </trkpt>
      <trkpt lat="43.68287" lon="7.05606">
        <ele>187.5</ele>
        <time>2026-05-15T15:03:36Z</time>
      </trkpt>
      <trkpt lat="43.68296" lon="7.05617">
        <ele>186.2</ele>
        <time>2026-05-15T15:03:37Z</time>
      </trkpt>
      <trkpt lat="43.68305" lon="7.05626">
        <ele>184.9</ele>
        <time>2026-05-15T15:03:38Z</time>
      </trkpt>
      <trkpt lat="43.68315" lon="7.05636">
        <ele>183.6</ele>
        <time>2026-05-15T15:03:39Z</time>
      </trkpt>
      <trkpt lat="43.68323" lon="7.05644">
        <ele>182.4</ele>
        <time>2026-05-15T15:03:40Z</time>
      </trkpt>
      <trkpt lat="43.68332" lon="7.05651">
        <ele>180.7</ele>
        <time>2026-05-15T15:03:41Z</time>
      </trkpt>
      <trkpt lat="43.68339" lon="7.05657">
        <ele>179.8</ele>
        <time>2026-05-15T15:03:42Z</time>
      </trkpt>
      <trkpt lat="43.68346" lon="7.05663">
        <ele>178.9</ele>
        <time>2026-05-15T15:03:43Z</time>
      </trkpt>
      <trkpt lat="43.68352" lon="7.0567">
        <ele>178</ele>
        <time>2026-05-15T15:03:44Z</time>
      </trkpt>
      <trkpt lat="43.68357" lon="7.05681">
        <ele>177.4</ele>
        <time>2026-05-15T15:03:45Z</time>
      </trkpt>
      <trkpt lat="43.6836" lon="7.05692">
        <ele>177.3</ele>
        <time>2026-05-15T15:03:46Z</time>
      </trkpt>
      <trkpt lat="43.6836" lon="7.05704">
        <ele>177.1</ele>
        <time>2026-05-15T15:03:47Z</time>
      </trkpt>
      <trkpt lat="43.68358" lon="7.05717">
        <ele>177.4</ele>
        <time>2026-05-15T15:03:48Z</time>
      </trkpt>
      <trkpt lat="43.68355" lon="7.05731">
        <ele>177.4</ele>
        <time>2026-05-15T15:03:49Z</time>
      </trkpt>
      <trkpt lat="43.68351" lon="7.05745">
        <ele>177.2</ele>
        <time>2026-05-15T15:03:50Z</time>
      </trkpt>
      <trkpt lat="43.68347" lon="7.05758">
        <ele>176.6</ele>
        <time>2026-05-15T15:03:51Z</time>
      </trkpt>
      <trkpt lat="43.68342" lon="7.05771">
        <ele>175.8</ele>
        <time>2026-05-15T15:03:52Z</time>
      </trkpt>
      <trkpt lat="43.68336" lon="7.05783">
        <ele>175.3</ele>
        <time>2026-05-15T15:03:53Z</time>
      </trkpt>
      <trkpt lat="43.6833" lon="7.05793">
        <ele>175.3</ele>
        <time>2026-05-15T15:03:54Z</time>
      </trkpt>
      <trkpt lat="43.68323" lon="7.05802">
        <ele>175.7</ele>
        <time>2026-05-15T15:03:55Z</time>
      </trkpt>
      <trkpt lat="43.68318" lon="7.05813">
        <ele>176</ele>
        <time>2026-05-15T15:03:56Z</time>
      </trkpt>
      <trkpt lat="43.68316" lon="7.05825">
        <ele>175.9</ele>
        <time>2026-05-15T15:03:57Z</time>
      </trkpt>
      <trkpt lat="43.68317" lon="7.05837">
        <ele>175.5</ele>
        <time>2026-05-15T15:03:58Z</time>
      </trkpt>
      <trkpt lat="43.68323" lon="7.05849">
        <ele>175.2</ele>
        <time>2026-05-15T15:03:59Z</time>
      </trkpt>
      <trkpt lat="43.68329" lon="7.05861">
        <ele>174.4</ele>
        <time>2026-05-15T15:04:00Z</time>
      </trkpt>
      <trkpt lat="43.68336" lon="7.05873">
        <ele>174.1</ele>
        <time>2026-05-15T15:04:01Z</time>
      </trkpt>
      <trkpt lat="43.68343" lon="7.05886">
        <ele>173.1</ele>
        <time>2026-05-15T15:04:02Z</time>
      </trkpt>
      <trkpt lat="43.68351" lon="7.05898">
        <ele>171.4</ele>
        <time>2026-05-15T15:04:03Z</time>
      </trkpt>
      <trkpt lat="43.68359" lon="7.0591">
        <ele>169.2</ele>
        <time>2026-05-15T15:04:04Z</time>
      </trkpt>
      <trkpt lat="43.68365" lon="7.05923">
        <ele>169</ele>
        <time>2026-05-15T15:04:05Z</time>
      </trkpt>
      <trkpt lat="43.68372" lon="7.05937">
        <ele>169</ele>
        <time>2026-05-15T15:04:06Z</time>
      </trkpt>
      <trkpt lat="43.68378" lon="7.05951">
        <ele>169.6</ele>
        <time>2026-05-15T15:04:07Z</time>
      </trkpt>
      <trkpt lat="43.68386" lon="7.05963">
        <ele>168.8</ele>
        <time>2026-05-15T15:04:08Z</time>
      </trkpt>
      <trkpt lat="43.68395" lon="7.05973">
        <ele>167.2</ele>
        <time>2026-05-15T15:04:09Z</time>
      </trkpt>
      <trkpt lat="43.68403" lon="7.05983">
        <ele>166.6</ele>
        <time>2026-05-15T15:04:10Z</time>
      </trkpt>
      <trkpt lat="43.68412" lon="7.05993">
        <ele>164.7</ele>
        <time>2026-05-15T15:04:11Z</time>
      </trkpt>
      <trkpt lat="43.68421" lon="7.06003">
        <ele>162.8</ele>
        <time>2026-05-15T15:04:12Z</time>
      </trkpt>
      <trkpt lat="43.6843" lon="7.06013">
        <ele>161.3</ele>
        <time>2026-05-15T15:04:13Z</time>
      </trkpt>
      <trkpt lat="43.68436" lon="7.06024">
        <ele>161.1</ele>
        <time>2026-05-15T15:04:14Z</time>
      </trkpt>
      <trkpt lat="43.68441" lon="7.06039">
        <ele>161.5</ele>
        <time>2026-05-15T15:04:15Z</time>
      </trkpt>
      <trkpt lat="43.68444" lon="7.06054">
        <ele>162.1</ele>
        <time>2026-05-15T15:04:16Z</time>
      </trkpt>
      <trkpt lat="43.68447" lon="7.06069">
        <ele>161.9</ele>
        <time>2026-05-15T15:04:17Z</time>
      </trkpt>
      <trkpt lat="43.68448" lon="7.06084">
        <ele>162.8</ele>
        <time>2026-05-15T15:04:18Z</time>
      </trkpt>
      <trkpt lat="43.6845" lon="7.06099">
        <ele>163.8</ele>
        <time>2026-05-15T15:04:19Z</time>
      </trkpt>
      <trkpt lat="43.68453" lon="7.06114">
        <ele>163.4</ele>
        <time>2026-05-15T15:04:20Z</time>
      </trkpt>
      <trkpt lat="43.68456" lon="7.06129">
        <ele>161.8</ele>
        <time>2026-05-15T15:04:21Z</time>
      </trkpt>
      <trkpt lat="43.68459" lon="7.06145">
        <ele>160.4</ele>
        <time>2026-05-15T15:04:22Z</time>
      </trkpt>
      <trkpt lat="43.68462" lon="7.06161">
        <ele>159.1</ele>
        <time>2026-05-15T15:04:23Z</time>
      </trkpt>
      <trkpt lat="43.68465" lon="7.06179">
        <ele>157.9</ele>
        <time>2026-05-15T15:04:24Z</time>
      </trkpt>
      <trkpt lat="43.68467" lon="7.06198">
        <ele>157.6</ele>
        <time>2026-05-15T15:04:25Z</time>
      </trkpt>
      <trkpt lat="43.68471" lon="7.06216">
        <ele>155.6</ele>
        <time>2026-05-15T15:04:26Z</time>
      </trkpt>
      <trkpt lat="43.68473" lon="7.06235">
        <ele>155.3</ele>
        <time>2026-05-15T15:04:27Z</time>
      </trkpt>
      <trkpt lat="43.68476" lon="7.06253">
        <ele>154.1</ele>
        <time>2026-05-15T15:04:28Z</time>
      </trkpt>
      <trkpt lat="43.6848" lon="7.06271">
        <ele>153</ele>
        <time>2026-05-15T15:04:29Z</time>
      </trkpt>
      <trkpt lat="43.68484" lon="7.06287">
        <ele>152.1</ele>
        <time>2026-05-15T15:04:30Z</time>
      </trkpt>
      <trkpt lat="43.6849" lon="7.06303">
        <ele>150.1</ele>
        <time>2026-05-15T15:04:31Z</time>
      </trkpt>
      <trkpt lat="43.68496" lon="7.0632">
        <ele>147.4</ele>
        <time>2026-05-15T15:04:32Z</time>
      </trkpt>
      <trkpt lat="43.68502" lon="7.06339">
        <ele>146.2</ele>
        <time>2026-05-15T15:04:33Z</time>
      </trkpt>
      <trkpt lat="43.6851" lon="7.06357">
        <ele>147.9</ele>
        <time>2026-05-15T15:04:34Z</time>
      </trkpt>
      <trkpt lat="43.68518" lon="7.06375">
        <ele>147.1</ele>
        <time>2026-05-15T15:04:35Z</time>
      </trkpt>
      <trkpt lat="43.68527" lon="7.06393">
        <ele>143.9</ele>
        <time>2026-05-15T15:04:36Z</time>
      </trkpt>
      <trkpt lat="43.68536" lon="7.06409">
        <ele>142.9</ele>
        <time>2026-05-15T15:04:37Z</time>
      </trkpt>
      <trkpt lat="43.68546" lon="7.06426">
        <ele>141.7</ele>
        <time>2026-05-15T15:04:38Z</time>
      </trkpt>
      <trkpt lat="43.68555" lon="7.06443">
        <ele>140.9</ele>
        <time>2026-05-15T15:04:39Z</time>
      </trkpt>
      <trkpt lat="43.68566" lon="7.06458">
        <ele>139.8</ele>
        <time>2026-05-15T15:04:40Z</time>
      </trkpt>
      <trkpt lat="43.68577" lon="7.06473">
        <ele>138.4</ele>
        <time>2026-05-15T15:04:41Z</time>
      </trkpt>
      <trkpt lat="43.68589" lon="7.06486">
        <ele>136.6</ele>
        <time>2026-05-15T15:04:42Z</time>
      </trkpt>
      <trkpt lat="43.68602" lon="7.06496">
        <ele>134.4</ele>
        <time>2026-05-15T15:04:43Z</time>
      </trkpt>
      <trkpt lat="43.68613" lon="7.06505">
        <ele>132.5</ele>
        <time>2026-05-15T15:04:44Z</time>
      </trkpt>
      <trkpt lat="43.68624" lon="7.06514">
        <ele>130.7</ele>
        <time>2026-05-15T15:04:45Z</time>
      </trkpt>
      <trkpt lat="43.68633" lon="7.06526">
        <ele>130.6</ele>
        <time>2026-05-15T15:04:46Z</time>
      </trkpt>
      <trkpt lat="43.68641" lon="7.0654">
        <ele>131.2</ele>
        <time>2026-05-15T15:04:47Z</time>
      </trkpt>
      <trkpt lat="43.68649" lon="7.06553">
        <ele>131.6</ele>
        <time>2026-05-15T15:04:48Z</time>
      </trkpt>
      <trkpt lat="43.68659" lon="7.06563">
        <ele>130.5</ele>
        <time>2026-05-15T15:04:49Z</time>
      </trkpt>
      <trkpt lat="43.68671" lon="7.0657">
        <ele>128</ele>
        <time>2026-05-15T15:04:50Z</time>
      </trkpt>
      <trkpt lat="43.68682" lon="7.06575">
        <ele>125.2</ele>
        <time>2026-05-15T15:04:51Z</time>
      </trkpt>
      <trkpt lat="43.68691" lon="7.06585">
        <ele>124.7</ele>
        <time>2026-05-15T15:04:52Z</time>
      </trkpt>
      <trkpt lat="43.68699" lon="7.06599">
        <ele>124.6</ele>
        <time>2026-05-15T15:04:53Z</time>
      </trkpt>
      <trkpt lat="43.68706" lon="7.06614">
        <ele>124.3</ele>
        <time>2026-05-15T15:04:54Z</time>
      </trkpt>
      <trkpt lat="43.68711" lon="7.06632">
        <ele>125.3</ele>
        <time>2026-05-15T15:04:55Z</time>
      </trkpt>
      <trkpt lat="43.68716" lon="7.06648">
        <ele>125.7</ele>
        <time>2026-05-15T15:04:56Z</time>
      </trkpt>
      <trkpt lat="43.68723" lon="7.06663">
        <ele>124.9</ele>
        <time>2026-05-15T15:04:57Z</time>
      </trkpt>
      <trkpt lat="43.6873" lon="7.06677">
        <ele>123.7</ele>
        <time>2026-05-15T15:04:58Z</time>
      </trkpt>
      <trkpt lat="43.68737" lon="7.0669">
        <ele>122.2</ele>
        <time>2026-05-15T15:04:59Z</time>
      </trkpt>
      <trkpt lat="43.68744" lon="7.06704">
        <ele>120.7</ele>
        <time>2026-05-15T15:05:00Z</time>
      </trkpt>
      <trkpt lat="43.6875" lon="7.06719">
        <ele>119.5</ele>
        <time>2026-05-15T15:05:01Z</time>
      </trkpt>
      <trkpt lat="43.68754" lon="7.06735">
        <ele>120.2</ele>
        <time>2026-05-15T15:05:02Z</time>
      </trkpt>
      <trkpt lat="43.68757" lon="7.0675">
        <ele>121.5</ele>
        <time>2026-05-15T15:05:03Z</time>
      </trkpt>
      <trkpt lat="43.68764" lon="7.06762">
        <ele>121.2</ele>
        <time>2026-05-15T15:05:04Z</time>
      </trkpt>
      <trkpt lat="43.6877" lon="7.06771">
        <ele>120.4</ele>
        <time>2026-05-15T15:05:05Z</time>
      </trkpt>
      <trkpt lat="43.68778" lon="7.06776">
        <ele>117.5</ele>
        <time>2026-05-15T15:05:06Z</time>
      </trkpt>
      <trkpt lat="43.68786" lon="7.06779">
        <ele>115.7</ele>
        <time>2026-05-15T15:05:07Z</time>
      </trkpt>
      <trkpt lat="43.68793" lon="7.06779">
        <ele>113.3</ele>
        <time>2026-05-15T15:05:08Z</time>
      </trkpt>
      <trkpt lat="43.68801" lon="7.06777">
        <ele>110.2</ele>
        <time>2026-05-15T15:05:09Z</time>
      </trkpt>
      <trkpt lat="43.68808" lon="7.06775">
        <ele>107</ele>
        <time>2026-05-15T15:05:10Z</time>
      </trkpt>
      <trkpt lat="43.68815" lon="7.06776">
        <ele>104.3</ele>
        <time>2026-05-15T15:05:11Z</time>
      </trkpt>
      <trkpt lat="43.68821" lon="7.06781">
        <ele>102.6</ele>
        <time>2026-05-15T15:05:12Z</time>
      </trkpt>
      <trkpt lat="43.68824" lon="7.06791">
        <ele>102</ele>
        <time>2026-05-15T15:05:13Z</time>
      </trkpt>
      <trkpt lat="43.68823" lon="7.06803">
        <ele>103.4</ele>
        <time>2026-05-15T15:05:14Z</time>
      </trkpt>
      <trkpt lat="43.68821" lon="7.06817">
        <ele>103.4</ele>
        <time>2026-05-15T15:05:15Z</time>
      </trkpt>
      <trkpt lat="43.68818" lon="7.06834">
        <ele>103.3</ele>
        <time>2026-05-15T15:05:16Z</time>
      </trkpt>
      <trkpt lat="43.68815" lon="7.0685">
        <ele>104.2</ele>
        <time>2026-05-15T15:05:17Z</time>
      </trkpt>
      <trkpt lat="43.68813" lon="7.06867">
        <ele>104.4</ele>
        <time>2026-05-15T15:05:18Z</time>
      </trkpt>
      <trkpt lat="43.68811" lon="7.06881">
        <ele>104.6</ele>
        <time>2026-05-15T15:05:19Z</time>
      </trkpt>
      <trkpt lat="43.68811" lon="7.06895">
        <ele>102.4</ele>
        <time>2026-05-15T15:05:20Z</time>
      </trkpt>
      <trkpt lat="43.68809" lon="7.06908">
        <ele>100.7</ele>
        <time>2026-05-15T15:05:21Z</time>
      </trkpt>
      <trkpt lat="43.68805" lon="7.06921">
        <ele>100.3</ele>
        <time>2026-05-15T15:05:22Z</time>
      </trkpt>
      <trkpt lat="43.68801" lon="7.06932">
        <ele>100.7</ele>
        <time>2026-05-15T15:05:23Z</time>
      </trkpt>
      <trkpt lat="43.68797" lon="7.06944">
        <ele>100.9</ele>
        <time>2026-05-15T15:05:24Z</time>
      </trkpt>
      <trkpt lat="43.68795" lon="7.06958">
        <ele>99.9</ele>
        <time>2026-05-15T15:05:25Z</time>
      </trkpt>
      <trkpt lat="43.68794" lon="7.06973">
        <ele>97.7</ele>
        <time>2026-05-15T15:05:26Z</time>
      </trkpt>
      <trkpt lat="43.68794" lon="7.06989">
        <ele>94.2</ele>
        <time>2026-05-15T15:05:27Z</time>
      </trkpt>
      <trkpt lat="43.68792" lon="7.07004">
        <ele>91.7</ele>
        <time>2026-05-15T15:05:28Z</time>
      </trkpt>
      <trkpt lat="43.68787" lon="7.07016">
        <ele>90.2</ele>
        <time>2026-05-15T15:05:29Z</time>
      </trkpt>
      <trkpt lat="43.6878" lon="7.07025">
        <ele>89.4</ele>
        <time>2026-05-15T15:05:30Z</time>
      </trkpt>
      <trkpt lat="43.6877" lon="7.07034">
        <ele>87.5</ele>
        <time>2026-05-15T15:05:31Z</time>
      </trkpt>
      <trkpt lat="43.68755" lon="7.07036">
        <ele>88.3</ele>
        <time>2026-05-15T15:05:32Z</time>
      </trkpt>
      <trkpt lat="43.68743" lon="7.07041">
        <ele>87</ele>
        <time>2026-05-15T15:05:33Z</time>
      </trkpt>
      <trkpt lat="43.68731" lon="7.07044">
        <ele>86.4</ele>
        <time>2026-05-15T15:05:34Z</time>
      </trkpt>
      <trkpt lat="43.68718" lon="7.07048">
        <ele>85.2</ele>
        <time>2026-05-15T15:05:35Z</time>
      </trkpt>
      <trkpt lat="43.68702" lon="7.07055">
        <ele>82.6</ele>
        <time>2026-05-15T15:05:36Z</time>
      </trkpt>
      <trkpt lat="43.68684" lon="7.07065">
        <ele>79.4</ele>
        <time>2026-05-15T15:05:37Z</time>
      </trkpt>
      <trkpt lat="43.68663" lon="7.07076">
        <ele>77.3</ele>
        <time>2026-05-15T15:05:38Z</time>
      </trkpt>
      <trkpt lat="43.68644" lon="7.07088">
        <ele>76</ele>
        <time>2026-05-15T15:05:39Z</time>
      </trkpt>
      <trkpt lat="43.68625" lon="7.071">
        <ele>73.6</ele>
        <time>2026-05-15T15:05:40Z</time>
      </trkpt>
      <trkpt lat="43.68606" lon="7.07109">
        <ele>72.7</ele>
        <time>2026-05-15T15:05:41Z</time>
      </trkpt>
      <trkpt lat="43.68589" lon="7.07116">
        <ele>73</ele>
        <time>2026-05-15T15:05:42Z</time>
      </trkpt>
      <trkpt lat="43.68573" lon="7.07119">
        <ele>74.9</ele>
        <time>2026-05-15T15:05:43Z</time>
      </trkpt>
      <trkpt lat="43.68556" lon="7.07122">
        <ele>76.4</ele>
        <time>2026-05-15T15:05:44Z</time>
      </trkpt>
      <trkpt lat="43.6854" lon="7.07129">
        <ele>76</ele>
        <time>2026-05-15T15:05:45Z</time>
      </trkpt>
      <trkpt lat="43.68524" lon="7.07141">
        <ele>73.1</ele>
        <time>2026-05-15T15:05:46Z</time>
      </trkpt>
      <trkpt lat="43.68508" lon="7.07153">
        <ele>71.7</ele>
        <time>2026-05-15T15:05:47Z</time>
      </trkpt>
      <trkpt lat="43.68491" lon="7.07171">
        <ele>66.7</ele>
        <time>2026-05-15T15:05:48Z</time>
      </trkpt>
      <trkpt lat="43.68474" lon="7.07187">
        <ele>62.9</ele>
        <time>2026-05-15T15:05:49Z</time>
      </trkpt>
      <trkpt lat="43.68458" lon="7.07204">
        <ele>59.3</ele>
        <time>2026-05-15T15:05:50Z</time>
      </trkpt>
      <trkpt lat="43.68444" lon="7.07223">
        <ele>57</ele>
        <time>2026-05-15T15:05:51Z</time>
      </trkpt>
      <trkpt lat="43.68432" lon="7.07244">
        <ele>55.6</ele>
        <time>2026-05-15T15:05:52Z</time>
      </trkpt>
      <trkpt lat="43.68422" lon="7.07265">
        <ele>52.5</ele>
        <time>2026-05-15T15:05:53Z</time>
      </trkpt>
      <trkpt lat="43.68411" lon="7.07285">
        <ele>49.4</ele>
        <time>2026-05-15T15:05:54Z</time>
      </trkpt>
      <trkpt lat="43.68399" lon="7.07303">
        <ele>47.2</ele>
        <time>2026-05-15T15:05:55Z</time>
      </trkpt>
      <trkpt lat="43.68387" lon="7.07316">
        <ele>46.4</ele>
        <time>2026-05-15T15:05:56Z</time>
      </trkpt>
      <trkpt lat="43.68374" lon="7.07326">
        <ele>46.7</ele>
        <time>2026-05-15T15:05:57Z</time>
      </trkpt>
      <trkpt lat="43.68362" lon="7.07336">
        <ele>47.5</ele>
        <time>2026-05-15T15:05:58Z</time>
      </trkpt>
      <trkpt lat="43.68351" lon="7.07349">
        <ele>50.2</ele>
        <time>2026-05-15T15:05:59Z</time>
      </trkpt>
      <trkpt lat="43.68343" lon="7.07367">
        <ele>51.3</ele>
        <time>2026-05-15T15:06:00Z</time>
      </trkpt>
      <trkpt lat="43.68335" lon="7.07387">
        <ele>51.6</ele>
        <time>2026-05-15T15:06:01Z</time>
      </trkpt>
      <trkpt lat="43.68327" lon="7.07406">
        <ele>52.3</ele>
        <time>2026-05-15T15:06:02Z</time>
      </trkpt>
      <trkpt lat="43.68321" lon="7.07423">
        <ele>51.7</ele>
        <time>2026-05-15T15:06:03Z</time>
      </trkpt>
      <trkpt lat="43.68314" lon="7.07441">
        <ele>50.5</ele>
        <time>2026-05-15T15:06:04Z</time>
      </trkpt>
      <trkpt lat="43.68305" lon="7.07457">
        <ele>48</ele>
        <time>2026-05-15T15:06:05Z</time>
      </trkpt>
      <trkpt lat="43.68293" lon="7.07473">
        <ele>47.9</ele>
        <time>2026-05-15T15:06:06Z</time>
      </trkpt>
      <trkpt lat="43.68282" lon="7.0749">
        <ele>49.3</ele>
        <time>2026-05-15T15:06:07Z</time>
      </trkpt>
      <trkpt lat="43.68271" lon="7.0751">
        <ele>49</ele>
        <time>2026-05-15T15:06:08Z</time>
      </trkpt>
      <trkpt lat="43.68261" lon="7.07532">
        <ele>48.8</ele>
        <time>2026-05-15T15:06:09Z</time>
      </trkpt>
      <trkpt lat="43.68249" lon="7.07555">
        <ele>47.1</ele>
        <time>2026-05-15T15:06:10Z</time>
      </trkpt>
      <trkpt lat="43.68239" lon="7.07578">
        <ele>44.7</ele>
        <time>2026-05-15T15:06:11Z</time>
      </trkpt>
      <trkpt lat="43.68228" lon="7.076">
        <ele>43.2</ele>
        <time>2026-05-15T15:06:12Z</time>
      </trkpt>
      <trkpt lat="43.68216" lon="7.0762">
        <ele>41.7</ele>
        <time>2026-05-15T15:06:13Z</time>
      </trkpt>
      <trkpt lat="43.68204" lon="7.07638">
        <ele>44.1</ele>
        <time>2026-05-15T15:06:14Z</time>
      </trkpt>
      <trkpt lat="43.68191" lon="7.07654">
        <ele>45.1</ele>
        <time>2026-05-15T15:06:15Z</time>
      </trkpt>
      <trkpt lat="43.68177" lon="7.0767">
        <ele>45</ele>
        <time>2026-05-15T15:06:16Z</time>
      </trkpt>
      <trkpt lat="43.68162" lon="7.07687">
        <ele>45.1</ele>
        <time>2026-05-15T15:06:17Z</time>
      </trkpt>
      <trkpt lat="43.68145" lon="7.07701">
        <ele>46.1</ele>
        <time>2026-05-15T15:06:18Z</time>
      </trkpt>
      <trkpt lat="43.68129" lon="7.07716">
        <ele>47.2</ele>
        <time>2026-05-15T15:06:19Z</time>
      </trkpt>
      <trkpt lat="43.68114" lon="7.07732">
        <ele>47.5</ele>
        <time>2026-05-15T15:06:20Z</time>
      </trkpt>
      <trkpt lat="43.681" lon="7.07748">
        <ele>48.8</ele>
        <time>2026-05-15T15:06:21Z</time>
      </trkpt>
      <trkpt lat="43.68088" lon="7.07767">
        <ele>45.8</ele>
        <time>2026-05-15T15:06:22Z</time>
      </trkpt>
      <trkpt lat="43.68078" lon="7.07787">
        <ele>42.9</ele>
        <time>2026-05-15T15:06:23Z</time>
      </trkpt>
      <trkpt lat="43.68069" lon="7.07809">
        <ele>43.1</ele>
        <time>2026-05-15T15:06:24Z</time>
      </trkpt>
      <trkpt lat="43.6806" lon="7.07831">
        <ele>42</ele>
        <time>2026-05-15T15:06:25Z</time>
      </trkpt>
      <trkpt lat="43.68051" lon="7.07853">
        <ele>39.7</ele>
        <time>2026-05-15T15:06:26Z</time>
      </trkpt>
      <trkpt lat="43.68042" lon="7.07874">
        <ele>39.6</ele>
        <time>2026-05-15T15:06:27Z</time>
      </trkpt>
      <trkpt lat="43.68033" lon="7.07894">
        <ele>38.9</ele>
        <time>2026-05-15T15:06:28Z</time>
      </trkpt>
      <trkpt lat="43.68024" lon="7.07913">
        <ele>38.9</ele>
        <time>2026-05-15T15:06:29Z</time>
      </trkpt>
      <trkpt lat="43.68017" lon="7.07931">
        <ele>37.4</ele>
        <time>2026-05-15T15:06:30Z</time>
      </trkpt>
      <trkpt lat="43.68012" lon="7.0795">
        <ele>37.1</ele>
        <time>2026-05-15T15:06:31Z</time>
      </trkpt>
      <trkpt lat="43.68011" lon="7.07969">
        <ele>39.6</ele>
        <time>2026-05-15T15:06:32Z</time>
      </trkpt>
      <trkpt lat="43.68013" lon="7.07989">
        <ele>39.9</ele>
        <time>2026-05-15T15:06:33Z</time>
      </trkpt>
      <trkpt lat="43.68016" lon="7.08011">
        <ele>38.9</ele>
        <time>2026-05-15T15:06:34Z</time>
      </trkpt>
      <trkpt lat="43.68019" lon="7.08032">
        <ele>37.7</ele>
        <time>2026-05-15T15:06:35Z</time>
      </trkpt>
      <trkpt lat="43.6802" lon="7.08053">
        <ele>38</ele>
        <time>2026-05-15T15:06:36Z</time>
      </trkpt>
      <trkpt lat="43.6802" lon="7.08073">
        <ele>37</ele>
        <time>2026-05-15T15:06:37Z</time>
      </trkpt>
      <trkpt lat="43.6802" lon="7.08093">
        <ele>34.7</ele>
        <time>2026-05-15T15:06:38Z</time>
      </trkpt>
      <trkpt lat="43.68019" lon="7.08111">
        <ele>31.7</ele>
        <time>2026-05-15T15:06:39Z</time>
      </trkpt>
      <trkpt lat="43.68019" lon="7.08129">
        <ele>32.3</ele>
        <time>2026-05-15T15:06:40Z</time>
      </trkpt>
      <trkpt lat="43.68019" lon="7.08143">
        <ele>33.7</ele>
        <time>2026-05-15T15:06:41Z</time>
      </trkpt>
      <trkpt lat="43.68019" lon="7.08157">
        <ele>36.9</ele>
        <time>2026-05-15T15:06:42Z</time>
      </trkpt>
      <trkpt lat="43.68018" lon="7.0817">
        <ele>38.9</ele>
        <time>2026-05-15T15:06:43Z</time>
      </trkpt>
      <trkpt lat="43.68018" lon="7.08182">
        <ele>39.2</ele>
        <time>2026-05-15T15:06:44Z</time>
      </trkpt>
      <trkpt lat="43.68017" lon="7.08194">
        <ele>39.1</ele>
        <time>2026-05-15T15:06:45Z</time>
      </trkpt>
      <trkpt lat="43.68017" lon="7.08207">
        <ele>38.1</ele>
        <time>2026-05-15T15:06:46Z</time>
      </trkpt>
      <trkpt lat="43.6802" lon="7.0822">
        <ele>38</ele>
        <time>2026-05-15T15:06:47Z</time>
      </trkpt>
      <trkpt lat="43.68025" lon="7.08232">
        <ele>37.6</ele>
        <time>2026-05-15T15:06:48Z</time>
      </trkpt>
      <trkpt lat="43.68031" lon="7.08245">
        <ele>36.7</ele>
        <time>2026-05-15T15:06:49Z</time>
      </trkpt>
      <trkpt lat="43.68037" lon="7.08258">
        <ele>36.3</ele>
        <time>2026-05-15T15:06:50Z</time>
      </trkpt>
      <trkpt lat="43.68045" lon="7.0827">
        <ele>36.3</ele>
        <time>2026-05-15T15:06:51Z</time>
      </trkpt>
      <trkpt lat="43.68053" lon="7.0828">
        <ele>36.2</ele>
        <time>2026-05-15T15:06:52Z</time>
      </trkpt>
      <trkpt lat="43.68062" lon="7.08289">
        <ele>36</ele>
        <time>2026-05-15T15:06:53Z</time>
      </trkpt>
      <trkpt lat="43.68071" lon="7.08296">
        <ele>35.5</ele>
        <time>2026-05-15T15:06:54Z</time>
      </trkpt>
      <trkpt lat="43.68082" lon="7.08301">
        <ele>35.1</ele>
        <time>2026-05-15T15:06:55Z</time>
      </trkpt>
      <trkpt lat="43.68094" lon="7.08306">
        <ele>34.3</ele>
        <time>2026-05-15T15:06:56Z</time>
      </trkpt>
      <trkpt lat="43.68105" lon="7.08311">
        <ele>34</ele>
        <time>2026-05-15T15:06:57Z</time>
      </trkpt>
      <trkpt lat="43.68116" lon="7.08316">
        <ele>34</ele>
        <time>2026-05-15T15:06:58Z</time>
      </trkpt>
      <trkpt lat="43.68126" lon="7.0832">
        <ele>34.2</ele>
        <time>2026-05-15T15:06:59Z</time>
      </trkpt>
      <trkpt lat="43.68137" lon="7.08325">
        <ele>34</ele>
        <time>2026-05-15T15:07:00Z</time>
      </trkpt>
      <trkpt lat="43.68147" lon="7.0833">
        <ele>33.4</ele>
        <time>2026-05-15T15:07:01Z</time>
      </trkpt>
      <trkpt lat="43.68158" lon="7.08335">
        <ele>33.2</ele>
        <time>2026-05-15T15:07:02Z</time>
      </trkpt>
      <trkpt lat="43.68168" lon="7.08341">
        <ele>33.2</ele>
        <time>2026-05-15T15:07:03Z</time>
      </trkpt>
      <trkpt lat="43.68178" lon="7.08352">
        <ele>32.8</ele>
        <time>2026-05-15T15:07:04Z</time>
      </trkpt>
      <trkpt lat="43.68186" lon="7.08363">
        <ele>33</ele>
        <time>2026-05-15T15:07:05Z</time>
      </trkpt>
      <trkpt lat="43.68194" lon="7.08376">
        <ele>32.9</ele>
        <time>2026-05-15T15:07:06Z</time>
      </trkpt>
      <trkpt lat="43.68201" lon="7.0839">
        <ele>33.6</ele>
        <time>2026-05-15T15:07:07Z</time>
      </trkpt>
      <trkpt lat="43.68208" lon="7.08405">
        <ele>34.8</ele>
        <time>2026-05-15T15:07:08Z</time>
      </trkpt>
      <trkpt lat="43.68213" lon="7.08419">
        <ele>35.4</ele>
        <time>2026-05-15T15:07:09Z</time>
      </trkpt>
      <trkpt lat="43.68219" lon="7.08433">
        <ele>34.6</ele>
        <time>2026-05-15T15:07:10Z</time>
      </trkpt>
      <trkpt lat="43.68225" lon="7.08447">
        <ele>33.7</ele>
        <time>2026-05-15T15:07:11Z</time>
      </trkpt>
      <trkpt lat="43.68229" lon="7.08461">
        <ele>34.1</ele>
        <time>2026-05-15T15:07:12Z</time>
      </trkpt>
      <trkpt lat="43.68233" lon="7.08475">
        <ele>34.2</ele>
        <time>2026-05-15T15:07:13Z</time>
      </trkpt>
      <trkpt lat="43.68235" lon="7.08491">
        <ele>33.9</ele>
        <time>2026-05-15T15:07:14Z</time>
      </trkpt>
      <trkpt lat="43.68234" lon="7.08507">
        <ele>33.3</ele>
        <time>2026-05-15T15:07:15Z</time>
      </trkpt>
      <trkpt lat="43.68233" lon="7.08523">
        <ele>33.5</ele>
        <time>2026-05-15T15:07:16Z</time>
      </trkpt>
      <trkpt lat="43.68232" lon="7.08539">
        <ele>33.7</ele>
        <time>2026-05-15T15:07:17Z</time>
      </trkpt>
      <trkpt lat="43.68231" lon="7.08555">
        <ele>34.2</ele>
        <time>2026-05-15T15:07:18Z</time>
      </trkpt>
      <trkpt lat="43.6823" lon="7.08571">
        <ele>34.4</ele>
        <time>2026-05-15T15:07:19Z</time>
      </trkpt>
      <trkpt lat="43.68232" lon="7.08586">
        <ele>34.9</ele>
        <time>2026-05-15T15:07:20Z</time>
      </trkpt>
      <trkpt lat="43.68237" lon="7.08601">
        <ele>34.3</ele>
        <time>2026-05-15T15:07:21Z</time>
      </trkpt>
      <trkpt lat="43.68245" lon="7.08615">
        <ele>33.6</ele>
        <time>2026-05-15T15:07:22Z</time>
      </trkpt>
      <trkpt lat="43.68254" lon="7.08629">
        <ele>32.9</ele>
        <time>2026-05-15T15:07:23Z</time>
      </trkpt>
      <trkpt lat="43.68264" lon="7.08644">
        <ele>32.2</ele>
        <time>2026-05-15T15:07:24Z</time>
      </trkpt>
      <trkpt lat="43.68273" lon="7.08659">
        <ele>32</ele>
        <time>2026-05-15T15:07:25Z</time>
      </trkpt>
      <trkpt lat="43.68283" lon="7.08674">
        <ele>31.8</ele>
        <time>2026-05-15T15:07:26Z</time>
      </trkpt>
      <trkpt lat="43.68292" lon="7.08689">
        <ele>31.4</ele>
        <time>2026-05-15T15:07:27Z</time>
      </trkpt>
      <trkpt lat="43.68301" lon="7.08705">
        <ele>31.4</ele>
        <time>2026-05-15T15:07:28Z</time>
      </trkpt>
      <trkpt lat="43.68309" lon="7.08721">
        <ele>31.9</ele>
        <time>2026-05-15T15:07:29Z</time>
      </trkpt>
      <trkpt lat="43.68314" lon="7.08737">
        <ele>33.1</ele>
        <time>2026-05-15T15:07:30Z</time>
      </trkpt>
      <trkpt lat="43.68319" lon="7.08755">
        <ele>34.2</ele>
        <time>2026-05-15T15:07:31Z</time>
      </trkpt>
      <trkpt lat="43.68323" lon="7.08773">
        <ele>34.6</ele>
        <time>2026-05-15T15:07:32Z</time>
      </trkpt>
      <trkpt lat="43.68325" lon="7.0879">
        <ele>35.2</ele>
        <time>2026-05-15T15:07:33Z</time>
      </trkpt>
      <trkpt lat="43.68326" lon="7.08807">
        <ele>36.1</ele>
        <time>2026-05-15T15:07:34Z</time>
      </trkpt>
      <trkpt lat="43.68324" lon="7.08824">
        <ele>38</ele>
        <time>2026-05-15T15:07:35Z</time>
      </trkpt>
      <trkpt lat="43.68322" lon="7.08841">
        <ele>38.9</ele>
        <time>2026-05-15T15:07:36Z</time>
      </trkpt>
      <trkpt lat="43.68318" lon="7.08857">
        <ele>37.8</ele>
        <time>2026-05-15T15:07:37Z</time>
      </trkpt>
      <trkpt lat="43.68312" lon="7.08873">
        <ele>35</ele>
        <time>2026-05-15T15:07:38Z</time>
      </trkpt>
      <trkpt lat="43.68306" lon="7.08887">
        <ele>32.2</ele>
        <time>2026-05-15T15:07:39Z</time>
      </trkpt>
      <trkpt lat="43.68299" lon="7.089">
        <ele>34.3</ele>
        <time>2026-05-15T15:07:40Z</time>
      </trkpt>
      <trkpt lat="43.68293" lon="7.08914">
        <ele>36.3</ele>
        <time>2026-05-15T15:07:41Z</time>
      </trkpt>
      <trkpt lat="43.68287" lon="7.08926">
        <ele>35.8</ele>
        <time>2026-05-15T15:07:42Z</time>
      </trkpt>
      <trkpt lat="43.68281" lon="7.08938">
        <ele>34.7</ele>
        <time>2026-05-15T15:07:43Z</time>
      </trkpt>
      <trkpt lat="43.68276" lon="7.08951">
        <ele>34.4</ele>
        <time>2026-05-15T15:07:44Z</time>
      </trkpt>
      <trkpt lat="43.68273" lon="7.08963">
        <ele>35.4</ele>
        <time>2026-05-15T15:07:45Z</time>
      </trkpt>
      <trkpt lat="43.6827" lon="7.08975">
        <ele>36.1</ele>
        <time>2026-05-15T15:07:46Z</time>
      </trkpt>
      <trkpt lat="43.68268" lon="7.08984">
        <ele>35.8</ele>
        <time>2026-05-15T15:07:47Z</time>
      </trkpt>
      <trkpt lat="43.68268" lon="7.08991">
        <ele>36</ele>
        <time>2026-05-15T15:07:48Z</time>
      </trkpt>
      <trkpt lat="43.68268" lon="7.08994">
        <ele>36</ele>
        <time>2026-05-15T15:07:49Z</time>
      </trkpt>
      <trkpt lat="43.68267" lon="7.08997">
        <ele>35.8</ele>
        <time>2026-05-15T15:07:50Z</time>
      </trkpt>
      <trkpt lat="43.68267" lon="7.09">
        <ele>35.9</ele>
        <time>2026-05-15T15:07:51Z</time>
      </trkpt>
      <trkpt lat="43.68267" lon="7.09003">
        <ele>35.8</ele>
        <time>2026-05-15T15:07:52Z</time>
      </trkpt>
      <trkpt lat="43.68267" lon="7.09005">
        <ele>35.7</ele>
        <time>2026-05-15T15:07:53Z</time>
      </trkpt>
      <trkpt lat="43.68267" lon="7.09007">
        <ele>35.6</ele>
        <time>2026-05-15T15:07:54Z</time>
      </trkpt>
      <trkpt lat="43.68267" lon="7.0901">
        <ele>35.5</ele>
        <time>2026-05-15T15:07:55Z</time>
      </trkpt>
      <trkpt lat="43.68267" lon="7.09012">
        <ele>35.4</ele>
        <time>2026-05-15T15:07:56Z</time>
      </trkpt>
      <trkpt lat="43.68268" lon="7.09015">
        <ele>35.5</ele>
        <time>2026-05-15T15:07:57Z</time>
      </trkpt>
      <trkpt lat="43.68269" lon="7.09021">
        <ele>35.4</ele>
        <time>2026-05-15T15:07:58Z</time>
      </trkpt>
      <trkpt lat="43.6827" lon="7.09029">
        <ele>35.3</ele>
        <time>2026-05-15T15:07:59Z</time>
      </trkpt>
      <trkpt lat="43.68273" lon="7.0904">
        <ele>35.3</ele>
        <time>2026-05-15T15:08:00Z</time>
      </trkpt>
      <trkpt lat="43.68276" lon="7.09051">
        <ele>35.1</ele>
        <time>2026-05-15T15:08:01Z</time>
      </trkpt>
      <trkpt lat="43.68279" lon="7.09063">
        <ele>35.1</ele>
        <time>2026-05-15T15:08:02Z</time>
      </trkpt>
      <trkpt lat="43.68285" lon="7.09076">
        <ele>36</ele>
        <time>2026-05-15T15:08:03Z</time>
      </trkpt>
      <trkpt lat="43.6829" lon="7.09089">
        <ele>36.3</ele>
        <time>2026-05-15T15:08:04Z</time>
      </trkpt>
      <trkpt lat="43.68296" lon="7.09101">
        <ele>36.3</ele>
        <time>2026-05-15T15:08:05Z</time>
      </trkpt>
      <trkpt lat="43.683" lon="7.09113">
        <ele>35.6</ele>
        <time>2026-05-15T15:08:06Z</time>
      </trkpt>
      <trkpt lat="43.68305" lon="7.09124">
        <ele>35.5</ele>
        <time>2026-05-15T15:08:07Z</time>
      </trkpt>
      <trkpt lat="43.6831" lon="7.09135">
        <ele>35.5</ele>
        <time>2026-05-15T15:08:08Z</time>
      </trkpt>
      <trkpt lat="43.68315" lon="7.09147">
        <ele>36.5</ele>
        <time>2026-05-15T15:08:09Z</time>
      </trkpt>
      <trkpt lat="43.68318" lon="7.09157">
        <ele>37.8</ele>
        <time>2026-05-15T15:08:10Z</time>
      </trkpt>
      <trkpt lat="43.68322" lon="7.09168">
        <ele>39.3</ele>
        <time>2026-05-15T15:08:11Z</time>
      </trkpt>
      <trkpt lat="43.68327" lon="7.09179">
        <ele>39</ele>
        <time>2026-05-15T15:08:12Z</time>
      </trkpt>
      <trkpt lat="43.68331" lon="7.0919">
        <ele>38.3</ele>
        <time>2026-05-15T15:08:13Z</time>
      </trkpt>
      <trkpt lat="43.68335" lon="7.092">
        <ele>38.9</ele>
        <time>2026-05-15T15:08:14Z</time>
      </trkpt>
      <trkpt lat="43.68338" lon="7.09209">
        <ele>40.2</ele>
        <time>2026-05-15T15:08:15Z</time>
      </trkpt>
      <trkpt lat="43.68341" lon="7.09219">
        <ele>41.2</ele>
        <time>2026-05-15T15:08:16Z</time>
      </trkpt>
      <trkpt lat="43.68345" lon="7.09227">
        <ele>42.3</ele>
        <time>2026-05-15T15:08:17Z</time>
      </trkpt>
      <trkpt lat="43.68348" lon="7.09234">
        <ele>42.7</ele>
        <time>2026-05-15T15:08:18Z</time>
      </trkpt>
      <trkpt lat="43.68352" lon="7.09242">
        <ele>42.7</ele>
        <time>2026-05-15T15:08:19Z</time>
      </trkpt>
      <trkpt lat="43.68356" lon="7.0925">
        <ele>42</ele>
        <time>2026-05-15T15:08:20Z</time>
      </trkpt>
      <trkpt lat="43.6836" lon="7.09261">
        <ele>42</ele>
        <time>2026-05-15T15:08:21Z</time>
      </trkpt>
      <trkpt lat="43.68363" lon="7.09272">
        <ele>42.8</ele>
        <time>2026-05-15T15:08:22Z</time>
      </trkpt>
      <trkpt lat="43.68368" lon="7.09284">
        <ele>45.2</ele>
        <time>2026-05-15T15:08:23Z</time>
      </trkpt>
      <trkpt lat="43.68373" lon="7.09297">
        <ele>46.8</ele>
        <time>2026-05-15T15:08:24Z</time>
      </trkpt>
      <trkpt lat="43.68378" lon="7.0931">
        <ele>47.2</ele>
        <time>2026-05-15T15:08:25Z</time>
      </trkpt>
      <trkpt lat="43.68384" lon="7.09323">
        <ele>46.9</ele>
        <time>2026-05-15T15:08:26Z</time>
      </trkpt>
      <trkpt lat="43.6839" lon="7.09336">
        <ele>46.3</ele>
        <time>2026-05-15T15:08:27Z</time>
      </trkpt>
      <trkpt lat="43.68397" lon="7.09348">
        <ele>47.7</ele>
        <time>2026-05-15T15:08:28Z</time>
      </trkpt>
      <trkpt lat="43.68405" lon="7.0936">
        <ele>48.2</ele>
        <time>2026-05-15T15:08:29Z</time>
      </trkpt>
      <trkpt lat="43.68413" lon="7.09374">
        <ele>49.3</ele>
        <time>2026-05-15T15:08:30Z</time>
      </trkpt>
      <trkpt lat="43.68421" lon="7.09389">
        <ele>50.3</ele>
        <time>2026-05-15T15:08:31Z</time>
      </trkpt>
      <trkpt lat="43.68428" lon="7.09402">
        <ele>51.8</ele>
        <time>2026-05-15T15:08:32Z</time>
      </trkpt>
      <trkpt lat="43.68433" lon="7.09415">
        <ele>53.1</ele>
        <time>2026-05-15T15:08:33Z</time>
      </trkpt>
      <trkpt lat="43.68434" lon="7.0943">
        <ele>53.8</ele>
        <time>2026-05-15T15:08:34Z</time>
      </trkpt>
      <trkpt lat="43.68434" lon="7.09445">
        <ele>54.5</ele>
        <time>2026-05-15T15:08:35Z</time>
      </trkpt>
      <trkpt lat="43.68433" lon="7.09461">
        <ele>55.1</ele>
        <time>2026-05-15T15:08:36Z</time>
      </trkpt>
      <trkpt lat="43.68432" lon="7.09478">
        <ele>55.6</ele>
        <time>2026-05-15T15:08:37Z</time>
      </trkpt>
      <trkpt lat="43.68432" lon="7.09495">
        <ele>56.6</ele>
        <time>2026-05-15T15:08:38Z</time>
      </trkpt>
      <trkpt lat="43.68435" lon="7.09511">
        <ele>58.2</ele>
        <time>2026-05-15T15:08:39Z</time>
      </trkpt>
      <trkpt lat="43.6844" lon="7.09527">
        <ele>59</ele>
        <time>2026-05-15T15:08:40Z</time>
      </trkpt>
      <trkpt lat="43.68447" lon="7.0954">
        <ele>60.2</ele>
        <time>2026-05-15T15:08:41Z</time>
      </trkpt>
      <trkpt lat="43.68454" lon="7.09551">
        <ele>61.5</ele>
        <time>2026-05-15T15:08:42Z</time>
      </trkpt>
      <trkpt lat="43.68461" lon="7.09559">
        <ele>62.1</ele>
        <time>2026-05-15T15:08:43Z</time>
      </trkpt>
      <trkpt lat="43.68465" lon="7.09566">
        <ele>62.3</ele>
        <time>2026-05-15T15:08:44Z</time>
      </trkpt>
      <trkpt lat="43.68469" lon="7.09571">
        <ele>62.6</ele>
        <time>2026-05-15T15:08:45Z</time>
      </trkpt>
      <trkpt lat="43.68472" lon="7.09576">
        <ele>63</ele>
        <time>2026-05-15T15:08:46Z</time>
      </trkpt>
      <trkpt lat="43.68475" lon="7.09581">
        <ele>63.2</ele>
        <time>2026-05-15T15:08:47Z</time>
      </trkpt>
      <trkpt lat="43.68478" lon="7.09586">
        <ele>63.3</ele>
        <time>2026-05-15T15:08:48Z</time>
      </trkpt>
      <trkpt lat="43.68482" lon="7.0959">
        <ele>63.5</ele>
        <time>2026-05-15T15:08:49Z</time>
      </trkpt>
      <trkpt lat="43.68485" lon="7.09594">
        <ele>63.7</ele>
        <time>2026-05-15T15:08:50Z</time>
      </trkpt>
      <trkpt lat="43.6849" lon="7.096">
        <ele>64.2</ele>
        <time>2026-05-15T15:08:51Z</time>
      </trkpt>
      <trkpt lat="43.68494" lon="7.09607">
        <ele>64.9</ele>
        <time>2026-05-15T15:08:52Z</time>
      </trkpt>
      <trkpt lat="43.68499" lon="7.09615">
        <ele>65.7</ele>
        <time>2026-05-15T15:08:53Z</time>
      </trkpt>
      <trkpt lat="43.68503" lon="7.09623">
        <ele>66.4</ele>
        <time>2026-05-15T15:08:54Z</time>
      </trkpt>
      <trkpt lat="43.68508" lon="7.09631">
        <ele>67.4</ele>
        <time>2026-05-15T15:08:55Z</time>
      </trkpt>
      <trkpt lat="43.68512" lon="7.0964">
        <ele>68</ele>
        <time>2026-05-15T15:08:56Z</time>
      </trkpt>
      <trkpt lat="43.68517" lon="7.0965">
        <ele>68.8</ele>
        <time>2026-05-15T15:08:57Z</time>
      </trkpt>
      <trkpt lat="43.68521" lon="7.09661">
        <ele>69.1</ele>
        <time>2026-05-15T15:08:58Z</time>
      </trkpt>
      <trkpt lat="43.68525" lon="7.09672">
        <ele>69.5</ele>
        <time>2026-05-15T15:08:59Z</time>
      </trkpt>
      <trkpt lat="43.68528" lon="7.09685">
        <ele>70.1</ele>
        <time>2026-05-15T15:09:00Z</time>
      </trkpt>
      <trkpt lat="43.68531" lon="7.09698">
        <ele>71</ele>
        <time>2026-05-15T15:09:01Z</time>
      </trkpt>
      <trkpt lat="43.68533" lon="7.09711">
        <ele>72.2</ele>
        <time>2026-05-15T15:09:02Z</time>
      </trkpt>
      <trkpt lat="43.68535" lon="7.09724">
        <ele>73.1</ele>
        <time>2026-05-15T15:09:03Z</time>
      </trkpt>
      <trkpt lat="43.68537" lon="7.09737">
        <ele>73.5</ele>
        <time>2026-05-15T15:09:04Z</time>
      </trkpt>
      <trkpt lat="43.68539" lon="7.0975">
        <ele>74</ele>
        <time>2026-05-15T15:09:05Z</time>
      </trkpt>
      <trkpt lat="43.68541" lon="7.09762">
        <ele>74.4</ele>
        <time>2026-05-15T15:09:06Z</time>
      </trkpt>
      <trkpt lat="43.68542" lon="7.09774">
        <ele>74.6</ele>
        <time>2026-05-15T15:09:07Z</time>
      </trkpt>
      <trkpt lat="43.68544" lon="7.09784">
        <ele>74.8</ele>
        <time>2026-05-15T15:09:08Z</time>
      </trkpt>
      <trkpt lat="43.68546" lon="7.09794">
        <ele>74.7</ele>
        <time>2026-05-15T15:09:09Z</time>
      </trkpt>
      <trkpt lat="43.68547" lon="7.09804">
        <ele>74.4</ele>
        <time>2026-05-15T15:09:10Z</time>
      </trkpt>
      <trkpt lat="43.68549" lon="7.09814">
        <ele>74.5</ele>
        <time>2026-05-15T15:09:11Z</time>
      </trkpt>
      <trkpt lat="43.6855" lon="7.09824">
        <ele>74.6</ele>
        <time>2026-05-15T15:09:12Z</time>
      </trkpt>
      <trkpt lat="43.68551" lon="7.09833">
        <ele>74.7</ele>
        <time>2026-05-15T15:09:13Z</time>
      </trkpt>
      <trkpt lat="43.68552" lon="7.09842">
        <ele>74.7</ele>
        <time>2026-05-15T15:09:14Z</time>
      </trkpt>
      <trkpt lat="43.68553" lon="7.0985">
        <ele>74.8</ele>
        <time>2026-05-15T15:09:15Z</time>
      </trkpt>
      <trkpt lat="43.68554" lon="7.09857">
        <ele>74.9</ele>
        <time>2026-05-15T15:09:16Z</time>
      </trkpt>
      <trkpt lat="43.68555" lon="7.09864">
        <ele>75</ele>
        <time>2026-05-15T15:09:17Z</time>
      </trkpt>
      <trkpt lat="43.68557" lon="7.0987">
        <ele>75.1</ele>
        <time>2026-05-15T15:09:18Z</time>
      </trkpt>
      <trkpt lat="43.68558" lon="7.09875">
        <ele>75.2</ele>
        <time>2026-05-15T15:09:19Z</time>
      </trkpt>
      <trkpt lat="43.68559" lon="7.09879">
        <ele>75.2</ele>
        <time>2026-05-15T15:09:20Z</time>
      </trkpt>
      <trkpt lat="43.68559" lon="7.09884">
        <ele>75.2</ele>
        <time>2026-05-15T15:09:21Z</time>
      </trkpt>
      <trkpt lat="43.6856" lon="7.09889">
        <ele>75.3</ele>
        <time>2026-05-15T15:09:22Z</time>
      </trkpt>
      <trkpt lat="43.68559" lon="7.09894">
        <ele>75.2</ele>
        <time>2026-05-15T15:09:23Z</time>
      </trkpt>
      <trkpt lat="43.68557" lon="7.09897">
        <ele>75.1</ele>
        <time>2026-05-15T15:09:24Z</time>
      </trkpt>
      <trkpt lat="43.68555" lon="7.099">
        <ele>75</ele>
        <time>2026-05-15T15:09:25Z</time>
      </trkpt>
      <trkpt lat="43.68553" lon="7.09902">
        <ele>75</ele>
        <time>2026-05-15T15:09:26Z</time>
      </trkpt>
      <trkpt lat="43.68551" lon="7.09904">
        <ele>75.1</ele>
        <time>2026-05-15T15:09:27Z</time>
      </trkpt>
      <trkpt lat="43.68548" lon="7.09905">
        <ele>75.2</ele>
        <time>2026-05-15T15:09:28Z</time>
      </trkpt>
      <trkpt lat="43.68546" lon="7.09905">
        <ele>75.2</ele>
        <time>2026-05-15T15:09:29Z</time>
      </trkpt>
      <trkpt lat="43.68544" lon="7.09905">
        <ele>75.2</ele>
        <time>2026-05-15T15:09:30Z</time>
      </trkpt>
      <trkpt lat="43.68542" lon="7.09906">
        <ele>75.3</ele>
        <time>2026-05-15T15:09:31Z</time>
      </trkpt>
      <trkpt lat="43.68541" lon="7.09906">
        <ele>75.3</ele>
        <time>2026-05-15T15:09:32Z</time>
      </trkpt>
      <trkpt lat="43.68539" lon="7.09906">
        <ele>75.4</ele>
        <time>2026-05-15T15:09:33Z</time>
      </trkpt>
      <trkpt lat="43.68537" lon="7.09906">
        <ele>75.4</ele>
        <time>2026-05-15T15:09:34Z</time>
      </trkpt>
      <trkpt lat="43.68535" lon="7.09907">
        <ele>75.5</ele>
        <time>2026-05-15T15:09:35Z</time>
      </trkpt>
      <trkpt lat="43.68534" lon="7.09907">
        <ele>75.5</ele>
        <time>2026-05-15T15:09:36Z</time>
      </trkpt>
      <trkpt lat="43.68534" lon="7.09907">
        <ele>75.5</ele>
        <time>2026-05-15T15:09:37Z</time>
      </trkpt>
      <trkpt lat="43.68534" lon="7.09907">
        <ele>75.5</ele>
        <time>2026-05-15T15:09:38Z</time>
      </trkpt>
      <trkpt lat="43.68534" lon="7.09907">
        <ele>75.5</ele>
        <time>2026-05-15T15:09:39Z</time>
      </trkpt>
      <trkpt lat="43.68534" lon="7.09906">
        <ele>75.5</ele>
        <time>2026-05-15T15:09:40Z</time>
      </trkpt>
      <trkpt lat="43.68534" lon="7.09906">
        <ele>75.5</ele>
        <time>2026-05-15T15:09:41Z</time>
      </trkpt>
      <trkpt lat="43.68534" lon="7.09907">
        <ele>75.5</ele>
        <time>2026-05-15T15:09:42Z</time>
      </trkpt>
      <trkpt lat="43.68533" lon="7.09907">
        <ele>75.5</ele>
        <time>2026-05-15T15:09:43Z</time>
      </trkpt>
      <trkpt lat="43.6853" lon="7.09908">
        <ele>75.6</ele>
        <time>2026-05-15T15:09:44Z</time>
      </trkpt>
      <trkpt lat="43.68526" lon="7.09908">
        <ele>75.8</ele>
        <time>2026-05-15T15:09:45Z</time>
      </trkpt>
      <trkpt lat="43.6852" lon="7.09908">
        <ele>76.2</ele>
        <time>2026-05-15T15:09:46Z</time>
      </trkpt>
      <trkpt lat="43.68514" lon="7.09908">
        <ele>76.7</ele>
        <time>2026-05-15T15:09:47Z</time>
      </trkpt>
      <trkpt lat="43.68507" lon="7.09907">
        <ele>77.1</ele>
        <time>2026-05-15T15:09:48Z</time>
      </trkpt>
      <trkpt lat="43.68501" lon="7.09904">
        <ele>77.5</ele>
        <time>2026-05-15T15:09:49Z</time>
      </trkpt>
      <trkpt lat="43.68494" lon="7.09898">
        <ele>78.9</ele>
        <time>2026-05-15T15:09:50Z</time>
      </trkpt>
      <trkpt lat="43.68486" lon="7.09892">
        <ele>80.4</ele>
        <time>2026-05-15T15:09:51Z</time>
      </trkpt>
      <trkpt lat="43.68479" lon="7.09887">
        <ele>81.2</ele>
        <time>2026-05-15T15:09:52Z</time>
      </trkpt>
      <trkpt lat="43.68471" lon="7.09882">
        <ele>82.1</ele>
        <time>2026-05-15T15:09:53Z</time>
      </trkpt>
      <trkpt lat="43.68464" lon="7.09878">
        <ele>83.3</ele>
        <time>2026-05-15T15:09:54Z</time>
      </trkpt>
      <trkpt lat="43.68455" lon="7.09874">
        <ele>84.9</ele>
        <time>2026-05-15T15:09:55Z</time>
      </trkpt>
      <trkpt lat="43.68447" lon="7.09871">
        <ele>86.5</ele>
        <time>2026-05-15T15:09:56Z</time>
      </trkpt>
      <trkpt lat="43.68438" lon="7.09869">
        <ele>88.2</ele>
        <time>2026-05-15T15:09:57Z</time>
      </trkpt>
      <trkpt lat="43.68429" lon="7.09865">
        <ele>89.6</ele>
        <time>2026-05-15T15:09:58Z</time>
      </trkpt>
      <trkpt lat="43.68422" lon="7.09859">
        <ele>90.3</ele>
        <time>2026-05-15T15:09:59Z</time>
      </trkpt>
      <trkpt lat="43.68415" lon="7.09853">
        <ele>91.2</ele>
        <time>2026-05-15T15:10:00Z</time>
      </trkpt>
      <trkpt lat="43.68408" lon="7.09845">
        <ele>91.6</ele>
        <time>2026-05-15T15:10:01Z</time>
      </trkpt>
      <trkpt lat="43.68403" lon="7.09838">
        <ele>92</ele>
        <time>2026-05-15T15:10:02Z</time>
      </trkpt>
      <trkpt lat="43.68399" lon="7.09828">
        <ele>92.3</ele>
        <time>2026-05-15T15:10:03Z</time>
      </trkpt>
      <trkpt lat="43.68395" lon="7.09817">
        <ele>93.2</ele>
        <time>2026-05-15T15:10:04Z</time>
      </trkpt>
      <trkpt lat="43.68389" lon="7.09805">
        <ele>95</ele>
        <time>2026-05-15T15:10:05Z</time>
      </trkpt>
      <trkpt lat="43.68383" lon="7.09794">
        <ele>96.2</ele>
        <time>2026-05-15T15:10:06Z</time>
      </trkpt>
      <trkpt lat="43.68376" lon="7.09785">
        <ele>97.4</ele>
        <time>2026-05-15T15:10:07Z</time>
      </trkpt>
      <trkpt lat="43.68369" lon="7.09776">
        <ele>98.5</ele>
        <time>2026-05-15T15:10:08Z</time>
      </trkpt>
      <trkpt lat="43.68361" lon="7.09769">
        <ele>100</ele>
        <time>2026-05-15T15:10:09Z</time>
      </trkpt>
      <trkpt lat="43.68353" lon="7.09765">
        <ele>101.1</ele>
        <time>2026-05-15T15:10:10Z</time>
      </trkpt>
      <trkpt lat="43.68345" lon="7.09763">
        <ele>102</ele>
        <time>2026-05-15T15:10:11Z</time>
      </trkpt>
      <trkpt lat="43.68336" lon="7.09763">
        <ele>103.1</ele>
        <time>2026-05-15T15:10:12Z</time>
      </trkpt>
      <trkpt lat="43.68327" lon="7.09764">
        <ele>103.7</ele>
        <time>2026-05-15T15:10:13Z</time>
      </trkpt>
      <trkpt lat="43.68318" lon="7.09768">
        <ele>104.7</ele>
        <time>2026-05-15T15:10:14Z</time>
      </trkpt>
      <trkpt lat="43.6831" lon="7.0977">
        <ele>105.4</ele>
        <time>2026-05-15T15:10:15Z</time>
      </trkpt>
      <trkpt lat="43.68301" lon="7.09769">
        <ele>105.9</ele>
        <time>2026-05-15T15:10:16Z</time>
      </trkpt>
      <trkpt lat="43.68292" lon="7.09767">
        <ele>106.5</ele>
        <time>2026-05-15T15:10:17Z</time>
      </trkpt>
      <trkpt lat="43.68284" lon="7.09763">
        <ele>106.7</ele>
        <time>2026-05-15T15:10:18Z</time>
      </trkpt>
      <trkpt lat="43.68276" lon="7.09757">
        <ele>106.8</ele>
        <time>2026-05-15T15:10:19Z</time>
      </trkpt>
      <trkpt lat="43.68268" lon="7.0975">
        <ele>107.5</ele>
        <time>2026-05-15T15:10:20Z</time>
      </trkpt>
      <trkpt lat="43.68259" lon="7.09743">
        <ele>108.6</ele>
        <time>2026-05-15T15:10:21Z</time>
      </trkpt>
      <trkpt lat="43.6825" lon="7.09735">
        <ele>109.8</ele>
        <time>2026-05-15T15:10:22Z</time>
      </trkpt>
      <trkpt lat="43.68241" lon="7.09727">
        <ele>110.6</ele>
        <time>2026-05-15T15:10:23Z</time>
      </trkpt>
      <trkpt lat="43.68234" lon="7.09718">
        <ele>110.8</ele>
        <time>2026-05-15T15:10:24Z</time>
      </trkpt>
      <trkpt lat="43.68226" lon="7.09711">
        <ele>112</ele>
        <time>2026-05-15T15:10:25Z</time>
      </trkpt>
      <trkpt lat="43.68219" lon="7.09705">
        <ele>113.5</ele>
        <time>2026-05-15T15:10:26Z</time>
      </trkpt>
      <trkpt lat="43.68211" lon="7.097">
        <ele>115.1</ele>
        <time>2026-05-15T15:10:27Z</time>
      </trkpt>
      <trkpt lat="43.68204" lon="7.09698">
        <ele>116.7</ele>
        <time>2026-05-15T15:10:28Z</time>
      </trkpt>
      <trkpt lat="43.68196" lon="7.09698">
        <ele>118.6</ele>
        <time>2026-05-15T15:10:29Z</time>
      </trkpt>
      <trkpt lat="43.68188" lon="7.09704">
        <ele>119.9</ele>
        <time>2026-05-15T15:10:30Z</time>
      </trkpt>
      <trkpt lat="43.6818" lon="7.09711">
        <ele>121.1</ele>
        <time>2026-05-15T15:10:31Z</time>
      </trkpt>
      <trkpt lat="43.68173" lon="7.09718">
        <ele>122.1</ele>
        <time>2026-05-15T15:10:32Z</time>
      </trkpt>
      <trkpt lat="43.68165" lon="7.09727">
        <ele>123.3</ele>
        <time>2026-05-15T15:10:33Z</time>
      </trkpt>
      <trkpt lat="43.68157" lon="7.09735">
        <ele>124.3</ele>
        <time>2026-05-15T15:10:34Z</time>
      </trkpt>
      <trkpt lat="43.68151" lon="7.09743">
        <ele>125</ele>
        <time>2026-05-15T15:10:35Z</time>
      </trkpt>
      <trkpt lat="43.68145" lon="7.09748">
        <ele>125.5</ele>
        <time>2026-05-15T15:10:36Z</time>
      </trkpt>
      <trkpt lat="43.6814" lon="7.09753">
        <ele>126</ele>
        <time>2026-05-15T15:10:37Z</time>
      </trkpt>
      <trkpt lat="43.68137" lon="7.09756">
        <ele>126.3</ele>
        <time>2026-05-15T15:10:38Z</time>
      </trkpt>
      <trkpt lat="43.68136" lon="7.09759">
        <ele>126.4</ele>
        <time>2026-05-15T15:10:39Z</time>
      </trkpt>
      <trkpt lat="43.68136" lon="7.09764">
        <ele>126.6</ele>
        <time>2026-05-15T15:10:40Z</time>
      </trkpt>
      <trkpt lat="43.68136" lon="7.0977">
        <ele>126.7</ele>
        <time>2026-05-15T15:10:41Z</time>
      </trkpt>
      <trkpt lat="43.68135" lon="7.09778">
        <ele>127</ele>
        <time>2026-05-15T15:10:42Z</time>
      </trkpt>
      <trkpt lat="43.68135" lon="7.09786">
        <ele>127.6</ele>
        <time>2026-05-15T15:10:43Z</time>
      </trkpt>
      <trkpt lat="43.68134" lon="7.09793">
        <ele>128.1</ele>
        <time>2026-05-15T15:10:44Z</time>
      </trkpt>
      <trkpt lat="43.68134" lon="7.098">
        <ele>128.6</ele>
        <time>2026-05-15T15:10:45Z</time>
      </trkpt>
      <trkpt lat="43.68133" lon="7.09806">
        <ele>129</ele>
        <time>2026-05-15T15:10:46Z</time>
      </trkpt>
      <trkpt lat="43.68132" lon="7.09811">
        <ele>129.3</ele>
        <time>2026-05-15T15:10:47Z</time>
      </trkpt>
      <trkpt lat="43.68131" lon="7.09815">
        <ele>129.6</ele>
        <time>2026-05-15T15:10:48Z</time>
      </trkpt>
      <trkpt lat="43.6813" lon="7.09817">
        <ele>129.7</ele>
        <time>2026-05-15T15:10:49Z</time>
      </trkpt>
      <trkpt lat="43.6813" lon="7.09819">
        <ele>129.8</ele>
        <time>2026-05-15T15:10:50Z</time>
      </trkpt>
      <trkpt lat="43.68129" lon="7.09819">
        <ele>129.8</ele>
        <time>2026-05-15T15:10:51Z</time>
      </trkpt>
      <trkpt lat="43.68129" lon="7.09819">
        <ele>129.8</ele>
        <time>2026-05-15T15:10:52Z</time>
      </trkpt>
      <trkpt lat="43.68129" lon="7.09818">
        <ele>129.7</ele>
        <time>2026-05-15T15:10:53Z</time>
      </trkpt>
      <trkpt lat="43.68129" lon="7.09818">
        <ele>129.7</ele>
        <time>2026-05-15T15:10:54Z</time>
      </trkpt>
      <trkpt lat="43.68129" lon="7.09818">
        <ele>129.7</ele>
        <time>2026-05-15T15:10:55Z</time>
      </trkpt>
      <trkpt lat="43.68129" lon="7.09819">
        <ele>129.8</ele>
        <time>2026-05-15T15:10:56Z</time>
      </trkpt>
      <trkpt lat="43.68129" lon="7.09818">
        <ele>129.7</ele>
        <time>2026-05-15T15:10:57Z</time>
      </trkpt>
      <trkpt lat="43.68129" lon="7.09818">
        <ele>129.7</ele>
        <time>2026-05-15T15:10:58Z</time>
      </trkpt>
      <trkpt lat="43.68129" lon="7.09818">
        <ele>129.7</ele>
        <time>2026-05-15T15:10:59Z</time>
      </trkpt>
      <trkpt lat="43.68129" lon="7.09818">
        <ele>129.7</ele>
        <time>2026-05-15T15:11:00Z</time>
      </trkpt>
      <trkpt lat="43.68129" lon="7.09818">
        <ele>129.7</ele>
        <time>2026-05-15T15:11:01Z</time>
      </trkpt>
      <trkpt lat="43.68129" lon="7.09818">
        <ele>129.7</ele>
        <time>2026-05-15T15:11:02Z</time>
      </trkpt>
      <trkpt lat="43.68129" lon="7.09818">
        <ele>129.7</ele>
        <time>2026-05-15T15:11:03Z</time>
      </trkpt>
      <trkpt lat="43.68129" lon="7.09818">
        <ele>129.7</ele>
        <time>2026-05-15T15:11:04Z</time>
      </trkpt>
      <trkpt lat="43.68129" lon="7.09818">
        <ele>129.7</ele>
        <time>2026-05-15T15:11:05Z</time>
      </trkpt>
      <trkpt lat="43.68129" lon="7.09818">
        <ele>129.7</ele>
        <time>2026-05-15T15:11:06Z</time>
      </trkpt>
      <trkpt lat="43.68129" lon="7.09818">
        <ele>129.7</ele>
        <time>2026-05-15T15:11:07Z</time>
      </trkpt>
      <trkpt lat="43.68129" lon="7.09818">
        <ele>129.7</ele>
        <time>2026-05-15T15:11:08Z</time>
      </trkpt>
      <trkpt lat="43.68129" lon="7.09818">
        <ele>129.7</ele>
        <time>2026-05-15T15:11:09Z</time>
      </trkpt>
      <trkpt lat="43.68129" lon="7.09818">
        <ele>129.7</ele>
        <time>2026-05-15T15:11:10Z</time>
      </trkpt>
      <trkpt lat="43.68129" lon="7.09818">
        <ele>129.7</ele>
        <time>2026-05-15T15:11:11Z</time>
      </trkpt>
      <trkpt lat="43.68128" lon="7.0982">
        <ele>129.8</ele>
        <time>2026-05-15T15:11:12Z</time>
      </trkpt>
      <trkpt lat="43.68127" lon="7.09824">
        <ele>130</ele>
        <time>2026-05-15T15:11:13Z</time>
      </trkpt>
      <trkpt lat="43.68126" lon="7.0983">
        <ele>130.4</ele>
        <time>2026-05-15T15:11:14Z</time>
      </trkpt>
      <trkpt lat="43.68125" lon="7.09835">
        <ele>130.6</ele>
        <time>2026-05-15T15:11:15Z</time>
      </trkpt>
      <trkpt lat="43.68124" lon="7.09839">
        <ele>130.9</ele>
        <time>2026-05-15T15:11:16Z</time>
      </trkpt>
      <trkpt lat="43.68123" lon="7.09843">
        <ele>131.1</ele>
        <time>2026-05-15T15:11:17Z</time>
      </trkpt>
      <trkpt lat="43.68123" lon="7.09848">
        <ele>131.5</ele>
        <time>2026-05-15T15:11:18Z</time>
      </trkpt>
      <trkpt lat="43.68122" lon="7.09852">
        <ele>131.7</ele>
        <time>2026-05-15T15:11:19Z</time>
      </trkpt>
      <trkpt lat="43.68121" lon="7.09855">
        <ele>131.9</ele>
        <time>2026-05-15T15:11:20Z</time>
      </trkpt>
      <trkpt lat="43.68121" lon="7.09857">
        <ele>132.1</ele>
        <time>2026-05-15T15:11:21Z</time>
      </trkpt>
      <trkpt lat="43.68121" lon="7.09859">
        <ele>132.2</ele>
        <time>2026-05-15T15:11:22Z</time>
      </trkpt>
      <trkpt lat="43.68121" lon="7.0986">
        <ele>132.3</ele>
        <time>2026-05-15T15:11:23Z</time>
      </trkpt>
      <trkpt lat="43.68121" lon="7.09859">
        <ele>132.2</ele>
        <time>2026-05-15T15:11:24Z</time>
      </trkpt>
      <trkpt lat="43.68122" lon="7.09859">
        <ele>132.2</ele>
        <time>2026-05-15T15:11:25Z</time>
      </trkpt>
      <trkpt lat="43.68122" lon="7.09859">
        <ele>132.2</ele>
        <time>2026-05-15T15:11:26Z</time>
      </trkpt>
      <trkpt lat="43.68122" lon="7.09858">
        <ele>132.2</ele>
        <time>2026-05-15T15:11:27Z</time>
      </trkpt>
      <trkpt lat="43.68122" lon="7.09858">
        <ele>132.2</ele>
        <time>2026-05-15T15:11:28Z</time>
      </trkpt>
      <trkpt lat="43.68122" lon="7.09858">
        <ele>132.2</ele>
        <time>2026-05-15T15:11:29Z</time>
      </trkpt>
      <trkpt lat="43.68122" lon="7.09859">
        <ele>132.2</ele>
        <time>2026-05-15T15:11:30Z</time>
      </trkpt>
      <trkpt lat="43.68122" lon="7.0986">
        <ele>132.3</ele>
        <time>2026-05-15T15:11:31Z</time>
      </trkpt>
      <trkpt lat="43.68122" lon="7.09861">
        <ele>132.4</ele>
        <time>2026-05-15T15:11:32Z</time>
      </trkpt>
      <trkpt lat="43.68122" lon="7.09863">
        <ele>132.4</ele>
        <time>2026-05-15T15:11:33Z</time>
      </trkpt>
      <trkpt lat="43.68121" lon="7.09864">
        <ele>132.4</ele>
        <time>2026-05-15T15:11:34Z</time>
      </trkpt>
      <trkpt lat="43.68121" lon="7.09865">
        <ele>132.5</ele>
        <time>2026-05-15T15:11:35Z</time>
      </trkpt>
      <trkpt lat="43.68121" lon="7.09867">
        <ele>132.5</ele>
        <time>2026-05-15T15:11:36Z</time>
      </trkpt>
      <trkpt lat="43.68121" lon="7.09868">
        <ele>132.5</ele>
        <time>2026-05-15T15:11:37Z</time>
      </trkpt>
      <trkpt lat="43.68121" lon="7.09869">
        <ele>132.6</ele>
        <time>2026-05-15T15:11:38Z</time>
      </trkpt>
      <trkpt lat="43.6812" lon="7.0987">
        <ele>132.5</ele>
        <time>2026-05-15T15:11:39Z</time>
      </trkpt>
      <trkpt lat="43.6812" lon="7.09871">
        <ele>132.5</ele>
        <time>2026-05-15T15:11:40Z</time>
      </trkpt>
      <trkpt lat="43.6812" lon="7.09873">
        <ele>132.6</ele>
        <time>2026-05-15T15:11:41Z</time>
      </trkpt>
      <trkpt lat="43.68119" lon="7.09876">
        <ele>132.6</ele>
        <time>2026-05-15T15:11:42Z</time>
      </trkpt>
      <trkpt lat="43.68114" lon="7.09883">
        <ele>132.3</ele>
        <time>2026-05-15T15:11:43Z</time>
      </trkpt>
      <trkpt lat="43.6811" lon="7.09888">
        <ele>132</ele>
        <time>2026-05-15T15:11:44Z</time>
      </trkpt>
      <trkpt lat="43.68106" lon="7.09893">
        <ele>132</ele>
        <time>2026-05-15T15:11:45Z</time>
      </trkpt>
      <trkpt lat="43.68102" lon="7.09898">
        <ele>131.9</ele>
        <time>2026-05-15T15:11:46Z</time>
      </trkpt>
      <trkpt lat="43.68099" lon="7.09902">
        <ele>131.7</ele>
        <time>2026-05-15T15:11:47Z</time>
      </trkpt>
      <trkpt lat="43.68097" lon="7.09905">
        <ele>131.5</ele>
        <time>2026-05-15T15:11:48Z</time>
      </trkpt>
      <trkpt lat="43.68095" lon="7.09908">
        <ele>131.2</ele>
        <time>2026-05-15T15:11:49Z</time>
      </trkpt>
      <trkpt lat="43.68093" lon="7.0991">
        <ele>130.9</ele>
        <time>2026-05-15T15:11:50Z</time>
      </trkpt>
      <trkpt lat="43.68091" lon="7.09911">
        <ele>130.6</ele>
        <time>2026-05-15T15:11:51Z</time>
      </trkpt>
      <trkpt lat="43.68089" lon="7.09911">
        <ele>130.3</ele>
        <time>2026-05-15T15:11:52Z</time>
      </trkpt>
      <trkpt lat="43.68087" lon="7.09911">
        <ele>130</ele>
        <time>2026-05-15T15:11:53Z</time>
      </trkpt>
      <trkpt lat="43.68085" lon="7.09912">
        <ele>129.6</ele>
        <time>2026-05-15T15:11:54Z</time>
      </trkpt>
      <trkpt lat="43.68083" lon="7.09913">
        <ele>129.3</ele>
        <time>2026-05-15T15:11:55Z</time>
      </trkpt>
      <trkpt lat="43.68082" lon="7.09915">
        <ele>129.1</ele>
        <time>2026-05-15T15:11:56Z</time>
      </trkpt>
      <trkpt lat="43.68081" lon="7.09916">
        <ele>129</ele>
        <time>2026-05-15T15:11:57Z</time>
      </trkpt>
      <trkpt lat="43.68081" lon="7.09918">
        <ele>129</ele>
        <time>2026-05-15T15:11:58Z</time>
      </trkpt>
      <trkpt lat="43.6808" lon="7.0992">
        <ele>129</ele>
        <time>2026-05-15T15:11:59Z</time>
      </trkpt>
      <trkpt lat="43.6808" lon="7.09921">
        <ele>129</ele>
        <time>2026-05-15T15:12:00Z</time>
      </trkpt>
      <trkpt lat="43.68081" lon="7.09922">
        <ele>129</ele>
        <time>2026-05-15T15:12:01Z</time>
      </trkpt>
      <trkpt lat="43.68081" lon="7.09922">
        <ele>129</ele>
        <time>2026-05-15T15:12:02Z</time>
      </trkpt>
      <trkpt lat="43.68081" lon="7.09923">
        <ele>129</ele>
        <time>2026-05-15T15:12:03Z</time>
      </trkpt>
      <trkpt lat="43.68082" lon="7.09922">
        <ele>129</ele>
        <time>2026-05-15T15:12:04Z</time>
      </trkpt>
      <trkpt lat="43.68082" lon="7.09922">
        <ele>129</ele>
        <time>2026-05-15T15:12:05Z</time>
      </trkpt>
      <trkpt lat="43.68082" lon="7.09921">
        <ele>129</ele>
        <time>2026-05-15T15:12:06Z</time>
      </trkpt>
      <trkpt lat="43.68082" lon="7.09921">
        <ele>129</ele>
        <time>2026-05-15T15:12:07Z</time>
      </trkpt>
      <trkpt lat="43.68082" lon="7.09921">
        <ele>129</ele>
        <time>2026-05-15T15:12:08Z</time>
      </trkpt>
      <trkpt lat="43.68081" lon="7.09921">
        <ele>129</ele>
        <time>2026-05-15T15:12:09Z</time>
      </trkpt>
      <trkpt lat="43.68081" lon="7.0992">
        <ele>129</ele>
        <time>2026-05-15T15:12:10Z</time>
      </trkpt>
      <trkpt lat="43.68081" lon="7.0992">
        <ele>129</ele>
        <time>2026-05-15T15:12:11Z</time>
      </trkpt>
      <trkpt lat="43.68081" lon="7.0992">
        <ele>129</ele>
        <time>2026-05-15T15:12:12Z</time>
      </trkpt>
      <trkpt lat="43.68081" lon="7.0992">
        <ele>129</ele>
        <time>2026-05-15T15:12:13Z</time>
      </trkpt>
      <trkpt lat="43.68081" lon="7.0992">
        <ele>129</ele>
        <time>2026-05-15T15:12:14Z</time>
      </trkpt>
      <trkpt lat="43.68081" lon="7.0992">
        <ele>129</ele>
        <time>2026-05-15T15:12:15Z</time>
      </trkpt>
      <trkpt lat="43.68081" lon="7.0992">
        <ele>129</ele>
        <time>2026-05-15T15:12:16Z</time>
      </trkpt>
      <trkpt lat="43.68081" lon="7.09921">
        <ele>129</ele>
        <time>2026-05-15T15:12:17Z</time>
      </trkpt>
      <trkpt lat="43.68082" lon="7.09921">
        <ele>129</ele>
        <time>2026-05-15T15:12:18Z</time>
      </trkpt>
      <trkpt lat="43.68082" lon="7.09922">
        <ele>129</ele>
        <time>2026-05-15T15:12:19Z</time>
      </trkpt>
      <trkpt lat="43.68082" lon="7.09922">
        <ele>129</ele>
        <time>2026-05-15T15:12:20Z</time>
      </trkpt>
      <trkpt lat="43.68082" lon="7.09922">
        <ele>129</ele>
        <time>2026-05-15T15:12:21Z</time>
      </trkpt>
      <trkpt lat="43.68082" lon="7.09921">
        <ele>129</ele>
        <time>2026-05-15T15:12:22Z</time>
      </trkpt>
      <trkpt lat="43.68082" lon="7.09921">
        <ele>129</ele>
        <time>2026-05-15T15:12:23Z</time>
      </trkpt>
      <trkpt lat="43.68081" lon="7.09921">
        <ele>129</ele>
        <time>2026-05-15T15:12:24Z</time>
      </trkpt>
      <trkpt lat="43.68081" lon="7.09921">
        <ele>129</ele>
        <time>2026-05-15T15:12:25Z</time>
      </trkpt>
      <trkpt lat="43.68081" lon="7.0992">
        <ele>129</ele>
        <time>2026-05-15T15:12:26Z</time>
      </trkpt>
      <trkpt lat="43.68081" lon="7.0992">
        <ele>129</ele>
        <time>2026-05-15T15:12:27Z</time>
      </trkpt>
      <trkpt lat="43.68081" lon="7.0992">
        <ele>129</ele>
        <time>2026-05-15T15:12:28Z</time>
      </trkpt>
      <trkpt lat="43.68081" lon="7.0992">
        <ele>129</ele>
        <time>2026-05-15T15:12:29Z</time>
      </trkpt>
      <trkpt lat="43.68081" lon="7.0992">
        <ele>129</ele>
        <time>2026-05-15T15:12:30Z</time>
      </trkpt>
      <trkpt lat="43.68081" lon="7.0992">
        <ele>129</ele>
        <time>2026-05-15T15:12:31Z</time>
      </trkpt>
      <trkpt lat="43.68081" lon="7.0992">
        <ele>129</ele>
        <time>2026-05-15T15:12:32Z</time>
      </trkpt>
      <trkpt lat="43.68081" lon="7.0992">
        <ele>129</ele>
        <time>2026-05-15T15:12:33Z</time>
      </trkpt>
      <trkpt lat="43.68081" lon="7.0992">
        <ele>129</ele>
        <time>2026-05-15T15:12:34Z</time>
      </trkpt>
      <trkpt lat="43.68081" lon="7.0992">
        <ele>129</ele>
        <time>2026-05-15T15:12:35Z</time>
      </trkpt>
      <trkpt lat="43.68081" lon="7.0992">
        <ele>129</ele>
        <time>2026-05-15T15:12:36Z</time>
      </trkpt>
      <trkpt lat="43.68081" lon="7.0992">
        <ele>129</ele>
        <time>2026-05-15T15:12:37Z</time>
      </trkpt>
      <trkpt lat="43.68081" lon="7.0992">
        <ele>129</ele>
        <time>2026-05-15T15:12:38Z</time>
      </trkpt>
      <trkpt lat="43.68081" lon="7.0992">
        <ele>129</ele>
        <time>2026-05-15T15:12:39Z</time>
      </trkpt>
      <trkpt lat="43.68081" lon="7.0992">
        <ele>129</ele>
        <time>2026-05-15T15:12:40Z</time>
      </trkpt>
      <trkpt lat="43.68081" lon="7.0992">
        <ele>129</ele>
        <time>2026-05-15T15:12:41Z</time>
      </trkpt>
      <trkpt lat="43.68081" lon="7.0992">
        <ele>129</ele>
        <time>2026-05-15T15:12:42Z</time>
      </trkpt>
      <trkpt lat="43.68081" lon="7.09919">
        <ele>129</ele>
        <time>2026-05-15T15:12:43Z</time>
      </trkpt>
      <trkpt lat="43.68081" lon="7.09919">
        <ele>129</ele>
        <time>2026-05-15T15:12:44Z</time>
      </trkpt>
      <trkpt lat="43.68081" lon="7.09919">
        <ele>129</ele>
        <time>2026-05-15T15:12:45Z</time>
      </trkpt>
      <trkpt lat="43.68081" lon="7.09919">
        <ele>129</ele>
        <time>2026-05-15T15:12:46Z</time>
      </trkpt>
      <trkpt lat="43.68081" lon="7.09919">
        <ele>129</ele>
        <time>2026-05-15T15:12:47Z</time>
      </trkpt>
      <trkpt lat="43.68081" lon="7.09919">
        <ele>129</ele>
        <time>2026-05-15T15:12:48Z</time>
      </trkpt>
      <trkpt lat="43.68081" lon="7.09919">
        <ele>129</ele>
        <time>2026-05-15T15:12:49Z</time>
      </trkpt>
      <trkpt lat="43.68081" lon="7.09919">
        <ele>129</ele>
        <time>2026-05-15T15:12:50Z</time>
      </trkpt>
      <trkpt lat="43.68081" lon="7.09919">
        <ele>129</ele>
        <time>2026-05-15T15:12:51Z</time>
      </trkpt>
      <trkpt lat="43.68081" lon="7.09919">
        <ele>129</ele>
        <time>2026-05-15T15:12:52Z</time>
      </trkpt>
      <trkpt lat="43.68081" lon="7.09919">
        <ele>129</ele>
        <time>2026-05-15T15:12:53Z</time>
      </trkpt>
      <trkpt lat="43.68081" lon="7.09919">
        <ele>129</ele>
        <time>2026-05-15T15:12:54Z</time>
      </trkpt>
      <trkpt lat="43.68081" lon="7.09919">
        <ele>129</ele>
        <time>2026-05-15T15:12:55Z</time>
      </trkpt>
      <trkpt lat="43.68081" lon="7.09919">
        <ele>129</ele>
        <time>2026-05-15T15:12:56Z</time>
      </trkpt>
      <trkpt lat="43.68081" lon="7.09919">
        <ele>129</ele>
        <time>2026-05-15T15:12:57Z</time>
      </trkpt>
      <trkpt lat="43.68081" lon="7.09919">
        <ele>129</ele>
        <time>2026-05-15T15:12:58Z</time>
      </trkpt>
      <trkpt lat="43.68081" lon="7.09919">
        <ele>129</ele>
        <time>2026-05-15T15:12:59Z</time>
      </trkpt>
      <trkpt lat="43.68081" lon="7.09919">
        <ele>129</ele>
        <time>2026-05-15T15:13:00Z</time>
      </trkpt>
      <trkpt lat="43.68081" lon="7.09919">
        <ele>129</ele>
        <time>2026-05-15T15:13:01Z</time>
      </trkpt>
      <trkpt lat="43.68081" lon="7.09919">
        <ele>129</ele>
        <time>2026-05-15T15:13:02Z</time>
      </trkpt>
      <trkpt lat="43.68081" lon="7.09919">
        <ele>129</ele>
        <time>2026-05-15T15:13:03Z</time>
      </trkpt>
      <trkpt lat="43.68081" lon="7.09919">
        <ele>129</ele>
        <time>2026-05-15T15:13:04Z</time>
      </trkpt>
      <trkpt lat="43.68081" lon="7.09919">
        <ele>129</ele>
        <time>2026-05-15T15:13:05Z</time>
      </trkpt>
      <trkpt lat="43.68081" lon="7.09919">
        <ele>129</ele>
        <time>2026-05-15T15:13:06Z</time>
      </trkpt>
      <trkpt lat="43.68081" lon="7.09919">
        <ele>129</ele>
        <time>2026-05-15T15:13:07Z</time>
      </trkpt>
      <trkpt lat="43.68081" lon="7.09919">
        <ele>129</ele>
        <time>2026-05-15T15:13:08Z</time>
      </trkpt>
      <trkpt lat="43.68081" lon="7.09919">
        <ele>129</ele>
        <time>2026-05-15T15:13:09Z</time>
      </trkpt>
      <trkpt lat="43.68081" lon="7.09919">
        <ele>129</ele>
        <time>2026-05-15T15:13:10Z</time>
      </trkpt>
      <trkpt lat="43.68081" lon="7.09919">
        <ele>129</ele>
        <time>2026-05-15T15:13:11Z</time>
      </trkpt>
      <trkpt lat="43.68081" lon="7.09919">
        <ele>129</ele>
        <time>2026-05-15T15:13:12Z</time>
      </trkpt>
      <trkpt lat="43.68081" lon="7.09919">
        <ele>129</ele>
        <time>2026-05-15T15:13:13Z</time>
      </trkpt>
      <trkpt lat="43.68081" lon="7.09919">
        <ele>129</ele>
        <time>2026-05-15T15:13:14Z</time>
      </trkpt>
      <trkpt lat="43.68081" lon="7.09919">
        <ele>129</ele>
        <time>2026-05-15T15:13:15Z</time>
      </trkpt>
      <trkpt lat="43.68081" lon="7.09919">
        <ele>129</ele>
        <time>2026-05-15T15:13:16Z</time>
      </trkpt>
      <trkpt lat="43.68081" lon="7.09919">
        <ele>129</ele>
        <time>2026-05-15T15:13:17Z</time>
      </trkpt>
      <trkpt lat="43.68081" lon="7.09919">
        <ele>129</ele>
        <time>2026-05-15T15:13:18Z</time>
      </trkpt>
      <trkpt lat="43.68081" lon="7.09919">
        <ele>129</ele>
        <time>2026-05-15T15:13:19Z</time>
      </trkpt>
      <trkpt lat="43.68081" lon="7.09919">
        <ele>129</ele>
        <time>2026-05-15T15:13:20Z</time>
      </trkpt>
      <trkpt lat="43.68081" lon="7.09919">
        <ele>129</ele>
        <time>2026-05-15T15:13:21Z</time>
      </trkpt>
      <trkpt lat="43.68081" lon="7.09919">
        <ele>129</ele>
        <time>2026-05-15T15:13:22Z</time>
      </trkpt>
      <trkpt lat="43.68081" lon="7.09919">
        <ele>129</ele>
        <time>2026-05-15T15:13:23Z</time>
      </trkpt>
      <trkpt lat="43.68081" lon="7.09919">
        <ele>129</ele>
        <time>2026-05-15T15:13:24Z</time>
      </trkpt>
      <trkpt lat="43.68081" lon="7.09919">
        <ele>129</ele>
        <time>2026-05-15T15:13:25Z</time>
      </trkpt>
      <trkpt lat="43.68081" lon="7.09919">
        <ele>129</ele>
        <time>2026-05-15T15:13:26Z</time>
      </trkpt>
      <trkpt lat="43.68081" lon="7.09919">
        <ele>129</ele>
        <time>2026-05-15T15:13:27Z</time>
      </trkpt>
      <trkpt lat="43.68081" lon="7.09919">
        <ele>129</ele>
        <time>2026-05-15T15:13:28Z</time>
      </trkpt>
      <trkpt lat="43.68081" lon="7.09919">
        <ele>129</ele>
        <time>2026-05-15T15:13:29Z</time>
      </trkpt>
      <trkpt lat="43.68081" lon="7.09919">
        <ele>129</ele>
        <time>2026-05-15T15:13:30Z</time>
      </trkpt>
      <trkpt lat="43.68081" lon="7.09919">
        <ele>129</ele>
        <time>2026-05-15T15:13:31Z</time>
      </trkpt>
      <trkpt lat="43.68081" lon="7.09919">
        <ele>129</ele>
        <time>2026-05-15T15:13:32Z</time>
      </trkpt>
      <trkpt lat="43.68081" lon="7.09919">
        <ele>129</ele>
        <time>2026-05-15T15:13:33Z</time>
      </trkpt>
      <trkpt lat="43.68081" lon="7.09919">
        <ele>129</ele>
        <time>2026-05-15T15:13:34Z</time>
      </trkpt>
      <trkpt lat="43.68081" lon="7.09919">
        <ele>129</ele>
        <time>2026-05-15T15:13:35Z</time>
      </trkpt>
      <trkpt lat="43.68081" lon="7.09919">
        <ele>129</ele>
        <time>2026-05-15T15:13:36Z</time>
      </trkpt>
      <trkpt lat="43.68081" lon="7.09919">
        <ele>129</ele>
        <time>2026-05-15T15:13:37Z</time>
      </trkpt>
      <trkpt lat="43.68081" lon="7.09919">
        <ele>129</ele>
        <time>2026-05-15T15:13:38Z</time>
      </trkpt>
      <trkpt lat="43.68081" lon="7.09919">
        <ele>129</ele>
        <time>2026-05-15T15:13:39Z</time>
      </trkpt>
      <trkpt lat="43.68081" lon="7.09919">
        <ele>129</ele>
        <time>2026-05-15T15:13:40Z</time>
      </trkpt>
      <trkpt lat="43.68081" lon="7.09919">
        <ele>129</ele>
        <time>2026-05-15T15:13:41Z</time>
      </trkpt>
      <trkpt lat="43.68081" lon="7.09919">
        <ele>129</ele>
        <time>2026-05-15T15:13:42Z</time>
      </trkpt>
      <trkpt lat="43.68081" lon="7.09919">
        <ele>129</ele>
        <time>2026-05-15T15:13:43Z</time>
      </trkpt>
      <trkpt lat="43.68081" lon="7.09919">
        <ele>129</ele>
        <time>2026-05-15T15:13:44Z</time>
      </trkpt>
      <trkpt lat="43.68081" lon="7.09919">
        <ele>129</ele>
        <time>2026-05-15T15:13:45Z</time>
      </trkpt>
      <trkpt lat="43.68081" lon="7.09919">
        <ele>129</ele>
        <time>2026-05-15T15:13:46Z</time>
      </trkpt>
      <trkpt lat="43.68081" lon="7.09919">
        <ele>129</ele>
        <time>2026-05-15T15:13:47Z</time>
      </trkpt>
      <trkpt lat="43.68081" lon="7.09919">
        <ele>129</ele>
        <time>2026-05-15T15:13:48Z</time>
      </trkpt>
      <trkpt lat="43.68081" lon="7.09919">
        <ele>129</ele>
        <time>2026-05-15T15:13:49Z</time>
      </trkpt>
      <trkpt lat="43.68081" lon="7.09919">
        <ele>129</ele>
        <time>2026-05-15T15:13:50Z</time>
      </trkpt>
      <trkpt lat="43.68081" lon="7.09919">
        <ele>129</ele>
        <time>2026-05-15T15:13:51Z</time>
      </trkpt>
      <trkpt lat="43.68081" lon="7.09919">
        <ele>129</ele>
        <time>2026-05-15T15:13:52Z</time>
      </trkpt>
      <trkpt lat="43.68081" lon="7.09919">
        <ele>129</ele>
        <time>2026-05-15T15:13:53Z</time>
      </trkpt>
      <trkpt lat="43.68081" lon="7.09919">
        <ele>129</ele>
        <time>2026-05-15T15:13:54Z</time>
      </trkpt>
      <trkpt lat="43.68081" lon="7.09919">
        <ele>129</ele>
        <time>2026-05-15T15:13:55Z</time>
      </trkpt>
      <trkpt lat="43.68081" lon="7.09919">
        <ele>129</ele>
        <time>2026-05-15T15:13:56Z</time>
      </trkpt>
      <trkpt lat="43.68081" lon="7.09919">
        <ele>129</ele>
        <time>2026-05-15T15:13:57Z</time>
      </trkpt>
      <trkpt lat="43.68081" lon="7.09919">
        <ele>129</ele>
        <time>2026-05-15T15:13:58Z</time>
      </trkpt>
      <trkpt lat="43.68081" lon="7.09919">
        <ele>129</ele>
        <time>2026-05-15T15:13:59Z</time>
      </trkpt>
      <trkpt lat="43.68081" lon="7.09919">
        <ele>129</ele>
        <time>2026-05-15T15:14:00Z</time>
      </trkpt>
      <trkpt lat="43.68081" lon="7.09919">
        <ele>129</ele>
        <time>2026-05-15T15:14:01Z</time>
      </trkpt>
      <trkpt lat="43.68081" lon="7.09919">
        <ele>129</ele>
        <time>2026-05-15T15:14:02Z</time>
      </trkpt>
      <trkpt lat="43.68081" lon="7.09919">
        <ele>129</ele>
        <time>2026-05-15T15:14:03Z</time>
      </trkpt>
      <trkpt lat="43.68081" lon="7.09919">
        <ele>129</ele>
        <time>2026-05-15T15:14:04Z</time>
      </trkpt>
      <trkpt lat="43.68081" lon="7.09919">
        <ele>129</ele>
        <time>2026-05-15T15:14:05Z</time>
      </trkpt>
      <trkpt lat="43.68081" lon="7.09919">
        <ele>129</ele>
        <time>2026-05-15T15:14:06Z</time>
      </trkpt>
      <trkpt lat="43.68081" lon="7.09919">
        <ele>129</ele>
        <time>2026-05-15T15:14:07Z</time>
      </trkpt>
      <trkpt lat="43.68081" lon="7.09919">
        <ele>129</ele>
        <time>2026-05-15T15:14:08Z</time>
      </trkpt>
      <trkpt lat="43.68081" lon="7.09919">
        <ele>129</ele>
        <time>2026-05-15T15:14:09Z</time>
      </trkpt>
      <trkpt lat="43.68081" lon="7.09919">
        <ele>129</ele>
        <time>2026-05-15T15:14:10Z</time>
      </trkpt>
      <trkpt lat="43.68081" lon="7.09919">
        <ele>129</ele>
        <time>2026-05-15T15:14:11Z</time>
      </trkpt>
      <trkpt lat="43.68081" lon="7.09919">
        <ele>129</ele>
        <time>2026-05-15T15:14:12Z</time>
      </trkpt>
      <trkpt lat="43.68081" lon="7.09919">
        <ele>129</ele>
        <time>2026-05-15T15:14:13Z</time>
      </trkpt>
      <trkpt lat="43.68081" lon="7.09919">
        <ele>129</ele>
        <time>2026-05-15T15:14:14Z</time>
      </trkpt>
      <trkpt lat="43.68081" lon="7.09919">
        <ele>129</ele>
        <time>2026-05-15T15:14:15Z</time>
      </trkpt>
      <trkpt lat="43.68081" lon="7.09919">
        <ele>129</ele>
        <time>2026-05-15T15:14:16Z</time>
      </trkpt>
      <trkpt lat="43.68081" lon="7.09919">
        <ele>129</ele>
        <time>2026-05-15T15:14:17Z</time>
      </trkpt>
      <trkpt lat="43.68081" lon="7.09919">
        <ele>129</ele>
        <time>2026-05-15T15:14:18Z</time>
      </trkpt>
      <trkpt lat="43.68081" lon="7.09919">
        <ele>129</ele>
        <time>2026-05-15T15:14:19Z</time>
      </trkpt>
      <trkpt lat="43.68081" lon="7.09919">
        <ele>129</ele>
        <time>2026-05-15T15:14:20Z</time>
      </trkpt>
      <trkpt lat="43.68081" lon="7.09919">
        <ele>129</ele>
        <time>2026-05-15T15:14:21Z</time>
      </trkpt>
      <trkpt lat="43.68081" lon="7.09919">
        <ele>129</ele>
        <time>2026-05-15T15:14:22Z</time>
      </trkpt>
      <trkpt lat="43.68081" lon="7.09919">
        <ele>129</ele>
        <time>2026-05-15T15:14:23Z</time>
      </trkpt>
      <trkpt lat="43.68081" lon="7.09919">
        <ele>129</ele>
        <time>2026-05-15T15:14:24Z</time>
      </trkpt>
      <trkpt lat="43.68081" lon="7.09919">
        <ele>129</ele>
        <time>2026-05-15T15:14:25Z</time>
      </trkpt>
      <trkpt lat="43.68081" lon="7.09919">
        <ele>129</ele>
        <time>2026-05-15T15:14:26Z</time>
      </trkpt>
      <trkpt lat="43.68081" lon="7.09919">
        <ele>129</ele>
        <time>2026-05-15T15:14:27Z</time>
      </trkpt>
      <trkpt lat="43.68081" lon="7.09919">
        <ele>129</ele>
        <time>2026-05-15T15:14:28Z</time>
      </trkpt>
      <trkpt lat="43.68081" lon="7.09919">
        <ele>129</ele>
        <time>2026-05-15T15:14:29Z</time>
      </trkpt>
      <trkpt lat="43.68081" lon="7.09919">
        <ele>129</ele>
        <time>2026-05-15T15:14:30Z</time>
      </trkpt>
      <trkpt lat="43.68081" lon="7.09919">
        <ele>129</ele>
        <time>2026-05-15T15:14:31Z</time>
      </trkpt>
      <trkpt lat="43.68081" lon="7.09919">
        <ele>129</ele>
        <time>2026-05-15T15:14:32Z</time>
      </trkpt>
      <trkpt lat="43.68081" lon="7.09919">
        <ele>129</ele>
        <time>2026-05-15T15:14:33Z</time>
      </trkpt>
      <trkpt lat="43.68081" lon="7.09919">
        <ele>129</ele>
        <time>2026-05-15T15:14:34Z</time>
      </trkpt>
      <trkpt lat="43.68081" lon="7.09919">
        <ele>129</ele>
        <time>2026-05-15T15:14:35Z</time>
      </trkpt>
      <trkpt lat="43.6808" lon="7.09918">
        <ele>129</ele>
        <time>2026-05-15T15:14:36Z</time>
      </trkpt>
      <trkpt lat="43.6808" lon="7.09918">
        <ele>129</ele>
        <time>2026-05-15T15:14:37Z</time>
      </trkpt>
      <trkpt lat="43.6808" lon="7.09918">
        <ele>129</ele>
        <time>2026-05-15T15:14:38Z</time>
      </trkpt>
      <trkpt lat="43.6808" lon="7.09918">
        <ele>129</ele>
        <time>2026-05-15T15:14:39Z</time>
      </trkpt>
    </trkseg>
  </trk>
</gpx>